<?xml version='1.0' encoding='UTF-8'?><gpx version="1.1" creator="JPX - https://github.com/jenetics/jpx" xmlns="http://www.topografix.com/GPX/1/1"><trk><trkseg><trkpt lat="32.2515364" lon="-110.7519602"><ele>803.0000000000001</ele><time>2026-04-09T23:31:08.974Z</time></trkpt><trkpt lat="32.2514711" lon="-110.7519662"><ele>803.0</ele><time>2026-04-09T23:31:19.974Z</time></trkpt><trkpt lat="32.2514231" lon="-110.7518917"><ele>803.0</ele><time>2026-04-09T23:33:20.975Z</time></trkpt><trkpt lat="32.2514012" lon="-110.7518005"><ele>803.0</ele><time>2026-04-09T23:33:23.976Z</time></trkpt><trkpt lat="32.251304" lon="-110.7517855"><ele>803.0000000000001</ele><time>2026-04-09T23:33:26.975Z</time></trkpt><trkpt lat="32.2512047" lon="-110.7518169"><ele>803.0</ele><time>2026-04-09T23:33:28.975Z</time></trkpt><trkpt lat="32.2511365" lon="-110.7518278"><ele>802.1666666666667</ele><time>2026-04-09T23:33:30.975Z</time></trkpt><trkpt lat="32.2510726" lon="-110.7518158"><ele>801.3333333333334</ele><time>2026-04-09T23:33:36.966Z</time></trkpt><trkpt lat="32.2510359" lon="-110.7517476"><ele>800.5</ele><time>2026-04-09T23:33:37.976Z</time></trkpt><trkpt lat="32.2510168" lon="-110.7516693"><ele>799.6666666666667</ele><time>2026-04-09T23:33:38.975Z</time></trkpt><trkpt lat="32.2510096" lon="-110.7515676"><ele>798.8333333333334</ele><time>2026-04-09T23:33:39.976Z</time></trkpt><trkpt lat="32.2510087" lon="-110.7514375"><ele>798.0</ele><time>2026-04-09T23:33:40.976Z</time></trkpt><trkpt lat="32.25101" lon="-110.7512829"><ele>798.0</ele><time>2026-04-09T23:33:41.975Z</time></trkpt><trkpt lat="32.2510137" lon="-110.7511081"><ele>798.0</ele><time>2026-04-09T23:33:42.975Z</time></trkpt><trkpt lat="32.2510176" lon="-110.7509165"><ele>798.0</ele><time>2026-04-09T23:33:43.976Z</time></trkpt><trkpt lat="32.2510209" lon="-110.7507048"><ele>797.6666666666667</ele><time>2026-04-09T23:33:44.976Z</time></trkpt><trkpt lat="32.251024" lon="-110.7504772"><ele>797.3333333333334</ele><time>2026-04-09T23:33:45.976Z</time></trkpt><trkpt lat="32.251027" lon="-110.7502456"><ele>797.0</ele><time>2026-04-09T23:33:46.975Z</time></trkpt><trkpt lat="32.2510296" lon="-110.7500109"><ele>797.6666666666667</ele><time>2026-04-09T23:33:47.976Z</time></trkpt><trkpt lat="32.2510314" lon="-110.7497762"><ele>798.3333333333333</ele><time>2026-04-09T23:33:48.976Z</time></trkpt><trkpt lat="32.2510316" lon="-110.7495423"><ele>799.0</ele><time>2026-04-09T23:33:49.976Z</time></trkpt><trkpt lat="32.2510307" lon="-110.7493088"><ele>799.0</ele><time>2026-04-09T23:33:50.976Z</time></trkpt><trkpt lat="32.2510305" lon="-110.7490763"><ele>799.0</ele><time>2026-04-09T23:33:51.975Z</time></trkpt><trkpt lat="32.2510311" lon="-110.7488454"><ele>799.0</ele><time>2026-04-09T23:33:52.976Z</time></trkpt><trkpt lat="32.2510303" lon="-110.7486157"><ele>799.3333333333333</ele><time>2026-04-09T23:33:53.976Z</time></trkpt><trkpt lat="32.2510286" lon="-110.7483869"><ele>799.6666666666667</ele><time>2026-04-09T23:33:54.976Z</time></trkpt><trkpt lat="32.2510272" lon="-110.7481618"><ele>800.0</ele><time>2026-04-09T23:33:55.976Z</time></trkpt><trkpt lat="32.2510274" lon="-110.7479369"><ele>800.0</ele><time>2026-04-09T23:33:56.975Z</time></trkpt><trkpt lat="32.2510268" lon="-110.7477149"><ele>800.0</ele><time>2026-04-09T23:33:57.975Z</time></trkpt><trkpt lat="32.2510291" lon="-110.7474912"><ele>800.0</ele><time>2026-04-09T23:33:58.976Z</time></trkpt><trkpt lat="32.2510311" lon="-110.7472657"><ele>799.3333333333334</ele><time>2026-04-09T23:33:59.976Z</time></trkpt><trkpt lat="32.2510343" lon="-110.7470409"><ele>798.6666666666667</ele><time>2026-04-09T23:34:00.975Z</time></trkpt><trkpt lat="32.2510377" lon="-110.746813"><ele>798.0</ele><time>2026-04-09T23:34:01.976Z</time></trkpt><trkpt lat="32.2510416" lon="-110.7465853"><ele>798.0</ele><time>2026-04-09T23:34:02.976Z</time></trkpt><trkpt lat="32.2510449" lon="-110.7463595"><ele>798.0</ele><time>2026-04-09T23:34:03.976Z</time></trkpt><trkpt lat="32.2510517" lon="-110.746133"><ele>798.0</ele><time>2026-04-09T23:34:04.976Z</time></trkpt><trkpt lat="32.2510544" lon="-110.7459076"><ele>798.6666666666667</ele><time>2026-04-09T23:34:05.976Z</time></trkpt><trkpt lat="32.2510567" lon="-110.7456813"><ele>799.3333333333334</ele><time>2026-04-09T23:34:06.976Z</time></trkpt><trkpt lat="32.2510589" lon="-110.745455"><ele>800.0</ele><time>2026-04-09T23:34:07.976Z</time></trkpt><trkpt lat="32.2510609" lon="-110.7452284"><ele>800.0</ele><time>2026-04-09T23:34:08.976Z</time></trkpt><trkpt lat="32.2510604" lon="-110.745003"><ele>800.0</ele><time>2026-04-09T23:34:09.976Z</time></trkpt><trkpt lat="32.2510616" lon="-110.7447769"><ele>800.0</ele><time>2026-04-09T23:34:10.976Z</time></trkpt><trkpt lat="32.2510619" lon="-110.7445499"><ele>800.0</ele><time>2026-04-09T23:34:11.976Z</time></trkpt><trkpt lat="32.2510617" lon="-110.7443222"><ele>800.0</ele><time>2026-04-09T23:34:12.976Z</time></trkpt><trkpt lat="32.2510638" lon="-110.744096"><ele>800.0</ele><time>2026-04-09T23:34:13.976Z</time></trkpt><trkpt lat="32.251064" lon="-110.7438665"><ele>800.0</ele><time>2026-04-09T23:34:14.976Z</time></trkpt><trkpt lat="32.2510653" lon="-110.7436387"><ele>800.0</ele><time>2026-04-09T23:34:15.976Z</time></trkpt><trkpt lat="32.2510657" lon="-110.7434113"><ele>800.0</ele><time>2026-04-09T23:34:16.976Z</time></trkpt><trkpt lat="32.2510679" lon="-110.7431822"><ele>800.3333333333334</ele><time>2026-04-09T23:34:17.976Z</time></trkpt><trkpt lat="32.2510669" lon="-110.7429588"><ele>800.6666666666667</ele><time>2026-04-09T23:34:18.976Z</time></trkpt><trkpt lat="32.2510666" lon="-110.7427298"><ele>801.0</ele><time>2026-04-09T23:34:19.976Z</time></trkpt><trkpt lat="32.2510661" lon="-110.7425012"><ele>799.0</ele><time>2026-04-09T23:34:20.976Z</time></trkpt><trkpt lat="32.2510307" lon="-110.7493088"><ele>799.0</ele><time>2026-04-09T23:33:50.976Z</time></trkpt><trkpt lat="32.2510305" lon="-110.7490763"><ele>799.0</ele><time>2026-04-09T23:33:51.975Z</time></trkpt><trkpt lat="32.2510311" lon="-110.7488454"><ele>799.0</ele><time>2026-04-09T23:33:52.976Z</time></trkpt><trkpt lat="32.2510303" lon="-110.7486157"><ele>799.3333333333333</ele><time>2026-04-09T23:33:53.976Z</time></trkpt><trkpt lat="32.2510286" lon="-110.7483869"><ele>799.6666666666667</ele><time>2026-04-09T23:33:54.976Z</time></trkpt><trkpt lat="32.2510272" lon="-110.7481618"><ele>800.0</ele><time>2026-04-09T23:33:55.976Z</time></trkpt><trkpt lat="32.2510274" lon="-110.7479369"><ele>800.0</ele><time>2026-04-09T23:33:56.975Z</time></trkpt><trkpt lat="32.2510268" lon="-110.7477149"><ele>800.0</ele><time>2026-04-09T23:33:57.975Z</time></trkpt><trkpt lat="32.2510291" lon="-110.7474912"><ele>800.0</ele><time>2026-04-09T23:33:58.976Z</time></trkpt><trkpt lat="32.2510311" lon="-110.7472657"><ele>799.3333333333334</ele><time>2026-04-09T23:33:59.976Z</time></trkpt><trkpt lat="32.2510343" lon="-110.7470409"><ele>798.6666666666667</ele><time>2026-04-09T23:34:00.975Z</time></trkpt><trkpt lat="32.2510377" lon="-110.746813"><ele>798.0</ele><time>2026-04-09T23:34:01.976Z</time></trkpt><trkpt lat="32.2510416" lon="-110.7465853"><ele>798.0</ele><time>2026-04-09T23:34:02.976Z</time></trkpt><trkpt lat="32.2510449" lon="-110.7463595"><ele>798.0</ele><time>2026-04-09T23:34:03.976Z</time></trkpt><trkpt lat="32.2510517" lon="-110.746133"><ele>798.0</ele><time>2026-04-09T23:34:04.976Z</time></trkpt><trkpt lat="32.2510544" lon="-110.7459076"><ele>798.6666666666667</ele><time>2026-04-09T23:34:05.976Z</time></trkpt><trkpt lat="32.2510567" lon="-110.7456813"><ele>799.3333333333334</ele><time>2026-04-09T23:34:06.976Z</time></trkpt><trkpt lat="32.2510589" lon="-110.745455"><ele>800.0</ele><time>2026-04-09T23:34:07.976Z</time></trkpt><trkpt lat="32.2510609" lon="-110.7452284"><ele>800.0</ele><time>2026-04-09T23:34:08.976Z</time></trkpt><trkpt lat="32.2510604" lon="-110.745003"><ele>800.0</ele><time>2026-04-09T23:34:09.976Z</time></trkpt><trkpt lat="32.2510616" lon="-110.7447769"><ele>800.0</ele><time>2026-04-09T23:34:10.976Z</time></trkpt><trkpt lat="32.2510619" lon="-110.7445499"><ele>800.0</ele><time>2026-04-09T23:34:11.976Z</time></trkpt><trkpt lat="32.2510617" lon="-110.7443222"><ele>800.0</ele><time>2026-04-09T23:34:12.976Z</time></trkpt><trkpt lat="32.2510638" lon="-110.744096"><ele>800.0</ele><time>2026-04-09T23:34:13.976Z</time></trkpt><trkpt lat="32.251064" lon="-110.7438665"><ele>800.0</ele><time>2026-04-09T23:34:14.976Z</time></trkpt><trkpt lat="32.2510653" lon="-110.7436387"><ele>800.0</ele><time>2026-04-09T23:34:15.976Z</time></trkpt><trkpt lat="32.2510657" lon="-110.7434113"><ele>800.0</ele><time>2026-04-09T23:34:16.976Z</time></trkpt><trkpt lat="32.2510679" lon="-110.7431822"><ele>800.3333333333334</ele><time>2026-04-09T23:34:17.976Z</time></trkpt><trkpt lat="32.2510669" lon="-110.7429588"><ele>800.6666666666667</ele><time>2026-04-09T23:34:18.976Z</time></trkpt><trkpt lat="32.2510666" lon="-110.7427298"><ele>801.0</ele><time>2026-04-09T23:34:19.976Z</time></trkpt><trkpt lat="32.2510661" lon="-110.7425012"><ele>801.3333333333333</ele><time>2026-04-09T23:34:20.976Z</time></trkpt><trkpt lat="32.2510671" lon="-110.7422763"><ele>801.6666666666666</ele><time>2026-04-09T23:34:21.976Z</time></trkpt><trkpt lat="32.2510672" lon="-110.7420459"><ele>802.0</ele><time>2026-04-09T23:34:22.976Z</time></trkpt><trkpt lat="32.2510674" lon="-110.7418153"><ele>802.0</ele><time>2026-04-09T23:34:23.976Z</time></trkpt><trkpt lat="32.2510678" lon="-110.7415831"><ele>802.0</ele><time>2026-04-09T23:34:24.976Z</time></trkpt><trkpt lat="32.2510683" lon="-110.741351"><ele>802.0</ele><time>2026-04-09T23:34:25.976Z</time></trkpt><trkpt lat="32.2510682" lon="-110.7411153"><ele>802.0</ele><time>2026-04-09T23:34:26.975Z</time></trkpt><trkpt lat="32.2510648" lon="-110.7408804"><ele>802.0</ele><time>2026-04-09T23:34:27.975Z</time></trkpt><trkpt lat="32.2510639" lon="-110.740649"><ele>802.0</ele><time>2026-04-09T23:34:28.976Z</time></trkpt><trkpt lat="32.2510631" lon="-110.7404143"><ele>802.6666666666666</ele><time>2026-04-09T23:34:29.976Z</time></trkpt><trkpt lat="32.2510644" lon="-110.7401862"><ele>803.3333333333333</ele><time>2026-04-09T23:34:30.976Z</time></trkpt><trkpt lat="32.2510629" lon="-110.7399512"><ele>804.0</ele><time>2026-04-09T23:34:31.976Z</time></trkpt><trkpt lat="32.251064" lon="-110.7397155"><ele>804.0</ele><time>2026-04-09T23:34:32.976Z</time></trkpt><trkpt lat="32.2510638" lon="-110.7394805"><ele>804.0</ele><time>2026-04-09T23:34:33.976Z</time></trkpt><trkpt lat="32.2510639" lon="-110.7392489"><ele>804.0</ele><time>2026-04-09T23:34:34.976Z</time></trkpt><trkpt lat="32.2510635" lon="-110.7390193"><ele>804.3333333333333</ele><time>2026-04-09T23:34:35.976Z</time></trkpt><trkpt lat="32.2510665" lon="-110.7387925"><ele>804.6666666666666</ele><time>2026-04-09T23:34:36.976Z</time></trkpt><trkpt lat="32.2510696" lon="-110.7385673"><ele>805.0</ele><time>2026-04-09T23:34:37.976Z</time></trkpt><trkpt lat="32.2510717" lon="-110.7383391"><ele>805.0</ele><time>2026-04-09T23:34:38.976Z</time></trkpt><trkpt lat="32.2510747" lon="-110.7381064"><ele>805.0</ele><time>2026-04-09T23:34:39.975Z</time></trkpt><trkpt lat="32.2510738" lon="-110.7378696"><ele>805.0</ele><time>2026-04-09T23:34:40.975Z</time></trkpt><trkpt lat="32.2510732" lon="-110.737633"><ele>805.0</ele><time>2026-04-09T23:34:41.976Z</time></trkpt><trkpt lat="32.251073" lon="-110.7374024"><ele>805.0</ele><time>2026-04-09T23:34:42.976Z</time></trkpt><trkpt lat="32.2510757" lon="-110.737169"><ele>805.0</ele><time>2026-04-09T23:34:43.977Z</time></trkpt><trkpt lat="32.251079" lon="-110.7369358"><ele>806.3333333333333</ele><time>2026-04-09T23:34:44.976Z</time></trkpt><trkpt lat="32.2510808" lon="-110.7367022"><ele>807.6666666666667</ele><time>2026-04-09T23:34:45.976Z</time></trkpt><trkpt lat="32.2510791" lon="-110.73647"><ele>809.0</ele><time>2026-04-09T23:34:46.976Z</time></trkpt><trkpt lat="32.2510802" lon="-110.7362382"><ele>809.0</ele><time>2026-04-09T23:34:47.976Z</time></trkpt><trkpt lat="32.251081" lon="-110.7360074"><ele>809.0</ele><time>2026-04-09T23:34:48.976Z</time></trkpt><trkpt lat="32.2510823" lon="-110.7357773"><ele>809.0</ele><time>2026-04-09T23:34:49.976Z</time></trkpt><trkpt lat="32.2510849" lon="-110.7355471"><ele>809.0</ele><time>2026-04-09T23:34:50.976Z</time></trkpt><trkpt lat="32.2510834" lon="-110.7353138"><ele>809.0</ele><time>2026-04-09T23:34:51.976Z</time></trkpt><trkpt lat="32.251082" lon="-110.7350796"><ele>809.0</ele><time>2026-04-09T23:34:52.976Z</time></trkpt><trkpt lat="32.251083" lon="-110.7348504"><ele>809.0</ele><time>2026-04-09T23:34:53.976Z</time></trkpt><trkpt lat="32.2510835" lon="-110.734622"><ele>809.0</ele><time>2026-04-09T23:34:54.976Z</time></trkpt><trkpt lat="32.2510843" lon="-110.7343969"><ele>809.0</ele><time>2026-04-09T23:34:55.976Z</time></trkpt><trkpt lat="32.251083" lon="-110.7341721"><ele>809.6666666666667</ele><time>2026-04-09T23:34:56.977Z</time></trkpt><trkpt lat="32.2510775" lon="-110.7339474"><ele>810.3333333333333</ele><time>2026-04-09T23:34:57.977Z</time></trkpt><trkpt lat="32.2510732" lon="-110.7337221"><ele>811.0</ele><time>2026-04-09T23:34:58.977Z</time></trkpt><trkpt lat="32.2510731" lon="-110.7334948"><ele>811.0</ele><time>2026-04-09T23:34:59.976Z</time></trkpt><trkpt lat="32.2510729" lon="-110.7332634"><ele>811.0</ele><time>2026-04-09T23:35:00.977Z</time></trkpt><trkpt lat="32.2510746" lon="-110.7330363"><ele>811.0</ele><time>2026-04-09T23:35:01.976Z</time></trkpt><trkpt lat="32.2510734" lon="-110.7328114"><ele>811.0</ele><time>2026-04-09T23:35:02.976Z</time></trkpt><trkpt lat="32.2510742" lon="-110.7325873"><ele>811.0</ele><time>2026-04-09T23:35:03.977Z</time></trkpt><trkpt lat="32.2510747" lon="-110.7323648"><ele>811.0</ele><time>2026-04-09T23:35:04.976Z</time></trkpt><trkpt lat="32.2510771" lon="-110.7321394"><ele>811.0</ele><time>2026-04-09T23:35:05.977Z</time></trkpt><trkpt lat="32.2510788" lon="-110.7319165"><ele>811.0</ele><time>2026-04-09T23:35:06.977Z</time></trkpt><trkpt lat="32.2510815" lon="-110.7316893"><ele>811.0</ele><time>2026-04-09T23:35:07.977Z</time></trkpt><trkpt lat="32.2510837" lon="-110.7314601"><ele>811.6666666666666</ele><time>2026-04-09T23:35:08.976Z</time></trkpt><trkpt lat="32.2510855" lon="-110.7312305"><ele>812.3333333333333</ele><time>2026-04-09T23:35:09.977Z</time></trkpt><trkpt lat="32.2510861" lon="-110.7310008"><ele>813.0</ele><time>2026-04-09T23:35:10.977Z</time></trkpt><trkpt lat="32.2510909" lon="-110.7307709"><ele>813.0</ele><time>2026-04-09T23:35:11.977Z</time></trkpt><trkpt lat="32.251095" lon="-110.7305469"><ele>813.0</ele><time>2026-04-09T23:35:12.976Z</time></trkpt><trkpt lat="32.2510956" lon="-110.7303226"><ele>813.0</ele><time>2026-04-09T23:35:13.977Z</time></trkpt><trkpt lat="32.2510961" lon="-110.7300935"><ele>813.0</ele><time>2026-04-09T23:35:14.977Z</time></trkpt><trkpt lat="32.2510962" lon="-110.7298679"><ele>813.0</ele><time>2026-04-09T23:35:15.977Z</time></trkpt><trkpt lat="32.2510972" lon="-110.7296392"><ele>813.0</ele><time>2026-04-09T23:35:16.977Z</time></trkpt><trkpt lat="32.251098" lon="-110.7294109"><ele>813.6666666666667</ele><time>2026-04-09T23:35:17.977Z</time></trkpt><trkpt lat="32.2510991" lon="-110.7291823"><ele>814.3333333333334</ele><time>2026-04-09T23:35:18.977Z</time></trkpt><trkpt lat="32.2510991" lon="-110.7289556"><ele>815.0</ele><time>2026-04-09T23:35:19.977Z</time></trkpt><trkpt lat="32.2510998" lon="-110.7287266"><ele>815.3333333333334</ele><time>2026-04-09T23:35:20.977Z</time></trkpt><trkpt lat="32.2510985" lon="-110.7284981"><ele>815.6666666666667</ele><time>2026-04-09T23:35:21.977Z</time></trkpt><trkpt lat="32.251099" lon="-110.7282667"><ele>816.0</ele><time>2026-04-09T23:35:22.977Z</time></trkpt><trkpt lat="32.2511001" lon="-110.7280317"><ele>816.0</ele><time>2026-04-09T23:35:23.977Z</time></trkpt><trkpt lat="32.2510978" lon="-110.7277926"><ele>816.0</ele><time>2026-04-09T23:35:24.977Z</time></trkpt><trkpt lat="32.2510976" lon="-110.7275563"><ele>816.0</ele><time>2026-04-09T23:35:25.977Z</time></trkpt><trkpt lat="32.2510942" lon="-110.7273209"><ele>816.0</ele><time>2026-04-09T23:35:26.977Z</time></trkpt><trkpt lat="32.2510935" lon="-110.7270839"><ele>816.0</ele><time>2026-04-09T23:35:27.977Z</time></trkpt><trkpt lat="32.2510937" lon="-110.7268485"><ele>816.0</ele><time>2026-04-09T23:35:28.977Z</time></trkpt><trkpt lat="32.2510947" lon="-110.7266179"><ele>816.0</ele><time>2026-04-09T23:35:29.977Z</time></trkpt><trkpt lat="32.2510941" lon="-110.7263872"><ele>816.0</ele><time>2026-04-09T23:35:30.977Z</time></trkpt><trkpt lat="32.2510945" lon="-110.7261522"><ele>816.0</ele><time>2026-04-09T23:35:31.977Z</time></trkpt><trkpt lat="32.251091" lon="-110.725918"><ele>816.0</ele><time>2026-04-09T23:35:32.977Z</time></trkpt><trkpt lat="32.2510927" lon="-110.7256825"><ele>816.0</ele><time>2026-04-09T23:35:33.977Z</time></trkpt><trkpt lat="32.2510932" lon="-110.7254514"><ele>816.0</ele><time>2026-04-09T23:35:34.976Z</time></trkpt><trkpt lat="32.2510977" lon="-110.7252156"><ele>817.0</ele><time>2026-04-09T23:35:35.977Z</time></trkpt><trkpt lat="32.2510991" lon="-110.7249793"><ele>818.0</ele><time>2026-04-09T23:35:36.976Z</time></trkpt><trkpt lat="32.2510989" lon="-110.7247442"><ele>819.0</ele><time>2026-04-09T23:35:37.977Z</time></trkpt><trkpt lat="32.2511005" lon="-110.7245132"><ele>819.3333333333333</ele><time>2026-04-09T23:35:38.977Z</time></trkpt><trkpt lat="32.2511011" lon="-110.7242807"><ele>819.6666666666666</ele><time>2026-04-09T23:35:39.977Z</time></trkpt><trkpt lat="32.2511" lon="-110.7240473"><ele>820.0</ele><time>2026-04-09T23:35:40.977Z</time></trkpt><trkpt lat="32.2511003" lon="-110.7238147"><ele>820.0</ele><time>2026-04-09T23:35:41.977Z</time></trkpt><trkpt lat="32.2511035" lon="-110.7235831"><ele>820.0</ele><time>2026-04-09T23:35:42.977Z</time></trkpt><trkpt lat="32.2511047" lon="-110.723354"><ele>820.0</ele><time>2026-04-09T23:35:43.976Z</time></trkpt><trkpt lat="32.2511055" lon="-110.723122"><ele>820.3333333333333</ele><time>2026-04-09T23:35:44.977Z</time></trkpt><trkpt lat="32.2511043" lon="-110.7228955"><ele>820.6666666666667</ele><time>2026-04-09T23:35:45.977Z</time></trkpt><trkpt lat="32.2511077" lon="-110.7226677"><ele>821.0</ele><time>2026-04-09T23:35:46.977Z</time></trkpt><trkpt lat="32.2511081" lon="-110.7224373"><ele>821.6666666666667</ele><time>2026-04-09T23:35:47.977Z</time></trkpt><trkpt lat="32.2511044" lon="-110.7222041"><ele>822.3333333333333</ele><time>2026-04-09T23:35:48.977Z</time></trkpt><trkpt lat="32.2511077" lon="-110.7219739"><ele>823.0</ele><time>2026-04-09T23:35:49.977Z</time></trkpt><trkpt lat="32.251108" lon="-110.7217383"><ele>823.0</ele><time>2026-04-09T23:35:50.977Z</time></trkpt><trkpt lat="32.2511088" lon="-110.7215067"><ele>823.0</ele><time>2026-04-09T23:35:51.977Z</time></trkpt><trkpt lat="32.2511101" lon="-110.7212767"><ele>823.0</ele><time>2026-04-09T23:35:52.977Z</time></trkpt><trkpt lat="32.2511083" lon="-110.7210435"><ele>823.6666666666666</ele><time>2026-04-09T23:35:53.977Z</time></trkpt><trkpt lat="32.2511109" lon="-110.7208104"><ele>824.3333333333333</ele><time>2026-04-09T23:35:54.977Z</time></trkpt><trkpt lat="32.2511122" lon="-110.7205834"><ele>825.0</ele><time>2026-04-09T23:35:55.977Z</time></trkpt><trkpt lat="32.2511137" lon="-110.7203493"><ele>826.6666666666667</ele><time>2026-04-09T23:35:56.977Z</time></trkpt><trkpt lat="32.2511105" lon="-110.7201163"><ele>828.3333333333334</ele><time>2026-04-09T23:35:57.977Z</time></trkpt><trkpt lat="32.2511111" lon="-110.7198874"><ele>830.0</ele><time>2026-04-09T23:35:58.977Z</time></trkpt><trkpt lat="32.2511076" lon="-110.7196636"><ele>830.0</ele><time>2026-04-09T23:35:59.977Z</time></trkpt><trkpt lat="32.2511099" lon="-110.7194323"><ele>830.0</ele><time>2026-04-09T23:36:00.977Z</time></trkpt><trkpt lat="32.2511104" lon="-110.7192046"><ele>830.0</ele><time>2026-04-09T23:36:01.977Z</time></trkpt><trkpt lat="32.2511117" lon="-110.7189721"><ele>829.6666666666667</ele><time>2026-04-09T23:36:02.977Z</time></trkpt><trkpt lat="32.2511104" lon="-110.7187373"><ele>829.3333333333333</ele><time>2026-04-09T23:36:03.977Z</time></trkpt><trkpt lat="32.2511116" lon="-110.7184958"><ele>829.0</ele><time>2026-04-09T23:36:04.977Z</time></trkpt><trkpt lat="32.2511102" lon="-110.7182528"><ele>828.6666666666666</ele><time>2026-04-09T23:36:05.977Z</time></trkpt><trkpt lat="32.251114" lon="-110.7180059"><ele>828.3333333333333</ele><time>2026-04-09T23:36:06.977Z</time></trkpt><trkpt lat="32.2511171" lon="-110.717759"><ele>828.0</ele><time>2026-04-09T23:36:07.977Z</time></trkpt><trkpt lat="32.2511192" lon="-110.7175254"><ele>829.0</ele><time>2026-04-09T23:36:08.977Z</time></trkpt><trkpt lat="32.2511191" lon="-110.717292"><ele>830.0</ele><time>2026-04-09T23:36:09.977Z</time></trkpt><trkpt lat="32.2511216" lon="-110.7170628"><ele>831.0</ele><time>2026-04-09T23:36:10.977Z</time></trkpt><trkpt lat="32.25112" lon="-110.7168345"><ele>831.3333333333333</ele><time>2026-04-09T23:36:11.977Z</time></trkpt><trkpt lat="32.2511213" lon="-110.7165992"><ele>831.6666666666666</ele><time>2026-04-09T23:36:12.977Z</time></trkpt><trkpt lat="32.2511197" lon="-110.7163547"><ele>832.0</ele><time>2026-04-09T23:36:13.977Z</time></trkpt><trkpt lat="32.2511195" lon="-110.7161164"><ele>832.3333333333333</ele><time>2026-04-09T23:36:14.977Z</time></trkpt><trkpt lat="32.2511209" lon="-110.7158772"><ele>832.6666666666667</ele><time>2026-04-09T23:36:15.977Z</time></trkpt><trkpt lat="32.251123" lon="-110.7156438"><ele>833.0</ele><time>2026-04-09T23:36:16.977Z</time></trkpt><trkpt lat="32.2511237" lon="-110.7154052"><ele>833.6666666666667</ele><time>2026-04-09T23:36:17.977Z</time></trkpt><trkpt lat="32.2511243" lon="-110.715166"><ele>834.3333333333333</ele><time>2026-04-09T23:36:18.977Z</time></trkpt><trkpt lat="32.2511234" lon="-110.7149328"><ele>835.0</ele><time>2026-04-09T23:36:19.977Z</time></trkpt><trkpt lat="32.251123" lon="-110.7147006"><ele>835.0</ele><time>2026-04-09T23:36:20.977Z</time></trkpt><trkpt lat="32.2511253" lon="-110.7144643"><ele>835.0</ele><time>2026-04-09T23:36:21.977Z</time></trkpt><trkpt lat="32.2511269" lon="-110.7142219"><ele>835.0</ele><time>2026-04-09T23:36:22.976Z</time></trkpt><trkpt lat="32.251132" lon="-110.7139766"><ele>833.6666666666666</ele><time>2026-04-09T23:36:23.977Z</time></trkpt><trkpt lat="32.2511333" lon="-110.7137269"><ele>832.3333333333333</ele><time>2026-04-09T23:36:24.976Z</time></trkpt><trkpt lat="32.251134" lon="-110.7134792"><ele>831.0</ele><time>2026-04-09T23:36:25.977Z</time></trkpt><trkpt lat="32.2511353" lon="-110.7132322"><ele>831.0</ele><time>2026-04-09T23:36:26.978Z</time></trkpt><trkpt lat="32.251135" lon="-110.7129864"><ele>831.0</ele><time>2026-04-09T23:36:27.977Z</time></trkpt><trkpt lat="32.2511385" lon="-110.7127435"><ele>831.0</ele><time>2026-04-09T23:36:28.977Z</time></trkpt><trkpt lat="32.2511378" lon="-110.7125018"><ele>831.0</ele><time>2026-04-09T23:36:29.977Z</time></trkpt><trkpt lat="32.2511379" lon="-110.7122629"><ele>831.0</ele><time>2026-04-09T23:36:30.977Z</time></trkpt><trkpt lat="32.2511391" lon="-110.7120187"><ele>831.0</ele><time>2026-04-09T23:36:31.977Z</time></trkpt><trkpt lat="32.2511357" lon="-110.7117813"><ele>831.3333333333333</ele><time>2026-04-09T23:36:32.976Z</time></trkpt><trkpt lat="32.2511356" lon="-110.7115428"><ele>831.6666666666666</ele><time>2026-04-09T23:36:33.977Z</time></trkpt><trkpt lat="32.2511383" lon="-110.7113071"><ele>832.0</ele><time>2026-04-09T23:36:34.977Z</time></trkpt><trkpt lat="32.2511395" lon="-110.7110752"><ele>832.6666666666666</ele><time>2026-04-09T23:36:35.977Z</time></trkpt><trkpt lat="32.2511413" lon="-110.7108433"><ele>833.3333333333333</ele><time>2026-04-09T23:36:36.977Z</time></trkpt><trkpt lat="32.251143" lon="-110.7106098"><ele>834.0</ele><time>2026-04-09T23:36:37.977Z</time></trkpt><trkpt lat="32.2511412" lon="-110.7103725"><ele>834.6666666666667</ele><time>2026-04-09T23:36:38.977Z</time></trkpt><trkpt lat="32.2511405" lon="-110.7101384"><ele>835.3333333333334</ele><time>2026-04-09T23:36:39.977Z</time></trkpt><trkpt lat="32.2511374" lon="-110.7099001"><ele>836.0</ele><time>2026-04-09T23:36:40.977Z</time></trkpt><trkpt lat="32.2511389" lon="-110.7096636"><ele>836.0</ele><time>2026-04-09T23:36:41.977Z</time></trkpt><trkpt lat="32.2511392" lon="-110.7094263"><ele>836.0</ele><time>2026-04-09T23:36:42.977Z</time></trkpt><trkpt lat="32.2511387" lon="-110.7091871"><ele>836.0</ele><time>2026-04-09T23:36:43.977Z</time></trkpt><trkpt lat="32.2511406" lon="-110.7089515"><ele>835.3333333333334</ele><time>2026-04-09T23:36:44.977Z</time></trkpt><trkpt lat="32.2511406" lon="-110.7087171"><ele>834.6666666666667</ele><time>2026-04-09T23:36:45.977Z</time></trkpt><trkpt lat="32.2511401" lon="-110.708481"><ele>834.0</ele><time>2026-04-09T23:36:46.977Z</time></trkpt><trkpt lat="32.2511371" lon="-110.7082437"><ele>834.0</ele><time>2026-04-09T23:36:47.977Z</time></trkpt><trkpt lat="32.2511312" lon="-110.7080025"><ele>834.0</ele><time>2026-04-09T23:36:48.977Z</time></trkpt><trkpt lat="32.2511154" lon="-110.7077658"><ele>834.0</ele><time>2026-04-09T23:36:49.977Z</time></trkpt><trkpt lat="32.251092" lon="-110.7075345"><ele>834.6666666666667</ele><time>2026-04-09T23:36:50.977Z</time></trkpt><trkpt lat="32.2510586" lon="-110.7073065"><ele>835.3333333333334</ele><time>2026-04-09T23:36:51.977Z</time></trkpt><trkpt lat="32.2510091" lon="-110.7070777"><ele>836.0</ele><time>2026-04-09T23:36:52.977Z</time></trkpt><trkpt lat="32.250952" lon="-110.7068444"><ele>836.0</ele><time>2026-04-09T23:36:53.978Z</time></trkpt><trkpt lat="32.2508916" lon="-110.7066103"><ele>836.0</ele><time>2026-04-09T23:36:54.978Z</time></trkpt><trkpt lat="32.2508327" lon="-110.7063774"><ele>836.0</ele><time>2026-04-09T23:36:55.978Z</time></trkpt><trkpt lat="32.2507726" lon="-110.7061498"><ele>835.6666666666667</ele><time>2026-04-09T23:36:56.978Z</time></trkpt><trkpt lat="32.2507122" lon="-110.7059287"><ele>835.3333333333333</ele><time>2026-04-09T23:36:57.977Z</time></trkpt><trkpt lat="32.2506584" lon="-110.7057052"><ele>835.0</ele><time>2026-04-09T23:36:58.978Z</time></trkpt><trkpt lat="32.2506023" lon="-110.7054847"><ele>834.6666666666666</ele><time>2026-04-09T23:36:59.976Z</time></trkpt><trkpt lat="32.2505472" lon="-110.7052718"><ele>834.3333333333333</ele><time>2026-04-09T23:37:00.978Z</time></trkpt><trkpt lat="32.2504923" lon="-110.7050618"><ele>834.0</ele><time>2026-04-09T23:37:01.978Z</time></trkpt><trkpt lat="32.2504372" lon="-110.7048516"><ele>834.0</ele><time>2026-04-09T23:37:02.978Z</time></trkpt><trkpt lat="32.2503813" lon="-110.704651"><ele>834.0</ele><time>2026-04-09T23:37:03.978Z</time></trkpt><trkpt lat="32.2503285" lon="-110.7044527"><ele>834.0</ele><time>2026-04-09T23:37:04.978Z</time></trkpt><trkpt lat="32.2502693" lon="-110.7042428"><ele>835.0</ele><time>2026-04-09T23:37:05.978Z</time></trkpt><trkpt lat="32.250215" lon="-110.7040297"><ele>836.0</ele><time>2026-04-09T23:37:06.978Z</time></trkpt><trkpt lat="32.25016" lon="-110.7038146"><ele>837.0</ele><time>2026-04-09T23:37:07.976Z</time></trkpt><trkpt lat="32.2501037" lon="-110.7035945"><ele>838.0</ele><time>2026-04-09T23:37:08.977Z</time></trkpt><trkpt lat="32.2500495" lon="-110.7033687"><ele>839.0</ele><time>2026-04-09T23:37:09.978Z</time></trkpt><trkpt lat="32.2499962" lon="-110.7031393"><ele>840.0</ele><time>2026-04-09T23:37:10.978Z</time></trkpt><trkpt lat="32.249935" lon="-110.7029219"><ele>840.3333333333333</ele><time>2026-04-09T23:37:11.978Z</time></trkpt><trkpt lat="32.2498789" lon="-110.7027032"><ele>840.6666666666666</ele><time>2026-04-09T23:37:12.978Z</time></trkpt><trkpt lat="32.2498243" lon="-110.7024854"><ele>841.0</ele><time>2026-04-09T23:37:13.977Z</time></trkpt><trkpt lat="32.2497739" lon="-110.7022706"><ele>840.3333333333333</ele><time>2026-04-09T23:37:14.978Z</time></trkpt><trkpt lat="32.2497135" lon="-110.7020539"><ele>839.6666666666667</ele><time>2026-04-09T23:37:15.978Z</time></trkpt><trkpt lat="32.2496548" lon="-110.7018422"><ele>839.0</ele><time>2026-04-09T23:37:16.978Z</time></trkpt><trkpt lat="32.249598" lon="-110.7016187"><ele>839.0</ele><time>2026-04-09T23:37:17.978Z</time></trkpt><trkpt lat="32.2495395" lon="-110.7013908"><ele>839.0</ele><time>2026-04-09T23:37:18.978Z</time></trkpt><trkpt lat="32.2494846" lon="-110.701168"><ele>839.0</ele><time>2026-04-09T23:37:19.978Z</time></trkpt><trkpt lat="32.2494278" lon="-110.7009433"><ele>840.0</ele><time>2026-04-09T23:37:20.978Z</time></trkpt><trkpt lat="32.2493736" lon="-110.7007197"><ele>841.0</ele><time>2026-04-09T23:37:21.978Z</time></trkpt><trkpt lat="32.2493149" lon="-110.7004976"><ele>842.0</ele><time>2026-04-09T23:37:22.978Z</time></trkpt><trkpt lat="32.2492564" lon="-110.700275"><ele>841.6666666666667</ele><time>2026-04-09T23:37:23.978Z</time></trkpt><trkpt lat="32.2491987" lon="-110.700051"><ele>841.3333333333333</ele><time>2026-04-09T23:37:24.978Z</time></trkpt><trkpt lat="32.2491399" lon="-110.6998272"><ele>841.0</ele><time>2026-04-09T23:37:25.978Z</time></trkpt><trkpt lat="32.2490823" lon="-110.6996082"><ele>841.0</ele><time>2026-04-09T23:37:26.978Z</time></trkpt><trkpt lat="32.2490258" lon="-110.6993902"><ele>841.0</ele><time>2026-04-09T23:37:27.978Z</time></trkpt><trkpt lat="32.248968" lon="-110.6991714"><ele>841.0</ele><time>2026-04-09T23:37:28.978Z</time></trkpt><trkpt lat="32.2489117" lon="-110.6989509"><ele>840.6666666666666</ele><time>2026-04-09T23:37:29.978Z</time></trkpt><trkpt lat="32.2488538" lon="-110.6987421"><ele>840.3333333333333</ele><time>2026-04-09T23:37:30.978Z</time></trkpt><trkpt lat="32.2487935" lon="-110.6985238"><ele>840.0</ele><time>2026-04-09T23:37:31.978Z</time></trkpt><trkpt lat="32.2487329" lon="-110.6983115"><ele>840.0</ele><time>2026-04-09T23:37:32.978Z</time></trkpt><trkpt lat="32.2486759" lon="-110.6980971"><ele>840.0</ele><time>2026-04-09T23:37:33.978Z</time></trkpt><trkpt lat="32.2486207" lon="-110.6978925"><ele>840.0</ele><time>2026-04-09T23:37:34.978Z</time></trkpt><trkpt lat="32.2485717" lon="-110.6976945"><ele>839.6666666666667</ele><time>2026-04-09T23:37:35.978Z</time></trkpt><trkpt lat="32.2485355" lon="-110.6974922"><ele>839.3333333333334</ele><time>2026-04-09T23:37:36.978Z</time></trkpt><trkpt lat="32.2485174" lon="-110.69729"><ele>839.0</ele><time>2026-04-09T23:37:37.978Z</time></trkpt><trkpt lat="32.2485202" lon="-110.6970853"><ele>838.3333333333334</ele><time>2026-04-09T23:37:38.978Z</time></trkpt><trkpt lat="32.2485446" lon="-110.6968853"><ele>837.6666666666667</ele><time>2026-04-09T23:37:39.978Z</time></trkpt><trkpt lat="32.2485932" lon="-110.6966709"><ele>837.0</ele><time>2026-04-09T23:37:40.978Z</time></trkpt><trkpt lat="32.2486493" lon="-110.6964471"><ele>837.0</ele><time>2026-04-09T23:37:41.978Z</time></trkpt><trkpt lat="32.2487106" lon="-110.6962294"><ele>837.0</ele><time>2026-04-09T23:37:42.977Z</time></trkpt><trkpt lat="32.2487712" lon="-110.696014"><ele>837.0</ele><time>2026-04-09T23:37:43.978Z</time></trkpt><trkpt lat="32.2488295" lon="-110.6957954"><ele>837.6666666666667</ele><time>2026-04-09T23:37:44.978Z</time></trkpt><trkpt lat="32.2488883" lon="-110.6955788"><ele>838.3333333333334</ele><time>2026-04-09T23:37:45.978Z</time></trkpt><trkpt lat="32.2489472" lon="-110.6953703"><ele>839.0</ele><time>2026-04-09T23:37:46.977Z</time></trkpt><trkpt lat="32.2490009" lon="-110.6951616"><ele>841.0</ele><time>2026-04-09T23:37:47.978Z</time></trkpt><trkpt lat="32.2490461" lon="-110.6949578"><ele>843.0</ele><time>2026-04-09T23:37:48.978Z</time></trkpt><trkpt lat="32.2490798" lon="-110.6947537"><ele>845.0</ele><time>2026-04-09T23:37:49.978Z</time></trkpt><trkpt lat="32.2490992" lon="-110.6945423"><ele>846.0</ele><time>2026-04-09T23:37:50.977Z</time></trkpt><trkpt lat="32.2490989" lon="-110.6943289"><ele>847.0</ele><time>2026-04-09T23:37:51.978Z</time></trkpt><trkpt lat="32.2490857" lon="-110.6941137"><ele>848.0</ele><time>2026-04-09T23:37:52.978Z</time></trkpt><trkpt lat="32.249058" lon="-110.6938926"><ele>848.0</ele><time>2026-04-09T23:37:53.978Z</time></trkpt><trkpt lat="32.2490164" lon="-110.6936644"><ele>848.0</ele><time>2026-04-09T23:37:54.978Z</time></trkpt><trkpt lat="32.2489604" lon="-110.6934393"><ele>848.0</ele><time>2026-04-09T23:37:55.978Z</time></trkpt><trkpt lat="32.2488975" lon="-110.6932208"><ele>846.0</ele><time>2026-04-09T23:37:56.978Z</time></trkpt><trkpt lat="32.2488301" lon="-110.6930084"><ele>844.0</ele><time>2026-04-09T23:37:57.978Z</time></trkpt><trkpt lat="32.2487691" lon="-110.6927951"><ele>842.0</ele><time>2026-04-09T23:37:58.978Z</time></trkpt><trkpt lat="32.2487111" lon="-110.6925843"><ele>841.3333333333334</ele><time>2026-04-09T23:37:59.978Z</time></trkpt><trkpt lat="32.2486567" lon="-110.6923668"><ele>840.6666666666667</ele><time>2026-04-09T23:38:00.977Z</time></trkpt><trkpt lat="32.2486144" lon="-110.6921349"><ele>840.0</ele><time>2026-04-09T23:38:01.977Z</time></trkpt><trkpt lat="32.2485804" lon="-110.6919035"><ele>840.0</ele><time>2026-04-09T23:38:02.978Z</time></trkpt><trkpt lat="32.2485659" lon="-110.69167"><ele>840.0</ele><time>2026-04-09T23:38:03.976Z</time></trkpt><trkpt lat="32.2485688" lon="-110.6914394"><ele>840.0</ele><time>2026-04-09T23:38:04.978Z</time></trkpt><trkpt lat="32.2485936" lon="-110.6912156"><ele>840.0</ele><time>2026-04-09T23:38:05.978Z</time></trkpt><trkpt lat="32.2486405" lon="-110.6909935"><ele>840.0</ele><time>2026-04-09T23:38:06.978Z</time></trkpt><trkpt lat="32.2487046" lon="-110.6907834"><ele>840.0</ele><time>2026-04-09T23:38:07.978Z</time></trkpt><trkpt lat="32.2487804" lon="-110.6905676"><ele>840.0</ele><time>2026-04-09T23:38:08.978Z</time></trkpt><trkpt lat="32.248863" lon="-110.6903558"><ele>840.0</ele><time>2026-04-09T23:38:09.978Z</time></trkpt><trkpt lat="32.248953" lon="-110.6901434"><ele>840.0</ele><time>2026-04-09T23:38:10.978Z</time></trkpt><trkpt lat="32.2490415" lon="-110.6899336"><ele>840.6666666666667</ele><time>2026-04-09T23:38:11.977Z</time></trkpt><trkpt lat="32.2491282" lon="-110.689733"><ele>841.3333333333334</ele><time>2026-04-09T23:38:12.978Z</time></trkpt><trkpt lat="32.2492111" lon="-110.6895338"><ele>842.0</ele><time>2026-04-09T23:38:13.977Z</time></trkpt><trkpt lat="32.2492943" lon="-110.6893332"><ele>842.0</ele><time>2026-04-09T23:38:14.978Z</time></trkpt><trkpt lat="32.2493849" lon="-110.6891325"><ele>842.0</ele><time>2026-04-09T23:38:15.978Z</time></trkpt><trkpt lat="32.2494698" lon="-110.6889341"><ele>842.0</ele><time>2026-04-09T23:38:16.978Z</time></trkpt><trkpt lat="32.2495542" lon="-110.6887327"><ele>842.0</ele><time>2026-04-09T23:38:17.978Z</time></trkpt><trkpt lat="32.2496375" lon="-110.6885245"><ele>842.0</ele><time>2026-04-09T23:38:18.978Z</time></trkpt><trkpt lat="32.2497237" lon="-110.6883184"><ele>842.0</ele><time>2026-04-09T23:38:19.978Z</time></trkpt><trkpt lat="32.2498085" lon="-110.6881133"><ele>843.0</ele><time>2026-04-09T23:38:20.978Z</time></trkpt><trkpt lat="32.2498884" lon="-110.6879018"><ele>844.0</ele><time>2026-04-09T23:38:21.978Z</time></trkpt><trkpt lat="32.2499652" lon="-110.6876949"><ele>845.0</ele><time>2026-04-09T23:38:22.977Z</time></trkpt><trkpt lat="32.2500368" lon="-110.6874799"><ele>845.0</ele><time>2026-04-09T23:38:23.978Z</time></trkpt><trkpt lat="32.250101" lon="-110.687259"><ele>845.0</ele><time>2026-04-09T23:38:24.978Z</time></trkpt><trkpt lat="32.2501618" lon="-110.6870388"><ele>845.0</ele><time>2026-04-09T23:38:25.978Z</time></trkpt><trkpt lat="32.2502231" lon="-110.6868114"><ele>844.3333333333334</ele><time>2026-04-09T23:38:26.978Z</time></trkpt><trkpt lat="32.2502841" lon="-110.6865839"><ele>843.6666666666667</ele><time>2026-04-09T23:38:27.978Z</time></trkpt><trkpt lat="32.2503423" lon="-110.6863556"><ele>843.0</ele><time>2026-04-09T23:38:28.978Z</time></trkpt><trkpt lat="32.2504036" lon="-110.68614"><ele>842.6666666666667</ele><time>2026-04-09T23:38:29.978Z</time></trkpt><trkpt lat="32.2504647" lon="-110.6859258"><ele>842.3333333333334</ele><time>2026-04-09T23:38:30.978Z</time></trkpt><trkpt lat="32.2505357" lon="-110.6857132"><ele>842.0</ele><time>2026-04-09T23:38:31.978Z</time></trkpt><trkpt lat="32.2506134" lon="-110.685506"><ele>843.3333333333334</ele><time>2026-04-09T23:38:32.978Z</time></trkpt><trkpt lat="32.2506951" lon="-110.6852991"><ele>844.6666666666667</ele><time>2026-04-09T23:38:33.978Z</time></trkpt><trkpt lat="32.2507759" lon="-110.6850891"><ele>846.0</ele><time>2026-04-09T23:38:34.978Z</time></trkpt><trkpt lat="32.2508591" lon="-110.684875"><ele>846.0</ele><time>2026-04-09T23:38:35.978Z</time></trkpt><trkpt lat="32.2509421" lon="-110.6846563"><ele>846.0</ele><time>2026-04-09T23:38:36.978Z</time></trkpt><trkpt lat="32.2510239" lon="-110.684442"><ele>846.0</ele><time>2026-04-09T23:38:37.978Z</time></trkpt><trkpt lat="32.2511053" lon="-110.6842308"><ele>845.6666666666667</ele><time>2026-04-09T23:38:38.978Z</time></trkpt><trkpt lat="32.2511884" lon="-110.6840191"><ele>845.3333333333334</ele><time>2026-04-09T23:38:39.978Z</time></trkpt><trkpt lat="32.251272" lon="-110.6838068"><ele>845.0</ele><time>2026-04-09T23:38:40.978Z</time></trkpt><trkpt lat="32.2513528" lon="-110.6835956"><ele>844.0</ele><time>2026-04-09T23:38:41.978Z</time></trkpt><trkpt lat="32.2514319" lon="-110.6833829"><ele>843.0</ele><time>2026-04-09T23:38:42.978Z</time></trkpt><trkpt lat="32.2515147" lon="-110.6831707"><ele>842.0</ele><time>2026-04-09T23:38:43.978Z</time></trkpt><trkpt lat="32.2515961" lon="-110.6829579"><ele>844.0</ele><time>2026-04-09T23:38:44.978Z</time></trkpt><trkpt lat="32.2516765" lon="-110.682749"><ele>846.0</ele><time>2026-04-09T23:38:45.978Z</time></trkpt><trkpt lat="32.25175" lon="-110.6825394"><ele>848.0</ele><time>2026-04-09T23:38:46.978Z</time></trkpt><trkpt lat="32.2518192" lon="-110.6823276"><ele>848.0</ele><time>2026-04-09T23:38:47.978Z</time></trkpt><trkpt lat="32.2518796" lon="-110.6821026"><ele>848.0</ele><time>2026-04-09T23:38:48.978Z</time></trkpt><trkpt lat="32.2519372" lon="-110.6818743"><ele>848.0</ele><time>2026-04-09T23:38:49.978Z</time></trkpt><trkpt lat="32.2519819" lon="-110.6816454"><ele>848.0</ele><time>2026-04-09T23:38:50.978Z</time></trkpt><trkpt lat="32.2520164" lon="-110.6814193"><ele>848.0</ele><time>2026-04-09T23:38:51.979Z</time></trkpt><trkpt lat="32.2520505" lon="-110.6812052"><ele>848.0</ele><time>2026-04-09T23:38:52.978Z</time></trkpt><trkpt lat="32.2520813" lon="-110.6809928"><ele>848.0</ele><time>2026-04-09T23:38:53.979Z</time></trkpt><trkpt lat="32.2521048" lon="-110.6807869"><ele>848.0</ele><time>2026-04-09T23:38:54.978Z</time></trkpt><trkpt lat="32.2521135" lon="-110.6805745"><ele>848.0</ele><time>2026-04-09T23:38:55.978Z</time></trkpt><trkpt lat="32.2521077" lon="-110.6803596"><ele>848.0</ele><time>2026-04-09T23:38:56.979Z</time></trkpt><trkpt lat="32.2520879" lon="-110.680133"><ele>848.0</ele><time>2026-04-09T23:38:57.979Z</time></trkpt><trkpt lat="32.2520641" lon="-110.6799071"><ele>848.0</ele><time>2026-04-09T23:38:58.979Z</time></trkpt><trkpt lat="32.25204" lon="-110.6796908"><ele>848.0</ele><time>2026-04-09T23:38:59.979Z</time></trkpt><trkpt lat="32.2520255" lon="-110.6794819"><ele>848.0</ele><time>2026-04-09T23:39:00.979Z</time></trkpt><trkpt lat="32.2520262" lon="-110.6792761"><ele>848.0</ele><time>2026-04-09T23:39:01.979Z</time></trkpt><trkpt lat="32.2520455" lon="-110.6790707"><ele>848.3333333333334</ele><time>2026-04-09T23:39:02.979Z</time></trkpt><trkpt lat="32.2520843" lon="-110.6788752"><ele>848.6666666666667</ele><time>2026-04-09T23:39:03.979Z</time></trkpt><trkpt lat="32.2521418" lon="-110.6786783"><ele>849.0</ele><time>2026-04-09T23:39:04.979Z</time></trkpt><trkpt lat="32.2522179" lon="-110.6784843"><ele>851.3333333333333</ele><time>2026-04-09T23:39:05.979Z</time></trkpt><trkpt lat="32.2523016" lon="-110.6782794"><ele>853.6666666666666</ele><time>2026-04-09T23:39:06.979Z</time></trkpt><trkpt lat="32.252393" lon="-110.678069"><ele>856.0</ele><time>2026-04-09T23:39:07.979Z</time></trkpt><trkpt lat="32.2524899" lon="-110.6778624"><ele>855.0</ele><time>2026-04-09T23:39:08.979Z</time></trkpt><trkpt lat="32.2525853" lon="-110.6776602"><ele>854.0</ele><time>2026-04-09T23:39:09.979Z</time></trkpt><trkpt lat="32.2526863" lon="-110.6774511"><ele>853.0</ele><time>2026-04-09T23:39:10.979Z</time></trkpt><trkpt lat="32.2527847" lon="-110.6772412"><ele>853.0</ele><time>2026-04-09T23:39:11.979Z</time></trkpt><trkpt lat="32.2528773" lon="-110.6770454"><ele>853.0</ele><time>2026-04-09T23:39:12.979Z</time></trkpt><trkpt lat="32.2529686" lon="-110.6768519"><ele>853.0</ele><time>2026-04-09T23:39:13.978Z</time></trkpt><trkpt lat="32.2530639" lon="-110.6766651"><ele>856.0</ele><time>2026-04-09T23:39:14.979Z</time></trkpt><trkpt lat="32.2531605" lon="-110.676488"><ele>859.0</ele><time>2026-04-09T23:39:15.979Z</time></trkpt><trkpt lat="32.2532693" lon="-110.6763191"><ele>862.0</ele><time>2026-04-09T23:39:16.979Z</time></trkpt><trkpt lat="32.2533834" lon="-110.6761646"><ele>860.0</ele><time>2026-04-09T23:39:17.979Z</time></trkpt><trkpt lat="32.253499" lon="-110.6760267"><ele>858.0</ele><time>2026-04-09T23:39:18.979Z</time></trkpt><trkpt lat="32.2536133" lon="-110.6759006"><ele>856.0</ele><time>2026-04-09T23:39:19.979Z</time></trkpt><trkpt lat="32.2537257" lon="-110.675791"><ele>856.0</ele><time>2026-04-09T23:39:20.978Z</time></trkpt><trkpt lat="32.2538306" lon="-110.6756834"><ele>856.0</ele><time>2026-04-09T23:39:21.979Z</time></trkpt><trkpt lat="32.2539217" lon="-110.6755748"><ele>856.0</ele><time>2026-04-09T23:39:22.979Z</time></trkpt><trkpt lat="32.2539919" lon="-110.6754615"><ele>856.0</ele><time>2026-04-09T23:39:23.979Z</time></trkpt><trkpt lat="32.2540433" lon="-110.67534"><ele>856.0</ele><time>2026-04-09T23:39:24.979Z</time></trkpt><trkpt lat="32.2540683" lon="-110.675211"><ele>856.0</ele><time>2026-04-09T23:39:25.979Z</time></trkpt><trkpt lat="32.25407" lon="-110.6750821"><ele>856.0</ele><time>2026-04-09T23:39:26.979Z</time></trkpt><trkpt lat="32.2540292" lon="-110.6749578"><ele>856.0</ele><time>2026-04-09T23:39:27.979Z</time></trkpt><trkpt lat="32.2539729" lon="-110.6748373"><ele>855.5</ele><time>2026-04-09T23:39:28.979Z</time></trkpt><trkpt lat="32.253905" lon="-110.6747204"><ele>855.0</ele><time>2026-04-09T23:39:29.979Z</time></trkpt><trkpt lat="32.2538307" lon="-110.6746012"><ele>854.5</ele><time>2026-04-09T23:39:30.979Z</time></trkpt><trkpt lat="32.2537558" lon="-110.6744809"><ele>854.0</ele><time>2026-04-09T23:39:31.979Z</time></trkpt><trkpt lat="32.253684" lon="-110.6743666"><ele>854.8000000000001</ele><time>2026-04-09T23:39:32.978Z</time></trkpt><trkpt lat="32.2536218" lon="-110.6742469"><ele>855.6000000000001</ele><time>2026-04-09T23:39:33.979Z</time></trkpt><trkpt lat="32.2535678" lon="-110.6741283"><ele>856.4</ele><time>2026-04-09T23:39:34.978Z</time></trkpt><trkpt lat="32.2535376" lon="-110.674006"><ele>857.2</ele><time>2026-04-09T23:39:35.979Z</time></trkpt><trkpt lat="32.2535318" lon="-110.6738823"><ele>858.0</ele><time>2026-04-09T23:39:36.978Z</time></trkpt><trkpt lat="32.253548" lon="-110.6737634"><ele>858.0</ele><time>2026-04-09T23:39:37.979Z</time></trkpt><trkpt lat="32.2535787" lon="-110.6736374"><ele>858.0</ele><time>2026-04-09T23:39:38.978Z</time></trkpt><trkpt lat="32.2535922" lon="-110.673507"><ele>858.0</ele><time>2026-04-09T23:39:39.979Z</time></trkpt><trkpt lat="32.2535762" lon="-110.673376"><ele>858.0</ele><time>2026-04-09T23:39:40.978Z</time></trkpt><trkpt lat="32.253536" lon="-110.6732573"><ele>858.0</ele><time>2026-04-09T23:39:41.978Z</time></trkpt><trkpt lat="32.2534834" lon="-110.6731591"><ele>858.8333333333334</ele><time>2026-04-09T23:39:42.979Z</time></trkpt><trkpt lat="32.2534178" lon="-110.6730716"><ele>859.6666666666667</ele><time>2026-04-09T23:39:43.979Z</time></trkpt><trkpt lat="32.2533677" lon="-110.6729806"><ele>860.5</ele><time>2026-04-09T23:39:44.979Z</time></trkpt><trkpt lat="32.2533569" lon="-110.6728837"><ele>861.3333333333334</ele><time>2026-04-09T23:39:45.979Z</time></trkpt><trkpt lat="32.2533904" lon="-110.6728045"><ele>862.1666666666667</ele><time>2026-04-09T23:39:46.979Z</time></trkpt><trkpt lat="32.2534484" lon="-110.6727443"><ele>863.0</ele><time>2026-04-09T23:39:47.979Z</time></trkpt><trkpt lat="32.253525" lon="-110.672689"><ele>864.0000000000001</ele><time>2026-04-09T23:39:48.979Z</time></trkpt><trkpt lat="32.2535908" lon="-110.6726342"><ele>865.0</ele><time>2026-04-09T23:39:49.978Z</time></trkpt><trkpt lat="32.2536341" lon="-110.672576"><ele>866.0</ele><time>2026-04-09T23:39:50.979Z</time></trkpt><trkpt lat="32.2536199" lon="-110.6724662"><ele>867.0</ele><time>2026-04-09T23:39:52.979Z</time></trkpt><trkpt lat="32.2535142" lon="-110.672444"><ele>868.0000000000001</ele><time>2026-04-09T23:39:54.979Z</time></trkpt><trkpt lat="32.253448" lon="-110.6724928"><ele>869.0</ele><time>2026-04-09T23:39:55.979Z</time></trkpt><trkpt lat="32.2533697" lon="-110.6725411"><ele>869.0</ele><time>2026-04-09T23:39:56.979Z</time></trkpt><trkpt lat="32.2532744" lon="-110.672572"><ele>869.0000000000001</ele><time>2026-04-09T23:39:57.979Z</time></trkpt><trkpt lat="32.2531689" lon="-110.6725753"><ele>869.0000000000001</ele><time>2026-04-09T23:39:58.979Z</time></trkpt><trkpt lat="32.2530607" lon="-110.6725517"><ele>869.0</ele><time>2026-04-09T23:39:59.979Z</time></trkpt><trkpt lat="32.2529381" lon="-110.6725223"><ele>869.0</ele><time>2026-04-09T23:40:00.978Z</time></trkpt><trkpt lat="32.2528115" lon="-110.6724918"><ele>870.5</ele><time>2026-04-09T23:40:01.979Z</time></trkpt><trkpt lat="32.2526887" lon="-110.6724535"><ele>872.0</ele><time>2026-04-09T23:40:02.978Z</time></trkpt><trkpt lat="32.2525709" lon="-110.6724255"><ele>873.5</ele><time>2026-04-09T23:40:03.979Z</time></trkpt><trkpt lat="32.2524569" lon="-110.6724325"><ele>875.0</ele><time>2026-04-09T23:40:04.979Z</time></trkpt><trkpt lat="32.2523455" lon="-110.6724733"><ele>876.4</ele><time>2026-04-09T23:40:05.979Z</time></trkpt><trkpt lat="32.2522337" lon="-110.6725273"><ele>877.8</ele><time>2026-04-09T23:40:06.979Z</time></trkpt><trkpt lat="32.2521277" lon="-110.6725674"><ele>879.2</ele><time>2026-04-09T23:40:07.979Z</time></trkpt><trkpt lat="32.2520215" lon="-110.6725831"><ele>880.6</ele><time>2026-04-09T23:40:08.978Z</time></trkpt><trkpt lat="32.2519144" lon="-110.672571"><ele>882.0</ele><time>2026-04-09T23:40:09.979Z</time></trkpt><trkpt lat="32.2518102" lon="-110.6725326"><ele>882.0</ele><time>2026-04-09T23:40:10.978Z</time></trkpt><trkpt lat="32.2517143" lon="-110.6724709"><ele>882.0</ele><time>2026-04-09T23:40:11.978Z</time></trkpt><trkpt lat="32.2516321" lon="-110.6723875"><ele>882.0</ele><time>2026-04-09T23:40:12.979Z</time></trkpt><trkpt lat="32.2515672" lon="-110.6722805"><ele>882.0</ele><time>2026-04-09T23:40:13.979Z</time></trkpt><trkpt lat="32.2515137" lon="-110.6721574"><ele>882.0</ele><time>2026-04-09T23:40:14.979Z</time></trkpt><trkpt lat="32.2514744" lon="-110.6720359"><ele>880.2</ele><time>2026-04-09T23:40:15.979Z</time></trkpt><trkpt lat="32.2514435" lon="-110.6719183"><ele>878.4000000000001</ele><time>2026-04-09T23:40:16.979Z</time></trkpt><trkpt lat="32.2514399" lon="-110.6717945"><ele>876.5999999999999</ele><time>2026-04-09T23:40:17.979Z</time></trkpt><trkpt lat="32.2514557" lon="-110.6716709"><ele>874.8</ele><time>2026-04-09T23:40:18.979Z</time></trkpt><trkpt lat="32.2514914" lon="-110.6715624"><ele>873.0</ele><time>2026-04-09T23:40:19.979Z</time></trkpt><trkpt lat="32.2515528" lon="-110.6714683"><ele>877.25</ele><time>2026-04-09T23:40:20.979Z</time></trkpt><trkpt lat="32.2516403" lon="-110.6713815"><ele>881.5</ele><time>2026-04-09T23:40:21.979Z</time></trkpt><trkpt lat="32.251748" lon="-110.6712869"><ele>885.75</ele><time>2026-04-09T23:40:22.979Z</time></trkpt><trkpt lat="32.2518621" lon="-110.6711788"><ele>890.0</ele><time>2026-04-09T23:40:23.979Z</time></trkpt><trkpt lat="32.2519752" lon="-110.671065"><ele>890.0</ele><time>2026-04-09T23:40:24.979Z</time></trkpt><trkpt lat="32.2520867" lon="-110.6709523"><ele>890.0</ele><time>2026-04-09T23:40:25.979Z</time></trkpt><trkpt lat="32.2521954" lon="-110.6708404"><ele>890.0</ele><time>2026-04-09T23:40:26.979Z</time></trkpt><trkpt lat="32.252301" lon="-110.6707269"><ele>890.0</ele><time>2026-04-09T23:40:27.979Z</time></trkpt><trkpt lat="32.2523977" lon="-110.6706053"><ele>893.0</ele><time>2026-04-09T23:40:28.978Z</time></trkpt><trkpt lat="32.2524782" lon="-110.6704716"><ele>896.0</ele><time>2026-04-09T23:40:29.979Z</time></trkpt><trkpt lat="32.2525415" lon="-110.6703292"><ele>899.0</ele><time>2026-04-09T23:40:30.979Z</time></trkpt><trkpt lat="32.2525975" lon="-110.6701927"><ele>902.0</ele><time>2026-04-09T23:40:31.979Z</time></trkpt><trkpt lat="32.2526599" lon="-110.6700672"><ele>902.0</ele><time>2026-04-09T23:40:32.979Z</time></trkpt><trkpt lat="32.2527365" lon="-110.6699612"><ele>902.0</ele><time>2026-04-09T23:40:33.979Z</time></trkpt><trkpt lat="32.2528206" lon="-110.6698734"><ele>902.0</ele><time>2026-04-09T23:40:34.979Z</time></trkpt><trkpt lat="32.252906" lon="-110.6697917"><ele>902.0</ele><time>2026-04-09T23:40:35.979Z</time></trkpt><trkpt lat="32.2529872" lon="-110.6697054"><ele>902.0</ele><time>2026-04-09T23:40:36.979Z</time></trkpt><trkpt lat="32.2530595" lon="-110.6696071"><ele>902.0</ele><time>2026-04-09T23:40:37.979Z</time></trkpt><trkpt lat="32.2531178" lon="-110.6694959"><ele>902.0</ele><time>2026-04-09T23:40:38.979Z</time></trkpt><trkpt lat="32.2531631" lon="-110.6693756"><ele>902.0</ele><time>2026-04-09T23:40:39.979Z</time></trkpt><trkpt lat="32.2531974" lon="-110.6692505"><ele>902.0</ele><time>2026-04-09T23:40:40.979Z</time></trkpt><trkpt lat="32.2532229" lon="-110.6691294"><ele>902.0</ele><time>2026-04-09T23:40:41.979Z</time></trkpt><trkpt lat="32.2532455" lon="-110.6690175"><ele>903.0000000000001</ele><time>2026-04-09T23:40:42.979Z</time></trkpt><trkpt lat="32.25327" lon="-110.6689196"><ele>904.0</ele><time>2026-04-09T23:40:43.978Z</time></trkpt><trkpt lat="32.2532973" lon="-110.6688397"><ele>905.0</ele><time>2026-04-09T23:40:44.98Z</time></trkpt><trkpt lat="32.2533547" lon="-110.6687232"><ele>906.0</ele><time>2026-04-09T23:40:46.98Z</time></trkpt><trkpt lat="32.2534061" lon="-110.6686564"><ele>907.0000000000001</ele><time>2026-04-09T23:40:48.979Z</time></trkpt><trkpt lat="32.2534693" lon="-110.6686061"><ele>908.0</ele><time>2026-04-09T23:41:06.979Z</time></trkpt><trkpt lat="32.2535569" lon="-110.6685641"><ele>910.5000000000001</ele><time>2026-04-09T23:41:08.978Z</time></trkpt><trkpt lat="32.2536185" lon="-110.668536"><ele>913.0</ele><time>2026-04-09T23:41:09.98Z</time></trkpt><trkpt lat="32.2536905" lon="-110.6685089"><ele>915.5</ele><time>2026-04-09T23:41:10.98Z</time></trkpt><trkpt lat="32.2537713" lon="-110.6684853"><ele>918.0</ele><time>2026-04-09T23:41:11.98Z</time></trkpt><trkpt lat="32.2538567" lon="-110.6684636"><ele>920.5000000000001</ele><time>2026-04-09T23:41:12.979Z</time></trkpt><trkpt lat="32.2539443" lon="-110.668443"><ele>923.0</ele><time>2026-04-09T23:41:13.98Z</time></trkpt><trkpt lat="32.2540293" lon="-110.6684268"><ele>923.0000000000001</ele><time>2026-04-09T23:41:14.979Z</time></trkpt><trkpt lat="32.2541079" lon="-110.6684086"><ele>923.0</ele><time>2026-04-09T23:41:15.98Z</time></trkpt><trkpt lat="32.2541831" lon="-110.6683863"><ele>923.0</ele><time>2026-04-09T23:41:16.98Z</time></trkpt><trkpt lat="32.2542503" lon="-110.6683576"><ele>923.0</ele><time>2026-04-09T23:41:17.98Z</time></trkpt><trkpt lat="32.2543109" lon="-110.6683117"><ele>923.0000000000001</ele><time>2026-04-09T23:41:18.98Z</time></trkpt><trkpt lat="32.2543634" lon="-110.6682501"><ele>923.0</ele><time>2026-04-09T23:41:19.98Z</time></trkpt><trkpt lat="32.2544159" lon="-110.6681661"><ele>923.0</ele><time>2026-04-09T23:41:20.98Z</time></trkpt><trkpt lat="32.254454" lon="-110.6680676"><ele>923.0</ele><time>2026-04-09T23:41:21.98Z</time></trkpt><trkpt lat="32.2544954" lon="-110.6679627"><ele>923.0</ele><time>2026-04-09T23:41:22.98Z</time></trkpt><trkpt lat="32.2545403" lon="-110.6678538"><ele>923.0</ele><time>2026-04-09T23:41:23.98Z</time></trkpt><trkpt lat="32.2545859" lon="-110.6677422"><ele>923.0</ele><time>2026-04-09T23:41:24.98Z</time></trkpt><trkpt lat="32.2546266" lon="-110.6676265"><ele>928.75</ele><time>2026-04-09T23:41:25.98Z</time></trkpt><trkpt lat="32.2546569" lon="-110.6675016"><ele>934.5</ele><time>2026-04-09T23:41:26.98Z</time></trkpt><trkpt lat="32.2546792" lon="-110.6673721"><ele>940.25</ele><time>2026-04-09T23:41:27.98Z</time></trkpt><trkpt lat="32.2546958" lon="-110.6672366"><ele>946.0</ele><time>2026-04-09T23:41:28.98Z</time></trkpt><trkpt lat="32.2547089" lon="-110.6671016"><ele>946.0</ele><time>2026-04-09T23:41:29.98Z</time></trkpt><trkpt lat="32.2547142" lon="-110.6669658"><ele>946.0</ele><time>2026-04-09T23:41:30.98Z</time></trkpt><trkpt lat="32.2547154" lon="-110.6668278"><ele>946.0</ele><time>2026-04-09T23:41:31.98Z</time></trkpt><trkpt lat="32.2547133" lon="-110.6666917"><ele>946.0</ele><time>2026-04-09T23:41:32.98Z</time></trkpt><trkpt lat="32.2547033" lon="-110.6665602"><ele>946.0</ele><time>2026-04-09T23:41:33.98Z</time></trkpt><trkpt lat="32.2546877" lon="-110.6664293"><ele>945.9999999999999</ele><time>2026-04-09T23:41:34.98Z</time></trkpt><trkpt lat="32.2546648" lon="-110.6663019"><ele>945.9999999999999</ele><time>2026-04-09T23:41:35.98Z</time></trkpt><trkpt lat="32.2546312" lon="-110.666187"><ele>946.0</ele><time>2026-04-09T23:41:36.98Z</time></trkpt><trkpt lat="32.2545857" lon="-110.6660798"><ele>946.0</ele><time>2026-04-09T23:41:37.98Z</time></trkpt><trkpt lat="32.2545247" lon="-110.6659824"><ele>946.0</ele><time>2026-04-09T23:41:38.98Z</time></trkpt><trkpt lat="32.2544539" lon="-110.6658922"><ele>945.9999999999999</ele><time>2026-04-09T23:41:39.979Z</time></trkpt><trkpt lat="32.2543708" lon="-110.6658104"><ele>945.9999999999999</ele><time>2026-04-09T23:41:40.98Z</time></trkpt><trkpt lat="32.2542854" lon="-110.6657391"><ele>946.0</ele><time>2026-04-09T23:41:41.98Z</time></trkpt><trkpt lat="32.2542143" lon="-110.6656629"><ele>946.0</ele><time>2026-04-09T23:41:42.98Z</time></trkpt><trkpt lat="32.254153" lon="-110.6655755"><ele>946.0</ele><time>2026-04-09T23:41:43.98Z</time></trkpt><trkpt lat="32.2541051" lon="-110.6654768"><ele>945.9999999999999</ele><time>2026-04-09T23:41:44.979Z</time></trkpt><trkpt lat="32.2540659" lon="-110.6653648"><ele>945.9999999999999</ele><time>2026-04-09T23:41:45.98Z</time></trkpt><trkpt lat="32.2540311" lon="-110.6652418"><ele>946.0</ele><time>2026-04-09T23:41:46.98Z</time></trkpt><trkpt lat="32.2539956" lon="-110.6651203"><ele>946.0</ele><time>2026-04-09T23:41:47.98Z</time></trkpt><trkpt lat="32.2539666" lon="-110.6650089"><ele>946.3333333333333</ele><time>2026-04-09T23:41:48.98Z</time></trkpt><trkpt lat="32.2539501" lon="-110.6649069"><ele>946.6666666666666</ele><time>2026-04-09T23:41:49.979Z</time></trkpt><trkpt lat="32.2539504" lon="-110.6648125"><ele>947.0</ele><time>2026-04-09T23:41:50.98Z</time></trkpt><trkpt lat="32.2539707" lon="-110.6647303"><ele>947.3333333333333</ele><time>2026-04-09T23:41:51.98Z</time></trkpt><trkpt lat="32.2540123" lon="-110.6646552"><ele>947.6666666666666</ele><time>2026-04-09T23:41:52.979Z</time></trkpt><trkpt lat="32.2540693" lon="-110.6645897"><ele>948.0</ele><time>2026-04-09T23:41:53.979Z</time></trkpt><trkpt lat="32.2541386" lon="-110.6645234"><ele>948.0</ele><time>2026-04-09T23:41:54.98Z</time></trkpt><trkpt lat="32.2542117" lon="-110.6644675"><ele>948.0</ele><time>2026-04-09T23:41:55.98Z</time></trkpt><trkpt lat="32.2542845" lon="-110.6644007"><ele>948.0</ele><time>2026-04-09T23:41:56.979Z</time></trkpt><trkpt lat="32.2543535" lon="-110.6643208"><ele>948.0</ele><time>2026-04-09T23:41:57.98Z</time></trkpt><trkpt lat="32.2544153" lon="-110.6642295"><ele>948.0</ele><time>2026-04-09T23:41:58.98Z</time></trkpt><trkpt lat="32.2544727" lon="-110.6641273"><ele>950.25</ele><time>2026-04-09T23:41:59.98Z</time></trkpt><trkpt lat="32.2545304" lon="-110.6640216"><ele>952.5</ele><time>2026-04-09T23:42:00.98Z</time></trkpt><trkpt lat="32.2545955" lon="-110.6639064"><ele>954.75</ele><time>2026-04-09T23:42:01.98Z</time></trkpt><trkpt lat="32.2546657" lon="-110.6637876"><ele>957.0</ele><time>2026-04-09T23:42:02.98Z</time></trkpt><trkpt lat="32.2547358" lon="-110.663668"><ele>959.25</ele><time>2026-04-09T23:42:03.98Z</time></trkpt><trkpt lat="32.2548003" lon="-110.6635436"><ele>961.5</ele><time>2026-04-09T23:42:04.98Z</time></trkpt><trkpt lat="32.2548549" lon="-110.6634125"><ele>963.75</ele><time>2026-04-09T23:42:05.979Z</time></trkpt><trkpt lat="32.2549" lon="-110.6632719"><ele>966.0</ele><time>2026-04-09T23:42:06.98Z</time></trkpt><trkpt lat="32.2549405" lon="-110.6631243"><ele>966.0</ele><time>2026-04-09T23:42:07.98Z</time></trkpt><trkpt lat="32.2549786" lon="-110.6629818"><ele>966.0</ele><time>2026-04-09T23:42:08.98Z</time></trkpt><trkpt lat="32.2550191" lon="-110.662844"><ele>966.0</ele><time>2026-04-09T23:42:09.98Z</time></trkpt><trkpt lat="32.2550659" lon="-110.6627163"><ele>966.0</ele><time>2026-04-09T23:42:10.98Z</time></trkpt><trkpt lat="32.2551237" lon="-110.6625974"><ele>967.5</ele><time>2026-04-09T23:42:11.98Z</time></trkpt><trkpt lat="32.2551949" lon="-110.6624868"><ele>969.0</ele><time>2026-04-09T23:42:12.98Z</time></trkpt><trkpt lat="32.2552803" lon="-110.6623861"><ele>970.5</ele><time>2026-04-09T23:42:13.98Z</time></trkpt><trkpt lat="32.2553783" lon="-110.6622952"><ele>972.0</ele><time>2026-04-09T23:42:14.98Z</time></trkpt><trkpt lat="32.2554858" lon="-110.6622112"><ele>972.0</ele><time>2026-04-09T23:42:15.98Z</time></trkpt><trkpt lat="32.2556034" lon="-110.662129"><ele>972.0</ele><time>2026-04-09T23:42:16.979Z</time></trkpt><trkpt lat="32.2557258" lon="-110.6620511"><ele>972.0</ele><time>2026-04-09T23:42:17.98Z</time></trkpt><trkpt lat="32.2558506" lon="-110.6619754"><ele>972.0</ele><time>2026-04-09T23:42:18.98Z</time></trkpt><trkpt lat="32.255969" lon="-110.6619027"><ele>973.2</ele><time>2026-04-09T23:42:19.98Z</time></trkpt><trkpt lat="32.2560748" lon="-110.6618307"><ele>974.4000000000001</ele><time>2026-04-09T23:42:20.98Z</time></trkpt><trkpt lat="32.2561654" lon="-110.6617558"><ele>975.5999999999999</ele><time>2026-04-09T23:42:21.98Z</time></trkpt><trkpt lat="32.2562392" lon="-110.6616748"><ele>976.8</ele><time>2026-04-09T23:42:22.98Z</time></trkpt><trkpt lat="32.2562985" lon="-110.661582"><ele>978.0</ele><time>2026-04-09T23:42:23.98Z</time></trkpt><trkpt lat="32.2563403" lon="-110.6614757"><ele>978.0</ele><time>2026-04-09T23:42:24.98Z</time></trkpt><trkpt lat="32.2563652" lon="-110.6613554"><ele>978.0</ele><time>2026-04-09T23:42:25.98Z</time></trkpt><trkpt lat="32.2563742" lon="-110.6612198"><ele>978.0</ele><time>2026-04-09T23:42:26.98Z</time></trkpt><trkpt lat="32.2563724" lon="-110.6610641"><ele>978.0</ele><time>2026-04-09T23:42:27.98Z</time></trkpt><trkpt lat="32.2563674" lon="-110.6608959"><ele>978.5</ele><time>2026-04-09T23:42:28.98Z</time></trkpt><trkpt lat="32.2563597" lon="-110.6607307"><ele>979.0</ele><time>2026-04-09T23:42:29.98Z</time></trkpt><trkpt lat="32.2563459" lon="-110.6605699"><ele>979.5</ele><time>2026-04-09T23:42:30.979Z</time></trkpt><trkpt lat="32.256323" lon="-110.6604176"><ele>980.0</ele><time>2026-04-09T23:42:31.98Z</time></trkpt><trkpt lat="32.2562865" lon="-110.6602709"><ele>983.0</ele><time>2026-04-09T23:42:32.98Z</time></trkpt><trkpt lat="32.2562356" lon="-110.6601314"><ele>986.0</ele><time>2026-04-09T23:42:33.98Z</time></trkpt><trkpt lat="32.2561723" lon="-110.660001"><ele>989.0</ele><time>2026-04-09T23:42:34.98Z</time></trkpt><trkpt lat="32.2561073" lon="-110.6598744"><ele>992.0</ele><time>2026-04-09T23:42:35.98Z</time></trkpt><trkpt lat="32.2560533" lon="-110.6597492"><ele>992.0</ele><time>2026-04-09T23:42:36.98Z</time></trkpt><trkpt lat="32.2560173" lon="-110.6596229"><ele>992.0</ele><time>2026-04-09T23:42:37.98Z</time></trkpt><trkpt lat="32.2560002" lon="-110.6594919"><ele>992.0</ele><time>2026-04-09T23:42:38.98Z</time></trkpt><trkpt lat="32.256" lon="-110.6593536"><ele>992.0</ele><time>2026-04-09T23:42:39.98Z</time></trkpt><trkpt lat="32.2560128" lon="-110.6592044"><ele>993.5</ele><time>2026-04-09T23:42:40.98Z</time></trkpt><trkpt lat="32.256035" lon="-110.659045"><ele>995.0</ele><time>2026-04-09T23:42:41.98Z</time></trkpt><trkpt lat="32.2560632" lon="-110.6588833"><ele>996.5</ele><time>2026-04-09T23:42:42.98Z</time></trkpt><trkpt lat="32.2561012" lon="-110.6587223"><ele>998.0</ele><time>2026-04-09T23:42:43.981Z</time></trkpt><trkpt lat="32.2561498" lon="-110.6585612"><ele>999.75</ele><time>2026-04-09T23:42:44.981Z</time></trkpt><trkpt lat="32.2562058" lon="-110.6584041"><ele>1001.5</ele><time>2026-04-09T23:42:45.981Z</time></trkpt><trkpt lat="32.2562658" lon="-110.6582517"><ele>1003.25</ele><time>2026-04-09T23:42:46.981Z</time></trkpt><trkpt lat="32.2563263" lon="-110.6581032"><ele>1005.0</ele><time>2026-04-09T23:42:47.98Z</time></trkpt><trkpt lat="32.2563864" lon="-110.6579574"><ele>1005.0</ele><time>2026-04-09T23:42:48.981Z</time></trkpt><trkpt lat="32.2564462" lon="-110.6578143"><ele>1005.0</ele><time>2026-04-09T23:42:49.981Z</time></trkpt><trkpt lat="32.2565058" lon="-110.6576729"><ele>1005.0</ele><time>2026-04-09T23:42:50.981Z</time></trkpt><trkpt lat="32.256566" lon="-110.657531"><ele>1005.0</ele><time>2026-04-09T23:42:51.981Z</time></trkpt><trkpt lat="32.2566256" lon="-110.6573889"><ele>1004.25</ele><time>2026-04-09T23:42:52.981Z</time></trkpt><trkpt lat="32.2566847" lon="-110.6572484"><ele>1003.5</ele><time>2026-04-09T23:42:53.981Z</time></trkpt><trkpt lat="32.256746" lon="-110.6571136"><ele>1002.75</ele><time>2026-04-09T23:42:54.981Z</time></trkpt><trkpt lat="32.256816" lon="-110.6569885"><ele>1002.0</ele><time>2026-04-09T23:42:55.98Z</time></trkpt><trkpt lat="32.256899" lon="-110.6568706"><ele>1004.5</ele><time>2026-04-09T23:42:56.981Z</time></trkpt><trkpt lat="32.2569923" lon="-110.6567572"><ele>1007.0</ele><time>2026-04-09T23:42:57.98Z</time></trkpt><trkpt lat="32.2570862" lon="-110.6566466"><ele>1009.5</ele><time>2026-04-09T23:42:58.981Z</time></trkpt><trkpt lat="32.2571722" lon="-110.6565402"><ele>1012.0</ele><time>2026-04-09T23:42:59.981Z</time></trkpt><trkpt lat="32.2572492" lon="-110.6564347"><ele>1011.4000000000001</ele><time>2026-04-09T23:43:00.981Z</time></trkpt><trkpt lat="32.2573165" lon="-110.6563294"><ele>1010.8000000000001</ele><time>2026-04-09T23:43:01.98Z</time></trkpt><trkpt lat="32.2573741" lon="-110.6562183"><ele>1010.2</ele><time>2026-04-09T23:43:02.981Z</time></trkpt><trkpt lat="32.2574239" lon="-110.6561006"><ele>1009.6</ele><time>2026-04-09T23:43:03.981Z</time></trkpt><trkpt lat="32.2574723" lon="-110.6559809"><ele>1009.0</ele><time>2026-04-09T23:43:04.981Z</time></trkpt><trkpt lat="32.2575253" lon="-110.6558657"><ele>1009.0</ele><time>2026-04-09T23:43:05.981Z</time></trkpt><trkpt lat="32.257586" lon="-110.6557632"><ele>1009.0000000000001</ele><time>2026-04-09T23:43:06.981Z</time></trkpt><trkpt lat="32.2576522" lon="-110.6556763"><ele>1009.0000000000001</ele><time>2026-04-09T23:43:07.981Z</time></trkpt><trkpt lat="32.2577212" lon="-110.6556133"><ele>1009.0</ele><time>2026-04-09T23:43:08.98Z</time></trkpt><trkpt lat="32.2577961" lon="-110.6555736"><ele>1009.0</ele><time>2026-04-09T23:43:09.981Z</time></trkpt><trkpt lat="32.2578786" lon="-110.655555"><ele>1009.0</ele><time>2026-04-09T23:43:10.981Z</time></trkpt><trkpt lat="32.2579684" lon="-110.655559"><ele>1009.0000000000001</ele><time>2026-04-09T23:43:11.981Z</time></trkpt><trkpt lat="32.2580664" lon="-110.6555803"><ele>1009.0000000000001</ele><time>2026-04-09T23:43:12.981Z</time></trkpt><trkpt lat="32.2581764" lon="-110.6556074"><ele>1009.0</ele><time>2026-04-09T23:43:13.981Z</time></trkpt><trkpt lat="32.258289" lon="-110.655628"><ele>1009.0</ele><time>2026-04-09T23:43:14.98Z</time></trkpt><trkpt lat="32.2584034" lon="-110.6556395"><ele>1011.0</ele><time>2026-04-09T23:43:15.979Z</time></trkpt><trkpt lat="32.25852" lon="-110.655641"><ele>1013.0</ele><time>2026-04-09T23:43:16.981Z</time></trkpt><trkpt lat="32.2586384" lon="-110.6556274"><ele>1015.0</ele><time>2026-04-09T23:43:17.981Z</time></trkpt><trkpt lat="32.2587546" lon="-110.6556045"><ele>1017.0</ele><time>2026-04-09T23:43:18.981Z</time></trkpt><trkpt lat="32.2588631" lon="-110.6555887"><ele>1018.8</ele><time>2026-04-09T23:43:19.98Z</time></trkpt><trkpt lat="32.2589713" lon="-110.6555835"><ele>1020.6</ele><time>2026-04-09T23:43:20.981Z</time></trkpt><trkpt lat="32.2590799" lon="-110.6555892"><ele>1022.3999999999999</ele><time>2026-04-09T23:43:21.981Z</time></trkpt><trkpt lat="32.2591891" lon="-110.6556084"><ele>1024.2</ele><time>2026-04-09T23:43:22.98Z</time></trkpt><trkpt lat="32.2592949" lon="-110.6556404"><ele>1026.0</ele><time>2026-04-09T23:43:23.981Z</time></trkpt><trkpt lat="32.259394" lon="-110.6556875"><ele>1026.0</ele><time>2026-04-09T23:43:24.981Z</time></trkpt><trkpt lat="32.2594865" lon="-110.6557518"><ele>1026.0</ele><time>2026-04-09T23:43:25.98Z</time></trkpt><trkpt lat="32.2595746" lon="-110.6558335"><ele>1026.0</ele><time>2026-04-09T23:43:26.981Z</time></trkpt><trkpt lat="32.2596544" lon="-110.6559216"><ele>1026.0</ele><time>2026-04-09T23:43:27.981Z</time></trkpt><trkpt lat="32.2597264" lon="-110.6559992"><ele>1026.0</ele><time>2026-04-09T23:43:28.981Z</time></trkpt><trkpt lat="32.2597908" lon="-110.6560522"><ele>1027.6</ele><time>2026-04-09T23:43:29.981Z</time></trkpt><trkpt lat="32.2598535" lon="-110.6560763"><ele>1029.1999999999998</ele><time>2026-04-09T23:43:30.981Z</time></trkpt><trkpt lat="32.2599614" lon="-110.656033"><ele>1030.8000000000002</ele><time>2026-04-09T23:43:32.98Z</time></trkpt><trkpt lat="32.2600187" lon="-110.6558946"><ele>1032.4</ele><time>2026-04-09T23:43:34.981Z</time></trkpt><trkpt lat="32.2600352" lon="-110.6558041"><ele>1034.0</ele><time>2026-04-09T23:43:35.981Z</time></trkpt><trkpt lat="32.2600552" lon="-110.6557048"><ele>1034.0</ele><time>2026-04-09T23:43:36.981Z</time></trkpt><trkpt lat="32.2600853" lon="-110.6556083"><ele>1034.0</ele><time>2026-04-09T23:43:37.981Z</time></trkpt><trkpt lat="32.260126" lon="-110.6555132"><ele>1034.0</ele><time>2026-04-09T23:43:38.981Z</time></trkpt><trkpt lat="32.260179" lon="-110.6554237"><ele>1034.0</ele><time>2026-04-09T23:43:39.981Z</time></trkpt><trkpt lat="32.2602455" lon="-110.6553387"><ele>1034.0</ele><time>2026-04-09T23:43:40.981Z</time></trkpt><trkpt lat="32.2603211" lon="-110.6552542"><ele>1036.6000000000001</ele><time>2026-04-09T23:43:41.981Z</time></trkpt><trkpt lat="32.2603981" lon="-110.6551729"><ele>1039.2</ele><time>2026-04-09T23:43:42.981Z</time></trkpt><trkpt lat="32.2604732" lon="-110.6550881"><ele>1041.8000000000002</ele><time>2026-04-09T23:43:43.981Z</time></trkpt><trkpt lat="32.260538" lon="-110.6550118"><ele>1044.4</ele><time>2026-04-09T23:43:44.982Z</time></trkpt><trkpt lat="32.2605971" lon="-110.6549429"><ele>1047.0</ele><time>2026-04-09T23:43:45.981Z</time></trkpt><trkpt lat="32.2606549" lon="-110.6548825"><ele>1047.0</ele><time>2026-04-09T23:43:46.981Z</time></trkpt><trkpt lat="32.2607156" lon="-110.6548411"><ele>1047.0</ele><time>2026-04-09T23:43:47.981Z</time></trkpt><trkpt lat="32.260782" lon="-110.6548169"><ele>1047.0</ele><time>2026-04-09T23:43:48.981Z</time></trkpt><trkpt lat="32.2608549" lon="-110.6548112"><ele>1047.0</ele><time>2026-04-09T23:43:49.981Z</time></trkpt><trkpt lat="32.2609307" lon="-110.654814"><ele>1047.0</ele><time>2026-04-09T23:43:50.981Z</time></trkpt><trkpt lat="32.2610011" lon="-110.6548056"><ele>1047.0</ele><time>2026-04-09T23:43:51.981Z</time></trkpt><trkpt lat="32.2610984" lon="-110.6547324"><ele>1047.0</ele><time>2026-04-09T23:43:53.98Z</time></trkpt><trkpt lat="32.2611312" lon="-110.6545872"><ele>1047.0</ele><time>2026-04-09T23:43:55.98Z</time></trkpt><trkpt lat="32.2611251" lon="-110.6544979"><ele>1047.0</ele><time>2026-04-09T23:43:56.981Z</time></trkpt><trkpt lat="32.2611015" lon="-110.6544076"><ele>1047.0</ele><time>2026-04-09T23:43:57.981Z</time></trkpt><trkpt lat="32.2610599" lon="-110.654321"><ele>1047.0</ele><time>2026-04-09T23:43:58.981Z</time></trkpt><trkpt lat="32.2610097" lon="-110.6542334"><ele>1049.2</ele><time>2026-04-09T23:43:59.98Z</time></trkpt><trkpt lat="32.2609599" lon="-110.6541424"><ele>1051.4</ele><time>2026-04-09T23:44:00.981Z</time></trkpt><trkpt lat="32.2609125" lon="-110.6540384"><ele>1053.6</ele><time>2026-04-09T23:44:01.981Z</time></trkpt><trkpt lat="32.260866" lon="-110.653944"><ele>1055.8</ele><time>2026-04-09T23:44:02.981Z</time></trkpt><trkpt lat="32.2608125" lon="-110.6538553"><ele>1058.0</ele><time>2026-04-09T23:44:03.981Z</time></trkpt><trkpt lat="32.260748" lon="-110.6537794"><ele>1058.0</ele><time>2026-04-09T23:44:04.981Z</time></trkpt><trkpt lat="32.2606721" lon="-110.653718"><ele>1058.0</ele><time>2026-04-09T23:44:05.981Z</time></trkpt><trkpt lat="32.260594" lon="-110.6536672"><ele>1058.0</ele><time>2026-04-09T23:44:06.981Z</time></trkpt><trkpt lat="32.2605113" lon="-110.6536418"><ele>1058.0</ele><time>2026-04-09T23:44:07.981Z</time></trkpt><trkpt lat="32.2604337" lon="-110.6536243"><ele>1058.0</ele><time>2026-04-09T23:44:08.981Z</time></trkpt><trkpt lat="32.260368" lon="-110.6536123"><ele>1058.0</ele><time>2026-04-09T23:44:09.981Z</time></trkpt><trkpt lat="32.2602676" lon="-110.6535577"><ele>1059.0</ele><time>2026-04-09T23:44:11.982Z</time></trkpt><trkpt lat="32.2602343" lon="-110.653465"><ele>1060.0</ele><time>2026-04-09T23:44:13.981Z</time></trkpt><trkpt lat="32.2602746" lon="-110.6533669"><ele>1061.0</ele><time>2026-04-09T23:44:15.981Z</time></trkpt><trkpt lat="32.2603584" lon="-110.6532727"><ele>1062.0</ele><time>2026-04-09T23:44:17.982Z</time></trkpt><trkpt lat="32.2604879" lon="-110.6532392"><ele>1063.0</ele><time>2026-04-09T23:44:19.981Z</time></trkpt><trkpt lat="32.2605682" lon="-110.6532468"><ele>1064.8</ele><time>2026-04-09T23:44:20.981Z</time></trkpt><trkpt lat="32.2606576" lon="-110.6532617"><ele>1066.6</ele><time>2026-04-09T23:44:21.981Z</time></trkpt><trkpt lat="32.2607573" lon="-110.6532728"><ele>1068.4</ele><time>2026-04-09T23:44:22.981Z</time></trkpt><trkpt lat="32.2608625" lon="-110.6532759"><ele>1070.2</ele><time>2026-04-09T23:44:23.981Z</time></trkpt><trkpt lat="32.2609696" lon="-110.6532742"><ele>1072.0</ele><time>2026-04-09T23:44:24.981Z</time></trkpt><trkpt lat="32.2610756" lon="-110.6532709"><ele>1072.0</ele><time>2026-04-09T23:44:25.98Z</time></trkpt><trkpt lat="32.261177" lon="-110.6532697"><ele>1072.0</ele><time>2026-04-09T23:44:26.981Z</time></trkpt><trkpt lat="32.2612727" lon="-110.6532691"><ele>1072.0</ele><time>2026-04-09T23:44:27.98Z</time></trkpt><trkpt lat="32.2613639" lon="-110.6532614"><ele>1072.0</ele><time>2026-04-09T23:44:28.981Z</time></trkpt><trkpt lat="32.2614542" lon="-110.6532392"><ele>1072.0</ele><time>2026-04-09T23:44:29.981Z</time></trkpt><trkpt lat="32.2615445" lon="-110.6532077"><ele>1074.0</ele><time>2026-04-09T23:44:30.981Z</time></trkpt><trkpt lat="32.2616286" lon="-110.6531511"><ele>1076.0</ele><time>2026-04-09T23:44:31.981Z</time></trkpt><trkpt lat="32.2617165" lon="-110.6530955"><ele>1078.0</ele><time>2026-04-09T23:44:32.981Z</time></trkpt><trkpt lat="32.2618099" lon="-110.6530485"><ele>1080.0</ele><time>2026-04-09T23:44:33.981Z</time></trkpt><trkpt lat="32.261906" lon="-110.6530139"><ele>1082.0</ele><time>2026-04-09T23:44:34.981Z</time></trkpt><trkpt lat="32.2619982" lon="-110.6529934"><ele>1082.0</ele><time>2026-04-09T23:44:35.981Z</time></trkpt><trkpt lat="32.2620819" lon="-110.6529819"><ele>1082.0</ele><time>2026-04-09T23:44:36.981Z</time></trkpt><trkpt lat="32.2621558" lon="-110.6529735"><ele>1082.0</ele><time>2026-04-09T23:44:37.981Z</time></trkpt><trkpt lat="32.2622218" lon="-110.6529624"><ele>1082.0</ele><time>2026-04-09T23:44:38.982Z</time></trkpt><trkpt lat="32.2623234" lon="-110.6529277"><ele>1082.0</ele><time>2026-04-09T23:44:40.982Z</time></trkpt><trkpt lat="32.2623732" lon="-110.6528565"><ele>1082.0</ele><time>2026-04-09T23:44:42.982Z</time></trkpt><trkpt lat="32.2623663" lon="-110.652779"><ele>1084.3333333333335</ele><time>2026-04-09T23:44:44.982Z</time></trkpt><trkpt lat="32.2623042" lon="-110.6527274"><ele>1086.6666666666667</ele><time>2026-04-09T23:44:46.981Z</time></trkpt><trkpt lat="32.262176" lon="-110.6527157"><ele>1089.0</ele><time>2026-04-09T23:44:48.981Z</time></trkpt><trkpt lat="32.2621" lon="-110.6527125"><ele>1091.3333333333333</ele><time>2026-04-09T23:44:49.982Z</time></trkpt><trkpt lat="32.2620284" lon="-110.6527038"><ele>1093.6666666666665</ele><time>2026-04-09T23:44:50.982Z</time></trkpt><trkpt lat="32.2619652" lon="-110.6526891"><ele>1096.0</ele><time>2026-04-09T23:44:51.982Z</time></trkpt><trkpt lat="32.261854" lon="-110.6526595"><ele>1096.0</ele><time>2026-04-09T23:44:53.98Z</time></trkpt><trkpt lat="32.261745" lon="-110.6526353"><ele>1096.0</ele><time>2026-04-09T23:44:55.982Z</time></trkpt><trkpt lat="32.2616565" lon="-110.6526101"><ele>1096.0</ele><time>2026-04-09T23:44:57.981Z</time></trkpt><trkpt lat="32.2615882" lon="-110.6525819"><ele>1096.0</ele><time>2026-04-09T23:44:59.981Z</time></trkpt><trkpt lat="32.261523" lon="-110.6525235"><ele>1096.0</ele><time>2026-04-09T23:45:01.982Z</time></trkpt><trkpt lat="32.2614845" lon="-110.6524141"><ele>1096.0000000000002</ele><time>2026-04-09T23:45:03.982Z</time></trkpt><trkpt lat="32.2614697" lon="-110.6523415"><ele>1096.0</ele><time>2026-04-09T23:45:04.982Z</time></trkpt><trkpt lat="32.2614583" lon="-110.652261"><ele>1096.0</ele><time>2026-04-09T23:45:05.982Z</time></trkpt><trkpt lat="32.2614483" lon="-110.6521739"><ele>1096.0</ele><time>2026-04-09T23:45:06.982Z</time></trkpt><trkpt lat="32.2614326" lon="-110.6520835"><ele>1096.0</ele><time>2026-04-09T23:45:07.982Z</time></trkpt><trkpt lat="32.2614121" lon="-110.6519933"><ele>1096.0000000000002</ele><time>2026-04-09T23:45:08.981Z</time></trkpt><trkpt lat="32.2613822" lon="-110.6519069"><ele>1096.0</ele><time>2026-04-09T23:45:09.982Z</time></trkpt><trkpt lat="32.2613426" lon="-110.6518294"><ele>1095.3999999999999</ele><time>2026-04-09T23:45:10.982Z</time></trkpt><trkpt lat="32.2612978" lon="-110.6517633"><ele>1094.8</ele><time>2026-04-09T23:45:11.981Z</time></trkpt><trkpt lat="32.2612562" lon="-110.6517031"><ele>1094.1999999999998</ele><time>2026-04-09T23:45:12.982Z</time></trkpt><trkpt lat="32.2612086" lon="-110.651576"><ele>1093.6</ele><time>2026-04-09T23:45:14.982Z</time></trkpt><trkpt lat="32.2612287" lon="-110.651441"><ele>1093.0</ele><time>2026-04-09T23:45:16.982Z</time></trkpt><trkpt lat="32.261317" lon="-110.6513517"><ele>1093.0</ele><time>2026-04-09T23:45:18.982Z</time></trkpt><trkpt lat="32.2613809" lon="-110.6513362"><ele>1093.0</ele><time>2026-04-09T23:45:19.982Z</time></trkpt><trkpt lat="32.2614599" lon="-110.6513323"><ele>1093.0</ele><time>2026-04-09T23:45:20.982Z</time></trkpt><trkpt lat="32.2615541" lon="-110.6513258"><ele>1093.0</ele><time>2026-04-09T23:45:21.982Z</time></trkpt><trkpt lat="32.2616582" lon="-110.6513141"><ele>1093.0</ele><time>2026-04-09T23:45:22.981Z</time></trkpt><trkpt lat="32.2617648" lon="-110.6513006"><ele>1096.5</ele><time>2026-04-09T23:45:23.982Z</time></trkpt><trkpt lat="32.2618737" lon="-110.6512827"><ele>1100.0</ele><time>2026-04-09T23:45:24.982Z</time></trkpt><trkpt lat="32.2619861" lon="-110.6512611"><ele>1103.5</ele><time>2026-04-09T23:45:25.982Z</time></trkpt><trkpt lat="32.262101" lon="-110.6512377"><ele>1107.0</ele><time>2026-04-09T23:45:26.981Z</time></trkpt><trkpt lat="32.262216" lon="-110.6512142"><ele>1107.6</ele><time>2026-04-09T23:45:27.982Z</time></trkpt><trkpt lat="32.2623295" lon="-110.6511953"><ele>1108.2</ele><time>2026-04-09T23:45:28.982Z</time></trkpt><trkpt lat="32.2624396" lon="-110.6511838"><ele>1108.8</ele><time>2026-04-09T23:45:29.982Z</time></trkpt><trkpt lat="32.2625488" lon="-110.6511755"><ele>1109.4</ele><time>2026-04-09T23:45:30.982Z</time></trkpt><trkpt lat="32.2626558" lon="-110.6511648"><ele>1110.0</ele><time>2026-04-09T23:45:31.982Z</time></trkpt><trkpt lat="32.2627619" lon="-110.6511547"><ele>1110.0</ele><time>2026-04-09T23:45:32.982Z</time></trkpt><trkpt lat="32.262866" lon="-110.6511461"><ele>1110.0</ele><time>2026-04-09T23:45:33.982Z</time></trkpt><trkpt lat="32.2629674" lon="-110.6511369"><ele>1110.0</ele><time>2026-04-09T23:45:34.982Z</time></trkpt><trkpt lat="32.2630635" lon="-110.6511229"><ele>1110.0</ele><time>2026-04-09T23:45:35.982Z</time></trkpt><trkpt lat="32.2631575" lon="-110.6510993"><ele>1110.0</ele><time>2026-04-09T23:45:36.982Z</time></trkpt><trkpt lat="32.2632516" lon="-110.6510617"><ele>1114.6</ele><time>2026-04-09T23:45:37.982Z</time></trkpt><trkpt lat="32.2633469" lon="-110.6510095"><ele>1119.2</ele><time>2026-04-09T23:45:38.982Z</time></trkpt><trkpt lat="32.2634391" lon="-110.6509504"><ele>1123.8</ele><time>2026-04-09T23:45:39.982Z</time></trkpt><trkpt lat="32.2635243" lon="-110.6508965"><ele>1128.4</ele><time>2026-04-09T23:45:40.981Z</time></trkpt><trkpt lat="32.2636021" lon="-110.6508513"><ele>1133.0</ele><time>2026-04-09T23:45:41.982Z</time></trkpt><trkpt lat="32.2636683" lon="-110.650813"><ele>1133.0</ele><time>2026-04-09T23:45:42.982Z</time></trkpt><trkpt lat="32.263724" lon="-110.6507781"><ele>1133.0</ele><time>2026-04-09T23:45:43.982Z</time></trkpt><trkpt lat="32.2637966" lon="-110.6507152"><ele>1133.0</ele><time>2026-04-09T23:45:45.981Z</time></trkpt><trkpt lat="32.2638284" lon="-110.6506221"><ele>1133.0</ele><time>2026-04-09T23:45:47.982Z</time></trkpt><trkpt lat="32.2637653" lon="-110.6505501"><ele>1133.0</ele><time>2026-04-09T23:45:49.982Z</time></trkpt><trkpt lat="32.2636706" lon="-110.6505526"><ele>1133.0</ele><time>2026-04-09T23:45:51.982Z</time></trkpt><trkpt lat="32.2635432" lon="-110.650568"><ele>1133.0</ele><time>2026-04-09T23:45:53.982Z</time></trkpt><trkpt lat="32.2634722" lon="-110.6505602"><ele>1133.0</ele><time>2026-04-09T23:45:54.982Z</time></trkpt><trkpt lat="32.2633972" lon="-110.650543"><ele>1133.0</ele><time>2026-04-09T23:45:55.982Z</time></trkpt><trkpt lat="32.2633146" lon="-110.6505196"><ele>1133.0</ele><time>2026-04-09T23:45:56.981Z</time></trkpt><trkpt lat="32.2632315" lon="-110.6504912"><ele>1133.0</ele><time>2026-04-09T23:45:57.982Z</time></trkpt><trkpt lat="32.2631475" lon="-110.6504595"><ele>1133.0</ele><time>2026-04-09T23:45:58.981Z</time></trkpt><trkpt lat="32.2630631" lon="-110.6504221"><ele>1132.6</ele><time>2026-04-09T23:45:59.982Z</time></trkpt><trkpt lat="32.2629771" lon="-110.6503794"><ele>1132.1999999999998</ele><time>2026-04-09T23:46:00.982Z</time></trkpt><trkpt lat="32.2628913" lon="-110.6503333"><ele>1131.8</ele><time>2026-04-09T23:46:01.982Z</time></trkpt><trkpt lat="32.2628096" lon="-110.650284"><ele>1131.3999999999999</ele><time>2026-04-09T23:46:02.981Z</time></trkpt><trkpt lat="32.2627351" lon="-110.6502252"><ele>1131.0</ele><time>2026-04-09T23:46:03.982Z</time></trkpt><trkpt lat="32.2626651" lon="-110.6501592"><ele>1135.0</ele><time>2026-04-09T23:46:04.981Z</time></trkpt><trkpt lat="32.2626129" lon="-110.6500736"><ele>1139.0</ele><time>2026-04-09T23:46:05.982Z</time></trkpt><trkpt lat="32.2625664" lon="-110.6499793"><ele>1143.0</ele><time>2026-04-09T23:46:06.982Z</time></trkpt><trkpt lat="32.262517" lon="-110.6498845"><ele>1147.0</ele><time>2026-04-09T23:46:07.982Z</time></trkpt><trkpt lat="32.2624614" lon="-110.6498008"><ele>1151.0</ele><time>2026-04-09T23:46:08.982Z</time></trkpt><trkpt lat="32.262394" lon="-110.6497302"><ele>1151.0</ele><time>2026-04-09T23:46:09.982Z</time></trkpt><trkpt lat="32.2623213" lon="-110.6496748"><ele>1151.0</ele><time>2026-04-09T23:46:10.982Z</time></trkpt><trkpt lat="32.2622441" lon="-110.649632"><ele>1151.0</ele><time>2026-04-09T23:46:11.982Z</time></trkpt><trkpt lat="32.2621653" lon="-110.6495976"><ele>1151.0</ele><time>2026-04-09T23:46:12.982Z</time></trkpt><trkpt lat="32.26209" lon="-110.6495608"><ele>1151.0</ele><time>2026-04-09T23:46:13.982Z</time></trkpt><trkpt lat="32.2620244" lon="-110.6495213"><ele>1151.0</ele><time>2026-04-09T23:46:14.982Z</time></trkpt><trkpt lat="32.2619703" lon="-110.6494748"><ele>1151.2</ele><time>2026-04-09T23:46:15.982Z</time></trkpt><trkpt lat="32.2619104" lon="-110.6493554"><ele>1151.3999999999999</ele><time>2026-04-09T23:46:17.982Z</time></trkpt><trkpt lat="32.2619254" lon="-110.6492316"><ele>1151.6</ele><time>2026-04-09T23:46:19.982Z</time></trkpt><trkpt lat="32.2620085" lon="-110.6491496"><ele>1151.8</ele><time>2026-04-09T23:46:21.981Z</time></trkpt><trkpt lat="32.2620991" lon="-110.6491323"><ele>1152.0</ele><time>2026-04-09T23:46:22.982Z</time></trkpt><trkpt lat="32.2622104" lon="-110.6491265"><ele>1154.2</ele><time>2026-04-09T23:46:23.982Z</time></trkpt><trkpt lat="32.2623249" lon="-110.6491184"><ele>1156.4</ele><time>2026-04-09T23:46:24.981Z</time></trkpt><trkpt lat="32.2624407" lon="-110.6491063"><ele>1158.6</ele><time>2026-04-09T23:46:25.982Z</time></trkpt><trkpt lat="32.2625542" lon="-110.6490901"><ele>1160.8</ele><time>2026-04-09T23:46:26.982Z</time></trkpt><trkpt lat="32.2626556" lon="-110.6490648"><ele>1163.0</ele><time>2026-04-09T23:46:27.982Z</time></trkpt><trkpt lat="32.2627448" lon="-110.6490271"><ele>1163.0</ele><time>2026-04-09T23:46:28.982Z</time></trkpt><trkpt lat="32.2628234" lon="-110.6489726"><ele>1163.0</ele><time>2026-04-09T23:46:29.982Z</time></trkpt><trkpt lat="32.2628938" lon="-110.6488999"><ele>1163.0</ele><time>2026-04-09T23:46:30.982Z</time></trkpt><trkpt lat="32.2629592" lon="-110.6488104"><ele>1163.0</ele><time>2026-04-09T23:46:31.982Z</time></trkpt><trkpt lat="32.2630233" lon="-110.6487061"><ele>1163.0</ele><time>2026-04-09T23:46:32.982Z</time></trkpt><trkpt lat="32.2630908" lon="-110.6485925"><ele>1164.5</ele><time>2026-04-09T23:46:33.982Z</time></trkpt><trkpt lat="32.2631627" lon="-110.6484738"><ele>1166.0</ele><time>2026-04-09T23:46:34.982Z</time></trkpt><trkpt lat="32.2632381" lon="-110.6483624"><ele>1167.5</ele><time>2026-04-09T23:46:35.983Z</time></trkpt><trkpt lat="32.2633205" lon="-110.6482592"><ele>1169.0</ele><time>2026-04-09T23:46:36.983Z</time></trkpt><trkpt lat="32.2634052" lon="-110.6481638"><ele>1169.0</ele><time>2026-04-09T23:46:37.981Z</time></trkpt><trkpt lat="32.263483" lon="-110.6480666"><ele>1169.0</ele><time>2026-04-09T23:46:38.983Z</time></trkpt><trkpt lat="32.2635509" lon="-110.6479602"><ele>1169.0</ele><time>2026-04-09T23:46:39.983Z</time></trkpt><trkpt lat="32.2636123" lon="-110.6478498"><ele>1169.0</ele><time>2026-04-09T23:46:40.983Z</time></trkpt><trkpt lat="32.2636374" lon="-110.6477285"><ele>1169.0</ele><time>2026-04-09T23:46:41.982Z</time></trkpt><trkpt lat="32.2636461" lon="-110.6475973"><ele>1170.0</ele><time>2026-04-09T23:46:42.983Z</time></trkpt><trkpt lat="32.2636467" lon="-110.6474521"><ele>1171.0</ele><time>2026-04-09T23:46:43.983Z</time></trkpt><trkpt lat="32.2636483" lon="-110.6472963"><ele>1172.0</ele><time>2026-04-09T23:46:44.982Z</time></trkpt><trkpt lat="32.2636504" lon="-110.6471398"><ele>1173.0</ele><time>2026-04-09T23:46:45.983Z</time></trkpt><trkpt lat="32.2636511" lon="-110.646988"><ele>1175.0</ele><time>2026-04-09T23:46:46.982Z</time></trkpt><trkpt lat="32.2636503" lon="-110.6468419"><ele>1177.0</ele><time>2026-04-09T23:46:47.983Z</time></trkpt><trkpt lat="32.2636424" lon="-110.6467017"><ele>1179.0</ele><time>2026-04-09T23:46:48.981Z</time></trkpt><trkpt lat="32.2636288" lon="-110.6465679"><ele>1181.0</ele><time>2026-04-09T23:46:49.983Z</time></trkpt><trkpt lat="32.2636133" lon="-110.6464436"><ele>1181.0</ele><time>2026-04-09T23:46:50.983Z</time></trkpt><trkpt lat="32.263601" lon="-110.6463303"><ele>1181.0</ele><time>2026-04-09T23:46:51.983Z</time></trkpt><trkpt lat="32.263601" lon="-110.6462301"><ele>1181.0</ele><time>2026-04-09T23:46:52.982Z</time></trkpt><trkpt lat="32.2636202" lon="-110.646146"><ele>1181.0</ele><time>2026-04-09T23:46:53.982Z</time></trkpt><trkpt lat="32.2636606" lon="-110.6460782"><ele>1181.0</ele><time>2026-04-09T23:46:54.983Z</time></trkpt><trkpt lat="32.2637201" lon="-110.6460282"><ele>1181.0</ele><time>2026-04-09T23:46:55.983Z</time></trkpt><trkpt lat="32.2637964" lon="-110.6459965"><ele>1181.3333333333335</ele><time>2026-04-09T23:46:56.983Z</time></trkpt><trkpt lat="32.2638848" lon="-110.6459808"><ele>1181.6666666666667</ele><time>2026-04-09T23:46:57.982Z</time></trkpt><trkpt lat="32.2639739" lon="-110.6459825"><ele>1182.0</ele><time>2026-04-09T23:46:58.983Z</time></trkpt><trkpt lat="32.2640595" lon="-110.646005"><ele>1182.3333333333333</ele><time>2026-04-09T23:46:59.982Z</time></trkpt><trkpt lat="32.2641353" lon="-110.6460535"><ele>1182.6666666666665</ele><time>2026-04-09T23:47:00.982Z</time></trkpt><trkpt lat="32.2641982" lon="-110.646123"><ele>1183.0</ele><time>2026-04-09T23:47:01.982Z</time></trkpt><trkpt lat="32.2642523" lon="-110.6462165"><ele>1184.5</ele><time>2026-04-09T23:47:02.982Z</time></trkpt><trkpt lat="32.2642992" lon="-110.6463388"><ele>1186.0</ele><time>2026-04-09T23:47:03.983Z</time></trkpt><trkpt lat="32.2643383" lon="-110.6464731"><ele>1187.5</ele><time>2026-04-09T23:47:04.982Z</time></trkpt><trkpt lat="32.2643725" lon="-110.6466033"><ele>1189.0</ele><time>2026-04-09T23:47:05.982Z</time></trkpt><trkpt lat="32.2644063" lon="-110.6467233"><ele>1189.0</ele><time>2026-04-09T23:47:06.983Z</time></trkpt><trkpt lat="32.2644406" lon="-110.6468222"><ele>1189.0</ele><time>2026-04-09T23:47:07.983Z</time></trkpt><trkpt lat="32.2644749" lon="-110.6468937"><ele>1189.0</ele><time>2026-04-09T23:47:08.983Z</time></trkpt><trkpt lat="32.2645685" lon="-110.6469593"><ele>1189.0</ele><time>2026-04-09T23:47:10.982Z</time></trkpt><trkpt lat="32.264697" lon="-110.6469385"><ele>1189.0</ele><time>2026-04-09T23:47:12.983Z</time></trkpt><trkpt lat="32.2647781" lon="-110.6469175"><ele>1188.3333333333333</ele><time>2026-04-09T23:47:13.983Z</time></trkpt><trkpt lat="32.2648656" lon="-110.6469121"><ele>1187.6666666666665</ele><time>2026-04-09T23:47:14.983Z</time></trkpt><trkpt lat="32.2649542" lon="-110.6469329"><ele>1187.0</ele><time>2026-04-09T23:47:15.983Z</time></trkpt><trkpt lat="32.2650362" lon="-110.6469768"><ele>1186.3333333333333</ele><time>2026-04-09T23:47:16.983Z</time></trkpt><trkpt lat="32.2651128" lon="-110.6470355"><ele>1185.6666666666667</ele><time>2026-04-09T23:47:17.983Z</time></trkpt><trkpt lat="32.2651856" lon="-110.647094"><ele>1185.0</ele><time>2026-04-09T23:47:18.983Z</time></trkpt><trkpt lat="32.2652597" lon="-110.6471389"><ele>1185.0</ele><time>2026-04-09T23:47:19.983Z</time></trkpt><trkpt lat="32.2653343" lon="-110.6471744"><ele>1185.0</ele><time>2026-04-09T23:47:20.983Z</time></trkpt><trkpt lat="32.2654162" lon="-110.6471742"><ele>1185.0</ele><time>2026-04-09T23:47:21.983Z</time></trkpt><trkpt lat="32.2655043" lon="-110.6471512"><ele>1185.0</ele><time>2026-04-09T23:47:22.982Z</time></trkpt><trkpt lat="32.2655978" lon="-110.6471132"><ele>1185.0</ele><time>2026-04-09T23:47:23.983Z</time></trkpt><trkpt lat="32.2656954" lon="-110.6470701"><ele>1184.4</ele><time>2026-04-09T23:47:24.983Z</time></trkpt><trkpt lat="32.2657922" lon="-110.6470333"><ele>1183.8</ele><time>2026-04-09T23:47:25.983Z</time></trkpt><trkpt lat="32.2658926" lon="-110.6470118"><ele>1183.2</ele><time>2026-04-09T23:47:26.983Z</time></trkpt><trkpt lat="32.2659974" lon="-110.6469981"><ele>1182.6</ele><time>2026-04-09T23:47:27.983Z</time></trkpt><trkpt lat="32.2661016" lon="-110.646988"><ele>1182.0</ele><time>2026-04-09T23:47:28.983Z</time></trkpt><trkpt lat="32.2662041" lon="-110.6469867"><ele>1182.0</ele><time>2026-04-09T23:47:29.983Z</time></trkpt><trkpt lat="32.2663059" lon="-110.6469876"><ele>1182.0</ele><time>2026-04-09T23:47:30.983Z</time></trkpt><trkpt lat="32.2664001" lon="-110.6469769"><ele>1182.0</ele><time>2026-04-09T23:47:31.983Z</time></trkpt><trkpt lat="32.2664848" lon="-110.646954"><ele>1182.0</ele><time>2026-04-09T23:47:32.983Z</time></trkpt><trkpt lat="32.2665564" lon="-110.6469187"><ele>1182.0</ele><time>2026-04-09T23:47:33.983Z</time></trkpt><trkpt lat="32.2666192" lon="-110.6468681"><ele>1182.0</ele><time>2026-04-09T23:47:34.983Z</time></trkpt><trkpt lat="32.2666744" lon="-110.6468019"><ele>1184.4</ele><time>2026-04-09T23:47:35.983Z</time></trkpt><trkpt lat="32.2667226" lon="-110.6467227"><ele>1186.8000000000002</ele><time>2026-04-09T23:47:36.983Z</time></trkpt><trkpt lat="32.2667712" lon="-110.6466328"><ele>1189.2</ele><time>2026-04-09T23:47:37.983Z</time></trkpt><trkpt lat="32.2668256" lon="-110.6465341"><ele>1191.6000000000001</ele><time>2026-04-09T23:47:38.983Z</time></trkpt><trkpt lat="32.2668879" lon="-110.6464284"><ele>1194.0</ele><time>2026-04-09T23:47:39.983Z</time></trkpt><trkpt lat="32.2669599" lon="-110.6463197"><ele>1194.0</ele><time>2026-04-09T23:47:40.983Z</time></trkpt><trkpt lat="32.2670373" lon="-110.6462064"><ele>1194.0</ele><time>2026-04-09T23:47:41.983Z</time></trkpt><trkpt lat="32.2671078" lon="-110.6460868"><ele>1194.0</ele><time>2026-04-09T23:47:42.982Z</time></trkpt><trkpt lat="32.2671681" lon="-110.6459591"><ele>1194.0</ele><time>2026-04-09T23:47:43.983Z</time></trkpt><trkpt lat="32.2672241" lon="-110.6458267"><ele>1195.5</ele><time>2026-04-09T23:47:44.983Z</time></trkpt><trkpt lat="32.2672831" lon="-110.6456932"><ele>1197.0</ele><time>2026-04-09T23:47:45.983Z</time></trkpt><trkpt lat="32.2673442" lon="-110.645562"><ele>1198.5</ele><time>2026-04-09T23:47:46.983Z</time></trkpt><trkpt lat="32.2674024" lon="-110.6454312"><ele>1200.0</ele><time>2026-04-09T23:47:47.983Z</time></trkpt><trkpt lat="32.2674548" lon="-110.6453048"><ele>1200.2</ele><time>2026-04-09T23:47:48.983Z</time></trkpt><trkpt lat="32.2675114" lon="-110.6451807"><ele>1200.4</ele><time>2026-04-09T23:47:49.983Z</time></trkpt><trkpt lat="32.2675702" lon="-110.645064"><ele>1200.6</ele><time>2026-04-09T23:47:50.982Z</time></trkpt><trkpt lat="32.2676267" lon="-110.6449527"><ele>1200.8</ele><time>2026-04-09T23:47:51.983Z</time></trkpt><trkpt lat="32.2676799" lon="-110.6448494"><ele>1201.0</ele><time>2026-04-09T23:47:52.983Z</time></trkpt><trkpt lat="32.2677346" lon="-110.6447633"><ele>1201.0</ele><time>2026-04-09T23:47:53.982Z</time></trkpt><trkpt lat="32.2677992" lon="-110.6446917"><ele>1201.0</ele><time>2026-04-09T23:47:54.983Z</time></trkpt><trkpt lat="32.267877" lon="-110.6446319"><ele>1201.0</ele><time>2026-04-09T23:47:55.983Z</time></trkpt><trkpt lat="32.2679695" lon="-110.6445811"><ele>1201.0</ele><time>2026-04-09T23:47:56.982Z</time></trkpt><trkpt lat="32.268075" lon="-110.6445336"><ele>1201.0</ele><time>2026-04-09T23:47:57.983Z</time></trkpt><trkpt lat="32.2681917" lon="-110.6444855"><ele>1201.75</ele><time>2026-04-09T23:47:58.983Z</time></trkpt><trkpt lat="32.2683152" lon="-110.6444372"><ele>1202.5</ele><time>2026-04-09T23:47:59.984Z</time></trkpt><trkpt lat="32.2684419" lon="-110.6443881"><ele>1203.25</ele><time>2026-04-09T23:48:00.983Z</time></trkpt><trkpt lat="32.2685667" lon="-110.6443365"><ele>1204.0</ele><time>2026-04-09T23:48:01.983Z</time></trkpt><trkpt lat="32.2686888" lon="-110.644284"><ele>1204.0</ele><time>2026-04-09T23:48:02.982Z</time></trkpt><trkpt lat="32.2688063" lon="-110.6442304"><ele>1204.0</ele><time>2026-04-09T23:48:03.983Z</time></trkpt><trkpt lat="32.2689188" lon="-110.644172"><ele>1204.0</ele><time>2026-04-09T23:48:04.983Z</time></trkpt><trkpt lat="32.2690217" lon="-110.6441105"><ele>1204.0</ele><time>2026-04-09T23:48:05.983Z</time></trkpt><trkpt lat="32.2691166" lon="-110.6440465"><ele>1205.0</ele><time>2026-04-09T23:48:06.983Z</time></trkpt><trkpt lat="32.2692028" lon="-110.6439738"><ele>1206.0</ele><time>2026-04-09T23:48:07.983Z</time></trkpt><trkpt lat="32.2692746" lon="-110.6438931"><ele>1207.0</ele><time>2026-04-09T23:48:08.983Z</time></trkpt><trkpt lat="32.2693279" lon="-110.643803"><ele>1208.0</ele><time>2026-04-09T23:48:09.983Z</time></trkpt><trkpt lat="32.2693644" lon="-110.6436985"><ele>1209.0</ele><time>2026-04-09T23:48:10.983Z</time></trkpt><trkpt lat="32.2693794" lon="-110.6435862"><ele>1209.2</ele><time>2026-04-09T23:48:11.983Z</time></trkpt><trkpt lat="32.2693742" lon="-110.6434775"><ele>1209.4</ele><time>2026-04-09T23:48:12.983Z</time></trkpt><trkpt lat="32.2693503" lon="-110.6433671"><ele>1209.6</ele><time>2026-04-09T23:48:13.983Z</time></trkpt><trkpt lat="32.2693056" lon="-110.6432495"><ele>1209.8</ele><time>2026-04-09T23:48:14.983Z</time></trkpt><trkpt lat="32.2692498" lon="-110.6431236"><ele>1210.0</ele><time>2026-04-09T23:48:15.983Z</time></trkpt><trkpt lat="32.2691957" lon="-110.6429944"><ele>1210.0</ele><time>2026-04-09T23:48:16.983Z</time></trkpt><trkpt lat="32.2691495" lon="-110.6428678"><ele>1210.0</ele><time>2026-04-09T23:48:17.983Z</time></trkpt><trkpt lat="32.2691165" lon="-110.6427462"><ele>1210.0</ele><time>2026-04-09T23:48:18.983Z</time></trkpt><trkpt lat="32.2690987" lon="-110.6426302"><ele>1210.0</ele><time>2026-04-09T23:48:19.983Z</time></trkpt><trkpt lat="32.2690958" lon="-110.6425167"><ele>1210.0</ele><time>2026-04-09T23:48:20.983Z</time></trkpt><trkpt lat="32.2691109" lon="-110.6424067"><ele>1210.4</ele><time>2026-04-09T23:48:21.983Z</time></trkpt><trkpt lat="32.2691434" lon="-110.6422955"><ele>1210.8</ele><time>2026-04-09T23:48:22.983Z</time></trkpt><trkpt lat="32.2691881" lon="-110.6421805"><ele>1211.2</ele><time>2026-04-09T23:48:23.982Z</time></trkpt><trkpt lat="32.2692422" lon="-110.6420635"><ele>1211.6</ele><time>2026-04-09T23:48:24.982Z</time></trkpt><trkpt lat="32.2693005" lon="-110.641945"><ele>1212.0</ele><time>2026-04-09T23:48:25.983Z</time></trkpt><trkpt lat="32.2693563" lon="-110.6418142"><ele>1214.5</ele><time>2026-04-09T23:48:26.982Z</time></trkpt><trkpt lat="32.2694073" lon="-110.6416741"><ele>1217.0</ele><time>2026-04-09T23:48:27.983Z</time></trkpt><trkpt lat="32.2694537" lon="-110.6415292"><ele>1219.5</ele><time>2026-04-09T23:48:28.984Z</time></trkpt><trkpt lat="32.2695002" lon="-110.6413787"><ele>1222.0</ele><time>2026-04-09T23:48:29.983Z</time></trkpt><trkpt lat="32.2695488" lon="-110.6412269"><ele>1225.25</ele><time>2026-04-09T23:48:30.983Z</time></trkpt><trkpt lat="32.2695994" lon="-110.6410842"><ele>1228.5</ele><time>2026-04-09T23:48:31.983Z</time></trkpt><trkpt lat="32.2696476" lon="-110.6409552"><ele>1231.75</ele><time>2026-04-09T23:48:32.983Z</time></trkpt><trkpt lat="32.2696967" lon="-110.6408312"><ele>1235.0</ele><time>2026-04-09T23:48:33.984Z</time></trkpt><trkpt lat="32.2697479" lon="-110.6407174"><ele>1234.3333333333335</ele><time>2026-04-09T23:48:34.984Z</time></trkpt><trkpt lat="32.2697982" lon="-110.6406201"><ele>1233.6666666666667</ele><time>2026-04-09T23:48:35.984Z</time></trkpt><trkpt lat="32.2698415" lon="-110.6405342"><ele>1233.0</ele><time>2026-04-09T23:48:36.983Z</time></trkpt><trkpt lat="32.2698752" lon="-110.6404469"><ele>1232.3333333333333</ele><time>2026-04-09T23:48:37.984Z</time></trkpt><trkpt lat="32.2698949" lon="-110.640352"><ele>1231.6666666666665</ele><time>2026-04-09T23:48:38.984Z</time></trkpt><trkpt lat="32.2699031" lon="-110.6402482"><ele>1231.0</ele><time>2026-04-09T23:48:39.984Z</time></trkpt><trkpt lat="32.2699055" lon="-110.6401308"><ele>1231.0</ele><time>2026-04-09T23:48:40.984Z</time></trkpt><trkpt lat="32.2699087" lon="-110.6400059"><ele>1231.0</ele><time>2026-04-09T23:48:41.983Z</time></trkpt><trkpt lat="32.2699145" lon="-110.6398839"><ele>1231.0</ele><time>2026-04-09T23:48:42.983Z</time></trkpt><trkpt lat="32.2699216" lon="-110.6397706"><ele>1231.0</ele><time>2026-04-09T23:48:43.983Z</time></trkpt><trkpt lat="32.269927" lon="-110.6396687"><ele>1231.0</ele><time>2026-04-09T23:48:44.983Z</time></trkpt><trkpt lat="32.2699404" lon="-110.6395713"><ele>1231.0</ele><time>2026-04-09T23:48:45.982Z</time></trkpt><trkpt lat="32.2699696" lon="-110.6394768"><ele>1231.0</ele><time>2026-04-09T23:48:46.983Z</time></trkpt><trkpt lat="32.2700172" lon="-110.6393882"><ele>1231.0</ele><time>2026-04-09T23:48:47.984Z</time></trkpt><trkpt lat="32.2700811" lon="-110.6393039"><ele>1231.0</ele><time>2026-04-09T23:48:48.984Z</time></trkpt><trkpt lat="32.2701552" lon="-110.6392189"><ele>1231.0</ele><time>2026-04-09T23:48:49.984Z</time></trkpt><trkpt lat="32.2702294" lon="-110.6391354"><ele>1229.2</ele><time>2026-04-09T23:48:50.983Z</time></trkpt><trkpt lat="32.2703074" lon="-110.6390485"><ele>1227.3999999999999</ele><time>2026-04-09T23:48:51.984Z</time></trkpt><trkpt lat="32.2703865" lon="-110.6389638"><ele>1225.6</ele><time>2026-04-09T23:48:52.984Z</time></trkpt><trkpt lat="32.2704684" lon="-110.6388842"><ele>1223.8</ele><time>2026-04-09T23:48:53.983Z</time></trkpt><trkpt lat="32.270551" lon="-110.6388074"><ele>1222.0</ele><time>2026-04-09T23:48:54.983Z</time></trkpt><trkpt lat="32.2706359" lon="-110.6387296"><ele>1222.0</ele><time>2026-04-09T23:48:55.983Z</time></trkpt><trkpt lat="32.2707217" lon="-110.6386542"><ele>1222.0</ele><time>2026-04-09T23:48:56.983Z</time></trkpt><trkpt lat="32.2708051" lon="-110.6385843"><ele>1222.0</ele><time>2026-04-09T23:48:57.984Z</time></trkpt><trkpt lat="32.2708833" lon="-110.6385151"><ele>1222.0</ele><time>2026-04-09T23:48:58.984Z</time></trkpt><trkpt lat="32.2709527" lon="-110.6384406"><ele>1222.0</ele><time>2026-04-09T23:48:59.983Z</time></trkpt><trkpt lat="32.2710118" lon="-110.6383564"><ele>1222.0</ele><time>2026-04-09T23:49:00.984Z</time></trkpt><trkpt lat="32.2710613" lon="-110.6382652"><ele>1222.0</ele><time>2026-04-09T23:49:01.984Z</time></trkpt><trkpt lat="32.2711081" lon="-110.6381832"><ele>1222.0</ele><time>2026-04-09T23:49:02.983Z</time></trkpt><trkpt lat="32.2711613" lon="-110.6381152"><ele>1222.0</ele><time>2026-04-09T23:49:03.984Z</time></trkpt><trkpt lat="32.2712197" lon="-110.6380598"><ele>1222.0</ele><time>2026-04-09T23:49:04.984Z</time></trkpt><trkpt lat="32.2712843" lon="-110.6380186"><ele>1222.0</ele><time>2026-04-09T23:49:05.984Z</time></trkpt><trkpt lat="32.2713529" lon="-110.6379849"><ele>1222.0</ele><time>2026-04-09T23:49:06.983Z</time></trkpt><trkpt lat="32.2714359" lon="-110.6379793"><ele>1222.0</ele><time>2026-04-09T23:49:07.984Z</time></trkpt><trkpt lat="32.2715308" lon="-110.6379847"><ele>1222.0</ele><time>2026-04-09T23:49:08.984Z</time></trkpt><trkpt lat="32.2716271" lon="-110.6379922"><ele>1222.0</ele><time>2026-04-09T23:49:09.984Z</time></trkpt><trkpt lat="32.2717209" lon="-110.6379985"><ele>1222.0</ele><time>2026-04-09T23:49:10.984Z</time></trkpt><trkpt lat="32.2718164" lon="-110.6380043"><ele>1221.0</ele><time>2026-04-09T23:49:11.984Z</time></trkpt><trkpt lat="32.2719133" lon="-110.6380117"><ele>1220.0</ele><time>2026-04-09T23:49:12.984Z</time></trkpt><trkpt lat="32.2720075" lon="-110.6380175"><ele>1219.0</ele><time>2026-04-09T23:49:13.984Z</time></trkpt><trkpt lat="32.2720957" lon="-110.6380224"><ele>1218.0</ele><time>2026-04-09T23:49:14.984Z</time></trkpt><trkpt lat="32.2721778" lon="-110.6380359"><ele>1217.0</ele><time>2026-04-09T23:49:15.984Z</time></trkpt><trkpt lat="32.2722591" lon="-110.638066"><ele>1216.0</ele><time>2026-04-09T23:49:16.984Z</time></trkpt><trkpt lat="32.2723348" lon="-110.6381109"><ele>1216.0</ele><time>2026-04-09T23:49:17.984Z</time></trkpt><trkpt lat="32.2724075" lon="-110.638171"><ele>1216.0</ele><time>2026-04-09T23:49:18.984Z</time></trkpt><trkpt lat="32.2724803" lon="-110.6382358"><ele>1216.0</ele><time>2026-04-09T23:49:19.984Z</time></trkpt><trkpt lat="32.2725567" lon="-110.6382958"><ele>1216.0</ele><time>2026-04-09T23:49:20.984Z</time></trkpt><trkpt lat="32.2726402" lon="-110.6383484"><ele>1216.0</ele><time>2026-04-09T23:49:21.984Z</time></trkpt><trkpt lat="32.2727317" lon="-110.6383921"><ele>1216.0</ele><time>2026-04-09T23:49:22.984Z</time></trkpt><trkpt lat="32.2728292" lon="-110.6384188"><ele>1216.0</ele><time>2026-04-09T23:49:23.984Z</time></trkpt><trkpt lat="32.2729294" lon="-110.6384257"><ele>1216.0</ele><time>2026-04-09T23:49:24.984Z</time></trkpt><trkpt lat="32.2730272" lon="-110.6384152"><ele>1216.0</ele><time>2026-04-09T23:49:25.984Z</time></trkpt><trkpt lat="32.2731204" lon="-110.6383941"><ele>1216.0</ele><time>2026-04-09T23:49:26.984Z</time></trkpt><trkpt lat="32.2732123" lon="-110.638366"><ele>1213.6</ele><time>2026-04-09T23:49:27.984Z</time></trkpt><trkpt lat="32.2733022" lon="-110.6383232"><ele>1211.1999999999998</ele><time>2026-04-09T23:49:28.983Z</time></trkpt><trkpt lat="32.2733977" lon="-110.6382789"><ele>1208.8000000000002</ele><time>2026-04-09T23:49:29.984Z</time></trkpt><trkpt lat="32.2734941" lon="-110.6382351"><ele>1206.4</ele><time>2026-04-09T23:49:30.984Z</time></trkpt><trkpt lat="32.2735919" lon="-110.6381911"><ele>1204.0</ele><time>2026-04-09T23:49:31.984Z</time></trkpt><trkpt lat="32.2736923" lon="-110.6381437"><ele>1204.0</ele><time>2026-04-09T23:49:32.984Z</time></trkpt><trkpt lat="32.2737975" lon="-110.6380895"><ele>1204.0</ele><time>2026-04-09T23:49:33.984Z</time></trkpt><trkpt lat="32.2739083" lon="-110.6380276"><ele>1204.0</ele><time>2026-04-09T23:49:34.984Z</time></trkpt><trkpt lat="32.274019" lon="-110.6379634"><ele>1204.0</ele><time>2026-04-09T23:49:35.984Z</time></trkpt><trkpt lat="32.2741307" lon="-110.6378998"><ele>1204.0</ele><time>2026-04-09T23:49:36.984Z</time></trkpt><trkpt lat="32.2742393" lon="-110.6378351"><ele>1204.0</ele><time>2026-04-09T23:49:37.984Z</time></trkpt><trkpt lat="32.274344" lon="-110.637762"><ele>1204.0</ele><time>2026-04-09T23:49:38.984Z</time></trkpt><trkpt lat="32.274444" lon="-110.6376861"><ele>1204.0</ele><time>2026-04-09T23:49:39.984Z</time></trkpt><trkpt lat="32.2745411" lon="-110.6376167"><ele>1204.0</ele><time>2026-04-09T23:49:40.984Z</time></trkpt><trkpt lat="32.2746373" lon="-110.6375583"><ele>1204.0</ele><time>2026-04-09T23:49:41.984Z</time></trkpt><trkpt lat="32.2747315" lon="-110.6375108"><ele>1204.0</ele><time>2026-04-09T23:49:42.983Z</time></trkpt><trkpt lat="32.2748219" lon="-110.6374741"><ele>1204.0</ele><time>2026-04-09T23:49:43.984Z</time></trkpt><trkpt lat="32.274911" lon="-110.6374519"><ele>1204.0</ele><time>2026-04-09T23:49:44.984Z</time></trkpt><trkpt lat="32.2749993" lon="-110.6374475"><ele>1204.0</ele><time>2026-04-09T23:49:45.983Z</time></trkpt><trkpt lat="32.2750908" lon="-110.6374639"><ele>1204.0</ele><time>2026-04-09T23:49:46.984Z</time></trkpt><trkpt lat="32.2751885" lon="-110.6374947"><ele>1204.0</ele><time>2026-04-09T23:49:47.984Z</time></trkpt><trkpt lat="32.2752916" lon="-110.6375226"><ele>1204.0</ele><time>2026-04-09T23:49:48.984Z</time></trkpt><trkpt lat="32.275393" lon="-110.6375442"><ele>1204.0</ele><time>2026-04-09T23:49:49.984Z</time></trkpt><trkpt lat="32.275498" lon="-110.6375425"><ele>1204.0</ele><time>2026-04-09T23:49:50.984Z</time></trkpt><trkpt lat="32.2756015" lon="-110.6375267"><ele>1204.0</ele><time>2026-04-09T23:49:51.983Z</time></trkpt><trkpt lat="32.2756976" lon="-110.6375061"><ele>1204.0</ele><time>2026-04-09T23:49:52.984Z</time></trkpt><trkpt lat="32.2757869" lon="-110.6374774"><ele>1204.0</ele><time>2026-04-09T23:49:53.984Z</time></trkpt><trkpt lat="32.2758713" lon="-110.6374339"><ele>1204.0</ele><time>2026-04-09T23:49:54.984Z</time></trkpt><trkpt lat="32.2759498" lon="-110.6373713"><ele>1203.8</ele><time>2026-04-09T23:49:55.984Z</time></trkpt><trkpt lat="32.2760108" lon="-110.6372874"><ele>1203.6000000000001</ele><time>2026-04-09T23:49:56.983Z</time></trkpt><trkpt lat="32.2760578" lon="-110.6371821"><ele>1203.4</ele><time>2026-04-09T23:49:57.984Z</time></trkpt><trkpt lat="32.2760869" lon="-110.6370629"><ele>1203.2</ele><time>2026-04-09T23:49:58.984Z</time></trkpt><trkpt lat="32.2761047" lon="-110.6369286"><ele>1203.0</ele><time>2026-04-09T23:49:59.984Z</time></trkpt><trkpt lat="32.2761217" lon="-110.6367895"><ele>1203.0</ele><time>2026-04-09T23:50:00.984Z</time></trkpt><trkpt lat="32.2761402" lon="-110.6366454"><ele>1203.0</ele><time>2026-04-09T23:50:01.984Z</time></trkpt><trkpt lat="32.2761615" lon="-110.6364999"><ele>1203.0</ele><time>2026-04-09T23:50:02.984Z</time></trkpt><trkpt lat="32.2761847" lon="-110.6363523"><ele>1203.0</ele><time>2026-04-09T23:50:03.983Z</time></trkpt><trkpt lat="32.2762098" lon="-110.6362049"><ele>1204.75</ele><time>2026-04-09T23:50:04.984Z</time></trkpt><trkpt lat="32.2762323" lon="-110.6360596"><ele>1206.5</ele><time>2026-04-09T23:50:05.984Z</time></trkpt><trkpt lat="32.2762573" lon="-110.6359153"><ele>1208.25</ele><time>2026-04-09T23:50:06.984Z</time></trkpt><trkpt lat="32.2762845" lon="-110.6357699"><ele>1210.0</ele><time>2026-04-09T23:50:07.984Z</time></trkpt><trkpt lat="32.2763084" lon="-110.6356223"><ele>1210.0</ele><time>2026-04-09T23:50:08.984Z</time></trkpt><trkpt lat="32.2763295" lon="-110.6354735"><ele>1210.0</ele><time>2026-04-09T23:50:09.984Z</time></trkpt><trkpt lat="32.2763491" lon="-110.6353281"><ele>1210.0</ele><time>2026-04-09T23:50:10.984Z</time></trkpt><trkpt lat="32.2763745" lon="-110.6351842"><ele>1210.0</ele><time>2026-04-09T23:50:11.984Z</time></trkpt><trkpt lat="32.2764098" lon="-110.635045"><ele>1207.75</ele><time>2026-04-09T23:50:12.984Z</time></trkpt><trkpt lat="32.2764524" lon="-110.6349094"><ele>1205.5</ele><time>2026-04-09T23:50:13.984Z</time></trkpt><trkpt lat="32.2765004" lon="-110.6347766"><ele>1203.25</ele><time>2026-04-09T23:50:14.984Z</time></trkpt><trkpt lat="32.2765543" lon="-110.6346466"><ele>1201.0</ele><time>2026-04-09T23:50:15.984Z</time></trkpt><trkpt lat="32.2766127" lon="-110.6345194"><ele>1201.5</ele><time>2026-04-09T23:50:16.984Z</time></trkpt><trkpt lat="32.2766744" lon="-110.6343929"><ele>1202.0</ele><time>2026-04-09T23:50:17.984Z</time></trkpt><trkpt lat="32.2767364" lon="-110.6342722"><ele>1202.5</ele><time>2026-04-09T23:50:18.984Z</time></trkpt><trkpt lat="32.2767934" lon="-110.6341592"><ele>1203.0</ele><time>2026-04-09T23:50:19.984Z</time></trkpt><trkpt lat="32.2768493" lon="-110.6340537"><ele>1203.0</ele><time>2026-04-09T23:50:20.985Z</time></trkpt><trkpt lat="32.2769065" lon="-110.6339556"><ele>1203.0</ele><time>2026-04-09T23:50:21.984Z</time></trkpt><trkpt lat="32.2769786" lon="-110.6338751"><ele>1203.0</ele><time>2026-04-09T23:50:22.984Z</time></trkpt><trkpt lat="32.2770562" lon="-110.6338033"><ele>1203.0</ele><time>2026-04-09T23:50:23.984Z</time></trkpt><trkpt lat="32.2771424" lon="-110.6337377"><ele>1203.0</ele><time>2026-04-09T23:50:24.985Z</time></trkpt><trkpt lat="32.2772388" lon="-110.6336845"><ele>1203.0</ele><time>2026-04-09T23:50:25.984Z</time></trkpt><trkpt lat="32.2773472" lon="-110.6336407"><ele>1203.0</ele><time>2026-04-09T23:50:26.985Z</time></trkpt><trkpt lat="32.2774586" lon="-110.6336007"><ele>1203.0</ele><time>2026-04-09T23:50:27.983Z</time></trkpt><trkpt lat="32.277573" lon="-110.6335643"><ele>1203.0</ele><time>2026-04-09T23:50:28.985Z</time></trkpt><trkpt lat="32.2776905" lon="-110.6335295"><ele>1203.0</ele><time>2026-04-09T23:50:29.985Z</time></trkpt><trkpt lat="32.2778113" lon="-110.6334964"><ele>1203.0</ele><time>2026-04-09T23:50:30.984Z</time></trkpt><trkpt lat="32.2779325" lon="-110.6334666"><ele>1203.0</ele><time>2026-04-09T23:50:31.985Z</time></trkpt><trkpt lat="32.2780559" lon="-110.6334447"><ele>1203.0</ele><time>2026-04-09T23:50:32.985Z</time></trkpt><trkpt lat="32.2781799" lon="-110.6334323"><ele>1204.0</ele><time>2026-04-09T23:50:33.984Z</time></trkpt><trkpt lat="32.2783019" lon="-110.6334246"><ele>1205.0</ele><time>2026-04-09T23:50:34.985Z</time></trkpt><trkpt lat="32.2784137" lon="-110.6334187"><ele>1206.0</ele><time>2026-04-09T23:50:35.985Z</time></trkpt><trkpt lat="32.2785263" lon="-110.6334132"><ele>1207.0</ele><time>2026-04-09T23:50:36.985Z</time></trkpt><trkpt lat="32.2786355" lon="-110.6334051"><ele>1207.0</ele><time>2026-04-09T23:50:37.985Z</time></trkpt><trkpt lat="32.2787471" lon="-110.6333992"><ele>1207.0</ele><time>2026-04-09T23:50:38.985Z</time></trkpt><trkpt lat="32.2788692" lon="-110.6334072"><ele>1207.0</ele><time>2026-04-09T23:50:39.985Z</time></trkpt><trkpt lat="32.278999" lon="-110.6334291"><ele>1207.0</ele><time>2026-04-09T23:50:40.985Z</time></trkpt><trkpt lat="32.2791337" lon="-110.63346"><ele>1207.0</ele><time>2026-04-09T23:50:41.984Z</time></trkpt><trkpt lat="32.2792631" lon="-110.6334943"><ele>1207.0</ele><time>2026-04-09T23:50:42.985Z</time></trkpt><trkpt lat="32.2793883" lon="-110.6335291"><ele>1207.0</ele><time>2026-04-09T23:50:43.985Z</time></trkpt><trkpt lat="32.2795115" lon="-110.6335638"><ele>1207.0</ele><time>2026-04-09T23:50:44.985Z</time></trkpt><trkpt lat="32.2796312" lon="-110.633599"><ele>1207.0</ele><time>2026-04-09T23:50:45.984Z</time></trkpt><trkpt lat="32.2797515" lon="-110.6336335"><ele>1207.0</ele><time>2026-04-09T23:50:46.984Z</time></trkpt><trkpt lat="32.2798719" lon="-110.6336705"><ele>1207.0</ele><time>2026-04-09T23:50:47.985Z</time></trkpt><trkpt lat="32.2799912" lon="-110.6337088"><ele>1207.0</ele><time>2026-04-09T23:50:48.985Z</time></trkpt><trkpt lat="32.2801109" lon="-110.6337502"><ele>1206.6</ele><time>2026-04-09T23:50:49.985Z</time></trkpt><trkpt lat="32.2802233" lon="-110.6337864"><ele>1206.2</ele><time>2026-04-09T23:50:50.985Z</time></trkpt><trkpt lat="32.2803315" lon="-110.6338217"><ele>1205.8</ele><time>2026-04-09T23:50:51.984Z</time></trkpt><trkpt lat="32.2804368" lon="-110.6338542"><ele>1205.4</ele><time>2026-04-09T23:50:52.985Z</time></trkpt><trkpt lat="32.2805394" lon="-110.633876"><ele>1205.0</ele><time>2026-04-09T23:50:53.985Z</time></trkpt><trkpt lat="32.2806382" lon="-110.6338899"><ele>1204.2</ele><time>2026-04-09T23:50:54.985Z</time></trkpt><trkpt lat="32.2807321" lon="-110.6338818"><ele>1203.4</ele><time>2026-04-09T23:50:55.985Z</time></trkpt><trkpt lat="32.2808289" lon="-110.6338591"><ele>1202.6</ele><time>2026-04-09T23:50:56.985Z</time></trkpt><trkpt lat="32.2809262" lon="-110.6338204"><ele>1201.8</ele><time>2026-04-09T23:50:57.985Z</time></trkpt><trkpt lat="32.2810285" lon="-110.633768"><ele>1201.0</ele><time>2026-04-09T23:50:58.985Z</time></trkpt><trkpt lat="32.2811329" lon="-110.6337041"><ele>1201.0</ele><time>2026-04-09T23:50:59.985Z</time></trkpt><trkpt lat="32.2812415" lon="-110.6336348"><ele>1201.0</ele><time>2026-04-09T23:51:00.984Z</time></trkpt><trkpt lat="32.2813517" lon="-110.6335674"><ele>1201.0</ele><time>2026-04-09T23:51:01.985Z</time></trkpt><trkpt lat="32.2814643" lon="-110.6335009"><ele>1201.0</ele><time>2026-04-09T23:51:02.985Z</time></trkpt><trkpt lat="32.2815765" lon="-110.6334323"><ele>1201.0</ele><time>2026-04-09T23:51:03.985Z</time></trkpt><trkpt lat="32.2816875" lon="-110.6333597"><ele>1201.0</ele><time>2026-04-09T23:51:04.985Z</time></trkpt><trkpt lat="32.2817917" lon="-110.6332859"><ele>1201.0</ele><time>2026-04-09T23:51:05.985Z</time></trkpt><trkpt lat="32.2818915" lon="-110.6332163"><ele>1201.0</ele><time>2026-04-09T23:51:06.985Z</time></trkpt><trkpt lat="32.2819939" lon="-110.633148"><ele>1201.0</ele><time>2026-04-09T23:51:07.985Z</time></trkpt><trkpt lat="32.282095" lon="-110.6330815"><ele>1201.0</ele><time>2026-04-09T23:51:08.985Z</time></trkpt><trkpt lat="32.2821958" lon="-110.6330225"><ele>1201.0</ele><time>2026-04-09T23:51:09.985Z</time></trkpt><trkpt lat="32.2823012" lon="-110.6329729"><ele>1201.0</ele><time>2026-04-09T23:51:10.985Z</time></trkpt><trkpt lat="32.2824231" lon="-110.6329328"><ele>1201.75</ele><time>2026-04-09T23:51:11.985Z</time></trkpt><trkpt lat="32.2825488" lon="-110.6328941"><ele>1202.5</ele><time>2026-04-09T23:51:12.985Z</time></trkpt><trkpt lat="32.2826773" lon="-110.6328677"><ele>1203.25</ele><time>2026-04-09T23:51:13.985Z</time></trkpt><trkpt lat="32.2828006" lon="-110.6328411"><ele>1204.0</ele><time>2026-04-09T23:51:14.985Z</time></trkpt><trkpt lat="32.2829271" lon="-110.6328099"><ele>1203.75</ele><time>2026-04-09T23:51:15.985Z</time></trkpt><trkpt lat="32.2830579" lon="-110.6327789"><ele>1203.5</ele><time>2026-04-09T23:51:16.985Z</time></trkpt><trkpt lat="32.2831881" lon="-110.6327515"><ele>1203.25</ele><time>2026-04-09T23:51:17.984Z</time></trkpt><trkpt lat="32.2833153" lon="-110.6327294"><ele>1203.0</ele><time>2026-04-09T23:51:18.985Z</time></trkpt><trkpt lat="32.283436" lon="-110.6327095"><ele>1203.0</ele><time>2026-04-09T23:51:19.984Z</time></trkpt><trkpt lat="32.283549" lon="-110.6326924"><ele>1203.0</ele><time>2026-04-09T23:51:20.985Z</time></trkpt><trkpt lat="32.2836645" lon="-110.6326827"><ele>1203.0</ele><time>2026-04-09T23:51:21.985Z</time></trkpt><trkpt lat="32.2837825" lon="-110.6326849"><ele>1203.0</ele><time>2026-04-09T23:51:22.985Z</time></trkpt><trkpt lat="32.283903" lon="-110.6327008"><ele>1203.5</ele><time>2026-04-09T23:51:23.985Z</time></trkpt><trkpt lat="32.2840241" lon="-110.6327289"><ele>1204.0</ele><time>2026-04-09T23:51:24.985Z</time></trkpt><trkpt lat="32.2841463" lon="-110.6327644"><ele>1204.5</ele><time>2026-04-09T23:51:25.985Z</time></trkpt><trkpt lat="32.2842696" lon="-110.6327995"><ele>1205.0</ele><time>2026-04-09T23:51:26.985Z</time></trkpt><trkpt lat="32.2843927" lon="-110.632836"><ele>1205.5</ele><time>2026-04-09T23:51:27.985Z</time></trkpt><trkpt lat="32.2845129" lon="-110.6328733"><ele>1206.0</ele><time>2026-04-09T23:51:28.985Z</time></trkpt><trkpt lat="32.2846316" lon="-110.6329105"><ele>1206.5</ele><time>2026-04-09T23:51:29.984Z</time></trkpt><trkpt lat="32.2847505" lon="-110.632947"><ele>1207.0</ele><time>2026-04-09T23:51:30.985Z</time></trkpt><trkpt lat="32.2848708" lon="-110.6329843"><ele>1207.75</ele><time>2026-04-09T23:51:31.985Z</time></trkpt><trkpt lat="32.2849922" lon="-110.6330203"><ele>1208.5</ele><time>2026-04-09T23:51:32.985Z</time></trkpt><trkpt lat="32.2851134" lon="-110.6330504"><ele>1209.25</ele><time>2026-04-09T23:51:33.985Z</time></trkpt><trkpt lat="32.2852371" lon="-110.6330758"><ele>1210.0</ele><time>2026-04-09T23:51:34.985Z</time></trkpt><trkpt lat="32.2853577" lon="-110.633084"><ele>1210.0</ele><time>2026-04-09T23:51:35.985Z</time></trkpt><trkpt lat="32.2854752" lon="-110.6330804"><ele>1210.0</ele><time>2026-04-09T23:51:36.984Z</time></trkpt><trkpt lat="32.2855909" lon="-110.6330675"><ele>1210.0</ele><time>2026-04-09T23:51:37.985Z</time></trkpt><trkpt lat="32.2857019" lon="-110.6330377"><ele>1210.0</ele><time>2026-04-09T23:51:38.985Z</time></trkpt><trkpt lat="32.2858111" lon="-110.6329902"><ele>1210.5</ele><time>2026-04-09T23:51:39.985Z</time></trkpt><trkpt lat="32.2859222" lon="-110.6329272"><ele>1211.0</ele><time>2026-04-09T23:51:40.985Z</time></trkpt><trkpt lat="32.2860406" lon="-110.6328573"><ele>1211.5</ele><time>2026-04-09T23:51:41.984Z</time></trkpt><trkpt lat="32.2861613" lon="-110.6327842"><ele>1212.0</ele><time>2026-04-09T23:51:42.985Z</time></trkpt><trkpt lat="32.2862787" lon="-110.6327096"><ele>1212.0</ele><time>2026-04-09T23:51:43.985Z</time></trkpt><trkpt lat="32.2863932" lon="-110.6326342"><ele>1212.0</ele><time>2026-04-09T23:51:44.985Z</time></trkpt><trkpt lat="32.2865101" lon="-110.6325622"><ele>1212.0</ele><time>2026-04-09T23:51:45.985Z</time></trkpt><trkpt lat="32.2866296" lon="-110.6324924"><ele>1212.0</ele><time>2026-04-09T23:51:46.985Z</time></trkpt><trkpt lat="32.2867515" lon="-110.6324195"><ele>1212.75</ele><time>2026-04-09T23:51:47.985Z</time></trkpt><trkpt lat="32.2868741" lon="-110.6323444"><ele>1213.5</ele><time>2026-04-09T23:51:48.985Z</time></trkpt><trkpt lat="32.286995" lon="-110.632269"><ele>1214.25</ele><time>2026-04-09T23:51:49.985Z</time></trkpt><trkpt lat="32.2871149" lon="-110.6321932"><ele>1215.0</ele><time>2026-04-09T23:51:50.985Z</time></trkpt><trkpt lat="32.2872372" lon="-110.632118"><ele>1215.75</ele><time>2026-04-09T23:51:51.985Z</time></trkpt><trkpt lat="32.2873606" lon="-110.6320404"><ele>1216.5</ele><time>2026-04-09T23:51:52.985Z</time></trkpt><trkpt lat="32.2874859" lon="-110.631963"><ele>1217.25</ele><time>2026-04-09T23:51:53.985Z</time></trkpt><trkpt lat="32.2876103" lon="-110.6318881"><ele>1218.0</ele><time>2026-04-09T23:51:54.985Z</time></trkpt><trkpt lat="32.2877421" lon="-110.6318085"><ele>1218.5</ele><time>2026-04-09T23:51:55.985Z</time></trkpt><trkpt lat="32.2878699" lon="-110.6317351"><ele>1219.0</ele><time>2026-04-09T23:51:56.985Z</time></trkpt><trkpt lat="32.2879928" lon="-110.631667"><ele>1219.5</ele><time>2026-04-09T23:51:57.985Z</time></trkpt><trkpt lat="32.288111" lon="-110.6316031"><ele>1220.0</ele><time>2026-04-09T23:51:58.986Z</time></trkpt><trkpt lat="32.2882263" lon="-110.6315398"><ele>1220.5</ele><time>2026-04-09T23:51:59.985Z</time></trkpt><trkpt lat="32.2883418" lon="-110.6314765"><ele>1221.0</ele><time>2026-04-09T23:52:00.985Z</time></trkpt><trkpt lat="32.2884541" lon="-110.6314164"><ele>1221.5</ele><time>2026-04-09T23:52:01.985Z</time></trkpt><trkpt lat="32.2885714" lon="-110.6313554"><ele>1222.0</ele><time>2026-04-09T23:52:02.985Z</time></trkpt><trkpt lat="32.2886959" lon="-110.6312945"><ele>1222.0</ele><time>2026-04-09T23:52:03.985Z</time></trkpt><trkpt lat="32.2888225" lon="-110.6312325"><ele>1222.0</ele><time>2026-04-09T23:52:04.985Z</time></trkpt><trkpt lat="32.2889505" lon="-110.6311705"><ele>1222.0</ele><time>2026-04-09T23:52:05.985Z</time></trkpt><trkpt lat="32.2890812" lon="-110.631107"><ele>1222.0</ele><time>2026-04-09T23:52:06.985Z</time></trkpt><trkpt lat="32.2892094" lon="-110.631042"><ele>1222.5</ele><time>2026-04-09T23:52:07.985Z</time></trkpt><trkpt lat="32.2893399" lon="-110.6309774"><ele>1223.0</ele><time>2026-04-09T23:52:08.985Z</time></trkpt><trkpt lat="32.2894703" lon="-110.6309128"><ele>1223.5</ele><time>2026-04-09T23:52:09.985Z</time></trkpt><trkpt lat="32.2895994" lon="-110.6308478"><ele>1224.0</ele><time>2026-04-09T23:52:10.985Z</time></trkpt><trkpt lat="32.2897272" lon="-110.6307855"><ele>1224.75</ele><time>2026-04-09T23:52:11.986Z</time></trkpt><trkpt lat="32.2898572" lon="-110.6307231"><ele>1225.5</ele><time>2026-04-09T23:52:12.985Z</time></trkpt><trkpt lat="32.2899872" lon="-110.6306589"><ele>1226.25</ele><time>2026-04-09T23:52:13.986Z</time></trkpt><trkpt lat="32.2901119" lon="-110.6305987"><ele>1227.0</ele><time>2026-04-09T23:52:14.985Z</time></trkpt><trkpt lat="32.2902331" lon="-110.630541"><ele>1227.0</ele><time>2026-04-09T23:52:15.985Z</time></trkpt><trkpt lat="32.2903532" lon="-110.6304832"><ele>1227.0</ele><time>2026-04-09T23:52:16.985Z</time></trkpt><trkpt lat="32.2904704" lon="-110.6304252"><ele>1227.0</ele><time>2026-04-09T23:52:17.986Z</time></trkpt><trkpt lat="32.2905831" lon="-110.6303679"><ele>1227.0</ele><time>2026-04-09T23:52:18.985Z</time></trkpt><trkpt lat="32.2906868" lon="-110.6303144"><ele>1227.6</ele><time>2026-04-09T23:52:19.985Z</time></trkpt><trkpt lat="32.2907873" lon="-110.6302634"><ele>1228.2</ele><time>2026-04-09T23:52:20.984Z</time></trkpt><trkpt lat="32.2908795" lon="-110.6302175"><ele>1228.8</ele><time>2026-04-09T23:52:21.985Z</time></trkpt><trkpt lat="32.2909641" lon="-110.6301732"><ele>1229.4</ele><time>2026-04-09T23:52:22.985Z</time></trkpt><trkpt lat="32.2910386" lon="-110.6301281"><ele>1230.0</ele><time>2026-04-09T23:52:23.985Z</time></trkpt><trkpt lat="32.2911054" lon="-110.6300755"><ele>1230.0</ele><time>2026-04-09T23:52:24.985Z</time></trkpt><trkpt lat="32.2911691" lon="-110.6300024"><ele>1230.0</ele><time>2026-04-09T23:52:25.986Z</time></trkpt><trkpt lat="32.2912242" lon="-110.6299032"><ele>1230.0</ele><time>2026-04-09T23:52:26.986Z</time></trkpt><trkpt lat="32.2912753" lon="-110.6297848"><ele>1230.0</ele><time>2026-04-09T23:52:27.986Z</time></trkpt><trkpt lat="32.2913263" lon="-110.6296645"><ele>1230.0</ele><time>2026-04-09T23:52:28.986Z</time></trkpt><trkpt lat="32.2913776" lon="-110.6295421"><ele>1229.75</ele><time>2026-04-09T23:52:29.986Z</time></trkpt><trkpt lat="32.2914216" lon="-110.6294144"><ele>1229.5</ele><time>2026-04-09T23:52:30.986Z</time></trkpt><trkpt lat="32.2914584" lon="-110.6292787"><ele>1229.25</ele><time>2026-04-09T23:52:31.986Z</time></trkpt><trkpt lat="32.2914819" lon="-110.6291362"><ele>1229.0</ele><time>2026-04-09T23:52:32.986Z</time></trkpt><trkpt lat="32.2915006" lon="-110.6289925"><ele>1229.0</ele><time>2026-04-09T23:52:33.986Z</time></trkpt><trkpt lat="32.2915044" lon="-110.6288526"><ele>1229.0</ele><time>2026-04-09T23:52:34.986Z</time></trkpt><trkpt lat="32.2915182" lon="-110.6287175"><ele>1229.0</ele><time>2026-04-09T23:52:35.985Z</time></trkpt><trkpt lat="32.2915423" lon="-110.6285801"><ele>1229.0</ele><time>2026-04-09T23:52:36.985Z</time></trkpt><trkpt lat="32.29157" lon="-110.6284465"><ele>1229.8</ele><time>2026-04-09T23:52:37.986Z</time></trkpt><trkpt lat="32.2915956" lon="-110.6283243"><ele>1230.6000000000001</ele><time>2026-04-09T23:52:38.985Z</time></trkpt><trkpt lat="32.2916198" lon="-110.6282167"><ele>1231.4</ele><time>2026-04-09T23:52:39.986Z</time></trkpt><trkpt lat="32.2916502" lon="-110.6281221"><ele>1232.2</ele><time>2026-04-09T23:52:40.986Z</time></trkpt><trkpt lat="32.2916906" lon="-110.6280311"><ele>1233.0</ele><time>2026-04-09T23:52:41.985Z</time></trkpt><trkpt lat="32.2917417" lon="-110.627936"><ele>1233.0</ele><time>2026-04-09T23:52:42.986Z</time></trkpt><trkpt lat="32.2917959" lon="-110.6278352"><ele>1233.0</ele><time>2026-04-09T23:52:43.986Z</time></trkpt><trkpt lat="32.2918579" lon="-110.6277217"><ele>1233.0</ele><time>2026-04-09T23:52:44.986Z</time></trkpt><trkpt lat="32.2919206" lon="-110.6276013"><ele>1233.0</ele><time>2026-04-09T23:52:45.986Z</time></trkpt><trkpt lat="32.2919813" lon="-110.6274709"><ele>1232.0</ele><time>2026-04-09T23:52:46.986Z</time></trkpt><trkpt lat="32.2920399" lon="-110.6273325"><ele>1231.0</ele><time>2026-04-09T23:52:47.986Z</time></trkpt><trkpt lat="32.2920918" lon="-110.6271907"><ele>1230.0</ele><time>2026-04-09T23:52:48.986Z</time></trkpt><trkpt lat="32.29215" lon="-110.6270591"><ele>1229.0</ele><time>2026-04-09T23:52:49.986Z</time></trkpt><trkpt lat="32.2922128" lon="-110.6269348"><ele>1229.5</ele><time>2026-04-09T23:52:50.986Z</time></trkpt><trkpt lat="32.2922733" lon="-110.6268119"><ele>1230.0</ele><time>2026-04-09T23:52:51.986Z</time></trkpt><trkpt lat="32.2923238" lon="-110.6266794"><ele>1230.5</ele><time>2026-04-09T23:52:52.986Z</time></trkpt><trkpt lat="32.2923686" lon="-110.6265389"><ele>1231.0</ele><time>2026-04-09T23:52:53.985Z</time></trkpt><trkpt lat="32.2923955" lon="-110.626388"><ele>1231.0</ele><time>2026-04-09T23:52:54.985Z</time></trkpt><trkpt lat="32.2924167" lon="-110.6262384"><ele>1231.0</ele><time>2026-04-09T23:52:55.986Z</time></trkpt><trkpt lat="32.2924438" lon="-110.6260913"><ele>1231.0</ele><time>2026-04-09T23:52:56.986Z</time></trkpt><trkpt lat="32.2924782" lon="-110.625951"><ele>1231.0</ele><time>2026-04-09T23:52:57.986Z</time></trkpt><trkpt lat="32.2925199" lon="-110.6258163"><ele>1231.0</ele><time>2026-04-09T23:52:58.986Z</time></trkpt><trkpt lat="32.2925677" lon="-110.6256869"><ele>1231.0</ele><time>2026-04-09T23:52:59.986Z</time></trkpt><trkpt lat="32.2926161" lon="-110.6255619"><ele>1231.0</ele><time>2026-04-09T23:53:00.986Z</time></trkpt><trkpt lat="32.2926545" lon="-110.6254371"><ele>1231.0</ele><time>2026-04-09T23:53:01.986Z</time></trkpt><trkpt lat="32.2926775" lon="-110.6253149"><ele>1230.8</ele><time>2026-04-09T23:53:02.986Z</time></trkpt><trkpt lat="32.2926953" lon="-110.6251976"><ele>1230.6</ele><time>2026-04-09T23:53:03.985Z</time></trkpt><trkpt lat="32.2927241" lon="-110.6250964"><ele>1230.4</ele><time>2026-04-09T23:53:04.986Z</time></trkpt><trkpt lat="32.2927682" lon="-110.6250036"><ele>1230.2</ele><time>2026-04-09T23:53:05.986Z</time></trkpt><trkpt lat="32.2928269" lon="-110.6249131"><ele>1230.0</ele><time>2026-04-09T23:53:06.986Z</time></trkpt><trkpt lat="32.2928955" lon="-110.6248216"><ele>1230.0</ele><time>2026-04-09T23:53:07.986Z</time></trkpt><trkpt lat="32.2929638" lon="-110.6247259"><ele>1230.0</ele><time>2026-04-09T23:53:08.986Z</time></trkpt><trkpt lat="32.2930321" lon="-110.6246247"><ele>1230.0</ele><time>2026-04-09T23:53:09.985Z</time></trkpt><trkpt lat="32.293099" lon="-110.624521"><ele>1230.0</ele><time>2026-04-09T23:53:10.986Z</time></trkpt><trkpt lat="32.2931599" lon="-110.6244168"><ele>1230.0</ele><time>2026-04-09T23:53:11.986Z</time></trkpt><trkpt lat="32.2932102" lon="-110.6243089"><ele>1232.8</ele><time>2026-04-09T23:53:12.986Z</time></trkpt><trkpt lat="32.2932501" lon="-110.6242023"><ele>1235.6</ele><time>2026-04-09T23:53:13.986Z</time></trkpt><trkpt lat="32.2932889" lon="-110.6241016"><ele>1238.4</ele><time>2026-04-09T23:53:14.985Z</time></trkpt><trkpt lat="32.2933324" lon="-110.6240006"><ele>1241.2</ele><time>2026-04-09T23:53:15.986Z</time></trkpt><trkpt lat="32.2933889" lon="-110.6238932"><ele>1244.0</ele><time>2026-04-09T23:53:16.986Z</time></trkpt><trkpt lat="32.2934505" lon="-110.623784"><ele>1244.0</ele><time>2026-04-09T23:53:17.986Z</time></trkpt><trkpt lat="32.2935171" lon="-110.6236757"><ele>1244.0</ele><time>2026-04-09T23:53:18.986Z</time></trkpt><trkpt lat="32.2935876" lon="-110.6235728"><ele>1244.0</ele><time>2026-04-09T23:53:19.986Z</time></trkpt><trkpt lat="32.2936667" lon="-110.6234807"><ele>1244.0</ele><time>2026-04-09T23:53:20.986Z</time></trkpt><trkpt lat="32.2937598" lon="-110.6233929"><ele>1243.25</ele><time>2026-04-09T23:53:21.986Z</time></trkpt><trkpt lat="32.2938724" lon="-110.6233062"><ele>1242.5</ele><time>2026-04-09T23:53:22.986Z</time></trkpt><trkpt lat="32.2939806" lon="-110.6232186"><ele>1241.75</ele><time>2026-04-09T23:53:23.986Z</time></trkpt><trkpt lat="32.2940877" lon="-110.6231314"><ele>1241.0</ele><time>2026-04-09T23:53:24.986Z</time></trkpt><trkpt lat="32.2941849" lon="-110.6230373"><ele>1241.0</ele><time>2026-04-09T23:53:25.985Z</time></trkpt><trkpt lat="32.2942869" lon="-110.6229548"><ele>1241.0</ele><time>2026-04-09T23:53:26.986Z</time></trkpt><trkpt lat="32.29439" lon="-110.6228807"><ele>1241.0</ele><time>2026-04-09T23:53:27.986Z</time></trkpt><trkpt lat="32.2944916" lon="-110.6228137"><ele>1241.0</ele><time>2026-04-09T23:53:28.986Z</time></trkpt><trkpt lat="32.2945932" lon="-110.622752"><ele>1240.1666666666667</ele><time>2026-04-09T23:53:29.986Z</time></trkpt><trkpt lat="32.2946895" lon="-110.6226892"><ele>1239.3333333333335</ele><time>2026-04-09T23:53:30.986Z</time></trkpt><trkpt lat="32.2947736" lon="-110.6226318"><ele>1238.5</ele><time>2026-04-09T23:53:31.986Z</time></trkpt><trkpt lat="32.2948501" lon="-110.6225895"><ele>1237.6666666666667</ele><time>2026-04-09T23:53:32.986Z</time></trkpt><trkpt lat="32.2949221" lon="-110.6225561"><ele>1236.8333333333333</ele><time>2026-04-09T23:53:33.986Z</time></trkpt><trkpt lat="32.2949937" lon="-110.6225156"><ele>1236.0</ele><time>2026-04-09T23:53:34.986Z</time></trkpt><trkpt lat="32.2950589" lon="-110.6224527"><ele>1236.0</ele><time>2026-04-09T23:53:35.986Z</time></trkpt><trkpt lat="32.2951123" lon="-110.6223701"><ele>1236.0</ele><time>2026-04-09T23:53:36.986Z</time></trkpt><trkpt lat="32.2951549" lon="-110.6222714"><ele>1236.0</ele><time>2026-04-09T23:53:37.986Z</time></trkpt><trkpt lat="32.2951963" lon="-110.6221698"><ele>1236.0</ele><time>2026-04-09T23:53:38.985Z</time></trkpt><trkpt lat="32.2952447" lon="-110.622074"><ele>1236.0</ele><time>2026-04-09T23:53:39.986Z</time></trkpt><trkpt lat="32.2953016" lon="-110.6219888"><ele>1236.3333333333333</ele><time>2026-04-09T23:53:40.986Z</time></trkpt><trkpt lat="32.2953652" lon="-110.6219157"><ele>1236.6666666666667</ele><time>2026-04-09T23:53:41.985Z</time></trkpt><trkpt lat="32.2954282" lon="-110.6218516"><ele>1237.0</ele><time>2026-04-09T23:53:42.985Z</time></trkpt><trkpt lat="32.2955007" lon="-110.6218144"><ele>1237.3333333333335</ele><time>2026-04-09T23:53:43.986Z</time></trkpt><trkpt lat="32.2955823" lon="-110.6217971"><ele>1237.6666666666667</ele><time>2026-04-09T23:53:44.986Z</time></trkpt><trkpt lat="32.2956685" lon="-110.621799"><ele>1238.0</ele><time>2026-04-09T23:53:45.986Z</time></trkpt><trkpt lat="32.295761" lon="-110.6218088"><ele>1238.0</ele><time>2026-04-09T23:53:46.985Z</time></trkpt><trkpt lat="32.2958579" lon="-110.6218183"><ele>1238.0</ele><time>2026-04-09T23:53:47.986Z</time></trkpt><trkpt lat="32.2959623" lon="-110.6218248"><ele>1238.0</ele><time>2026-04-09T23:53:48.986Z</time></trkpt><trkpt lat="32.2960706" lon="-110.6218177"><ele>1238.0</ele><time>2026-04-09T23:53:49.986Z</time></trkpt><trkpt lat="32.296177" lon="-110.6217987"><ele>1238.0</ele><time>2026-04-09T23:53:50.986Z</time></trkpt><trkpt lat="32.2962813" lon="-110.6217796"><ele>1238.0</ele><time>2026-04-09T23:53:51.985Z</time></trkpt><trkpt lat="32.2963783" lon="-110.6217706"><ele>1238.0</ele><time>2026-04-09T23:53:52.986Z</time></trkpt><trkpt lat="32.2964743" lon="-110.6217735"><ele>1238.0</ele><time>2026-04-09T23:53:53.986Z</time></trkpt><trkpt lat="32.2965768" lon="-110.6217837"><ele>1238.0</ele><time>2026-04-09T23:53:54.986Z</time></trkpt><trkpt lat="32.2966817" lon="-110.6217947"><ele>1238.0</ele><time>2026-04-09T23:53:55.986Z</time></trkpt><trkpt lat="32.2967975" lon="-110.6218095"><ele>1239.0</ele><time>2026-04-09T23:53:56.986Z</time></trkpt><trkpt lat="32.2969084" lon="-110.6218233"><ele>1240.0</ele><time>2026-04-09T23:53:57.986Z</time></trkpt><trkpt lat="32.2970129" lon="-110.6218362"><ele>1241.0</ele><time>2026-04-09T23:53:58.986Z</time></trkpt><trkpt lat="32.2971148" lon="-110.6218476"><ele>1242.0</ele><time>2026-04-09T23:53:59.986Z</time></trkpt><trkpt lat="32.2972118" lon="-110.6218551"><ele>1243.0</ele><time>2026-04-09T23:54:00.986Z</time></trkpt><trkpt lat="32.2973042" lon="-110.6218494"><ele>1244.0</ele><time>2026-04-09T23:54:01.986Z</time></trkpt><trkpt lat="32.2973949" lon="-110.6218269"><ele>1245.0</ele><time>2026-04-09T23:54:02.985Z</time></trkpt><trkpt lat="32.2974807" lon="-110.621787"><ele>1246.0</ele><time>2026-04-09T23:54:03.986Z</time></trkpt><trkpt lat="32.2975648" lon="-110.6217342"><ele>1247.0</ele><time>2026-04-09T23:54:04.987Z</time></trkpt><trkpt lat="32.297644" lon="-110.6216861"><ele>1248.0</ele><time>2026-04-09T23:54:05.987Z</time></trkpt><trkpt lat="32.2977209" lon="-110.6216476"><ele>1248.0</ele><time>2026-04-09T23:54:06.987Z</time></trkpt><trkpt lat="32.2977911" lon="-110.6216507"><ele>1248.0</ele><time>2026-04-09T23:54:07.987Z</time></trkpt><trkpt lat="32.2978597" lon="-110.6216774"><ele>1248.0</ele><time>2026-04-09T23:54:08.986Z</time></trkpt><trkpt lat="32.297931" lon="-110.6217241"><ele>1248.0</ele><time>2026-04-09T23:54:09.987Z</time></trkpt><trkpt lat="32.2980122" lon="-110.6217824"><ele>1248.0</ele><time>2026-04-09T23:54:10.986Z</time></trkpt><trkpt lat="32.2981049" lon="-110.6218426"><ele>1248.0</ele><time>2026-04-09T23:54:11.987Z</time></trkpt><trkpt lat="32.2982025" lon="-110.6219047"><ele>1249.2</ele><time>2026-04-09T23:54:12.987Z</time></trkpt><trkpt lat="32.2983088" lon="-110.6219631"><ele>1250.4</ele><time>2026-04-09T23:54:13.986Z</time></trkpt><trkpt lat="32.2984105" lon="-110.6220072"><ele>1251.6000000000001</ele><time>2026-04-09T23:54:14.987Z</time></trkpt><trkpt lat="32.2985125" lon="-110.6220417"><ele>1252.8</ele><time>2026-04-09T23:54:15.986Z</time></trkpt><trkpt lat="32.2986197" lon="-110.6220708"><ele>1254.0</ele><time>2026-04-09T23:54:16.987Z</time></trkpt><trkpt lat="32.2987313" lon="-110.6220973"><ele>1255.0</ele><time>2026-04-09T23:54:17.987Z</time></trkpt><trkpt lat="32.2988456" lon="-110.622126"><ele>1256.0</ele><time>2026-04-09T23:54:18.987Z</time></trkpt><trkpt lat="32.2989588" lon="-110.6221559"><ele>1257.0</ele><time>2026-04-09T23:54:19.987Z</time></trkpt><trkpt lat="32.2990727" lon="-110.6221778"><ele>1258.0</ele><time>2026-04-09T23:54:20.986Z</time></trkpt><trkpt lat="32.2991835" lon="-110.6221894"><ele>1259.2</ele><time>2026-04-09T23:54:21.986Z</time></trkpt><trkpt lat="32.2992935" lon="-110.6221957"><ele>1260.4</ele><time>2026-04-09T23:54:22.987Z</time></trkpt><trkpt lat="32.2993988" lon="-110.6221986"><ele>1261.6000000000001</ele><time>2026-04-09T23:54:23.987Z</time></trkpt><trkpt lat="32.2994965" lon="-110.6221948"><ele>1262.8</ele><time>2026-04-09T23:54:24.987Z</time></trkpt><trkpt lat="32.2995804" lon="-110.6221734"><ele>1264.0</ele><time>2026-04-09T23:54:25.986Z</time></trkpt><trkpt lat="32.2996615" lon="-110.6221313"><ele>1264.0</ele><time>2026-04-09T23:54:26.987Z</time></trkpt><trkpt lat="32.2997491" lon="-110.6220665"><ele>1264.0</ele><time>2026-04-09T23:54:27.987Z</time></trkpt><trkpt lat="32.2998453" lon="-110.6219852"><ele>1264.0</ele><time>2026-04-09T23:54:28.987Z</time></trkpt><trkpt lat="32.2999482" lon="-110.6218988"><ele>1264.0</ele><time>2026-04-09T23:54:29.987Z</time></trkpt><trkpt lat="32.3000528" lon="-110.6218125"><ele>1266.25</ele><time>2026-04-09T23:54:30.986Z</time></trkpt><trkpt lat="32.3001571" lon="-110.6217378"><ele>1268.5</ele><time>2026-04-09T23:54:31.987Z</time></trkpt><trkpt lat="32.3002612" lon="-110.6216654"><ele>1270.75</ele><time>2026-04-09T23:54:32.987Z</time></trkpt><trkpt lat="32.3003583" lon="-110.6215762"><ele>1273.0</ele><time>2026-04-09T23:54:33.987Z</time></trkpt><trkpt lat="32.3004541" lon="-110.6214797"><ele>1273.0</ele><time>2026-04-09T23:54:34.986Z</time></trkpt><trkpt lat="32.3005463" lon="-110.6213718"><ele>1273.0</ele><time>2026-04-09T23:54:35.986Z</time></trkpt><trkpt lat="32.3006401" lon="-110.6212608"><ele>1273.0</ele><time>2026-04-09T23:54:36.985Z</time></trkpt><trkpt lat="32.300736" lon="-110.6211525"><ele>1273.0</ele><time>2026-04-09T23:54:37.987Z</time></trkpt><trkpt lat="32.3008252" lon="-110.6210418"><ele>1275.5</ele><time>2026-04-09T23:54:38.986Z</time></trkpt><trkpt lat="32.3009032" lon="-110.6209295"><ele>1278.0</ele><time>2026-04-09T23:54:39.987Z</time></trkpt><trkpt lat="32.3009713" lon="-110.6208106"><ele>1280.5</ele><time>2026-04-09T23:54:40.987Z</time></trkpt><trkpt lat="32.3010288" lon="-110.6206851"><ele>1283.0</ele><time>2026-04-09T23:54:41.987Z</time></trkpt><trkpt lat="32.3010873" lon="-110.6205527"><ele>1283.0</ele><time>2026-04-09T23:54:42.987Z</time></trkpt><trkpt lat="32.3011374" lon="-110.6204211"><ele>1283.0</ele><time>2026-04-09T23:54:43.987Z</time></trkpt><trkpt lat="32.3011807" lon="-110.6202938"><ele>1283.0</ele><time>2026-04-09T23:54:44.987Z</time></trkpt><trkpt lat="32.3012181" lon="-110.6201764"><ele>1283.0</ele><time>2026-04-09T23:54:45.987Z</time></trkpt><trkpt lat="32.3012541" lon="-110.6200703"><ele>1283.0</ele><time>2026-04-09T23:54:46.987Z</time></trkpt><trkpt lat="32.3012928" lon="-110.6199768"><ele>1284.0</ele><time>2026-04-09T23:54:47.987Z</time></trkpt><trkpt lat="32.3013447" lon="-110.6198992"><ele>1285.0</ele><time>2026-04-09T23:54:48.987Z</time></trkpt><trkpt lat="32.3014151" lon="-110.6198383"><ele>1286.0</ele><time>2026-04-09T23:54:49.987Z</time></trkpt><trkpt lat="32.3015048" lon="-110.6197909"><ele>1287.0</ele><time>2026-04-09T23:54:50.987Z</time></trkpt><trkpt lat="32.3016171" lon="-110.6197536"><ele>1288.0</ele><time>2026-04-09T23:54:51.987Z</time></trkpt><trkpt lat="32.3017384" lon="-110.6197276"><ele>1288.0</ele><time>2026-04-09T23:54:52.987Z</time></trkpt><trkpt lat="32.301857" lon="-110.6197084"><ele>1288.0</ele><time>2026-04-09T23:54:53.987Z</time></trkpt><trkpt lat="32.301974" lon="-110.619692"><ele>1288.0</ele><time>2026-04-09T23:54:54.987Z</time></trkpt><trkpt lat="32.3020933" lon="-110.6196791"><ele>1288.0</ele><time>2026-04-09T23:54:55.986Z</time></trkpt><trkpt lat="32.3022065" lon="-110.6196652"><ele>1287.8000000000002</ele><time>2026-04-09T23:54:56.987Z</time></trkpt><trkpt lat="32.3023058" lon="-110.619643"><ele>1287.6</ele><time>2026-04-09T23:54:57.987Z</time></trkpt><trkpt lat="32.3023853" lon="-110.6196087"><ele>1287.4</ele><time>2026-04-09T23:54:58.987Z</time></trkpt><trkpt lat="32.3024568" lon="-110.6195581"><ele>1287.1999999999998</ele><time>2026-04-09T23:54:59.987Z</time></trkpt><trkpt lat="32.3025329" lon="-110.6194984"><ele>1287.0</ele><time>2026-04-09T23:55:00.987Z</time></trkpt><trkpt lat="32.302604" lon="-110.6194235"><ele>1287.0</ele><time>2026-04-09T23:55:01.987Z</time></trkpt><trkpt lat="32.3026658" lon="-110.6193511"><ele>1287.0</ele><time>2026-04-09T23:55:02.987Z</time></trkpt><trkpt lat="32.3027242" lon="-110.6192823"><ele>1287.0</ele><time>2026-04-09T23:55:03.986Z</time></trkpt><trkpt lat="32.3027842" lon="-110.6192145"><ele>1287.0</ele><time>2026-04-09T23:55:04.987Z</time></trkpt><trkpt lat="32.30284" lon="-110.6191511"><ele>1287.0</ele><time>2026-04-09T23:55:05.986Z</time></trkpt><trkpt lat="32.3028915" lon="-110.6190925"><ele>1287.0</ele><time>2026-04-09T23:55:06.987Z</time></trkpt><trkpt lat="32.3029364" lon="-110.6190377"><ele>1287.0</ele><time>2026-04-09T23:55:07.987Z</time></trkpt><trkpt lat="32.3030139" lon="-110.6189401"><ele>1287.0</ele><time>2026-04-09T23:55:09.987Z</time></trkpt><trkpt lat="32.3030689" lon="-110.618872"><ele>1287.0</ele><time>2026-04-09T23:55:11.987Z</time></trkpt><trkpt lat="32.3031437" lon="-110.6188103"><ele>1287.0</ele><time>2026-04-09T23:55:53.987Z</time></trkpt><trkpt lat="32.3032192" lon="-110.6188133"><ele>1287.0</ele><time>2026-04-09T23:55:56.988Z</time></trkpt><trkpt lat="32.3032187" lon="-110.6189158"><ele>1287.0</ele><time>2026-04-09T23:55:59.987Z</time></trkpt><trkpt lat="32.3032088" lon="-110.6190101"><ele>1286.3999999999999</ele><time>2026-04-09T23:56:01.988Z</time></trkpt><trkpt lat="32.3032088" lon="-110.6191137"><ele>1285.8</ele><time>2026-04-09T23:56:03.987Z</time></trkpt><trkpt lat="32.3031812" lon="-110.6192273"><ele>1285.2</ele><time>2026-04-09T23:56:05.987Z</time></trkpt><trkpt lat="32.3031981" lon="-110.6193224"><ele>1284.6</ele><time>2026-04-09T23:56:07.988Z</time></trkpt><trkpt lat="32.3032577" lon="-110.6194011"><ele>1284.0</ele><time>2026-04-09T23:56:09.987Z</time></trkpt><trkpt lat="32.3033127" lon="-110.619504"><ele>1284.0</ele><time>2026-04-09T23:56:11.988Z</time></trkpt><trkpt lat="32.3033682" lon="-110.6195987"><ele>1284.0</ele><time>2026-04-09T23:56:13.986Z</time></trkpt><trkpt lat="32.3034586" lon="-110.6196378"><ele>1284.0</ele><time>2026-04-09T23:56:15.987Z</time></trkpt><trkpt lat="32.3035803" lon="-110.6196371"><ele>1284.0</ele><time>2026-04-09T23:56:17.988Z</time></trkpt><trkpt lat="32.303645" lon="-110.6196432"><ele>1284.0</ele><time>2026-04-09T23:56:18.988Z</time></trkpt><trkpt lat="32.303765" lon="-110.6196446"><ele>1284.0</ele><time>2026-04-09T23:56:20.987Z</time></trkpt><trkpt lat="32.3038805" lon="-110.6196483"><ele>1284.0</ele><time>2026-04-09T23:56:22.988Z</time></trkpt><trkpt lat="32.3039879" lon="-110.6196857"><ele>1284.0</ele><time>2026-04-09T23:56:24.988Z</time></trkpt><trkpt lat="32.3040844" lon="-110.61974"><ele>1284.0</ele><time>2026-04-09T23:56:26.988Z</time></trkpt><trkpt lat="32.3041949" lon="-110.6197704"><ele>1284.0</ele><time>2026-04-09T23:56:28.988Z</time></trkpt><trkpt lat="32.3042989" lon="-110.6197479"><ele>1284.6666666666667</ele><time>2026-04-09T23:56:30.988Z</time></trkpt><trkpt lat="32.3043994" lon="-110.6197552"><ele>1285.3333333333333</ele><time>2026-04-09T23:56:32.988Z</time></trkpt><trkpt lat="32.3044843" lon="-110.6197654"><ele>1286.0</ele><time>2026-04-09T23:56:34.988Z</time></trkpt><trkpt lat="32.3045544" lon="-110.6197477"><ele>1286.6666666666665</ele><time>2026-04-09T23:56:36.987Z</time></trkpt><trkpt lat="32.3046157" lon="-110.6196778"><ele>1287.3333333333333</ele><time>2026-04-09T23:56:39.988Z</time></trkpt><trkpt lat="32.3046445" lon="-110.6195637"><ele>1288.0</ele><time>2026-04-09T23:56:41.987Z</time></trkpt><trkpt lat="32.3046436" lon="-110.6194363"><ele>1288.0</ele><time>2026-04-09T23:56:43.988Z</time></trkpt><trkpt lat="32.3046486" lon="-110.6193559"><ele>1288.0</ele><time>2026-04-09T23:56:44.988Z</time></trkpt><trkpt lat="32.3046561" lon="-110.6192722"><ele>1288.0</ele><time>2026-04-09T23:56:45.988Z</time></trkpt><trkpt lat="32.3046713" lon="-110.6191971"><ele>1288.0</ele><time>2026-04-09T23:56:46.988Z</time></trkpt><trkpt lat="32.3047103" lon="-110.6190727"><ele>1288.0</ele><time>2026-04-09T23:56:48.988Z</time></trkpt><trkpt lat="32.3047874" lon="-110.6189571"><ele>1288.0</ele><time>2026-04-09T23:56:50.988Z</time></trkpt><trkpt lat="32.3048597" lon="-110.6189349"><ele>1288.1666666666665</ele><time>2026-04-09T23:56:51.988Z</time></trkpt><trkpt lat="32.3049315" lon="-110.6189218"><ele>1288.3333333333333</ele><time>2026-04-09T23:56:52.988Z</time></trkpt><trkpt lat="32.3050177" lon="-110.6189329"><ele>1288.5</ele><time>2026-04-09T23:56:53.988Z</time></trkpt><trkpt lat="32.3051015" lon="-110.6189452"><ele>1288.6666666666667</ele><time>2026-04-09T23:56:54.988Z</time></trkpt><trkpt lat="32.3051752" lon="-110.6189562"><ele>1288.8333333333335</ele><time>2026-04-09T23:56:55.987Z</time></trkpt><trkpt lat="32.3052388" lon="-110.6189588"><ele>1289.0</ele><time>2026-04-09T23:56:56.988Z</time></trkpt><trkpt lat="32.3053513" lon="-110.6189497"><ele>1289.0</ele><time>2026-04-09T23:56:58.988Z</time></trkpt><trkpt lat="32.3054473" lon="-110.6189654"><ele>1289.0</ele><time>2026-04-09T23:57:00.988Z</time></trkpt><trkpt lat="32.3055269" lon="-110.6190071"><ele>1289.0</ele><time>2026-04-09T23:57:02.988Z</time></trkpt><trkpt lat="32.3055985" lon="-110.6190453"><ele>1289.0</ele><time>2026-04-09T23:57:04.987Z</time></trkpt><trkpt lat="32.3056664" lon="-110.6190336"><ele>1289.0</ele><time>2026-04-09T23:57:06.987Z</time></trkpt><trkpt lat="32.30574" lon="-110.6189564"><ele>1289.0</ele><time>2026-04-09T23:57:08.988Z</time></trkpt><trkpt lat="32.3057963" lon="-110.6189028"><ele>1289.4</ele><time>2026-04-09T23:57:09.987Z</time></trkpt><trkpt lat="32.3058612" lon="-110.6188477"><ele>1289.8000000000002</ele><time>2026-04-09T23:57:10.988Z</time></trkpt><trkpt lat="32.3059208" lon="-110.6187917"><ele>1290.1999999999998</ele><time>2026-04-09T23:57:11.987Z</time></trkpt><trkpt lat="32.3059698" lon="-110.6187403"><ele>1290.6</ele><time>2026-04-09T23:57:12.988Z</time></trkpt><trkpt lat="32.306067" lon="-110.6186663"><ele>1291.0</ele><time>2026-04-09T23:57:14.987Z</time></trkpt><trkpt lat="32.3061801" lon="-110.6186044"><ele>1291.6666666666665</ele><time>2026-04-09T23:57:16.988Z</time></trkpt><trkpt lat="32.3062615" lon="-110.6185926"><ele>1292.3333333333333</ele><time>2026-04-09T23:57:17.988Z</time></trkpt><trkpt lat="32.3063494" lon="-110.6185773"><ele>1293.0</ele><time>2026-04-09T23:57:18.988Z</time></trkpt><trkpt lat="32.3064381" lon="-110.6185595"><ele>1293.6666666666667</ele><time>2026-04-09T23:57:19.988Z</time></trkpt><trkpt lat="32.3065168" lon="-110.6185384"><ele>1294.3333333333335</ele><time>2026-04-09T23:57:20.988Z</time></trkpt><trkpt lat="32.3065966" lon="-110.6185135"><ele>1295.0</ele><time>2026-04-09T23:57:21.987Z</time></trkpt><trkpt lat="32.3066752" lon="-110.6184865"><ele>1295.142857142857</ele><time>2026-04-09T23:57:22.989Z</time></trkpt><trkpt lat="32.30675" lon="-110.6184486"><ele>1295.2857142857142</ele><time>2026-04-09T23:57:23.989Z</time></trkpt><trkpt lat="32.306822" lon="-110.6184043"><ele>1295.4285714285716</ele><time>2026-04-09T23:57:24.988Z</time></trkpt><trkpt lat="32.3068861" lon="-110.6183702"><ele>1295.5714285714284</ele><time>2026-04-09T23:57:25.987Z</time></trkpt><trkpt lat="32.3069512" lon="-110.6183546"><ele>1295.7142857142858</ele><time>2026-04-09T23:57:26.987Z</time></trkpt><trkpt lat="32.3070193" lon="-110.6183594"><ele>1295.857142857143</ele><time>2026-04-09T23:57:27.988Z</time></trkpt><trkpt lat="32.3070864" lon="-110.6183767"><ele>1296.0</ele><time>2026-04-09T23:57:28.988Z</time></trkpt><trkpt lat="32.3071543" lon="-110.6184314"><ele>1296.0</ele><time>2026-04-09T23:57:29.987Z</time></trkpt><trkpt lat="32.3072223" lon="-110.618495"><ele>1296.0</ele><time>2026-04-09T23:57:30.988Z</time></trkpt><trkpt lat="32.3072762" lon="-110.6185524"><ele>1296.0</ele><time>2026-04-09T23:57:31.988Z</time></trkpt><trkpt lat="32.307357" lon="-110.6186485"><ele>1296.0</ele><time>2026-04-09T23:57:33.988Z</time></trkpt><trkpt lat="32.307437" lon="-110.6187189"><ele>1296.0</ele><time>2026-04-09T23:57:35.988Z</time></trkpt><trkpt lat="32.3075011" lon="-110.6188231"><ele>1296.6</ele><time>2026-04-09T23:57:37.988Z</time></trkpt><trkpt lat="32.3075311" lon="-110.6188958"><ele>1297.1999999999998</ele><time>2026-04-09T23:57:38.988Z</time></trkpt><trkpt lat="32.307591" lon="-110.6190045"><ele>1297.8000000000002</ele><time>2026-04-09T23:57:40.988Z</time></trkpt><trkpt lat="32.3076659" lon="-110.619062"><ele>1298.4</ele><time>2026-04-09T23:57:42.987Z</time></trkpt><trkpt lat="32.3077902" lon="-110.6190561"><ele>1299.0</ele><time>2026-04-09T23:57:44.988Z</time></trkpt><trkpt lat="32.3078648" lon="-110.6190464"><ele>1299.0</ele><time>2026-04-09T23:57:45.988Z</time></trkpt><trkpt lat="32.3079465" lon="-110.6190308"><ele>1299.0</ele><time>2026-04-09T23:57:46.988Z</time></trkpt><trkpt lat="32.3080281" lon="-110.6190138"><ele>1299.0</ele><time>2026-04-09T23:57:47.989Z</time></trkpt><trkpt lat="32.3081058" lon="-110.6189952"><ele>1299.0</ele><time>2026-04-09T23:57:48.987Z</time></trkpt><trkpt lat="32.3081786" lon="-110.6189697"><ele>1299.0</ele><time>2026-04-09T23:57:49.989Z</time></trkpt><trkpt lat="32.3082568" lon="-110.6189385"><ele>1299.0</ele><time>2026-04-09T23:57:50.989Z</time></trkpt><trkpt lat="32.3083389" lon="-110.6189012"><ele>1298.6666666666667</ele><time>2026-04-09T23:57:51.989Z</time></trkpt><trkpt lat="32.308426" lon="-110.6188577"><ele>1298.3333333333333</ele><time>2026-04-09T23:57:52.988Z</time></trkpt><trkpt lat="32.3085115" lon="-110.6188139"><ele>1298.0</ele><time>2026-04-09T23:57:53.989Z</time></trkpt><trkpt lat="32.3085954" lon="-110.6187717"><ele>1297.6666666666665</ele><time>2026-04-09T23:57:54.989Z</time></trkpt><trkpt lat="32.3086724" lon="-110.6187326"><ele>1297.3333333333333</ele><time>2026-04-09T23:57:55.987Z</time></trkpt><trkpt lat="32.3087464" lon="-110.6186943"><ele>1297.0</ele><time>2026-04-09T23:57:56.989Z</time></trkpt><trkpt lat="32.3088147" lon="-110.6186578"><ele>1297.3333333333333</ele><time>2026-04-09T23:57:57.989Z</time></trkpt><trkpt lat="32.3088786" lon="-110.6186279"><ele>1297.6666666666665</ele><time>2026-04-09T23:57:58.989Z</time></trkpt><trkpt lat="32.3089455" lon="-110.6186053"><ele>1298.0</ele><time>2026-04-09T23:57:59.989Z</time></trkpt><trkpt lat="32.3090154" lon="-110.6185778"><ele>1298.3333333333333</ele><time>2026-04-09T23:58:00.987Z</time></trkpt><trkpt lat="32.3090823" lon="-110.6185455"><ele>1298.6666666666667</ele><time>2026-04-09T23:58:01.989Z</time></trkpt><trkpt lat="32.3091742" lon="-110.6184509"><ele>1299.0</ele><time>2026-04-09T23:58:03.989Z</time></trkpt><trkpt lat="32.3092535" lon="-110.6183477"><ele>1299.5</ele><time>2026-04-09T23:58:05.988Z</time></trkpt><trkpt lat="32.3092741" lon="-110.6182699"><ele>1300.0</ele><time>2026-04-09T23:58:07.988Z</time></trkpt><trkpt lat="32.3092802" lon="-110.6181913"><ele>1300.5</ele><time>2026-04-09T23:58:09.987Z</time></trkpt><trkpt lat="32.3093782" lon="-110.618188"><ele>1301.0</ele><time>2026-04-09T23:58:12.989Z</time></trkpt><trkpt lat="32.309467" lon="-110.6181845"><ele>1301.5</ele><time>2026-04-09T23:58:14.989Z</time></trkpt><trkpt lat="32.3095233" lon="-110.6181128"><ele>1302.0</ele><time>2026-04-09T23:58:16.989Z</time></trkpt><trkpt lat="32.3095705" lon="-110.6180017"><ele>1302.0</ele><time>2026-04-09T23:58:18.988Z</time></trkpt><trkpt lat="32.3096319" lon="-110.6178978"><ele>1302.0</ele><time>2026-04-09T23:58:20.989Z</time></trkpt><trkpt lat="32.3096728" lon="-110.6178048"><ele>1302.0</ele><time>2026-04-09T23:58:22.989Z</time></trkpt><trkpt lat="32.3097111" lon="-110.6177327"><ele>1302.0</ele><time>2026-04-09T23:58:24.988Z</time></trkpt><trkpt lat="32.3097701" lon="-110.6176592"><ele>1302.0</ele><time>2026-04-09T23:58:26.989Z</time></trkpt><trkpt lat="32.3098543" lon="-110.6175995"><ele>1302.0</ele><time>2026-04-09T23:58:28.989Z</time></trkpt><trkpt lat="32.3099038" lon="-110.6175109"><ele>1302.0</ele><time>2026-04-09T23:58:30.989Z</time></trkpt><trkpt lat="32.3099493" lon="-110.6174113"><ele>1302.0</ele><time>2026-04-09T23:58:32.989Z</time></trkpt><trkpt lat="32.3100194" lon="-110.6173502"><ele>1302.0</ele><time>2026-04-09T23:58:34.989Z</time></trkpt><trkpt lat="32.3101265" lon="-110.6172972"><ele>1302.0</ele><time>2026-04-09T23:58:36.988Z</time></trkpt><trkpt lat="32.3102354" lon="-110.6172294"><ele>1302.0</ele><time>2026-04-09T23:58:38.989Z</time></trkpt><trkpt lat="32.3103161" lon="-110.6171443"><ele>1302.0</ele><time>2026-04-09T23:58:40.989Z</time></trkpt><trkpt lat="32.3103691" lon="-110.6170395"><ele>1302.0</ele><time>2026-04-09T23:58:42.989Z</time></trkpt><trkpt lat="32.3103877" lon="-110.6169326"><ele>1302.0</ele><time>2026-04-09T23:58:44.989Z</time></trkpt><trkpt lat="32.3103381" lon="-110.6168134"><ele>1302.0</ele><time>2026-04-09T23:58:46.989Z</time></trkpt><trkpt lat="32.3103063" lon="-110.6166912"><ele>1301.6</ele><time>2026-04-09T23:58:48.989Z</time></trkpt><trkpt lat="32.3103047" lon="-110.6165821"><ele>1301.1999999999998</ele><time>2026-04-09T23:58:50.989Z</time></trkpt><trkpt lat="32.3102757" lon="-110.6164897"><ele>1300.8</ele><time>2026-04-09T23:58:52.989Z</time></trkpt><trkpt lat="32.3101995" lon="-110.6164323"><ele>1300.4</ele><time>2026-04-09T23:58:54.989Z</time></trkpt><trkpt lat="32.3101122" lon="-110.6163454"><ele>1300.0</ele><time>2026-04-09T23:58:56.989Z</time></trkpt><trkpt lat="32.31004" lon="-110.6162435"><ele>1300.8</ele><time>2026-04-09T23:58:58.989Z</time></trkpt><trkpt lat="32.3099942" lon="-110.6161308"><ele>1301.6</ele><time>2026-04-09T23:59:00.989Z</time></trkpt><trkpt lat="32.3099544" lon="-110.6160221"><ele>1302.4</ele><time>2026-04-09T23:59:02.989Z</time></trkpt><trkpt lat="32.3098925" lon="-110.615966"><ele>1303.2</ele><time>2026-04-09T23:59:04.988Z</time></trkpt><trkpt lat="32.309797" lon="-110.615949"><ele>1304.0</ele><time>2026-04-09T23:59:06.989Z</time></trkpt><trkpt lat="32.3097216" lon="-110.6158966"><ele>1304.0</ele><time>2026-04-09T23:59:08.988Z</time></trkpt><trkpt lat="32.3096436" lon="-110.6157945"><ele>1304.0</ele><time>2026-04-09T23:59:10.989Z</time></trkpt><trkpt lat="32.3095786" lon="-110.6156963"><ele>1304.0</ele><time>2026-04-09T23:59:12.989Z</time></trkpt><trkpt lat="32.3095221" lon="-110.6155974"><ele>1304.0</ele><time>2026-04-09T23:59:14.989Z</time></trkpt><trkpt lat="32.3094668" lon="-110.615504"><ele>1304.0</ele><time>2026-04-09T23:59:16.989Z</time></trkpt><trkpt lat="32.309405" lon="-110.615449"><ele>1304.0</ele><time>2026-04-09T23:59:18.989Z</time></trkpt><trkpt lat="32.3093254" lon="-110.6154404"><ele>1304.0</ele><time>2026-04-09T23:59:20.989Z</time></trkpt><trkpt lat="32.309236" lon="-110.6154568"><ele>1304.0</ele><time>2026-04-09T23:59:22.989Z</time></trkpt><trkpt lat="32.3091525" lon="-110.6153835"><ele>1304.0</ele><time>2026-04-09T23:59:24.989Z</time></trkpt><trkpt lat="32.3090583" lon="-110.6152848"><ele>1304.0</ele><time>2026-04-09T23:59:26.989Z</time></trkpt><trkpt lat="32.3090054" lon="-110.6152363"><ele>1305.0</ele><time>2026-04-09T23:59:27.988Z</time></trkpt><trkpt lat="32.3089143" lon="-110.6151457"><ele>1306.0</ele><time>2026-04-09T23:59:29.988Z</time></trkpt><trkpt lat="32.3088305" lon="-110.6150511"><ele>1307.0</ele><time>2026-04-09T23:59:31.989Z</time></trkpt><trkpt lat="32.3087489" lon="-110.6149724"><ele>1308.0</ele><time>2026-04-09T23:59:33.989Z</time></trkpt><trkpt lat="32.3086837" lon="-110.6148761"><ele>1309.0</ele><time>2026-04-09T23:59:35.989Z</time></trkpt><trkpt lat="32.3086209" lon="-110.6147907"><ele>1309.0</ele><time>2026-04-09T23:59:37.989Z</time></trkpt><trkpt lat="32.3085648" lon="-110.6147034"><ele>1309.0</ele><time>2026-04-09T23:59:39.988Z</time></trkpt><trkpt lat="32.3085053" lon="-110.6145989"><ele>1309.0</ele><time>2026-04-09T23:59:41.989Z</time></trkpt><trkpt lat="32.3084713" lon="-110.6144872"><ele>1309.0</ele><time>2026-04-09T23:59:43.989Z</time></trkpt><trkpt lat="32.3084287" lon="-110.6143864"><ele>1309.0</ele><time>2026-04-09T23:59:45.989Z</time></trkpt><trkpt lat="32.3084218" lon="-110.614301"><ele>1310.0</ele><time>2026-04-09T23:59:47.989Z</time></trkpt><trkpt lat="32.3084869" lon="-110.6142302"><ele>1310.0</ele><time>2026-04-09T23:59:49.989Z</time></trkpt><trkpt lat="32.3085924" lon="-110.6141769"><ele>1310.0</ele><time>2026-04-09T23:59:51.99Z</time></trkpt><trkpt lat="32.3086497" lon="-110.6141453"><ele>1310.0</ele><time>2026-04-09T23:59:52.989Z</time></trkpt></trkseg><trkseg><trkpt lat="32.3063063" lon="-110.6095872"><ele>1306.0</ele><time>2026-04-10T00:06:15.1Z</time></trkpt><trkpt lat="32.3062583" lon="-110.6095189"><ele>1306.0</ele><time>2026-04-10T00:06:17.143Z</time></trkpt><trkpt lat="32.3062625" lon="-110.6094359"><ele>1306.0</ele><time>2026-04-10T00:06:19.078Z</time></trkpt><trkpt lat="32.3063272" lon="-110.6093166"><ele>1306.0</ele><time>2026-04-10T00:06:20.993Z</time></trkpt><trkpt lat="32.3063702" lon="-110.6092402"><ele>1306.0</ele><time>2026-04-10T00:06:21.993Z</time></trkpt><trkpt lat="32.3064159" lon="-110.6091559"><ele>1306.0</ele><time>2026-04-10T00:06:22.992Z</time></trkpt><trkpt lat="32.3064652" lon="-110.6090636"><ele>1306.4</ele><time>2026-04-10T00:06:23.993Z</time></trkpt><trkpt lat="32.3065168" lon="-110.6089663"><ele>1306.8</ele><time>2026-04-10T00:06:24.993Z</time></trkpt><trkpt lat="32.30657" lon="-110.6088661"><ele>1307.2</ele><time>2026-04-10T00:06:25.993Z</time></trkpt><trkpt lat="32.3066201" lon="-110.6087697"><ele>1307.6000000000001</ele><time>2026-04-10T00:06:26.993Z</time></trkpt><trkpt lat="32.3066673" lon="-110.6086761"><ele>1308.0</ele><time>2026-04-10T00:06:27.993Z</time></trkpt><trkpt lat="32.3067148" lon="-110.6085814"><ele>1308.5</ele><time>2026-04-10T00:06:28.993Z</time></trkpt><trkpt lat="32.3067601" lon="-110.6084904"><ele>1309.0</ele><time>2026-04-10T00:06:29.993Z</time></trkpt><trkpt lat="32.3068055" lon="-110.6084027"><ele>1309.5</ele><time>2026-04-10T00:06:30.993Z</time></trkpt><trkpt lat="32.3068455" lon="-110.6083149"><ele>1310.0</ele><time>2026-04-10T00:06:31.993Z</time></trkpt><trkpt lat="32.3068783" lon="-110.6082186"><ele>1310.5</ele><time>2026-04-10T00:06:32.993Z</time></trkpt><trkpt lat="32.3068995" lon="-110.6081127"><ele>1311.0</ele><time>2026-04-10T00:06:33.993Z</time></trkpt><trkpt lat="32.3069066" lon="-110.6080009"><ele>1311.0</ele><time>2026-04-10T00:06:34.993Z</time></trkpt><trkpt lat="32.306904" lon="-110.6078823"><ele>1311.0</ele><time>2026-04-10T00:06:35.993Z</time></trkpt><trkpt lat="32.3068985" lon="-110.6077558"><ele>1311.0</ele><time>2026-04-10T00:06:36.993Z</time></trkpt><trkpt lat="32.306893" lon="-110.6076214"><ele>1311.0</ele><time>2026-04-10T00:06:37.993Z</time></trkpt><trkpt lat="32.3068887" lon="-110.607484"><ele>1311.0</ele><time>2026-04-10T00:06:38.993Z</time></trkpt><trkpt lat="32.3068855" lon="-110.6073481"><ele>1310.75</ele><time>2026-04-10T00:06:39.993Z</time></trkpt><trkpt lat="32.3068836" lon="-110.6072136"><ele>1310.5</ele><time>2026-04-10T00:06:40.993Z</time></trkpt><trkpt lat="32.3068821" lon="-110.6070793"><ele>1310.25</ele><time>2026-04-10T00:06:41.993Z</time></trkpt><trkpt lat="32.3068794" lon="-110.6069437"><ele>1310.0</ele><time>2026-04-10T00:06:42.993Z</time></trkpt><trkpt lat="32.3068767" lon="-110.6068081"><ele>1309.5</ele><time>2026-04-10T00:06:43.993Z</time></trkpt><trkpt lat="32.3068748" lon="-110.6066713"><ele>1309.0</ele><time>2026-04-10T00:06:44.993Z</time></trkpt><trkpt lat="32.3068748" lon="-110.6065333"><ele>1308.5</ele><time>2026-04-10T00:06:45.993Z</time></trkpt><trkpt lat="32.3068773" lon="-110.6063999"><ele>1308.0</ele><time>2026-04-10T00:06:46.992Z</time></trkpt><trkpt lat="32.3068819" lon="-110.6062719"><ele>1308.4</ele><time>2026-04-10T00:06:47.993Z</time></trkpt><trkpt lat="32.3068866" lon="-110.6061492"><ele>1308.8000000000002</ele><time>2026-04-10T00:06:48.993Z</time></trkpt><trkpt lat="32.3068929" lon="-110.6060266"><ele>1309.2</ele><time>2026-04-10T00:06:49.993Z</time></trkpt><trkpt lat="32.3069007" lon="-110.6059033"><ele>1309.6</ele><time>2026-04-10T00:06:50.993Z</time></trkpt><trkpt lat="32.3069091" lon="-110.6057845"><ele>1310.0</ele><time>2026-04-10T00:06:51.993Z</time></trkpt><trkpt lat="32.3069179" lon="-110.6056817"><ele>1310.0</ele><time>2026-04-10T00:06:52.993Z</time></trkpt><trkpt lat="32.3069288" lon="-110.6056022"><ele>1310.0</ele><time>2026-04-10T00:06:53.993Z</time></trkpt><trkpt lat="32.3069569" lon="-110.6054946"><ele>1310.0</ele><time>2026-04-10T00:06:55.993Z</time></trkpt><trkpt lat="32.3069966" lon="-110.6054199"><ele>1310.0</ele><time>2026-04-10T00:06:57.993Z</time></trkpt><trkpt lat="32.3070656" lon="-110.6053853"><ele>1310.0</ele><time>2026-04-10T00:06:59.992Z</time></trkpt><trkpt lat="32.30716" lon="-110.6053938"><ele>1310.0</ele><time>2026-04-10T00:07:01.993Z</time></trkpt><trkpt lat="32.307262" lon="-110.605392"><ele>1309.6</ele><time>2026-04-10T00:07:03.993Z</time></trkpt><trkpt lat="32.3073542" lon="-110.6053368"><ele>1309.2</ele><time>2026-04-10T00:07:05.993Z</time></trkpt><trkpt lat="32.3074367" lon="-110.6052308"><ele>1308.8000000000002</ele><time>2026-04-10T00:07:07.993Z</time></trkpt><trkpt lat="32.3075188" lon="-110.6051017"><ele>1308.4</ele><time>2026-04-10T00:07:09.993Z</time></trkpt><trkpt lat="32.3075668" lon="-110.6050275"><ele>1308.0</ele><time>2026-04-10T00:07:10.993Z</time></trkpt><trkpt lat="32.3076189" lon="-110.6049518"><ele>1307.1666666666667</ele><time>2026-04-10T00:07:11.993Z</time></trkpt><trkpt lat="32.3076736" lon="-110.6048744"><ele>1306.3333333333333</ele><time>2026-04-10T00:07:12.993Z</time></trkpt><trkpt lat="32.307725" lon="-110.604799"><ele>1305.5</ele><time>2026-04-10T00:07:13.993Z</time></trkpt><trkpt lat="32.3077755" lon="-110.6047201"><ele>1304.6666666666665</ele><time>2026-04-10T00:07:14.993Z</time></trkpt><trkpt lat="32.3078307" lon="-110.6046428"><ele>1303.8333333333333</ele><time>2026-04-10T00:07:15.993Z</time></trkpt><trkpt lat="32.3078942" lon="-110.6045781"><ele>1303.0</ele><time>2026-04-10T00:07:16.993Z</time></trkpt><trkpt lat="32.3079612" lon="-110.6045316"><ele>1303.0</ele><time>2026-04-10T00:07:17.992Z</time></trkpt><trkpt lat="32.3080355" lon="-110.6045006"><ele>1303.0</ele><time>2026-04-10T00:07:18.993Z</time></trkpt><trkpt lat="32.3081187" lon="-110.6044799"><ele>1303.0</ele><time>2026-04-10T00:07:19.993Z</time></trkpt><trkpt lat="32.3081991" lon="-110.60446"><ele>1303.0</ele><time>2026-04-10T00:07:20.993Z</time></trkpt><trkpt lat="32.308275" lon="-110.6044315"><ele>1303.0</ele><time>2026-04-10T00:07:21.993Z</time></trkpt><trkpt lat="32.3083474" lon="-110.6043977"><ele>1303.0</ele><time>2026-04-10T00:07:22.992Z</time></trkpt><trkpt lat="32.3084224" lon="-110.6043673"><ele>1302.142857142857</ele><time>2026-04-10T00:07:23.993Z</time></trkpt><trkpt lat="32.3084965" lon="-110.6043421"><ele>1301.2857142857142</ele><time>2026-04-10T00:07:24.992Z</time></trkpt><trkpt lat="32.3085662" lon="-110.604317"><ele>1300.4285714285716</ele><time>2026-04-10T00:07:25.993Z</time></trkpt><trkpt lat="32.3086343" lon="-110.6042955"><ele>1299.5714285714284</ele><time>2026-04-10T00:07:26.993Z</time></trkpt><trkpt lat="32.3087025" lon="-110.6042768"><ele>1298.7142857142856</ele><time>2026-04-10T00:07:27.993Z</time></trkpt><trkpt lat="32.3087644" lon="-110.6042548"><ele>1297.857142857143</ele><time>2026-04-10T00:07:28.993Z</time></trkpt><trkpt lat="32.3088275" lon="-110.604225"><ele>1297.0</ele><time>2026-04-10T00:07:29.992Z</time></trkpt><trkpt lat="32.3088897" lon="-110.6041877"><ele>1296.6666666666665</ele><time>2026-04-10T00:07:30.993Z</time></trkpt><trkpt lat="32.3089489" lon="-110.6041352"><ele>1296.3333333333333</ele><time>2026-04-10T00:07:31.993Z</time></trkpt><trkpt lat="32.3090004" lon="-110.6040704"><ele>1296.0</ele><time>2026-04-10T00:07:32.993Z</time></trkpt><trkpt lat="32.3090484" lon="-110.603993"><ele>1295.6666666666667</ele><time>2026-04-10T00:07:33.993Z</time></trkpt><trkpt lat="32.3090973" lon="-110.6039093"><ele>1295.3333333333335</ele><time>2026-04-10T00:07:34.992Z</time></trkpt><trkpt lat="32.309151" lon="-110.6038244"><ele>1295.0</ele><time>2026-04-10T00:07:35.992Z</time></trkpt><trkpt lat="32.3092041" lon="-110.6037426"><ele>1295.0</ele><time>2026-04-10T00:07:36.993Z</time></trkpt><trkpt lat="32.3092542" lon="-110.603664"><ele>1295.0</ele><time>2026-04-10T00:07:37.993Z</time></trkpt><trkpt lat="32.3093059" lon="-110.6035923"><ele>1295.0</ele><time>2026-04-10T00:07:38.993Z</time></trkpt><trkpt lat="32.3093586" lon="-110.6035354"><ele>1295.0</ele><time>2026-04-10T00:07:39.993Z</time></trkpt><trkpt lat="32.3094148" lon="-110.6034976"><ele>1295.0</ele><time>2026-04-10T00:07:40.992Z</time></trkpt><trkpt lat="32.3095376" lon="-110.6034671"><ele>1295.0</ele><time>2026-04-10T00:07:42.993Z</time></trkpt><trkpt lat="32.3096036" lon="-110.6034832"><ele>1294.8333333333335</ele><time>2026-04-10T00:07:43.993Z</time></trkpt><trkpt lat="32.3096673" lon="-110.603523"><ele>1294.6666666666667</ele><time>2026-04-10T00:07:44.993Z</time></trkpt><trkpt lat="32.3097212" lon="-110.6035832"><ele>1294.5</ele><time>2026-04-10T00:07:45.993Z</time></trkpt><trkpt lat="32.3097614" lon="-110.6036555"><ele>1294.3333333333333</ele><time>2026-04-10T00:07:46.993Z</time></trkpt><trkpt lat="32.3097884" lon="-110.6037398"><ele>1294.1666666666665</ele><time>2026-04-10T00:07:47.993Z</time></trkpt><trkpt lat="32.3098113" lon="-110.6038293"><ele>1294.0</ele><time>2026-04-10T00:07:48.993Z</time></trkpt><trkpt lat="32.309843" lon="-110.6039134"><ele>1294.6666666666665</ele><time>2026-04-10T00:07:49.993Z</time></trkpt><trkpt lat="32.3098856" lon="-110.6039885"><ele>1295.3333333333333</ele><time>2026-04-10T00:07:50.992Z</time></trkpt><trkpt lat="32.3099345" lon="-110.6040582"><ele>1296.0</ele><time>2026-04-10T00:07:51.993Z</time></trkpt><trkpt lat="32.3099871" lon="-110.6041254"><ele>1296.6666666666667</ele><time>2026-04-10T00:07:52.993Z</time></trkpt><trkpt lat="32.3100418" lon="-110.6042016"><ele>1297.3333333333335</ele><time>2026-04-10T00:07:53.993Z</time></trkpt><trkpt lat="32.3100953" lon="-110.6042818"><ele>1298.0</ele><time>2026-04-10T00:07:54.992Z</time></trkpt><trkpt lat="32.3101472" lon="-110.6043582"><ele>1298.0</ele><time>2026-04-10T00:07:55.993Z</time></trkpt><trkpt lat="32.3101983" lon="-110.604433"><ele>1298.0</ele><time>2026-04-10T00:07:56.992Z</time></trkpt><trkpt lat="32.3102507" lon="-110.604508"><ele>1298.0</ele><time>2026-04-10T00:07:57.993Z</time></trkpt><trkpt lat="32.3103035" lon="-110.6045804"><ele>1298.0</ele><time>2026-04-10T00:07:58.993Z</time></trkpt><trkpt lat="32.3103564" lon="-110.6046517"><ele>1298.0</ele><time>2026-04-10T00:07:59.993Z</time></trkpt><trkpt lat="32.3104083" lon="-110.6047156"><ele>1298.0</ele><time>2026-04-10T00:08:00.993Z</time></trkpt><trkpt lat="32.3104608" lon="-110.6047703"><ele>1298.6666666666667</ele><time>2026-04-10T00:08:01.993Z</time></trkpt><trkpt lat="32.3105728" lon="-110.6048398"><ele>1299.3333333333335</ele><time>2026-04-10T00:08:03.993Z</time></trkpt><trkpt lat="32.3106445" lon="-110.6048517"><ele>1300.0</ele><time>2026-04-10T00:08:04.993Z</time></trkpt><trkpt lat="32.3107269" lon="-110.6048504"><ele>1300.6666666666667</ele><time>2026-04-10T00:08:05.993Z</time></trkpt><trkpt lat="32.3108087" lon="-110.6048405"><ele>1301.3333333333333</ele><time>2026-04-10T00:08:06.993Z</time></trkpt><trkpt lat="32.3108904" lon="-110.604813"><ele>1302.0</ele><time>2026-04-10T00:08:07.993Z</time></trkpt><trkpt lat="32.3109782" lon="-110.6047861"><ele>1302.0</ele><time>2026-04-10T00:08:08.993Z</time></trkpt><trkpt lat="32.3110613" lon="-110.6047702"><ele>1302.0</ele><time>2026-04-10T00:08:09.993Z</time></trkpt><trkpt lat="32.3111373" lon="-110.6047652"><ele>1302.0</ele><time>2026-04-10T00:08:10.993Z</time></trkpt><trkpt lat="32.31121" lon="-110.604773"><ele>1302.0</ele><time>2026-04-10T00:08:11.993Z</time></trkpt><trkpt lat="32.3112747" lon="-110.604794"><ele>1302.0</ele><time>2026-04-10T00:08:12.993Z</time></trkpt><trkpt lat="32.3113792" lon="-110.6048716"><ele>1302.0</ele><time>2026-04-10T00:08:14.993Z</time></trkpt><trkpt lat="32.3114608" lon="-110.6049823"><ele>1301.8</ele><time>2026-04-10T00:08:16.993Z</time></trkpt><trkpt lat="32.311527" lon="-110.6050921"><ele>1301.6</ele><time>2026-04-10T00:08:18.993Z</time></trkpt><trkpt lat="32.3115974" lon="-110.6051521"><ele>1301.3999999999999</ele><time>2026-04-10T00:08:20.992Z</time></trkpt><trkpt lat="32.311669" lon="-110.6051386"><ele>1301.1999999999998</ele><time>2026-04-10T00:08:22.993Z</time></trkpt><trkpt lat="32.3117523" lon="-110.6050386"><ele>1301.0</ele><time>2026-04-10T00:08:24.993Z</time></trkpt><trkpt lat="32.3118221" lon="-110.6049423"><ele>1301.0</ele><time>2026-04-10T00:08:26.994Z</time></trkpt><trkpt lat="32.3119223" lon="-110.6049233"><ele>1301.0</ele><time>2026-04-10T00:08:28.993Z</time></trkpt><trkpt lat="32.3120462" lon="-110.6049494"><ele>1301.0</ele><time>2026-04-10T00:08:30.994Z</time></trkpt><trkpt lat="32.3121767" lon="-110.6049379"><ele>1301.0</ele><time>2026-04-10T00:08:32.994Z</time></trkpt><trkpt lat="32.3122427" lon="-110.6048943"><ele>1301.0</ele><time>2026-04-10T00:08:33.994Z</time></trkpt><trkpt lat="32.3123097" lon="-110.6048441"><ele>1299.6666666666667</ele><time>2026-04-10T00:08:34.994Z</time></trkpt><trkpt lat="32.3123749" lon="-110.6047836"><ele>1298.3333333333335</ele><time>2026-04-10T00:08:35.994Z</time></trkpt><trkpt lat="32.3124313" lon="-110.6047282"><ele>1297.0</ele><time>2026-04-10T00:08:36.993Z</time></trkpt><trkpt lat="32.3124867" lon="-110.604689"><ele>1295.6666666666667</ele><time>2026-04-10T00:08:37.994Z</time></trkpt><trkpt lat="32.3125459" lon="-110.6046558"><ele>1294.3333333333333</ele><time>2026-04-10T00:08:38.994Z</time></trkpt><trkpt lat="32.3126507" lon="-110.6045745"><ele>1293.0</ele><time>2026-04-10T00:08:40.994Z</time></trkpt><trkpt lat="32.3127435" lon="-110.6044885"><ele>1293.0</ele><time>2026-04-10T00:08:42.994Z</time></trkpt><trkpt lat="32.3128214" lon="-110.6044086"><ele>1293.0</ele><time>2026-04-10T00:08:44.993Z</time></trkpt><trkpt lat="32.3128789" lon="-110.6043267"><ele>1293.0</ele><time>2026-04-10T00:08:46.994Z</time></trkpt><trkpt lat="32.3129115" lon="-110.6042245"><ele>1293.0</ele><time>2026-04-10T00:08:48.994Z</time></trkpt><trkpt lat="32.3129316" lon="-110.604126"><ele>1293.0</ele><time>2026-04-10T00:08:50.993Z</time></trkpt><trkpt lat="32.3129859" lon="-110.6040704"><ele>1293.0</ele><time>2026-04-10T00:08:52.994Z</time></trkpt><trkpt lat="32.3130587" lon="-110.6040855"><ele>1292.5</ele><time>2026-04-10T00:08:54.994Z</time></trkpt><trkpt lat="32.3131463" lon="-110.6041874"><ele>1292.0</ele><time>2026-04-10T00:08:56.994Z</time></trkpt><trkpt lat="32.3131934" lon="-110.6042519"><ele>1291.5</ele><time>2026-04-10T00:08:57.994Z</time></trkpt><trkpt lat="32.3132433" lon="-110.6043193"><ele>1291.0</ele><time>2026-04-10T00:08:58.994Z</time></trkpt><trkpt lat="32.3133015" lon="-110.6043905"><ele>1290.5</ele><time>2026-04-10T00:08:59.994Z</time></trkpt><trkpt lat="32.3133634" lon="-110.6044585"><ele>1290.0</ele><time>2026-04-10T00:09:00.994Z</time></trkpt><trkpt lat="32.3134208" lon="-110.6045224"><ele>1290.0</ele><time>2026-04-10T00:09:01.994Z</time></trkpt><trkpt lat="32.3134748" lon="-110.6045884"><ele>1290.0</ele><time>2026-04-10T00:09:02.994Z</time></trkpt><trkpt lat="32.313517" lon="-110.6046577"><ele>1290.0</ele><time>2026-04-10T00:09:03.994Z</time></trkpt><trkpt lat="32.3135628" lon="-110.6047238"><ele>1290.0</ele><time>2026-04-10T00:09:04.994Z</time></trkpt><trkpt lat="32.3136146" lon="-110.6047752"><ele>1290.0</ele><time>2026-04-10T00:09:05.994Z</time></trkpt><trkpt lat="32.3136691" lon="-110.6048172"><ele>1290.0</ele><time>2026-04-10T00:09:06.994Z</time></trkpt><trkpt lat="32.3137335" lon="-110.6048368"><ele>1290.0</ele><time>2026-04-10T00:09:07.994Z</time></trkpt><trkpt lat="32.3138015" lon="-110.6048436"><ele>1290.0</ele><time>2026-04-10T00:09:08.994Z</time></trkpt><trkpt lat="32.3138707" lon="-110.6048369"><ele>1290.0</ele><time>2026-04-10T00:09:09.994Z</time></trkpt><trkpt lat="32.3139374" lon="-110.6048181"><ele>1290.0</ele><time>2026-04-10T00:09:10.994Z</time></trkpt><trkpt lat="32.3140259" lon="-110.6047131"><ele>1290.0</ele><time>2026-04-10T00:09:12.994Z</time></trkpt><trkpt lat="32.3140724" lon="-110.6046442"><ele>1290.0</ele><time>2026-04-10T00:09:13.994Z</time></trkpt><trkpt lat="32.3141203" lon="-110.6045807"><ele>1290.0</ele><time>2026-04-10T00:09:14.994Z</time></trkpt><trkpt lat="32.3141739" lon="-110.6045391"><ele>1289.2</ele><time>2026-04-10T00:09:15.994Z</time></trkpt><trkpt lat="32.3142913" lon="-110.6045079"><ele>1288.4</ele><time>2026-04-10T00:09:17.994Z</time></trkpt><trkpt lat="32.3144261" lon="-110.6045313"><ele>1287.6</ele><time>2026-04-10T00:09:19.993Z</time></trkpt><trkpt lat="32.3144971" lon="-110.6045595"><ele>1286.8</ele><time>2026-04-10T00:09:20.994Z</time></trkpt><trkpt lat="32.3145629" lon="-110.6045791"><ele>1286.0</ele><time>2026-04-10T00:09:21.994Z</time></trkpt><trkpt lat="32.314626" lon="-110.6045831"><ele>1286.0</ele><time>2026-04-10T00:09:22.994Z</time></trkpt><trkpt lat="32.3146976" lon="-110.6045746"><ele>1286.0</ele><time>2026-04-10T00:09:23.994Z</time></trkpt><trkpt lat="32.3147783" lon="-110.6045559"><ele>1286.0</ele><time>2026-04-10T00:09:24.994Z</time></trkpt><trkpt lat="32.3148562" lon="-110.6045378"><ele>1286.0</ele><time>2026-04-10T00:09:25.994Z</time></trkpt><trkpt lat="32.3149342" lon="-110.6045298"><ele>1286.0</ele><time>2026-04-10T00:09:26.994Z</time></trkpt><trkpt lat="32.3150095" lon="-110.6045359"><ele>1286.0</ele><time>2026-04-10T00:09:27.994Z</time></trkpt><trkpt lat="32.315081" lon="-110.6045566"><ele>1284.7142857142856</ele><time>2026-04-10T00:09:28.994Z</time></trkpt><trkpt lat="32.3151523" lon="-110.6045818"><ele>1283.4285714285716</ele><time>2026-04-10T00:09:29.994Z</time></trkpt><trkpt lat="32.3152149" lon="-110.6046115"><ele>1282.142857142857</ele><time>2026-04-10T00:09:30.994Z</time></trkpt><trkpt lat="32.3152723" lon="-110.6046474"><ele>1280.8571428571427</ele><time>2026-04-10T00:09:31.994Z</time></trkpt><trkpt lat="32.3153276" lon="-110.6046903"><ele>1279.5714285714284</ele><time>2026-04-10T00:09:32.994Z</time></trkpt><trkpt lat="32.3153798" lon="-110.6047392"><ele>1278.2857142857142</ele><time>2026-04-10T00:09:33.994Z</time></trkpt><trkpt lat="32.3154267" lon="-110.6047973"><ele>1277.0</ele><time>2026-04-10T00:09:34.994Z</time></trkpt><trkpt lat="32.3154694" lon="-110.6048641"><ele>1277.0</ele><time>2026-04-10T00:09:35.994Z</time></trkpt><trkpt lat="32.3154803" lon="-110.6049375"><ele>1277.0</ele><time>2026-04-10T00:09:36.994Z</time></trkpt><trkpt lat="32.315478" lon="-110.6050138"><ele>1277.0</ele><time>2026-04-10T00:09:37.994Z</time></trkpt><trkpt lat="32.3154766" lon="-110.6050901"><ele>1277.0</ele><time>2026-04-10T00:09:38.994Z</time></trkpt><trkpt lat="32.3154803" lon="-110.6052309"><ele>1277.0</ele><time>2026-04-10T00:09:40.994Z</time></trkpt><trkpt lat="32.3155026" lon="-110.6053416"><ele>1277.0</ele><time>2026-04-10T00:09:42.994Z</time></trkpt><trkpt lat="32.3155774" lon="-110.6054284"><ele>1275.5</ele><time>2026-04-10T00:09:44.994Z</time></trkpt><trkpt lat="32.3156304" lon="-110.6054763"><ele>1274.0</ele><time>2026-04-10T00:09:45.994Z</time></trkpt><trkpt lat="32.315678" lon="-110.6055284"><ele>1272.5</ele><time>2026-04-10T00:09:46.994Z</time></trkpt><trkpt lat="32.3157238" lon="-110.605587"><ele>1271.0</ele><time>2026-04-10T00:09:47.994Z</time></trkpt><trkpt lat="32.3157976" lon="-110.605687"><ele>1269.5</ele><time>2026-04-10T00:09:49.994Z</time></trkpt><trkpt lat="32.3158867" lon="-110.605737"><ele>1268.0</ele><time>2026-04-10T00:09:51.994Z</time></trkpt><trkpt lat="32.3159713" lon="-110.605717"><ele>1268.0</ele><time>2026-04-10T00:09:53.994Z</time></trkpt><trkpt lat="32.3160366" lon="-110.6056172"><ele>1268.0</ele><time>2026-04-10T00:09:55.994Z</time></trkpt><trkpt lat="32.3160633" lon="-110.6055395"><ele>1268.0</ele><time>2026-04-10T00:09:56.994Z</time></trkpt><trkpt lat="32.3160863" lon="-110.605464"><ele>1268.0</ele><time>2026-04-10T00:09:57.993Z</time></trkpt><trkpt lat="32.3161313" lon="-110.6053398"><ele>1268.0</ele><time>2026-04-10T00:09:59.994Z</time></trkpt><trkpt lat="32.3161906" lon="-110.6052594"><ele>1267.75</ele><time>2026-04-10T00:10:01.994Z</time></trkpt><trkpt lat="32.3162918" lon="-110.6052512"><ele>1267.5</ele><time>2026-04-10T00:10:03.994Z</time></trkpt><trkpt lat="32.3164047" lon="-110.6053035"><ele>1267.25</ele><time>2026-04-10T00:10:05.994Z</time></trkpt><trkpt lat="32.3165092" lon="-110.6053732"><ele>1267.0</ele><time>2026-04-10T00:10:07.994Z</time></trkpt><trkpt lat="32.316601" lon="-110.6054655"><ele>1266.3333333333333</ele><time>2026-04-10T00:10:09.994Z</time></trkpt><trkpt lat="32.3166472" lon="-110.6055252"><ele>1265.6666666666665</ele><time>2026-04-10T00:10:10.994Z</time></trkpt><trkpt lat="32.3166801" lon="-110.6056033"><ele>1265.0</ele><time>2026-04-10T00:10:11.994Z</time></trkpt><trkpt lat="32.3167115" lon="-110.6056907"><ele>1264.3333333333333</ele><time>2026-04-10T00:10:12.994Z</time></trkpt><trkpt lat="32.3167339" lon="-110.6057801"><ele>1263.6666666666667</ele><time>2026-04-10T00:10:13.994Z</time></trkpt><trkpt lat="32.3167576" lon="-110.6058669"><ele>1263.0</ele><time>2026-04-10T00:10:14.994Z</time></trkpt><trkpt lat="32.3167804" lon="-110.6059537"><ele>1262.9999999999998</ele><time>2026-04-10T00:10:15.994Z</time></trkpt><trkpt lat="32.3168007" lon="-110.6060409"><ele>1263.0</ele><time>2026-04-10T00:10:16.994Z</time></trkpt><trkpt lat="32.3168269" lon="-110.6061205"><ele>1263.0</ele><time>2026-04-10T00:10:17.994Z</time></trkpt><trkpt lat="32.3168578" lon="-110.6061952"><ele>1263.0</ele><time>2026-04-10T00:10:18.994Z</time></trkpt><trkpt lat="32.3168968" lon="-110.6062578"><ele>1263.0</ele><time>2026-04-10T00:10:19.994Z</time></trkpt><trkpt lat="32.3169355" lon="-110.6063234"><ele>1262.9999999999998</ele><time>2026-04-10T00:10:20.994Z</time></trkpt><trkpt lat="32.3169749" lon="-110.6063985"><ele>1263.0</ele><time>2026-04-10T00:10:21.994Z</time></trkpt><trkpt lat="32.3170122" lon="-110.6064801"><ele>1261.8333333333333</ele><time>2026-04-10T00:10:22.994Z</time></trkpt><trkpt lat="32.3170556" lon="-110.6065653"><ele>1260.6666666666667</ele><time>2026-04-10T00:10:23.994Z</time></trkpt><trkpt lat="32.3171034" lon="-110.606649"><ele>1259.5</ele><time>2026-04-10T00:10:24.994Z</time></trkpt><trkpt lat="32.317163" lon="-110.6067316"><ele>1258.3333333333335</ele><time>2026-04-10T00:10:25.993Z</time></trkpt><trkpt lat="32.3172161" lon="-110.6068202"><ele>1257.1666666666667</ele><time>2026-04-10T00:10:26.994Z</time></trkpt><trkpt lat="32.3172584" lon="-110.6069135"><ele>1256.0</ele><time>2026-04-10T00:10:27.995Z</time></trkpt><trkpt lat="32.3172967" lon="-110.6070096"><ele>1254.8571428571427</ele><time>2026-04-10T00:10:28.994Z</time></trkpt><trkpt lat="32.3173113" lon="-110.6071033"><ele>1253.7142857142858</ele><time>2026-04-10T00:10:29.994Z</time></trkpt><trkpt lat="32.3173212" lon="-110.6071986"><ele>1252.5714285714284</ele><time>2026-04-10T00:10:30.993Z</time></trkpt><trkpt lat="32.3173278" lon="-110.6072855"><ele>1251.4285714285713</ele><time>2026-04-10T00:10:31.994Z</time></trkpt><trkpt lat="32.3173414" lon="-110.607365"><ele>1250.2857142857142</ele><time>2026-04-10T00:10:32.995Z</time></trkpt><trkpt lat="32.3173642" lon="-110.6074429"><ele>1249.142857142857</ele><time>2026-04-10T00:10:33.995Z</time></trkpt><trkpt lat="32.317395" lon="-110.6075239"><ele>1248.0</ele><time>2026-04-10T00:10:34.995Z</time></trkpt><trkpt lat="32.3174283" lon="-110.6076047"><ele>1248.0</ele><time>2026-04-10T00:10:35.994Z</time></trkpt><trkpt lat="32.3174626" lon="-110.6076843"><ele>1248.0</ele><time>2026-04-10T00:10:36.995Z</time></trkpt><trkpt lat="32.3174944" lon="-110.6077659"><ele>1248.0</ele><time>2026-04-10T00:10:37.995Z</time></trkpt><trkpt lat="32.3175139" lon="-110.6078481"><ele>1248.0</ele><time>2026-04-10T00:10:38.994Z</time></trkpt><trkpt lat="32.3175288" lon="-110.6079284"><ele>1248.0</ele><time>2026-04-10T00:10:39.995Z</time></trkpt><trkpt lat="32.3175203" lon="-110.6080137"><ele>1248.0</ele><time>2026-04-10T00:10:40.995Z</time></trkpt><trkpt lat="32.3175083" lon="-110.6080986"><ele>1248.0</ele><time>2026-04-10T00:10:41.995Z</time></trkpt><trkpt lat="32.3174817" lon="-110.6081689"><ele>1247.8333333333333</ele><time>2026-04-10T00:10:42.995Z</time></trkpt><trkpt lat="32.3174522" lon="-110.6082366"><ele>1247.6666666666667</ele><time>2026-04-10T00:10:43.995Z</time></trkpt><trkpt lat="32.3173845" lon="-110.6083589"><ele>1247.5</ele><time>2026-04-10T00:10:45.995Z</time></trkpt><trkpt lat="32.3173495" lon="-110.6084272"><ele>1247.3333333333335</ele><time>2026-04-10T00:10:46.995Z</time></trkpt><trkpt lat="32.3173337" lon="-110.6085072"><ele>1247.1666666666667</ele><time>2026-04-10T00:10:47.995Z</time></trkpt><trkpt lat="32.3173216" lon="-110.6085931"><ele>1247.0</ele><time>2026-04-10T00:10:48.995Z</time></trkpt><trkpt lat="32.3173203" lon="-110.6086918"><ele>1247.3333333333335</ele><time>2026-04-10T00:10:49.995Z</time></trkpt><trkpt lat="32.3173183" lon="-110.6087872"><ele>1247.6666666666667</ele><time>2026-04-10T00:10:50.994Z</time></trkpt><trkpt lat="32.3173065" lon="-110.608879"><ele>1248.0</ele><time>2026-04-10T00:10:51.995Z</time></trkpt><trkpt lat="32.3172887" lon="-110.6089696"><ele>1248.3333333333333</ele><time>2026-04-10T00:10:52.995Z</time></trkpt><trkpt lat="32.3172663" lon="-110.6090447"><ele>1248.6666666666665</ele><time>2026-04-10T00:10:53.995Z</time></trkpt><trkpt lat="32.3171904" lon="-110.6091523"><ele>1249.0</ele><time>2026-04-10T00:10:55.995Z</time></trkpt><trkpt lat="32.3171325" lon="-110.6092005"><ele>1249.0</ele><time>2026-04-10T00:10:56.995Z</time></trkpt><trkpt lat="32.3170529" lon="-110.609248"><ele>1249.0</ele><time>2026-04-10T00:10:57.995Z</time></trkpt><trkpt lat="32.3169843" lon="-110.6092962"><ele>1249.0</ele><time>2026-04-10T00:10:58.995Z</time></trkpt><trkpt lat="32.3169323" lon="-110.6093409"><ele>1249.0</ele><time>2026-04-10T00:10:59.995Z</time></trkpt><trkpt lat="32.3168497" lon="-110.6094464"><ele>1249.0</ele><time>2026-04-10T00:11:01.995Z</time></trkpt><trkpt lat="32.3168335" lon="-110.6095263"><ele>1249.0</ele><time>2026-04-10T00:11:02.995Z</time></trkpt><trkpt lat="32.3168232" lon="-110.6096075"><ele>1249.0</ele><time>2026-04-10T00:11:03.995Z</time></trkpt><trkpt lat="32.3168379" lon="-110.6097335"><ele>1249.0</ele><time>2026-04-10T00:11:05.995Z</time></trkpt><trkpt lat="32.3168134" lon="-110.6098335"><ele>1249.0</ele><time>2026-04-10T00:11:07.995Z</time></trkpt><trkpt lat="32.3167488" lon="-110.609931"><ele>1249.0</ele><time>2026-04-10T00:11:09.995Z</time></trkpt><trkpt lat="32.3167124" lon="-110.6100466"><ele>1249.0</ele><time>2026-04-10T00:11:11.995Z</time></trkpt><trkpt lat="32.3167281" lon="-110.6101852"><ele>1248.9999999999998</ele><time>2026-04-10T00:11:13.995Z</time></trkpt><trkpt lat="32.3167397" lon="-110.6102639"><ele>1249.0</ele><time>2026-04-10T00:11:14.995Z</time></trkpt><trkpt lat="32.3167426" lon="-110.6103434"><ele>1249.0</ele><time>2026-04-10T00:11:15.995Z</time></trkpt><trkpt lat="32.3167451" lon="-110.6104304"><ele>1249.0</ele><time>2026-04-10T00:11:16.995Z</time></trkpt><trkpt lat="32.3167571" lon="-110.610522"><ele>1249.0</ele><time>2026-04-10T00:11:17.995Z</time></trkpt><trkpt lat="32.3167813" lon="-110.6106117"><ele>1248.9999999999998</ele><time>2026-04-10T00:11:18.995Z</time></trkpt><trkpt lat="32.3168143" lon="-110.610696"><ele>1249.0</ele><time>2026-04-10T00:11:19.995Z</time></trkpt><trkpt lat="32.3168458" lon="-110.6107755"><ele>1249.0</ele><time>2026-04-10T00:11:20.995Z</time></trkpt><trkpt lat="32.3168785" lon="-110.6109151"><ele>1249.0</ele><time>2026-04-10T00:11:22.995Z</time></trkpt><trkpt lat="32.3168752" lon="-110.6109999"><ele>1249.0</ele><time>2026-04-10T00:11:23.995Z</time></trkpt><trkpt lat="32.3168516" lon="-110.611087"><ele>1249.0</ele><time>2026-04-10T00:11:24.995Z</time></trkpt><trkpt lat="32.3168175" lon="-110.6111725"><ele>1249.0</ele><time>2026-04-10T00:11:25.995Z</time></trkpt><trkpt lat="32.3167729" lon="-110.6112528"><ele>1249.0</ele><time>2026-04-10T00:11:26.995Z</time></trkpt><trkpt lat="32.3167192" lon="-110.6113262"><ele>1249.5714285714284</ele><time>2026-04-10T00:11:27.995Z</time></trkpt><trkpt lat="32.3166634" lon="-110.6113947"><ele>1250.142857142857</ele><time>2026-04-10T00:11:28.994Z</time></trkpt><trkpt lat="32.316608" lon="-110.611455"><ele>1250.7142857142858</ele><time>2026-04-10T00:11:29.995Z</time></trkpt><trkpt lat="32.3165525" lon="-110.6115105"><ele>1251.2857142857142</ele><time>2026-04-10T00:11:30.995Z</time></trkpt><trkpt lat="32.3164934" lon="-110.6115686"><ele>1251.857142857143</ele><time>2026-04-10T00:11:31.995Z</time></trkpt><trkpt lat="32.3164379" lon="-110.6116301"><ele>1252.4285714285713</ele><time>2026-04-10T00:11:32.995Z</time></trkpt><trkpt lat="32.3163897" lon="-110.6116853"><ele>1253.0</ele><time>2026-04-10T00:11:33.995Z</time></trkpt><trkpt lat="32.3163449" lon="-110.6117491"><ele>1253.6666666666667</ele><time>2026-04-10T00:11:34.995Z</time></trkpt><trkpt lat="32.316305" lon="-110.6118227"><ele>1254.3333333333335</ele><time>2026-04-10T00:11:35.995Z</time></trkpt><trkpt lat="32.3162775" lon="-110.6119017"><ele>1255.0</ele><time>2026-04-10T00:11:36.995Z</time></trkpt><trkpt lat="32.3162593" lon="-110.6119878"><ele>1255.6666666666667</ele><time>2026-04-10T00:11:37.995Z</time></trkpt><trkpt lat="32.3162488" lon="-110.6120842"><ele>1256.3333333333333</ele><time>2026-04-10T00:11:38.995Z</time></trkpt><trkpt lat="32.3162473" lon="-110.6121846"><ele>1257.0</ele><time>2026-04-10T00:11:39.995Z</time></trkpt><trkpt lat="32.3162556" lon="-110.6122741"><ele>1257.5</ele><time>2026-04-10T00:11:40.995Z</time></trkpt><trkpt lat="32.3162681" lon="-110.6123581"><ele>1258.0</ele><time>2026-04-10T00:11:41.994Z</time></trkpt><trkpt lat="32.3162801" lon="-110.6124418"><ele>1258.5</ele><time>2026-04-10T00:11:42.995Z</time></trkpt><trkpt lat="32.3163022" lon="-110.6125254"><ele>1259.0</ele><time>2026-04-10T00:11:43.995Z</time></trkpt><trkpt lat="32.316327" lon="-110.6126012"><ele>1259.5</ele><time>2026-04-10T00:11:44.995Z</time></trkpt><trkpt lat="32.3164126" lon="-110.6127113"><ele>1260.0</ele><time>2026-04-10T00:11:46.995Z</time></trkpt><trkpt lat="32.3164717" lon="-110.6128288"><ele>1260.8</ele><time>2026-04-10T00:11:48.995Z</time></trkpt><trkpt lat="32.3164664" lon="-110.6129394"><ele>1261.6</ele><time>2026-04-10T00:11:50.995Z</time></trkpt><trkpt lat="32.3164292" lon="-110.6130279"><ele>1262.4</ele><time>2026-04-10T00:11:52.995Z</time></trkpt><trkpt lat="32.3163469" lon="-110.6131098"><ele>1263.2</ele><time>2026-04-10T00:11:54.995Z</time></trkpt><trkpt lat="32.3162582" lon="-110.6132033"><ele>1264.0</ele><time>2026-04-10T00:11:56.994Z</time></trkpt><trkpt lat="32.316238" lon="-110.6132745"><ele>1264.0</ele><time>2026-04-10T00:11:57.995Z</time></trkpt><trkpt lat="32.3162337" lon="-110.6133525"><ele>1264.0</ele><time>2026-04-10T00:11:58.995Z</time></trkpt><trkpt lat="32.3162247" lon="-110.6134324"><ele>1264.0</ele><time>2026-04-10T00:11:59.995Z</time></trkpt><trkpt lat="32.3162162" lon="-110.6135082"><ele>1264.0</ele><time>2026-04-10T00:12:00.995Z</time></trkpt><trkpt lat="32.3162134" lon="-110.6135845"><ele>1264.0</ele><time>2026-04-10T00:12:01.995Z</time></trkpt><trkpt lat="32.3162264" lon="-110.6136586"><ele>1264.0</ele><time>2026-04-10T00:12:02.995Z</time></trkpt><trkpt lat="32.3162752" lon="-110.6137932"><ele>1263.8</ele><time>2026-04-10T00:12:04.995Z</time></trkpt><trkpt lat="32.3163123" lon="-110.6138993"><ele>1263.6000000000001</ele><time>2026-04-10T00:12:06.995Z</time></trkpt><trkpt lat="32.3163003" lon="-110.614026"><ele>1263.4</ele><time>2026-04-10T00:12:08.995Z</time></trkpt><trkpt lat="32.3162534" lon="-110.6141457"><ele>1263.2</ele><time>2026-04-10T00:12:10.995Z</time></trkpt><trkpt lat="32.3161749" lon="-110.61423"><ele>1263.0</ele><time>2026-04-10T00:12:12.995Z</time></trkpt><trkpt lat="32.3160908" lon="-110.6143247"><ele>1263.0</ele><time>2026-04-10T00:12:14.994Z</time></trkpt><trkpt lat="32.3160711" lon="-110.6144449"><ele>1263.0</ele><time>2026-04-10T00:12:16.995Z</time></trkpt><trkpt lat="32.3161023" lon="-110.6145463"><ele>1263.0</ele><time>2026-04-10T00:12:18.995Z</time></trkpt><trkpt lat="32.3162084" lon="-110.6146165"><ele>1263.0</ele><time>2026-04-10T00:12:20.994Z</time></trkpt><trkpt lat="32.3162782" lon="-110.6146531"><ele>1263.0</ele><time>2026-04-10T00:12:21.995Z</time></trkpt><trkpt lat="32.316357" lon="-110.6146951"><ele>1261.8333333333333</ele><time>2026-04-10T00:12:22.995Z</time></trkpt><trkpt lat="32.3164358" lon="-110.6147438"><ele>1260.6666666666667</ele><time>2026-04-10T00:12:23.995Z</time></trkpt><trkpt lat="32.3165089" lon="-110.6147905"><ele>1259.5</ele><time>2026-04-10T00:12:24.995Z</time></trkpt><trkpt lat="32.3165745" lon="-110.614837"><ele>1258.3333333333335</ele><time>2026-04-10T00:12:25.994Z</time></trkpt><trkpt lat="32.31664" lon="-110.6148927"><ele>1257.1666666666667</ele><time>2026-04-10T00:12:26.995Z</time></trkpt><trkpt lat="32.3167104" lon="-110.6149627"><ele>1256.0</ele><time>2026-04-10T00:12:27.995Z</time></trkpt><trkpt lat="32.3167807" lon="-110.6150335"><ele>1256.0</ele><time>2026-04-10T00:12:28.995Z</time></trkpt><trkpt lat="32.3168512" lon="-110.6151007"><ele>1256.0</ele><time>2026-04-10T00:12:29.995Z</time></trkpt><trkpt lat="32.3169205" lon="-110.6151597"><ele>1256.0</ele><time>2026-04-10T00:12:30.995Z</time></trkpt><trkpt lat="32.3169995" lon="-110.6151957"><ele>1256.0</ele><time>2026-04-10T00:12:31.995Z</time></trkpt><trkpt lat="32.3170743" lon="-110.6152262"><ele>1256.0</ele><time>2026-04-10T00:12:32.994Z</time></trkpt><trkpt lat="32.3171436" lon="-110.61526"><ele>1256.0</ele><time>2026-04-10T00:12:33.995Z</time></trkpt><trkpt lat="32.3172014" lon="-110.6153009"><ele>1256.1666666666667</ele><time>2026-04-10T00:12:34.995Z</time></trkpt><trkpt lat="32.3172557" lon="-110.6153416"><ele>1256.3333333333335</ele><time>2026-04-10T00:12:35.995Z</time></trkpt><trkpt lat="32.3173751" lon="-110.6153809"><ele>1256.5</ele><time>2026-04-10T00:12:37.994Z</time></trkpt><trkpt lat="32.3174416" lon="-110.6153626"><ele>1256.6666666666667</ele><time>2026-04-10T00:12:38.996Z</time></trkpt><trkpt lat="32.3175075" lon="-110.6153296"><ele>1256.8333333333333</ele><time>2026-04-10T00:12:39.995Z</time></trkpt><trkpt lat="32.3175808" lon="-110.6152992"><ele>1257.0</ele><time>2026-04-10T00:12:40.996Z</time></trkpt><trkpt lat="32.3176585" lon="-110.6152791"><ele>1257.0</ele><time>2026-04-10T00:12:41.996Z</time></trkpt><trkpt lat="32.3177301" lon="-110.6152736"><ele>1257.0</ele><time>2026-04-10T00:12:42.996Z</time></trkpt><trkpt lat="32.3178025" lon="-110.6152838"><ele>1257.0</ele><time>2026-04-10T00:12:43.996Z</time></trkpt><trkpt lat="32.3178763" lon="-110.6153129"><ele>1257.0</ele><time>2026-04-10T00:12:44.996Z</time></trkpt><trkpt lat="32.3179525" lon="-110.6153493"><ele>1257.0</ele><time>2026-04-10T00:12:45.996Z</time></trkpt><trkpt lat="32.3180364" lon="-110.6153805"><ele>1257.0</ele><time>2026-04-10T00:12:46.996Z</time></trkpt><trkpt lat="32.3181197" lon="-110.6154069"><ele>1256.5714285714287</ele><time>2026-04-10T00:12:47.996Z</time></trkpt><trkpt lat="32.3181989" lon="-110.6154128"><ele>1256.142857142857</ele><time>2026-04-10T00:12:48.996Z</time></trkpt><trkpt lat="32.3182796" lon="-110.6154235"><ele>1255.7142857142858</ele><time>2026-04-10T00:12:49.996Z</time></trkpt><trkpt lat="32.3183515" lon="-110.6154363"><ele>1255.2857142857142</ele><time>2026-04-10T00:12:50.996Z</time></trkpt><trkpt lat="32.3184167" lon="-110.6154585"><ele>1254.857142857143</ele><time>2026-04-10T00:12:51.995Z</time></trkpt><trkpt lat="32.3184736" lon="-110.6154964"><ele>1254.4285714285716</ele><time>2026-04-10T00:12:52.996Z</time></trkpt><trkpt lat="32.3185203" lon="-110.6155508"><ele>1254.0</ele><time>2026-04-10T00:12:53.996Z</time></trkpt><trkpt lat="32.3185835" lon="-110.6156777"><ele>1254.0</ele><time>2026-04-10T00:12:55.996Z</time></trkpt><trkpt lat="32.3186653" lon="-110.6157756"><ele>1254.0</ele><time>2026-04-10T00:12:57.996Z</time></trkpt><trkpt lat="32.3187252" lon="-110.6158113"><ele>1254.0</ele><time>2026-04-10T00:12:58.996Z</time></trkpt><trkpt lat="32.3188015" lon="-110.6158398"><ele>1254.0</ele><time>2026-04-10T00:12:59.996Z</time></trkpt><trkpt lat="32.3188863" lon="-110.6158712"><ele>1254.0</ele><time>2026-04-10T00:13:00.996Z</time></trkpt><trkpt lat="32.3189721" lon="-110.6159043"><ele>1254.0</ele><time>2026-04-10T00:13:01.996Z</time></trkpt><trkpt lat="32.3190656" lon="-110.615937"><ele>1253.0</ele><time>2026-04-10T00:13:02.996Z</time></trkpt><trkpt lat="32.3191634" lon="-110.6159621"><ele>1252.0</ele><time>2026-04-10T00:13:03.995Z</time></trkpt><trkpt lat="32.3192567" lon="-110.6159853"><ele>1251.0</ele><time>2026-04-10T00:13:04.996Z</time></trkpt><trkpt lat="32.3193427" lon="-110.6160107"><ele>1250.0</ele><time>2026-04-10T00:13:05.996Z</time></trkpt><trkpt lat="32.3194297" lon="-110.6160386"><ele>1249.0</ele><time>2026-04-10T00:13:06.996Z</time></trkpt><trkpt lat="32.3195174" lon="-110.6160684"><ele>1249.0</ele><time>2026-04-10T00:13:07.996Z</time></trkpt><trkpt lat="32.3195993" lon="-110.6161024"><ele>1249.0</ele><time>2026-04-10T00:13:08.996Z</time></trkpt><trkpt lat="32.319678" lon="-110.616148"><ele>1249.0</ele><time>2026-04-10T00:13:09.996Z</time></trkpt><trkpt lat="32.3197475" lon="-110.6162036"><ele>1249.0</ele><time>2026-04-10T00:13:10.996Z</time></trkpt><trkpt lat="32.3198129" lon="-110.616259"><ele>1249.0</ele><time>2026-04-10T00:13:11.996Z</time></trkpt><trkpt lat="32.3198793" lon="-110.6163115"><ele>1249.0</ele><time>2026-04-10T00:13:12.996Z</time></trkpt><trkpt lat="32.3199464" lon="-110.6163534"><ele>1247.0</ele><time>2026-04-10T00:13:13.995Z</time></trkpt><trkpt lat="32.3200119" lon="-110.6163889"><ele>1245.0</ele><time>2026-04-10T00:13:14.996Z</time></trkpt><trkpt lat="32.3200759" lon="-110.6164036"><ele>1243.0</ele><time>2026-04-10T00:13:15.996Z</time></trkpt><trkpt lat="32.3201822" lon="-110.6164557"><ele>1241.0</ele><time>2026-04-10T00:13:17.996Z</time></trkpt><trkpt lat="32.320245" lon="-110.616553"><ele>1239.0</ele><time>2026-04-10T00:13:19.996Z</time></trkpt><trkpt lat="32.3202683" lon="-110.6166843"><ele>1239.0</ele><time>2026-04-10T00:13:21.995Z</time></trkpt><trkpt lat="32.320281" lon="-110.6168133"><ele>1239.0</ele><time>2026-04-10T00:13:23.996Z</time></trkpt><trkpt lat="32.3203354" lon="-110.6169169"><ele>1239.0</ele><time>2026-04-10T00:13:25.996Z</time></trkpt><trkpt lat="32.3204221" lon="-110.616995"><ele>1239.0</ele><time>2026-04-10T00:13:27.996Z</time></trkpt><trkpt lat="32.3205376" lon="-110.6170727"><ele>1237.2857142857142</ele><time>2026-04-10T00:13:29.995Z</time></trkpt><trkpt lat="32.3205989" lon="-110.617119"><ele>1235.5714285714284</ele><time>2026-04-10T00:13:30.996Z</time></trkpt><trkpt lat="32.3206417" lon="-110.6171881"><ele>1233.857142857143</ele><time>2026-04-10T00:13:31.995Z</time></trkpt><trkpt lat="32.3206714" lon="-110.6172685"><ele>1232.142857142857</ele><time>2026-04-10T00:13:32.996Z</time></trkpt><trkpt lat="32.3206853" lon="-110.6173551"><ele>1230.4285714285713</ele><time>2026-04-10T00:13:33.996Z</time></trkpt><trkpt lat="32.3206928" lon="-110.617442"><ele>1228.7142857142858</ele><time>2026-04-10T00:13:34.996Z</time></trkpt><trkpt lat="32.3207018" lon="-110.6175236"><ele>1227.0</ele><time>2026-04-10T00:13:35.996Z</time></trkpt><trkpt lat="32.3207109" lon="-110.6176027"><ele>1227.0</ele><time>2026-04-10T00:13:36.995Z</time></trkpt><trkpt lat="32.320708" lon="-110.6176861"><ele>1227.0</ele><time>2026-04-10T00:13:37.995Z</time></trkpt><trkpt lat="32.3206901" lon="-110.617765"><ele>1227.0</ele><time>2026-04-10T00:13:38.996Z</time></trkpt><trkpt lat="32.3206662" lon="-110.6178426"><ele>1227.0</ele><time>2026-04-10T00:13:39.996Z</time></trkpt><trkpt lat="32.3206347" lon="-110.6179091"><ele>1227.0</ele><time>2026-04-10T00:13:40.996Z</time></trkpt><trkpt lat="32.3205969" lon="-110.6180441"><ele>1227.0</ele><time>2026-04-10T00:13:42.996Z</time></trkpt><trkpt lat="32.3206088" lon="-110.6181597"><ele>1226.1666666666667</ele><time>2026-04-10T00:13:44.996Z</time></trkpt><trkpt lat="32.3206702" lon="-110.618258"><ele>1225.3333333333333</ele><time>2026-04-10T00:13:46.996Z</time></trkpt><trkpt lat="32.3207723" lon="-110.6183381"><ele>1224.5</ele><time>2026-04-10T00:13:48.996Z</time></trkpt><trkpt lat="32.3208251" lon="-110.6183906"><ele>1223.6666666666665</ele><time>2026-04-10T00:13:49.996Z</time></trkpt><trkpt lat="32.3208733" lon="-110.6184526"><ele>1222.8333333333333</ele><time>2026-04-10T00:13:50.996Z</time></trkpt><trkpt lat="32.3209147" lon="-110.6185268"><ele>1222.0</ele><time>2026-04-10T00:13:51.996Z</time></trkpt><trkpt lat="32.3209517" lon="-110.6186087"><ele>1221.5</ele><time>2026-04-10T00:13:52.996Z</time></trkpt><trkpt lat="32.3209609" lon="-110.6186991"><ele>1221.0</ele><time>2026-04-10T00:13:53.995Z</time></trkpt><trkpt lat="32.3209686" lon="-110.6187978"><ele>1220.5</ele><time>2026-04-10T00:13:54.996Z</time></trkpt><trkpt lat="32.3209817" lon="-110.6189065"><ele>1220.0</ele><time>2026-04-10T00:13:55.996Z</time></trkpt><trkpt lat="32.3209856" lon="-110.6190139"><ele>1219.5</ele><time>2026-04-10T00:13:56.996Z</time></trkpt><trkpt lat="32.3209822" lon="-110.6191231"><ele>1219.0</ele><time>2026-04-10T00:13:57.996Z</time></trkpt><trkpt lat="32.3209503" lon="-110.6192222"><ele>1219.0</ele><time>2026-04-10T00:13:58.996Z</time></trkpt><trkpt lat="32.3209183" lon="-110.6193172"><ele>1219.0</ele><time>2026-04-10T00:13:59.995Z</time></trkpt><trkpt lat="32.3208851" lon="-110.619413"><ele>1219.0</ele><time>2026-04-10T00:14:00.996Z</time></trkpt><trkpt lat="32.3208493" lon="-110.6195039"><ele>1219.0</ele><time>2026-04-10T00:14:01.996Z</time></trkpt><trkpt lat="32.3208177" lon="-110.6195898"><ele>1219.0</ele><time>2026-04-10T00:14:02.996Z</time></trkpt><trkpt lat="32.3207947" lon="-110.6196742"><ele>1219.0</ele><time>2026-04-10T00:14:03.996Z</time></trkpt><trkpt lat="32.3207797" lon="-110.6197604"><ele>1218.8</ele><time>2026-04-10T00:14:04.996Z</time></trkpt><trkpt lat="32.3207688" lon="-110.6198498"><ele>1218.6000000000001</ele><time>2026-04-10T00:14:05.996Z</time></trkpt><trkpt lat="32.3207854" lon="-110.6199473"><ele>1218.4</ele><time>2026-04-10T00:14:06.996Z</time></trkpt><trkpt lat="32.3208057" lon="-110.6200521"><ele>1218.2</ele><time>2026-04-10T00:14:07.996Z</time></trkpt><trkpt lat="32.3208387" lon="-110.6201666"><ele>1218.0</ele><time>2026-04-10T00:14:08.996Z</time></trkpt><trkpt lat="32.3208776" lon="-110.6202747"><ele>1217.8333333333333</ele><time>2026-04-10T00:14:09.996Z</time></trkpt><trkpt lat="32.3209156" lon="-110.6203725"><ele>1217.6666666666667</ele><time>2026-04-10T00:14:10.996Z</time></trkpt><trkpt lat="32.3209495" lon="-110.6204563"><ele>1217.5</ele><time>2026-04-10T00:14:11.996Z</time></trkpt><trkpt lat="32.320981" lon="-110.6205212"><ele>1217.3333333333335</ele><time>2026-04-10T00:14:12.996Z</time></trkpt><trkpt lat="32.3210675" lon="-110.6206266"><ele>1217.1666666666667</ele><time>2026-04-10T00:14:14.995Z</time></trkpt><trkpt lat="32.3211281" lon="-110.6206559"><ele>1217.0</ele><time>2026-04-10T00:14:15.996Z</time></trkpt><trkpt lat="32.3211981" lon="-110.6206581"><ele>1217.0</ele><time>2026-04-10T00:14:16.996Z</time></trkpt><trkpt lat="32.3212613" lon="-110.6206389"><ele>1217.0</ele><time>2026-04-10T00:14:17.996Z</time></trkpt><trkpt lat="32.3213737" lon="-110.6205667"><ele>1217.0</ele><time>2026-04-10T00:14:19.995Z</time></trkpt><trkpt lat="32.3214323" lon="-110.6204688"><ele>1217.0</ele><time>2026-04-10T00:14:21.996Z</time></trkpt><trkpt lat="32.3214637" lon="-110.6203323"><ele>1217.0</ele><time>2026-04-10T00:14:23.996Z</time></trkpt><trkpt lat="32.3215265" lon="-110.6201985"><ele>1217.5</ele><time>2026-04-10T00:14:25.996Z</time></trkpt><trkpt lat="32.3215719" lon="-110.6201459"><ele>1218.0</ele><time>2026-04-10T00:14:26.996Z</time></trkpt><trkpt lat="32.3216828" lon="-110.6200828"><ele>1218.5</ele><time>2026-04-10T00:14:28.996Z</time></trkpt><trkpt lat="32.3217608" lon="-110.6200699"><ele>1219.0</ele><time>2026-04-10T00:14:29.995Z</time></trkpt><trkpt lat="32.3218443" lon="-110.6200719"><ele>1219.5</ele><time>2026-04-10T00:14:30.996Z</time></trkpt><trkpt lat="32.3219227" lon="-110.6200823"><ele>1220.0</ele><time>2026-04-10T00:14:31.996Z</time></trkpt><trkpt lat="32.3219978" lon="-110.6200947"><ele>1220.0</ele><time>2026-04-10T00:14:32.996Z</time></trkpt><trkpt lat="32.3220687" lon="-110.6201056"><ele>1220.0</ele><time>2026-04-10T00:14:33.996Z</time></trkpt><trkpt lat="32.3221819" lon="-110.6201245"><ele>1220.0</ele><time>2026-04-10T00:14:35.996Z</time></trkpt><trkpt lat="32.3222595" lon="-110.6201429"><ele>1220.0</ele><time>2026-04-10T00:14:37.996Z</time></trkpt><trkpt lat="32.3223272" lon="-110.6201636"><ele>1220.0</ele><time>2026-04-10T00:14:40.996Z</time></trkpt><trkpt lat="32.3223927" lon="-110.6201951"><ele>1220.0</ele><time>2026-04-10T00:15:51.997Z</time></trkpt><trkpt lat="32.3224589" lon="-110.6202334"><ele>1219.3333333333335</ele><time>2026-04-10T00:16:31.997Z</time></trkpt><trkpt lat="32.3225455" lon="-110.6202783"><ele>1218.6666666666667</ele><time>2026-04-10T00:16:33.997Z</time></trkpt><trkpt lat="32.322627" lon="-110.6203129"><ele>1218.0</ele><time>2026-04-10T00:16:35.997Z</time></trkpt><trkpt lat="32.3227056" lon="-110.6203974"><ele>1217.3333333333333</ele><time>2026-04-10T00:16:37.997Z</time></trkpt><trkpt lat="32.322744" lon="-110.6204701"><ele>1216.6666666666665</ele><time>2026-04-10T00:16:38.997Z</time></trkpt><trkpt lat="32.3227745" lon="-110.620549"><ele>1216.0</ele><time>2026-04-10T00:16:39.997Z</time></trkpt><trkpt lat="32.3228026" lon="-110.6206279"><ele>1215.2</ele><time>2026-04-10T00:16:40.997Z</time></trkpt><trkpt lat="32.3228309" lon="-110.6207071"><ele>1214.3999999999999</ele><time>2026-04-10T00:16:41.997Z</time></trkpt><trkpt lat="32.3228606" lon="-110.6207811"><ele>1213.6</ele><time>2026-04-10T00:16:42.997Z</time></trkpt><trkpt lat="32.3229209" lon="-110.6209026"><ele>1212.8</ele><time>2026-04-10T00:16:44.997Z</time></trkpt><trkpt lat="32.3230016" lon="-110.6209899"><ele>1212.0</ele><time>2026-04-10T00:16:46.997Z</time></trkpt><trkpt lat="32.3231096" lon="-110.621001"><ele>1211.8</ele><time>2026-04-10T00:16:48.996Z</time></trkpt><trkpt lat="32.3232359" lon="-110.6209387"><ele>1211.6</ele><time>2026-04-10T00:16:50.997Z</time></trkpt><trkpt lat="32.3233033" lon="-110.6208848"><ele>1211.3999999999999</ele><time>2026-04-10T00:16:51.998Z</time></trkpt><trkpt lat="32.3233684" lon="-110.6208351"><ele>1211.2</ele><time>2026-04-10T00:16:52.997Z</time></trkpt><trkpt lat="32.3234387" lon="-110.6207948"><ele>1211.0</ele><time>2026-04-10T00:16:53.998Z</time></trkpt><trkpt lat="32.3235087" lon="-110.6207587"><ele>1211.0</ele><time>2026-04-10T00:16:54.998Z</time></trkpt><trkpt lat="32.3235762" lon="-110.6207329"><ele>1211.0</ele><time>2026-04-10T00:16:55.998Z</time></trkpt><trkpt lat="32.3236443" lon="-110.6207129"><ele>1211.0</ele><time>2026-04-10T00:16:56.997Z</time></trkpt><trkpt lat="32.3237126" lon="-110.6206952"><ele>1211.0</ele><time>2026-04-10T00:16:57.998Z</time></trkpt><trkpt lat="32.3237775" lon="-110.6206828"><ele>1211.0</ele><time>2026-04-10T00:16:58.998Z</time></trkpt><trkpt lat="32.3238985" lon="-110.6206969"><ele>1211.0</ele><time>2026-04-10T00:17:00.997Z</time></trkpt><trkpt lat="32.3239668" lon="-110.6207206"><ele>1211.8333333333335</ele><time>2026-04-10T00:17:01.998Z</time></trkpt><trkpt lat="32.3240388" lon="-110.620756"><ele>1212.6666666666667</ele><time>2026-04-10T00:17:02.998Z</time></trkpt><trkpt lat="32.3241123" lon="-110.620794"><ele>1213.5</ele><time>2026-04-10T00:17:03.997Z</time></trkpt><trkpt lat="32.3241848" lon="-110.6208364"><ele>1214.3333333333333</ele><time>2026-04-10T00:17:04.997Z</time></trkpt><trkpt lat="32.3242605" lon="-110.6208746"><ele>1215.1666666666665</ele><time>2026-04-10T00:17:05.998Z</time></trkpt><trkpt lat="32.324332" lon="-110.6209086"><ele>1216.0</ele><time>2026-04-10T00:17:06.998Z</time></trkpt><trkpt lat="32.3244012" lon="-110.6209376"><ele>1216.0</ele><time>2026-04-10T00:17:07.998Z</time></trkpt><trkpt lat="32.3244862" lon="-110.620969"><ele>1216.0</ele><time>2026-04-10T00:17:08.998Z</time></trkpt><trkpt lat="32.3245712" lon="-110.6209977"><ele>1216.0</ele><time>2026-04-10T00:17:09.998Z</time></trkpt><trkpt lat="32.3246601" lon="-110.6210278"><ele>1216.0</ele><time>2026-04-10T00:17:10.997Z</time></trkpt><trkpt lat="32.3247441" lon="-110.6210518"><ele>1216.0</ele><time>2026-04-10T00:17:11.997Z</time></trkpt><trkpt lat="32.3248191" lon="-110.6210753"><ele>1216.0</ele><time>2026-04-10T00:17:12.998Z</time></trkpt><trkpt lat="32.3248799" lon="-110.6211029"><ele>1216.4285714285713</ele><time>2026-04-10T00:17:13.997Z</time></trkpt><trkpt lat="32.3249395" lon="-110.6211352"><ele>1216.857142857143</ele><time>2026-04-10T00:17:14.998Z</time></trkpt><trkpt lat="32.3250003" lon="-110.6211808"><ele>1217.2857142857142</ele><time>2026-04-10T00:17:15.997Z</time></trkpt><trkpt lat="32.3250592" lon="-110.6212229"><ele>1217.7142857142858</ele><time>2026-04-10T00:17:16.997Z</time></trkpt><trkpt lat="32.3251218" lon="-110.6212491"><ele>1218.142857142857</ele><time>2026-04-10T00:17:17.998Z</time></trkpt><trkpt lat="32.3251944" lon="-110.621258"><ele>1218.5714285714287</ele><time>2026-04-10T00:17:18.998Z</time></trkpt><trkpt lat="32.32527" lon="-110.6212634"><ele>1219.0</ele><time>2026-04-10T00:17:19.998Z</time></trkpt><trkpt lat="32.325351" lon="-110.621263"><ele>1219.4285714285716</ele><time>2026-04-10T00:17:20.998Z</time></trkpt><trkpt lat="32.3254336" lon="-110.6212581"><ele>1219.857142857143</ele><time>2026-04-10T00:17:21.998Z</time></trkpt><trkpt lat="32.3255192" lon="-110.6212519"><ele>1220.2857142857142</ele><time>2026-04-10T00:17:22.997Z</time></trkpt><trkpt lat="32.3255943" lon="-110.6212448"><ele>1220.7142857142858</ele><time>2026-04-10T00:17:23.998Z</time></trkpt><trkpt lat="32.3256649" lon="-110.6212409"><ele>1221.142857142857</ele><time>2026-04-10T00:17:24.998Z</time></trkpt><trkpt lat="32.32573" lon="-110.6212406"><ele>1221.5714285714287</ele><time>2026-04-10T00:17:25.998Z</time></trkpt><trkpt lat="32.3257937" lon="-110.6212561"><ele>1222.0</ele><time>2026-04-10T00:17:26.998Z</time></trkpt><trkpt lat="32.3258633" lon="-110.6212757"><ele>1223.0</ele><time>2026-04-10T00:17:27.998Z</time></trkpt><trkpt lat="32.3259378" lon="-110.6212956"><ele>1224.0</ele><time>2026-04-10T00:17:28.998Z</time></trkpt><trkpt lat="32.3260149" lon="-110.6213047"><ele>1225.0</ele><time>2026-04-10T00:17:29.998Z</time></trkpt><trkpt lat="32.3260916" lon="-110.6213035"><ele>1226.0</ele><time>2026-04-10T00:17:30.998Z</time></trkpt><trkpt lat="32.3261693" lon="-110.6212959"><ele>1227.0</ele><time>2026-04-10T00:17:31.998Z</time></trkpt><trkpt lat="32.3262429" lon="-110.6212855"><ele>1228.0</ele><time>2026-04-10T00:17:32.998Z</time></trkpt><trkpt lat="32.3263141" lon="-110.6212652"><ele>1228.0</ele><time>2026-04-10T00:17:33.998Z</time></trkpt><trkpt lat="32.3263834" lon="-110.6212389"><ele>1228.0</ele><time>2026-04-10T00:17:34.998Z</time></trkpt><trkpt lat="32.3264531" lon="-110.6212123"><ele>1228.0</ele><time>2026-04-10T00:17:35.998Z</time></trkpt><trkpt lat="32.3265249" lon="-110.6211832"><ele>1228.0</ele><time>2026-04-10T00:17:36.998Z</time></trkpt><trkpt lat="32.3266034" lon="-110.6211568"><ele>1228.0</ele><time>2026-04-10T00:17:37.998Z</time></trkpt><trkpt lat="32.3266788" lon="-110.6211319"><ele>1228.0</ele><time>2026-04-10T00:17:38.998Z</time></trkpt><trkpt lat="32.3267467" lon="-110.6211063"><ele>1228.7142857142856</ele><time>2026-04-10T00:17:39.998Z</time></trkpt><trkpt lat="32.3268081" lon="-110.6210761"><ele>1229.4285714285713</ele><time>2026-04-10T00:17:40.997Z</time></trkpt><trkpt lat="32.3268687" lon="-110.6210377"><ele>1230.142857142857</ele><time>2026-04-10T00:17:41.998Z</time></trkpt><trkpt lat="32.3269255" lon="-110.620992"><ele>1230.8571428571427</ele><time>2026-04-10T00:17:42.998Z</time></trkpt><trkpt lat="32.3269787" lon="-110.6209428"><ele>1231.5714285714284</ele><time>2026-04-10T00:17:43.998Z</time></trkpt><trkpt lat="32.3270178" lon="-110.6208771"><ele>1232.2857142857142</ele><time>2026-04-10T00:17:44.998Z</time></trkpt><trkpt lat="32.3270486" lon="-110.6208091"><ele>1233.0</ele><time>2026-04-10T00:17:45.998Z</time></trkpt><trkpt lat="32.3270657" lon="-110.6206574"><ele>1233.0</ele><time>2026-04-10T00:17:47.998Z</time></trkpt><trkpt lat="32.3270708" lon="-110.6205659"><ele>1233.0</ele><time>2026-04-10T00:17:48.998Z</time></trkpt><trkpt lat="32.3270815" lon="-110.6204696"><ele>1233.0</ele><time>2026-04-10T00:17:49.998Z</time></trkpt><trkpt lat="32.3270957" lon="-110.6203757"><ele>1233.0</ele><time>2026-04-10T00:17:50.998Z</time></trkpt><trkpt lat="32.327117" lon="-110.6202805"><ele>1233.0</ele><time>2026-04-10T00:17:51.998Z</time></trkpt><trkpt lat="32.3271375" lon="-110.6201867"><ele>1233.0</ele><time>2026-04-10T00:17:52.998Z</time></trkpt><trkpt lat="32.3271555" lon="-110.620098"><ele>1233.1666666666667</ele><time>2026-04-10T00:17:53.998Z</time></trkpt><trkpt lat="32.3271667" lon="-110.6200107"><ele>1233.3333333333333</ele><time>2026-04-10T00:17:54.998Z</time></trkpt><trkpt lat="32.3271833" lon="-110.6199263"><ele>1233.5</ele><time>2026-04-10T00:17:55.998Z</time></trkpt><trkpt lat="32.3272034" lon="-110.6198402"><ele>1233.6666666666665</ele><time>2026-04-10T00:17:56.998Z</time></trkpt><trkpt lat="32.3272267" lon="-110.6197592"><ele>1233.8333333333333</ele><time>2026-04-10T00:17:57.998Z</time></trkpt><trkpt lat="32.3272591" lon="-110.6196888"><ele>1234.0</ele><time>2026-04-10T00:17:58.998Z</time></trkpt><trkpt lat="32.3273554" lon="-110.6196015"><ele>1234.0</ele><time>2026-04-10T00:18:00.998Z</time></trkpt><trkpt lat="32.327473" lon="-110.6195814"><ele>1234.0</ele><time>2026-04-10T00:18:02.998Z</time></trkpt><trkpt lat="32.3275418" lon="-110.6195885"><ele>1234.0</ele><time>2026-04-10T00:18:03.998Z</time></trkpt><trkpt lat="32.3276093" lon="-110.6195988"><ele>1234.0</ele><time>2026-04-10T00:18:04.998Z</time></trkpt><trkpt lat="32.3276814" lon="-110.6196062"><ele>1234.0</ele><time>2026-04-10T00:18:05.998Z</time></trkpt><trkpt lat="32.3277526" lon="-110.6196159"><ele>1234.0</ele><time>2026-04-10T00:18:06.998Z</time></trkpt><trkpt lat="32.3278283" lon="-110.619621"><ele>1234.0</ele><time>2026-04-10T00:18:07.998Z</time></trkpt><trkpt lat="32.3279119" lon="-110.6196239"><ele>1234.0</ele><time>2026-04-10T00:18:08.998Z</time></trkpt><trkpt lat="32.3279982" lon="-110.6196174"><ele>1234.0</ele><time>2026-04-10T00:18:09.998Z</time></trkpt><trkpt lat="32.3280854" lon="-110.6196077"><ele>1234.0</ele><time>2026-04-10T00:18:10.998Z</time></trkpt><trkpt lat="32.32817" lon="-110.6196003"><ele>1234.0</ele><time>2026-04-10T00:18:11.998Z</time></trkpt><trkpt lat="32.3282483" lon="-110.6195971"><ele>1234.0</ele><time>2026-04-10T00:18:12.998Z</time></trkpt><trkpt lat="32.3283248" lon="-110.6195943"><ele>1233.8333333333333</ele><time>2026-04-10T00:18:13.998Z</time></trkpt><trkpt lat="32.3283966" lon="-110.6195982"><ele>1233.6666666666665</ele><time>2026-04-10T00:18:14.998Z</time></trkpt><trkpt lat="32.3284612" lon="-110.6196111"><ele>1233.5</ele><time>2026-04-10T00:18:15.998Z</time></trkpt><trkpt lat="32.328573" lon="-110.6196807"><ele>1233.3333333333333</ele><time>2026-04-10T00:18:17.998Z</time></trkpt><trkpt lat="32.3286323" lon="-110.6197466"><ele>1233.1666666666667</ele><time>2026-04-10T00:18:18.997Z</time></trkpt><trkpt lat="32.3286914" lon="-110.6198262"><ele>1233.0</ele><time>2026-04-10T00:18:19.998Z</time></trkpt><trkpt lat="32.328746" lon="-110.6199102"><ele>1233.0</ele><time>2026-04-10T00:18:20.998Z</time></trkpt><trkpt lat="32.3287974" lon="-110.6199924"><ele>1233.0</ele><time>2026-04-10T00:18:21.998Z</time></trkpt><trkpt lat="32.3288534" lon="-110.6200692"><ele>1233.0</ele><time>2026-04-10T00:18:22.998Z</time></trkpt><trkpt lat="32.3289143" lon="-110.6201376"><ele>1233.0</ele><time>2026-04-10T00:18:23.998Z</time></trkpt><trkpt lat="32.3289814" lon="-110.6202008"><ele>1233.0</ele><time>2026-04-10T00:18:24.998Z</time></trkpt><trkpt lat="32.3290516" lon="-110.6202644"><ele>1233.0</ele><time>2026-04-10T00:18:25.998Z</time></trkpt><trkpt lat="32.3291189" lon="-110.6203328"><ele>1230.8</ele><time>2026-04-10T00:18:26.998Z</time></trkpt><trkpt lat="32.3291847" lon="-110.6204154"><ele>1228.6</ele><time>2026-04-10T00:18:27.998Z</time></trkpt><trkpt lat="32.3292517" lon="-110.6204934"><ele>1226.4</ele><time>2026-04-10T00:18:28.998Z</time></trkpt><trkpt lat="32.3293223" lon="-110.620561"><ele>1224.2</ele><time>2026-04-10T00:18:29.998Z</time></trkpt><trkpt lat="32.3293974" lon="-110.62063"><ele>1222.0</ele><time>2026-04-10T00:18:30.997Z</time></trkpt><trkpt lat="32.3294765" lon="-110.6206948"><ele>1222.0</ele><time>2026-04-10T00:18:31.998Z</time></trkpt><trkpt lat="32.329552" lon="-110.6207572"><ele>1222.0</ele><time>2026-04-10T00:18:32.997Z</time></trkpt><trkpt lat="32.3296246" lon="-110.6208215"><ele>1222.0</ele><time>2026-04-10T00:18:33.998Z</time></trkpt><trkpt lat="32.3296962" lon="-110.6208882"><ele>1222.0</ele><time>2026-04-10T00:18:34.998Z</time></trkpt><trkpt lat="32.3297695" lon="-110.620968"><ele>1222.0</ele><time>2026-04-10T00:18:35.998Z</time></trkpt><trkpt lat="32.3298383" lon="-110.6210496"><ele>1221.0</ele><time>2026-04-10T00:18:36.998Z</time></trkpt><trkpt lat="32.3299037" lon="-110.6211282"><ele>1220.0</ele><time>2026-04-10T00:18:37.997Z</time></trkpt><trkpt lat="32.3299671" lon="-110.6212036"><ele>1219.0</ele><time>2026-04-10T00:18:38.998Z</time></trkpt><trkpt lat="32.3300279" lon="-110.6212764"><ele>1218.0</ele><time>2026-04-10T00:18:39.998Z</time></trkpt><trkpt lat="32.3300842" lon="-110.6213499"><ele>1217.0</ele><time>2026-04-10T00:18:40.998Z</time></trkpt><trkpt lat="32.3301395" lon="-110.6214198"><ele>1216.0</ele><time>2026-04-10T00:18:41.998Z</time></trkpt><trkpt lat="32.3301988" lon="-110.6214855"><ele>1215.5714285714284</ele><time>2026-04-10T00:18:42.998Z</time></trkpt><trkpt lat="32.3302577" lon="-110.6215501"><ele>1215.1428571428573</ele><time>2026-04-10T00:18:43.998Z</time></trkpt><trkpt lat="32.3303163" lon="-110.6216089"><ele>1214.7142857142858</ele><time>2026-04-10T00:18:44.998Z</time></trkpt><trkpt lat="32.3303761" lon="-110.6216598"><ele>1214.2857142857142</ele><time>2026-04-10T00:18:45.998Z</time></trkpt><trkpt lat="32.3304364" lon="-110.621705"><ele>1213.8571428571427</ele><time>2026-04-10T00:18:46.997Z</time></trkpt><trkpt lat="32.330502" lon="-110.621745"><ele>1213.4285714285716</ele><time>2026-04-10T00:18:47.998Z</time></trkpt><trkpt lat="32.3305666" lon="-110.6217687"><ele>1213.0</ele><time>2026-04-10T00:18:48.998Z</time></trkpt><trkpt lat="32.3306315" lon="-110.621777"><ele>1213.0</ele><time>2026-04-10T00:18:49.998Z</time></trkpt><trkpt lat="32.3306944" lon="-110.6217657"><ele>1213.0</ele><time>2026-04-10T00:18:50.998Z</time></trkpt><trkpt lat="32.3307549" lon="-110.6217346"><ele>1213.0</ele><time>2026-04-10T00:18:51.998Z</time></trkpt><trkpt lat="32.3308167" lon="-110.6216811"><ele>1213.0</ele><time>2026-04-10T00:18:52.999Z</time></trkpt><trkpt lat="32.3308797" lon="-110.6216183"><ele>1213.0</ele><time>2026-04-10T00:18:53.998Z</time></trkpt><trkpt lat="32.3309479" lon="-110.6215476"><ele>1213.0</ele><time>2026-04-10T00:18:54.998Z</time></trkpt><trkpt lat="32.3310307" lon="-110.621485"><ele>1213.0</ele><time>2026-04-10T00:18:55.998Z</time></trkpt><trkpt lat="32.3311151" lon="-110.6214275"><ele>1213.0</ele><time>2026-04-10T00:18:56.998Z</time></trkpt><trkpt lat="32.3311967" lon="-110.6213895"><ele>1213.0</ele><time>2026-04-10T00:18:57.999Z</time></trkpt><trkpt lat="32.3312765" lon="-110.6213694"><ele>1213.0</ele><time>2026-04-10T00:18:58.999Z</time></trkpt><trkpt lat="32.3313579" lon="-110.6213668"><ele>1213.0</ele><time>2026-04-10T00:18:59.999Z</time></trkpt><trkpt lat="32.3314365" lon="-110.6213847"><ele>1213.0</ele><time>2026-04-10T00:19:00.999Z</time></trkpt><trkpt lat="32.3315119" lon="-110.6214218"><ele>1214.0</ele><time>2026-04-10T00:19:01.999Z</time></trkpt><trkpt lat="32.331586" lon="-110.6214796"><ele>1215.0</ele><time>2026-04-10T00:19:02.999Z</time></trkpt><trkpt lat="32.3316592" lon="-110.6215412"><ele>1216.0</ele><time>2026-04-10T00:19:03.999Z</time></trkpt><trkpt lat="32.331738" lon="-110.6215871"><ele>1217.0</ele><time>2026-04-10T00:19:04.998Z</time></trkpt><trkpt lat="32.3318201" lon="-110.621616"><ele>1218.0</ele><time>2026-04-10T00:19:05.998Z</time></trkpt><trkpt lat="32.3319059" lon="-110.621638"><ele>1219.0</ele><time>2026-04-10T00:19:06.999Z</time></trkpt><trkpt lat="32.3319926" lon="-110.6216571"><ele>1219.0</ele><time>2026-04-10T00:19:07.999Z</time></trkpt><trkpt lat="32.33208" lon="-110.6216779"><ele>1219.0</ele><time>2026-04-10T00:19:08.998Z</time></trkpt><trkpt lat="32.3321654" lon="-110.6217069"><ele>1219.0</ele><time>2026-04-10T00:19:09.998Z</time></trkpt><trkpt lat="32.3322441" lon="-110.6217439"><ele>1219.0</ele><time>2026-04-10T00:19:10.999Z</time></trkpt><trkpt lat="32.3323087" lon="-110.6217819"><ele>1219.0</ele><time>2026-04-10T00:19:11.998Z</time></trkpt><trkpt lat="32.3324029" lon="-110.6218579"><ele>1219.0</ele><time>2026-04-10T00:19:13.999Z</time></trkpt><trkpt lat="32.3324673" lon="-110.6218851"><ele>1219.5</ele><time>2026-04-10T00:19:15.999Z</time></trkpt><trkpt lat="32.3325393" lon="-110.6218346"><ele>1220.0</ele><time>2026-04-10T00:19:18.999Z</time></trkpt><trkpt lat="32.3325742" lon="-110.6217425"><ele>1220.5</ele><time>2026-04-10T00:19:49.999Z</time></trkpt><trkpt lat="32.3325868" lon="-110.6216426"><ele>1221.0</ele><time>2026-04-10T00:20:51.999Z</time></trkpt><trkpt lat="32.3325597" lon="-110.6215592"><ele>1221.5</ele><time>2026-04-10T00:20:53.999Z</time></trkpt><trkpt lat="32.3325532" lon="-110.6214464"><ele>1222.0</ele><time>2026-04-10T00:20:55.999Z</time></trkpt><trkpt lat="32.3325951" lon="-110.6213009"><ele>1222.0</ele><time>2026-04-10T00:20:57.999Z</time></trkpt><trkpt lat="32.3326297" lon="-110.6212224"><ele>1222.0</ele><time>2026-04-10T00:20:58.999Z</time></trkpt><trkpt lat="32.3326685" lon="-110.6211388"><ele>1222.0</ele><time>2026-04-10T00:21:00Z</time></trkpt><trkpt lat="32.3327118" lon="-110.6210488"><ele>1222.0</ele><time>2026-04-10T00:21:00.999Z</time></trkpt><trkpt lat="32.3327586" lon="-110.6209577"><ele>1222.0</ele><time>2026-04-10T00:21:01.999Z</time></trkpt><trkpt lat="32.3327986" lon="-110.6208732"><ele>1222.0</ele><time>2026-04-10T00:21:02.999Z</time></trkpt><trkpt lat="32.3328319" lon="-110.6207866"><ele>1222.0</ele><time>2026-04-10T00:21:04Z</time></trkpt><trkpt lat="32.3328562" lon="-110.620699"><ele>1222.0</ele><time>2026-04-10T00:21:05Z</time></trkpt><trkpt lat="32.3328731" lon="-110.6206102"><ele>1222.0</ele><time>2026-04-10T00:21:06Z</time></trkpt><trkpt lat="32.3328906" lon="-110.6205245"><ele>1222.0</ele><time>2026-04-10T00:21:07Z</time></trkpt><trkpt lat="32.3329189" lon="-110.6204426"><ele>1222.0</ele><time>2026-04-10T00:21:08Z</time></trkpt><trkpt lat="32.3329621" lon="-110.6203662"><ele>1222.0</ele><time>2026-04-10T00:21:09Z</time></trkpt><trkpt lat="32.3330156" lon="-110.6202962"><ele>1223.0</ele><time>2026-04-10T00:21:10Z</time></trkpt><trkpt lat="32.333074" lon="-110.6202295"><ele>1224.0</ele><time>2026-04-10T00:21:11Z</time></trkpt><trkpt lat="32.3331351" lon="-110.6201594"><ele>1225.0</ele><time>2026-04-10T00:21:12Z</time></trkpt><trkpt lat="32.3331984" lon="-110.62009"><ele>1226.0</ele><time>2026-04-10T00:21:13Z</time></trkpt><trkpt lat="32.333265" lon="-110.6200194"><ele>1227.0</ele><time>2026-04-10T00:21:14Z</time></trkpt><trkpt lat="32.3333293" lon="-110.6199535"><ele>1228.0</ele><time>2026-04-10T00:21:15Z</time></trkpt><trkpt lat="32.3333907" lon="-110.6198866"><ele>1228.0</ele><time>2026-04-10T00:21:16Z</time></trkpt><trkpt lat="32.3334514" lon="-110.6198172"><ele>1228.0</ele><time>2026-04-10T00:21:17Z</time></trkpt><trkpt lat="32.3335124" lon="-110.6197502"><ele>1228.0</ele><time>2026-04-10T00:21:18Z</time></trkpt><trkpt lat="32.3335714" lon="-110.6196816"><ele>1228.0</ele><time>2026-04-10T00:21:19Z</time></trkpt><trkpt lat="32.3336204" lon="-110.6196095"><ele>1228.0</ele><time>2026-04-10T00:21:20Z</time></trkpt><trkpt lat="32.333658" lon="-110.6195345"><ele>1228.0</ele><time>2026-04-10T00:21:20.999Z</time></trkpt><trkpt lat="32.3336944" lon="-110.6194621"><ele>1227.6666666666665</ele><time>2026-04-10T00:21:21.999Z</time></trkpt><trkpt lat="32.3337317" lon="-110.6193901"><ele>1227.3333333333333</ele><time>2026-04-10T00:21:23Z</time></trkpt><trkpt lat="32.3337788" lon="-110.6193238"><ele>1227.0</ele><time>2026-04-10T00:21:24Z</time></trkpt><trkpt lat="32.3338233" lon="-110.6192538"><ele>1226.6666666666667</ele><time>2026-04-10T00:21:25Z</time></trkpt><trkpt lat="32.3338543" lon="-110.6191765"><ele>1226.3333333333335</ele><time>2026-04-10T00:21:25.999Z</time></trkpt><trkpt lat="32.33387" lon="-110.6190861"><ele>1226.0</ele><time>2026-04-10T00:21:27Z</time></trkpt><trkpt lat="32.3338793" lon="-110.6189846"><ele>1226.0</ele><time>2026-04-10T00:21:28Z</time></trkpt><trkpt lat="32.333892" lon="-110.618884"><ele>1226.0</ele><time>2026-04-10T00:21:29Z</time></trkpt><trkpt lat="32.3339127" lon="-110.6187895"><ele>1226.0</ele><time>2026-04-10T00:21:30Z</time></trkpt><trkpt lat="32.3339374" lon="-110.6186964"><ele>1226.0</ele><time>2026-04-10T00:21:31Z</time></trkpt><trkpt lat="32.333954" lon="-110.6186056"><ele>1226.0</ele><time>2026-04-10T00:21:32Z</time></trkpt><trkpt lat="32.333961" lon="-110.6185155"><ele>1226.0</ele><time>2026-04-10T00:21:32.999Z</time></trkpt><trkpt lat="32.3339665" lon="-110.6184321"><ele>1225.1666666666667</ele><time>2026-04-10T00:21:34Z</time></trkpt><trkpt lat="32.333983" lon="-110.6183528"><ele>1224.3333333333335</ele><time>2026-04-10T00:21:35Z</time></trkpt><trkpt lat="32.3340071" lon="-110.6182813"><ele>1223.5</ele><time>2026-04-10T00:21:36Z</time></trkpt><trkpt lat="32.3340531" lon="-110.618221"><ele>1222.6666666666667</ele><time>2026-04-10T00:21:37Z</time></trkpt><trkpt lat="32.3341002" lon="-110.618161"><ele>1221.8333333333333</ele><time>2026-04-10T00:21:38Z</time></trkpt><trkpt lat="32.3341378" lon="-110.6180958"><ele>1221.0</ele><time>2026-04-10T00:21:39Z</time></trkpt><trkpt lat="32.3341301" lon="-110.6179476"><ele>1220.9999999999998</ele><time>2026-04-10T00:21:41Z</time></trkpt><trkpt lat="32.3340966" lon="-110.6178774"><ele>1221.0</ele><time>2026-04-10T00:21:42Z</time></trkpt><trkpt lat="32.3340543" lon="-110.6178061"><ele>1221.0</ele><time>2026-04-10T00:21:43Z</time></trkpt><trkpt lat="32.3340131" lon="-110.6177358"><ele>1221.0</ele><time>2026-04-10T00:21:44Z</time></trkpt><trkpt lat="32.3339831" lon="-110.6176634"><ele>1221.0</ele><time>2026-04-10T00:21:45Z</time></trkpt><trkpt lat="32.3339575" lon="-110.6175867"><ele>1220.9999999999998</ele><time>2026-04-10T00:21:45.999Z</time></trkpt><trkpt lat="32.3339446" lon="-110.6175037"><ele>1221.0</ele><time>2026-04-10T00:21:47Z</time></trkpt><trkpt lat="32.3339357" lon="-110.6174274"><ele>1221.0</ele><time>2026-04-10T00:21:48Z</time></trkpt><trkpt lat="32.3339532" lon="-110.6172754"><ele>1221.0</ele><time>2026-04-10T00:21:49.999Z</time></trkpt><trkpt lat="32.3339842" lon="-110.6171924"><ele>1221.0</ele><time>2026-04-10T00:21:51Z</time></trkpt><trkpt lat="32.3340123" lon="-110.6171137"><ele>1221.0</ele><time>2026-04-10T00:21:52Z</time></trkpt><trkpt lat="32.334037" lon="-110.6170367"><ele>1221.0</ele><time>2026-04-10T00:21:53Z</time></trkpt><trkpt lat="32.334041" lon="-110.6169524"><ele>1221.0</ele><time>2026-04-10T00:21:54Z</time></trkpt><trkpt lat="32.3340427" lon="-110.616859"><ele>1220.2</ele><time>2026-04-10T00:21:54.999Z</time></trkpt><trkpt lat="32.3340435" lon="-110.6167628"><ele>1219.3999999999999</ele><time>2026-04-10T00:21:56Z</time></trkpt><trkpt lat="32.3340432" lon="-110.6166627"><ele>1218.6</ele><time>2026-04-10T00:21:57Z</time></trkpt><trkpt lat="32.334021" lon="-110.6164717"><ele>1217.8</ele><time>2026-04-10T00:21:58.999Z</time></trkpt><trkpt lat="32.3340021" lon="-110.6163876"><ele>1217.0</ele><time>2026-04-10T00:22:00Z</time></trkpt><trkpt lat="32.3339775" lon="-110.6163114"><ele>1217.0</ele><time>2026-04-10T00:22:01Z</time></trkpt><trkpt lat="32.333955" lon="-110.6162377"><ele>1217.0</ele><time>2026-04-10T00:22:02Z</time></trkpt><trkpt lat="32.333928" lon="-110.6161667"><ele>1217.0</ele><time>2026-04-10T00:22:03Z</time></trkpt><trkpt lat="32.3338626" lon="-110.6160513"><ele>1217.0</ele><time>2026-04-10T00:22:05Z</time></trkpt><trkpt lat="32.3338384" lon="-110.6159433"><ele>1217.0</ele><time>2026-04-10T00:22:07Z</time></trkpt><trkpt lat="32.3338478" lon="-110.6158693"><ele>1217.0</ele><time>2026-04-10T00:22:08Z</time></trkpt><trkpt lat="32.3338644" lon="-110.6157767"><ele>1216.6</ele><time>2026-04-10T00:22:09Z</time></trkpt><trkpt lat="32.333877" lon="-110.6156691"><ele>1216.2</ele><time>2026-04-10T00:22:10Z</time></trkpt><trkpt lat="32.3338902" lon="-110.6155577"><ele>1215.8</ele><time>2026-04-10T00:22:11Z</time></trkpt><trkpt lat="32.3339081" lon="-110.6154514"><ele>1215.4</ele><time>2026-04-10T00:22:12Z</time></trkpt><trkpt lat="32.3339293" lon="-110.6153489"><ele>1215.0</ele><time>2026-04-10T00:22:13Z</time></trkpt><trkpt lat="32.3339501" lon="-110.6152483"><ele>1214.5</ele><time>2026-04-10T00:22:14Z</time></trkpt><trkpt lat="32.3339692" lon="-110.6151455"><ele>1214.0</ele><time>2026-04-10T00:22:15Z</time></trkpt><trkpt lat="32.333983" lon="-110.6150364"><ele>1213.5</ele><time>2026-04-10T00:22:15.999Z</time></trkpt><trkpt lat="32.333996" lon="-110.6149293"><ele>1213.0</ele><time>2026-04-10T00:22:16.999Z</time></trkpt><trkpt lat="32.3340208" lon="-110.6148273"><ele>1212.5</ele><time>2026-04-10T00:22:17.999Z</time></trkpt><trkpt lat="32.3340497" lon="-110.6147334"><ele>1212.0</ele><time>2026-04-10T00:22:18.999Z</time></trkpt><trkpt lat="32.3340727" lon="-110.6146382"><ele>1212.0</ele><time>2026-04-10T00:22:19.999Z</time></trkpt><trkpt lat="32.3340819" lon="-110.614545"><ele>1212.0</ele><time>2026-04-10T00:22:21Z</time></trkpt><trkpt lat="32.3340743" lon="-110.6144542"><ele>1212.0</ele><time>2026-04-10T00:22:22Z</time></trkpt><trkpt lat="32.3340646" lon="-110.6143631"><ele>1212.0</ele><time>2026-04-10T00:22:23Z</time></trkpt><trkpt lat="32.3340525" lon="-110.6142713"><ele>1212.0</ele><time>2026-04-10T00:22:24Z</time></trkpt><trkpt lat="32.3340505" lon="-110.6141715"><ele>1212.0</ele><time>2026-04-10T00:22:24.999Z</time></trkpt><trkpt lat="32.3340577" lon="-110.6140672"><ele>1211.6666666666667</ele><time>2026-04-10T00:22:26Z</time></trkpt><trkpt lat="32.3340624" lon="-110.6139632"><ele>1211.3333333333333</ele><time>2026-04-10T00:22:26.999Z</time></trkpt><trkpt lat="32.3340683" lon="-110.6138619"><ele>1211.0</ele><time>2026-04-10T00:22:28Z</time></trkpt><trkpt lat="32.334081" lon="-110.6137723"><ele>1210.6666666666665</ele><time>2026-04-10T00:22:29Z</time></trkpt><trkpt lat="32.3341035" lon="-110.6136962"><ele>1210.3333333333333</ele><time>2026-04-10T00:22:30Z</time></trkpt><trkpt lat="32.3341405" lon="-110.6136332"><ele>1210.0</ele><time>2026-04-10T00:22:31Z</time></trkpt><trkpt lat="32.3341849" lon="-110.6135735"><ele>1210.0</ele><time>2026-04-10T00:22:32Z</time></trkpt><trkpt lat="32.3342387" lon="-110.6135164"><ele>1210.0</ele><time>2026-04-10T00:22:33Z</time></trkpt><trkpt lat="32.3342813" lon="-110.6134548"><ele>1210.0</ele><time>2026-04-10T00:22:34Z</time></trkpt><trkpt lat="32.3343169" lon="-110.6133786"><ele>1210.0</ele><time>2026-04-10T00:22:35Z</time></trkpt><trkpt lat="32.3343464" lon="-110.6132838"><ele>1210.0</ele><time>2026-04-10T00:22:36Z</time></trkpt><trkpt lat="32.3343702" lon="-110.6131782"><ele>1210.0</ele><time>2026-04-10T00:22:37Z</time></trkpt><trkpt lat="32.3343938" lon="-110.6130765"><ele>1210.0</ele><time>2026-04-10T00:22:38Z</time></trkpt><trkpt lat="32.3344209" lon="-110.6129796"><ele>1210.0</ele><time>2026-04-10T00:22:39Z</time></trkpt><trkpt lat="32.3344517" lon="-110.6128842"><ele>1210.0</ele><time>2026-04-10T00:22:40Z</time></trkpt><trkpt lat="32.3344815" lon="-110.6127892"><ele>1210.0</ele><time>2026-04-10T00:22:41Z</time></trkpt><trkpt lat="32.334503" lon="-110.6126924"><ele>1210.0</ele><time>2026-04-10T00:22:42Z</time></trkpt><trkpt lat="32.3345208" lon="-110.6125963"><ele>1210.0</ele><time>2026-04-10T00:22:43Z</time></trkpt><trkpt lat="32.3345237" lon="-110.6124974"><ele>1209.857142857143</ele><time>2026-04-10T00:22:44Z</time></trkpt><trkpt lat="32.3345109" lon="-110.6124108"><ele>1209.7142857142858</ele><time>2026-04-10T00:22:44.999Z</time></trkpt><trkpt lat="32.3345019" lon="-110.6123286"><ele>1209.5714285714284</ele><time>2026-04-10T00:22:45.999Z</time></trkpt><trkpt lat="32.3345065" lon="-110.6122491"><ele>1209.4285714285716</ele><time>2026-04-10T00:22:47Z</time></trkpt><trkpt lat="32.3345301" lon="-110.612173"><ele>1209.2857142857144</ele><time>2026-04-10T00:22:48Z</time></trkpt><trkpt lat="32.3345731" lon="-110.6121022"><ele>1209.142857142857</ele><time>2026-04-10T00:22:49Z</time></trkpt><trkpt lat="32.3346155" lon="-110.6120341"><ele>1209.0</ele><time>2026-04-10T00:22:50Z</time></trkpt><trkpt lat="32.3346438" lon="-110.6119634"><ele>1209.3333333333333</ele><time>2026-04-10T00:22:51Z</time></trkpt><trkpt lat="32.3346539" lon="-110.6118878"><ele>1209.6666666666667</ele><time>2026-04-10T00:22:52Z</time></trkpt><trkpt lat="32.3346462" lon="-110.6118034"><ele>1210.0</ele><time>2026-04-10T00:22:53Z</time></trkpt><trkpt lat="32.3346252" lon="-110.6117074"><ele>1210.3333333333335</ele><time>2026-04-10T00:22:54Z</time></trkpt><trkpt lat="32.3346053" lon="-110.6116009"><ele>1210.6666666666667</ele><time>2026-04-10T00:22:54.999Z</time></trkpt><trkpt lat="32.3345988" lon="-110.6114922"><ele>1211.0</ele><time>2026-04-10T00:22:55.999Z</time></trkpt><trkpt lat="32.3346002" lon="-110.6113873"><ele>1211.0</ele><time>2026-04-10T00:22:57Z</time></trkpt><trkpt lat="32.334597" lon="-110.6112862"><ele>1211.0</ele><time>2026-04-10T00:22:58Z</time></trkpt><trkpt lat="32.3345883" lon="-110.6111887"><ele>1211.0</ele><time>2026-04-10T00:22:59Z</time></trkpt><trkpt lat="32.334569" lon="-110.6110974"><ele>1211.0</ele><time>2026-04-10T00:23:00Z</time></trkpt><trkpt lat="32.3345632" lon="-110.6110014"><ele>1211.0</ele><time>2026-04-10T00:23:01Z</time></trkpt><trkpt lat="32.3345733" lon="-110.6108993"><ele>1211.0</ele><time>2026-04-10T00:23:02Z</time></trkpt><trkpt lat="32.3345893" lon="-110.6107917"><ele>1210.6</ele><time>2026-04-10T00:23:03Z</time></trkpt><trkpt lat="32.3345974" lon="-110.6106725"><ele>1210.1999999999998</ele><time>2026-04-10T00:23:03.999Z</time></trkpt><trkpt lat="32.3345989" lon="-110.6105538"><ele>1209.8000000000002</ele><time>2026-04-10T00:23:05Z</time></trkpt><trkpt lat="32.3346027" lon="-110.6104442"><ele>1209.4</ele><time>2026-04-10T00:23:06Z</time></trkpt><trkpt lat="32.3346091" lon="-110.6103378"><ele>1209.0</ele><time>2026-04-10T00:23:07Z</time></trkpt><trkpt lat="32.3346135" lon="-110.6102348"><ele>1208.2857142857142</ele><time>2026-04-10T00:23:08Z</time></trkpt><trkpt lat="32.3346118" lon="-110.61014"><ele>1207.5714285714287</ele><time>2026-04-10T00:23:09Z</time></trkpt><trkpt lat="32.334614" lon="-110.6100505"><ele>1206.857142857143</ele><time>2026-04-10T00:23:10Z</time></trkpt><trkpt lat="32.3346314" lon="-110.6099674"><ele>1206.142857142857</ele><time>2026-04-10T00:23:11.001Z</time></trkpt><trkpt lat="32.3346603" lon="-110.6098878"><ele>1205.4285714285716</ele><time>2026-04-10T00:23:12.001Z</time></trkpt><trkpt lat="32.334693" lon="-110.6098101"><ele>1204.7142857142858</ele><time>2026-04-10T00:23:13.001Z</time></trkpt><trkpt lat="32.3347152" lon="-110.6097317"><ele>1204.0</ele><time>2026-04-10T00:23:14.001Z</time></trkpt><trkpt lat="32.3347205" lon="-110.6096452"><ele>1204.0</ele><time>2026-04-10T00:23:15.001Z</time></trkpt><trkpt lat="32.3347129" lon="-110.6095508"><ele>1204.0</ele><time>2026-04-10T00:23:16.001Z</time></trkpt><trkpt lat="32.3346981" lon="-110.6094538"><ele>1204.0</ele><time>2026-04-10T00:23:17.001Z</time></trkpt><trkpt lat="32.334686" lon="-110.6093583"><ele>1204.0</ele><time>2026-04-10T00:23:18.001Z</time></trkpt><trkpt lat="32.3346749" lon="-110.6092642"><ele>1204.0</ele><time>2026-04-10T00:23:19.001Z</time></trkpt><trkpt lat="32.3346682" lon="-110.6091725"><ele>1204.0</ele><time>2026-04-10T00:23:20.001Z</time></trkpt><trkpt lat="32.3346412" lon="-110.6091041"><ele>1203.0</ele><time>2026-04-10T00:23:21.001Z</time></trkpt><trkpt lat="32.3345734" lon="-110.608979"><ele>1202.0</ele><time>2026-04-10T00:23:23.001Z</time></trkpt><trkpt lat="32.3345431" lon="-110.6089134"><ele>1201.0</ele><time>2026-04-10T00:23:24.001Z</time></trkpt><trkpt lat="32.3345155" lon="-110.6088448"><ele>1200.0</ele><time>2026-04-10T00:23:25.001Z</time></trkpt><trkpt lat="32.3344869" lon="-110.6087224"><ele>1199.0</ele><time>2026-04-10T00:23:27Z</time></trkpt><trkpt lat="32.3344916" lon="-110.6086017"><ele>1198.5714285714287</ele><time>2026-04-10T00:23:29.001Z</time></trkpt><trkpt lat="32.3345098" lon="-110.6085302"><ele>1198.142857142857</ele><time>2026-04-10T00:23:30.001Z</time></trkpt><trkpt lat="32.3345344" lon="-110.6084604"><ele>1197.7142857142858</ele><time>2026-04-10T00:23:31.001Z</time></trkpt><trkpt lat="32.3345637" lon="-110.6083869"><ele>1197.2857142857142</ele><time>2026-04-10T00:23:32.001Z</time></trkpt><trkpt lat="32.3345877" lon="-110.6083141"><ele>1196.857142857143</ele><time>2026-04-10T00:23:33.001Z</time></trkpt><trkpt lat="32.3346057" lon="-110.6082419"><ele>1196.4285714285713</ele><time>2026-04-10T00:23:34.001Z</time></trkpt><trkpt lat="32.334626" lon="-110.6081187"><ele>1196.0</ele><time>2026-04-10T00:23:36.001Z</time></trkpt><trkpt lat="32.3346482" lon="-110.6080308"><ele>1196.0</ele><time>2026-04-10T00:23:38.001Z</time></trkpt><trkpt lat="32.3346898" lon="-110.6079429"><ele>1196.0</ele><time>2026-04-10T00:23:41.001Z</time></trkpt><trkpt lat="32.3346237" lon="-110.6078976"><ele>1196.0</ele><time>2026-04-10T00:24:15.001Z</time></trkpt><trkpt lat="32.3345616" lon="-110.6079358"><ele>1196.0</ele><time>2026-04-10T00:24:18.001Z</time></trkpt><trkpt lat="32.334503" lon="-110.6079675"><ele>1196.0</ele><time>2026-04-10T00:27:50.003Z</time></trkpt><trkpt lat="32.3344408" lon="-110.6079894"><ele>1196.0</ele><time>2026-04-10T00:27:56.003Z</time></trkpt><trkpt lat="32.3343707" lon="-110.6079975"><ele>1196.0</ele><time>2026-04-10T00:28:02.002Z</time></trkpt><trkpt lat="32.334322" lon="-110.607947"><ele>1196.0</ele><time>2026-04-10T00:28:09.003Z</time></trkpt><trkpt lat="32.3342914" lon="-110.6078703"><ele>1196.0</ele><time>2026-04-10T00:28:16.003Z</time></trkpt><trkpt lat="32.33427" lon="-110.6077989"><ele>1196.0</ele><time>2026-04-10T00:28:24.003Z</time></trkpt><trkpt lat="32.334217" lon="-110.6077557"><ele>1196.0</ele><time>2026-04-10T00:28:30.003Z</time></trkpt><trkpt lat="32.3341543" lon="-110.6077484"><ele>1196.0</ele><time>2026-04-10T00:29:26.004Z</time></trkpt><trkpt lat="32.3342281" lon="-110.6077652"><ele>1196.0</ele><time>2026-04-10T00:30:18.004Z</time></trkpt><trkpt lat="32.3342817" lon="-110.6078182"><ele>1196.0</ele><time>2026-04-10T00:30:28.004Z</time></trkpt><trkpt lat="32.3343164" lon="-110.6078904"><ele>1196.0</ele><time>2026-04-10T00:30:35.004Z</time></trkpt><trkpt lat="32.3343508" lon="-110.6079565"><ele>1196.0</ele><time>2026-04-10T00:30:42.005Z</time></trkpt><trkpt lat="32.3344158" lon="-110.6079862"><ele>1196.0</ele><time>2026-04-10T00:30:50.004Z</time></trkpt><trkpt lat="32.3344779" lon="-110.6079526"><ele>1196.0</ele><time>2026-04-10T00:30:57.004Z</time></trkpt><trkpt lat="32.334555" lon="-110.6079318"><ele>1196.0</ele><time>2026-04-10T00:34:27.126Z</time></trkpt><trkpt lat="32.3345961" lon="-110.60802"><ele>1196.0</ele><time>2026-04-10T00:34:32.072Z</time></trkpt><trkpt lat="32.3346576" lon="-110.6080026"><ele>1196.0</ele><time>2026-04-10T00:34:34.115Z</time></trkpt><trkpt lat="32.3346931" lon="-110.6079028"><ele>1195.8333333333335</ele><time>2026-04-10T00:34:36.158Z</time></trkpt><trkpt lat="32.3346986" lon="-110.6078078"><ele>1195.6666666666667</ele><time>2026-04-10T00:34:38.094Z</time></trkpt><trkpt lat="32.334727" lon="-110.6077322"><ele>1195.5</ele><time>2026-04-10T00:34:41.104Z</time></trkpt><trkpt lat="32.3347502" lon="-110.60765"><ele>1195.3333333333333</ele><time>2026-04-10T00:35:14.007Z</time></trkpt><trkpt lat="32.3347293" lon="-110.6075558"><ele>1195.1666666666665</ele><time>2026-04-10T00:35:16.007Z</time></trkpt><trkpt lat="32.3346924" lon="-110.6074475"><ele>1195.0</ele><time>2026-04-10T00:35:18.007Z</time></trkpt><trkpt lat="32.3346469" lon="-110.6073254"><ele>1195.0</ele><time>2026-04-10T00:35:20.007Z</time></trkpt><trkpt lat="32.3346009" lon="-110.607193"><ele>1195.0</ele><time>2026-04-10T00:35:22.007Z</time></trkpt><trkpt lat="32.3345511" lon="-110.6070661"><ele>1195.0</ele><time>2026-04-10T00:35:24.007Z</time></trkpt><trkpt lat="32.3345198" lon="-110.6069976"><ele>1195.0</ele><time>2026-04-10T00:35:25.007Z</time></trkpt><trkpt lat="32.3344842" lon="-110.606925"><ele>1195.0</ele><time>2026-04-10T00:35:26.006Z</time></trkpt><trkpt lat="32.334447" lon="-110.6068565"><ele>1195.0</ele><time>2026-04-10T00:35:27.007Z</time></trkpt><trkpt lat="32.334412" lon="-110.6067919"><ele>1194.5</ele><time>2026-04-10T00:35:28.006Z</time></trkpt><trkpt lat="32.3343896" lon="-110.6066533"><ele>1194.0</ele><time>2026-04-10T00:35:30.007Z</time></trkpt><trkpt lat="32.3343854" lon="-110.6065197"><ele>1193.5</ele><time>2026-04-10T00:35:32.006Z</time></trkpt><trkpt lat="32.3343327" lon="-110.606401"><ele>1193.0</ele><time>2026-04-10T00:35:34.007Z</time></trkpt><trkpt lat="32.3342819" lon="-110.6062801"><ele>1192.9999999999998</ele><time>2026-04-10T00:35:36.007Z</time></trkpt><trkpt lat="32.3342709" lon="-110.6062061"><ele>1193.0</ele><time>2026-04-10T00:35:37.007Z</time></trkpt><trkpt lat="32.33427" lon="-110.6061274"><ele>1193.0</ele><time>2026-04-10T00:35:38.006Z</time></trkpt><trkpt lat="32.3342768" lon="-110.6060499"><ele>1193.0</ele><time>2026-04-10T00:35:39.007Z</time></trkpt><trkpt lat="32.3342851" lon="-110.6059671"><ele>1193.0</ele><time>2026-04-10T00:35:40.007Z</time></trkpt><trkpt lat="32.3342931" lon="-110.6058799"><ele>1192.9999999999998</ele><time>2026-04-10T00:35:41.007Z</time></trkpt><trkpt lat="32.3343068" lon="-110.6057945"><ele>1193.0</ele><time>2026-04-10T00:35:42.007Z</time></trkpt><trkpt lat="32.3343275" lon="-110.6057109"><ele>1193.142857142857</ele><time>2026-04-10T00:35:43.007Z</time></trkpt><trkpt lat="32.3343556" lon="-110.6056326"><ele>1193.2857142857142</ele><time>2026-04-10T00:35:44.007Z</time></trkpt><trkpt lat="32.3343943" lon="-110.6055701"><ele>1193.4285714285716</ele><time>2026-04-10T00:35:45.006Z</time></trkpt><trkpt lat="32.3344439" lon="-110.6055175"><ele>1193.5714285714284</ele><time>2026-04-10T00:35:46.007Z</time></trkpt><trkpt lat="32.3344981" lon="-110.6054704"><ele>1193.7142857142858</ele><time>2026-04-10T00:35:47.006Z</time></trkpt><trkpt lat="32.3345441" lon="-110.6054177"><ele>1193.857142857143</ele><time>2026-04-10T00:35:48.007Z</time></trkpt><trkpt lat="32.3345803" lon="-110.6053513"><ele>1194.0</ele><time>2026-04-10T00:35:49.007Z</time></trkpt><trkpt lat="32.3346058" lon="-110.6052674"><ele>1194.5</ele><time>2026-04-10T00:35:50.006Z</time></trkpt><trkpt lat="32.3346214" lon="-110.6051753"><ele>1195.0</ele><time>2026-04-10T00:35:51.007Z</time></trkpt><trkpt lat="32.3346277" lon="-110.6050788"><ele>1195.5</ele><time>2026-04-10T00:35:52.007Z</time></trkpt><trkpt lat="32.3346282" lon="-110.6049752"><ele>1196.0</ele><time>2026-04-10T00:35:53.007Z</time></trkpt><trkpt lat="32.3346267" lon="-110.6048717"><ele>1196.5</ele><time>2026-04-10T00:35:54.007Z</time></trkpt><trkpt lat="32.3346306" lon="-110.6047725"><ele>1197.0</ele><time>2026-04-10T00:35:55.007Z</time></trkpt><trkpt lat="32.3346441" lon="-110.6046771"><ele>1197.0</ele><time>2026-04-10T00:35:56.007Z</time></trkpt><trkpt lat="32.3346652" lon="-110.6045853"><ele>1197.0</ele><time>2026-04-10T00:35:57.007Z</time></trkpt><trkpt lat="32.3346887" lon="-110.604502"><ele>1197.0</ele><time>2026-04-10T00:35:58.006Z</time></trkpt><trkpt lat="32.3347073" lon="-110.6044267"><ele>1197.0</ele><time>2026-04-10T00:35:59.007Z</time></trkpt><trkpt lat="32.3347221" lon="-110.6042906"><ele>1197.0</ele><time>2026-04-10T00:36:01.007Z</time></trkpt><trkpt lat="32.3346886" lon="-110.6041443"><ele>1197.0</ele><time>2026-04-10T00:36:03.007Z</time></trkpt><trkpt lat="32.3346655" lon="-110.6040694"><ele>1197.0</ele><time>2026-04-10T00:36:04.007Z</time></trkpt><trkpt lat="32.3346427" lon="-110.6039864"><ele>1197.0</ele><time>2026-04-10T00:36:05.007Z</time></trkpt><trkpt lat="32.3346177" lon="-110.6039008"><ele>1197.0</ele><time>2026-04-10T00:36:06.007Z</time></trkpt><trkpt lat="32.3345909" lon="-110.6038159"><ele>1197.0</ele><time>2026-04-10T00:36:07.007Z</time></trkpt><trkpt lat="32.334576" lon="-110.603727"><ele>1197.0</ele><time>2026-04-10T00:36:08.007Z</time></trkpt><trkpt lat="32.3345715" lon="-110.603641"><ele>1197.0</ele><time>2026-04-10T00:36:09.007Z</time></trkpt><trkpt lat="32.3345754" lon="-110.6035589"><ele>1197.0</ele><time>2026-04-10T00:36:10.007Z</time></trkpt><trkpt lat="32.3345821" lon="-110.6034771"><ele>1197.0</ele><time>2026-04-10T00:36:11.007Z</time></trkpt><trkpt lat="32.3346086" lon="-110.6033955"><ele>1197.0</ele><time>2026-04-10T00:36:12.007Z</time></trkpt><trkpt lat="32.3346451" lon="-110.6033077"><ele>1197.0</ele><time>2026-04-10T00:36:13.007Z</time></trkpt><trkpt lat="32.3346728" lon="-110.6032227"><ele>1197.0</ele><time>2026-04-10T00:36:14.007Z</time></trkpt><trkpt lat="32.3346913" lon="-110.6031371"><ele>1197.0</ele><time>2026-04-10T00:36:15.007Z</time></trkpt><trkpt lat="32.3346955" lon="-110.6030539"><ele>1197.0</ele><time>2026-04-10T00:36:16.007Z</time></trkpt><trkpt lat="32.334684" lon="-110.6029758"><ele>1197.0</ele><time>2026-04-10T00:36:17.007Z</time></trkpt><trkpt lat="32.3346519" lon="-110.6029093"><ele>1197.0</ele><time>2026-04-10T00:36:18.007Z</time></trkpt><trkpt lat="32.3346167" lon="-110.6028437"><ele>1197.0</ele><time>2026-04-10T00:36:19.007Z</time></trkpt><trkpt lat="32.3345983" lon="-110.6027172"><ele>1197.0</ele><time>2026-04-10T00:36:21.007Z</time></trkpt><trkpt lat="32.3346055" lon="-110.602639"><ele>1197.0</ele><time>2026-04-10T00:36:22.007Z</time></trkpt><trkpt lat="32.3346057" lon="-110.6025575"><ele>1197.0</ele><time>2026-04-10T00:36:23.007Z</time></trkpt><trkpt lat="32.334608" lon="-110.6024745"><ele>1197.0</ele><time>2026-04-10T00:36:24.007Z</time></trkpt><trkpt lat="32.3346257" lon="-110.6023935"><ele>1196.6666666666667</ele><time>2026-04-10T00:36:25.007Z</time></trkpt><trkpt lat="32.3346596" lon="-110.6023091"><ele>1196.3333333333333</ele><time>2026-04-10T00:36:26.007Z</time></trkpt><trkpt lat="32.3347011" lon="-110.6022212"><ele>1196.0</ele><time>2026-04-10T00:36:27.007Z</time></trkpt><trkpt lat="32.3347386" lon="-110.6021322"><ele>1195.6666666666665</ele><time>2026-04-10T00:36:28.007Z</time></trkpt><trkpt lat="32.334768" lon="-110.6020441"><ele>1195.3333333333333</ele><time>2026-04-10T00:36:29.007Z</time></trkpt><trkpt lat="32.3347872" lon="-110.601957"><ele>1195.0</ele><time>2026-04-10T00:36:30.007Z</time></trkpt><trkpt lat="32.3348005" lon="-110.6018682"><ele>1194.8333333333333</ele><time>2026-04-10T00:36:31.007Z</time></trkpt><trkpt lat="32.3348132" lon="-110.6017711"><ele>1194.6666666666665</ele><time>2026-04-10T00:36:32.007Z</time></trkpt><trkpt lat="32.3348284" lon="-110.6016707"><ele>1194.5</ele><time>2026-04-10T00:36:33.007Z</time></trkpt><trkpt lat="32.3348502" lon="-110.6015732"><ele>1194.3333333333333</ele><time>2026-04-10T00:36:34.007Z</time></trkpt><trkpt lat="32.3348731" lon="-110.6014811"><ele>1194.1666666666667</ele><time>2026-04-10T00:36:35.006Z</time></trkpt><trkpt lat="32.3348923" lon="-110.6013969"><ele>1194.0</ele><time>2026-04-10T00:36:36.007Z</time></trkpt><trkpt lat="32.3348926" lon="-110.6013198"><ele>1194.0</ele><time>2026-04-10T00:36:37.007Z</time></trkpt><trkpt lat="32.3348386" lon="-110.6011854"><ele>1194.0</ele><time>2026-04-10T00:36:39.007Z</time></trkpt><trkpt lat="32.3347906" lon="-110.6011264"><ele>1194.0</ele><time>2026-04-10T00:36:40.007Z</time></trkpt><trkpt lat="32.3347482" lon="-110.601063"><ele>1194.0</ele><time>2026-04-10T00:36:41.007Z</time></trkpt><trkpt lat="32.3347227" lon="-110.6009935"><ele>1194.0</ele><time>2026-04-10T00:36:42.007Z</time></trkpt><trkpt lat="32.3347154" lon="-110.6008596"><ele>1194.0</ele><time>2026-04-10T00:36:44.007Z</time></trkpt><trkpt lat="32.3347874" lon="-110.6007774"><ele>1194.1428571428573</ele><time>2026-04-10T00:36:46.007Z</time></trkpt><trkpt lat="32.3348477" lon="-110.60075"><ele>1194.2857142857142</ele><time>2026-04-10T00:36:47.007Z</time></trkpt><trkpt lat="32.3349146" lon="-110.6007156"><ele>1194.4285714285716</ele><time>2026-04-10T00:36:48.007Z</time></trkpt><trkpt lat="32.3349749" lon="-110.6006623"><ele>1194.5714285714287</ele><time>2026-04-10T00:36:49.007Z</time></trkpt><trkpt lat="32.3350217" lon="-110.6006001"><ele>1194.7142857142858</ele><time>2026-04-10T00:36:50.006Z</time></trkpt><trkpt lat="32.3350658" lon="-110.6005347"><ele>1194.857142857143</ele><time>2026-04-10T00:36:51.007Z</time></trkpt><trkpt lat="32.3350853" lon="-110.600457"><ele>1195.0</ele><time>2026-04-10T00:36:52.007Z</time></trkpt><trkpt lat="32.3350961" lon="-110.6003776"><ele>1195.4</ele><time>2026-04-10T00:36:53.007Z</time></trkpt><trkpt lat="32.3351346" lon="-110.6002525"><ele>1195.8</ele><time>2026-04-10T00:36:55.007Z</time></trkpt><trkpt lat="32.335204" lon="-110.6001266"><ele>1196.2</ele><time>2026-04-10T00:36:57.007Z</time></trkpt><trkpt lat="32.3352564" lon="-110.6000662"><ele>1196.6</ele><time>2026-04-10T00:36:58.007Z</time></trkpt><trkpt lat="32.3353171" lon="-110.6000098"><ele>1197.0</ele><time>2026-04-10T00:36:59.007Z</time></trkpt><trkpt lat="32.335378" lon="-110.5999549"><ele>1197.0</ele><time>2026-04-10T00:37:00.007Z</time></trkpt><trkpt lat="32.335437" lon="-110.5998999"><ele>1197.0</ele><time>2026-04-10T00:37:01.007Z</time></trkpt><trkpt lat="32.3354981" lon="-110.5998449"><ele>1197.0</ele><time>2026-04-10T00:37:02.007Z</time></trkpt><trkpt lat="32.3355615" lon="-110.5997842"><ele>1197.0</ele><time>2026-04-10T00:37:03.006Z</time></trkpt><trkpt lat="32.3356188" lon="-110.5997181"><ele>1197.0</ele><time>2026-04-10T00:37:04.008Z</time></trkpt><trkpt lat="32.3356695" lon="-110.5996462"><ele>1197.0</ele><time>2026-04-10T00:37:05.007Z</time></trkpt><trkpt lat="32.3357194" lon="-110.5995727"><ele>1198.0</ele><time>2026-04-10T00:37:06.007Z</time></trkpt><trkpt lat="32.3357652" lon="-110.5995028"><ele>1199.0</ele><time>2026-04-10T00:37:07.007Z</time></trkpt><trkpt lat="32.3358106" lon="-110.5994354"><ele>1200.0</ele><time>2026-04-10T00:37:08.007Z</time></trkpt><trkpt lat="32.335859" lon="-110.5993705"><ele>1201.0</ele><time>2026-04-10T00:37:09.008Z</time></trkpt><trkpt lat="32.3359183" lon="-110.5993167"><ele>1202.0</ele><time>2026-04-10T00:37:10.008Z</time></trkpt><trkpt lat="32.3359715" lon="-110.5992677"><ele>1203.0</ele><time>2026-04-10T00:37:11.008Z</time></trkpt><trkpt lat="32.3360319" lon="-110.5991449"><ele>1203.8</ele><time>2026-04-10T00:37:13.007Z</time></trkpt><trkpt lat="32.3360645" lon="-110.59901"><ele>1204.6</ele><time>2026-04-10T00:37:15.008Z</time></trkpt><trkpt lat="32.3361164" lon="-110.598903"><ele>1205.4</ele><time>2026-04-10T00:37:17.008Z</time></trkpt><trkpt lat="32.3361935" lon="-110.5988395"><ele>1206.2</ele><time>2026-04-10T00:37:19.008Z</time></trkpt><trkpt lat="32.3363063" lon="-110.5987946"><ele>1207.0</ele><time>2026-04-10T00:37:21.007Z</time></trkpt><trkpt lat="32.3364119" lon="-110.5987103"><ele>1208.142857142857</ele><time>2026-04-10T00:37:23.007Z</time></trkpt><trkpt lat="32.3364525" lon="-110.5986476"><ele>1209.2857142857142</ele><time>2026-04-10T00:37:24.008Z</time></trkpt><trkpt lat="32.3364842" lon="-110.59857"><ele>1210.4285714285716</ele><time>2026-04-10T00:37:25.008Z</time></trkpt><trkpt lat="32.3365155" lon="-110.5984939"><ele>1211.5714285714284</ele><time>2026-04-10T00:37:26.008Z</time></trkpt><trkpt lat="32.3365579" lon="-110.5984278"><ele>1212.7142857142858</ele><time>2026-04-10T00:37:27.008Z</time></trkpt><trkpt lat="32.3366115" lon="-110.5983696"><ele>1213.857142857143</ele><time>2026-04-10T00:37:28.008Z</time></trkpt><trkpt lat="32.3366734" lon="-110.5983202"><ele>1215.0</ele><time>2026-04-10T00:37:29.008Z</time></trkpt><trkpt lat="32.3367369" lon="-110.5982678"><ele>1215.0</ele><time>2026-04-10T00:37:30.007Z</time></trkpt><trkpt lat="32.3367953" lon="-110.5982062"><ele>1215.0</ele><time>2026-04-10T00:37:31.008Z</time></trkpt><trkpt lat="32.3368481" lon="-110.5981384"><ele>1215.0</ele><time>2026-04-10T00:37:32.008Z</time></trkpt><trkpt lat="32.3368994" lon="-110.5980682"><ele>1215.0</ele><time>2026-04-10T00:37:33.008Z</time></trkpt><trkpt lat="32.3369414" lon="-110.5979927"><ele>1215.0</ele><time>2026-04-10T00:37:34.008Z</time></trkpt><trkpt lat="32.336973" lon="-110.5979053"><ele>1215.0</ele><time>2026-04-10T00:37:35.008Z</time></trkpt><trkpt lat="32.3369955" lon="-110.59781"><ele>1215.1666666666667</ele><time>2026-04-10T00:37:36.008Z</time></trkpt><trkpt lat="32.3370139" lon="-110.5977137"><ele>1215.3333333333333</ele><time>2026-04-10T00:37:37.008Z</time></trkpt><trkpt lat="32.3370328" lon="-110.597624"><ele>1215.5</ele><time>2026-04-10T00:37:38.008Z</time></trkpt><trkpt lat="32.3370574" lon="-110.5975543"><ele>1215.6666666666665</ele><time>2026-04-10T00:37:39.008Z</time></trkpt><trkpt lat="32.3371554" lon="-110.5974732"><ele>1215.8333333333333</ele><time>2026-04-10T00:37:41.008Z</time></trkpt><trkpt lat="32.3372208" lon="-110.597448"><ele>1216.0</ele><time>2026-04-10T00:37:42.008Z</time></trkpt><trkpt lat="32.3373363" lon="-110.5974401"><ele>1216.6</ele><time>2026-04-10T00:37:44.008Z</time></trkpt><trkpt lat="32.3374236" lon="-110.5974918"><ele>1217.1999999999998</ele><time>2026-04-10T00:37:46.007Z</time></trkpt><trkpt lat="32.337509" lon="-110.5974905"><ele>1217.8000000000002</ele><time>2026-04-10T00:37:48.008Z</time></trkpt><trkpt lat="32.3375391" lon="-110.5973907"><ele>1218.4</ele><time>2026-04-10T00:37:50.008Z</time></trkpt><trkpt lat="32.3375504" lon="-110.5972603"><ele>1219.0</ele><time>2026-04-10T00:37:52.008Z</time></trkpt><trkpt lat="32.3375971" lon="-110.5971222"><ele>1219.0</ele><time>2026-04-10T00:37:54.007Z</time></trkpt><trkpt lat="32.3376272" lon="-110.5970527"><ele>1219.0</ele><time>2026-04-10T00:37:55.008Z</time></trkpt><trkpt lat="32.3376575" lon="-110.5969822"><ele>1219.0</ele><time>2026-04-10T00:37:56.007Z</time></trkpt><trkpt lat="32.3376949" lon="-110.5968555"><ele>1219.0</ele><time>2026-04-10T00:37:58.008Z</time></trkpt><trkpt lat="32.3377079" lon="-110.5967138"><ele>1219.0</ele><time>2026-04-10T00:38:00.007Z</time></trkpt><trkpt lat="32.3377176" lon="-110.5966392"><ele>1219.0</ele><time>2026-04-10T00:38:01.008Z</time></trkpt><trkpt lat="32.337736" lon="-110.5965584"><ele>1219.5</ele><time>2026-04-10T00:38:02.008Z</time></trkpt><trkpt lat="32.3377608" lon="-110.5964741"><ele>1220.0</ele><time>2026-04-10T00:38:03.008Z</time></trkpt><trkpt lat="32.3377813" lon="-110.5963872"><ele>1220.5</ele><time>2026-04-10T00:38:04.008Z</time></trkpt><trkpt lat="32.3377957" lon="-110.5962956"><ele>1221.0</ele><time>2026-04-10T00:38:05.008Z</time></trkpt><trkpt lat="32.3378082" lon="-110.5962024"><ele>1221.5</ele><time>2026-04-10T00:38:06.008Z</time></trkpt><trkpt lat="32.3378126" lon="-110.5961036"><ele>1222.0</ele><time>2026-04-10T00:38:07.008Z</time></trkpt><trkpt lat="32.3378139" lon="-110.5960046"><ele>1222.8333333333333</ele><time>2026-04-10T00:38:08.008Z</time></trkpt><trkpt lat="32.3378124" lon="-110.5959058"><ele>1223.6666666666665</ele><time>2026-04-10T00:38:09.008Z</time></trkpt><trkpt lat="32.3378155" lon="-110.5958047"><ele>1224.5</ele><time>2026-04-10T00:38:10.008Z</time></trkpt><trkpt lat="32.337828" lon="-110.5957043"><ele>1225.3333333333333</ele><time>2026-04-10T00:38:11.008Z</time></trkpt><trkpt lat="32.3378388" lon="-110.595611"><ele>1226.1666666666667</ele><time>2026-04-10T00:38:12.007Z</time></trkpt><trkpt lat="32.3378474" lon="-110.5955219"><ele>1227.0</ele><time>2026-04-10T00:38:13.008Z</time></trkpt><trkpt lat="32.3378593" lon="-110.5954302"><ele>1227.6666666666667</ele><time>2026-04-10T00:38:14.008Z</time></trkpt><trkpt lat="32.3378756" lon="-110.595336"><ele>1228.3333333333333</ele><time>2026-04-10T00:38:15.008Z</time></trkpt><trkpt lat="32.3378967" lon="-110.5952484"><ele>1229.0</ele><time>2026-04-10T00:38:16.008Z</time></trkpt><trkpt lat="32.3379273" lon="-110.5951666"><ele>1229.6666666666665</ele><time>2026-04-10T00:38:17.008Z</time></trkpt><trkpt lat="32.3379635" lon="-110.5950853"><ele>1230.3333333333333</ele><time>2026-04-10T00:38:18.007Z</time></trkpt><trkpt lat="32.3379924" lon="-110.5950018"><ele>1231.0</ele><time>2026-04-10T00:38:19.008Z</time></trkpt><trkpt lat="32.3380137" lon="-110.5949213"><ele>1231.0</ele><time>2026-04-10T00:38:20.008Z</time></trkpt><trkpt lat="32.3380169" lon="-110.594838"><ele>1231.0</ele><time>2026-04-10T00:38:21.008Z</time></trkpt><trkpt lat="32.338011" lon="-110.5946922"><ele>1231.0</ele><time>2026-04-10T00:38:23.008Z</time></trkpt><trkpt lat="32.3380787" lon="-110.5945786"><ele>1231.0</ele><time>2026-04-10T00:38:25.008Z</time></trkpt><trkpt lat="32.3381358" lon="-110.5945384"><ele>1231.0</ele><time>2026-04-10T00:38:26.008Z</time></trkpt><trkpt lat="32.338198" lon="-110.5945125"><ele>1231.0</ele><time>2026-04-10T00:38:27.008Z</time></trkpt><trkpt lat="32.338304" lon="-110.594455"><ele>1232.3333333333333</ele><time>2026-04-10T00:38:29.008Z</time></trkpt><trkpt lat="32.3383895" lon="-110.5943529"><ele>1233.6666666666665</ele><time>2026-04-10T00:38:31.008Z</time></trkpt><trkpt lat="32.3384449" lon="-110.5942974"><ele>1235.0</ele><time>2026-04-10T00:38:32.008Z</time></trkpt><trkpt lat="32.3385066" lon="-110.5942414"><ele>1236.3333333333333</ele><time>2026-04-10T00:38:33.008Z</time></trkpt><trkpt lat="32.3385637" lon="-110.5941882"><ele>1237.6666666666667</ele><time>2026-04-10T00:38:34.008Z</time></trkpt><trkpt lat="32.3386168" lon="-110.5941413"><ele>1239.0</ele><time>2026-04-10T00:38:35.008Z</time></trkpt><trkpt lat="32.3387226" lon="-110.5940507"><ele>1239.0</ele><time>2026-04-10T00:38:37.008Z</time></trkpt><trkpt lat="32.3387702" lon="-110.5939937"><ele>1239.0</ele><time>2026-04-10T00:38:38.008Z</time></trkpt><trkpt lat="32.3388098" lon="-110.5939289"><ele>1239.0</ele><time>2026-04-10T00:38:39.008Z</time></trkpt><trkpt lat="32.3388496" lon="-110.5938707"><ele>1239.0</ele><time>2026-04-10T00:38:40.007Z</time></trkpt><trkpt lat="32.3389537" lon="-110.5937891"><ele>1239.0</ele><time>2026-04-10T00:38:42.008Z</time></trkpt><trkpt lat="32.3390107" lon="-110.5937533"><ele>1239.0</ele><time>2026-04-10T00:38:43.008Z</time></trkpt><trkpt lat="32.3390641" lon="-110.593702"><ele>1239.8333333333333</ele><time>2026-04-10T00:38:44.008Z</time></trkpt><trkpt lat="32.3391134" lon="-110.5936361"><ele>1240.6666666666667</ele><time>2026-04-10T00:38:45.008Z</time></trkpt><trkpt lat="32.3391651" lon="-110.5935633"><ele>1241.5</ele><time>2026-04-10T00:38:46.008Z</time></trkpt><trkpt lat="32.3392221" lon="-110.5934829"><ele>1242.3333333333335</ele><time>2026-04-10T00:38:47.008Z</time></trkpt><trkpt lat="32.3392842" lon="-110.5934157"><ele>1243.1666666666667</ele><time>2026-04-10T00:38:48.008Z</time></trkpt><trkpt lat="32.3393459" lon="-110.5933554"><ele>1244.0</ele><time>2026-04-10T00:38:49.008Z</time></trkpt><trkpt lat="32.3394127" lon="-110.5933087"><ele>1244.0</ele><time>2026-04-10T00:38:50.008Z</time></trkpt><trkpt lat="32.3394751" lon="-110.5932521"><ele>1244.0</ele><time>2026-04-10T00:38:51.008Z</time></trkpt><trkpt lat="32.3395386" lon="-110.593193"><ele>1244.0</ele><time>2026-04-10T00:38:52.008Z</time></trkpt><trkpt lat="32.3396114" lon="-110.5931396"><ele>1244.0</ele><time>2026-04-10T00:38:53.007Z</time></trkpt><trkpt lat="32.3396872" lon="-110.5931057"><ele>1244.0</ele><time>2026-04-10T00:38:54.008Z</time></trkpt><trkpt lat="32.3397609" lon="-110.5930762"><ele>1244.0</ele><time>2026-04-10T00:38:55.008Z</time></trkpt><trkpt lat="32.3398207" lon="-110.5930441"><ele>1244.4</ele><time>2026-04-10T00:38:56.008Z</time></trkpt><trkpt lat="32.3398941" lon="-110.5929737"><ele>1244.8000000000002</ele><time>2026-04-10T00:38:58.008Z</time></trkpt><trkpt lat="32.3399244" lon="-110.5928714"><ele>1245.1999999999998</ele><time>2026-04-10T00:39:00.008Z</time></trkpt><trkpt lat="32.3399287" lon="-110.592743"><ele>1245.6</ele><time>2026-04-10T00:39:02.007Z</time></trkpt><trkpt lat="32.3399213" lon="-110.5926092"><ele>1246.0</ele><time>2026-04-10T00:39:04.008Z</time></trkpt><trkpt lat="32.3399351" lon="-110.5924716"><ele>1246.0</ele><time>2026-04-10T00:39:06.008Z</time></trkpt><trkpt lat="32.3399953" lon="-110.5923628"><ele>1246.0</ele><time>2026-04-10T00:39:08.008Z</time></trkpt><trkpt lat="32.3400866" lon="-110.592291"><ele>1246.0</ele><time>2026-04-10T00:39:10.008Z</time></trkpt><trkpt lat="32.3401957" lon="-110.5922371"><ele>1246.0</ele><time>2026-04-10T00:39:12.008Z</time></trkpt><trkpt lat="32.3402982" lon="-110.5922151"><ele>1246.0</ele><time>2026-04-10T00:39:14.007Z</time></trkpt><trkpt lat="32.3403757" lon="-110.5921617"><ele>1246.0</ele><time>2026-04-10T00:39:16.009Z</time></trkpt><trkpt lat="32.3404432" lon="-110.5920709"><ele>1246.0</ele><time>2026-04-10T00:39:18.009Z</time></trkpt><trkpt lat="32.3404869" lon="-110.5920134"><ele>1246.0</ele><time>2026-04-10T00:39:19.009Z</time></trkpt><trkpt lat="32.3405346" lon="-110.5919563"><ele>1246.0</ele><time>2026-04-10T00:39:20.009Z</time></trkpt><trkpt lat="32.3405894" lon="-110.5918994"><ele>1246.0</ele><time>2026-04-10T00:39:21.009Z</time></trkpt><trkpt lat="32.3406439" lon="-110.5918475"><ele>1246.0</ele><time>2026-04-10T00:39:22.009Z</time></trkpt><trkpt lat="32.3407067" lon="-110.591809"><ele>1246.0</ele><time>2026-04-10T00:39:23.009Z</time></trkpt><trkpt lat="32.340811" lon="-110.5917467"><ele>1246.6</ele><time>2026-04-10T00:39:25.009Z</time></trkpt><trkpt lat="32.3409002" lon="-110.5916677"><ele>1247.1999999999998</ele><time>2026-04-10T00:39:27.008Z</time></trkpt><trkpt lat="32.340952" lon="-110.5915493"><ele>1247.8000000000002</ele><time>2026-04-10T00:39:29.008Z</time></trkpt><trkpt lat="32.3409685" lon="-110.5914103"><ele>1248.4</ele><time>2026-04-10T00:39:31.008Z</time></trkpt><trkpt lat="32.3409666" lon="-110.5913325"><ele>1249.0</ele><time>2026-04-10T00:39:32.009Z</time></trkpt><trkpt lat="32.3409701" lon="-110.5912497"><ele>1249.4</ele><time>2026-04-10T00:39:33.009Z</time></trkpt><trkpt lat="32.3409831" lon="-110.5911647"><ele>1249.8000000000002</ele><time>2026-04-10T00:39:34.009Z</time></trkpt><trkpt lat="32.340999" lon="-110.5910911"><ele>1250.1999999999998</ele><time>2026-04-10T00:39:35.009Z</time></trkpt><trkpt lat="32.3410309" lon="-110.590959"><ele>1250.6</ele><time>2026-04-10T00:39:37.008Z</time></trkpt><trkpt lat="32.3410621" lon="-110.5908414"><ele>1251.0</ele><time>2026-04-10T00:39:39.009Z</time></trkpt><trkpt lat="32.341078" lon="-110.5907142"><ele>1251.0</ele><time>2026-04-10T00:39:41.009Z</time></trkpt><trkpt lat="32.3410603" lon="-110.590577"><ele>1251.0</ele><time>2026-04-10T00:39:43.009Z</time></trkpt><trkpt lat="32.3410001" lon="-110.5904527"><ele>1251.0</ele><time>2026-04-10T00:39:45.009Z</time></trkpt><trkpt lat="32.3409626" lon="-110.5903852"><ele>1251.0</ele><time>2026-04-10T00:39:46.008Z</time></trkpt><trkpt lat="32.3409369" lon="-110.5903167"><ele>1251.0</ele><time>2026-04-10T00:39:47.009Z</time></trkpt><trkpt lat="32.3409335" lon="-110.5901849"><ele>1249.8333333333333</ele><time>2026-04-10T00:39:49.008Z</time></trkpt><trkpt lat="32.3409984" lon="-110.590069"><ele>1248.6666666666667</ele><time>2026-04-10T00:39:51.009Z</time></trkpt><trkpt lat="32.3410638" lon="-110.5899575"><ele>1247.5</ele><time>2026-04-10T00:39:53.008Z</time></trkpt><trkpt lat="32.3410956" lon="-110.5898782"><ele>1246.3333333333335</ele><time>2026-04-10T00:39:55.009Z</time></trkpt><trkpt lat="32.3411232" lon="-110.5898101"><ele>1245.1666666666667</ele><time>2026-04-10T00:40:24.009Z</time></trkpt><trkpt lat="32.3411756" lon="-110.5897451"><ele>1244.0</ele><time>2026-04-10T00:40:27.009Z</time></trkpt><trkpt lat="32.3412492" lon="-110.5896793"><ele>1244.0</ele><time>2026-04-10T00:41:03.009Z</time></trkpt><trkpt lat="32.3413231" lon="-110.5896072"><ele>1244.0</ele><time>2026-04-10T00:41:05.008Z</time></trkpt><trkpt lat="32.3414075" lon="-110.5895226"><ele>1244.0</ele><time>2026-04-10T00:41:07.009Z</time></trkpt><trkpt lat="32.3415001" lon="-110.5894635"><ele>1244.0</ele><time>2026-04-10T00:41:09.009Z</time></trkpt><trkpt lat="32.3415955" lon="-110.5894068"><ele>1244.0</ele><time>2026-04-10T00:41:11.009Z</time></trkpt><trkpt lat="32.3416603" lon="-110.5893296"><ele>1241.8</ele><time>2026-04-10T00:41:13.009Z</time></trkpt><trkpt lat="32.341715" lon="-110.5892444"><ele>1239.6000000000001</ele><time>2026-04-10T00:41:15.009Z</time></trkpt><trkpt lat="32.341793" lon="-110.5891685"><ele>1237.4</ele><time>2026-04-10T00:41:17.009Z</time></trkpt><trkpt lat="32.3418782" lon="-110.5891023"><ele>1235.2</ele><time>2026-04-10T00:41:19.009Z</time></trkpt><trkpt lat="32.3419628" lon="-110.589025"><ele>1233.0</ele><time>2026-04-10T00:41:21.009Z</time></trkpt><trkpt lat="32.3420402" lon="-110.5889116"><ele>1233.0</ele><time>2026-04-10T00:41:23.01Z</time></trkpt><trkpt lat="32.3420819" lon="-110.5888533"><ele>1233.0</ele><time>2026-04-10T00:41:24.01Z</time></trkpt><trkpt lat="32.3421279" lon="-110.5887977"><ele>1233.0</ele><time>2026-04-10T00:41:25.01Z</time></trkpt><trkpt lat="32.3421815" lon="-110.5887586"><ele>1233.0</ele><time>2026-04-10T00:41:26.01Z</time></trkpt><trkpt lat="32.3422414" lon="-110.5887341"><ele>1233.0</ele><time>2026-04-10T00:41:27.009Z</time></trkpt><trkpt lat="32.3423075" lon="-110.5887194"><ele>1233.0</ele><time>2026-04-10T00:41:28.01Z</time></trkpt><trkpt lat="32.3423781" lon="-110.5887014"><ele>1233.0</ele><time>2026-04-10T00:41:29.009Z</time></trkpt><trkpt lat="32.3424509" lon="-110.5886717"><ele>1230.6666666666667</ele><time>2026-04-10T00:41:30.01Z</time></trkpt><trkpt lat="32.3425262" lon="-110.5886308"><ele>1228.3333333333333</ele><time>2026-04-10T00:41:31.01Z</time></trkpt><trkpt lat="32.3425985" lon="-110.5885896"><ele>1226.0</ele><time>2026-04-10T00:41:32.01Z</time></trkpt><trkpt lat="32.3426685" lon="-110.5885559"><ele>1223.6666666666665</ele><time>2026-04-10T00:41:33.01Z</time></trkpt><trkpt lat="32.3427378" lon="-110.5885297"><ele>1221.3333333333333</ele><time>2026-04-10T00:41:34.01Z</time></trkpt><trkpt lat="32.3428092" lon="-110.5885194"><ele>1219.0</ele><time>2026-04-10T00:41:35.009Z</time></trkpt><trkpt lat="32.3428799" lon="-110.5885289"><ele>1219.0</ele><time>2026-04-10T00:41:36.01Z</time></trkpt><trkpt lat="32.3429515" lon="-110.5885584"><ele>1219.0</ele><time>2026-04-10T00:41:37.01Z</time></trkpt><trkpt lat="32.3430202" lon="-110.5886039"><ele>1219.0</ele><time>2026-04-10T00:41:38.01Z</time></trkpt><trkpt lat="32.3430902" lon="-110.5886598"><ele>1219.0</ele><time>2026-04-10T00:41:39.01Z</time></trkpt><trkpt lat="32.3431604" lon="-110.5887235"><ele>1219.0</ele><time>2026-04-10T00:41:40.01Z</time></trkpt><trkpt lat="32.3432191" lon="-110.5887849"><ele>1219.0</ele><time>2026-04-10T00:41:41.01Z</time></trkpt><trkpt lat="32.3432608" lon="-110.5888429"><ele>1218.8</ele><time>2026-04-10T00:41:42.01Z</time></trkpt><trkpt lat="32.3432833" lon="-110.5889701"><ele>1218.6000000000001</ele><time>2026-04-10T00:41:44.009Z</time></trkpt><trkpt lat="32.3432481" lon="-110.5890877"><ele>1218.4</ele><time>2026-04-10T00:41:46.01Z</time></trkpt><trkpt lat="32.3432265" lon="-110.5891857"><ele>1218.2</ele><time>2026-04-10T00:41:48.01Z</time></trkpt><trkpt lat="32.3432241" lon="-110.5892889"><ele>1218.0</ele><time>2026-04-10T00:41:50.01Z</time></trkpt><trkpt lat="32.3432503" lon="-110.5894061"><ele>1214.75</ele><time>2026-04-10T00:41:52.009Z</time></trkpt><trkpt lat="32.343302" lon="-110.5895309"><ele>1211.5</ele><time>2026-04-10T00:41:54.01Z</time></trkpt><trkpt lat="32.3433493" lon="-110.5896498"><ele>1208.25</ele><time>2026-04-10T00:41:56.01Z</time></trkpt><trkpt lat="32.3434072" lon="-110.5897658"><ele>1205.0</ele><time>2026-04-10T00:41:58.01Z</time></trkpt><trkpt lat="32.3434779" lon="-110.5898682"><ele>1205.0</ele><time>2026-04-10T00:42:00.01Z</time></trkpt><trkpt lat="32.3435681" lon="-110.5899505"><ele>1205.0</ele><time>2026-04-10T00:42:02.01Z</time></trkpt><trkpt lat="32.3436612" lon="-110.5900195"><ele>1205.0</ele><time>2026-04-10T00:42:04.01Z</time></trkpt><trkpt lat="32.3437599" lon="-110.5900798"><ele>1205.0</ele><time>2026-04-10T00:42:06.01Z</time></trkpt><trkpt lat="32.3438596" lon="-110.5901351"><ele>1205.0</ele><time>2026-04-10T00:42:08.01Z</time></trkpt><trkpt lat="32.3439562" lon="-110.5901797"><ele>1202.4</ele><time>2026-04-10T00:42:10.01Z</time></trkpt><trkpt lat="32.3440637" lon="-110.5902109"><ele>1199.8</ele><time>2026-04-10T00:42:12.01Z</time></trkpt><trkpt lat="32.3441674" lon="-110.5902369"><ele>1197.2</ele><time>2026-04-10T00:42:14.01Z</time></trkpt><trkpt lat="32.3442632" lon="-110.5902592"><ele>1194.6</ele><time>2026-04-10T00:42:16.01Z</time></trkpt><trkpt lat="32.344367" lon="-110.5902674"><ele>1192.0</ele><time>2026-04-10T00:42:18.01Z</time></trkpt><trkpt lat="32.3444819" lon="-110.5902561"><ele>1192.0</ele><time>2026-04-10T00:42:20.01Z</time></trkpt><trkpt lat="32.3445931" lon="-110.5902347"><ele>1192.0</ele><time>2026-04-10T00:42:22.01Z</time></trkpt><trkpt lat="32.3447043" lon="-110.5902214"><ele>1192.0</ele><time>2026-04-10T00:42:24.01Z</time></trkpt><trkpt lat="32.3448049" lon="-110.5902262"><ele>1192.0</ele><time>2026-04-10T00:42:26.01Z</time></trkpt><trkpt lat="32.3448987" lon="-110.5902374"><ele>1192.0</ele><time>2026-04-10T00:42:28.01Z</time></trkpt><trkpt lat="32.3449917" lon="-110.5902015"><ele>1187.0</ele><time>2026-04-10T00:42:30.01Z</time></trkpt><trkpt lat="32.3450712" lon="-110.5901385"><ele>1182.0</ele><time>2026-04-10T00:42:32.01Z</time></trkpt><trkpt lat="32.3451609" lon="-110.5900971"><ele>1177.0</ele><time>2026-04-10T00:42:34.01Z</time></trkpt><trkpt lat="32.3452481" lon="-110.5901"><ele>1172.0</ele><time>2026-04-10T00:42:36.01Z</time></trkpt><trkpt lat="32.3453345" lon="-110.5901362"><ele>1167.0</ele><time>2026-04-10T00:42:38.01Z</time></trkpt><trkpt lat="32.345424" lon="-110.5901822"><ele>1167.0</ele><time>2026-04-10T00:42:40.01Z</time></trkpt><trkpt lat="32.3454993" lon="-110.5902043"><ele>1167.0</ele><time>2026-04-10T00:42:42.01Z</time></trkpt><trkpt lat="32.3455929" lon="-110.5902179"><ele>1167.0</ele><time>2026-04-10T00:42:55.01Z</time></trkpt><trkpt lat="32.3457094" lon="-110.5901995"><ele>1167.0</ele><time>2026-04-10T00:42:57.01Z</time></trkpt><trkpt lat="32.3458278" lon="-110.5901646"><ele>1167.0</ele><time>2026-04-10T00:42:59.01Z</time></trkpt><trkpt lat="32.3459474" lon="-110.590143"><ele>1164.0</ele><time>2026-04-10T00:43:01.01Z</time></trkpt><trkpt lat="32.3460269" lon="-110.5900838"><ele>1161.0</ele><time>2026-04-10T00:43:03.01Z</time></trkpt><trkpt lat="32.3460954" lon="-110.5899893"><ele>1158.0</ele><time>2026-04-10T00:43:05.01Z</time></trkpt><trkpt lat="32.3461371" lon="-110.5899329"><ele>1155.0</ele><time>2026-04-10T00:43:06.009Z</time></trkpt><trkpt lat="32.3462173" lon="-110.5898257"><ele>1152.0</ele><time>2026-04-10T00:43:08.01Z</time></trkpt><trkpt lat="32.3463083" lon="-110.589763"><ele>1150.0</ele><time>2026-04-10T00:43:10.01Z</time></trkpt><trkpt lat="32.3464027" lon="-110.5897266"><ele>1148.0</ele><time>2026-04-10T00:43:12.01Z</time></trkpt><trkpt lat="32.3465135" lon="-110.5897009"><ele>1146.0</ele><time>2026-04-10T00:43:14.01Z</time></trkpt><trkpt lat="32.3466135" lon="-110.5897127"><ele>1144.0</ele><time>2026-04-10T00:43:16.01Z</time></trkpt><trkpt lat="32.3466941" lon="-110.589762"><ele>1142.0</ele><time>2026-04-10T00:43:18.01Z</time></trkpt><trkpt lat="32.3467706" lon="-110.5898045"><ele>1142.0</ele><time>2026-04-10T00:43:20.01Z</time></trkpt><trkpt lat="32.3468408" lon="-110.5898299"><ele>1142.0</ele><time>2026-04-10T00:43:22.009Z</time></trkpt><trkpt lat="32.346911" lon="-110.5898588"><ele>1142.0</ele><time>2026-04-10T00:43:25.01Z</time></trkpt><trkpt lat="32.3469764" lon="-110.5898881"><ele>1142.0</ele><time>2026-04-10T00:44:11.026Z</time></trkpt><trkpt lat="32.3470533" lon="-110.5898193"><ele>1142.0</ele><time>2026-04-10T00:44:13.094Z</time></trkpt><trkpt lat="32.3470415" lon="-110.5897349"><ele>1142.0</ele><time>2026-04-10T00:44:15.166Z</time></trkpt><trkpt lat="32.3470004" lon="-110.5896168"><ele>1142.0</ele><time>2026-04-10T00:44:17.011Z</time></trkpt><trkpt lat="32.3469912" lon="-110.5895409"><ele>1142.0</ele><time>2026-04-10T00:44:18.011Z</time></trkpt><trkpt lat="32.3469857" lon="-110.5894644"><ele>1142.0</ele><time>2026-04-10T00:44:19.011Z</time></trkpt><trkpt lat="32.3469862" lon="-110.5893875"><ele>1142.0</ele><time>2026-04-10T00:44:20.011Z</time></trkpt><trkpt lat="32.3470012" lon="-110.5893044"><ele>1142.0</ele><time>2026-04-10T00:44:21.011Z</time></trkpt><trkpt lat="32.3470184" lon="-110.5892181"><ele>1142.0</ele><time>2026-04-10T00:44:22.011Z</time></trkpt><trkpt lat="32.3470287" lon="-110.5891325"><ele>1142.0</ele><time>2026-04-10T00:44:23.011Z</time></trkpt><trkpt lat="32.3470271" lon="-110.5890464"><ele>1141.8333333333335</ele><time>2026-04-10T00:44:24.011Z</time></trkpt><trkpt lat="32.347015" lon="-110.5889541"><ele>1141.6666666666667</ele><time>2026-04-10T00:44:25.011Z</time></trkpt><trkpt lat="32.3470036" lon="-110.5888594"><ele>1141.5</ele><time>2026-04-10T00:44:26.01Z</time></trkpt><trkpt lat="32.3470036" lon="-110.5887708"><ele>1141.3333333333333</ele><time>2026-04-10T00:44:27.01Z</time></trkpt><trkpt lat="32.3470127" lon="-110.5886798"><ele>1141.1666666666665</ele><time>2026-04-10T00:44:28.011Z</time></trkpt><trkpt lat="32.3470246" lon="-110.5885862"><ele>1141.0</ele><time>2026-04-10T00:44:29.011Z</time></trkpt><trkpt lat="32.3470344" lon="-110.5884907"><ele>1140.5</ele><time>2026-04-10T00:44:30.011Z</time></trkpt><trkpt lat="32.347037" lon="-110.5883921"><ele>1140.0</ele><time>2026-04-10T00:44:31.011Z</time></trkpt><trkpt lat="32.3470312" lon="-110.5882913"><ele>1139.5</ele><time>2026-04-10T00:44:32.011Z</time></trkpt><trkpt lat="32.3470209" lon="-110.5881879"><ele>1139.0</ele><time>2026-04-10T00:44:33.011Z</time></trkpt><trkpt lat="32.3470109" lon="-110.5880813"><ele>1138.5</ele><time>2026-04-10T00:44:34.011Z</time></trkpt><trkpt lat="32.3470035" lon="-110.5879745"><ele>1138.0</ele><time>2026-04-10T00:44:35.011Z</time></trkpt><trkpt lat="32.3469973" lon="-110.5878642"><ele>1137.8</ele><time>2026-04-10T00:44:36.011Z</time></trkpt><trkpt lat="32.3469927" lon="-110.5877484"><ele>1137.6</ele><time>2026-04-10T00:44:37.011Z</time></trkpt><trkpt lat="32.3469899" lon="-110.5876254"><ele>1137.4</ele><time>2026-04-10T00:44:38.011Z</time></trkpt><trkpt lat="32.346988" lon="-110.5874968"><ele>1137.2</ele><time>2026-04-10T00:44:39.011Z</time></trkpt><trkpt lat="32.3469853" lon="-110.5873672"><ele>1137.0</ele><time>2026-04-10T00:44:40.011Z</time></trkpt><trkpt lat="32.3469848" lon="-110.5872378"><ele>1137.0</ele><time>2026-04-10T00:44:41.01Z</time></trkpt><trkpt lat="32.3469879" lon="-110.5871087"><ele>1137.0</ele><time>2026-04-10T00:44:42.011Z</time></trkpt><trkpt lat="32.3469943" lon="-110.5869835"><ele>1137.0</ele><time>2026-04-10T00:44:43.011Z</time></trkpt><trkpt lat="32.3470044" lon="-110.5868649"><ele>1137.0</ele><time>2026-04-10T00:44:44.011Z</time></trkpt><trkpt lat="32.3470187" lon="-110.5867522"><ele>1137.0</ele><time>2026-04-10T00:44:45.011Z</time></trkpt><trkpt lat="32.347041" lon="-110.5866404"><ele>1137.0</ele><time>2026-04-10T00:44:46.011Z</time></trkpt><trkpt lat="32.3470706" lon="-110.5865276"><ele>1137.0</ele><time>2026-04-10T00:44:47.01Z</time></trkpt><trkpt lat="32.3471051" lon="-110.586412"><ele>1137.0</ele><time>2026-04-10T00:44:48.011Z</time></trkpt><trkpt lat="32.3471374" lon="-110.5862931"><ele>1137.0</ele><time>2026-04-10T00:44:49.011Z</time></trkpt><trkpt lat="32.3471649" lon="-110.5861728"><ele>1137.0</ele><time>2026-04-10T00:44:50.011Z</time></trkpt><trkpt lat="32.3471907" lon="-110.5860532"><ele>1137.0</ele><time>2026-04-10T00:44:51.011Z</time></trkpt><trkpt lat="32.3472199" lon="-110.5859382"><ele>1137.0</ele><time>2026-04-10T00:44:52.011Z</time></trkpt><trkpt lat="32.3472548" lon="-110.5858259"><ele>1137.0</ele><time>2026-04-10T00:44:53.011Z</time></trkpt><trkpt lat="32.3472938" lon="-110.5857131"><ele>1137.0</ele><time>2026-04-10T00:44:54.011Z</time></trkpt><trkpt lat="32.3473349" lon="-110.5856046"><ele>1137.0</ele><time>2026-04-10T00:44:55.01Z</time></trkpt><trkpt lat="32.3473717" lon="-110.5855055"><ele>1136.9999999999998</ele><time>2026-04-10T00:44:56.011Z</time></trkpt><trkpt lat="32.3474033" lon="-110.5854156"><ele>1137.0</ele><time>2026-04-10T00:44:57.011Z</time></trkpt><trkpt lat="32.3474379" lon="-110.5853378"><ele>1137.0</ele><time>2026-04-10T00:44:58.011Z</time></trkpt><trkpt lat="32.3474797" lon="-110.5852715"><ele>1137.0</ele><time>2026-04-10T00:44:59.011Z</time></trkpt><trkpt lat="32.3475296" lon="-110.5852075"><ele>1137.0</ele><time>2026-04-10T00:45:00.011Z</time></trkpt><trkpt lat="32.3475788" lon="-110.58514"><ele>1136.9999999999998</ele><time>2026-04-10T00:45:01.011Z</time></trkpt><trkpt lat="32.3476174" lon="-110.5850662"><ele>1137.0</ele><time>2026-04-10T00:45:02.011Z</time></trkpt><trkpt lat="32.3476494" lon="-110.5849881"><ele>1136.6</ele><time>2026-04-10T00:45:03.011Z</time></trkpt><trkpt lat="32.3476779" lon="-110.5849169"><ele>1136.2</ele><time>2026-04-10T00:45:04.011Z</time></trkpt><trkpt lat="32.3477092" lon="-110.5847782"><ele>1135.8</ele><time>2026-04-10T00:45:06.01Z</time></trkpt><trkpt lat="32.3476912" lon="-110.5846257"><ele>1135.4</ele><time>2026-04-10T00:45:08.011Z</time></trkpt><trkpt lat="32.3476772" lon="-110.584535"><ele>1135.0</ele><time>2026-04-10T00:45:09.011Z</time></trkpt><trkpt lat="32.3476698" lon="-110.5844415"><ele>1135.0</ele><time>2026-04-10T00:45:10.011Z</time></trkpt><trkpt lat="32.3476718" lon="-110.584351"><ele>1135.0</ele><time>2026-04-10T00:45:11.011Z</time></trkpt><trkpt lat="32.347681" lon="-110.5842588"><ele>1135.0</ele><time>2026-04-10T00:45:12.011Z</time></trkpt><trkpt lat="32.347692" lon="-110.5841646"><ele>1135.0</ele><time>2026-04-10T00:45:13.011Z</time></trkpt><trkpt lat="32.3477025" lon="-110.5840754"><ele>1135.0</ele><time>2026-04-10T00:45:14.011Z</time></trkpt><trkpt lat="32.3477147" lon="-110.5839919"><ele>1135.0</ele><time>2026-04-10T00:45:15.011Z</time></trkpt><trkpt lat="32.3477292" lon="-110.5839108"><ele>1135.0</ele><time>2026-04-10T00:45:16.011Z</time></trkpt><trkpt lat="32.3477488" lon="-110.5838319"><ele>1135.0</ele><time>2026-04-10T00:45:17.011Z</time></trkpt><trkpt lat="32.3477746" lon="-110.5837541"><ele>1135.0</ele><time>2026-04-10T00:45:18.011Z</time></trkpt><trkpt lat="32.3477949" lon="-110.583673"><ele>1135.0</ele><time>2026-04-10T00:45:19.011Z</time></trkpt><trkpt lat="32.3478065" lon="-110.5835862"><ele>1135.0</ele><time>2026-04-10T00:45:20.011Z</time></trkpt><trkpt lat="32.3478149" lon="-110.583502"><ele>1135.0</ele><time>2026-04-10T00:45:21.011Z</time></trkpt><trkpt lat="32.3478384" lon="-110.5834269"><ele>1135.0</ele><time>2026-04-10T00:45:22.011Z</time></trkpt><trkpt lat="32.3478775" lon="-110.5833633"><ele>1134.8333333333333</ele><time>2026-04-10T00:45:23.011Z</time></trkpt><trkpt lat="32.3479286" lon="-110.5833142"><ele>1134.6666666666665</ele><time>2026-04-10T00:45:24.01Z</time></trkpt><trkpt lat="32.3479821" lon="-110.5832584"><ele>1134.5</ele><time>2026-04-10T00:45:25.011Z</time></trkpt><trkpt lat="32.348019" lon="-110.5831909"><ele>1134.3333333333333</ele><time>2026-04-10T00:45:26.011Z</time></trkpt><trkpt lat="32.3480406" lon="-110.5831162"><ele>1134.1666666666667</ele><time>2026-04-10T00:45:27.011Z</time></trkpt><trkpt lat="32.3480948" lon="-110.5829927"><ele>1134.0</ele><time>2026-04-10T00:45:29.011Z</time></trkpt><trkpt lat="32.3481836" lon="-110.5829274"><ele>1134.6000000000001</ele><time>2026-04-10T00:45:31.011Z</time></trkpt><trkpt lat="32.3483183" lon="-110.5829368"><ele>1135.2</ele><time>2026-04-10T00:45:33.011Z</time></trkpt><trkpt lat="32.3483994" lon="-110.5829409"><ele>1135.8000000000002</ele><time>2026-04-10T00:45:34.012Z</time></trkpt><trkpt lat="32.3484746" lon="-110.5829225"><ele>1136.4</ele><time>2026-04-10T00:45:35.012Z</time></trkpt><trkpt lat="32.3485521" lon="-110.582903"><ele>1137.0</ele><time>2026-04-10T00:45:36.012Z</time></trkpt><trkpt lat="32.3486352" lon="-110.5828787"><ele>1137.0</ele><time>2026-04-10T00:45:37.012Z</time></trkpt><trkpt lat="32.3487175" lon="-110.5828571"><ele>1137.0</ele><time>2026-04-10T00:45:38.011Z</time></trkpt><trkpt lat="32.3487904" lon="-110.5828362"><ele>1137.0</ele><time>2026-04-10T00:45:39.012Z</time></trkpt><trkpt lat="32.348865" lon="-110.5828102"><ele>1137.0</ele><time>2026-04-10T00:45:40.012Z</time></trkpt><trkpt lat="32.3489425" lon="-110.5827248"><ele>1137.0</ele><time>2026-04-10T00:45:42.012Z</time></trkpt><trkpt lat="32.3489991" lon="-110.5825902"><ele>1137.3333333333333</ele><time>2026-04-10T00:45:44.012Z</time></trkpt><trkpt lat="32.3490238" lon="-110.5825078"><ele>1137.6666666666667</ele><time>2026-04-10T00:45:45.012Z</time></trkpt><trkpt lat="32.3490546" lon="-110.5824215"><ele>1138.0</ele><time>2026-04-10T00:45:46.012Z</time></trkpt><trkpt lat="32.3490931" lon="-110.5823392"><ele>1138.3333333333335</ele><time>2026-04-10T00:45:47.012Z</time></trkpt><trkpt lat="32.349127" lon="-110.582275"><ele>1138.6666666666667</ele><time>2026-04-10T00:45:48.011Z</time></trkpt><trkpt lat="32.3491794" lon="-110.5821884"><ele>1139.0</ele><time>2026-04-10T00:45:50.012Z</time></trkpt><trkpt lat="32.3492288" lon="-110.5821272"><ele>1139.0</ele><time>2026-04-10T00:45:53.012Z</time></trkpt><trkpt lat="32.3492981" lon="-110.582077"><ele>1139.0</ele><time>2026-04-10T00:46:36.012Z</time></trkpt><trkpt lat="32.3493639" lon="-110.5820288"><ele>1139.0</ele><time>2026-04-10T00:46:53.012Z</time></trkpt><trkpt lat="32.3494419" lon="-110.5819921"><ele>1139.0</ele><time>2026-04-10T00:46:55.012Z</time></trkpt><trkpt lat="32.3495374" lon="-110.5819502"><ele>1139.0</ele><time>2026-04-10T00:46:57.012Z</time></trkpt><trkpt lat="32.3496389" lon="-110.5819006"><ele>1138.0</ele><time>2026-04-10T00:46:59.011Z</time></trkpt><trkpt lat="32.349733" lon="-110.5818375"><ele>1137.0</ele><time>2026-04-10T00:47:01.012Z</time></trkpt><trkpt lat="32.3498263" lon="-110.5817593"><ele>1136.0</ele><time>2026-04-10T00:47:03.012Z</time></trkpt><trkpt lat="32.3499306" lon="-110.5816793"><ele>1135.0</ele><time>2026-04-10T00:47:05.012Z</time></trkpt><trkpt lat="32.349992" lon="-110.5816444"><ele>1134.0</ele><time>2026-04-10T00:47:06.012Z</time></trkpt><trkpt lat="32.3500514" lon="-110.5816096"><ele>1134.0</ele><time>2026-04-10T00:47:07.012Z</time></trkpt><trkpt lat="32.3501146" lon="-110.5815622"><ele>1134.0</ele><time>2026-04-10T00:47:08.012Z</time></trkpt><trkpt lat="32.350172" lon="-110.5815038"><ele>1134.0</ele><time>2026-04-10T00:47:09.012Z</time></trkpt><trkpt lat="32.3502265" lon="-110.5814432"><ele>1134.0</ele><time>2026-04-10T00:47:10.012Z</time></trkpt><trkpt lat="32.3502829" lon="-110.5813834"><ele>1134.0</ele><time>2026-04-10T00:47:11.012Z</time></trkpt><trkpt lat="32.3503394" lon="-110.5813246"><ele>1134.0</ele><time>2026-04-10T00:47:12.012Z</time></trkpt><trkpt lat="32.3503952" lon="-110.5812637"><ele>1134.0</ele><time>2026-04-10T00:47:13.011Z</time></trkpt><trkpt lat="32.3504544" lon="-110.5812059"><ele>1134.0</ele><time>2026-04-10T00:47:14.012Z</time></trkpt><trkpt lat="32.3505174" lon="-110.5811506"><ele>1134.0</ele><time>2026-04-10T00:47:15.012Z</time></trkpt><trkpt lat="32.3505787" lon="-110.581097"><ele>1134.0</ele><time>2026-04-10T00:47:16.012Z</time></trkpt><trkpt lat="32.3506363" lon="-110.5810506"><ele>1134.0</ele><time>2026-04-10T00:47:17.012Z</time></trkpt><trkpt lat="32.3506925" lon="-110.5810127"><ele>1134.0</ele><time>2026-04-10T00:47:18.012Z</time></trkpt><trkpt lat="32.3508037" lon="-110.5809648"><ele>1132.8</ele><time>2026-04-10T00:47:20.012Z</time></trkpt><trkpt lat="32.3509248" lon="-110.5810003"><ele>1131.6000000000001</ele><time>2026-04-10T00:47:22.012Z</time></trkpt><trkpt lat="32.3509891" lon="-110.5810232"><ele>1130.4</ele><time>2026-04-10T00:47:23.011Z</time></trkpt><trkpt lat="32.3511029" lon="-110.5810422"><ele>1129.2</ele><time>2026-04-10T00:47:25.012Z</time></trkpt><trkpt lat="32.3512092" lon="-110.5810031"><ele>1128.0</ele><time>2026-04-10T00:47:27.012Z</time></trkpt><trkpt lat="32.3512652" lon="-110.5809687"><ele>1128.0</ele><time>2026-04-10T00:47:28.012Z</time></trkpt><trkpt lat="32.3513661" lon="-110.5809133"><ele>1128.0</ele><time>2026-04-10T00:47:30.011Z</time></trkpt><trkpt lat="32.3514638" lon="-110.580892"><ele>1128.0</ele><time>2026-04-10T00:47:32.011Z</time></trkpt><trkpt lat="32.3515549" lon="-110.580891"><ele>1128.0</ele><time>2026-04-10T00:47:34.013Z</time></trkpt><trkpt lat="32.3516628" lon="-110.5808613"><ele>1128.0</ele><time>2026-04-10T00:47:36.012Z</time></trkpt><trkpt lat="32.3517441" lon="-110.5807835"><ele>1127.6666666666667</ele><time>2026-04-10T00:47:38.012Z</time></trkpt><trkpt lat="32.3518368" lon="-110.5807021"><ele>1127.3333333333333</ele><time>2026-04-10T00:47:40.012Z</time></trkpt><trkpt lat="32.3519003" lon="-110.5806809"><ele>1127.0</ele><time>2026-04-10T00:47:41.013Z</time></trkpt><trkpt lat="32.3519663" lon="-110.5806711"><ele>1126.6666666666665</ele><time>2026-04-10T00:47:42.013Z</time></trkpt><trkpt lat="32.3520336" lon="-110.5806607"><ele>1126.3333333333333</ele><time>2026-04-10T00:47:43.013Z</time></trkpt><trkpt lat="32.3521023" lon="-110.5806474"><ele>1126.0</ele><time>2026-04-10T00:47:44.013Z</time></trkpt><trkpt lat="32.3521676" lon="-110.5806325"><ele>1126.6</ele><time>2026-04-10T00:47:45.013Z</time></trkpt><trkpt lat="32.3522334" lon="-110.5806226"><ele>1127.1999999999998</ele><time>2026-04-10T00:47:46.013Z</time></trkpt><trkpt lat="32.3522971" lon="-110.5806172"><ele>1127.8000000000002</ele><time>2026-04-10T00:47:47.013Z</time></trkpt><trkpt lat="32.3524114" lon="-110.5805807"><ele>1128.4</ele><time>2026-04-10T00:47:49.013Z</time></trkpt><trkpt lat="32.3525105" lon="-110.5805061"><ele>1129.0</ele><time>2026-04-10T00:47:51.013Z</time></trkpt><trkpt lat="32.3526163" lon="-110.5804859"><ele>1129.0</ele><time>2026-04-10T00:47:53.013Z</time></trkpt><trkpt lat="32.3527359" lon="-110.5805373"><ele>1129.0</ele><time>2026-04-10T00:47:55.013Z</time></trkpt><trkpt lat="32.3527944" lon="-110.5805684"><ele>1129.0</ele><time>2026-04-10T00:47:56.013Z</time></trkpt><trkpt lat="32.3528568" lon="-110.5805858"><ele>1129.0</ele><time>2026-04-10T00:47:57.013Z</time></trkpt><trkpt lat="32.352923" lon="-110.5805855"><ele>1129.0</ele><time>2026-04-10T00:47:58.013Z</time></trkpt><trkpt lat="32.3530376" lon="-110.5805759"><ele>1129.0</ele><time>2026-04-10T00:48:00.013Z</time></trkpt><trkpt lat="32.3531164" lon="-110.5805514"><ele>1129.142857142857</ele><time>2026-04-10T00:48:02.013Z</time></trkpt><trkpt lat="32.3531839" lon="-110.5805152"><ele>1129.2857142857142</ele><time>2026-04-10T00:48:04.013Z</time></trkpt><trkpt lat="32.3532412" lon="-110.5804507"><ele>1129.4285714285713</ele><time>2026-04-10T00:48:06.013Z</time></trkpt><trkpt lat="32.3532736" lon="-110.580366"><ele>1129.5714285714284</ele><time>2026-04-10T00:48:08.013Z</time></trkpt><trkpt lat="32.3533045" lon="-110.5802856"><ele>1129.7142857142858</ele><time>2026-04-10T00:48:10.013Z</time></trkpt><trkpt lat="32.3533582" lon="-110.5802438"><ele>1129.8571428571427</ele><time>2026-04-10T00:48:12.013Z</time></trkpt><trkpt lat="32.3534359" lon="-110.5802461"><ele>1130.0</ele><time>2026-04-10T00:48:14.013Z</time></trkpt><trkpt lat="32.3535336" lon="-110.5802836"><ele>1129.6</ele><time>2026-04-10T00:48:16.013Z</time></trkpt><trkpt lat="32.3536227" lon="-110.5802811"><ele>1129.2</ele><time>2026-04-10T00:48:18.013Z</time></trkpt><trkpt lat="32.3537266" lon="-110.580245"><ele>1128.8</ele><time>2026-04-10T00:48:20.013Z</time></trkpt><trkpt lat="32.353841" lon="-110.5801979"><ele>1128.4</ele><time>2026-04-10T00:48:22.013Z</time></trkpt><trkpt lat="32.3539619" lon="-110.5801626"><ele>1128.0</ele><time>2026-04-10T00:48:24.013Z</time></trkpt><trkpt lat="32.3540883" lon="-110.5801527"><ele>1127.5</ele><time>2026-04-10T00:48:26.013Z</time></trkpt><trkpt lat="32.3541523" lon="-110.5801467"><ele>1127.0</ele><time>2026-04-10T00:48:27.012Z</time></trkpt><trkpt lat="32.3542178" lon="-110.5801345"><ele>1126.5</ele><time>2026-04-10T00:48:28.013Z</time></trkpt><trkpt lat="32.3542843" lon="-110.5801169"><ele>1126.0</ele><time>2026-04-10T00:48:29.013Z</time></trkpt><trkpt lat="32.3543471" lon="-110.5800976"><ele>1125.5</ele><time>2026-04-10T00:48:30.013Z</time></trkpt><trkpt lat="32.3544573" lon="-110.5800546"><ele>1125.0</ele><time>2026-04-10T00:48:32.013Z</time></trkpt><trkpt lat="32.3545722" lon="-110.579981"><ele>1125.0</ele><time>2026-04-10T00:48:34.012Z</time></trkpt><trkpt lat="32.3546319" lon="-110.5799335"><ele>1125.0</ele><time>2026-04-10T00:48:35.013Z</time></trkpt><trkpt lat="32.3546893" lon="-110.5798878"><ele>1125.0</ele><time>2026-04-10T00:48:36.012Z</time></trkpt><trkpt lat="32.3547487" lon="-110.5798449"><ele>1125.0</ele><time>2026-04-10T00:48:37.013Z</time></trkpt><trkpt lat="32.3548115" lon="-110.5798205"><ele>1125.0</ele><time>2026-04-10T00:48:38.013Z</time></trkpt><trkpt lat="32.3548753" lon="-110.5797971"><ele>1125.0</ele><time>2026-04-10T00:48:39.013Z</time></trkpt><trkpt lat="32.3549348" lon="-110.5797703"><ele>1125.0</ele><time>2026-04-10T00:48:40.013Z</time></trkpt><trkpt lat="32.3550357" lon="-110.5796983"><ele>1125.3333333333333</ele><time>2026-04-10T00:48:42.013Z</time></trkpt><trkpt lat="32.3551144" lon="-110.5795883"><ele>1125.6666666666667</ele><time>2026-04-10T00:48:44.013Z</time></trkpt><trkpt lat="32.3551501" lon="-110.5795218"><ele>1126.0</ele><time>2026-04-10T00:48:45.013Z</time></trkpt><trkpt lat="32.3551843" lon="-110.5794482"><ele>1126.3333333333335</ele><time>2026-04-10T00:48:46.013Z</time></trkpt><trkpt lat="32.3552182" lon="-110.5793756"><ele>1126.6666666666667</ele><time>2026-04-10T00:48:47.013Z</time></trkpt><trkpt lat="32.3552562" lon="-110.5793097"><ele>1127.0</ele><time>2026-04-10T00:48:48.013Z</time></trkpt><trkpt lat="32.3552988" lon="-110.579253"><ele>1126.4</ele><time>2026-04-10T00:48:49.013Z</time></trkpt><trkpt lat="32.355406" lon="-110.5791813"><ele>1125.8000000000002</ele><time>2026-04-10T00:48:51.012Z</time></trkpt><trkpt lat="32.3555186" lon="-110.5791182"><ele>1125.2</ele><time>2026-04-10T00:48:53.012Z</time></trkpt><trkpt lat="32.3555729" lon="-110.5790765"><ele>1124.6000000000001</ele><time>2026-04-10T00:48:54.013Z</time></trkpt><trkpt lat="32.3556677" lon="-110.5789931"><ele>1124.0</ele><time>2026-04-10T00:48:56.013Z</time></trkpt><trkpt lat="32.3557372" lon="-110.5788756"><ele>1124.0</ele><time>2026-04-10T00:48:58.013Z</time></trkpt><trkpt lat="32.3557924" lon="-110.5787488"><ele>1124.0</ele><time>2026-04-10T00:49:00.013Z</time></trkpt><trkpt lat="32.3558217" lon="-110.578678"><ele>1124.0</ele><time>2026-04-10T00:49:01.013Z</time></trkpt><trkpt lat="32.3558545" lon="-110.5786064"><ele>1124.0</ele><time>2026-04-10T00:49:02.013Z</time></trkpt><trkpt lat="32.3558944" lon="-110.5785378"><ele>1124.0</ele><time>2026-04-10T00:49:03.013Z</time></trkpt><trkpt lat="32.3559397" lon="-110.5784758"><ele>1124.0</ele><time>2026-04-10T00:49:04.013Z</time></trkpt><trkpt lat="32.3559844" lon="-110.5784043"><ele>1123.5714285714287</ele><time>2026-04-10T00:49:05.013Z</time></trkpt><trkpt lat="32.3560244" lon="-110.5783269"><ele>1123.142857142857</ele><time>2026-04-10T00:49:06.013Z</time></trkpt><trkpt lat="32.3560587" lon="-110.578248"><ele>1122.7142857142858</ele><time>2026-04-10T00:49:07.013Z</time></trkpt><trkpt lat="32.3560865" lon="-110.5781676"><ele>1122.2857142857142</ele><time>2026-04-10T00:49:08.013Z</time></trkpt><trkpt lat="32.3561114" lon="-110.5780882"><ele>1121.857142857143</ele><time>2026-04-10T00:49:09.013Z</time></trkpt><trkpt lat="32.3561371" lon="-110.5780133"><ele>1121.4285714285716</ele><time>2026-04-10T00:49:10.013Z</time></trkpt><trkpt lat="32.356166" lon="-110.5779407"><ele>1121.0</ele><time>2026-04-10T00:49:11.013Z</time></trkpt><trkpt lat="32.3561979" lon="-110.5778627"><ele>1121.3333333333335</ele><time>2026-04-10T00:49:12.013Z</time></trkpt><trkpt lat="32.3562305" lon="-110.5777848"><ele>1121.6666666666667</ele><time>2026-04-10T00:49:13.013Z</time></trkpt><trkpt lat="32.3562649" lon="-110.5777044"><ele>1122.0</ele><time>2026-04-10T00:49:14.013Z</time></trkpt><trkpt lat="32.3563047" lon="-110.5776224"><ele>1122.3333333333333</ele><time>2026-04-10T00:49:15.013Z</time></trkpt><trkpt lat="32.3563509" lon="-110.5775281"><ele>1122.6666666666665</ele><time>2026-04-10T00:49:16.013Z</time></trkpt><trkpt lat="32.3563963" lon="-110.5774318"><ele>1123.0</ele><time>2026-04-10T00:49:17.013Z</time></trkpt><trkpt lat="32.3564342" lon="-110.5773411"><ele>1122.9999999999998</ele><time>2026-04-10T00:49:18.012Z</time></trkpt><trkpt lat="32.3564711" lon="-110.5772553"><ele>1123.0</ele><time>2026-04-10T00:49:19.013Z</time></trkpt><trkpt lat="32.3565079" lon="-110.5771742"><ele>1123.0</ele><time>2026-04-10T00:49:20.013Z</time></trkpt><trkpt lat="32.3565436" lon="-110.5770958"><ele>1123.0</ele><time>2026-04-10T00:49:21.012Z</time></trkpt><trkpt lat="32.3565784" lon="-110.5770235"><ele>1123.0</ele><time>2026-04-10T00:49:22.013Z</time></trkpt><trkpt lat="32.3566019" lon="-110.5769517"><ele>1122.9999999999998</ele><time>2026-04-10T00:49:23.013Z</time></trkpt><trkpt lat="32.3566179" lon="-110.5768736"><ele>1123.0</ele><time>2026-04-10T00:49:24.013Z</time></trkpt><trkpt lat="32.356631" lon="-110.5767893"><ele>1121.9999999999998</ele><time>2026-04-10T00:49:25.013Z</time></trkpt><trkpt lat="32.3566453" lon="-110.5767097"><ele>1121.0</ele><time>2026-04-10T00:49:26.013Z</time></trkpt><trkpt lat="32.3566645" lon="-110.5766308"><ele>1120.0</ele><time>2026-04-10T00:49:27.012Z</time></trkpt><trkpt lat="32.3566853" lon="-110.5765586"><ele>1119.0</ele><time>2026-04-10T00:49:28.013Z</time></trkpt><trkpt lat="32.3567148" lon="-110.5764911"><ele>1118.0</ele><time>2026-04-10T00:49:29.013Z</time></trkpt><trkpt lat="32.3567445" lon="-110.5764242"><ele>1116.9999999999998</ele><time>2026-04-10T00:49:30.013Z</time></trkpt><trkpt lat="32.3567668" lon="-110.5763527"><ele>1116.0</ele><time>2026-04-10T00:49:31.013Z</time></trkpt><trkpt lat="32.3567784" lon="-110.5762769"><ele>1115.9999999999998</ele><time>2026-04-10T00:49:32.013Z</time></trkpt><trkpt lat="32.35678" lon="-110.5762006"><ele>1116.0</ele><time>2026-04-10T00:49:33.013Z</time></trkpt><trkpt lat="32.3567806" lon="-110.5761249"><ele>1116.0</ele><time>2026-04-10T00:49:34.013Z</time></trkpt><trkpt lat="32.3567815" lon="-110.5760469"><ele>1116.0</ele><time>2026-04-10T00:49:35.013Z</time></trkpt><trkpt lat="32.3567761" lon="-110.5759668"><ele>1116.0</ele><time>2026-04-10T00:49:36.013Z</time></trkpt><trkpt lat="32.3567661" lon="-110.5758825"><ele>1115.9999999999998</ele><time>2026-04-10T00:49:37.013Z</time></trkpt><trkpt lat="32.3567555" lon="-110.5758055"><ele>1116.0</ele><time>2026-04-10T00:49:38.013Z</time></trkpt><trkpt lat="32.3567637" lon="-110.5756802"><ele>1116.2</ele><time>2026-04-10T00:49:40.013Z</time></trkpt><trkpt lat="32.3568387" lon="-110.5755779"><ele>1116.3999999999999</ele><time>2026-04-10T00:49:42.013Z</time></trkpt><trkpt lat="32.3569057" lon="-110.5755377"><ele>1116.6</ele><time>2026-04-10T00:49:43.013Z</time></trkpt><trkpt lat="32.3569813" lon="-110.5755104"><ele>1116.8</ele><time>2026-04-10T00:49:44.013Z</time></trkpt><trkpt lat="32.3570516" lon="-110.5754931"><ele>1117.0</ele><time>2026-04-10T00:49:45.013Z</time></trkpt><trkpt lat="32.3571596" lon="-110.575457"><ele>1117.2</ele><time>2026-04-10T00:49:47.014Z</time></trkpt><trkpt lat="32.3572314" lon="-110.5753901"><ele>1117.4</ele><time>2026-04-10T00:49:49.014Z</time></trkpt><trkpt lat="32.3573052" lon="-110.5753123"><ele>1117.6</ele><time>2026-04-10T00:49:51.014Z</time></trkpt><trkpt lat="32.3573888" lon="-110.5752283"><ele>1117.8</ele><time>2026-04-10T00:49:53.013Z</time></trkpt><trkpt lat="32.3574703" lon="-110.5751328"><ele>1118.0</ele><time>2026-04-10T00:49:55.014Z</time></trkpt><trkpt lat="32.3575466" lon="-110.5750142"><ele>1118.0</ele><time>2026-04-10T00:49:57.014Z</time></trkpt><trkpt lat="32.3575855" lon="-110.574941"><ele>1118.0</ele><time>2026-04-10T00:49:58.014Z</time></trkpt><trkpt lat="32.3576248" lon="-110.5748643"><ele>1118.0</ele><time>2026-04-10T00:49:59.014Z</time></trkpt><trkpt lat="32.3576657" lon="-110.5747919"><ele>1118.0</ele><time>2026-04-10T00:50:00.014Z</time></trkpt><trkpt lat="32.3577106" lon="-110.5747269"><ele>1118.0</ele><time>2026-04-10T00:50:01.014Z</time></trkpt><trkpt lat="32.357761" lon="-110.5746617"><ele>1118.0</ele><time>2026-04-10T00:50:02.014Z</time></trkpt><trkpt lat="32.3578114" lon="-110.5745998"><ele>1118.0</ele><time>2026-04-10T00:50:03.014Z</time></trkpt><trkpt lat="32.3578589" lon="-110.5745409"><ele>1117.2</ele><time>2026-04-10T00:50:04.014Z</time></trkpt><trkpt lat="32.3579052" lon="-110.5744748"><ele>1116.4</ele><time>2026-04-10T00:50:05.013Z</time></trkpt><trkpt lat="32.3579485" lon="-110.5744073"><ele>1115.6000000000001</ele><time>2026-04-10T00:50:06.014Z</time></trkpt><trkpt lat="32.3580208" lon="-110.5742931"><ele>1114.8</ele><time>2026-04-10T00:50:08.014Z</time></trkpt><trkpt lat="32.3580807" lon="-110.5741855"><ele>1114.0</ele><time>2026-04-10T00:50:10.014Z</time></trkpt><trkpt lat="32.3581158" lon="-110.5740538"><ele>1114.0</ele><time>2026-04-10T00:50:12.014Z</time></trkpt><trkpt lat="32.3580884" lon="-110.573923"><ele>1114.0</ele><time>2026-04-10T00:50:14.014Z</time></trkpt><trkpt lat="32.3580027" lon="-110.573818"><ele>1114.0</ele><time>2026-04-10T00:50:16.014Z</time></trkpt><trkpt lat="32.3579063" lon="-110.5737535"><ele>1114.0</ele><time>2026-04-10T00:50:18.014Z</time></trkpt><trkpt lat="32.3578779" lon="-110.5736804"><ele>1114.0</ele><time>2026-04-10T00:50:20.014Z</time></trkpt><trkpt lat="32.3579004" lon="-110.5736038"><ele>1113.8</ele><time>2026-04-10T00:50:22.014Z</time></trkpt><trkpt lat="32.3579897" lon="-110.5735573"><ele>1113.6000000000001</ele><time>2026-04-10T00:50:24.014Z</time></trkpt><trkpt lat="32.3581217" lon="-110.5735206"><ele>1113.4</ele><time>2026-04-10T00:50:26.014Z</time></trkpt><trkpt lat="32.3582007" lon="-110.5735009"><ele>1113.2</ele><time>2026-04-10T00:50:27.014Z</time></trkpt><trkpt lat="32.3582758" lon="-110.5734811"><ele>1113.0</ele><time>2026-04-10T00:50:28.014Z</time></trkpt><trkpt lat="32.3583387" lon="-110.5734601"><ele>1112.1666666666667</ele><time>2026-04-10T00:50:29.014Z</time></trkpt><trkpt lat="32.3584029" lon="-110.5734351"><ele>1111.3333333333333</ele><time>2026-04-10T00:50:30.014Z</time></trkpt><trkpt lat="32.3584656" lon="-110.5733982"><ele>1110.5</ele><time>2026-04-10T00:50:31.014Z</time></trkpt><trkpt lat="32.3585301" lon="-110.5733738"><ele>1109.6666666666665</ele><time>2026-04-10T00:50:32.014Z</time></trkpt><trkpt lat="32.358653" lon="-110.5733721"><ele>1108.8333333333333</ele><time>2026-04-10T00:50:34.014Z</time></trkpt><trkpt lat="32.3587193" lon="-110.5733768"><ele>1108.0</ele><time>2026-04-10T00:50:35.014Z</time></trkpt><trkpt lat="32.358785" lon="-110.5733729"><ele>1108.0</ele><time>2026-04-10T00:50:36.014Z</time></trkpt><trkpt lat="32.3588485" lon="-110.5733585"><ele>1108.0</ele><time>2026-04-10T00:50:37.014Z</time></trkpt><trkpt lat="32.3589503" lon="-110.5733134"><ele>1108.0</ele><time>2026-04-10T00:50:39.014Z</time></trkpt><trkpt lat="32.3590246" lon="-110.5732524"><ele>1108.0</ele><time>2026-04-10T00:50:41.014Z</time></trkpt><trkpt lat="32.3590722" lon="-110.573142"><ele>1108.0</ele><time>2026-04-10T00:50:43.014Z</time></trkpt><trkpt lat="32.3591033" lon="-110.573001"><ele>1107.6</ele><time>2026-04-10T00:50:45.014Z</time></trkpt><trkpt lat="32.3591387" lon="-110.5728596"><ele>1107.1999999999998</ele><time>2026-04-10T00:50:47.014Z</time></trkpt><trkpt lat="32.3591829" lon="-110.5727233"><ele>1106.8</ele><time>2026-04-10T00:50:49.014Z</time></trkpt><trkpt lat="32.3592167" lon="-110.5726038"><ele>1106.3999999999999</ele><time>2026-04-10T00:50:51.014Z</time></trkpt><trkpt lat="32.3591894" lon="-110.5725164"><ele>1106.0</ele><time>2026-04-10T00:50:53.013Z</time></trkpt><trkpt lat="32.359123" lon="-110.5724"><ele>1106.75</ele><time>2026-04-10T00:50:55.014Z</time></trkpt><trkpt lat="32.359069" lon="-110.5722674"><ele>1107.5</ele><time>2026-04-10T00:50:57.014Z</time></trkpt><trkpt lat="32.3590289" lon="-110.5721338"><ele>1108.25</ele><time>2026-04-10T00:50:59.014Z</time></trkpt><trkpt lat="32.3589902" lon="-110.5719988"><ele>1109.0</ele><time>2026-04-10T00:51:01.014Z</time></trkpt><trkpt lat="32.3589614" lon="-110.5718544"><ele>1109.0</ele><time>2026-04-10T00:51:03.013Z</time></trkpt><trkpt lat="32.3589254" lon="-110.5717176"><ele>1109.0</ele><time>2026-04-10T00:51:05.014Z</time></trkpt><trkpt lat="32.3588626" lon="-110.5716049"><ele>1109.0</ele><time>2026-04-10T00:51:07.014Z</time></trkpt><trkpt lat="32.3587751" lon="-110.5715029"><ele>1109.0</ele><time>2026-04-10T00:51:09.014Z</time></trkpt><trkpt lat="32.358693" lon="-110.5714224"><ele>1109.4</ele><time>2026-04-10T00:51:11.014Z</time></trkpt><trkpt lat="32.3586171" lon="-110.5713196"><ele>1109.8000000000002</ele><time>2026-04-10T00:51:13.014Z</time></trkpt><trkpt lat="32.3585781" lon="-110.5712578"><ele>1110.1999999999998</ele><time>2026-04-10T00:51:14.014Z</time></trkpt><trkpt lat="32.3585289" lon="-110.5712103"><ele>1110.6</ele><time>2026-04-10T00:51:15.014Z</time></trkpt><trkpt lat="32.3584339" lon="-110.5711703"><ele>1111.0</ele><time>2026-04-10T00:51:17.013Z</time></trkpt><trkpt lat="32.3583387" lon="-110.5712468"><ele>1111.1666666666665</ele><time>2026-04-10T00:51:19.013Z</time></trkpt><trkpt lat="32.3582884" lon="-110.5712957"><ele>1111.3333333333333</ele><time>2026-04-10T00:51:20.014Z</time></trkpt><trkpt lat="32.3582359" lon="-110.5713399"><ele>1111.5</ele><time>2026-04-10T00:51:21.013Z</time></trkpt><trkpt lat="32.3581175" lon="-110.5713625"><ele>1111.6666666666667</ele><time>2026-04-10T00:51:23.014Z</time></trkpt><trkpt lat="32.3580538" lon="-110.5713509"><ele>1111.8333333333335</ele><time>2026-04-10T00:51:24.014Z</time></trkpt><trkpt lat="32.3579892" lon="-110.5713354"><ele>1112.0</ele><time>2026-04-10T00:51:25.014Z</time></trkpt><trkpt lat="32.3578764" lon="-110.5712801"><ele>1112.5</ele><time>2026-04-10T00:51:27.014Z</time></trkpt><trkpt lat="32.3578243" lon="-110.5712376"><ele>1113.0</ele><time>2026-04-10T00:51:28.014Z</time></trkpt><trkpt lat="32.3577871" lon="-110.5711708"><ele>1113.5</ele><time>2026-04-10T00:51:29.014Z</time></trkpt><trkpt lat="32.3577533" lon="-110.5710857"><ele>1114.0</ele><time>2026-04-10T00:51:30.013Z</time></trkpt><trkpt lat="32.3577174" lon="-110.5709847"><ele>1114.5</ele><time>2026-04-10T00:51:31.014Z</time></trkpt><trkpt lat="32.3576872" lon="-110.5708754"><ele>1115.0</ele><time>2026-04-10T00:51:32.014Z</time></trkpt><trkpt lat="32.3576591" lon="-110.5707646"><ele>1115.0</ele><time>2026-04-10T00:51:33.014Z</time></trkpt><trkpt lat="32.357632" lon="-110.5706549"><ele>1115.0</ele><time>2026-04-10T00:51:34.014Z</time></trkpt><trkpt lat="32.3576057" lon="-110.5705535"><ele>1115.0</ele><time>2026-04-10T00:51:35.014Z</time></trkpt><trkpt lat="32.3575848" lon="-110.5704546"><ele>1115.0</ele><time>2026-04-10T00:51:36.014Z</time></trkpt><trkpt lat="32.3575684" lon="-110.5703552"><ele>1115.0</ele><time>2026-04-10T00:51:37.014Z</time></trkpt><trkpt lat="32.3575522" lon="-110.5702579"><ele>1115.0</ele><time>2026-04-10T00:51:38.014Z</time></trkpt><trkpt lat="32.3575332" lon="-110.5701601"><ele>1115.3333333333335</ele><time>2026-04-10T00:51:39.014Z</time></trkpt><trkpt lat="32.3575127" lon="-110.5700651"><ele>1115.6666666666667</ele><time>2026-04-10T00:51:40.014Z</time></trkpt><trkpt lat="32.3574825" lon="-110.5699729"><ele>1116.0</ele><time>2026-04-10T00:51:41.014Z</time></trkpt><trkpt lat="32.3574514" lon="-110.569886"><ele>1116.3333333333333</ele><time>2026-04-10T00:51:42.014Z</time></trkpt><trkpt lat="32.3574154" lon="-110.5698018"><ele>1116.6666666666665</ele><time>2026-04-10T00:51:43.014Z</time></trkpt><trkpt lat="32.3573799" lon="-110.5697267"><ele>1117.0</ele><time>2026-04-10T00:51:44.014Z</time></trkpt><trkpt lat="32.3573413" lon="-110.5696489"><ele>1117.0</ele><time>2026-04-10T00:51:45.013Z</time></trkpt><trkpt lat="32.3573027" lon="-110.5695739"><ele>1117.0</ele><time>2026-04-10T00:51:46.014Z</time></trkpt><trkpt lat="32.3572628" lon="-110.5695103"><ele>1117.0</ele><time>2026-04-10T00:51:47.014Z</time></trkpt><trkpt lat="32.3572199" lon="-110.5694547"><ele>1117.0</ele><time>2026-04-10T00:51:48.015Z</time></trkpt><trkpt lat="32.3571285" lon="-110.5693968"><ele>1117.0</ele><time>2026-04-10T00:51:50.015Z</time></trkpt><trkpt lat="32.3570288" lon="-110.5693985"><ele>1117.0</ele><time>2026-04-10T00:51:52.014Z</time></trkpt><trkpt lat="32.3569166" lon="-110.5694072"><ele>1117.5</ele><time>2026-04-10T00:51:54.015Z</time></trkpt><trkpt lat="32.3568131" lon="-110.5694339"><ele>1118.0</ele><time>2026-04-10T00:51:56.015Z</time></trkpt><trkpt lat="32.3566984" lon="-110.5694037"><ele>1118.5</ele><time>2026-04-10T00:51:58.014Z</time></trkpt><trkpt lat="32.3566497" lon="-110.5693411"><ele>1119.0</ele><time>2026-04-10T00:51:59.015Z</time></trkpt><trkpt lat="32.3566126" lon="-110.56927"><ele>1119.5</ele><time>2026-04-10T00:52:00.015Z</time></trkpt><trkpt lat="32.3565801" lon="-110.5692008"><ele>1120.0</ele><time>2026-04-10T00:52:01.015Z</time></trkpt><trkpt lat="32.3565408" lon="-110.5691422"><ele>1120.0</ele><time>2026-04-10T00:52:02.015Z</time></trkpt><trkpt lat="32.3564929" lon="-110.5690841"><ele>1120.0</ele><time>2026-04-10T00:52:03.015Z</time></trkpt><trkpt lat="32.356447" lon="-110.5690264"><ele>1120.0</ele><time>2026-04-10T00:52:04.015Z</time></trkpt><trkpt lat="32.3564075" lon="-110.5689525"><ele>1120.0</ele><time>2026-04-10T00:52:05.015Z</time></trkpt><trkpt lat="32.356369" lon="-110.568874"><ele>1120.0</ele><time>2026-04-10T00:52:06.015Z</time></trkpt><trkpt lat="32.3563277" lon="-110.5688114"><ele>1120.0</ele><time>2026-04-10T00:52:07.015Z</time></trkpt><trkpt lat="32.3562773" lon="-110.568759"><ele>1120.0</ele><time>2026-04-10T00:52:08.015Z</time></trkpt><trkpt lat="32.3562215" lon="-110.5687199"><ele>1119.8333333333333</ele><time>2026-04-10T00:52:09.015Z</time></trkpt><trkpt lat="32.3561611" lon="-110.5686928"><ele>1119.6666666666665</ele><time>2026-04-10T00:52:10.015Z</time></trkpt><trkpt lat="32.3560987" lon="-110.5686775"><ele>1119.5</ele><time>2026-04-10T00:52:11.015Z</time></trkpt><trkpt lat="32.355978" lon="-110.5686637"><ele>1119.3333333333333</ele><time>2026-04-10T00:52:13.015Z</time></trkpt><trkpt lat="32.3558695" lon="-110.5686131"><ele>1119.1666666666667</ele><time>2026-04-10T00:52:15.015Z</time></trkpt><trkpt lat="32.3558156" lon="-110.5685605"><ele>1119.0</ele><time>2026-04-10T00:52:16.015Z</time></trkpt><trkpt lat="32.3557657" lon="-110.5685095"><ele>1120.1666666666667</ele><time>2026-04-10T00:52:17.015Z</time></trkpt><trkpt lat="32.355679" lon="-110.5684158"><ele>1121.3333333333333</ele><time>2026-04-10T00:52:19.015Z</time></trkpt><trkpt lat="32.3556637" lon="-110.5683089"><ele>1122.5</ele><time>2026-04-10T00:52:21.015Z</time></trkpt><trkpt lat="32.3556817" lon="-110.5682339"><ele>1123.6666666666665</ele><time>2026-04-10T00:52:22.014Z</time></trkpt><trkpt lat="32.3556966" lon="-110.5681539"><ele>1124.8333333333333</ele><time>2026-04-10T00:52:23.014Z</time></trkpt><trkpt lat="32.3557051" lon="-110.568068"><ele>1126.0</ele><time>2026-04-10T00:52:24.015Z</time></trkpt><trkpt lat="32.3557067" lon="-110.5679857"><ele>1126.0</ele><time>2026-04-10T00:52:25.015Z</time></trkpt><trkpt lat="32.3556986" lon="-110.5678977"><ele>1126.0</ele><time>2026-04-10T00:52:26.015Z</time></trkpt><trkpt lat="32.3556842" lon="-110.5678137"><ele>1126.0</ele><time>2026-04-10T00:52:27.015Z</time></trkpt><trkpt lat="32.3556633" lon="-110.5677342"><ele>1126.0</ele><time>2026-04-10T00:52:28.015Z</time></trkpt><trkpt lat="32.3556405" lon="-110.567655"><ele>1126.0</ele><time>2026-04-10T00:52:29.015Z</time></trkpt><trkpt lat="32.3556011" lon="-110.5675802"><ele>1126.0</ele><time>2026-04-10T00:52:30.015Z</time></trkpt><trkpt lat="32.3555515" lon="-110.5675114"><ele>1126.0</ele><time>2026-04-10T00:52:31.015Z</time></trkpt><trkpt lat="32.3555006" lon="-110.5674475"><ele>1126.8333333333333</ele><time>2026-04-10T00:52:32.014Z</time></trkpt><trkpt lat="32.3554466" lon="-110.5673966"><ele>1127.6666666666665</ele><time>2026-04-10T00:52:33.015Z</time></trkpt><trkpt lat="32.3553904" lon="-110.5673608"><ele>1128.5</ele><time>2026-04-10T00:52:34.015Z</time></trkpt><trkpt lat="32.3552784" lon="-110.567314"><ele>1129.3333333333333</ele><time>2026-04-10T00:52:36.015Z</time></trkpt><trkpt lat="32.3551935" lon="-110.5672179"><ele>1130.1666666666667</ele><time>2026-04-10T00:52:38.015Z</time></trkpt><trkpt lat="32.3551596" lon="-110.5671454"><ele>1131.0</ele><time>2026-04-10T00:52:39.015Z</time></trkpt><trkpt lat="32.3551199" lon="-110.5670738"><ele>1130.0</ele><time>2026-04-10T00:52:40.015Z</time></trkpt><trkpt lat="32.3550786" lon="-110.5670137"><ele>1129.0</ele><time>2026-04-10T00:52:41.015Z</time></trkpt><trkpt lat="32.3550223" lon="-110.5668935"><ele>1128.0</ele><time>2026-04-10T00:52:43.014Z</time></trkpt><trkpt lat="32.3549745" lon="-110.5667511"><ele>1127.0</ele><time>2026-04-10T00:52:45.015Z</time></trkpt><trkpt lat="32.3549401" lon="-110.5666793"><ele>1126.0</ele><time>2026-04-10T00:52:46.015Z</time></trkpt><trkpt lat="32.354904" lon="-110.5666067"><ele>1126.0</ele><time>2026-04-10T00:52:47.014Z</time></trkpt><trkpt lat="32.3548648" lon="-110.5665362"><ele>1126.0</ele><time>2026-04-10T00:52:48.015Z</time></trkpt><trkpt lat="32.3548202" lon="-110.5664629"><ele>1126.0</ele><time>2026-04-10T00:52:49.015Z</time></trkpt><trkpt lat="32.3547733" lon="-110.5663888"><ele>1126.0</ele><time>2026-04-10T00:52:50.015Z</time></trkpt><trkpt lat="32.3547273" lon="-110.5663143"><ele>1126.0</ele><time>2026-04-10T00:52:51.015Z</time></trkpt><trkpt lat="32.3546812" lon="-110.5662493"><ele>1126.0</ele><time>2026-04-10T00:52:52.015Z</time></trkpt><trkpt lat="32.354634" lon="-110.5661912"><ele>1126.0</ele><time>2026-04-10T00:52:53.015Z</time></trkpt><trkpt lat="32.3545849" lon="-110.5661261"><ele>1127.2857142857142</ele><time>2026-04-10T00:52:54.015Z</time></trkpt><trkpt lat="32.3545389" lon="-110.5660602"><ele>1128.5714285714287</ele><time>2026-04-10T00:52:55.015Z</time></trkpt><trkpt lat="32.3544965" lon="-110.5659914"><ele>1129.857142857143</ele><time>2026-04-10T00:52:56.015Z</time></trkpt><trkpt lat="32.3544816" lon="-110.565915"><ele>1131.142857142857</ele><time>2026-04-10T00:52:57.015Z</time></trkpt><trkpt lat="32.3544781" lon="-110.5658321"><ele>1132.4285714285713</ele><time>2026-04-10T00:52:58.015Z</time></trkpt><trkpt lat="32.3544794" lon="-110.5657452"><ele>1133.7142857142858</ele><time>2026-04-10T00:52:59.015Z</time></trkpt><trkpt lat="32.3544806" lon="-110.5656592"><ele>1135.0</ele><time>2026-04-10T00:53:00.015Z</time></trkpt><trkpt lat="32.3544779" lon="-110.5655773"><ele>1135.0</ele><time>2026-04-10T00:53:01.015Z</time></trkpt><trkpt lat="32.354476" lon="-110.5654931"><ele>1135.0</ele><time>2026-04-10T00:53:02.015Z</time></trkpt><trkpt lat="32.3544772" lon="-110.5654106"><ele>1135.0</ele><time>2026-04-10T00:53:03.015Z</time></trkpt><trkpt lat="32.3544918" lon="-110.5653303"><ele>1135.0</ele><time>2026-04-10T00:53:04.015Z</time></trkpt><trkpt lat="32.3545115" lon="-110.5652486"><ele>1135.0</ele><time>2026-04-10T00:53:05.015Z</time></trkpt><trkpt lat="32.3545281" lon="-110.5651762"><ele>1135.0</ele><time>2026-04-10T00:53:06.015Z</time></trkpt><trkpt lat="32.3545373" lon="-110.5650292"><ele>1135.0</ele><time>2026-04-10T00:53:08.015Z</time></trkpt><trkpt lat="32.3545253" lon="-110.5649498"><ele>1135.0</ele><time>2026-04-10T00:53:09.015Z</time></trkpt><trkpt lat="32.354504" lon="-110.5648672"><ele>1135.0</ele><time>2026-04-10T00:53:10.015Z</time></trkpt><trkpt lat="32.3544749" lon="-110.5647825"><ele>1135.0</ele><time>2026-04-10T00:53:11.015Z</time></trkpt><trkpt lat="32.3544377" lon="-110.5647009"><ele>1135.0</ele><time>2026-04-10T00:53:12.014Z</time></trkpt><trkpt lat="32.3543899" lon="-110.5646201"><ele>1135.0</ele><time>2026-04-10T00:53:13.014Z</time></trkpt><trkpt lat="32.3543418" lon="-110.5645428"><ele>1135.0</ele><time>2026-04-10T00:53:14.015Z</time></trkpt><trkpt lat="32.3542918" lon="-110.5644769"><ele>1135.0</ele><time>2026-04-10T00:53:15.015Z</time></trkpt><trkpt lat="32.3542437" lon="-110.5644107"><ele>1135.0</ele><time>2026-04-10T00:53:16.015Z</time></trkpt><trkpt lat="32.3541929" lon="-110.5643398"><ele>1135.0</ele><time>2026-04-10T00:53:17.014Z</time></trkpt><trkpt lat="32.3541295" lon="-110.5642732"><ele>1135.0</ele><time>2026-04-10T00:53:18.015Z</time></trkpt><trkpt lat="32.3540573" lon="-110.5642049"><ele>1135.0</ele><time>2026-04-10T00:53:19.015Z</time></trkpt><trkpt lat="32.3539892" lon="-110.5641478"><ele>1135.0</ele><time>2026-04-10T00:53:20.015Z</time></trkpt><trkpt lat="32.3539194" lon="-110.5641057"><ele>1135.0</ele><time>2026-04-10T00:53:21.015Z</time></trkpt><trkpt lat="32.3538509" lon="-110.5640766"><ele>1135.0</ele><time>2026-04-10T00:53:22.015Z</time></trkpt><trkpt lat="32.353742" lon="-110.5640077"><ele>1135.0</ele><time>2026-04-10T00:53:24.014Z</time></trkpt><trkpt lat="32.3536899" lon="-110.5639579"><ele>1135.0</ele><time>2026-04-10T00:53:25.015Z</time></trkpt><trkpt lat="32.3536396" lon="-110.5638894"><ele>1135.0</ele><time>2026-04-10T00:53:26.015Z</time></trkpt><trkpt lat="32.3535938" lon="-110.5638341"><ele>1134.6</ele><time>2026-04-10T00:53:27.015Z</time></trkpt><trkpt lat="32.3534818" lon="-110.5637656"><ele>1134.2</ele><time>2026-04-10T00:53:29.015Z</time></trkpt><trkpt lat="32.3533939" lon="-110.5637538"><ele>1133.8</ele><time>2026-04-10T00:53:30.015Z</time></trkpt><trkpt lat="32.3532965" lon="-110.563749"><ele>1133.4</ele><time>2026-04-10T00:53:31.015Z</time></trkpt><trkpt lat="32.3531788" lon="-110.5637559"><ele>1133.0</ele><time>2026-04-10T00:53:32.015Z</time></trkpt><trkpt lat="32.3530664" lon="-110.5637624"><ele>1133.5</ele><time>2026-04-10T00:53:33.015Z</time></trkpt><trkpt lat="32.3529673" lon="-110.5637739"><ele>1134.0</ele><time>2026-04-10T00:53:34.015Z</time></trkpt><trkpt lat="32.35288" lon="-110.5637797"><ele>1134.5</ele><time>2026-04-10T00:53:35.014Z</time></trkpt><trkpt lat="32.352807" lon="-110.5637749"><ele>1135.0</ele><time>2026-04-10T00:53:36.015Z</time></trkpt><trkpt lat="32.3527418" lon="-110.563755"><ele>1135.5</ele><time>2026-04-10T00:53:37.015Z</time></trkpt><trkpt lat="32.3526809" lon="-110.5637228"><ele>1136.0</ele><time>2026-04-10T00:53:38.015Z</time></trkpt><trkpt lat="32.352624" lon="-110.5636724"><ele>1136.1666666666667</ele><time>2026-04-10T00:53:39.015Z</time></trkpt><trkpt lat="32.3525737" lon="-110.5636083"><ele>1136.3333333333335</ele><time>2026-04-10T00:53:40.015Z</time></trkpt><trkpt lat="32.3525287" lon="-110.5635337"><ele>1136.5</ele><time>2026-04-10T00:53:41.015Z</time></trkpt><trkpt lat="32.3524948" lon="-110.5634467"><ele>1136.6666666666667</ele><time>2026-04-10T00:53:42.015Z</time></trkpt><trkpt lat="32.3524717" lon="-110.5633486"><ele>1136.8333333333333</ele><time>2026-04-10T00:53:43.015Z</time></trkpt><trkpt lat="32.3524567" lon="-110.563247"><ele>1137.0</ele><time>2026-04-10T00:53:44.015Z</time></trkpt><trkpt lat="32.3524424" lon="-110.5631466"><ele>1137.0</ele><time>2026-04-10T00:53:45.015Z</time></trkpt><trkpt lat="32.352426" lon="-110.5630421"><ele>1137.0</ele><time>2026-04-10T00:53:46.015Z</time></trkpt><trkpt lat="32.3524108" lon="-110.5629422"><ele>1137.0</ele><time>2026-04-10T00:53:47.015Z</time></trkpt><trkpt lat="32.3524013" lon="-110.5628442"><ele>1137.0</ele><time>2026-04-10T00:53:48.014Z</time></trkpt><trkpt lat="32.3523927" lon="-110.5627499"><ele>1137.0</ele><time>2026-04-10T00:53:49.015Z</time></trkpt><trkpt lat="32.3523719" lon="-110.5626567"><ele>1137.0</ele><time>2026-04-10T00:53:50.015Z</time></trkpt><trkpt lat="32.3523393" lon="-110.5625646"><ele>1137.5</ele><time>2026-04-10T00:53:51.015Z</time></trkpt><trkpt lat="32.3522994" lon="-110.5624736"><ele>1138.0</ele><time>2026-04-10T00:53:52.015Z</time></trkpt><trkpt lat="32.3522561" lon="-110.562392"><ele>1138.5</ele><time>2026-04-10T00:53:53.015Z</time></trkpt><trkpt lat="32.3522132" lon="-110.5623207"><ele>1139.0</ele><time>2026-04-10T00:53:54.015Z</time></trkpt><trkpt lat="32.3521616" lon="-110.5622609"><ele>1139.5</ele><time>2026-04-10T00:53:55.015Z</time></trkpt><trkpt lat="32.3521059" lon="-110.5622135"><ele>1140.0</ele><time>2026-04-10T00:53:56.015Z</time></trkpt><trkpt lat="32.3519968" lon="-110.5621704"><ele>1141.0</ele><time>2026-04-10T00:53:58.015Z</time></trkpt><trkpt lat="32.3518772" lon="-110.5621952"><ele>1142.0</ele><time>2026-04-10T00:54:00.016Z</time></trkpt><trkpt lat="32.3518071" lon="-110.5622137"><ele>1143.0</ele><time>2026-04-10T00:54:01.015Z</time></trkpt><trkpt lat="32.3517374" lon="-110.562236"><ele>1144.0</ele><time>2026-04-10T00:54:02.016Z</time></trkpt><trkpt lat="32.3516671" lon="-110.5622567"><ele>1145.0</ele><time>2026-04-10T00:54:03.016Z</time></trkpt><trkpt lat="32.3515495" lon="-110.5622511"><ele>1145.0</ele><time>2026-04-10T00:54:05.016Z</time></trkpt><trkpt lat="32.351449" lon="-110.5621656"><ele>1145.0</ele><time>2026-04-10T00:54:07.015Z</time></trkpt><trkpt lat="32.3514056" lon="-110.562097"><ele>1145.0</ele><time>2026-04-10T00:54:08.016Z</time></trkpt><trkpt lat="32.3513634" lon="-110.5620231"><ele>1145.0</ele><time>2026-04-10T00:54:09.016Z</time></trkpt><trkpt lat="32.3513162" lon="-110.5619292"><ele>1145.0</ele><time>2026-04-10T00:54:10.016Z</time></trkpt><trkpt lat="32.3512596" lon="-110.5618359"><ele>1144.8333333333335</ele><time>2026-04-10T00:54:11.016Z</time></trkpt><trkpt lat="32.3512007" lon="-110.5617527"><ele>1144.6666666666667</ele><time>2026-04-10T00:54:12.016Z</time></trkpt><trkpt lat="32.3511475" lon="-110.5616733"><ele>1144.5</ele><time>2026-04-10T00:54:13.016Z</time></trkpt><trkpt lat="32.3511056" lon="-110.5615962"><ele>1144.3333333333333</ele><time>2026-04-10T00:54:14.016Z</time></trkpt><trkpt lat="32.3510706" lon="-110.5615097"><ele>1144.1666666666665</ele><time>2026-04-10T00:54:15.016Z</time></trkpt><trkpt lat="32.3510335" lon="-110.5614235"><ele>1144.0</ele><time>2026-04-10T00:54:16.016Z</time></trkpt><trkpt lat="32.3509886" lon="-110.5613477"><ele>1144.0</ele><time>2026-04-10T00:54:17.016Z</time></trkpt><trkpt lat="32.3509332" lon="-110.5612739"><ele>1144.0</ele><time>2026-04-10T00:54:18.016Z</time></trkpt><trkpt lat="32.3508663" lon="-110.5612054"><ele>1144.0</ele><time>2026-04-10T00:54:19.016Z</time></trkpt><trkpt lat="32.3507965" lon="-110.5611413"><ele>1144.0</ele><time>2026-04-10T00:54:20.016Z</time></trkpt><trkpt lat="32.3507291" lon="-110.5610781"><ele>1144.0</ele><time>2026-04-10T00:54:21.016Z</time></trkpt><trkpt lat="32.3506709" lon="-110.5610037"><ele>1144.0</ele><time>2026-04-10T00:54:22.016Z</time></trkpt><trkpt lat="32.3506167" lon="-110.5609288"><ele>1144.3333333333333</ele><time>2026-04-10T00:54:23.016Z</time></trkpt><trkpt lat="32.3505638" lon="-110.5608633"><ele>1144.6666666666665</ele><time>2026-04-10T00:54:24.016Z</time></trkpt><trkpt lat="32.3505053" lon="-110.5608072"><ele>1145.0</ele><time>2026-04-10T00:54:25.016Z</time></trkpt><trkpt lat="32.3504386" lon="-110.5607619"><ele>1145.3333333333333</ele><time>2026-04-10T00:54:26.015Z</time></trkpt><trkpt lat="32.350367" lon="-110.5607222"><ele>1145.6666666666667</ele><time>2026-04-10T00:54:27.016Z</time></trkpt><trkpt lat="32.3502911" lon="-110.5606828"><ele>1146.0</ele><time>2026-04-10T00:54:28.016Z</time></trkpt><trkpt lat="32.3502174" lon="-110.560636"><ele>1146.3333333333333</ele><time>2026-04-10T00:54:29.016Z</time></trkpt><trkpt lat="32.3501493" lon="-110.5605809"><ele>1146.6666666666667</ele><time>2026-04-10T00:54:30.016Z</time></trkpt><trkpt lat="32.3500905" lon="-110.5605234"><ele>1147.0</ele><time>2026-04-10T00:54:31.016Z</time></trkpt><trkpt lat="32.3500376" lon="-110.5604594"><ele>1147.3333333333335</ele><time>2026-04-10T00:54:32.015Z</time></trkpt><trkpt lat="32.3499864" lon="-110.560376"><ele>1147.6666666666667</ele><time>2026-04-10T00:54:33.016Z</time></trkpt><trkpt lat="32.3499372" lon="-110.5602867"><ele>1148.0</ele><time>2026-04-10T00:54:34.016Z</time></trkpt><trkpt lat="32.349906" lon="-110.5602045"><ele>1148.1666666666667</ele><time>2026-04-10T00:54:35.016Z</time></trkpt><trkpt lat="32.3498819" lon="-110.5601243"><ele>1148.3333333333335</ele><time>2026-04-10T00:54:36.016Z</time></trkpt><trkpt lat="32.349874" lon="-110.5600385"><ele>1148.5</ele><time>2026-04-10T00:54:37.015Z</time></trkpt><trkpt lat="32.3498736" lon="-110.5599434"><ele>1148.6666666666667</ele><time>2026-04-10T00:54:38.016Z</time></trkpt><trkpt lat="32.3498956" lon="-110.5598377"><ele>1148.8333333333333</ele><time>2026-04-10T00:54:39.015Z</time></trkpt><trkpt lat="32.3499194" lon="-110.559735"><ele>1149.0</ele><time>2026-04-10T00:54:40.016Z</time></trkpt><trkpt lat="32.3499355" lon="-110.5596356"><ele>1149.0</ele><time>2026-04-10T00:54:41.016Z</time></trkpt><trkpt lat="32.3499413" lon="-110.5595363"><ele>1149.0</ele><time>2026-04-10T00:54:42.016Z</time></trkpt><trkpt lat="32.3499455" lon="-110.5594429"><ele>1149.0</ele><time>2026-04-10T00:54:43.016Z</time></trkpt><trkpt lat="32.3499507" lon="-110.5593489"><ele>1149.0</ele><time>2026-04-10T00:54:44.016Z</time></trkpt><trkpt lat="32.3499458" lon="-110.5592442"><ele>1149.0</ele><time>2026-04-10T00:54:45.016Z</time></trkpt><trkpt lat="32.3499375" lon="-110.5591384"><ele>1149.0</ele><time>2026-04-10T00:54:46.016Z</time></trkpt><trkpt lat="32.3499288" lon="-110.5590306"><ele>1149.3333333333333</ele><time>2026-04-10T00:54:47.016Z</time></trkpt><trkpt lat="32.3499221" lon="-110.5589146"><ele>1149.6666666666667</ele><time>2026-04-10T00:54:48.016Z</time></trkpt><trkpt lat="32.349917" lon="-110.5588009"><ele>1150.0</ele><time>2026-04-10T00:54:49.016Z</time></trkpt><trkpt lat="32.3499153" lon="-110.5586965"><ele>1150.3333333333335</ele><time>2026-04-10T00:54:50.016Z</time></trkpt><trkpt lat="32.3499094" lon="-110.5586034"><ele>1150.6666666666667</ele><time>2026-04-10T00:54:51.016Z</time></trkpt><trkpt lat="32.3498911" lon="-110.5585215"><ele>1151.0</ele><time>2026-04-10T00:54:52.016Z</time></trkpt><trkpt lat="32.349867" lon="-110.5584526"><ele>1151.75</ele><time>2026-04-10T00:54:53.016Z</time></trkpt><trkpt lat="32.3497669" lon="-110.5583897"><ele>1152.5</ele><time>2026-04-10T00:54:55.016Z</time></trkpt><trkpt lat="32.3496532" lon="-110.5583323"><ele>1153.25</ele><time>2026-04-10T00:54:57.016Z</time></trkpt><trkpt lat="32.3495768" lon="-110.5582383"><ele>1154.0</ele><time>2026-04-10T00:54:59.015Z</time></trkpt><trkpt lat="32.349512" lon="-110.5581365"><ele>1154.0</ele><time>2026-04-10T00:55:01.016Z</time></trkpt><trkpt lat="32.3494051" lon="-110.5580796"><ele>1154.0</ele><time>2026-04-10T00:55:03.016Z</time></trkpt><trkpt lat="32.3493335" lon="-110.5580793"><ele>1154.0</ele><time>2026-04-10T00:55:04.016Z</time></trkpt><trkpt lat="32.3492507" lon="-110.5580904"><ele>1154.0</ele><time>2026-04-10T00:55:05.016Z</time></trkpt><trkpt lat="32.3491649" lon="-110.5581092"><ele>1154.0</ele><time>2026-04-10T00:55:06.016Z</time></trkpt><trkpt lat="32.3490778" lon="-110.55813"><ele>1154.0</ele><time>2026-04-10T00:55:07.016Z</time></trkpt><trkpt lat="32.3489935" lon="-110.5581487"><ele>1154.0</ele><time>2026-04-10T00:55:08.016Z</time></trkpt><trkpt lat="32.3489158" lon="-110.5581629"><ele>1154.0</ele><time>2026-04-10T00:55:09.016Z</time></trkpt><trkpt lat="32.3488421" lon="-110.5581696"><ele>1154.0</ele><time>2026-04-10T00:55:10.016Z</time></trkpt><trkpt lat="32.3487725" lon="-110.5581605"><ele>1154.0</ele><time>2026-04-10T00:55:11.015Z</time></trkpt><trkpt lat="32.348708" lon="-110.5581281"><ele>1154.0</ele><time>2026-04-10T00:55:12.016Z</time></trkpt><trkpt lat="32.3486532" lon="-110.5580768"><ele>1154.0</ele><time>2026-04-10T00:55:13.016Z</time></trkpt><trkpt lat="32.3486006" lon="-110.5580178"><ele>1154.0</ele><time>2026-04-10T00:55:14.016Z</time></trkpt><trkpt lat="32.3485606" lon="-110.5579411"><ele>1153.6666666666667</ele><time>2026-04-10T00:55:15.016Z</time></trkpt><trkpt lat="32.3485275" lon="-110.5578548"><ele>1153.3333333333335</ele><time>2026-04-10T00:55:16.015Z</time></trkpt><trkpt lat="32.3485056" lon="-110.5577582"><ele>1153.0</ele><time>2026-04-10T00:55:17.016Z</time></trkpt><trkpt lat="32.3484893" lon="-110.5576547"><ele>1152.6666666666667</ele><time>2026-04-10T00:55:18.016Z</time></trkpt><trkpt lat="32.3484731" lon="-110.5575514"><ele>1152.3333333333333</ele><time>2026-04-10T00:55:19.016Z</time></trkpt><trkpt lat="32.3484555" lon="-110.5574553"><ele>1152.0</ele><time>2026-04-10T00:55:20.016Z</time></trkpt><trkpt lat="32.348436" lon="-110.5573654"><ele>1152.0000000000002</ele><time>2026-04-10T00:55:21.016Z</time></trkpt><trkpt lat="32.3484128" lon="-110.5572782"><ele>1152.0</ele><time>2026-04-10T00:55:22.016Z</time></trkpt><trkpt lat="32.3483882" lon="-110.5571908"><ele>1152.0</ele><time>2026-04-10T00:55:23.015Z</time></trkpt><trkpt lat="32.3483582" lon="-110.5571085"><ele>1152.0</ele><time>2026-04-10T00:55:24.015Z</time></trkpt><trkpt lat="32.3483274" lon="-110.5570348"><ele>1152.0</ele><time>2026-04-10T00:55:25.016Z</time></trkpt><trkpt lat="32.3483018" lon="-110.5569597"><ele>1152.0000000000002</ele><time>2026-04-10T00:55:26.016Z</time></trkpt><trkpt lat="32.3482879" lon="-110.5568776"><ele>1152.0</ele><time>2026-04-10T00:55:27.016Z</time></trkpt><trkpt lat="32.3482798" lon="-110.5567888"><ele>1152.6666666666667</ele><time>2026-04-10T00:55:28.016Z</time></trkpt><trkpt lat="32.3482667" lon="-110.5567052"><ele>1153.3333333333333</ele><time>2026-04-10T00:55:29.016Z</time></trkpt><trkpt lat="32.3482411" lon="-110.5566229"><ele>1154.0</ele><time>2026-04-10T00:55:30.016Z</time></trkpt><trkpt lat="32.3482065" lon="-110.5565415"><ele>1154.6666666666665</ele><time>2026-04-10T00:55:31.016Z</time></trkpt><trkpt lat="32.348167" lon="-110.5564578"><ele>1155.3333333333333</ele><time>2026-04-10T00:55:32.015Z</time></trkpt><trkpt lat="32.3481202" lon="-110.5563721"><ele>1156.0</ele><time>2026-04-10T00:55:33.017Z</time></trkpt><trkpt lat="32.3480787" lon="-110.5562871"><ele>1156.0</ele><time>2026-04-10T00:55:34.016Z</time></trkpt><trkpt lat="32.348056" lon="-110.5562134"><ele>1156.0</ele><time>2026-04-10T00:55:35.016Z</time></trkpt><trkpt lat="32.3480244" lon="-110.5560998"><ele>1156.0</ele><time>2026-04-10T00:55:37.016Z</time></trkpt><trkpt lat="32.3480019" lon="-110.5559916"><ele>1156.0</ele><time>2026-04-10T00:55:40.015Z</time></trkpt><trkpt lat="32.3479649" lon="-110.5559169"><ele>1156.0</ele><time>2026-04-10T00:55:43.016Z</time></trkpt><trkpt lat="32.3478968" lon="-110.5558353"><ele>1156.0</ele><time>2026-04-10T00:55:46.016Z</time></trkpt><trkpt lat="32.3478429" lon="-110.5557617"><ele>1157.0</ele><time>2026-04-10T00:55:48.016Z</time></trkpt><trkpt lat="32.3477712" lon="-110.5556959"><ele>1158.0</ele><time>2026-04-10T00:55:50.016Z</time></trkpt><trkpt lat="32.3476939" lon="-110.555652"><ele>1159.0</ele><time>2026-04-10T00:55:52.016Z</time></trkpt><trkpt lat="32.347607" lon="-110.5556228"><ele>1160.0</ele><time>2026-04-10T00:55:54.016Z</time></trkpt><trkpt lat="32.3475408" lon="-110.5555651"><ele>1161.0</ele><time>2026-04-10T00:55:56.016Z</time></trkpt><trkpt lat="32.3474789" lon="-110.5554831"><ele>1162.0</ele><time>2026-04-10T00:55:58.015Z</time></trkpt><trkpt lat="32.3473952" lon="-110.555399"><ele>1162.1666666666665</ele><time>2026-04-10T00:56:00.015Z</time></trkpt><trkpt lat="32.3473153" lon="-110.555352"><ele>1162.3333333333333</ele><time>2026-04-10T00:56:02.016Z</time></trkpt><trkpt lat="32.3472531" lon="-110.5553152"><ele>1162.5</ele><time>2026-04-10T00:56:04.016Z</time></trkpt><trkpt lat="32.3471703" lon="-110.5553746"><ele>1162.6666666666667</ele><time>2026-04-10T00:57:23.017Z</time></trkpt><trkpt lat="32.3471119" lon="-110.5554159"><ele>1162.8333333333335</ele><time>2026-04-10T00:57:25.017Z</time></trkpt><trkpt lat="32.3470337" lon="-110.5553865"><ele>1163.0</ele><time>2026-04-10T00:57:41.017Z</time></trkpt><trkpt lat="32.3469623" lon="-110.5553418"><ele>1163.0</ele><time>2026-04-10T00:57:43.017Z</time></trkpt><trkpt lat="32.3468827" lon="-110.5553054"><ele>1163.0</ele><time>2026-04-10T00:57:45.017Z</time></trkpt><trkpt lat="32.3468013" lon="-110.5552799"><ele>1163.0</ele><time>2026-04-10T00:57:47.017Z</time></trkpt><trkpt lat="32.3467312" lon="-110.5553303"><ele>1163.0</ele><time>2026-04-10T01:01:50.018Z</time></trkpt><trkpt lat="32.3466672" lon="-110.5553485"><ele>1163.0</ele><time>2026-04-10T01:01:52.019Z</time></trkpt><trkpt lat="32.346598" lon="-110.5553059"><ele>1163.0</ele><time>2026-04-10T01:01:54.019Z</time></trkpt><trkpt lat="32.3465223" lon="-110.5552055"><ele>1163.0</ele><time>2026-04-10T01:01:56.019Z</time></trkpt><trkpt lat="32.3464532" lon="-110.5551418"><ele>1163.0</ele><time>2026-04-10T01:01:58.019Z</time></trkpt><trkpt lat="32.346355" lon="-110.5551345"><ele>1163.0</ele><time>2026-04-10T01:02:00.019Z</time></trkpt><trkpt lat="32.346258" lon="-110.5551677"><ele>1163.0</ele><time>2026-04-10T01:02:02.019Z</time></trkpt><trkpt lat="32.346157" lon="-110.5552182"><ele>1163.0</ele><time>2026-04-10T01:02:04.019Z</time></trkpt><trkpt lat="32.3460827" lon="-110.5552896"><ele>1163.5</ele><time>2026-04-10T01:02:06.018Z</time></trkpt><trkpt lat="32.3460131" lon="-110.5553356"><ele>1164.0</ele><time>2026-04-10T01:02:08.019Z</time></trkpt><trkpt lat="32.3459355" lon="-110.5553314"><ele>1164.5</ele><time>2026-04-10T01:02:10.019Z</time></trkpt><trkpt lat="32.3458765" lon="-110.5552686"><ele>1165.0</ele><time>2026-04-10T01:02:12.019Z</time></trkpt><trkpt lat="32.3458366" lon="-110.5551564"><ele>1165.5</ele><time>2026-04-10T01:02:14.019Z</time></trkpt><trkpt lat="32.3458089" lon="-110.5550344"><ele>1166.0</ele><time>2026-04-10T01:02:16.019Z</time></trkpt><trkpt lat="32.3457708" lon="-110.5549256"><ele>1166.0</ele><time>2026-04-10T01:02:18.019Z</time></trkpt><trkpt lat="32.3457184" lon="-110.5548381"><ele>1166.0</ele><time>2026-04-10T01:02:20.019Z</time></trkpt><trkpt lat="32.3456345" lon="-110.5547582"><ele>1166.0</ele><time>2026-04-10T01:02:22.018Z</time></trkpt><trkpt lat="32.3455427" lon="-110.5546799"><ele>1166.0</ele><time>2026-04-10T01:02:24.019Z</time></trkpt><trkpt lat="32.3454576" lon="-110.5545969"><ele>1166.0</ele><time>2026-04-10T01:02:26.02Z</time></trkpt><trkpt lat="32.345397" lon="-110.5545311"><ele>1167.0</ele><time>2026-04-10T01:02:28.02Z</time></trkpt><trkpt lat="32.3453513" lon="-110.5544631"><ele>1168.0</ele><time>2026-04-10T01:02:30.02Z</time></trkpt><trkpt lat="32.3452718" lon="-110.5543244"><ele>1169.0</ele><time>2026-04-10T01:02:33.02Z</time></trkpt><trkpt lat="32.3452198" lon="-110.5542258"><ele>1170.0</ele><time>2026-04-10T01:02:35.019Z</time></trkpt><trkpt lat="32.345185" lon="-110.5541114"><ele>1171.0</ele><time>2026-04-10T01:02:37.02Z</time></trkpt><trkpt lat="32.3451724" lon="-110.5540022"><ele>1171.0</ele><time>2026-04-10T01:02:39.02Z</time></trkpt><trkpt lat="32.3451676" lon="-110.5538991"><ele>1171.0</ele><time>2026-04-10T01:02:41.02Z</time></trkpt><trkpt lat="32.345115" lon="-110.5538308"><ele>1171.0</ele><time>2026-04-10T01:02:43.02Z</time></trkpt><trkpt lat="32.3450274" lon="-110.5538262"><ele>1171.0</ele><time>2026-04-10T01:02:45.02Z</time></trkpt><trkpt lat="32.3449273" lon="-110.5538851"><ele>1171.0</ele><time>2026-04-10T01:02:47.02Z</time></trkpt><trkpt lat="32.3448294" lon="-110.5539649"><ele>1171.0</ele><time>2026-04-10T01:02:49.02Z</time></trkpt><trkpt lat="32.3447327" lon="-110.5540234"><ele>1171.0</ele><time>2026-04-10T01:02:51.02Z</time></trkpt><trkpt lat="32.3446385" lon="-110.5540289"><ele>1171.0</ele><time>2026-04-10T01:02:53.02Z</time></trkpt><trkpt lat="32.3445314" lon="-110.5539986"><ele>1171.0</ele><time>2026-04-10T01:02:55.02Z</time></trkpt><trkpt lat="32.3444451" lon="-110.5540118"><ele>1171.0</ele><time>2026-04-10T01:02:57.02Z</time></trkpt><trkpt lat="32.344376" lon="-110.5540653"><ele>1171.2</ele><time>2026-04-10T01:02:59.019Z</time></trkpt><trkpt lat="32.3443128" lon="-110.554121"><ele>1171.3999999999999</ele><time>2026-04-10T01:03:01.02Z</time></trkpt><trkpt lat="32.3442393" lon="-110.5540928"><ele>1171.6</ele><time>2026-04-10T01:03:03.02Z</time></trkpt><trkpt lat="32.3442049" lon="-110.5539935"><ele>1171.8</ele><time>2026-04-10T01:03:05.02Z</time></trkpt><trkpt lat="32.3442266" lon="-110.5538548"><ele>1172.0</ele><time>2026-04-10T01:03:07.02Z</time></trkpt><trkpt lat="32.344267" lon="-110.553723"><ele>1172.8333333333335</ele><time>2026-04-10T01:03:09.02Z</time></trkpt><trkpt lat="32.3443072" lon="-110.5536129"><ele>1173.6666666666667</ele><time>2026-04-10T01:03:11.02Z</time></trkpt><trkpt lat="32.3443402" lon="-110.5535167"><ele>1174.5</ele><time>2026-04-10T01:03:13.02Z</time></trkpt><trkpt lat="32.3443547" lon="-110.5534412"><ele>1175.3333333333333</ele><time>2026-04-10T01:03:57.02Z</time></trkpt><trkpt lat="32.3443417" lon="-110.5533509"><ele>1176.1666666666665</ele><time>2026-04-10T01:04:00.02Z</time></trkpt><trkpt lat="32.3443425" lon="-110.553257"><ele>1177.0</ele><time>2026-04-10T01:04:22.02Z</time></trkpt><trkpt lat="32.3443656" lon="-110.5531618"><ele>1177.0</ele><time>2026-04-10T01:04:24.02Z</time></trkpt><trkpt lat="32.3444094" lon="-110.5530277"><ele>1177.0</ele><time>2026-04-10T01:04:26.02Z</time></trkpt><trkpt lat="32.3444284" lon="-110.5529471"><ele>1177.0</ele><time>2026-04-10T01:04:27.02Z</time></trkpt><trkpt lat="32.3444404" lon="-110.5528617"><ele>1177.0</ele><time>2026-04-10T01:04:28.02Z</time></trkpt><trkpt lat="32.3444463" lon="-110.552783"><ele>1177.0</ele><time>2026-04-10T01:04:29.021Z</time></trkpt><trkpt lat="32.3444544" lon="-110.5527066"><ele>1177.0</ele><time>2026-04-10T01:04:30.021Z</time></trkpt><trkpt lat="32.3444642" lon="-110.5526254"><ele>1178.3333333333333</ele><time>2026-04-10T01:04:31.021Z</time></trkpt><trkpt lat="32.3444847" lon="-110.5525416"><ele>1179.6666666666665</ele><time>2026-04-10T01:04:32.021Z</time></trkpt><trkpt lat="32.3445099" lon="-110.5524684"><ele>1181.0</ele><time>2026-04-10T01:04:33.021Z</time></trkpt><trkpt lat="32.3445357" lon="-110.5523984"><ele>1182.3333333333333</ele><time>2026-04-10T01:04:34.021Z</time></trkpt><trkpt lat="32.3445675" lon="-110.5522841"><ele>1183.6666666666667</ele><time>2026-04-10T01:04:36.021Z</time></trkpt><trkpt lat="32.3445623" lon="-110.552179"><ele>1185.0</ele><time>2026-04-10T01:04:38.021Z</time></trkpt><trkpt lat="32.344521" lon="-110.5520858"><ele>1186.0</ele><time>2026-04-10T01:04:40.021Z</time></trkpt><trkpt lat="32.3444926" lon="-110.5519776"><ele>1187.0</ele><time>2026-04-10T01:04:42.021Z</time></trkpt><trkpt lat="32.3445027" lon="-110.5518514"><ele>1188.0</ele><time>2026-04-10T01:04:44.021Z</time></trkpt><trkpt lat="32.3445144" lon="-110.5517417"><ele>1189.0</ele><time>2026-04-10T01:04:46.021Z</time></trkpt><trkpt lat="32.3444702" lon="-110.5516431"><ele>1190.0</ele><time>2026-04-10T01:04:48.021Z</time></trkpt><trkpt lat="32.3444338" lon="-110.5515406"><ele>1190.0</ele><time>2026-04-10T01:04:50.021Z</time></trkpt><trkpt lat="32.3444419" lon="-110.5514178"><ele>1190.0</ele><time>2026-04-10T01:04:52.021Z</time></trkpt><trkpt lat="32.3444564" lon="-110.5512908"><ele>1190.0</ele><time>2026-04-10T01:04:54.021Z</time></trkpt><trkpt lat="32.3444383" lon="-110.5511667"><ele>1190.0</ele><time>2026-04-10T01:04:56.021Z</time></trkpt><trkpt lat="32.3444324" lon="-110.5510309"><ele>1190.0</ele><time>2026-04-10T01:04:58.021Z</time></trkpt><trkpt lat="32.3444669" lon="-110.5509012"><ele>1190.2</ele><time>2026-04-10T01:05:00.021Z</time></trkpt><trkpt lat="32.3445347" lon="-110.5507916"><ele>1190.4</ele><time>2026-04-10T01:05:02.021Z</time></trkpt><trkpt lat="32.3446023" lon="-110.5506961"><ele>1190.6</ele><time>2026-04-10T01:05:04.021Z</time></trkpt><trkpt lat="32.3446229" lon="-110.5505684"><ele>1190.8</ele><time>2026-04-10T01:05:06.021Z</time></trkpt><trkpt lat="32.3446093" lon="-110.5504367"><ele>1191.0</ele><time>2026-04-10T01:05:08.021Z</time></trkpt><trkpt lat="32.3445945" lon="-110.5503095"><ele>1191.6</ele><time>2026-04-10T01:05:10.021Z</time></trkpt><trkpt lat="32.3446143" lon="-110.5501851"><ele>1192.1999999999998</ele><time>2026-04-10T01:05:12.021Z</time></trkpt><trkpt lat="32.3446539" lon="-110.5500515"><ele>1192.8000000000002</ele><time>2026-04-10T01:05:14.021Z</time></trkpt><trkpt lat="32.3446721" lon="-110.5499789"><ele>1193.4</ele><time>2026-04-10T01:05:15.021Z</time></trkpt><trkpt lat="32.3447066" lon="-110.5498363"><ele>1194.0</ele><time>2026-04-10T01:05:17.021Z</time></trkpt><trkpt lat="32.3447333" lon="-110.5497605"><ele>1194.0</ele><time>2026-04-10T01:05:18.021Z</time></trkpt><trkpt lat="32.3447634" lon="-110.549689"><ele>1194.0</ele><time>2026-04-10T01:05:19.021Z</time></trkpt><trkpt lat="32.3448143" lon="-110.5495805"><ele>1194.0</ele><time>2026-04-10T01:05:21.021Z</time></trkpt><trkpt lat="32.3448335" lon="-110.5495009"><ele>1194.0</ele><time>2026-04-10T01:05:24.021Z</time></trkpt><trkpt lat="32.3448593" lon="-110.5494059"><ele>1194.0</ele><time>2026-04-10T01:08:38.026Z</time></trkpt><trkpt lat="32.3448767" lon="-110.5493205"><ele>1194.0</ele><time>2026-04-10T01:08:40.036Z</time></trkpt><trkpt lat="32.3448878" lon="-110.5492418"><ele>1193.8333333333333</ele><time>2026-04-10T01:08:42.112Z</time></trkpt><trkpt lat="32.3448979" lon="-110.5491634"><ele>1193.6666666666667</ele><time>2026-04-10T01:08:44.048Z</time></trkpt><trkpt lat="32.3449095" lon="-110.5490742"><ele>1193.5</ele><time>2026-04-10T01:08:46.09Z</time></trkpt><trkpt lat="32.3448673" lon="-110.5489964"><ele>1193.3333333333335</ele><time>2026-04-10T01:08:48.025Z</time></trkpt><trkpt lat="32.3447927" lon="-110.5489681"><ele>1193.1666666666667</ele><time>2026-04-10T01:08:50.069Z</time></trkpt><trkpt lat="32.3447131" lon="-110.5489628"><ele>1193.0</ele><time>2026-04-10T01:08:52.111Z</time></trkpt><trkpt lat="32.3446444" lon="-110.5489325"><ele>1193.6</ele><time>2026-04-10T01:08:54.047Z</time></trkpt><trkpt lat="32.3445723" lon="-110.548841"><ele>1194.1999999999998</ele><time>2026-04-10T01:08:56.023Z</time></trkpt><trkpt lat="32.3445241" lon="-110.5487458"><ele>1194.8</ele><time>2026-04-10T01:08:58.023Z</time></trkpt><trkpt lat="32.344512" lon="-110.5486423"><ele>1195.3999999999999</ele><time>2026-04-10T01:09:00.023Z</time></trkpt><trkpt lat="32.3445328" lon="-110.5485027"><ele>1196.0</ele><time>2026-04-10T01:09:02.023Z</time></trkpt><trkpt lat="32.3445559" lon="-110.5483743"><ele>1196.0</ele><time>2026-04-10T01:09:04.023Z</time></trkpt><trkpt lat="32.344549" lon="-110.5482444"><ele>1196.0</ele><time>2026-04-10T01:09:06.023Z</time></trkpt><trkpt lat="32.3445359" lon="-110.5480951"><ele>1196.0</ele><time>2026-04-10T01:09:08.023Z</time></trkpt><trkpt lat="32.3444898" lon="-110.5479711"><ele>1196.0</ele><time>2026-04-10T01:09:10.023Z</time></trkpt><trkpt lat="32.3444606" lon="-110.5478632"><ele>1196.0</ele><time>2026-04-10T01:09:12.023Z</time></trkpt><trkpt lat="32.344489" lon="-110.5477422"><ele>1196.6</ele><time>2026-04-10T01:09:14.022Z</time></trkpt><trkpt lat="32.3444881" lon="-110.5476177"><ele>1197.1999999999998</ele><time>2026-04-10T01:09:16.023Z</time></trkpt><trkpt lat="32.3444282" lon="-110.5475035"><ele>1197.8000000000002</ele><time>2026-04-10T01:09:18.023Z</time></trkpt><trkpt lat="32.3443595" lon="-110.5473907"><ele>1198.4</ele><time>2026-04-10T01:09:20.023Z</time></trkpt><trkpt lat="32.3443004" lon="-110.5472825"><ele>1199.0</ele><time>2026-04-10T01:09:22.023Z</time></trkpt><trkpt lat="32.3442896" lon="-110.5471701"><ele>1199.0</ele><time>2026-04-10T01:09:24.023Z</time></trkpt><trkpt lat="32.3443036" lon="-110.5470558"><ele>1199.0</ele><time>2026-04-10T01:09:26.023Z</time></trkpt><trkpt lat="32.3442655" lon="-110.5469497"><ele>1199.0</ele><time>2026-04-10T01:09:28.023Z</time></trkpt><trkpt lat="32.3442345" lon="-110.5468803"><ele>1199.0</ele><time>2026-04-10T01:09:29.022Z</time></trkpt><trkpt lat="32.3442097" lon="-110.5468027"><ele>1199.0</ele><time>2026-04-10T01:09:30.023Z</time></trkpt><trkpt lat="32.3441944" lon="-110.5467211"><ele>1199.0</ele><time>2026-04-10T01:09:31.022Z</time></trkpt><trkpt lat="32.3441837" lon="-110.5466415"><ele>1199.2857142857144</ele><time>2026-04-10T01:09:32.023Z</time></trkpt><trkpt lat="32.344165" lon="-110.5465682"><ele>1199.5714285714284</ele><time>2026-04-10T01:09:33.023Z</time></trkpt><trkpt lat="32.3441384" lon="-110.5464966"><ele>1199.857142857143</ele><time>2026-04-10T01:09:34.023Z</time></trkpt><trkpt lat="32.3441108" lon="-110.5464229"><ele>1200.1428571428573</ele><time>2026-04-10T01:09:35.023Z</time></trkpt><trkpt lat="32.3440851" lon="-110.5463421"><ele>1200.4285714285716</ele><time>2026-04-10T01:09:36.023Z</time></trkpt><trkpt lat="32.344061" lon="-110.5462575"><ele>1200.7142857142858</ele><time>2026-04-10T01:09:37.022Z</time></trkpt><trkpt lat="32.3440324" lon="-110.5461703"><ele>1201.0</ele><time>2026-04-10T01:09:38.023Z</time></trkpt><trkpt lat="32.3440011" lon="-110.546084"><ele>1201.2857142857144</ele><time>2026-04-10T01:09:39.023Z</time></trkpt><trkpt lat="32.3439664" lon="-110.5459999"><ele>1201.5714285714287</ele><time>2026-04-10T01:09:40.022Z</time></trkpt><trkpt lat="32.3439292" lon="-110.5459166"><ele>1201.857142857143</ele><time>2026-04-10T01:09:41.023Z</time></trkpt><trkpt lat="32.3438924" lon="-110.5458293"><ele>1202.1428571428573</ele><time>2026-04-10T01:09:42.023Z</time></trkpt><trkpt lat="32.3438598" lon="-110.5457503"><ele>1202.4285714285716</ele><time>2026-04-10T01:09:43.023Z</time></trkpt><trkpt lat="32.3438293" lon="-110.5456851"><ele>1202.7142857142858</ele><time>2026-04-10T01:09:44.023Z</time></trkpt><trkpt lat="32.3437909" lon="-110.5456244"><ele>1203.0</ele><time>2026-04-10T01:09:45.023Z</time></trkpt><trkpt lat="32.3437457" lon="-110.5455569"><ele>1204.1666666666667</ele><time>2026-04-10T01:09:46.023Z</time></trkpt><trkpt lat="32.3436967" lon="-110.5454768"><ele>1205.3333333333333</ele><time>2026-04-10T01:09:47.023Z</time></trkpt><trkpt lat="32.3436475" lon="-110.5453895"><ele>1206.5</ele><time>2026-04-10T01:09:48.023Z</time></trkpt><trkpt lat="32.3436035" lon="-110.5453058"><ele>1207.6666666666665</ele><time>2026-04-10T01:09:49.023Z</time></trkpt><trkpt lat="32.3435662" lon="-110.5452285"><ele>1208.8333333333333</ele><time>2026-04-10T01:09:50.023Z</time></trkpt><trkpt lat="32.3435357" lon="-110.5451531"><ele>1210.0</ele><time>2026-04-10T01:09:51.023Z</time></trkpt><trkpt lat="32.3435094" lon="-110.5450777"><ele>1210.0</ele><time>2026-04-10T01:09:52.023Z</time></trkpt><trkpt lat="32.3434851" lon="-110.5450063"><ele>1210.0</ele><time>2026-04-10T01:09:53.023Z</time></trkpt><trkpt lat="32.3434653" lon="-110.5449306"><ele>1210.0</ele><time>2026-04-10T01:09:54.023Z</time></trkpt><trkpt lat="32.3434537" lon="-110.5448511"><ele>1210.0</ele><time>2026-04-10T01:09:55.023Z</time></trkpt><trkpt lat="32.3434471" lon="-110.544767"><ele>1210.0</ele><time>2026-04-10T01:09:56.023Z</time></trkpt><trkpt lat="32.3434366" lon="-110.5446832"><ele>1210.0</ele><time>2026-04-10T01:09:57.023Z</time></trkpt><trkpt lat="32.3434019" lon="-110.5446037"><ele>1210.0</ele><time>2026-04-10T01:09:58.022Z</time></trkpt><trkpt lat="32.3433517" lon="-110.5445219"><ele>1210.0</ele><time>2026-04-10T01:09:59.023Z</time></trkpt><trkpt lat="32.3432937" lon="-110.5444364"><ele>1210.0</ele><time>2026-04-10T01:10:00.023Z</time></trkpt><trkpt lat="32.3432502" lon="-110.5443543"><ele>1210.0</ele><time>2026-04-10T01:10:01.023Z</time></trkpt><trkpt lat="32.3432103" lon="-110.5442727"><ele>1210.0</ele><time>2026-04-10T01:10:02.023Z</time></trkpt><trkpt lat="32.3431763" lon="-110.5442023"><ele>1210.0</ele><time>2026-04-10T01:10:03.023Z</time></trkpt><trkpt lat="32.3431438" lon="-110.5441365"><ele>1210.0</ele><time>2026-04-10T01:10:04.023Z</time></trkpt><trkpt lat="32.3431114" lon="-110.5440669"><ele>1210.0</ele><time>2026-04-10T01:10:05.023Z</time></trkpt><trkpt lat="32.3430746" lon="-110.54399"><ele>1210.0</ele><time>2026-04-10T01:10:06.022Z</time></trkpt><trkpt lat="32.3430305" lon="-110.5439106"><ele>1210.0</ele><time>2026-04-10T01:10:07.023Z</time></trkpt><trkpt lat="32.3429842" lon="-110.5438282"><ele>1210.0</ele><time>2026-04-10T01:10:08.023Z</time></trkpt><trkpt lat="32.3429394" lon="-110.5437504"><ele>1210.0</ele><time>2026-04-10T01:10:09.023Z</time></trkpt><trkpt lat="32.3428868" lon="-110.5436743"><ele>1210.0</ele><time>2026-04-10T01:10:10.023Z</time></trkpt><trkpt lat="32.3428317" lon="-110.5436013"><ele>1209.4285714285713</ele><time>2026-04-10T01:10:11.022Z</time></trkpt><trkpt lat="32.3427734" lon="-110.5435289"><ele>1208.857142857143</ele><time>2026-04-10T01:10:12.023Z</time></trkpt><trkpt lat="32.3427176" lon="-110.5434702"><ele>1208.2857142857142</ele><time>2026-04-10T01:10:13.022Z</time></trkpt><trkpt lat="32.3426609" lon="-110.5434224"><ele>1207.7142857142858</ele><time>2026-04-10T01:10:14.023Z</time></trkpt><trkpt lat="32.3426037" lon="-110.5433755"><ele>1207.142857142857</ele><time>2026-04-10T01:10:15.023Z</time></trkpt><trkpt lat="32.3425517" lon="-110.543316"><ele>1206.5714285714287</ele><time>2026-04-10T01:10:16.023Z</time></trkpt><trkpt lat="32.3425061" lon="-110.5432498"><ele>1206.0</ele><time>2026-04-10T01:10:17.023Z</time></trkpt><trkpt lat="32.3424618" lon="-110.5431738"><ele>1206.0</ele><time>2026-04-10T01:10:18.023Z</time></trkpt><trkpt lat="32.3424175" lon="-110.5431045"><ele>1206.0</ele><time>2026-04-10T01:10:19.023Z</time></trkpt><trkpt lat="32.3423649" lon="-110.543052"><ele>1206.0</ele><time>2026-04-10T01:10:20.023Z</time></trkpt><trkpt lat="32.342306" lon="-110.5430076"><ele>1206.0</ele><time>2026-04-10T01:10:21.023Z</time></trkpt><trkpt lat="32.3422499" lon="-110.5429613"><ele>1206.0</ele><time>2026-04-10T01:10:22.023Z</time></trkpt><trkpt lat="32.3421634" lon="-110.5428772"><ele>1206.0</ele><time>2026-04-10T01:10:24.023Z</time></trkpt><trkpt lat="32.3421013" lon="-110.5427726"><ele>1205.0</ele><time>2026-04-10T01:10:26.023Z</time></trkpt><trkpt lat="32.3420505" lon="-110.5426473"><ele>1204.0</ele><time>2026-04-10T01:10:28.023Z</time></trkpt><trkpt lat="32.3420026" lon="-110.5425948"><ele>1203.0</ele><time>2026-04-10T01:10:29.023Z</time></trkpt><trkpt lat="32.3419091" lon="-110.5425126"><ele>1202.0</ele><time>2026-04-10T01:10:31.023Z</time></trkpt><trkpt lat="32.3418475" lon="-110.5424038"><ele>1201.0</ele><time>2026-04-10T01:10:33.023Z</time></trkpt><trkpt lat="32.3418259" lon="-110.5423335"><ele>1201.0</ele><time>2026-04-10T01:10:34.023Z</time></trkpt><trkpt lat="32.341756" lon="-110.5422168"><ele>1201.0</ele><time>2026-04-10T01:10:36.023Z</time></trkpt><trkpt lat="32.3416692" lon="-110.5421114"><ele>1201.0</ele><time>2026-04-10T01:10:38.022Z</time></trkpt><trkpt lat="32.3416126" lon="-110.5419918"><ele>1201.0</ele><time>2026-04-10T01:10:40.023Z</time></trkpt><trkpt lat="32.3415599" lon="-110.5418752"><ele>1201.0</ele><time>2026-04-10T01:10:42.022Z</time></trkpt><trkpt lat="32.3414943" lon="-110.5417553"><ele>1201.0</ele><time>2026-04-10T01:10:44.022Z</time></trkpt><trkpt lat="32.3414143" lon="-110.5416753"><ele>1201.0</ele><time>2026-04-10T01:10:46.024Z</time></trkpt><trkpt lat="32.3413381" lon="-110.5415925"><ele>1201.0</ele><time>2026-04-10T01:10:48.024Z</time></trkpt><trkpt lat="32.3413038" lon="-110.5415218"><ele>1201.0</ele><time>2026-04-10T01:10:49.024Z</time></trkpt><trkpt lat="32.3412705" lon="-110.5414483"><ele>1199.8</ele><time>2026-04-10T01:10:50.024Z</time></trkpt><trkpt lat="32.3412371" lon="-110.5413842"><ele>1198.6</ele><time>2026-04-10T01:10:51.024Z</time></trkpt><trkpt lat="32.3411553" lon="-110.5412963"><ele>1197.4</ele><time>2026-04-10T01:10:53.024Z</time></trkpt><trkpt lat="32.3410461" lon="-110.5412824"><ele>1196.2</ele><time>2026-04-10T01:10:55.024Z</time></trkpt><trkpt lat="32.340949" lon="-110.5412617"><ele>1195.0</ele><time>2026-04-10T01:10:57.024Z</time></trkpt><trkpt lat="32.3408564" lon="-110.5411998"><ele>1194.8</ele><time>2026-04-10T01:10:59.023Z</time></trkpt><trkpt lat="32.3407778" lon="-110.5411218"><ele>1194.6</ele><time>2026-04-10T01:11:01.024Z</time></trkpt><trkpt lat="32.3407043" lon="-110.5410276"><ele>1194.4</ele><time>2026-04-10T01:11:03.023Z</time></trkpt><trkpt lat="32.340616" lon="-110.5409505"><ele>1194.2</ele><time>2026-04-10T01:11:05.024Z</time></trkpt><trkpt lat="32.3405228" lon="-110.5409215"><ele>1194.0</ele><time>2026-04-10T01:11:07.024Z</time></trkpt><trkpt lat="32.3404425" lon="-110.5408938"><ele>1193.5</ele><time>2026-04-10T01:11:50.024Z</time></trkpt><trkpt lat="32.3403272" lon="-110.5408591"><ele>1193.0</ele><time>2026-04-10T01:11:52.024Z</time></trkpt><trkpt lat="32.3402605" lon="-110.540843"><ele>1192.5</ele><time>2026-04-10T01:11:53.024Z</time></trkpt><trkpt lat="32.3401851" lon="-110.5408285"><ele>1192.0</ele><time>2026-04-10T01:11:54.024Z</time></trkpt><trkpt lat="32.3401031" lon="-110.5408124"><ele>1191.5</ele><time>2026-04-10T01:11:55.024Z</time></trkpt><trkpt lat="32.3400082" lon="-110.5407893"><ele>1191.0</ele><time>2026-04-10T01:11:56.024Z</time></trkpt><trkpt lat="32.3399093" lon="-110.5407529"><ele>1191.0</ele><time>2026-04-10T01:11:57.024Z</time></trkpt><trkpt lat="32.3398126" lon="-110.5407107"><ele>1191.0</ele><time>2026-04-10T01:11:58.024Z</time></trkpt><trkpt lat="32.339714" lon="-110.5406715"><ele>1191.0</ele><time>2026-04-10T01:11:59.024Z</time></trkpt><trkpt lat="32.339616" lon="-110.5406382"><ele>1191.0</ele><time>2026-04-10T01:12:00.024Z</time></trkpt><trkpt lat="32.33952" lon="-110.5406185"><ele>1191.0</ele><time>2026-04-10T01:12:01.024Z</time></trkpt><trkpt lat="32.3394192" lon="-110.5406183"><ele>1190.5</ele><time>2026-04-10T01:12:02.024Z</time></trkpt><trkpt lat="32.3393087" lon="-110.5406324"><ele>1190.0</ele><time>2026-04-10T01:12:03.024Z</time></trkpt><trkpt lat="32.3391937" lon="-110.5406546"><ele>1189.5</ele><time>2026-04-10T01:12:04.024Z</time></trkpt><trkpt lat="32.3390816" lon="-110.5406728"><ele>1189.0</ele><time>2026-04-10T01:12:05.024Z</time></trkpt><trkpt lat="32.3389707" lon="-110.5406853"><ele>1188.6000000000001</ele><time>2026-04-10T01:12:06.024Z</time></trkpt><trkpt lat="32.3388634" lon="-110.5406635"><ele>1188.2</ele><time>2026-04-10T01:12:07.024Z</time></trkpt><trkpt lat="32.3387541" lon="-110.5406292"><ele>1187.8000000000002</ele><time>2026-04-10T01:12:08.024Z</time></trkpt><trkpt lat="32.33865" lon="-110.5405925"><ele>1187.4</ele><time>2026-04-10T01:12:09.024Z</time></trkpt><trkpt lat="32.3385503" lon="-110.5405667"><ele>1187.0</ele><time>2026-04-10T01:12:10.024Z</time></trkpt><trkpt lat="32.338455" lon="-110.5405622"><ele>1187.0</ele><time>2026-04-10T01:12:11.024Z</time></trkpt><trkpt lat="32.3383599" lon="-110.5405822"><ele>1187.0</ele><time>2026-04-10T01:12:12.024Z</time></trkpt><trkpt lat="32.3382625" lon="-110.5406214"><ele>1187.0</ele><time>2026-04-10T01:12:13.024Z</time></trkpt><trkpt lat="32.3381607" lon="-110.5406692"><ele>1187.0</ele><time>2026-04-10T01:12:14.023Z</time></trkpt><trkpt lat="32.3380605" lon="-110.5407053"><ele>1187.0</ele><time>2026-04-10T01:12:15.024Z</time></trkpt><trkpt lat="32.3379644" lon="-110.5407216"><ele>1187.0</ele><time>2026-04-10T01:12:16.024Z</time></trkpt><trkpt lat="32.3378678" lon="-110.5407149"><ele>1187.0</ele><time>2026-04-10T01:12:17.024Z</time></trkpt><trkpt lat="32.3377663" lon="-110.5406945"><ele>1187.0</ele><time>2026-04-10T01:12:18.024Z</time></trkpt><trkpt lat="32.337673" lon="-110.5406416"><ele>1187.0</ele><time>2026-04-10T01:12:19.024Z</time></trkpt><trkpt lat="32.337591" lon="-110.540598"><ele>1187.0</ele><time>2026-04-10T01:12:20.024Z</time></trkpt><trkpt lat="32.337507" lon="-110.5405663"><ele>1187.0</ele><time>2026-04-10T01:12:21.024Z</time></trkpt><trkpt lat="32.3374129" lon="-110.5405356"><ele>1187.0</ele><time>2026-04-10T01:12:22.024Z</time></trkpt><trkpt lat="32.3373129" lon="-110.54051"><ele>1187.0</ele><time>2026-04-10T01:12:23.024Z</time></trkpt><trkpt lat="32.3372059" lon="-110.5404849"><ele>1187.0</ele><time>2026-04-10T01:12:24.024Z</time></trkpt><trkpt lat="32.337101" lon="-110.5404538"><ele>1187.0</ele><time>2026-04-10T01:12:25.024Z</time></trkpt><trkpt lat="32.3369965" lon="-110.5404165"><ele>1185.25</ele><time>2026-04-10T01:12:26.024Z</time></trkpt><trkpt lat="32.3368896" lon="-110.5403724"><ele>1183.5</ele><time>2026-04-10T01:12:27.024Z</time></trkpt><trkpt lat="32.3367845" lon="-110.5403195"><ele>1181.75</ele><time>2026-04-10T01:12:28.024Z</time></trkpt><trkpt lat="32.3366789" lon="-110.5402601"><ele>1180.0</ele><time>2026-04-10T01:12:29.023Z</time></trkpt><trkpt lat="32.3365752" lon="-110.5401962"><ele>1180.0</ele><time>2026-04-10T01:12:30.024Z</time></trkpt><trkpt lat="32.3364733" lon="-110.5401346"><ele>1180.0</ele><time>2026-04-10T01:12:31.024Z</time></trkpt><trkpt lat="32.3363703" lon="-110.5400796"><ele>1180.0</ele><time>2026-04-10T01:12:32.024Z</time></trkpt><trkpt lat="32.3362627" lon="-110.540034"><ele>1180.0</ele><time>2026-04-10T01:12:33.023Z</time></trkpt><trkpt lat="32.3361509" lon="-110.54"><ele>1179.75</ele><time>2026-04-10T01:12:34.023Z</time></trkpt><trkpt lat="32.3360368" lon="-110.5399786"><ele>1179.5</ele><time>2026-04-10T01:12:35.024Z</time></trkpt><trkpt lat="32.3359188" lon="-110.5399663"><ele>1179.25</ele><time>2026-04-10T01:12:36.024Z</time></trkpt><trkpt lat="32.3358006" lon="-110.539963"><ele>1179.0</ele><time>2026-04-10T01:12:37.024Z</time></trkpt><trkpt lat="32.3356834" lon="-110.5399662"><ele>1179.0</ele><time>2026-04-10T01:12:38.024Z</time></trkpt><trkpt lat="32.3355679" lon="-110.5399714"><ele>1179.0</ele><time>2026-04-10T01:12:39.024Z</time></trkpt><trkpt lat="32.3354573" lon="-110.539976"><ele>1179.0</ele><time>2026-04-10T01:12:40.024Z</time></trkpt><trkpt lat="32.3353511" lon="-110.5399788"><ele>1179.0</ele><time>2026-04-10T01:12:41.024Z</time></trkpt><trkpt lat="32.3352457" lon="-110.5399788"><ele>1179.0</ele><time>2026-04-10T01:12:42.023Z</time></trkpt><trkpt lat="32.3351393" lon="-110.5399845"><ele>1178.6000000000001</ele><time>2026-04-10T01:12:43.024Z</time></trkpt><trkpt lat="32.335032" lon="-110.5399935"><ele>1178.2</ele><time>2026-04-10T01:12:44.024Z</time></trkpt><trkpt lat="32.3349239" lon="-110.5399957"><ele>1177.8000000000002</ele><time>2026-04-10T01:12:45.024Z</time></trkpt><trkpt lat="32.3348111" lon="-110.5399837"><ele>1177.4</ele><time>2026-04-10T01:12:46.024Z</time></trkpt><trkpt lat="32.3346975" lon="-110.5399558"><ele>1177.0</ele><time>2026-04-10T01:12:47.024Z</time></trkpt><trkpt lat="32.3345798" lon="-110.5399131"><ele>1177.0</ele><time>2026-04-10T01:12:48.025Z</time></trkpt><trkpt lat="32.334459" lon="-110.5398607"><ele>1177.0</ele><time>2026-04-10T01:12:49.024Z</time></trkpt><trkpt lat="32.334344" lon="-110.5398031"><ele>1177.0</ele><time>2026-04-10T01:12:50.025Z</time></trkpt><trkpt lat="32.3342385" lon="-110.5397514"><ele>1177.0</ele><time>2026-04-10T01:12:51.024Z</time></trkpt><trkpt lat="32.3341423" lon="-110.5396996"><ele>1177.0</ele><time>2026-04-10T01:12:52.024Z</time></trkpt><trkpt lat="32.3340514" lon="-110.5396453"><ele>1177.0</ele><time>2026-04-10T01:12:53.024Z</time></trkpt><trkpt lat="32.333978" lon="-110.5395773"><ele>1177.0</ele><time>2026-04-10T01:12:54.025Z</time></trkpt><trkpt lat="32.333915" lon="-110.5395171"><ele>1177.0</ele><time>2026-04-10T01:12:55.025Z</time></trkpt><trkpt lat="32.3338515" lon="-110.5394487"><ele>1177.0</ele><time>2026-04-10T01:12:56.025Z</time></trkpt><trkpt lat="32.3337852" lon="-110.5393719"><ele>1178.2</ele><time>2026-04-10T01:12:57.025Z</time></trkpt><trkpt lat="32.3337185" lon="-110.5392894"><ele>1179.4</ele><time>2026-04-10T01:12:58.024Z</time></trkpt><trkpt lat="32.3336521" lon="-110.5392071"><ele>1180.6</ele><time>2026-04-10T01:12:59.024Z</time></trkpt><trkpt lat="32.3335796" lon="-110.5391238"><ele>1181.8</ele><time>2026-04-10T01:13:00.025Z</time></trkpt><trkpt lat="32.3335104" lon="-110.5390332"><ele>1183.0</ele><time>2026-04-10T01:13:01.025Z</time></trkpt><trkpt lat="32.3334468" lon="-110.5389296"><ele>1183.0</ele><time>2026-04-10T01:13:02.025Z</time></trkpt><trkpt lat="32.3333938" lon="-110.5388171"><ele>1183.0</ele><time>2026-04-10T01:13:03.025Z</time></trkpt><trkpt lat="32.3333477" lon="-110.5386883"><ele>1183.0</ele><time>2026-04-10T01:13:04.024Z</time></trkpt><trkpt lat="32.3333048" lon="-110.5385545"><ele>1183.0</ele><time>2026-04-10T01:13:05.025Z</time></trkpt><trkpt lat="32.3332627" lon="-110.5384212"><ele>1183.75</ele><time>2026-04-10T01:13:06.025Z</time></trkpt><trkpt lat="32.3332192" lon="-110.5382913"><ele>1184.5</ele><time>2026-04-10T01:13:07.025Z</time></trkpt><trkpt lat="32.3331756" lon="-110.5381593"><ele>1185.25</ele><time>2026-04-10T01:13:08.025Z</time></trkpt><trkpt lat="32.3331264" lon="-110.538033"><ele>1186.0</ele><time>2026-04-10T01:13:09.025Z</time></trkpt><trkpt lat="32.3330708" lon="-110.5379063"><ele>1187.6</ele><time>2026-04-10T01:13:10.025Z</time></trkpt><trkpt lat="32.3330124" lon="-110.5377906"><ele>1189.1999999999998</ele><time>2026-04-10T01:13:11.025Z</time></trkpt><trkpt lat="32.3329461" lon="-110.5376868"><ele>1190.8000000000002</ele><time>2026-04-10T01:13:12.025Z</time></trkpt><trkpt lat="32.3328783" lon="-110.5375905"><ele>1192.4</ele><time>2026-04-10T01:13:13.024Z</time></trkpt><trkpt lat="32.3327992" lon="-110.5375031"><ele>1194.0</ele><time>2026-04-10T01:13:14.025Z</time></trkpt><trkpt lat="32.3327098" lon="-110.5374342"><ele>1194.0</ele><time>2026-04-10T01:13:15.025Z</time></trkpt><trkpt lat="32.3326147" lon="-110.5373786"><ele>1194.0</ele><time>2026-04-10T01:13:16.025Z</time></trkpt><trkpt lat="32.3325177" lon="-110.5373384"><ele>1194.0</ele><time>2026-04-10T01:13:17.025Z</time></trkpt><trkpt lat="32.3324214" lon="-110.5373073"><ele>1194.0</ele><time>2026-04-10T01:13:18.024Z</time></trkpt><trkpt lat="32.3323373" lon="-110.5372754"><ele>1194.0</ele><time>2026-04-10T01:13:19.025Z</time></trkpt><trkpt lat="32.3322603" lon="-110.5372327"><ele>1194.8</ele><time>2026-04-10T01:13:20.025Z</time></trkpt><trkpt lat="32.3321929" lon="-110.5371703"><ele>1195.6000000000001</ele><time>2026-04-10T01:13:21.025Z</time></trkpt><trkpt lat="32.3321349" lon="-110.5370878"><ele>1196.4</ele><time>2026-04-10T01:13:22.025Z</time></trkpt><trkpt lat="32.332084" lon="-110.5369881"><ele>1197.2</ele><time>2026-04-10T01:13:23.025Z</time></trkpt><trkpt lat="32.3320263" lon="-110.5368891"><ele>1198.0</ele><time>2026-04-10T01:13:24.025Z</time></trkpt><trkpt lat="32.3319586" lon="-110.5368058"><ele>1198.0</ele><time>2026-04-10T01:13:25.025Z</time></trkpt><trkpt lat="32.3318824" lon="-110.536733"><ele>1198.0</ele><time>2026-04-10T01:13:26.025Z</time></trkpt><trkpt lat="32.3318014" lon="-110.5366659"><ele>1198.0</ele><time>2026-04-10T01:13:27.025Z</time></trkpt><trkpt lat="32.3317158" lon="-110.5366069"><ele>1198.0</ele><time>2026-04-10T01:13:28.025Z</time></trkpt><trkpt lat="32.3316235" lon="-110.5365565"><ele>1198.0</ele><time>2026-04-10T01:13:29.025Z</time></trkpt><trkpt lat="32.3315279" lon="-110.5365217"><ele>1198.0</ele><time>2026-04-10T01:13:30.025Z</time></trkpt><trkpt lat="32.3314285" lon="-110.5364946"><ele>1198.0</ele><time>2026-04-10T01:13:31.025Z</time></trkpt><trkpt lat="32.3313291" lon="-110.5364575"><ele>1198.0</ele><time>2026-04-10T01:13:32.025Z</time></trkpt><trkpt lat="32.3312361" lon="-110.5364069"><ele>1198.0</ele><time>2026-04-10T01:13:33.025Z</time></trkpt><trkpt lat="32.3311502" lon="-110.5363487"><ele>1198.0</ele><time>2026-04-10T01:13:34.025Z</time></trkpt><trkpt lat="32.3310715" lon="-110.5362781"><ele>1198.0</ele><time>2026-04-10T01:13:35.025Z</time></trkpt><trkpt lat="32.3310052" lon="-110.5361956"><ele>1198.0</ele><time>2026-04-10T01:13:36.025Z</time></trkpt><trkpt lat="32.3309434" lon="-110.5361084"><ele>1198.0</ele><time>2026-04-10T01:13:37.025Z</time></trkpt><trkpt lat="32.3308959" lon="-110.5360183"><ele>1198.0</ele><time>2026-04-10T01:13:38.025Z</time></trkpt><trkpt lat="32.3308441" lon="-110.5359414"><ele>1198.0</ele><time>2026-04-10T01:13:39.025Z</time></trkpt><trkpt lat="32.33078" lon="-110.535876"><ele>1198.0</ele><time>2026-04-10T01:13:40.025Z</time></trkpt><trkpt lat="32.3306988" lon="-110.5358249"><ele>1198.0</ele><time>2026-04-10T01:13:41.025Z</time></trkpt><trkpt lat="32.3306053" lon="-110.5357764"><ele>1198.0</ele><time>2026-04-10T01:13:42.025Z</time></trkpt><trkpt lat="32.330504" lon="-110.5357311"><ele>1198.0</ele><time>2026-04-10T01:13:43.025Z</time></trkpt><trkpt lat="32.3304083" lon="-110.5356779"><ele>1198.0</ele><time>2026-04-10T01:13:44.025Z</time></trkpt><trkpt lat="32.3303189" lon="-110.5356242"><ele>1197.0</ele><time>2026-04-10T01:13:45.025Z</time></trkpt><trkpt lat="32.3302341" lon="-110.5355703"><ele>1196.0</ele><time>2026-04-10T01:13:46.025Z</time></trkpt><trkpt lat="32.3301528" lon="-110.5355203"><ele>1195.0</ele><time>2026-04-10T01:13:47.025Z</time></trkpt><trkpt lat="32.3300721" lon="-110.5354829"><ele>1194.0</ele><time>2026-04-10T01:13:48.025Z</time></trkpt><trkpt lat="32.3299905" lon="-110.535457"><ele>1193.0</ele><time>2026-04-10T01:13:49.025Z</time></trkpt><trkpt lat="32.3299054" lon="-110.5354478"><ele>1192.0</ele><time>2026-04-10T01:13:50.025Z</time></trkpt><trkpt lat="32.3298216" lon="-110.5354559"><ele>1192.0</ele><time>2026-04-10T01:13:51.025Z</time></trkpt><trkpt lat="32.3297408" lon="-110.5354801"><ele>1192.0</ele><time>2026-04-10T01:13:52.025Z</time></trkpt><trkpt lat="32.3296638" lon="-110.5355161"><ele>1192.0</ele><time>2026-04-10T01:13:53.025Z</time></trkpt><trkpt lat="32.3295946" lon="-110.5355683"><ele>1192.0</ele><time>2026-04-10T01:13:54.024Z</time></trkpt><trkpt lat="32.3295314" lon="-110.5356384"><ele>1192.0</ele><time>2026-04-10T01:13:55.025Z</time></trkpt><trkpt lat="32.3294638" lon="-110.5357304"><ele>1192.0</ele><time>2026-04-10T01:13:56.025Z</time></trkpt><trkpt lat="32.3293956" lon="-110.5358422"><ele>1191.75</ele><time>2026-04-10T01:13:57.025Z</time></trkpt><trkpt lat="32.3293284" lon="-110.5359645"><ele>1191.5</ele><time>2026-04-10T01:13:58.025Z</time></trkpt><trkpt lat="32.3292724" lon="-110.5361051"><ele>1191.25</ele><time>2026-04-10T01:13:59.025Z</time></trkpt><trkpt lat="32.3292237" lon="-110.5362644"><ele>1191.0</ele><time>2026-04-10T01:14:00.025Z</time></trkpt><trkpt lat="32.3291756" lon="-110.5364139"><ele>1190.25</ele><time>2026-04-10T01:14:01.024Z</time></trkpt><trkpt lat="32.3291177" lon="-110.5365625"><ele>1189.5</ele><time>2026-04-10T01:14:02.025Z</time></trkpt><trkpt lat="32.3290614" lon="-110.5367042"><ele>1188.75</ele><time>2026-04-10T01:14:03.025Z</time></trkpt><trkpt lat="32.3290099" lon="-110.5368403"><ele>1188.0</ele><time>2026-04-10T01:14:04.024Z</time></trkpt><trkpt lat="32.3289646" lon="-110.5369767"><ele>1188.25</ele><time>2026-04-10T01:14:05.025Z</time></trkpt><trkpt lat="32.3289282" lon="-110.5371116"><ele>1188.5</ele><time>2026-04-10T01:14:06.025Z</time></trkpt><trkpt lat="32.3288977" lon="-110.537255"><ele>1188.75</ele><time>2026-04-10T01:14:07.025Z</time></trkpt><trkpt lat="32.3288908" lon="-110.5374043"><ele>1189.0</ele><time>2026-04-10T01:14:08.025Z</time></trkpt><trkpt lat="32.3288963" lon="-110.5375522"><ele>1189.0</ele><time>2026-04-10T01:14:09.025Z</time></trkpt><trkpt lat="32.3289124" lon="-110.5377038"><ele>1189.0</ele><time>2026-04-10T01:14:10.025Z</time></trkpt><trkpt lat="32.3289342" lon="-110.5378618"><ele>1189.0</ele><time>2026-04-10T01:14:11.025Z</time></trkpt><trkpt lat="32.3289585" lon="-110.5380286"><ele>1189.0</ele><time>2026-04-10T01:14:12.025Z</time></trkpt><trkpt lat="32.3289868" lon="-110.5382136"><ele>1189.0</ele><time>2026-04-10T01:14:13.024Z</time></trkpt><trkpt lat="32.3290197" lon="-110.5384355"><ele>1189.0</ele><time>2026-04-10T01:14:14.025Z</time></trkpt><trkpt lat="32.3290554" lon="-110.5386796"><ele>1189.0</ele><time>2026-04-10T01:14:15.025Z</time></trkpt><trkpt lat="32.3290894" lon="-110.5389116"><ele>1189.0</ele><time>2026-04-10T01:14:16.025Z</time></trkpt><trkpt lat="32.3291199" lon="-110.5391286"><ele>1189.0</ele><time>2026-04-10T01:14:17.024Z</time></trkpt><trkpt lat="32.3291478" lon="-110.5393293"><ele>1189.0</ele><time>2026-04-10T01:14:18.025Z</time></trkpt><trkpt lat="32.3291739" lon="-110.5395174"><ele>1189.6666666666665</ele><time>2026-04-10T01:14:19.025Z</time></trkpt><trkpt lat="32.3291965" lon="-110.5396993"><ele>1190.3333333333333</ele><time>2026-04-10T01:14:20.025Z</time></trkpt><trkpt lat="32.3292162" lon="-110.5398749"><ele>1191.0</ele><time>2026-04-10T01:14:21.024Z</time></trkpt><trkpt lat="32.3292345" lon="-110.5400487"><ele>1191.0</ele><time>2026-04-10T01:14:22.025Z</time></trkpt><trkpt lat="32.3292505" lon="-110.5402247"><ele>1191.0</ele><time>2026-04-10T01:14:23.025Z</time></trkpt><trkpt lat="32.3292664" lon="-110.540395"><ele>1191.0</ele><time>2026-04-10T01:14:24.025Z</time></trkpt><trkpt lat="32.3292817" lon="-110.540554"><ele>1191.0</ele><time>2026-04-10T01:14:25.025Z</time></trkpt><trkpt lat="32.3292959" lon="-110.5407125"><ele>1191.5</ele><time>2026-04-10T01:14:26.025Z</time></trkpt><trkpt lat="32.3293061" lon="-110.5408727"><ele>1192.0</ele><time>2026-04-10T01:14:27.025Z</time></trkpt><trkpt lat="32.3293044" lon="-110.5410368"><ele>1192.5</ele><time>2026-04-10T01:14:28.025Z</time></trkpt><trkpt lat="32.3292915" lon="-110.5412094"><ele>1193.0</ele><time>2026-04-10T01:14:29.025Z</time></trkpt><trkpt lat="32.3292752" lon="-110.5413884"><ele>1193.25</ele><time>2026-04-10T01:14:30.025Z</time></trkpt><trkpt lat="32.3292584" lon="-110.5415628"><ele>1193.5</ele><time>2026-04-10T01:14:31.025Z</time></trkpt><trkpt lat="32.3292387" lon="-110.5417227"><ele>1193.75</ele><time>2026-04-10T01:14:32.025Z</time></trkpt><trkpt lat="32.3292163" lon="-110.5418684"><ele>1194.0</ele><time>2026-04-10T01:14:33.025Z</time></trkpt><trkpt lat="32.3291913" lon="-110.542"><ele>1194.0</ele><time>2026-04-10T01:14:34.025Z</time></trkpt><trkpt lat="32.3291571" lon="-110.5421176"><ele>1194.0</ele><time>2026-04-10T01:14:35.025Z</time></trkpt><trkpt lat="32.3291111" lon="-110.5422265"><ele>1194.0</ele><time>2026-04-10T01:14:36.025Z</time></trkpt><trkpt lat="32.3290508" lon="-110.5423199"><ele>1194.0</ele><time>2026-04-10T01:14:37.025Z</time></trkpt><trkpt lat="32.32898" lon="-110.5423938"><ele>1194.0</ele><time>2026-04-10T01:14:38.025Z</time></trkpt><trkpt lat="32.3288983" lon="-110.5424478"><ele>1194.6000000000001</ele><time>2026-04-10T01:14:39.025Z</time></trkpt><trkpt lat="32.3288052" lon="-110.5424797"><ele>1195.2</ele><time>2026-04-10T01:14:40.025Z</time></trkpt><trkpt lat="32.328701" lon="-110.5424965"><ele>1195.8000000000002</ele><time>2026-04-10T01:14:41.025Z</time></trkpt><trkpt lat="32.3285933" lon="-110.5425084"><ele>1196.4</ele><time>2026-04-10T01:14:42.024Z</time></trkpt><trkpt lat="32.3284772" lon="-110.5425191"><ele>1197.0</ele><time>2026-04-10T01:14:43.025Z</time></trkpt><trkpt lat="32.3283648" lon="-110.5425274"><ele>1197.0</ele><time>2026-04-10T01:14:44.025Z</time></trkpt><trkpt lat="32.3282498" lon="-110.5425246"><ele>1197.0</ele><time>2026-04-10T01:14:45.025Z</time></trkpt><trkpt lat="32.3281305" lon="-110.5425036"><ele>1197.0</ele><time>2026-04-10T01:14:46.024Z</time></trkpt><trkpt lat="32.3280092" lon="-110.5424647"><ele>1197.0</ele><time>2026-04-10T01:14:47.025Z</time></trkpt><trkpt lat="32.327883" lon="-110.5424113"><ele>1197.0</ele><time>2026-04-10T01:14:48.025Z</time></trkpt><trkpt lat="32.3277547" lon="-110.5423501"><ele>1197.0</ele><time>2026-04-10T01:14:49.025Z</time></trkpt><trkpt lat="32.3276298" lon="-110.5422896"><ele>1197.0</ele><time>2026-04-10T01:14:50.025Z</time></trkpt><trkpt lat="32.327501" lon="-110.5422237"><ele>1197.0</ele><time>2026-04-10T01:14:51.025Z</time></trkpt><trkpt lat="32.3273838" lon="-110.5421564"><ele>1197.0</ele><time>2026-04-10T01:14:52.025Z</time></trkpt><trkpt lat="32.3272808" lon="-110.5420971"><ele>1197.0</ele><time>2026-04-10T01:14:53.024Z</time></trkpt><trkpt lat="32.3271872" lon="-110.542054"><ele>1197.0</ele><time>2026-04-10T01:14:54.025Z</time></trkpt><trkpt lat="32.3271013" lon="-110.5420326"><ele>1197.0</ele><time>2026-04-10T01:14:55.025Z</time></trkpt><trkpt lat="32.3270022" lon="-110.5420237"><ele>1197.0</ele><time>2026-04-10T01:14:56.025Z</time></trkpt><trkpt lat="32.3268886" lon="-110.5420263"><ele>1198.0</ele><time>2026-04-10T01:14:57.025Z</time></trkpt><trkpt lat="32.3267691" lon="-110.5420311"><ele>1199.0</ele><time>2026-04-10T01:14:58.025Z</time></trkpt><trkpt lat="32.3266515" lon="-110.5420383"><ele>1200.0</ele><time>2026-04-10T01:14:59.025Z</time></trkpt><trkpt lat="32.326541" lon="-110.5420467"><ele>1201.0</ele><time>2026-04-10T01:15:00.025Z</time></trkpt><trkpt lat="32.32643" lon="-110.542065"><ele>1202.0</ele><time>2026-04-10T01:15:01.026Z</time></trkpt><trkpt lat="32.3263135" lon="-110.5420953"><ele>1203.0</ele><time>2026-04-10T01:15:02.026Z</time></trkpt><trkpt lat="32.3262011" lon="-110.5421505"><ele>1204.0</ele><time>2026-04-10T01:15:03.026Z</time></trkpt><trkpt lat="32.3261004" lon="-110.5422233"><ele>1205.0</ele><time>2026-04-10T01:15:04.025Z</time></trkpt><trkpt lat="32.326013" lon="-110.5423134"><ele>1205.0</ele><time>2026-04-10T01:15:05.026Z</time></trkpt><trkpt lat="32.3259381" lon="-110.5424206"><ele>1205.0</ele><time>2026-04-10T01:15:06.026Z</time></trkpt><trkpt lat="32.3258643" lon="-110.5425384"><ele>1205.0</ele><time>2026-04-10T01:15:07.026Z</time></trkpt><trkpt lat="32.3257944" lon="-110.5426625"><ele>1205.0</ele><time>2026-04-10T01:15:08.026Z</time></trkpt><trkpt lat="32.3257266" lon="-110.5427705"><ele>1205.0</ele><time>2026-04-10T01:15:09.026Z</time></trkpt><trkpt lat="32.325665" lon="-110.5428547"><ele>1205.0</ele><time>2026-04-10T01:15:10.025Z</time></trkpt><trkpt lat="32.3255993" lon="-110.5429159"><ele>1205.0</ele><time>2026-04-10T01:15:11.026Z</time></trkpt><trkpt lat="32.3255262" lon="-110.5429572"><ele>1205.0</ele><time>2026-04-10T01:15:12.026Z</time></trkpt><trkpt lat="32.3254416" lon="-110.5429769"><ele>1205.0</ele><time>2026-04-10T01:15:13.026Z</time></trkpt><trkpt lat="32.3253427" lon="-110.542978"><ele>1205.0</ele><time>2026-04-10T01:15:14.026Z</time></trkpt><trkpt lat="32.3252364" lon="-110.5429633"><ele>1205.4</ele><time>2026-04-10T01:15:15.026Z</time></trkpt><trkpt lat="32.3251253" lon="-110.5429414"><ele>1205.8</ele><time>2026-04-10T01:15:16.026Z</time></trkpt><trkpt lat="32.3250199" lon="-110.5429077"><ele>1206.2</ele><time>2026-04-10T01:15:17.026Z</time></trkpt><trkpt lat="32.3249202" lon="-110.5428718"><ele>1206.6</ele><time>2026-04-10T01:15:18.026Z</time></trkpt><trkpt lat="32.3248173" lon="-110.5428537"><ele>1207.0</ele><time>2026-04-10T01:15:19.026Z</time></trkpt><trkpt lat="32.3247188" lon="-110.5428609"><ele>1207.6666666666665</ele><time>2026-04-10T01:15:20.026Z</time></trkpt><trkpt lat="32.3246426" lon="-110.5429043"><ele>1208.3333333333333</ele><time>2026-04-10T01:15:21.026Z</time></trkpt><trkpt lat="32.3245752" lon="-110.5429619"><ele>1209.0</ele><time>2026-04-10T01:15:22.026Z</time></trkpt><trkpt lat="32.3245144" lon="-110.5430284"><ele>1209.6666666666667</ele><time>2026-04-10T01:15:23.026Z</time></trkpt><trkpt lat="32.3244695" lon="-110.5431188"><ele>1210.3333333333335</ele><time>2026-04-10T01:15:24.026Z</time></trkpt><trkpt lat="32.3244315" lon="-110.5432225"><ele>1211.0</ele><time>2026-04-10T01:15:25.026Z</time></trkpt><trkpt lat="32.3243951" lon="-110.5433325"><ele>1211.0</ele><time>2026-04-10T01:15:26.026Z</time></trkpt><trkpt lat="32.3243497" lon="-110.5434332"><ele>1211.0</ele><time>2026-04-10T01:15:27.026Z</time></trkpt><trkpt lat="32.3242995" lon="-110.5435295"><ele>1211.0</ele><time>2026-04-10T01:15:28.026Z</time></trkpt><trkpt lat="32.3242406" lon="-110.5435978"><ele>1211.0</ele><time>2026-04-10T01:15:29.026Z</time></trkpt><trkpt lat="32.3241841" lon="-110.5436383"><ele>1211.0</ele><time>2026-04-10T01:15:30.026Z</time></trkpt><trkpt lat="32.3241222" lon="-110.5436603"><ele>1211.0</ele><time>2026-04-10T01:15:31.026Z</time></trkpt><trkpt lat="32.3240564" lon="-110.54366"><ele>1211.0</ele><time>2026-04-10T01:15:32.026Z</time></trkpt><trkpt lat="32.3239909" lon="-110.5436396"><ele>1211.0</ele><time>2026-04-10T01:15:33.025Z</time></trkpt><trkpt lat="32.3239292" lon="-110.5435998"><ele>1211.0</ele><time>2026-04-10T01:15:34.026Z</time></trkpt><trkpt lat="32.3238658" lon="-110.5435414"><ele>1211.0</ele><time>2026-04-10T01:15:35.026Z</time></trkpt><trkpt lat="32.3237948" lon="-110.5434726"><ele>1211.0</ele><time>2026-04-10T01:15:36.026Z</time></trkpt><trkpt lat="32.3237222" lon="-110.5434159"><ele>1211.0</ele><time>2026-04-10T01:15:37.026Z</time></trkpt><trkpt lat="32.3236373" lon="-110.5433745"><ele>1212.1666666666667</ele><time>2026-04-10T01:15:38.026Z</time></trkpt><trkpt lat="32.3235546" lon="-110.5433366"><ele>1213.3333333333335</ele><time>2026-04-10T01:15:39.026Z</time></trkpt><trkpt lat="32.3234728" lon="-110.5432937"><ele>1214.5</ele><time>2026-04-10T01:15:40.026Z</time></trkpt><trkpt lat="32.3233948" lon="-110.5432466"><ele>1215.6666666666667</ele><time>2026-04-10T01:15:41.026Z</time></trkpt><trkpt lat="32.3233192" lon="-110.5431968"><ele>1216.8333333333333</ele><time>2026-04-10T01:15:42.026Z</time></trkpt><trkpt lat="32.3232432" lon="-110.5431518"><ele>1218.0</ele><time>2026-04-10T01:15:43.026Z</time></trkpt><trkpt lat="32.323167" lon="-110.5431323"><ele>1218.0</ele><time>2026-04-10T01:15:44.026Z</time></trkpt><trkpt lat="32.3230915" lon="-110.5431324"><ele>1218.0</ele><time>2026-04-10T01:15:45.026Z</time></trkpt><trkpt lat="32.3230186" lon="-110.5431513"><ele>1218.0</ele><time>2026-04-10T01:15:46.025Z</time></trkpt><trkpt lat="32.3229459" lon="-110.5431773"><ele>1218.0</ele><time>2026-04-10T01:15:47.026Z</time></trkpt><trkpt lat="32.3228704" lon="-110.5431935"><ele>1218.0</ele><time>2026-04-10T01:15:48.025Z</time></trkpt><trkpt lat="32.3227895" lon="-110.5431949"><ele>1218.0</ele><time>2026-04-10T01:15:49.026Z</time></trkpt><trkpt lat="32.3227071" lon="-110.5431787"><ele>1220.2</ele><time>2026-04-10T01:15:50.026Z</time></trkpt><trkpt lat="32.322622" lon="-110.5431511"><ele>1222.4</ele><time>2026-04-10T01:15:51.025Z</time></trkpt><trkpt lat="32.3225359" lon="-110.5431315"><ele>1224.6000000000001</ele><time>2026-04-10T01:15:52.026Z</time></trkpt><trkpt lat="32.3224462" lon="-110.5431311"><ele>1226.8</ele><time>2026-04-10T01:15:53.026Z</time></trkpt><trkpt lat="32.3223583" lon="-110.5431513"><ele>1229.0</ele><time>2026-04-10T01:15:54.026Z</time></trkpt><trkpt lat="32.3222684" lon="-110.5431872"><ele>1231.6000000000001</ele><time>2026-04-10T01:15:55.026Z</time></trkpt><trkpt lat="32.3221811" lon="-110.5432387"><ele>1234.2</ele><time>2026-04-10T01:15:56.026Z</time></trkpt><trkpt lat="32.3220977" lon="-110.5433021"><ele>1236.8000000000002</ele><time>2026-04-10T01:15:57.026Z</time></trkpt><trkpt lat="32.3220135" lon="-110.543365"><ele>1239.4</ele><time>2026-04-10T01:15:58.026Z</time></trkpt><trkpt lat="32.3219391" lon="-110.5434122"><ele>1242.0</ele><time>2026-04-10T01:15:59.026Z</time></trkpt><trkpt lat="32.3218617" lon="-110.5434424"><ele>1242.0</ele><time>2026-04-10T01:16:00.026Z</time></trkpt><trkpt lat="32.3217814" lon="-110.5434606"><ele>1242.0</ele><time>2026-04-10T01:16:01.026Z</time></trkpt><trkpt lat="32.3216919" lon="-110.5434538"><ele>1242.0</ele><time>2026-04-10T01:16:02.025Z</time></trkpt><trkpt lat="32.3215982" lon="-110.5434414"><ele>1242.0</ele><time>2026-04-10T01:16:03.026Z</time></trkpt><trkpt lat="32.321501" lon="-110.5434338"><ele>1242.0</ele><time>2026-04-10T01:16:04.026Z</time></trkpt><trkpt lat="32.32141" lon="-110.5434392"><ele>1243.6</ele><time>2026-04-10T01:16:05.026Z</time></trkpt><trkpt lat="32.3213276" lon="-110.5434662"><ele>1245.2</ele><time>2026-04-10T01:16:06.026Z</time></trkpt><trkpt lat="32.321246" lon="-110.5435023"><ele>1246.8</ele><time>2026-04-10T01:16:07.026Z</time></trkpt><trkpt lat="32.3211635" lon="-110.5435549"><ele>1248.4</ele><time>2026-04-10T01:16:08.026Z</time></trkpt><trkpt lat="32.3210778" lon="-110.5435956"><ele>1250.0</ele><time>2026-04-10T01:16:09.026Z</time></trkpt><trkpt lat="32.3209849" lon="-110.5436232"><ele>1250.0</ele><time>2026-04-10T01:16:10.026Z</time></trkpt><trkpt lat="32.3208911" lon="-110.543638"><ele>1250.0</ele><time>2026-04-10T01:16:11.026Z</time></trkpt><trkpt lat="32.320794" lon="-110.5436483"><ele>1250.0</ele><time>2026-04-10T01:16:12.026Z</time></trkpt><trkpt lat="32.3207005" lon="-110.5436585"><ele>1250.0</ele><time>2026-04-10T01:16:13.026Z</time></trkpt><trkpt lat="32.3206097" lon="-110.5436601"><ele>1250.0</ele><time>2026-04-10T01:16:14.026Z</time></trkpt><trkpt lat="32.3205128" lon="-110.5436501"><ele>1251.0</ele><time>2026-04-10T01:16:15.026Z</time></trkpt><trkpt lat="32.3204085" lon="-110.5436273"><ele>1252.0</ele><time>2026-04-10T01:16:16.026Z</time></trkpt><trkpt lat="32.3203056" lon="-110.5436003"><ele>1253.0</ele><time>2026-04-10T01:16:17.026Z</time></trkpt><trkpt lat="32.3202066" lon="-110.5435527"><ele>1254.0</ele><time>2026-04-10T01:16:18.026Z</time></trkpt><trkpt lat="32.3201075" lon="-110.5434915"><ele>1255.0</ele><time>2026-04-10T01:16:19.026Z</time></trkpt><trkpt lat="32.3200112" lon="-110.543422"><ele>1255.0</ele><time>2026-04-10T01:16:20.026Z</time></trkpt><trkpt lat="32.3199231" lon="-110.543354"><ele>1255.0</ele><time>2026-04-10T01:16:21.026Z</time></trkpt><trkpt lat="32.3198369" lon="-110.5432894"><ele>1255.0</ele><time>2026-04-10T01:16:22.026Z</time></trkpt><trkpt lat="32.31975" lon="-110.543228"><ele>1255.0</ele><time>2026-04-10T01:16:23.026Z</time></trkpt><trkpt lat="32.3196447" lon="-110.5431905"><ele>1255.0</ele><time>2026-04-10T01:16:24.026Z</time></trkpt><trkpt lat="32.3195298" lon="-110.5431641"><ele>1256.5</ele><time>2026-04-10T01:16:25.026Z</time></trkpt><trkpt lat="32.3194066" lon="-110.5431422"><ele>1258.0</ele><time>2026-04-10T01:16:26.026Z</time></trkpt><trkpt lat="32.3192791" lon="-110.5431222"><ele>1259.5</ele><time>2026-04-10T01:16:27.026Z</time></trkpt><trkpt lat="32.3191517" lon="-110.5431033"><ele>1261.0</ele><time>2026-04-10T01:16:28.026Z</time></trkpt><trkpt lat="32.3190238" lon="-110.5430793"><ele>1263.75</ele><time>2026-04-10T01:16:29.026Z</time></trkpt><trkpt lat="32.3188981" lon="-110.543052"><ele>1266.5</ele><time>2026-04-10T01:16:30.026Z</time></trkpt><trkpt lat="32.3187753" lon="-110.5430209"><ele>1269.25</ele><time>2026-04-10T01:16:31.026Z</time></trkpt><trkpt lat="32.3186554" lon="-110.5429852"><ele>1272.0</ele><time>2026-04-10T01:16:32.026Z</time></trkpt><trkpt lat="32.3185366" lon="-110.542946"><ele>1272.0</ele><time>2026-04-10T01:16:33.026Z</time></trkpt><trkpt lat="32.3184238" lon="-110.5428988"><ele>1272.0</ele><time>2026-04-10T01:16:34.026Z</time></trkpt><trkpt lat="32.31831" lon="-110.5428447"><ele>1272.0</ele><time>2026-04-10T01:16:35.026Z</time></trkpt><trkpt lat="32.3181969" lon="-110.5427875"><ele>1272.0</ele><time>2026-04-10T01:16:36.026Z</time></trkpt><trkpt lat="32.3180814" lon="-110.5427287"><ele>1271.75</ele><time>2026-04-10T01:16:37.026Z</time></trkpt><trkpt lat="32.3179624" lon="-110.5426691"><ele>1271.5</ele><time>2026-04-10T01:16:38.026Z</time></trkpt><trkpt lat="32.317839" lon="-110.5426073"><ele>1271.25</ele><time>2026-04-10T01:16:39.026Z</time></trkpt><trkpt lat="32.3177154" lon="-110.5425429"><ele>1271.0</ele><time>2026-04-10T01:16:40.026Z</time></trkpt><trkpt lat="32.3175937" lon="-110.5424776"><ele>1271.0</ele><time>2026-04-10T01:16:41.026Z</time></trkpt><trkpt lat="32.3174783" lon="-110.5424179"><ele>1271.0</ele><time>2026-04-10T01:16:42.026Z</time></trkpt><trkpt lat="32.317362" lon="-110.5423641"><ele>1271.0</ele><time>2026-04-10T01:16:43.025Z</time></trkpt><trkpt lat="32.3172438" lon="-110.5423129"><ele>1271.0</ele><time>2026-04-10T01:16:44.025Z</time></trkpt><trkpt lat="32.3171262" lon="-110.5422663"><ele>1272.6</ele><time>2026-04-10T01:16:45.026Z</time></trkpt><trkpt lat="32.3170167" lon="-110.5422225"><ele>1274.1999999999998</ele><time>2026-04-10T01:16:46.026Z</time></trkpt><trkpt lat="32.3169132" lon="-110.5421819"><ele>1275.8000000000002</ele><time>2026-04-10T01:16:47.026Z</time></trkpt><trkpt lat="32.3168133" lon="-110.5421463"><ele>1277.4</ele><time>2026-04-10T01:16:48.026Z</time></trkpt><trkpt lat="32.3167217" lon="-110.5421065"><ele>1279.0</ele><time>2026-04-10T01:16:49.026Z</time></trkpt><trkpt lat="32.3166354" lon="-110.5420641"><ele>1278.2</ele><time>2026-04-10T01:16:50.026Z</time></trkpt><trkpt lat="32.3165656" lon="-110.5420004"><ele>1277.4</ele><time>2026-04-10T01:16:51.026Z</time></trkpt><trkpt lat="32.3165025" lon="-110.5419205"><ele>1276.6</ele><time>2026-04-10T01:16:52.026Z</time></trkpt><trkpt lat="32.3164498" lon="-110.5418234"><ele>1275.8</ele><time>2026-04-10T01:16:53.026Z</time></trkpt><trkpt lat="32.3164091" lon="-110.5417101"><ele>1275.0</ele><time>2026-04-10T01:16:54.025Z</time></trkpt><trkpt lat="32.3163727" lon="-110.5415879"><ele>1276.4</ele><time>2026-04-10T01:16:55.026Z</time></trkpt><trkpt lat="32.3163314" lon="-110.5414701"><ele>1277.8</ele><time>2026-04-10T01:16:56.026Z</time></trkpt><trkpt lat="32.3162805" lon="-110.5413685"><ele>1279.1999999999998</ele><time>2026-04-10T01:16:57.026Z</time></trkpt><trkpt lat="32.3162259" lon="-110.5412797"><ele>1280.6</ele><time>2026-04-10T01:16:58.026Z</time></trkpt><trkpt lat="32.3161509" lon="-110.5412191"><ele>1282.0</ele><time>2026-04-10T01:16:59.026Z</time></trkpt><trkpt lat="32.3160633" lon="-110.5411729"><ele>1282.0</ele><time>2026-04-10T01:17:00.026Z</time></trkpt><trkpt lat="32.3159635" lon="-110.5411412"><ele>1282.0</ele><time>2026-04-10T01:17:01.026Z</time></trkpt><trkpt lat="32.3158528" lon="-110.5411171"><ele>1282.0</ele><time>2026-04-10T01:17:02.026Z</time></trkpt><trkpt lat="32.3157347" lon="-110.5411021"><ele>1282.0</ele><time>2026-04-10T01:17:03.026Z</time></trkpt><trkpt lat="32.3156123" lon="-110.5410978"><ele>1283.75</ele><time>2026-04-10T01:17:04.026Z</time></trkpt><trkpt lat="32.3154874" lon="-110.5411032"><ele>1285.5</ele><time>2026-04-10T01:17:05.026Z</time></trkpt><trkpt lat="32.3153632" lon="-110.5411137"><ele>1287.25</ele><time>2026-04-10T01:17:06.027Z</time></trkpt><trkpt lat="32.3152456" lon="-110.5411259"><ele>1289.0</ele><time>2026-04-10T01:17:07.027Z</time></trkpt><trkpt lat="32.3151321" lon="-110.5411367"><ele>1289.0</ele><time>2026-04-10T01:17:08.027Z</time></trkpt><trkpt lat="32.3150398" lon="-110.5411244"><ele>1289.0</ele><time>2026-04-10T01:17:09.027Z</time></trkpt><trkpt lat="32.3149481" lon="-110.5411027"><ele>1289.0</ele><time>2026-04-10T01:17:10.027Z</time></trkpt><trkpt lat="32.3148572" lon="-110.541056"><ele>1289.0</ele><time>2026-04-10T01:17:11.027Z</time></trkpt><trkpt lat="32.3147515" lon="-110.540989"><ele>1289.0</ele><time>2026-04-10T01:17:12.027Z</time></trkpt><trkpt lat="32.3146441" lon="-110.5409247"><ele>1290.2</ele><time>2026-04-10T01:17:13.027Z</time></trkpt><trkpt lat="32.314538" lon="-110.5408688"><ele>1291.4</ele><time>2026-04-10T01:17:14.026Z</time></trkpt><trkpt lat="32.3144362" lon="-110.5408209"><ele>1292.6</ele><time>2026-04-10T01:17:15.027Z</time></trkpt><trkpt lat="32.3143459" lon="-110.5407834"><ele>1293.8</ele><time>2026-04-10T01:17:16.027Z</time></trkpt><trkpt lat="32.3142616" lon="-110.5407595"><ele>1295.0</ele><time>2026-04-10T01:17:17.027Z</time></trkpt><trkpt lat="32.3141823" lon="-110.5407536"><ele>1295.0</ele><time>2026-04-10T01:17:18.027Z</time></trkpt><trkpt lat="32.3140984" lon="-110.5407595"><ele>1295.0</ele><time>2026-04-10T01:17:19.027Z</time></trkpt><trkpt lat="32.3140147" lon="-110.5408129"><ele>1295.0</ele><time>2026-04-10T01:17:20.027Z</time></trkpt><trkpt lat="32.3139296" lon="-110.5408901"><ele>1295.0</ele><time>2026-04-10T01:17:21.027Z</time></trkpt><trkpt lat="32.3138365" lon="-110.5409779"><ele>1295.0</ele><time>2026-04-10T01:17:22.027Z</time></trkpt><trkpt lat="32.3137352" lon="-110.5410726"><ele>1293.5</ele><time>2026-04-10T01:17:23.027Z</time></trkpt><trkpt lat="32.3136296" lon="-110.5411699"><ele>1292.0</ele><time>2026-04-10T01:17:24.027Z</time></trkpt><trkpt lat="32.3135301" lon="-110.5412667"><ele>1290.5</ele><time>2026-04-10T01:17:25.026Z</time></trkpt><trkpt lat="32.3134319" lon="-110.5413618"><ele>1289.0</ele><time>2026-04-10T01:17:26.027Z</time></trkpt><trkpt lat="32.313336" lon="-110.541451"><ele>1289.0</ele><time>2026-04-10T01:17:27.027Z</time></trkpt><trkpt lat="32.3132426" lon="-110.5415412"><ele>1289.0</ele><time>2026-04-10T01:17:28.026Z</time></trkpt><trkpt lat="32.3131551" lon="-110.5416379"><ele>1289.0</ele><time>2026-04-10T01:17:29.027Z</time></trkpt><trkpt lat="32.3130801" lon="-110.541748"><ele>1289.0</ele><time>2026-04-10T01:17:30.027Z</time></trkpt><trkpt lat="32.3130167" lon="-110.5418731"><ele>1289.5</ele><time>2026-04-10T01:17:31.027Z</time></trkpt><trkpt lat="32.3129636" lon="-110.5420134"><ele>1290.0</ele><time>2026-04-10T01:17:32.027Z</time></trkpt><trkpt lat="32.3129228" lon="-110.542166"><ele>1290.5</ele><time>2026-04-10T01:17:33.027Z</time></trkpt><trkpt lat="32.312901" lon="-110.5423255"><ele>1291.0</ele><time>2026-04-10T01:17:34.027Z</time></trkpt><trkpt lat="32.3128945" lon="-110.5424898"><ele>1289.5</ele><time>2026-04-10T01:17:35.027Z</time></trkpt><trkpt lat="32.3128959" lon="-110.5426496"><ele>1288.0</ele><time>2026-04-10T01:17:36.027Z</time></trkpt><trkpt lat="32.3128958" lon="-110.5428085"><ele>1286.5</ele><time>2026-04-10T01:17:37.027Z</time></trkpt><trkpt lat="32.3128932" lon="-110.542953"><ele>1285.0</ele><time>2026-04-10T01:17:38.027Z</time></trkpt><trkpt lat="32.3128883" lon="-110.5431051"><ele>1283.25</ele><time>2026-04-10T01:17:39.027Z</time></trkpt><trkpt lat="32.3128801" lon="-110.5432726"><ele>1281.5</ele><time>2026-04-10T01:17:40.027Z</time></trkpt><trkpt lat="32.3128698" lon="-110.5434457"><ele>1279.75</ele><time>2026-04-10T01:17:41.027Z</time></trkpt><trkpt lat="32.3128591" lon="-110.5436225"><ele>1278.0</ele><time>2026-04-10T01:17:42.027Z</time></trkpt><trkpt lat="32.3128511" lon="-110.5438036"><ele>1277.0</ele><time>2026-04-10T01:17:43.027Z</time></trkpt><trkpt lat="32.3128433" lon="-110.5439907"><ele>1276.0</ele><time>2026-04-10T01:17:44.027Z</time></trkpt><trkpt lat="32.3128353" lon="-110.5441758"><ele>1275.0</ele><time>2026-04-10T01:17:45.027Z</time></trkpt><trkpt lat="32.3128267" lon="-110.5443538"><ele>1275.0</ele><time>2026-04-10T01:17:46.027Z</time></trkpt><trkpt lat="32.3128181" lon="-110.5445263"><ele>1275.0</ele><time>2026-04-10T01:17:47.027Z</time></trkpt><trkpt lat="32.3128123" lon="-110.5447039"><ele>1275.0</ele><time>2026-04-10T01:17:48.027Z</time></trkpt><trkpt lat="32.3128128" lon="-110.5448843"><ele>1275.0</ele><time>2026-04-10T01:17:49.027Z</time></trkpt><trkpt lat="32.312816" lon="-110.5450585"><ele>1274.0</ele><time>2026-04-10T01:17:50.026Z</time></trkpt><trkpt lat="32.3128257" lon="-110.5452285"><ele>1273.0</ele><time>2026-04-10T01:17:51.027Z</time></trkpt><trkpt lat="32.3128357" lon="-110.5453969"><ele>1272.0</ele><time>2026-04-10T01:17:52.027Z</time></trkpt><trkpt lat="32.312844" lon="-110.5455603"><ele>1271.0</ele><time>2026-04-10T01:17:53.027Z</time></trkpt><trkpt lat="32.3128495" lon="-110.5457263"><ele>1270.5</ele><time>2026-04-10T01:17:54.027Z</time></trkpt><trkpt lat="32.3128487" lon="-110.5458913"><ele>1270.0</ele><time>2026-04-10T01:17:55.027Z</time></trkpt><trkpt lat="32.312845" lon="-110.5460603"><ele>1269.5</ele><time>2026-04-10T01:17:56.027Z</time></trkpt><trkpt lat="32.3128378" lon="-110.5462334"><ele>1269.0</ele><time>2026-04-10T01:17:57.027Z</time></trkpt><trkpt lat="32.3128427" lon="-110.5464048"><ele>1268.5</ele><time>2026-04-10T01:17:58.027Z</time></trkpt><trkpt lat="32.3128465" lon="-110.546576"><ele>1268.0</ele><time>2026-04-10T01:17:59.026Z</time></trkpt><trkpt lat="32.3128459" lon="-110.5467389"><ele>1267.5</ele><time>2026-04-10T01:18:00.027Z</time></trkpt><trkpt lat="32.3128439" lon="-110.5469002"><ele>1267.0</ele><time>2026-04-10T01:18:01.027Z</time></trkpt><trkpt lat="32.3128431" lon="-110.5470598"><ele>1266.5</ele><time>2026-04-10T01:18:02.027Z</time></trkpt><trkpt lat="32.3128406" lon="-110.5472196"><ele>1266.0</ele><time>2026-04-10T01:18:03.027Z</time></trkpt><trkpt lat="32.3128379" lon="-110.5473676"><ele>1265.5</ele><time>2026-04-10T01:18:04.026Z</time></trkpt><trkpt lat="32.3128393" lon="-110.5475084"><ele>1265.0</ele><time>2026-04-10T01:18:05.027Z</time></trkpt><trkpt lat="32.312849" lon="-110.5476487"><ele>1265.0</ele><time>2026-04-10T01:18:06.026Z</time></trkpt><trkpt lat="32.3128768" lon="-110.5477799"><ele>1265.0</ele><time>2026-04-10T01:18:07.027Z</time></trkpt><trkpt lat="32.3129327" lon="-110.5478976"><ele>1265.0</ele><time>2026-04-10T01:18:08.027Z</time></trkpt><trkpt lat="32.3130037" lon="-110.5480065"><ele>1265.0</ele><time>2026-04-10T01:18:09.027Z</time></trkpt><trkpt lat="32.3130782" lon="-110.5481071"><ele>1263.8</ele><time>2026-04-10T01:18:10.027Z</time></trkpt><trkpt lat="32.3131453" lon="-110.5481999"><ele>1262.6</ele><time>2026-04-10T01:18:11.027Z</time></trkpt><trkpt lat="32.3132051" lon="-110.5483024"><ele>1261.4</ele><time>2026-04-10T01:18:12.027Z</time></trkpt><trkpt lat="32.3132607" lon="-110.5484101"><ele>1260.2</ele><time>2026-04-10T01:18:13.027Z</time></trkpt><trkpt lat="32.3133138" lon="-110.5485185"><ele>1259.0</ele><time>2026-04-10T01:18:14.027Z</time></trkpt><trkpt lat="32.3133464" lon="-110.5486461"><ele>1258.4</ele><time>2026-04-10T01:18:15.027Z</time></trkpt><trkpt lat="32.313361" lon="-110.5487747"><ele>1257.8000000000002</ele><time>2026-04-10T01:18:16.027Z</time></trkpt><trkpt lat="32.3133579" lon="-110.5489077"><ele>1257.1999999999998</ele><time>2026-04-10T01:18:17.027Z</time></trkpt><trkpt lat="32.3133484" lon="-110.549041"><ele>1256.6</ele><time>2026-04-10T01:18:18.027Z</time></trkpt><trkpt lat="32.3133321" lon="-110.549172"><ele>1256.0</ele><time>2026-04-10T01:18:19.027Z</time></trkpt><trkpt lat="32.3133279" lon="-110.5492912"><ele>1256.0</ele><time>2026-04-10T01:18:20.027Z</time></trkpt><trkpt lat="32.3133463" lon="-110.5494055"><ele>1256.0</ele><time>2026-04-10T01:18:21.027Z</time></trkpt><trkpt lat="32.3133905" lon="-110.5495196"><ele>1256.0</ele><time>2026-04-10T01:18:22.027Z</time></trkpt><trkpt lat="32.3134519" lon="-110.5496311"><ele>1256.0</ele><time>2026-04-10T01:18:23.027Z</time></trkpt><trkpt lat="32.3135145" lon="-110.5497418"><ele>1256.0</ele><time>2026-04-10T01:18:24.027Z</time></trkpt><trkpt lat="32.3135686" lon="-110.5498539"><ele>1256.3999999999999</ele><time>2026-04-10T01:18:25.027Z</time></trkpt><trkpt lat="32.3136003" lon="-110.5499695"><ele>1256.8</ele><time>2026-04-10T01:18:26.027Z</time></trkpt><trkpt lat="32.313616" lon="-110.5500975"><ele>1257.1999999999998</ele><time>2026-04-10T01:18:27.027Z</time></trkpt><trkpt lat="32.3136209" lon="-110.5502335"><ele>1257.6</ele><time>2026-04-10T01:18:28.027Z</time></trkpt><trkpt lat="32.3136253" lon="-110.5503755"><ele>1258.0</ele><time>2026-04-10T01:18:29.027Z</time></trkpt><trkpt lat="32.3136371" lon="-110.5505219"><ele>1259.5</ele><time>2026-04-10T01:18:30.027Z</time></trkpt><trkpt lat="32.3136514" lon="-110.5506682"><ele>1261.0</ele><time>2026-04-10T01:18:31.027Z</time></trkpt><trkpt lat="32.3136668" lon="-110.5508118"><ele>1262.5</ele><time>2026-04-10T01:18:32.027Z</time></trkpt><trkpt lat="32.3136728" lon="-110.5509615"><ele>1264.0</ele><time>2026-04-10T01:18:33.027Z</time></trkpt><trkpt lat="32.3136732" lon="-110.5511091"><ele>1264.25</ele><time>2026-04-10T01:18:34.027Z</time></trkpt><trkpt lat="32.3136726" lon="-110.5512556"><ele>1264.5</ele><time>2026-04-10T01:18:35.027Z</time></trkpt><trkpt lat="32.3136712" lon="-110.5513991"><ele>1264.75</ele><time>2026-04-10T01:18:36.027Z</time></trkpt><trkpt lat="32.3136706" lon="-110.55153"><ele>1265.0</ele><time>2026-04-10T01:18:37.027Z</time></trkpt><trkpt lat="32.3136731" lon="-110.5516512"><ele>1265.0</ele><time>2026-04-10T01:18:38.027Z</time></trkpt><trkpt lat="32.3136746" lon="-110.5517621"><ele>1265.0</ele><time>2026-04-10T01:18:39.027Z</time></trkpt><trkpt lat="32.3136648" lon="-110.5518605"><ele>1265.0</ele><time>2026-04-10T01:18:40.027Z</time></trkpt><trkpt lat="32.3136259" lon="-110.5519695"><ele>1265.0</ele><time>2026-04-10T01:18:41.027Z</time></trkpt><trkpt lat="32.3135705" lon="-110.5520812"><ele>1265.0</ele><time>2026-04-10T01:18:42.027Z</time></trkpt><trkpt lat="32.3135092" lon="-110.5521971"><ele>1267.0</ele><time>2026-04-10T01:18:43.027Z</time></trkpt><trkpt lat="32.3134312" lon="-110.5523114"><ele>1269.0</ele><time>2026-04-10T01:18:44.027Z</time></trkpt><trkpt lat="32.3133531" lon="-110.5524263"><ele>1271.0</ele><time>2026-04-10T01:18:45.027Z</time></trkpt><trkpt lat="32.313278" lon="-110.5525313"><ele>1273.0</ele><time>2026-04-10T01:18:46.027Z</time></trkpt><trkpt lat="32.3132059" lon="-110.5526466"><ele>1273.0</ele><time>2026-04-10T01:18:47.027Z</time></trkpt><trkpt lat="32.3131459" lon="-110.5527578"><ele>1273.0</ele><time>2026-04-10T01:18:48.027Z</time></trkpt><trkpt lat="32.3131012" lon="-110.5528547"><ele>1273.0</ele><time>2026-04-10T01:18:49.027Z</time></trkpt><trkpt lat="32.3130661" lon="-110.5529574"><ele>1273.0</ele><time>2026-04-10T01:18:50.027Z</time></trkpt><trkpt lat="32.3130426" lon="-110.5530644"><ele>1273.0</ele><time>2026-04-10T01:18:51.027Z</time></trkpt><trkpt lat="32.3130274" lon="-110.5531696"><ele>1272.2</ele><time>2026-04-10T01:18:52.027Z</time></trkpt><trkpt lat="32.3130219" lon="-110.5532824"><ele>1271.4</ele><time>2026-04-10T01:18:53.027Z</time></trkpt><trkpt lat="32.3130287" lon="-110.5533952"><ele>1270.6000000000001</ele><time>2026-04-10T01:18:54.027Z</time></trkpt><trkpt lat="32.3130424" lon="-110.5535127"><ele>1269.8</ele><time>2026-04-10T01:18:55.027Z</time></trkpt><trkpt lat="32.3130628" lon="-110.5536328"><ele>1269.0</ele><time>2026-04-10T01:18:56.027Z</time></trkpt><trkpt lat="32.3130752" lon="-110.5537459"><ele>1269.8</ele><time>2026-04-10T01:18:57.027Z</time></trkpt><trkpt lat="32.3130736" lon="-110.5538483"><ele>1270.6000000000001</ele><time>2026-04-10T01:18:58.027Z</time></trkpt><trkpt lat="32.3130497" lon="-110.5539512"><ele>1271.4</ele><time>2026-04-10T01:18:59.027Z</time></trkpt><trkpt lat="32.3130019" lon="-110.5540469"><ele>1272.2</ele><time>2026-04-10T01:19:00.027Z</time></trkpt><trkpt lat="32.312936" lon="-110.5541416"><ele>1273.0</ele><time>2026-04-10T01:19:01.027Z</time></trkpt><trkpt lat="32.3128668" lon="-110.5542425"><ele>1273.0</ele><time>2026-04-10T01:19:02.027Z</time></trkpt><trkpt lat="32.3128132" lon="-110.5543529"><ele>1273.0</ele><time>2026-04-10T01:19:03.027Z</time></trkpt><trkpt lat="32.3127768" lon="-110.554459"><ele>1273.0</ele><time>2026-04-10T01:19:04.026Z</time></trkpt><trkpt lat="32.312756" lon="-110.5545725"><ele>1273.0</ele><time>2026-04-10T01:19:05.027Z</time></trkpt><trkpt lat="32.3127504" lon="-110.5546969"><ele>1273.0</ele><time>2026-04-10T01:19:06.027Z</time></trkpt><trkpt lat="32.3127576" lon="-110.5548286"><ele>1273.75</ele><time>2026-04-10T01:19:07.027Z</time></trkpt><trkpt lat="32.3127679" lon="-110.5549671"><ele>1274.5</ele><time>2026-04-10T01:19:08.027Z</time></trkpt><trkpt lat="32.3127799" lon="-110.5551121"><ele>1275.25</ele><time>2026-04-10T01:19:09.027Z</time></trkpt><trkpt lat="32.3127879" lon="-110.5552616"><ele>1276.0</ele><time>2026-04-10T01:19:10.027Z</time></trkpt><trkpt lat="32.3127881" lon="-110.5554133"><ele>1276.5</ele><time>2026-04-10T01:19:11.027Z</time></trkpt><trkpt lat="32.3127831" lon="-110.5555684"><ele>1277.0</ele><time>2026-04-10T01:19:12.026Z</time></trkpt><trkpt lat="32.312767" lon="-110.5557149"><ele>1277.5</ele><time>2026-04-10T01:19:13.027Z</time></trkpt><trkpt lat="32.3127608" lon="-110.5558607"><ele>1278.0</ele><time>2026-04-10T01:19:14.027Z</time></trkpt><trkpt lat="32.3127641" lon="-110.5560065"><ele>1278.0</ele><time>2026-04-10T01:19:15.027Z</time></trkpt><trkpt lat="32.3127755" lon="-110.5561514"><ele>1278.0</ele><time>2026-04-10T01:19:16.028Z</time></trkpt><trkpt lat="32.3127912" lon="-110.5562979"><ele>1278.0</ele><time>2026-04-10T01:19:17.028Z</time></trkpt><trkpt lat="32.3128074" lon="-110.5564434"><ele>1278.0</ele><time>2026-04-10T01:19:18.028Z</time></trkpt><trkpt lat="32.3128132" lon="-110.5565934"><ele>1279.5</ele><time>2026-04-10T01:19:19.028Z</time></trkpt><trkpt lat="32.3128203" lon="-110.5567391"><ele>1281.0</ele><time>2026-04-10T01:19:20.027Z</time></trkpt><trkpt lat="32.3128253" lon="-110.5568787"><ele>1282.5</ele><time>2026-04-10T01:19:21.028Z</time></trkpt><trkpt lat="32.3128251" lon="-110.5570152"><ele>1284.0</ele><time>2026-04-10T01:19:22.028Z</time></trkpt><trkpt lat="32.3128218" lon="-110.5571445"><ele>1285.4</ele><time>2026-04-10T01:19:23.028Z</time></trkpt><trkpt lat="32.3128143" lon="-110.5572747"><ele>1286.8000000000002</ele><time>2026-04-10T01:19:24.028Z</time></trkpt><trkpt lat="32.3128184" lon="-110.5573972"><ele>1288.1999999999998</ele><time>2026-04-10T01:19:25.028Z</time></trkpt><trkpt lat="32.3128307" lon="-110.5575185"><ele>1289.6</ele><time>2026-04-10T01:19:26.028Z</time></trkpt><trkpt lat="32.3128444" lon="-110.5576424"><ele>1291.0</ele><time>2026-04-10T01:19:27.028Z</time></trkpt><trkpt lat="32.3128606" lon="-110.5577658"><ele>1290.8</ele><time>2026-04-10T01:19:28.028Z</time></trkpt><trkpt lat="32.3128774" lon="-110.557891"><ele>1290.6</ele><time>2026-04-10T01:19:29.027Z</time></trkpt><trkpt lat="32.3128941" lon="-110.5580189"><ele>1290.4</ele><time>2026-04-10T01:19:30.027Z</time></trkpt><trkpt lat="32.3129111" lon="-110.5581477"><ele>1290.2</ele><time>2026-04-10T01:19:31.028Z</time></trkpt><trkpt lat="32.3129293" lon="-110.5582883"><ele>1290.0</ele><time>2026-04-10T01:19:32.028Z</time></trkpt><trkpt lat="32.3129513" lon="-110.5584291"><ele>1290.0</ele><time>2026-04-10T01:19:33.028Z</time></trkpt><trkpt lat="32.3129765" lon="-110.5585783"><ele>1290.0</ele><time>2026-04-10T01:19:34.028Z</time></trkpt><trkpt lat="32.3130043" lon="-110.5587325"><ele>1290.0</ele><time>2026-04-10T01:19:35.028Z</time></trkpt><trkpt lat="32.3130319" lon="-110.5588842"><ele>1290.0</ele><time>2026-04-10T01:19:36.028Z</time></trkpt><trkpt lat="32.3130562" lon="-110.5590356"><ele>1292.0</ele><time>2026-04-10T01:19:37.028Z</time></trkpt><trkpt lat="32.3130792" lon="-110.5591832"><ele>1294.0</ele><time>2026-04-10T01:19:38.028Z</time></trkpt><trkpt lat="32.3130965" lon="-110.5593339"><ele>1296.0</ele><time>2026-04-10T01:19:39.028Z</time></trkpt><trkpt lat="32.3131099" lon="-110.5594831"><ele>1298.0</ele><time>2026-04-10T01:19:40.028Z</time></trkpt><trkpt lat="32.3131182" lon="-110.5596386"><ele>1298.25</ele><time>2026-04-10T01:19:41.028Z</time></trkpt><trkpt lat="32.313122" lon="-110.5597946"><ele>1298.5</ele><time>2026-04-10T01:19:42.028Z</time></trkpt><trkpt lat="32.3131201" lon="-110.5599534"><ele>1298.75</ele><time>2026-04-10T01:19:43.028Z</time></trkpt><trkpt lat="32.3131195" lon="-110.5601141"><ele>1299.0</ele><time>2026-04-10T01:19:44.028Z</time></trkpt><trkpt lat="32.3131202" lon="-110.5602734"><ele>1299.5</ele><time>2026-04-10T01:19:45.028Z</time></trkpt><trkpt lat="32.3131194" lon="-110.560426"><ele>1300.0</ele><time>2026-04-10T01:19:46.028Z</time></trkpt><trkpt lat="32.3131148" lon="-110.5605744"><ele>1300.5</ele><time>2026-04-10T01:19:47.027Z</time></trkpt><trkpt lat="32.3131031" lon="-110.5607112"><ele>1301.0</ele><time>2026-04-10T01:19:48.028Z</time></trkpt><trkpt lat="32.3130861" lon="-110.5608421"><ele>1300.5</ele><time>2026-04-10T01:19:49.028Z</time></trkpt><trkpt lat="32.3130434" lon="-110.5609632"><ele>1300.0</ele><time>2026-04-10T01:19:50.027Z</time></trkpt><trkpt lat="32.3129949" lon="-110.5610869"><ele>1299.5</ele><time>2026-04-10T01:19:51.028Z</time></trkpt><trkpt lat="32.3129365" lon="-110.561216"><ele>1299.0</ele><time>2026-04-10T01:19:52.028Z</time></trkpt><trkpt lat="32.3128777" lon="-110.5613564"><ele>1298.25</ele><time>2026-04-10T01:19:53.028Z</time></trkpt><trkpt lat="32.3128219" lon="-110.5614917"><ele>1297.5</ele><time>2026-04-10T01:19:54.028Z</time></trkpt><trkpt lat="32.3127633" lon="-110.5616273"><ele>1296.75</ele><time>2026-04-10T01:19:55.028Z</time></trkpt><trkpt lat="32.3127018" lon="-110.561768"><ele>1296.0</ele><time>2026-04-10T01:19:56.028Z</time></trkpt><trkpt lat="32.3126423" lon="-110.5619115"><ele>1295.25</ele><time>2026-04-10T01:19:57.028Z</time></trkpt><trkpt lat="32.3125861" lon="-110.562058"><ele>1294.5</ele><time>2026-04-10T01:19:58.027Z</time></trkpt><trkpt lat="32.3125314" lon="-110.5622031"><ele>1293.75</ele><time>2026-04-10T01:19:59.028Z</time></trkpt><trkpt lat="32.3124847" lon="-110.5623557"><ele>1293.0</ele><time>2026-04-10T01:20:00.028Z</time></trkpt><trkpt lat="32.3124405" lon="-110.5625162"><ele>1293.0</ele><time>2026-04-10T01:20:01.028Z</time></trkpt><trkpt lat="32.3123976" lon="-110.5626672"><ele>1293.0</ele><time>2026-04-10T01:20:02.028Z</time></trkpt><trkpt lat="32.3123325" lon="-110.5628093"><ele>1293.0</ele><time>2026-04-10T01:20:03.028Z</time></trkpt><trkpt lat="32.3122524" lon="-110.5629483"><ele>1293.0</ele><time>2026-04-10T01:20:04.028Z</time></trkpt><trkpt lat="32.3121652" lon="-110.5630938"><ele>1292.75</ele><time>2026-04-10T01:20:05.028Z</time></trkpt><trkpt lat="32.3120712" lon="-110.5632421"><ele>1292.5</ele><time>2026-04-10T01:20:06.028Z</time></trkpt><trkpt lat="32.3119885" lon="-110.5633879"><ele>1292.25</ele><time>2026-04-10T01:20:07.028Z</time></trkpt><trkpt lat="32.3119223" lon="-110.5635373"><ele>1292.0</ele><time>2026-04-10T01:20:08.028Z</time></trkpt><trkpt lat="32.3118716" lon="-110.5637"><ele>1293.75</ele><time>2026-04-10T01:20:09.028Z</time></trkpt><trkpt lat="32.3118246" lon="-110.5638628"><ele>1295.5</ele><time>2026-04-10T01:20:10.028Z</time></trkpt><trkpt lat="32.3117785" lon="-110.5640299"><ele>1297.25</ele><time>2026-04-10T01:20:11.027Z</time></trkpt><trkpt lat="32.3117361" lon="-110.5641912"><ele>1299.0</ele><time>2026-04-10T01:20:12.028Z</time></trkpt><trkpt lat="32.3116948" lon="-110.5643288"><ele>1299.0</ele><time>2026-04-10T01:20:13.028Z</time></trkpt><trkpt lat="32.3116477" lon="-110.5644631"><ele>1299.0</ele><time>2026-04-10T01:20:14.028Z</time></trkpt><trkpt lat="32.3115955" lon="-110.5645882"><ele>1299.0</ele><time>2026-04-10T01:20:15.028Z</time></trkpt><trkpt lat="32.3115503" lon="-110.564713"><ele>1299.0</ele><time>2026-04-10T01:20:16.027Z</time></trkpt><trkpt lat="32.3115102" lon="-110.5648455"><ele>1299.5</ele><time>2026-04-10T01:20:17.028Z</time></trkpt><trkpt lat="32.3114787" lon="-110.5649869"><ele>1300.0</ele><time>2026-04-10T01:20:18.028Z</time></trkpt><trkpt lat="32.3114558" lon="-110.5651409"><ele>1300.5</ele><time>2026-04-10T01:20:19.028Z</time></trkpt><trkpt lat="32.3114414" lon="-110.5652997"><ele>1301.0</ele><time>2026-04-10T01:20:20.028Z</time></trkpt><trkpt lat="32.3114321" lon="-110.5654573"><ele>1301.0</ele><time>2026-04-10T01:20:21.028Z</time></trkpt><trkpt lat="32.3114257" lon="-110.5656207"><ele>1301.0</ele><time>2026-04-10T01:20:22.028Z</time></trkpt><trkpt lat="32.3114128" lon="-110.5657871"><ele>1301.0</ele><time>2026-04-10T01:20:23.027Z</time></trkpt><trkpt lat="32.3113881" lon="-110.5659551"><ele>1301.0</ele><time>2026-04-10T01:20:24.027Z</time></trkpt><trkpt lat="32.3113508" lon="-110.566123"><ele>1302.0</ele><time>2026-04-10T01:20:25.028Z</time></trkpt><trkpt lat="32.3113005" lon="-110.5662913"><ele>1303.0</ele><time>2026-04-10T01:20:26.028Z</time></trkpt><trkpt lat="32.3112432" lon="-110.5664611"><ele>1304.0</ele><time>2026-04-10T01:20:27.028Z</time></trkpt><trkpt lat="32.3111816" lon="-110.566633"><ele>1304.0</ele><time>2026-04-10T01:20:28.028Z</time></trkpt><trkpt lat="32.3111152" lon="-110.5668075"><ele>1304.0</ele><time>2026-04-10T01:20:29.028Z</time></trkpt><trkpt lat="32.3110449" lon="-110.5669832"><ele>1304.0</ele><time>2026-04-10T01:20:30.028Z</time></trkpt><trkpt lat="32.3109685" lon="-110.5671582"><ele>1303.3333333333335</ele><time>2026-04-10T01:20:31.028Z</time></trkpt><trkpt lat="32.3108919" lon="-110.5673324"><ele>1302.6666666666667</ele><time>2026-04-10T01:20:32.027Z</time></trkpt><trkpt lat="32.310821" lon="-110.5675042"><ele>1302.0</ele><time>2026-04-10T01:20:33.028Z</time></trkpt><trkpt lat="32.3107495" lon="-110.5676723"><ele>1302.0</ele><time>2026-04-10T01:20:34.028Z</time></trkpt><trkpt lat="32.3106749" lon="-110.5678309"><ele>1302.0</ele><time>2026-04-10T01:20:35.028Z</time></trkpt><trkpt lat="32.3106021" lon="-110.5679779"><ele>1302.0</ele><time>2026-04-10T01:20:36.028Z</time></trkpt><trkpt lat="32.3105454" lon="-110.5681162"><ele>1302.0</ele><time>2026-04-10T01:20:37.028Z</time></trkpt><trkpt lat="32.3105077" lon="-110.568253"><ele>1302.8</ele><time>2026-04-10T01:20:38.028Z</time></trkpt><trkpt lat="32.3104877" lon="-110.568386"><ele>1303.6</ele><time>2026-04-10T01:20:39.028Z</time></trkpt><trkpt lat="32.3104854" lon="-110.5685102"><ele>1304.3999999999999</ele><time>2026-04-10T01:20:40.028Z</time></trkpt><trkpt lat="32.3104881" lon="-110.5686265"><ele>1305.1999999999998</ele><time>2026-04-10T01:20:41.028Z</time></trkpt><trkpt lat="32.3104831" lon="-110.5687315"><ele>1306.0</ele><time>2026-04-10T01:20:42.027Z</time></trkpt><trkpt lat="32.3104547" lon="-110.5688349"><ele>1306.5</ele><time>2026-04-10T01:20:43.028Z</time></trkpt><trkpt lat="32.3104037" lon="-110.5689342"><ele>1307.0</ele><time>2026-04-10T01:20:44.028Z</time></trkpt><trkpt lat="32.3103335" lon="-110.5690353"><ele>1307.5</ele><time>2026-04-10T01:20:45.028Z</time></trkpt><trkpt lat="32.3102508" lon="-110.5691363"><ele>1308.0</ele><time>2026-04-10T01:20:46.028Z</time></trkpt><trkpt lat="32.310163" lon="-110.5692404"><ele>1308.0</ele><time>2026-04-10T01:20:47.028Z</time></trkpt><trkpt lat="32.3100704" lon="-110.5693515"><ele>1308.0</ele><time>2026-04-10T01:20:48.028Z</time></trkpt><trkpt lat="32.3099776" lon="-110.5694684"><ele>1308.0</ele><time>2026-04-10T01:20:49.028Z</time></trkpt><trkpt lat="32.3098843" lon="-110.5695873"><ele>1308.0</ele><time>2026-04-10T01:20:50.028Z</time></trkpt><trkpt lat="32.309792" lon="-110.5697026"><ele>1309.0</ele><time>2026-04-10T01:20:51.028Z</time></trkpt><trkpt lat="32.3097031" lon="-110.5698156"><ele>1310.0</ele><time>2026-04-10T01:20:52.028Z</time></trkpt><trkpt lat="32.3096191" lon="-110.5699179"><ele>1311.0</ele><time>2026-04-10T01:20:53.028Z</time></trkpt><trkpt lat="32.3095311" lon="-110.570005"><ele>1312.0</ele><time>2026-04-10T01:20:54.028Z</time></trkpt><trkpt lat="32.3094337" lon="-110.5700755"><ele>1312.0</ele><time>2026-04-10T01:20:55.028Z</time></trkpt><trkpt lat="32.3093291" lon="-110.5701386"><ele>1312.0</ele><time>2026-04-10T01:20:56.028Z</time></trkpt><trkpt lat="32.3092237" lon="-110.5701961"><ele>1312.0</ele><time>2026-04-10T01:20:57.028Z</time></trkpt><trkpt lat="32.3091223" lon="-110.5702638"><ele>1312.0</ele><time>2026-04-10T01:20:58.028Z</time></trkpt><trkpt lat="32.3090155" lon="-110.5703492"><ele>1312.25</ele><time>2026-04-10T01:20:59.028Z</time></trkpt><trkpt lat="32.3089089" lon="-110.5704463"><ele>1312.5</ele><time>2026-04-10T01:21:00.028Z</time></trkpt><trkpt lat="32.308806" lon="-110.570557"><ele>1312.75</ele><time>2026-04-10T01:21:01.027Z</time></trkpt><trkpt lat="32.3087071" lon="-110.5706774"><ele>1313.0</ele><time>2026-04-10T01:21:02.028Z</time></trkpt><trkpt lat="32.3085997" lon="-110.5708027"><ele>1313.0</ele><time>2026-04-10T01:21:03.028Z</time></trkpt><trkpt lat="32.3084926" lon="-110.5709222"><ele>1313.0</ele><time>2026-04-10T01:21:04.028Z</time></trkpt><trkpt lat="32.3083896" lon="-110.5710271"><ele>1313.0</ele><time>2026-04-10T01:21:05.028Z</time></trkpt><trkpt lat="32.3083021" lon="-110.5711323"><ele>1313.0</ele><time>2026-04-10T01:21:06.028Z</time></trkpt><trkpt lat="32.3082288" lon="-110.5712385"><ele>1314.25</ele><time>2026-04-10T01:21:07.027Z</time></trkpt><trkpt lat="32.3081665" lon="-110.5713538"><ele>1315.5</ele><time>2026-04-10T01:21:08.028Z</time></trkpt><trkpt lat="32.3081064" lon="-110.5714755"><ele>1316.75</ele><time>2026-04-10T01:21:09.028Z</time></trkpt><trkpt lat="32.3080534" lon="-110.57161"><ele>1318.0</ele><time>2026-04-10T01:21:10.028Z</time></trkpt><trkpt lat="32.3079914" lon="-110.5717631"><ele>1318.0</ele><time>2026-04-10T01:21:11.028Z</time></trkpt><trkpt lat="32.3079241" lon="-110.5719144"><ele>1318.0</ele><time>2026-04-10T01:21:12.028Z</time></trkpt><trkpt lat="32.3078447" lon="-110.5720569"><ele>1318.0</ele><time>2026-04-10T01:21:13.028Z</time></trkpt><trkpt lat="32.3077664" lon="-110.5722018"><ele>1318.0</ele><time>2026-04-10T01:21:14.028Z</time></trkpt><trkpt lat="32.3076917" lon="-110.5723524"><ele>1318.5</ele><time>2026-04-10T01:21:15.028Z</time></trkpt><trkpt lat="32.307618" lon="-110.5725054"><ele>1319.0</ele><time>2026-04-10T01:21:16.028Z</time></trkpt><trkpt lat="32.3075463" lon="-110.5726521"><ele>1319.5</ele><time>2026-04-10T01:21:17.028Z</time></trkpt><trkpt lat="32.3074743" lon="-110.572791"><ele>1320.0</ele><time>2026-04-10T01:21:18.029Z</time></trkpt><trkpt lat="32.3073962" lon="-110.5729212"><ele>1320.25</ele><time>2026-04-10T01:21:19.029Z</time></trkpt><trkpt lat="32.3073072" lon="-110.57304"><ele>1320.5</ele><time>2026-04-10T01:21:20.028Z</time></trkpt><trkpt lat="32.3072036" lon="-110.5731453"><ele>1320.75</ele><time>2026-04-10T01:21:21.029Z</time></trkpt><trkpt lat="32.3070907" lon="-110.5732425"><ele>1321.0</ele><time>2026-04-10T01:21:22.029Z</time></trkpt><trkpt lat="32.30698" lon="-110.573337"><ele>1322.0</ele><time>2026-04-10T01:21:23.028Z</time></trkpt><trkpt lat="32.3068895" lon="-110.5734317"><ele>1323.0</ele><time>2026-04-10T01:21:24.029Z</time></trkpt><trkpt lat="32.3068142" lon="-110.5735305"><ele>1324.0</ele><time>2026-04-10T01:21:25.029Z</time></trkpt><trkpt lat="32.306754" lon="-110.5736418"><ele>1325.0</ele><time>2026-04-10T01:21:26.029Z</time></trkpt><trkpt lat="32.3066991" lon="-110.5737642"><ele>1325.2</ele><time>2026-04-10T01:21:27.029Z</time></trkpt><trkpt lat="32.306643" lon="-110.5738871"><ele>1325.4</ele><time>2026-04-10T01:21:28.029Z</time></trkpt><trkpt lat="32.3065834" lon="-110.574001"><ele>1325.6</ele><time>2026-04-10T01:21:29.028Z</time></trkpt><trkpt lat="32.306516" lon="-110.574101"><ele>1325.8</ele><time>2026-04-10T01:21:30.029Z</time></trkpt><trkpt lat="32.3064432" lon="-110.5741953"><ele>1326.0</ele><time>2026-04-10T01:21:31.029Z</time></trkpt><trkpt lat="32.3063622" lon="-110.5742766"><ele>1326.1999999999998</ele><time>2026-04-10T01:21:32.029Z</time></trkpt><trkpt lat="32.3062897" lon="-110.5743411"><ele>1326.3999999999999</ele><time>2026-04-10T01:21:33.029Z</time></trkpt><trkpt lat="32.3062125" lon="-110.5744141"><ele>1326.6</ele><time>2026-04-10T01:21:34.029Z</time></trkpt><trkpt lat="32.3061323" lon="-110.5745052"><ele>1326.8</ele><time>2026-04-10T01:21:35.029Z</time></trkpt><trkpt lat="32.3060584" lon="-110.5746125"><ele>1327.0</ele><time>2026-04-10T01:21:36.029Z</time></trkpt><trkpt lat="32.3060001" lon="-110.5747283"><ele>1326.1999999999998</ele><time>2026-04-10T01:21:37.029Z</time></trkpt><trkpt lat="32.3059587" lon="-110.5748544"><ele>1325.4</ele><time>2026-04-10T01:21:38.029Z</time></trkpt><trkpt lat="32.3059393" lon="-110.5749857"><ele>1324.6</ele><time>2026-04-10T01:21:39.029Z</time></trkpt><trkpt lat="32.3059432" lon="-110.5751165"><ele>1323.8000000000002</ele><time>2026-04-10T01:21:40.029Z</time></trkpt><trkpt lat="32.3059674" lon="-110.5752397"><ele>1323.0</ele><time>2026-04-10T01:21:41.029Z</time></trkpt><trkpt lat="32.3060069" lon="-110.5753575"><ele>1322.0</ele><time>2026-04-10T01:21:42.029Z</time></trkpt><trkpt lat="32.3060508" lon="-110.5754805"><ele>1321.0</ele><time>2026-04-10T01:21:43.029Z</time></trkpt><trkpt lat="32.3060912" lon="-110.5756068"><ele>1320.0</ele><time>2026-04-10T01:21:44.028Z</time></trkpt><trkpt lat="32.3061064" lon="-110.5757514"><ele>1319.0</ele><time>2026-04-10T01:21:45.029Z</time></trkpt><trkpt lat="32.3061115" lon="-110.5759042"><ele>1319.0</ele><time>2026-04-10T01:21:46.029Z</time></trkpt><trkpt lat="32.306112" lon="-110.5760553"><ele>1319.0</ele><time>2026-04-10T01:21:47.028Z</time></trkpt><trkpt lat="32.3061013" lon="-110.5761991"><ele>1319.0</ele><time>2026-04-10T01:21:48.028Z</time></trkpt><trkpt lat="32.3060796" lon="-110.5763287"><ele>1319.0</ele><time>2026-04-10T01:21:49.029Z</time></trkpt><trkpt lat="32.3060468" lon="-110.5764581"><ele>1318.5</ele><time>2026-04-10T01:21:50.029Z</time></trkpt><trkpt lat="32.3060004" lon="-110.5765907"><ele>1318.0</ele><time>2026-04-10T01:21:51.029Z</time></trkpt><trkpt lat="32.3059389" lon="-110.5767283"><ele>1317.5</ele><time>2026-04-10T01:21:52.029Z</time></trkpt><trkpt lat="32.3058624" lon="-110.5768691"><ele>1317.0</ele><time>2026-04-10T01:21:53.029Z</time></trkpt><trkpt lat="32.3057762" lon="-110.5770094"><ele>1316.75</ele><time>2026-04-10T01:21:54.029Z</time></trkpt><trkpt lat="32.3056866" lon="-110.5771497"><ele>1316.5</ele><time>2026-04-10T01:21:55.029Z</time></trkpt><trkpt lat="32.3055994" lon="-110.5772854"><ele>1316.25</ele><time>2026-04-10T01:21:56.029Z</time></trkpt><trkpt lat="32.3055145" lon="-110.577416"><ele>1316.0</ele><time>2026-04-10T01:21:57.029Z</time></trkpt><trkpt lat="32.3054296" lon="-110.5775468"><ele>1315.25</ele><time>2026-04-10T01:21:58.029Z</time></trkpt><trkpt lat="32.3053421" lon="-110.5776827"><ele>1314.5</ele><time>2026-04-10T01:21:59.029Z</time></trkpt><trkpt lat="32.3052584" lon="-110.5778165"><ele>1313.75</ele><time>2026-04-10T01:22:00.029Z</time></trkpt><trkpt lat="32.3051855" lon="-110.5779474"><ele>1313.0</ele><time>2026-04-10T01:22:01.028Z</time></trkpt><trkpt lat="32.3051238" lon="-110.5780852"><ele>1312.5</ele><time>2026-04-10T01:22:02.029Z</time></trkpt><trkpt lat="32.3050692" lon="-110.5782366"><ele>1312.0</ele><time>2026-04-10T01:22:03.029Z</time></trkpt><trkpt lat="32.3050193" lon="-110.5784008"><ele>1311.5</ele><time>2026-04-10T01:22:04.028Z</time></trkpt><trkpt lat="32.3049701" lon="-110.5785732"><ele>1311.0</ele><time>2026-04-10T01:22:05.029Z</time></trkpt><trkpt lat="32.3049255" lon="-110.5787518"><ele>1310.6666666666667</ele><time>2026-04-10T01:22:06.029Z</time></trkpt><trkpt lat="32.3048898" lon="-110.5789361"><ele>1310.3333333333335</ele><time>2026-04-10T01:22:07.029Z</time></trkpt><trkpt lat="32.3048599" lon="-110.5791221"><ele>1310.0</ele><time>2026-04-10T01:22:08.029Z</time></trkpt><trkpt lat="32.3048298" lon="-110.5793052"><ele>1310.0</ele><time>2026-04-10T01:22:09.029Z</time></trkpt><trkpt lat="32.3047956" lon="-110.5794857"><ele>1310.0</ele><time>2026-04-10T01:22:10.028Z</time></trkpt><trkpt lat="32.3047574" lon="-110.5796655"><ele>1310.0</ele><time>2026-04-10T01:22:11.028Z</time></trkpt><trkpt lat="32.3047204" lon="-110.5798508"><ele>1308.6666666666667</ele><time>2026-04-10T01:22:12.029Z</time></trkpt><trkpt lat="32.3046856" lon="-110.5800351"><ele>1307.3333333333333</ele><time>2026-04-10T01:22:13.029Z</time></trkpt><trkpt lat="32.304652" lon="-110.5802129"><ele>1306.0</ele><time>2026-04-10T01:22:14.029Z</time></trkpt><trkpt lat="32.304615" lon="-110.5803969"><ele>1305.6666666666665</ele><time>2026-04-10T01:22:15.029Z</time></trkpt><trkpt lat="32.3045797" lon="-110.5805772"><ele>1305.3333333333333</ele><time>2026-04-10T01:22:16.029Z</time></trkpt><trkpt lat="32.3045417" lon="-110.5807505"><ele>1305.0</ele><time>2026-04-10T01:22:17.029Z</time></trkpt><trkpt lat="32.3045105" lon="-110.5809301"><ele>1305.0</ele><time>2026-04-10T01:22:18.029Z</time></trkpt><trkpt lat="32.3044816" lon="-110.5811153"><ele>1305.0</ele><time>2026-04-10T01:22:19.029Z</time></trkpt><trkpt lat="32.3044606" lon="-110.5813016"><ele>1305.0</ele><time>2026-04-10T01:22:20.029Z</time></trkpt><trkpt lat="32.3044479" lon="-110.5814905"><ele>1303.6666666666667</ele><time>2026-04-10T01:22:21.029Z</time></trkpt><trkpt lat="32.3044328" lon="-110.581687"><ele>1302.3333333333335</ele><time>2026-04-10T01:22:22.029Z</time></trkpt><trkpt lat="32.304417" lon="-110.5818856"><ele>1301.0</ele><time>2026-04-10T01:22:23.029Z</time></trkpt><trkpt lat="32.3044023" lon="-110.5820904"><ele>1300.3333333333335</ele><time>2026-04-10T01:22:24.029Z</time></trkpt><trkpt lat="32.304391" lon="-110.5822898"><ele>1299.6666666666667</ele><time>2026-04-10T01:22:25.029Z</time></trkpt><trkpt lat="32.3043824" lon="-110.5824788"><ele>1299.0</ele><time>2026-04-10T01:22:26.029Z</time></trkpt><trkpt lat="32.3043712" lon="-110.5826637"><ele>1299.3333333333333</ele><time>2026-04-10T01:22:27.029Z</time></trkpt><trkpt lat="32.304354" lon="-110.5828507"><ele>1299.6666666666665</ele><time>2026-04-10T01:22:28.029Z</time></trkpt><trkpt lat="32.3043253" lon="-110.5830398"><ele>1300.0</ele><time>2026-04-10T01:22:29.029Z</time></trkpt><trkpt lat="32.304288" lon="-110.5832269"><ele>1300.0</ele><time>2026-04-10T01:22:30.029Z</time></trkpt><trkpt lat="32.3042498" lon="-110.5834096"><ele>1300.0</ele><time>2026-04-10T01:22:31.029Z</time></trkpt><trkpt lat="32.3042112" lon="-110.583596"><ele>1300.0</ele><time>2026-04-10T01:22:32.029Z</time></trkpt><trkpt lat="32.3041743" lon="-110.5837857"><ele>1299.3333333333333</ele><time>2026-04-10T01:22:33.029Z</time></trkpt><trkpt lat="32.3041405" lon="-110.5839746"><ele>1298.6666666666667</ele><time>2026-04-10T01:22:34.028Z</time></trkpt><trkpt lat="32.3041081" lon="-110.5841646"><ele>1298.0</ele><time>2026-04-10T01:22:35.028Z</time></trkpt><trkpt lat="32.304074" lon="-110.5843528"><ele>1297.75</ele><time>2026-04-10T01:22:36.029Z</time></trkpt><trkpt lat="32.3040396" lon="-110.5845316"><ele>1297.5</ele><time>2026-04-10T01:22:37.029Z</time></trkpt><trkpt lat="32.3040035" lon="-110.5847026"><ele>1297.25</ele><time>2026-04-10T01:22:38.029Z</time></trkpt><trkpt lat="32.3039665" lon="-110.5848622"><ele>1297.0</ele><time>2026-04-10T01:22:39.029Z</time></trkpt><trkpt lat="32.3039312" lon="-110.5850163"><ele>1297.5</ele><time>2026-04-10T01:22:40.029Z</time></trkpt><trkpt lat="32.3038949" lon="-110.5851626"><ele>1298.0</ele><time>2026-04-10T01:22:41.029Z</time></trkpt><trkpt lat="32.3038434" lon="-110.5852993"><ele>1298.5</ele><time>2026-04-10T01:22:42.029Z</time></trkpt><trkpt lat="32.3037788" lon="-110.5854311"><ele>1299.0</ele><time>2026-04-10T01:22:43.029Z</time></trkpt><trkpt lat="32.3037007" lon="-110.5855632"><ele>1298.0</ele><time>2026-04-10T01:22:44.028Z</time></trkpt><trkpt lat="32.3036206" lon="-110.5856957"><ele>1297.0</ele><time>2026-04-10T01:22:45.029Z</time></trkpt><trkpt lat="32.3035387" lon="-110.5858299"><ele>1296.0</ele><time>2026-04-10T01:22:46.029Z</time></trkpt><trkpt lat="32.3034569" lon="-110.5859596"><ele>1295.0</ele><time>2026-04-10T01:22:47.028Z</time></trkpt><trkpt lat="32.3033837" lon="-110.586084"><ele>1295.0</ele><time>2026-04-10T01:22:48.029Z</time></trkpt><trkpt lat="32.3033282" lon="-110.5862027"><ele>1295.0</ele><time>2026-04-10T01:22:49.029Z</time></trkpt><trkpt lat="32.303293" lon="-110.5863209"><ele>1295.0</ele><time>2026-04-10T01:22:50.029Z</time></trkpt><trkpt lat="32.3032805" lon="-110.5864415"><ele>1295.0</ele><time>2026-04-10T01:22:51.029Z</time></trkpt><trkpt lat="32.3032888" lon="-110.5865623"><ele>1295.0</ele><time>2026-04-10T01:22:52.029Z</time></trkpt><trkpt lat="32.3033114" lon="-110.5866827"><ele>1295.0</ele><time>2026-04-10T01:22:53.029Z</time></trkpt><trkpt lat="32.3033404" lon="-110.5867982"><ele>1295.0</ele><time>2026-04-10T01:22:54.028Z</time></trkpt><trkpt lat="32.3033933" lon="-110.5869099"><ele>1295.0</ele><time>2026-04-10T01:22:55.029Z</time></trkpt><trkpt lat="32.303459" lon="-110.5870231"><ele>1295.0</ele><time>2026-04-10T01:22:56.029Z</time></trkpt><trkpt lat="32.3035352" lon="-110.5871451"><ele>1294.75</ele><time>2026-04-10T01:22:57.029Z</time></trkpt><trkpt lat="32.303614" lon="-110.5872724"><ele>1294.5</ele><time>2026-04-10T01:22:58.029Z</time></trkpt><trkpt lat="32.3036824" lon="-110.5874021"><ele>1294.25</ele><time>2026-04-10T01:22:59.029Z</time></trkpt><trkpt lat="32.303746" lon="-110.5875375"><ele>1294.0</ele><time>2026-04-10T01:23:00.028Z</time></trkpt><trkpt lat="32.3038065" lon="-110.5876734"><ele>1294.0</ele><time>2026-04-10T01:23:01.029Z</time></trkpt><trkpt lat="32.3038643" lon="-110.5878094"><ele>1294.0</ele><time>2026-04-10T01:23:02.029Z</time></trkpt><trkpt lat="32.3039191" lon="-110.5879462"><ele>1294.0</ele><time>2026-04-10T01:23:03.029Z</time></trkpt><trkpt lat="32.3039672" lon="-110.5880874"><ele>1294.0</ele><time>2026-04-10T01:23:04.029Z</time></trkpt><trkpt lat="32.3040062" lon="-110.5882337"><ele>1294.75</ele><time>2026-04-10T01:23:05.029Z</time></trkpt><trkpt lat="32.304034" lon="-110.5883896"><ele>1295.5</ele><time>2026-04-10T01:23:06.029Z</time></trkpt><trkpt lat="32.3040501" lon="-110.5885475"><ele>1296.25</ele><time>2026-04-10T01:23:07.028Z</time></trkpt><trkpt lat="32.3040633" lon="-110.5887026"><ele>1297.0</ele><time>2026-04-10T01:23:08.029Z</time></trkpt><trkpt lat="32.3040781" lon="-110.5888552"><ele>1297.5</ele><time>2026-04-10T01:23:09.028Z</time></trkpt><trkpt lat="32.3040883" lon="-110.5890084"><ele>1298.0</ele><time>2026-04-10T01:23:10.029Z</time></trkpt><trkpt lat="32.3040948" lon="-110.5891608"><ele>1298.5</ele><time>2026-04-10T01:23:11.028Z</time></trkpt><trkpt lat="32.3040822" lon="-110.589317"><ele>1299.0</ele><time>2026-04-10T01:23:12.029Z</time></trkpt><trkpt lat="32.3040609" lon="-110.5894768"><ele>1299.75</ele><time>2026-04-10T01:23:13.029Z</time></trkpt><trkpt lat="32.3040269" lon="-110.5896344"><ele>1300.5</ele><time>2026-04-10T01:23:14.029Z</time></trkpt><trkpt lat="32.3039919" lon="-110.5897919"><ele>1301.25</ele><time>2026-04-10T01:23:15.029Z</time></trkpt><trkpt lat="32.3039567" lon="-110.5899478"><ele>1302.0</ele><time>2026-04-10T01:23:16.029Z</time></trkpt><trkpt lat="32.3039247" lon="-110.5901041"><ele>1302.5</ele><time>2026-04-10T01:23:17.029Z</time></trkpt><trkpt lat="32.3038934" lon="-110.5902607"><ele>1303.0</ele><time>2026-04-10T01:23:18.029Z</time></trkpt><trkpt lat="32.3038644" lon="-110.5904175"><ele>1303.5</ele><time>2026-04-10T01:23:19.029Z</time></trkpt><trkpt lat="32.3038375" lon="-110.5905756"><ele>1304.0</ele><time>2026-04-10T01:23:20.029Z</time></trkpt><trkpt lat="32.3038113" lon="-110.5907356"><ele>1304.0</ele><time>2026-04-10T01:23:21.029Z</time></trkpt><trkpt lat="32.3037875" lon="-110.5908854"><ele>1304.0</ele><time>2026-04-10T01:23:22.029Z</time></trkpt><trkpt lat="32.3037631" lon="-110.5910203"><ele>1304.0</ele><time>2026-04-10T01:23:23.029Z</time></trkpt><trkpt lat="32.3037332" lon="-110.5911518"><ele>1304.0</ele><time>2026-04-10T01:23:24.03Z</time></trkpt><trkpt lat="32.3036898" lon="-110.5912843"><ele>1303.0</ele><time>2026-04-10T01:23:25.029Z</time></trkpt><trkpt lat="32.3036304" lon="-110.591412"><ele>1302.0</ele><time>2026-04-10T01:23:26.03Z</time></trkpt><trkpt lat="32.30356" lon="-110.5915289"><ele>1301.0</ele><time>2026-04-10T01:23:27.03Z</time></trkpt><trkpt lat="32.3034832" lon="-110.5916291"><ele>1300.0</ele><time>2026-04-10T01:23:28.03Z</time></trkpt><trkpt lat="32.3034071" lon="-110.5917175"><ele>1300.0</ele><time>2026-04-10T01:23:29.03Z</time></trkpt><trkpt lat="32.3033281" lon="-110.5918068"><ele>1300.0</ele><time>2026-04-10T01:23:30.03Z</time></trkpt><trkpt lat="32.3032429" lon="-110.5919079"><ele>1300.0</ele><time>2026-04-10T01:23:31.03Z</time></trkpt><trkpt lat="32.3031567" lon="-110.5920193"><ele>1300.0</ele><time>2026-04-10T01:23:32.03Z</time></trkpt><trkpt lat="32.3030729" lon="-110.5921427"><ele>1299.5</ele><time>2026-04-10T01:23:33.03Z</time></trkpt><trkpt lat="32.3029934" lon="-110.5922767"><ele>1299.0</ele><time>2026-04-10T01:23:34.03Z</time></trkpt><trkpt lat="32.3029242" lon="-110.5924168"><ele>1298.5</ele><time>2026-04-10T01:23:35.03Z</time></trkpt><trkpt lat="32.3028695" lon="-110.5925656"><ele>1298.0</ele><time>2026-04-10T01:23:36.03Z</time></trkpt><trkpt lat="32.3028176" lon="-110.5927182"><ele>1298.25</ele><time>2026-04-10T01:23:37.03Z</time></trkpt><trkpt lat="32.3027822" lon="-110.5928876"><ele>1298.5</ele><time>2026-04-10T01:23:38.03Z</time></trkpt><trkpt lat="32.3027491" lon="-110.5930532"><ele>1298.75</ele><time>2026-04-10T01:23:39.03Z</time></trkpt><trkpt lat="32.3027209" lon="-110.5932225"><ele>1299.0</ele><time>2026-04-10T01:23:40.03Z</time></trkpt><trkpt lat="32.3027047" lon="-110.5933939"><ele>1299.0</ele><time>2026-04-10T01:23:41.03Z</time></trkpt><trkpt lat="32.3027001" lon="-110.5935676"><ele>1299.0</ele><time>2026-04-10T01:23:42.03Z</time></trkpt><trkpt lat="32.3027012" lon="-110.5937382"><ele>1299.0</ele><time>2026-04-10T01:23:43.029Z</time></trkpt><trkpt lat="32.3027141" lon="-110.5938991"><ele>1299.0</ele><time>2026-04-10T01:23:44.03Z</time></trkpt><trkpt lat="32.3027296" lon="-110.594054"><ele>1297.75</ele><time>2026-04-10T01:23:45.03Z</time></trkpt><trkpt lat="32.302745" lon="-110.5942032"><ele>1296.5</ele><time>2026-04-10T01:23:46.03Z</time></trkpt><trkpt lat="32.302756" lon="-110.594355"><ele>1295.25</ele><time>2026-04-10T01:23:47.029Z</time></trkpt><trkpt lat="32.3027531" lon="-110.5945232"><ele>1294.0</ele><time>2026-04-10T01:23:48.03Z</time></trkpt><trkpt lat="32.3027318" lon="-110.5946956"><ele>1294.0</ele><time>2026-04-10T01:23:49.03Z</time></trkpt><trkpt lat="32.3027065" lon="-110.5948667"><ele>1294.0</ele><time>2026-04-10T01:23:50.03Z</time></trkpt><trkpt lat="32.3026574" lon="-110.5950295"><ele>1294.0</ele><time>2026-04-10T01:23:51.03Z</time></trkpt><trkpt lat="32.3026114" lon="-110.595181"><ele>1294.0</ele><time>2026-04-10T01:23:52.029Z</time></trkpt><trkpt lat="32.3025712" lon="-110.5953367"><ele>1294.0</ele><time>2026-04-10T01:23:53.03Z</time></trkpt><trkpt lat="32.3025348" lon="-110.5954985"><ele>1294.0</ele><time>2026-04-10T01:23:54.03Z</time></trkpt><trkpt lat="32.3025002" lon="-110.5956656"><ele>1294.0</ele><time>2026-04-10T01:23:55.03Z</time></trkpt><trkpt lat="32.3024663" lon="-110.5958386"><ele>1294.0</ele><time>2026-04-10T01:23:56.03Z</time></trkpt><trkpt lat="32.3024347" lon="-110.5960175"><ele>1293.0</ele><time>2026-04-10T01:23:57.029Z</time></trkpt><trkpt lat="32.3024027" lon="-110.5962072"><ele>1292.0</ele><time>2026-04-10T01:23:58.03Z</time></trkpt><trkpt lat="32.3023701" lon="-110.5963978"><ele>1291.0</ele><time>2026-04-10T01:23:59.03Z</time></trkpt><trkpt lat="32.3023414" lon="-110.596584"><ele>1291.0</ele><time>2026-04-10T01:24:00.03Z</time></trkpt><trkpt lat="32.3023122" lon="-110.5967593"><ele>1291.0</ele><time>2026-04-10T01:24:01.03Z</time></trkpt><trkpt lat="32.302284" lon="-110.5969225"><ele>1291.0</ele><time>2026-04-10T01:24:02.029Z</time></trkpt><trkpt lat="32.3022613" lon="-110.59708"><ele>1291.0</ele><time>2026-04-10T01:24:03.03Z</time></trkpt><trkpt lat="32.3022456" lon="-110.5972325"><ele>1291.0</ele><time>2026-04-10T01:24:04.03Z</time></trkpt><trkpt lat="32.3022425" lon="-110.5973792"><ele>1291.0</ele><time>2026-04-10T01:24:05.029Z</time></trkpt><trkpt lat="32.3022569" lon="-110.5975207"><ele>1291.0</ele><time>2026-04-10T01:24:06.03Z</time></trkpt><trkpt lat="32.3022901" lon="-110.5976536"><ele>1291.0</ele><time>2026-04-10T01:24:07.03Z</time></trkpt><trkpt lat="32.3023418" lon="-110.5977721"><ele>1291.0</ele><time>2026-04-10T01:24:08.03Z</time></trkpt><trkpt lat="32.3024101" lon="-110.5978782"><ele>1291.0</ele><time>2026-04-10T01:24:09.03Z</time></trkpt><trkpt lat="32.3024952" lon="-110.5979778"><ele>1291.0</ele><time>2026-04-10T01:24:10.03Z</time></trkpt><trkpt lat="32.3025881" lon="-110.5980764"><ele>1291.0</ele><time>2026-04-10T01:24:11.03Z</time></trkpt><trkpt lat="32.3026973" lon="-110.5981733"><ele>1291.0</ele><time>2026-04-10T01:24:12.03Z</time></trkpt><trkpt lat="32.3028092" lon="-110.5982667"><ele>1291.0</ele><time>2026-04-10T01:24:13.03Z</time></trkpt><trkpt lat="32.3029131" lon="-110.5983418"><ele>1291.0</ele><time>2026-04-10T01:24:14.03Z</time></trkpt><trkpt lat="32.3030151" lon="-110.5984069"><ele>1291.0</ele><time>2026-04-10T01:24:15.03Z</time></trkpt><trkpt lat="32.3031219" lon="-110.598446"><ele>1292.0</ele><time>2026-04-10T01:24:16.03Z</time></trkpt><trkpt lat="32.3032413" lon="-110.5984729"><ele>1293.0</ele><time>2026-04-10T01:24:17.03Z</time></trkpt><trkpt lat="32.3033707" lon="-110.5984885"><ele>1294.0</ele><time>2026-04-10T01:24:18.03Z</time></trkpt><trkpt lat="32.3034963" lon="-110.5984954"><ele>1295.0</ele><time>2026-04-10T01:24:19.03Z</time></trkpt><trkpt lat="32.3036161" lon="-110.5984863"><ele>1295.0</ele><time>2026-04-10T01:24:20.029Z</time></trkpt><trkpt lat="32.3037414" lon="-110.5984628"><ele>1295.0</ele><time>2026-04-10T01:24:21.03Z</time></trkpt><trkpt lat="32.3038698" lon="-110.5984285"><ele>1295.0</ele><time>2026-04-10T01:24:22.03Z</time></trkpt><trkpt lat="32.3039886" lon="-110.5983984"><ele>1295.0</ele><time>2026-04-10T01:24:23.029Z</time></trkpt><trkpt lat="32.3041022" lon="-110.5983821"><ele>1296.0</ele><time>2026-04-10T01:24:24.03Z</time></trkpt><trkpt lat="32.3042225" lon="-110.5983847"><ele>1297.0</ele><time>2026-04-10T01:24:25.03Z</time></trkpt><trkpt lat="32.3043555" lon="-110.5984028"><ele>1298.0</ele><time>2026-04-10T01:24:26.03Z</time></trkpt><trkpt lat="32.304494" lon="-110.5984296"><ele>1299.0</ele><time>2026-04-10T01:24:27.03Z</time></trkpt><trkpt lat="32.3046391" lon="-110.5984546"><ele>1299.3333333333333</ele><time>2026-04-10T01:24:28.03Z</time></trkpt><trkpt lat="32.3047848" lon="-110.5984619"><ele>1299.6666666666665</ele><time>2026-04-10T01:24:29.029Z</time></trkpt><trkpt lat="32.3049367" lon="-110.5984665"><ele>1300.0</ele><time>2026-04-10T01:24:30.03Z</time></trkpt><trkpt lat="32.3050903" lon="-110.5984656"><ele>1300.0</ele><time>2026-04-10T01:24:31.029Z</time></trkpt><trkpt lat="32.3052364" lon="-110.5984614"><ele>1300.0</ele><time>2026-04-10T01:24:32.03Z</time></trkpt><trkpt lat="32.3053737" lon="-110.5984594"><ele>1300.0</ele><time>2026-04-10T01:24:33.03Z</time></trkpt><trkpt lat="32.3055069" lon="-110.5984612"><ele>1300.0</ele><time>2026-04-10T01:24:34.03Z</time></trkpt><trkpt lat="32.3056298" lon="-110.5984674"><ele>1301.0</ele><time>2026-04-10T01:24:35.03Z</time></trkpt><trkpt lat="32.3057436" lon="-110.5984875"><ele>1302.0</ele><time>2026-04-10T01:24:36.03Z</time></trkpt><trkpt lat="32.305856" lon="-110.5985308"><ele>1303.0</ele><time>2026-04-10T01:24:37.03Z</time></trkpt><trkpt lat="32.3059716" lon="-110.5985956"><ele>1304.0</ele><time>2026-04-10T01:24:38.03Z</time></trkpt><trkpt lat="32.3060906" lon="-110.5986655"><ele>1303.75</ele><time>2026-04-10T01:24:39.03Z</time></trkpt><trkpt lat="32.3062151" lon="-110.5987389"><ele>1303.5</ele><time>2026-04-10T01:24:40.03Z</time></trkpt><trkpt lat="32.3063359" lon="-110.5987981"><ele>1303.25</ele><time>2026-04-10T01:24:41.03Z</time></trkpt><trkpt lat="32.3064651" lon="-110.5988459"><ele>1303.0</ele><time>2026-04-10T01:24:42.03Z</time></trkpt><trkpt lat="32.3065983" lon="-110.5988879"><ele>1305.0</ele><time>2026-04-10T01:24:43.03Z</time></trkpt><trkpt lat="32.306737" lon="-110.5989197"><ele>1307.0</ele><time>2026-04-10T01:24:44.03Z</time></trkpt><trkpt lat="32.3068636" lon="-110.5989447"><ele>1309.0</ele><time>2026-04-10T01:24:45.03Z</time></trkpt><trkpt lat="32.3069878" lon="-110.5989715"><ele>1311.0</ele><time>2026-04-10T01:24:46.03Z</time></trkpt><trkpt lat="32.3071068" lon="-110.5990078"><ele>1311.0</ele><time>2026-04-10T01:24:47.03Z</time></trkpt><trkpt lat="32.3072135" lon="-110.5990529"><ele>1311.0</ele><time>2026-04-10T01:24:48.03Z</time></trkpt><trkpt lat="32.3073086" lon="-110.5991107"><ele>1311.0</ele><time>2026-04-10T01:24:49.03Z</time></trkpt><trkpt lat="32.3073952" lon="-110.5991841"><ele>1311.0</ele><time>2026-04-10T01:24:50.03Z</time></trkpt><trkpt lat="32.3074706" lon="-110.5992713"><ele>1311.0</ele><time>2026-04-10T01:24:51.029Z</time></trkpt><trkpt lat="32.3075338" lon="-110.5993703"><ele>1311.1999999999998</ele><time>2026-04-10T01:24:52.03Z</time></trkpt><trkpt lat="32.3075849" lon="-110.5994828"><ele>1311.3999999999999</ele><time>2026-04-10T01:24:53.03Z</time></trkpt><trkpt lat="32.3076217" lon="-110.5996048"><ele>1311.6</ele><time>2026-04-10T01:24:54.03Z</time></trkpt><trkpt lat="32.3076417" lon="-110.5997279"><ele>1311.8</ele><time>2026-04-10T01:24:55.03Z</time></trkpt><trkpt lat="32.3076473" lon="-110.5998571"><ele>1312.0</ele><time>2026-04-10T01:24:56.03Z</time></trkpt><trkpt lat="32.307641" lon="-110.599994"><ele>1311.75</ele><time>2026-04-10T01:24:57.03Z</time></trkpt><trkpt lat="32.3076293" lon="-110.6001388"><ele>1311.5</ele><time>2026-04-10T01:24:58.03Z</time></trkpt><trkpt lat="32.3076212" lon="-110.6002923"><ele>1311.25</ele><time>2026-04-10T01:24:59.03Z</time></trkpt><trkpt lat="32.3076224" lon="-110.6004532"><ele>1311.0</ele><time>2026-04-10T01:25:00.03Z</time></trkpt><trkpt lat="32.3076328" lon="-110.600614"><ele>1311.0</ele><time>2026-04-10T01:25:01.03Z</time></trkpt><trkpt lat="32.3076472" lon="-110.6007716"><ele>1311.0</ele><time>2026-04-10T01:25:02.03Z</time></trkpt><trkpt lat="32.3076581" lon="-110.6009326"><ele>1311.0</ele><time>2026-04-10T01:25:03.03Z</time></trkpt><trkpt lat="32.3076608" lon="-110.6010987"><ele>1311.0</ele><time>2026-04-10T01:25:04.03Z</time></trkpt><trkpt lat="32.307656" lon="-110.60126"><ele>1310.25</ele><time>2026-04-10T01:25:05.03Z</time></trkpt><trkpt lat="32.3076495" lon="-110.6014126"><ele>1309.5</ele><time>2026-04-10T01:25:06.03Z</time></trkpt><trkpt lat="32.3076363" lon="-110.6015614"><ele>1308.75</ele><time>2026-04-10T01:25:07.03Z</time></trkpt><trkpt lat="32.307609" lon="-110.6016997"><ele>1308.0</ele><time>2026-04-10T01:25:08.03Z</time></trkpt><trkpt lat="32.3075651" lon="-110.6018287"><ele>1308.0</ele><time>2026-04-10T01:25:09.03Z</time></trkpt><trkpt lat="32.3075068" lon="-110.6019483"><ele>1308.0</ele><time>2026-04-10T01:25:10.03Z</time></trkpt><trkpt lat="32.3074331" lon="-110.6020619"><ele>1308.0</ele><time>2026-04-10T01:25:11.03Z</time></trkpt><trkpt lat="32.3073456" lon="-110.6021711"><ele>1308.0</ele><time>2026-04-10T01:25:12.03Z</time></trkpt><trkpt lat="32.3072458" lon="-110.6022759"><ele>1308.5</ele><time>2026-04-10T01:25:13.03Z</time></trkpt><trkpt lat="32.3071471" lon="-110.6023701"><ele>1309.0</ele><time>2026-04-10T01:25:14.03Z</time></trkpt><trkpt lat="32.3070526" lon="-110.6024614"><ele>1309.5</ele><time>2026-04-10T01:25:15.03Z</time></trkpt><trkpt lat="32.3069739" lon="-110.6025608"><ele>1310.0</ele><time>2026-04-10T01:25:16.03Z</time></trkpt><trkpt lat="32.3069127" lon="-110.6026747"><ele>1310.0</ele><time>2026-04-10T01:25:17.029Z</time></trkpt><trkpt lat="32.3068629" lon="-110.6028022"><ele>1310.0</ele><time>2026-04-10T01:25:18.03Z</time></trkpt><trkpt lat="32.3068216" lon="-110.6029423"><ele>1310.0</ele><time>2026-04-10T01:25:19.029Z</time></trkpt><trkpt lat="32.3067873" lon="-110.6030924"><ele>1310.0</ele><time>2026-04-10T01:25:20.03Z</time></trkpt><trkpt lat="32.3067598" lon="-110.6032492"><ele>1310.25</ele><time>2026-04-10T01:25:21.03Z</time></trkpt><trkpt lat="32.3067366" lon="-110.6034101"><ele>1310.5</ele><time>2026-04-10T01:25:22.03Z</time></trkpt><trkpt lat="32.3067142" lon="-110.6035715"><ele>1310.75</ele><time>2026-04-10T01:25:23.029Z</time></trkpt><trkpt lat="32.3066892" lon="-110.6037235"><ele>1311.0</ele><time>2026-04-10T01:25:24.03Z</time></trkpt><trkpt lat="32.3066651" lon="-110.6038628"><ele>1310.5</ele><time>2026-04-10T01:25:25.03Z</time></trkpt><trkpt lat="32.3066525" lon="-110.6039965"><ele>1310.0</ele><time>2026-04-10T01:25:26.03Z</time></trkpt><trkpt lat="32.3066573" lon="-110.6041327"><ele>1309.5</ele><time>2026-04-10T01:25:27.03Z</time></trkpt><trkpt lat="32.3066811" lon="-110.6042697"><ele>1309.0</ele><time>2026-04-10T01:25:28.029Z</time></trkpt><trkpt lat="32.3067091" lon="-110.6044068"><ele>1308.75</ele><time>2026-04-10T01:25:29.03Z</time></trkpt><trkpt lat="32.306767" lon="-110.6045459"><ele>1308.5</ele><time>2026-04-10T01:25:30.03Z</time></trkpt><trkpt lat="32.3068248" lon="-110.6046905"><ele>1308.25</ele><time>2026-04-10T01:25:31.03Z</time></trkpt><trkpt lat="32.3068725" lon="-110.6048389"><ele>1308.0</ele><time>2026-04-10T01:25:32.031Z</time></trkpt><trkpt lat="32.3069108" lon="-110.604991"><ele>1308.0</ele><time>2026-04-10T01:25:33.031Z</time></trkpt><trkpt lat="32.3069382" lon="-110.6051412"><ele>1308.0</ele><time>2026-04-10T01:25:34.031Z</time></trkpt><trkpt lat="32.3069634" lon="-110.6052906"><ele>1308.0</ele><time>2026-04-10T01:25:35.031Z</time></trkpt><trkpt lat="32.3069581" lon="-110.605446"><ele>1308.0</ele><time>2026-04-10T01:25:36.031Z</time></trkpt><trkpt lat="32.3069414" lon="-110.6056026"><ele>1308.0</ele><time>2026-04-10T01:25:37.031Z</time></trkpt><trkpt lat="32.306924" lon="-110.6057676"><ele>1308.0</ele><time>2026-04-10T01:25:38.031Z</time></trkpt><trkpt lat="32.3069081" lon="-110.6059359"><ele>1308.0</ele><time>2026-04-10T01:25:39.031Z</time></trkpt><trkpt lat="32.3068965" lon="-110.6061002"><ele>1308.0</ele><time>2026-04-10T01:25:40.031Z</time></trkpt><trkpt lat="32.306891" lon="-110.6062652"><ele>1308.0</ele><time>2026-04-10T01:25:41.031Z</time></trkpt><trkpt lat="32.3068883" lon="-110.6064337"><ele>1308.0</ele><time>2026-04-10T01:25:42.031Z</time></trkpt><trkpt lat="32.3068875" lon="-110.606606"><ele>1308.0</ele><time>2026-04-10T01:25:43.031Z</time></trkpt><trkpt lat="32.30689" lon="-110.6067822"><ele>1308.0</ele><time>2026-04-10T01:25:44.031Z</time></trkpt><trkpt lat="32.3068944" lon="-110.6069586"><ele>1308.5</ele><time>2026-04-10T01:25:45.031Z</time></trkpt><trkpt lat="32.3068974" lon="-110.6071434"><ele>1309.0</ele><time>2026-04-10T01:25:46.031Z</time></trkpt><trkpt lat="32.306895" lon="-110.6073198"><ele>1309.5</ele><time>2026-04-10T01:25:47.031Z</time></trkpt><trkpt lat="32.3068909" lon="-110.6074886"><ele>1310.0</ele><time>2026-04-10T01:25:48.031Z</time></trkpt><trkpt lat="32.3068905" lon="-110.6076469"><ele>1310.0</ele><time>2026-04-10T01:25:49.031Z</time></trkpt><trkpt lat="32.3068978" lon="-110.6078004"><ele>1310.0</ele><time>2026-04-10T01:25:50.03Z</time></trkpt><trkpt lat="32.3069097" lon="-110.6079418"><ele>1310.0</ele><time>2026-04-10T01:25:51.031Z</time></trkpt><trkpt lat="32.3069186" lon="-110.6080715"><ele>1310.0</ele><time>2026-04-10T01:25:52.031Z</time></trkpt><trkpt lat="32.3069058" lon="-110.6081913"><ele>1310.2</ele><time>2026-04-10T01:25:53.031Z</time></trkpt><trkpt lat="32.3068848" lon="-110.6083063"><ele>1310.4</ele><time>2026-04-10T01:25:54.031Z</time></trkpt><trkpt lat="32.3068385" lon="-110.6084086"><ele>1310.6</ele><time>2026-04-10T01:25:55.031Z</time></trkpt><trkpt lat="32.3067852" lon="-110.6085145"><ele>1310.8</ele><time>2026-04-10T01:25:56.031Z</time></trkpt><trkpt lat="32.3067203" lon="-110.6086395"><ele>1311.0</ele><time>2026-04-10T01:25:57.031Z</time></trkpt><trkpt lat="32.3066423" lon="-110.6087832"><ele>1310.0</ele><time>2026-04-10T01:25:58.031Z</time></trkpt><trkpt lat="32.3065581" lon="-110.6089426"><ele>1309.0</ele><time>2026-04-10T01:25:59.031Z</time></trkpt><trkpt lat="32.3064728" lon="-110.6091058"><ele>1308.0</ele><time>2026-04-10T01:26:00.031Z</time></trkpt><trkpt lat="32.3063871" lon="-110.6092689"><ele>1307.5</ele><time>2026-04-10T01:26:01.031Z</time></trkpt><trkpt lat="32.3063051" lon="-110.6094238"><ele>1307.0</ele><time>2026-04-10T01:26:02.031Z</time></trkpt><trkpt lat="32.3062286" lon="-110.609572"><ele>1306.5</ele><time>2026-04-10T01:26:03.031Z</time></trkpt><trkpt lat="32.3061532" lon="-110.6097168"><ele>1306.0</ele><time>2026-04-10T01:26:04.031Z</time></trkpt><trkpt lat="32.3060743" lon="-110.6098499"><ele>1306.0</ele><time>2026-04-10T01:26:05.031Z</time></trkpt><trkpt lat="32.3059843" lon="-110.6099711"><ele>1306.0</ele><time>2026-04-10T01:26:06.031Z</time></trkpt><trkpt lat="32.3058835" lon="-110.6100888"><ele>1306.0</ele><time>2026-04-10T01:26:07.031Z</time></trkpt><trkpt lat="32.3057758" lon="-110.6102085"><ele>1306.0</ele><time>2026-04-10T01:26:08.031Z</time></trkpt><trkpt lat="32.3056667" lon="-110.6103331"><ele>1306.0</ele><time>2026-04-10T01:26:09.031Z</time></trkpt><trkpt lat="32.3055602" lon="-110.6104611"><ele>1306.0</ele><time>2026-04-10T01:26:10.031Z</time></trkpt><trkpt lat="32.3054535" lon="-110.6105898"><ele>1306.0</ele><time>2026-04-10T01:26:11.031Z</time></trkpt><trkpt lat="32.3053441" lon="-110.6107215"><ele>1306.0</ele><time>2026-04-10T01:26:12.031Z</time></trkpt><trkpt lat="32.305232" lon="-110.6108535"><ele>1306.0</ele><time>2026-04-10T01:26:13.031Z</time></trkpt><trkpt lat="32.3051213" lon="-110.6109828"><ele>1306.0</ele><time>2026-04-10T01:26:14.031Z</time></trkpt><trkpt lat="32.3050203" lon="-110.6111008"><ele>1305.5</ele><time>2026-04-10T01:26:15.031Z</time></trkpt><trkpt lat="32.3049213" lon="-110.6112105"><ele>1305.0</ele><time>2026-04-10T01:26:16.031Z</time></trkpt><trkpt lat="32.3048169" lon="-110.6113229"><ele>1304.5</ele><time>2026-04-10T01:26:17.031Z</time></trkpt><trkpt lat="32.3047071" lon="-110.6114422"><ele>1304.0</ele><time>2026-04-10T01:26:18.031Z</time></trkpt><trkpt lat="32.3045941" lon="-110.6115677"><ele>1303.0</ele><time>2026-04-10T01:26:19.031Z</time></trkpt><trkpt lat="32.3044753" lon="-110.6116936"><ele>1302.0</ele><time>2026-04-10T01:26:20.031Z</time></trkpt><trkpt lat="32.3043533" lon="-110.6118166"><ele>1301.0</ele><time>2026-04-10T01:26:21.031Z</time></trkpt><trkpt lat="32.3042371" lon="-110.6119358"><ele>1300.3333333333335</ele><time>2026-04-10T01:26:22.03Z</time></trkpt><trkpt lat="32.3041243" lon="-110.6120546"><ele>1299.6666666666667</ele><time>2026-04-10T01:26:23.031Z</time></trkpt><trkpt lat="32.3040117" lon="-110.6121736"><ele>1299.0</ele><time>2026-04-10T01:26:24.03Z</time></trkpt><trkpt lat="32.3038996" lon="-110.6122931"><ele>1298.75</ele><time>2026-04-10T01:26:25.031Z</time></trkpt><trkpt lat="32.3037935" lon="-110.6124108"><ele>1298.5</ele><time>2026-04-10T01:26:26.031Z</time></trkpt><trkpt lat="32.3036945" lon="-110.6125266"><ele>1298.25</ele><time>2026-04-10T01:26:27.031Z</time></trkpt><trkpt lat="32.303604" lon="-110.6126407"><ele>1298.0</ele><time>2026-04-10T01:26:28.031Z</time></trkpt><trkpt lat="32.3035264" lon="-110.6127576"><ele>1297.5</ele><time>2026-04-10T01:26:29.031Z</time></trkpt><trkpt lat="32.3034624" lon="-110.6128834"><ele>1297.0</ele><time>2026-04-10T01:26:30.031Z</time></trkpt><trkpt lat="32.3034069" lon="-110.6130218"><ele>1296.5</ele><time>2026-04-10T01:26:31.031Z</time></trkpt><trkpt lat="32.3033595" lon="-110.6131704"><ele>1296.0</ele><time>2026-04-10T01:26:32.031Z</time></trkpt><trkpt lat="32.3033236" lon="-110.6133286"><ele>1296.0</ele><time>2026-04-10T01:26:33.031Z</time></trkpt><trkpt lat="32.3033015" lon="-110.6134951"><ele>1296.0</ele><time>2026-04-10T01:26:34.031Z</time></trkpt><trkpt lat="32.3032947" lon="-110.6136671"><ele>1296.0</ele><time>2026-04-10T01:26:35.031Z</time></trkpt><trkpt lat="32.3033027" lon="-110.6138456"><ele>1296.0</ele><time>2026-04-10T01:26:36.031Z</time></trkpt><trkpt lat="32.3033181" lon="-110.6140198"><ele>1295.3333333333333</ele><time>2026-04-10T01:26:37.031Z</time></trkpt><trkpt lat="32.3033382" lon="-110.6141985"><ele>1294.6666666666665</ele><time>2026-04-10T01:26:38.031Z</time></trkpt><trkpt lat="32.3033585" lon="-110.6143778"><ele>1294.0</ele><time>2026-04-10T01:26:39.031Z</time></trkpt><trkpt lat="32.3033799" lon="-110.6145539"><ele>1295.6666666666665</ele><time>2026-04-10T01:26:40.031Z</time></trkpt><trkpt lat="32.3034078" lon="-110.6147308"><ele>1297.3333333333333</ele><time>2026-04-10T01:26:41.031Z</time></trkpt><trkpt lat="32.3034529" lon="-110.614905"><ele>1299.0</ele><time>2026-04-10T01:26:42.03Z</time></trkpt><trkpt lat="32.3035006" lon="-110.6150731"><ele>1299.0</ele><time>2026-04-10T01:26:43.031Z</time></trkpt><trkpt lat="32.3035456" lon="-110.6152339"><ele>1299.0</ele><time>2026-04-10T01:26:44.031Z</time></trkpt><trkpt lat="32.3035795" lon="-110.6153794"><ele>1299.0</ele><time>2026-04-10T01:26:45.031Z</time></trkpt><trkpt lat="32.3036051" lon="-110.6155208"><ele>1299.0</ele><time>2026-04-10T01:26:46.031Z</time></trkpt><trkpt lat="32.3036064" lon="-110.6156705"><ele>1298.25</ele><time>2026-04-10T01:26:47.031Z</time></trkpt><trkpt lat="32.3035928" lon="-110.615831"><ele>1297.5</ele><time>2026-04-10T01:26:48.03Z</time></trkpt><trkpt lat="32.3035656" lon="-110.6160042"><ele>1296.75</ele><time>2026-04-10T01:26:49.031Z</time></trkpt><trkpt lat="32.3035308" lon="-110.6161843"><ele>1296.0</ele><time>2026-04-10T01:26:50.031Z</time></trkpt><trkpt lat="32.3034922" lon="-110.6163699"><ele>1294.3333333333333</ele><time>2026-04-10T01:26:51.031Z</time></trkpt><trkpt lat="32.3034525" lon="-110.6165523"><ele>1292.6666666666665</ele><time>2026-04-10T01:26:52.031Z</time></trkpt><trkpt lat="32.3034167" lon="-110.6167265"><ele>1291.0</ele><time>2026-04-10T01:26:53.031Z</time></trkpt><trkpt lat="32.3033846" lon="-110.6168974"><ele>1290.25</ele><time>2026-04-10T01:26:54.031Z</time></trkpt><trkpt lat="32.3033519" lon="-110.6170625"><ele>1289.5</ele><time>2026-04-10T01:26:55.03Z</time></trkpt><trkpt lat="32.3033208" lon="-110.6172305"><ele>1288.75</ele><time>2026-04-10T01:26:56.031Z</time></trkpt><trkpt lat="32.3033" lon="-110.6174051"><ele>1288.0</ele><time>2026-04-10T01:26:57.03Z</time></trkpt><trkpt lat="32.3032895" lon="-110.617584"><ele>1288.0</ele><time>2026-04-10T01:26:58.031Z</time></trkpt><trkpt lat="32.3032849" lon="-110.6177634"><ele>1288.0</ele><time>2026-04-10T01:26:59.031Z</time></trkpt><trkpt lat="32.3032798" lon="-110.6179458"><ele>1288.0</ele><time>2026-04-10T01:27:00.031Z</time></trkpt><trkpt lat="32.3032742" lon="-110.6181206"><ele>1287.25</ele><time>2026-04-10T01:27:01.031Z</time></trkpt><trkpt lat="32.3032679" lon="-110.6182873"><ele>1286.5</ele><time>2026-04-10T01:27:02.031Z</time></trkpt><trkpt lat="32.3032542" lon="-110.6184408"><ele>1285.75</ele><time>2026-04-10T01:27:03.031Z</time></trkpt><trkpt lat="32.3032305" lon="-110.6185759"><ele>1285.0</ele><time>2026-04-10T01:27:04.031Z</time></trkpt><trkpt lat="32.3031971" lon="-110.6186951"><ele>1284.6</ele><time>2026-04-10T01:27:05.031Z</time></trkpt><trkpt lat="32.303153" lon="-110.6187968"><ele>1284.2</ele><time>2026-04-10T01:27:06.031Z</time></trkpt><trkpt lat="32.3031024" lon="-110.6188914"><ele>1283.8000000000002</ele><time>2026-04-10T01:27:07.031Z</time></trkpt><trkpt lat="32.303026" lon="-110.6189832"><ele>1283.4</ele><time>2026-04-10T01:27:08.031Z</time></trkpt><trkpt lat="32.3029382" lon="-110.6190828"><ele>1283.0</ele><time>2026-04-10T01:27:09.03Z</time></trkpt><trkpt lat="32.3028438" lon="-110.619192"><ele>1283.5</ele><time>2026-04-10T01:27:10.031Z</time></trkpt><trkpt lat="32.3027489" lon="-110.6193001"><ele>1284.0</ele><time>2026-04-10T01:27:11.031Z</time></trkpt><trkpt lat="32.3026614" lon="-110.6193998"><ele>1284.5</ele><time>2026-04-10T01:27:12.03Z</time></trkpt><trkpt lat="32.3025801" lon="-110.6194909"><ele>1285.0</ele><time>2026-04-10T01:27:13.031Z</time></trkpt><trkpt lat="32.302501" lon="-110.6195662"><ele>1285.0</ele><time>2026-04-10T01:27:14.031Z</time></trkpt><trkpt lat="32.3024216" lon="-110.6196222"><ele>1285.0</ele><time>2026-04-10T01:27:15.031Z</time></trkpt><trkpt lat="32.3023349" lon="-110.6196622"><ele>1285.0</ele><time>2026-04-10T01:27:16.031Z</time></trkpt><trkpt lat="32.3022324" lon="-110.6196941"><ele>1285.0</ele><time>2026-04-10T01:27:17.03Z</time></trkpt><trkpt lat="32.3021156" lon="-110.619717"><ele>1285.0</ele><time>2026-04-10T01:27:18.031Z</time></trkpt><trkpt lat="32.3019857" lon="-110.6197326"><ele>1285.75</ele><time>2026-04-10T01:27:19.031Z</time></trkpt><trkpt lat="32.3018502" lon="-110.6197477"><ele>1286.5</ele><time>2026-04-10T01:27:20.031Z</time></trkpt><trkpt lat="32.3017237" lon="-110.6197657"><ele>1287.25</ele><time>2026-04-10T01:27:21.031Z</time></trkpt><trkpt lat="32.3016106" lon="-110.6197871"><ele>1288.0</ele><time>2026-04-10T01:27:22.031Z</time></trkpt><trkpt lat="32.3015145" lon="-110.6198154"><ele>1288.0</ele><time>2026-04-10T01:27:23.03Z</time></trkpt><trkpt lat="32.3014279" lon="-110.6198592"><ele>1288.0</ele><time>2026-04-10T01:27:24.031Z</time></trkpt><trkpt lat="32.3013608" lon="-110.6199192"><ele>1288.0</ele><time>2026-04-10T01:27:25.031Z</time></trkpt><trkpt lat="32.3013008" lon="-110.6199836"><ele>1288.0</ele><time>2026-04-10T01:27:26.03Z</time></trkpt><trkpt lat="32.3012593" lon="-110.62008"><ele>1288.0</ele><time>2026-04-10T01:27:27.031Z</time></trkpt><trkpt lat="32.3012204" lon="-110.6201968"><ele>1286.75</ele><time>2026-04-10T01:27:28.03Z</time></trkpt><trkpt lat="32.3011778" lon="-110.6203279"><ele>1285.5</ele><time>2026-04-10T01:27:29.031Z</time></trkpt><trkpt lat="32.301131" lon="-110.6204552"><ele>1284.25</ele><time>2026-04-10T01:27:30.031Z</time></trkpt><trkpt lat="32.3010802" lon="-110.6205795"><ele>1283.0</ele><time>2026-04-10T01:27:31.031Z</time></trkpt><trkpt lat="32.3010268" lon="-110.6207082"><ele>1283.0</ele><time>2026-04-10T01:27:32.03Z</time></trkpt><trkpt lat="32.3009665" lon="-110.6208375"><ele>1283.0</ele><time>2026-04-10T01:27:33.031Z</time></trkpt><trkpt lat="32.3008949" lon="-110.6209583"><ele>1283.0</ele><time>2026-04-10T01:27:34.03Z</time></trkpt><trkpt lat="32.3008132" lon="-110.6210743"><ele>1283.0</ele><time>2026-04-10T01:27:35.03Z</time></trkpt><trkpt lat="32.3007226" lon="-110.6211869"><ele>1283.75</ele><time>2026-04-10T01:27:36.032Z</time></trkpt><trkpt lat="32.3006271" lon="-110.6212975"><ele>1284.5</ele><time>2026-04-10T01:27:37.032Z</time></trkpt><trkpt lat="32.300536" lon="-110.6214068"><ele>1285.25</ele><time>2026-04-10T01:27:38.032Z</time></trkpt><trkpt lat="32.3004467" lon="-110.621515"><ele>1286.0</ele><time>2026-04-10T01:27:39.032Z</time></trkpt><trkpt lat="32.3003612" lon="-110.6216141"><ele>1282.75</ele><time>2026-04-10T01:27:40.032Z</time></trkpt><trkpt lat="32.3002706" lon="-110.6217061"><ele>1279.5</ele><time>2026-04-10T01:27:41.032Z</time></trkpt><trkpt lat="32.300167" lon="-110.6217685"><ele>1276.25</ele><time>2026-04-10T01:27:42.032Z</time></trkpt><trkpt lat="32.3000666" lon="-110.6218295"><ele>1273.0</ele><time>2026-04-10T01:27:43.032Z</time></trkpt><trkpt lat="32.2999671" lon="-110.6219044"><ele>1273.6</ele><time>2026-04-10T01:27:44.032Z</time></trkpt><trkpt lat="32.2998706" lon="-110.6219835"><ele>1274.1999999999998</ele><time>2026-04-10T01:27:45.032Z</time></trkpt><trkpt lat="32.2997807" lon="-110.6220671"><ele>1274.8</ele><time>2026-04-10T01:27:46.032Z</time></trkpt><trkpt lat="32.2997004" lon="-110.622143"><ele>1275.3999999999999</ele><time>2026-04-10T01:27:47.032Z</time></trkpt><trkpt lat="32.299626" lon="-110.6222005"><ele>1276.0</ele><time>2026-04-10T01:27:48.032Z</time></trkpt><trkpt lat="32.2995528" lon="-110.6222268"><ele>1273.6</ele><time>2026-04-10T01:27:49.032Z</time></trkpt><trkpt lat="32.2994777" lon="-110.6222407"><ele>1271.1999999999998</ele><time>2026-04-10T01:27:50.032Z</time></trkpt><trkpt lat="32.2993842" lon="-110.6222351"><ele>1268.8000000000002</ele><time>2026-04-10T01:27:51.032Z</time></trkpt><trkpt lat="32.2992731" lon="-110.6222229"><ele>1266.4</ele><time>2026-04-10T01:27:52.032Z</time></trkpt><trkpt lat="32.299162" lon="-110.6222141"><ele>1264.0</ele><time>2026-04-10T01:27:53.032Z</time></trkpt><trkpt lat="32.2990491" lon="-110.6221964"><ele>1264.0</ele><time>2026-04-10T01:27:54.032Z</time></trkpt><trkpt lat="32.2989332" lon="-110.6221712"><ele>1264.0</ele><time>2026-04-10T01:27:55.032Z</time></trkpt><trkpt lat="32.2988146" lon="-110.6221393"><ele>1264.0</ele><time>2026-04-10T01:27:56.032Z</time></trkpt><trkpt lat="32.2986973" lon="-110.6221107"><ele>1264.0</ele><time>2026-04-10T01:27:57.032Z</time></trkpt><trkpt lat="32.2985853" lon="-110.6220799"><ele>1262.5</ele><time>2026-04-10T01:27:58.032Z</time></trkpt><trkpt lat="32.2984776" lon="-110.6220393"><ele>1261.0</ele><time>2026-04-10T01:27:59.031Z</time></trkpt><trkpt lat="32.2983703" lon="-110.6219934"><ele>1259.5</ele><time>2026-04-10T01:28:00.032Z</time></trkpt><trkpt lat="32.2982616" lon="-110.6219427"><ele>1258.0</ele><time>2026-04-10T01:28:01.031Z</time></trkpt><trkpt lat="32.2981507" lon="-110.6218826"><ele>1256.0</ele><time>2026-04-10T01:28:02.032Z</time></trkpt><trkpt lat="32.2980442" lon="-110.6218225"><ele>1254.0</ele><time>2026-04-10T01:28:03.032Z</time></trkpt><trkpt lat="32.2979565" lon="-110.6217608"><ele>1252.0</ele><time>2026-04-10T01:28:04.032Z</time></trkpt><trkpt lat="32.2978765" lon="-110.6217066"><ele>1250.0</ele><time>2026-04-10T01:28:05.031Z</time></trkpt><trkpt lat="32.2977998" lon="-110.6216724"><ele>1248.0</ele><time>2026-04-10T01:28:06.032Z</time></trkpt><trkpt lat="32.2977235" lon="-110.621651"><ele>1248.0</ele><time>2026-04-10T01:28:07.031Z</time></trkpt><trkpt lat="32.297645" lon="-110.621673"><ele>1248.0</ele><time>2026-04-10T01:28:08.032Z</time></trkpt><trkpt lat="32.2975766" lon="-110.6217204"><ele>1248.0</ele><time>2026-04-10T01:28:09.031Z</time></trkpt><trkpt lat="32.2975046" lon="-110.6217784"><ele>1248.0</ele><time>2026-04-10T01:28:10.032Z</time></trkpt><trkpt lat="32.2974174" lon="-110.6218237"><ele>1248.0</ele><time>2026-04-10T01:28:11.031Z</time></trkpt><trkpt lat="32.2973193" lon="-110.6218487"><ele>1248.0</ele><time>2026-04-10T01:28:12.032Z</time></trkpt><trkpt lat="32.2972115" lon="-110.6218567"><ele>1246.75</ele><time>2026-04-10T01:28:13.032Z</time></trkpt><trkpt lat="32.2970987" lon="-110.6218582"><ele>1245.5</ele><time>2026-04-10T01:28:14.032Z</time></trkpt><trkpt lat="32.2969801" lon="-110.6218473"><ele>1244.25</ele><time>2026-04-10T01:28:15.032Z</time></trkpt><trkpt lat="32.2968501" lon="-110.6218348"><ele>1243.0</ele><time>2026-04-10T01:28:16.032Z</time></trkpt><trkpt lat="32.2967202" lon="-110.6218179"><ele>1243.0</ele><time>2026-04-10T01:28:17.032Z</time></trkpt><trkpt lat="32.296595" lon="-110.6218044"><ele>1243.0</ele><time>2026-04-10T01:28:18.032Z</time></trkpt><trkpt lat="32.2964841" lon="-110.6217969"><ele>1243.0</ele><time>2026-04-10T01:28:19.032Z</time></trkpt><trkpt lat="32.296375" lon="-110.6217967"><ele>1243.0</ele><time>2026-04-10T01:28:20.032Z</time></trkpt><trkpt lat="32.296261" lon="-110.6218066"><ele>1241.75</ele><time>2026-04-10T01:28:21.032Z</time></trkpt><trkpt lat="32.2961458" lon="-110.6218191"><ele>1240.5</ele><time>2026-04-10T01:28:22.032Z</time></trkpt><trkpt lat="32.2960293" lon="-110.6218286"><ele>1239.25</ele><time>2026-04-10T01:28:23.032Z</time></trkpt><trkpt lat="32.2959166" lon="-110.6218284"><ele>1238.0</ele><time>2026-04-10T01:28:24.032Z</time></trkpt><trkpt lat="32.2958049" lon="-110.6218236"><ele>1238.0</ele><time>2026-04-10T01:28:25.032Z</time></trkpt><trkpt lat="32.2957041" lon="-110.621817"><ele>1238.0</ele><time>2026-04-10T01:28:26.032Z</time></trkpt><trkpt lat="32.2956027" lon="-110.6218232"><ele>1238.0</ele><time>2026-04-10T01:28:27.031Z</time></trkpt><trkpt lat="32.2955016" lon="-110.6218506"><ele>1238.0</ele><time>2026-04-10T01:28:28.032Z</time></trkpt><trkpt lat="32.2954045" lon="-110.6219027"><ele>1238.0</ele><time>2026-04-10T01:28:29.032Z</time></trkpt><trkpt lat="32.2953195" lon="-110.6219765"><ele>1237.6</ele><time>2026-04-10T01:28:30.032Z</time></trkpt><trkpt lat="32.2952385" lon="-110.6220596"><ele>1237.1999999999998</ele><time>2026-04-10T01:28:31.032Z</time></trkpt><trkpt lat="32.2951745" lon="-110.6221636"><ele>1236.8</ele><time>2026-04-10T01:28:32.032Z</time></trkpt><trkpt lat="32.2951305" lon="-110.6222805"><ele>1236.3999999999999</ele><time>2026-04-10T01:28:33.032Z</time></trkpt><trkpt lat="32.295092" lon="-110.6223837"><ele>1236.0</ele><time>2026-04-10T01:28:34.032Z</time></trkpt><trkpt lat="32.2950454" lon="-110.6224643"><ele>1236.0</ele><time>2026-04-10T01:28:35.032Z</time></trkpt><trkpt lat="32.2949848" lon="-110.6225251"><ele>1236.0</ele><time>2026-04-10T01:28:36.032Z</time></trkpt><trkpt lat="32.2949089" lon="-110.6225743"><ele>1236.0</ele><time>2026-04-10T01:28:37.032Z</time></trkpt><trkpt lat="32.2948176" lon="-110.6226251"><ele>1236.0</ele><time>2026-04-10T01:28:38.032Z</time></trkpt><trkpt lat="32.294714" lon="-110.6226878"><ele>1236.0</ele><time>2026-04-10T01:28:39.032Z</time></trkpt><trkpt lat="32.2946064" lon="-110.622755"><ele>1237.25</ele><time>2026-04-10T01:28:40.032Z</time></trkpt><trkpt lat="32.2944844" lon="-110.622829"><ele>1238.5</ele><time>2026-04-10T01:28:41.032Z</time></trkpt><trkpt lat="32.2943602" lon="-110.6229113"><ele>1239.75</ele><time>2026-04-10T01:28:42.031Z</time></trkpt><trkpt lat="32.2942465" lon="-110.6230012"><ele>1241.0</ele><time>2026-04-10T01:28:43.032Z</time></trkpt><trkpt lat="32.2941384" lon="-110.6230979"><ele>1241.0</ele><time>2026-04-10T01:28:44.032Z</time></trkpt><trkpt lat="32.2940316" lon="-110.6231939"><ele>1241.0</ele><time>2026-04-10T01:28:45.032Z</time></trkpt><trkpt lat="32.2939261" lon="-110.6232813"><ele>1241.0</ele><time>2026-04-10T01:28:46.032Z</time></trkpt><trkpt lat="32.293826" lon="-110.6233653"><ele>1241.0</ele><time>2026-04-10T01:28:47.031Z</time></trkpt><trkpt lat="32.2937298" lon="-110.6234572"><ele>1241.75</ele><time>2026-04-10T01:28:48.032Z</time></trkpt><trkpt lat="32.2936381" lon="-110.6235535"><ele>1242.5</ele><time>2026-04-10T01:28:49.032Z</time></trkpt><trkpt lat="32.2935532" lon="-110.6236709"><ele>1243.25</ele><time>2026-04-10T01:28:50.032Z</time></trkpt><trkpt lat="32.293472" lon="-110.6238009"><ele>1244.0</ele><time>2026-04-10T01:28:51.032Z</time></trkpt><trkpt lat="32.2933944" lon="-110.6239314"><ele>1244.0</ele><time>2026-04-10T01:28:52.032Z</time></trkpt><trkpt lat="32.2933272" lon="-110.6240569"><ele>1244.0</ele><time>2026-04-10T01:28:53.032Z</time></trkpt><trkpt lat="32.2932668" lon="-110.6241872"><ele>1244.0</ele><time>2026-04-10T01:28:54.032Z</time></trkpt><trkpt lat="32.2932071" lon="-110.6243202"><ele>1244.0</ele><time>2026-04-10T01:28:55.031Z</time></trkpt><trkpt lat="32.2931538" lon="-110.6244552"><ele>1240.5</ele><time>2026-04-10T01:28:56.032Z</time></trkpt><trkpt lat="32.2930879" lon="-110.6245804"><ele>1237.0</ele><time>2026-04-10T01:28:57.032Z</time></trkpt><trkpt lat="32.2930197" lon="-110.6246897"><ele>1233.5</ele><time>2026-04-10T01:28:58.032Z</time></trkpt><trkpt lat="32.292951" lon="-110.6247857"><ele>1230.0</ele><time>2026-04-10T01:28:59.032Z</time></trkpt><trkpt lat="32.2928782" lon="-110.6248793"><ele>1230.0</ele><time>2026-04-10T01:29:00.032Z</time></trkpt><trkpt lat="32.2928024" lon="-110.624985"><ele>1230.0</ele><time>2026-04-10T01:29:01.032Z</time></trkpt><trkpt lat="32.2927422" lon="-110.6251012"><ele>1230.0</ele><time>2026-04-10T01:29:02.032Z</time></trkpt><trkpt lat="32.2926983" lon="-110.6252263"><ele>1230.0</ele><time>2026-04-10T01:29:03.032Z</time></trkpt><trkpt lat="32.2926647" lon="-110.6253663"><ele>1230.25</ele><time>2026-04-10T01:29:04.032Z</time></trkpt><trkpt lat="32.2926272" lon="-110.6255133"><ele>1230.5</ele><time>2026-04-10T01:29:05.032Z</time></trkpt><trkpt lat="32.2925755" lon="-110.6256605"><ele>1230.75</ele><time>2026-04-10T01:29:06.032Z</time></trkpt><trkpt lat="32.2925202" lon="-110.6258153"><ele>1231.0</ele><time>2026-04-10T01:29:07.032Z</time></trkpt><trkpt lat="32.2924733" lon="-110.6259815"><ele>1231.0</ele><time>2026-04-10T01:29:08.032Z</time></trkpt><trkpt lat="32.292432" lon="-110.6261553"><ele>1231.0</ele><time>2026-04-10T01:29:09.032Z</time></trkpt><trkpt lat="32.2923977" lon="-110.6263273"><ele>1231.0</ele><time>2026-04-10T01:29:10.032Z</time></trkpt><trkpt lat="32.292365" lon="-110.626494"><ele>1231.0</ele><time>2026-04-10T01:29:11.032Z</time></trkpt><trkpt lat="32.2923246" lon="-110.6266515"><ele>1231.0</ele><time>2026-04-10T01:29:12.032Z</time></trkpt><trkpt lat="32.2922704" lon="-110.6267973"><ele>1231.0</ele><time>2026-04-10T01:29:13.032Z</time></trkpt><trkpt lat="32.2922141" lon="-110.6269385"><ele>1231.0</ele><time>2026-04-10T01:29:14.032Z</time></trkpt><trkpt lat="32.2921462" lon="-110.6270764"><ele>1231.0</ele><time>2026-04-10T01:29:15.032Z</time></trkpt><trkpt lat="32.2920841" lon="-110.6272202"><ele>1230.5</ele><time>2026-04-10T01:29:16.032Z</time></trkpt><trkpt lat="32.2920316" lon="-110.6273693"><ele>1230.0</ele><time>2026-04-10T01:29:17.032Z</time></trkpt><trkpt lat="32.2919772" lon="-110.6275136"><ele>1229.5</ele><time>2026-04-10T01:29:18.032Z</time></trkpt><trkpt lat="32.2919122" lon="-110.6276421"><ele>1229.0</ele><time>2026-04-10T01:29:19.032Z</time></trkpt><trkpt lat="32.2918424" lon="-110.6277708"><ele>1229.8</ele><time>2026-04-10T01:29:20.032Z</time></trkpt><trkpt lat="32.2917765" lon="-110.6278948"><ele>1230.6000000000001</ele><time>2026-04-10T01:29:21.032Z</time></trkpt><trkpt lat="32.2917189" lon="-110.6280057"><ele>1231.4</ele><time>2026-04-10T01:29:22.032Z</time></trkpt><trkpt lat="32.2916717" lon="-110.62811"><ele>1232.2</ele><time>2026-04-10T01:29:23.032Z</time></trkpt><trkpt lat="32.2916306" lon="-110.6282237"><ele>1233.0</ele><time>2026-04-10T01:29:24.032Z</time></trkpt><trkpt lat="32.2915917" lon="-110.6283424"><ele>1233.0</ele><time>2026-04-10T01:29:25.032Z</time></trkpt><trkpt lat="32.2915601" lon="-110.6284836"><ele>1233.0</ele><time>2026-04-10T01:29:26.032Z</time></trkpt><trkpt lat="32.2915281" lon="-110.6286273"><ele>1233.0</ele><time>2026-04-10T01:29:27.032Z</time></trkpt><trkpt lat="32.2915026" lon="-110.6287714"><ele>1233.0</ele><time>2026-04-10T01:29:28.031Z</time></trkpt><trkpt lat="32.2914893" lon="-110.628915"><ele>1232.25</ele><time>2026-04-10T01:29:29.032Z</time></trkpt><trkpt lat="32.2914841" lon="-110.6290544"><ele>1231.5</ele><time>2026-04-10T01:29:30.032Z</time></trkpt><trkpt lat="32.291469" lon="-110.6291983"><ele>1230.75</ele><time>2026-04-10T01:29:31.032Z</time></trkpt><trkpt lat="32.291448" lon="-110.6293443"><ele>1230.0</ele><time>2026-04-10T01:29:32.032Z</time></trkpt><trkpt lat="32.2914009" lon="-110.6294905"><ele>1230.0</ele><time>2026-04-10T01:29:33.032Z</time></trkpt><trkpt lat="32.2913381" lon="-110.6296337"><ele>1230.0</ele><time>2026-04-10T01:29:34.031Z</time></trkpt><trkpt lat="32.2912804" lon="-110.6297697"><ele>1230.0</ele><time>2026-04-10T01:29:35.031Z</time></trkpt><trkpt lat="32.2912345" lon="-110.6298957"><ele>1230.0</ele><time>2026-04-10T01:29:36.032Z</time></trkpt><trkpt lat="32.2911952" lon="-110.6299945"><ele>1230.0</ele><time>2026-04-10T01:29:37.032Z</time></trkpt><trkpt lat="32.2911514" lon="-110.630071"><ele>1230.0</ele><time>2026-04-10T01:29:38.032Z</time></trkpt><trkpt lat="32.291101" lon="-110.6301399"><ele>1230.0</ele><time>2026-04-10T01:29:39.032Z</time></trkpt><trkpt lat="32.2910274" lon="-110.6301923"><ele>1230.0</ele><time>2026-04-10T01:29:40.032Z</time></trkpt><trkpt lat="32.290942" lon="-110.6302416"><ele>1230.0</ele><time>2026-04-10T01:29:41.032Z</time></trkpt><trkpt lat="32.2908297" lon="-110.6302894"><ele>1229.25</ele><time>2026-04-10T01:29:42.032Z</time></trkpt><trkpt lat="32.2907067" lon="-110.6303461"><ele>1228.5</ele><time>2026-04-10T01:29:43.033Z</time></trkpt><trkpt lat="32.2905727" lon="-110.6304076"><ele>1227.75</ele><time>2026-04-10T01:29:44.033Z</time></trkpt><trkpt lat="32.290436" lon="-110.6304714"><ele>1227.0</ele><time>2026-04-10T01:29:45.033Z</time></trkpt><trkpt lat="32.2902967" lon="-110.6305386"><ele>1227.0</ele><time>2026-04-10T01:29:46.033Z</time></trkpt><trkpt lat="32.290152" lon="-110.6306082"><ele>1227.0</ele><time>2026-04-10T01:29:47.033Z</time></trkpt><trkpt lat="32.2900037" lon="-110.6306804"><ele>1227.0</ele><time>2026-04-10T01:29:48.033Z</time></trkpt><trkpt lat="32.2898504" lon="-110.6307565"><ele>1226.0</ele><time>2026-04-10T01:29:49.032Z</time></trkpt><trkpt lat="32.2896924" lon="-110.6308346"><ele>1225.0</ele><time>2026-04-10T01:29:50.032Z</time></trkpt><trkpt lat="32.2895298" lon="-110.630915"><ele>1224.0</ele><time>2026-04-10T01:29:51.033Z</time></trkpt><trkpt lat="32.2893642" lon="-110.6309964"><ele>1224.0</ele><time>2026-04-10T01:29:52.032Z</time></trkpt><trkpt lat="32.2891976" lon="-110.631079"><ele>1224.0</ele><time>2026-04-10T01:29:53.033Z</time></trkpt><trkpt lat="32.2890356" lon="-110.6311615"><ele>1224.0</ele><time>2026-04-10T01:29:54.033Z</time></trkpt><trkpt lat="32.2888817" lon="-110.6312385"><ele>1223.3333333333333</ele><time>2026-04-10T01:29:55.032Z</time></trkpt><trkpt lat="32.2887313" lon="-110.6313103"><ele>1222.6666666666665</ele><time>2026-04-10T01:29:56.033Z</time></trkpt><trkpt lat="32.2885837" lon="-110.6313816"><ele>1222.0</ele><time>2026-04-10T01:29:57.033Z</time></trkpt><trkpt lat="32.2884339" lon="-110.6314554"><ele>1222.0</ele><time>2026-04-10T01:29:58.033Z</time></trkpt><trkpt lat="32.2882829" lon="-110.6315319"><ele>1222.0</ele><time>2026-04-10T01:29:59.033Z</time></trkpt><trkpt lat="32.2881338" lon="-110.6316115"><ele>1222.0</ele><time>2026-04-10T01:30:00.033Z</time></trkpt><trkpt lat="32.2879859" lon="-110.6316962"><ele>1221.3333333333333</ele><time>2026-04-10T01:30:01.033Z</time></trkpt><trkpt lat="32.2878356" lon="-110.6317847"><ele>1220.6666666666667</ele><time>2026-04-10T01:30:02.033Z</time></trkpt><trkpt lat="32.2876829" lon="-110.6318751"><ele>1220.0</ele><time>2026-04-10T01:30:03.033Z</time></trkpt><trkpt lat="32.2875308" lon="-110.631969"><ele>1219.3333333333335</ele><time>2026-04-10T01:30:04.033Z</time></trkpt><trkpt lat="32.2873784" lon="-110.6320667"><ele>1218.6666666666667</ele><time>2026-04-10T01:30:05.033Z</time></trkpt><trkpt lat="32.2872241" lon="-110.632164"><ele>1218.0</ele><time>2026-04-10T01:30:06.033Z</time></trkpt><trkpt lat="32.2870687" lon="-110.632259"><ele>1217.0</ele><time>2026-04-10T01:30:07.033Z</time></trkpt><trkpt lat="32.2869139" lon="-110.6323546"><ele>1216.0</ele><time>2026-04-10T01:30:08.033Z</time></trkpt><trkpt lat="32.2867579" lon="-110.6324515"><ele>1215.0</ele><time>2026-04-10T01:30:09.033Z</time></trkpt><trkpt lat="32.2866011" lon="-110.6325469"><ele>1215.0</ele><time>2026-04-10T01:30:10.033Z</time></trkpt><trkpt lat="32.2864459" lon="-110.6326368"><ele>1215.0</ele><time>2026-04-10T01:30:11.033Z</time></trkpt><trkpt lat="32.2862953" lon="-110.6327273"><ele>1215.0</ele><time>2026-04-10T01:30:12.033Z</time></trkpt><trkpt lat="32.2861455" lon="-110.6328157"><ele>1214.5</ele><time>2026-04-10T01:30:13.033Z</time></trkpt><trkpt lat="32.2860047" lon="-110.6329057"><ele>1214.0</ele><time>2026-04-10T01:30:14.033Z</time></trkpt><trkpt lat="32.2858763" lon="-110.632981"><ele>1213.5</ele><time>2026-04-10T01:30:15.033Z</time></trkpt><trkpt lat="32.2857501" lon="-110.6330414"><ele>1213.0</ele><time>2026-04-10T01:30:16.033Z</time></trkpt><trkpt lat="32.2856246" lon="-110.6330819"><ele>1212.25</ele><time>2026-04-10T01:30:17.033Z</time></trkpt><trkpt lat="32.28549" lon="-110.6330998"><ele>1211.5</ele><time>2026-04-10T01:30:18.033Z</time></trkpt><trkpt lat="32.2853524" lon="-110.6331058"><ele>1210.75</ele><time>2026-04-10T01:30:19.033Z</time></trkpt><trkpt lat="32.2852062" lon="-110.6330866"><ele>1210.0</ele><time>2026-04-10T01:30:20.033Z</time></trkpt><trkpt lat="32.2850428" lon="-110.6330476"><ele>1210.0</ele><time>2026-04-10T01:30:21.033Z</time></trkpt><trkpt lat="32.28487" lon="-110.632999"><ele>1210.0</ele><time>2026-04-10T01:30:22.033Z</time></trkpt><trkpt lat="32.2847053" lon="-110.6329485"><ele>1210.0</ele><time>2026-04-10T01:30:23.033Z</time></trkpt><trkpt lat="32.2845488" lon="-110.6328974"><ele>1209.0</ele><time>2026-04-10T01:30:24.033Z</time></trkpt><trkpt lat="32.2844029" lon="-110.6328493"><ele>1208.0</ele><time>2026-04-10T01:30:25.033Z</time></trkpt><trkpt lat="32.2842548" lon="-110.6328017"><ele>1207.0</ele><time>2026-04-10T01:30:26.033Z</time></trkpt><trkpt lat="32.2841123" lon="-110.6327581"><ele>1206.5</ele><time>2026-04-10T01:30:27.033Z</time></trkpt><trkpt lat="32.2839812" lon="-110.632721"><ele>1206.0</ele><time>2026-04-10T01:30:28.033Z</time></trkpt><trkpt lat="32.2838438" lon="-110.6326971"><ele>1205.5</ele><time>2026-04-10T01:30:29.032Z</time></trkpt><trkpt lat="32.2837079" lon="-110.6327082"><ele>1205.0</ele><time>2026-04-10T01:30:30.033Z</time></trkpt><trkpt lat="32.2835704" lon="-110.6327254"><ele>1204.75</ele><time>2026-04-10T01:30:31.033Z</time></trkpt><trkpt lat="32.2834263" lon="-110.632749"><ele>1204.5</ele><time>2026-04-10T01:30:32.033Z</time></trkpt><trkpt lat="32.283282" lon="-110.6327746"><ele>1204.25</ele><time>2026-04-10T01:30:33.032Z</time></trkpt><trkpt lat="32.2831318" lon="-110.6328053"><ele>1204.0</ele><time>2026-04-10T01:30:34.033Z</time></trkpt><trkpt lat="32.2829842" lon="-110.6328394"><ele>1204.0</ele><time>2026-04-10T01:30:35.033Z</time></trkpt><trkpt lat="32.2828348" lon="-110.6328651"><ele>1204.0</ele><time>2026-04-10T01:30:36.033Z</time></trkpt><trkpt lat="32.2826873" lon="-110.6328949"><ele>1204.0</ele><time>2026-04-10T01:30:37.033Z</time></trkpt><trkpt lat="32.2825494" lon="-110.6329275"><ele>1204.0</ele><time>2026-04-10T01:30:38.033Z</time></trkpt><trkpt lat="32.2824178" lon="-110.6329673"><ele>1204.0</ele><time>2026-04-10T01:30:39.033Z</time></trkpt><trkpt lat="32.2822808" lon="-110.6330258"><ele>1204.0</ele><time>2026-04-10T01:30:40.033Z</time></trkpt><trkpt lat="32.282142" lon="-110.6330985"><ele>1204.0</ele><time>2026-04-10T01:30:41.033Z</time></trkpt><trkpt lat="32.2820046" lon="-110.6331826"><ele>1203.0</ele><time>2026-04-10T01:30:42.033Z</time></trkpt><trkpt lat="32.2818753" lon="-110.6332728"><ele>1202.0</ele><time>2026-04-10T01:30:43.033Z</time></trkpt><trkpt lat="32.2817351" lon="-110.6333592"><ele>1201.0</ele><time>2026-04-10T01:30:44.033Z</time></trkpt><trkpt lat="32.281602" lon="-110.6334406"><ele>1201.0</ele><time>2026-04-10T01:30:45.033Z</time></trkpt><trkpt lat="32.2814655" lon="-110.633531"><ele>1201.0</ele><time>2026-04-10T01:30:46.033Z</time></trkpt><trkpt lat="32.2813284" lon="-110.6336123"><ele>1201.0</ele><time>2026-04-10T01:30:47.033Z</time></trkpt><trkpt lat="32.2811998" lon="-110.6336935"><ele>1201.0</ele><time>2026-04-10T01:30:48.033Z</time></trkpt><trkpt lat="32.2810784" lon="-110.6337712"><ele>1201.0</ele><time>2026-04-10T01:30:49.033Z</time></trkpt><trkpt lat="32.2809641" lon="-110.6338385"><ele>1201.0</ele><time>2026-04-10T01:30:50.033Z</time></trkpt><trkpt lat="32.2808551" lon="-110.6338841"><ele>1201.0</ele><time>2026-04-10T01:30:51.033Z</time></trkpt><trkpt lat="32.2807499" lon="-110.6339112"><ele>1201.0</ele><time>2026-04-10T01:30:52.033Z</time></trkpt><trkpt lat="32.2806353" lon="-110.6339128"><ele>1201.0</ele><time>2026-04-10T01:30:53.033Z</time></trkpt><trkpt lat="32.2805185" lon="-110.6338979"><ele>1201.0</ele><time>2026-04-10T01:30:54.033Z</time></trkpt><trkpt lat="32.2803834" lon="-110.6338609"><ele>1201.0</ele><time>2026-04-10T01:30:55.032Z</time></trkpt><trkpt lat="32.2802482" lon="-110.633821"><ele>1202.0</ele><time>2026-04-10T01:30:56.033Z</time></trkpt><trkpt lat="32.280112" lon="-110.6337796"><ele>1203.0</ele><time>2026-04-10T01:30:57.033Z</time></trkpt><trkpt lat="32.2799749" lon="-110.633736"><ele>1204.0</ele><time>2026-04-10T01:30:58.033Z</time></trkpt><trkpt lat="32.279836" lon="-110.6336914"><ele>1205.0</ele><time>2026-04-10T01:30:59.033Z</time></trkpt><trkpt lat="32.2796943" lon="-110.6336478"><ele>1205.6666666666667</ele><time>2026-04-10T01:31:00.033Z</time></trkpt><trkpt lat="32.2795508" lon="-110.6336039"><ele>1206.3333333333333</ele><time>2026-04-10T01:31:01.033Z</time></trkpt><trkpt lat="32.2794036" lon="-110.6335566"><ele>1207.0</ele><time>2026-04-10T01:31:02.032Z</time></trkpt><trkpt lat="32.2792548" lon="-110.6335112"><ele>1207.0</ele><time>2026-04-10T01:31:03.032Z</time></trkpt><trkpt lat="32.2791113" lon="-110.6334742"><ele>1207.0</ele><time>2026-04-10T01:31:04.033Z</time></trkpt><trkpt lat="32.2789771" lon="-110.633448"><ele>1207.0</ele><time>2026-04-10T01:31:05.033Z</time></trkpt><trkpt lat="32.2788452" lon="-110.6334287"><ele>1207.0</ele><time>2026-04-10T01:31:06.033Z</time></trkpt><trkpt lat="32.2787082" lon="-110.6334212"><ele>1207.0</ele><time>2026-04-10T01:31:07.032Z</time></trkpt><trkpt lat="32.2785768" lon="-110.6334261"><ele>1207.0</ele><time>2026-04-10T01:31:08.033Z</time></trkpt><trkpt lat="32.2784428" lon="-110.6334386"><ele>1207.0</ele><time>2026-04-10T01:31:09.032Z</time></trkpt><trkpt lat="32.2783073" lon="-110.6334486"><ele>1207.0</ele><time>2026-04-10T01:31:10.033Z</time></trkpt><trkpt lat="32.2781701" lon="-110.6334569"><ele>1206.0</ele><time>2026-04-10T01:31:11.033Z</time></trkpt><trkpt lat="32.2780396" lon="-110.6334667"><ele>1205.0</ele><time>2026-04-10T01:31:12.033Z</time></trkpt><trkpt lat="32.2779133" lon="-110.633488"><ele>1204.0</ele><time>2026-04-10T01:31:13.033Z</time></trkpt><trkpt lat="32.2777881" lon="-110.6335231"><ele>1203.0</ele><time>2026-04-10T01:31:14.033Z</time></trkpt><trkpt lat="32.2776606" lon="-110.633566"><ele>1203.0</ele><time>2026-04-10T01:31:15.033Z</time></trkpt><trkpt lat="32.2775336" lon="-110.6336079"><ele>1203.0</ele><time>2026-04-10T01:31:16.033Z</time></trkpt><trkpt lat="32.2774068" lon="-110.6336517"><ele>1203.0</ele><time>2026-04-10T01:31:17.033Z</time></trkpt><trkpt lat="32.2772897" lon="-110.6337027"><ele>1203.0</ele><time>2026-04-10T01:31:18.033Z</time></trkpt><trkpt lat="32.2771793" lon="-110.6337584"><ele>1203.0</ele><time>2026-04-10T01:31:19.033Z</time></trkpt><trkpt lat="32.2770851" lon="-110.6338316"><ele>1203.0</ele><time>2026-04-10T01:31:20.033Z</time></trkpt><trkpt lat="32.2769887" lon="-110.6339192"><ele>1203.0</ele><time>2026-04-10T01:31:21.033Z</time></trkpt><trkpt lat="32.2768954" lon="-110.6340278"><ele>1203.0</ele><time>2026-04-10T01:31:22.033Z</time></trkpt><trkpt lat="32.2768125" lon="-110.6341588"><ele>1203.0</ele><time>2026-04-10T01:31:23.033Z</time></trkpt><trkpt lat="32.2767388" lon="-110.6343021"><ele>1203.0</ele><time>2026-04-10T01:31:24.033Z</time></trkpt><trkpt lat="32.2766652" lon="-110.6344532"><ele>1203.0</ele><time>2026-04-10T01:31:25.033Z</time></trkpt><trkpt lat="32.2765941" lon="-110.6346024"><ele>1203.0</ele><time>2026-04-10T01:31:26.033Z</time></trkpt><trkpt lat="32.2765281" lon="-110.6347608"><ele>1202.3333333333333</ele><time>2026-04-10T01:31:27.032Z</time></trkpt><trkpt lat="32.2764721" lon="-110.6349252"><ele>1201.6666666666665</ele><time>2026-04-10T01:31:28.033Z</time></trkpt><trkpt lat="32.2764265" lon="-110.6350937"><ele>1201.0</ele><time>2026-04-10T01:31:29.033Z</time></trkpt><trkpt lat="32.2763898" lon="-110.6352666"><ele>1204.0</ele><time>2026-04-10T01:31:30.033Z</time></trkpt><trkpt lat="32.276356" lon="-110.635441"><ele>1207.0</ele><time>2026-04-10T01:31:31.033Z</time></trkpt><trkpt lat="32.276324" lon="-110.6356211"><ele>1210.0</ele><time>2026-04-10T01:31:32.033Z</time></trkpt><trkpt lat="32.2762926" lon="-110.6358055"><ele>1210.0</ele><time>2026-04-10T01:31:33.033Z</time></trkpt><trkpt lat="32.2762604" lon="-110.6359908"><ele>1210.0</ele><time>2026-04-10T01:31:34.033Z</time></trkpt><trkpt lat="32.2762292" lon="-110.6361666"><ele>1210.0</ele><time>2026-04-10T01:31:35.033Z</time></trkpt><trkpt lat="32.2761983" lon="-110.6363337"><ele>1208.25</ele><time>2026-04-10T01:31:36.032Z</time></trkpt><trkpt lat="32.2761687" lon="-110.6364964"><ele>1206.5</ele><time>2026-04-10T01:31:37.033Z</time></trkpt><trkpt lat="32.2761483" lon="-110.6366482"><ele>1204.75</ele><time>2026-04-10T01:31:38.033Z</time></trkpt><trkpt lat="32.2761352" lon="-110.6367927"><ele>1203.0</ele><time>2026-04-10T01:31:39.033Z</time></trkpt><trkpt lat="32.2761241" lon="-110.6369207"><ele>1202.6</ele><time>2026-04-10T01:31:40.032Z</time></trkpt><trkpt lat="32.2761117" lon="-110.6370357"><ele>1202.1999999999998</ele><time>2026-04-10T01:31:41.033Z</time></trkpt><trkpt lat="32.276091" lon="-110.6371434"><ele>1201.8</ele><time>2026-04-10T01:31:42.033Z</time></trkpt><trkpt lat="32.276059" lon="-110.6372442"><ele>1201.3999999999999</ele><time>2026-04-10T01:31:43.033Z</time></trkpt><trkpt lat="32.2760128" lon="-110.6373336"><ele>1201.0</ele><time>2026-04-10T01:31:44.033Z</time></trkpt><trkpt lat="32.2759571" lon="-110.637407"><ele>1201.0</ele><time>2026-04-10T01:31:45.033Z</time></trkpt><trkpt lat="32.2758914" lon="-110.6374654"><ele>1201.0</ele><time>2026-04-10T01:31:46.032Z</time></trkpt><trkpt lat="32.2758163" lon="-110.6375129"><ele>1201.0</ele><time>2026-04-10T01:31:47.033Z</time></trkpt><trkpt lat="32.2757315" lon="-110.6375496"><ele>1201.0</ele><time>2026-04-10T01:31:48.034Z</time></trkpt><trkpt lat="32.275641" lon="-110.637574"><ele>1201.0</ele><time>2026-04-10T01:31:49.033Z</time></trkpt><trkpt lat="32.2755471" lon="-110.6375842"><ele>1201.0</ele><time>2026-04-10T01:31:50.034Z</time></trkpt><trkpt lat="32.275445" lon="-110.6375802"><ele>1201.6</ele><time>2026-04-10T01:31:51.033Z</time></trkpt><trkpt lat="32.2753352" lon="-110.6375628"><ele>1202.1999999999998</ele><time>2026-04-10T01:31:52.034Z</time></trkpt><trkpt lat="32.2752298" lon="-110.6375332"><ele>1202.8000000000002</ele><time>2026-04-10T01:31:53.034Z</time></trkpt><trkpt lat="32.2751291" lon="-110.6375055"><ele>1203.4</ele><time>2026-04-10T01:31:54.034Z</time></trkpt><trkpt lat="32.2750269" lon="-110.6374904"><ele>1204.0</ele><time>2026-04-10T01:31:55.034Z</time></trkpt><trkpt lat="32.2749235" lon="-110.6374961"><ele>1204.0</ele><time>2026-04-10T01:31:56.034Z</time></trkpt><trkpt lat="32.2748163" lon="-110.6375238"><ele>1204.0</ele><time>2026-04-10T01:31:57.034Z</time></trkpt><trkpt lat="32.2747029" lon="-110.6375697"><ele>1204.0</ele><time>2026-04-10T01:31:58.034Z</time></trkpt><trkpt lat="32.2745816" lon="-110.6376318"><ele>1204.0</ele><time>2026-04-10T01:31:59.034Z</time></trkpt><trkpt lat="32.2744567" lon="-110.6377071"><ele>1204.0</ele><time>2026-04-10T01:32:00.034Z</time></trkpt><trkpt lat="32.2743256" lon="-110.6377897"><ele>1204.0</ele><time>2026-04-10T01:32:01.034Z</time></trkpt><trkpt lat="32.2741863" lon="-110.6378774"><ele>1204.0</ele><time>2026-04-10T01:32:02.034Z</time></trkpt><trkpt lat="32.2740409" lon="-110.6379619"><ele>1204.0</ele><time>2026-04-10T01:32:03.034Z</time></trkpt><trkpt lat="32.2738957" lon="-110.6380435"><ele>1204.0</ele><time>2026-04-10T01:32:04.034Z</time></trkpt><trkpt lat="32.2737516" lon="-110.6381251"><ele>1204.0</ele><time>2026-04-10T01:32:05.034Z</time></trkpt><trkpt lat="32.2736102" lon="-110.6382018"><ele>1204.0</ele><time>2026-04-10T01:32:06.033Z</time></trkpt><trkpt lat="32.2734784" lon="-110.6382718"><ele>1204.0</ele><time>2026-04-10T01:32:07.034Z</time></trkpt><trkpt lat="32.2733557" lon="-110.6383366"><ele>1204.0</ele><time>2026-04-10T01:32:08.034Z</time></trkpt><trkpt lat="32.2732387" lon="-110.6383903"><ele>1204.0</ele><time>2026-04-10T01:32:09.034Z</time></trkpt><trkpt lat="32.2731236" lon="-110.6384256"><ele>1207.0</ele><time>2026-04-10T01:32:10.034Z</time></trkpt><trkpt lat="32.2730061" lon="-110.6384433"><ele>1210.0</ele><time>2026-04-10T01:32:11.034Z</time></trkpt><trkpt lat="32.2728902" lon="-110.6384424"><ele>1213.0</ele><time>2026-04-10T01:32:12.033Z</time></trkpt><trkpt lat="32.2727767" lon="-110.6384213"><ele>1216.0</ele><time>2026-04-10T01:32:13.034Z</time></trkpt><trkpt lat="32.2726664" lon="-110.6383809"><ele>1216.0</ele><time>2026-04-10T01:32:14.034Z</time></trkpt><trkpt lat="32.2725552" lon="-110.6383275"><ele>1216.0</ele><time>2026-04-10T01:32:15.034Z</time></trkpt><trkpt lat="32.2724623" lon="-110.6382522"><ele>1216.0</ele><time>2026-04-10T01:32:16.034Z</time></trkpt><trkpt lat="32.2723752" lon="-110.6381737"><ele>1216.0</ele><time>2026-04-10T01:32:17.034Z</time></trkpt><trkpt lat="32.2722874" lon="-110.6381161"><ele>1216.0</ele><time>2026-04-10T01:32:18.034Z</time></trkpt><trkpt lat="32.2721899" lon="-110.6380792"><ele>1220.75</ele><time>2026-04-10T01:32:19.034Z</time></trkpt><trkpt lat="32.2720863" lon="-110.6380605"><ele>1225.5</ele><time>2026-04-10T01:32:20.034Z</time></trkpt><trkpt lat="32.2719762" lon="-110.6380489"><ele>1230.25</ele><time>2026-04-10T01:32:21.034Z</time></trkpt><trkpt lat="32.2718571" lon="-110.6380366"><ele>1235.0</ele><time>2026-04-10T01:32:22.034Z</time></trkpt><trkpt lat="32.2717396" lon="-110.6380249"><ele>1235.0</ele><time>2026-04-10T01:32:23.034Z</time></trkpt><trkpt lat="32.2716274" lon="-110.6380203"><ele>1235.0</ele><time>2026-04-10T01:32:24.034Z</time></trkpt><trkpt lat="32.271515" lon="-110.6380204"><ele>1235.0</ele><time>2026-04-10T01:32:25.034Z</time></trkpt><trkpt lat="32.2714098" lon="-110.638026"><ele>1235.0</ele><time>2026-04-10T01:32:26.034Z</time></trkpt><trkpt lat="32.2713225" lon="-110.6380401"><ele>1235.0</ele><time>2026-04-10T01:32:27.034Z</time></trkpt><trkpt lat="32.2712477" lon="-110.6380691"><ele>1232.4</ele><time>2026-04-10T01:32:28.034Z</time></trkpt><trkpt lat="32.2711817" lon="-110.6381172"><ele>1229.8</ele><time>2026-04-10T01:32:29.034Z</time></trkpt><trkpt lat="32.2711217" lon="-110.6381866"><ele>1227.2</ele><time>2026-04-10T01:32:30.034Z</time></trkpt><trkpt lat="32.2710597" lon="-110.6382703"><ele>1224.6</ele><time>2026-04-10T01:32:31.034Z</time></trkpt><trkpt lat="32.2709965" lon="-110.6383731"><ele>1222.0</ele><time>2026-04-10T01:32:32.034Z</time></trkpt><trkpt lat="32.2709172" lon="-110.6384746"><ele>1222.0</ele><time>2026-04-10T01:32:33.034Z</time></trkpt><trkpt lat="32.2708174" lon="-110.6385742"><ele>1222.0</ele><time>2026-04-10T01:32:34.034Z</time></trkpt><trkpt lat="32.2707087" lon="-110.6386763"><ele>1222.0</ele><time>2026-04-10T01:32:35.034Z</time></trkpt><trkpt lat="32.2705987" lon="-110.6387802"><ele>1222.0</ele><time>2026-04-10T01:32:36.034Z</time></trkpt><trkpt lat="32.2704902" lon="-110.6388839"><ele>1222.0</ele><time>2026-04-10T01:32:37.034Z</time></trkpt><trkpt lat="32.2703892" lon="-110.6389871"><ele>1222.0</ele><time>2026-04-10T01:32:38.034Z</time></trkpt><trkpt lat="32.2702891" lon="-110.6390934"><ele>1222.0</ele><time>2026-04-10T01:32:39.034Z</time></trkpt><trkpt lat="32.2701979" lon="-110.6391936"><ele>1222.0</ele><time>2026-04-10T01:32:40.034Z</time></trkpt><trkpt lat="32.2701158" lon="-110.6392866"><ele>1222.0</ele><time>2026-04-10T01:32:41.034Z</time></trkpt><trkpt lat="32.2700462" lon="-110.6393749"><ele>1222.0</ele><time>2026-04-10T01:32:42.034Z</time></trkpt><trkpt lat="32.269993" lon="-110.6394725"><ele>1222.0</ele><time>2026-04-10T01:32:43.033Z</time></trkpt><trkpt lat="32.269958" lon="-110.6395794"><ele>1222.0</ele><time>2026-04-10T01:32:44.034Z</time></trkpt><trkpt lat="32.2699389" lon="-110.6396993"><ele>1222.0</ele><time>2026-04-10T01:32:45.034Z</time></trkpt><trkpt lat="32.2699281" lon="-110.6398319"><ele>1222.0</ele><time>2026-04-10T01:32:46.034Z</time></trkpt><trkpt lat="32.2699228" lon="-110.6399713"><ele>1222.0</ele><time>2026-04-10T01:32:47.034Z</time></trkpt><trkpt lat="32.2699204" lon="-110.640107"><ele>1222.0</ele><time>2026-04-10T01:32:48.034Z</time></trkpt><trkpt lat="32.2699165" lon="-110.6402372"><ele>1222.0</ele><time>2026-04-10T01:32:49.034Z</time></trkpt><trkpt lat="32.2699082" lon="-110.6403641"><ele>1222.0</ele><time>2026-04-10T01:32:50.034Z</time></trkpt><trkpt lat="32.2698766" lon="-110.6404866"><ele>1222.0</ele><time>2026-04-10T01:32:51.034Z</time></trkpt><trkpt lat="32.2698231" lon="-110.6406137"><ele>1222.0</ele><time>2026-04-10T01:32:52.034Z</time></trkpt><trkpt lat="32.2697537" lon="-110.6407557"><ele>1222.0</ele><time>2026-04-10T01:32:53.034Z</time></trkpt><trkpt lat="32.2696819" lon="-110.6409153"><ele>1222.0</ele><time>2026-04-10T01:32:54.034Z</time></trkpt><trkpt lat="32.2696191" lon="-110.6410812"><ele>1222.0</ele><time>2026-04-10T01:32:55.034Z</time></trkpt><trkpt lat="32.2695656" lon="-110.6412445"><ele>1222.0</ele><time>2026-04-10T01:32:56.034Z</time></trkpt><trkpt lat="32.2695128" lon="-110.6414065"><ele>1222.0</ele><time>2026-04-10T01:32:57.034Z</time></trkpt><trkpt lat="32.2694596" lon="-110.6415622"><ele>1222.0</ele><time>2026-04-10T01:32:58.034Z</time></trkpt><trkpt lat="32.2694049" lon="-110.6417101"><ele>1222.0</ele><time>2026-04-10T01:32:59.034Z</time></trkpt><trkpt lat="32.2693455" lon="-110.6418527"><ele>1222.0</ele><time>2026-04-10T01:33:00.034Z</time></trkpt><trkpt lat="32.2692793" lon="-110.6419932"><ele>1222.0</ele><time>2026-04-10T01:33:01.034Z</time></trkpt><trkpt lat="32.2692127" lon="-110.6421305"><ele>1219.5</ele><time>2026-04-10T01:33:02.033Z</time></trkpt><trkpt lat="32.2691567" lon="-110.642266"><ele>1217.0</ele><time>2026-04-10T01:33:03.033Z</time></trkpt><trkpt lat="32.2691175" lon="-110.6423972"><ele>1214.5</ele><time>2026-04-10T01:33:04.034Z</time></trkpt><trkpt lat="32.2690983" lon="-110.6425344"><ele>1212.0</ele><time>2026-04-10T01:33:05.034Z</time></trkpt><trkpt lat="32.2691044" lon="-110.642675"><ele>1211.5</ele><time>2026-04-10T01:33:06.034Z</time></trkpt><trkpt lat="32.2691197" lon="-110.6428193"><ele>1211.0</ele><time>2026-04-10T01:33:07.034Z</time></trkpt><trkpt lat="32.2691678" lon="-110.642961"><ele>1210.5</ele><time>2026-04-10T01:33:08.033Z</time></trkpt><trkpt lat="32.2692244" lon="-110.6430922"><ele>1210.0</ele><time>2026-04-10T01:33:09.034Z</time></trkpt><trkpt lat="32.2692778" lon="-110.6432098"><ele>1210.0</ele><time>2026-04-10T01:33:10.034Z</time></trkpt><trkpt lat="32.2693232" lon="-110.6433201"><ele>1210.0</ele><time>2026-04-10T01:33:11.034Z</time></trkpt><trkpt lat="32.2693581" lon="-110.6434281"><ele>1210.0</ele><time>2026-04-10T01:33:12.033Z</time></trkpt><trkpt lat="32.2693874" lon="-110.6435347"><ele>1210.0</ele><time>2026-04-10T01:33:13.034Z</time></trkpt><trkpt lat="32.2693855" lon="-110.6436446"><ele>1210.0</ele><time>2026-04-10T01:33:14.034Z</time></trkpt><trkpt lat="32.2693646" lon="-110.6437535"><ele>1209.8</ele><time>2026-04-10T01:33:15.034Z</time></trkpt><trkpt lat="32.2693238" lon="-110.6438548"><ele>1209.6</ele><time>2026-04-10T01:33:16.034Z</time></trkpt><trkpt lat="32.2692638" lon="-110.6439425"><ele>1209.4</ele><time>2026-04-10T01:33:17.034Z</time></trkpt><trkpt lat="32.2691807" lon="-110.6440214"><ele>1209.2</ele><time>2026-04-10T01:33:18.034Z</time></trkpt><trkpt lat="32.2690737" lon="-110.6440959"><ele>1209.0</ele><time>2026-04-10T01:33:19.034Z</time></trkpt><trkpt lat="32.2689517" lon="-110.6441688"><ele>1207.3333333333333</ele><time>2026-04-10T01:33:20.034Z</time></trkpt><trkpt lat="32.268817" lon="-110.6442411"><ele>1205.6666666666665</ele><time>2026-04-10T01:33:21.034Z</time></trkpt><trkpt lat="32.2686757" lon="-110.6443107"><ele>1204.0</ele><time>2026-04-10T01:33:22.034Z</time></trkpt><trkpt lat="32.2685356" lon="-110.6443724"><ele>1204.0</ele><time>2026-04-10T01:33:23.034Z</time></trkpt><trkpt lat="32.2683985" lon="-110.6444246"><ele>1204.0</ele><time>2026-04-10T01:33:24.034Z</time></trkpt><trkpt lat="32.2682642" lon="-110.6444728"><ele>1204.0</ele><time>2026-04-10T01:33:25.033Z</time></trkpt><trkpt lat="32.2681382" lon="-110.6445214"><ele>1204.0</ele><time>2026-04-10T01:33:26.034Z</time></trkpt><trkpt lat="32.2680222" lon="-110.6445759"><ele>1203.25</ele><time>2026-04-10T01:33:27.034Z</time></trkpt><trkpt lat="32.267918" lon="-110.6446365"><ele>1202.5</ele><time>2026-04-10T01:33:28.034Z</time></trkpt><trkpt lat="32.2678178" lon="-110.6446993"><ele>1201.75</ele><time>2026-04-10T01:33:29.034Z</time></trkpt><trkpt lat="32.2677409" lon="-110.6447884"><ele>1201.0</ele><time>2026-04-10T01:33:30.034Z</time></trkpt><trkpt lat="32.2676733" lon="-110.6448983"><ele>1201.0</ele><time>2026-04-10T01:33:31.034Z</time></trkpt><trkpt lat="32.2676085" lon="-110.6450225"><ele>1201.0</ele><time>2026-04-10T01:33:32.034Z</time></trkpt><trkpt lat="32.2675419" lon="-110.6451558"><ele>1201.0</ele><time>2026-04-10T01:33:33.034Z</time></trkpt><trkpt lat="32.2674754" lon="-110.6452957"><ele>1201.0</ele><time>2026-04-10T01:33:34.034Z</time></trkpt><trkpt lat="32.2674107" lon="-110.6454421"><ele>1201.0</ele><time>2026-04-10T01:33:35.033Z</time></trkpt><trkpt lat="32.2673431" lon="-110.6455937"><ele>1201.0</ele><time>2026-04-10T01:33:36.034Z</time></trkpt><trkpt lat="32.2672757" lon="-110.6457414"><ele>1201.0</ele><time>2026-04-10T01:33:37.034Z</time></trkpt><trkpt lat="32.267211" lon="-110.6458839"><ele>1201.0</ele><time>2026-04-10T01:33:38.034Z</time></trkpt><trkpt lat="32.2671466" lon="-110.6460224"><ele>1199.25</ele><time>2026-04-10T01:33:39.033Z</time></trkpt><trkpt lat="32.267075" lon="-110.6461617"><ele>1197.5</ele><time>2026-04-10T01:33:40.034Z</time></trkpt><trkpt lat="32.2669958" lon="-110.646303"><ele>1195.75</ele><time>2026-04-10T01:33:41.034Z</time></trkpt><trkpt lat="32.2669164" lon="-110.6464388"><ele>1194.0</ele><time>2026-04-10T01:33:42.034Z</time></trkpt><trkpt lat="32.2668421" lon="-110.646568"><ele>1194.0</ele><time>2026-04-10T01:33:43.034Z</time></trkpt><trkpt lat="32.2667745" lon="-110.6466875"><ele>1194.0</ele><time>2026-04-10T01:33:44.034Z</time></trkpt><trkpt lat="32.2667168" lon="-110.6467853"><ele>1194.0</ele><time>2026-04-10T01:33:45.034Z</time></trkpt><trkpt lat="32.2666576" lon="-110.6468669"><ele>1194.0</ele><time>2026-04-10T01:33:46.034Z</time></trkpt><trkpt lat="32.266589" lon="-110.6469331"><ele>1194.0</ele><time>2026-04-10T01:33:47.034Z</time></trkpt><trkpt lat="32.2665063" lon="-110.6469854"><ele>1191.6000000000001</ele><time>2026-04-10T01:33:48.034Z</time></trkpt><trkpt lat="32.2664126" lon="-110.6470176"><ele>1189.2</ele><time>2026-04-10T01:33:49.034Z</time></trkpt><trkpt lat="32.2663136" lon="-110.6470408"><ele>1186.8000000000002</ele><time>2026-04-10T01:33:50.034Z</time></trkpt><trkpt lat="32.2662012" lon="-110.6470387"><ele>1184.4</ele><time>2026-04-10T01:33:51.034Z</time></trkpt><trkpt lat="32.2660832" lon="-110.647032"><ele>1182.0</ele><time>2026-04-10T01:33:52.034Z</time></trkpt><trkpt lat="32.265961" lon="-110.647034"><ele>1182.0</ele><time>2026-04-10T01:33:53.034Z</time></trkpt><trkpt lat="32.2658437" lon="-110.6470485"><ele>1182.0</ele><time>2026-04-10T01:33:54.034Z</time></trkpt><trkpt lat="32.2657349" lon="-110.6470678"><ele>1182.0</ele><time>2026-04-10T01:33:55.035Z</time></trkpt><trkpt lat="32.2656393" lon="-110.6471132"><ele>1182.0</ele><time>2026-04-10T01:33:56.035Z</time></trkpt><trkpt lat="32.2655477" lon="-110.6471587"><ele>1182.0</ele><time>2026-04-10T01:33:57.034Z</time></trkpt><trkpt lat="32.2654628" lon="-110.647188"><ele>1182.5</ele><time>2026-04-10T01:33:58.035Z</time></trkpt><trkpt lat="32.2653816" lon="-110.6471973"><ele>1183.0</ele><time>2026-04-10T01:33:59.035Z</time></trkpt><trkpt lat="32.2652986" lon="-110.6471854"><ele>1183.5</ele><time>2026-04-10T01:34:00.035Z</time></trkpt><trkpt lat="32.265218" lon="-110.647149"><ele>1184.0</ele><time>2026-04-10T01:34:01.035Z</time></trkpt><trkpt lat="32.2651401" lon="-110.6470937"><ele>1184.5</ele><time>2026-04-10T01:34:02.035Z</time></trkpt><trkpt lat="32.2650627" lon="-110.6470252"><ele>1185.0</ele><time>2026-04-10T01:34:03.035Z</time></trkpt><trkpt lat="32.2649857" lon="-110.6469657"><ele>1185.6666666666667</ele><time>2026-04-10T01:34:04.035Z</time></trkpt><trkpt lat="32.2649071" lon="-110.6469269"><ele>1186.3333333333333</ele><time>2026-04-10T01:34:05.035Z</time></trkpt><trkpt lat="32.2648244" lon="-110.6469132"><ele>1187.0</ele><time>2026-04-10T01:34:06.035Z</time></trkpt><trkpt lat="32.2647426" lon="-110.646911"><ele>1187.6666666666665</ele><time>2026-04-10T01:34:07.035Z</time></trkpt><trkpt lat="32.2646749" lon="-110.6469393"><ele>1188.3333333333333</ele><time>2026-04-10T01:34:08.035Z</time></trkpt><trkpt lat="32.2646141" lon="-110.6469639"><ele>1189.0</ele><time>2026-04-10T01:34:09.035Z</time></trkpt><trkpt lat="32.2645009" lon="-110.6469544"><ele>1189.0</ele><time>2026-04-10T01:34:11.034Z</time></trkpt><trkpt lat="32.2644133" lon="-110.6468406"><ele>1189.0</ele><time>2026-04-10T01:34:13.035Z</time></trkpt><trkpt lat="32.2643835" lon="-110.6467494"><ele>1189.0</ele><time>2026-04-10T01:34:14.035Z</time></trkpt><trkpt lat="32.2643618" lon="-110.6466417"><ele>1189.0</ele><time>2026-04-10T01:34:15.035Z</time></trkpt><trkpt lat="32.2643427" lon="-110.6465273"><ele>1189.0</ele><time>2026-04-10T01:34:16.034Z</time></trkpt><trkpt lat="32.2643185" lon="-110.6464132"><ele>1189.0</ele><time>2026-04-10T01:34:17.035Z</time></trkpt><trkpt lat="32.2642842" lon="-110.6463045"><ele>1189.0</ele><time>2026-04-10T01:34:18.035Z</time></trkpt><trkpt lat="32.2642367" lon="-110.6462052"><ele>1189.0</ele><time>2026-04-10T01:34:19.035Z</time></trkpt><trkpt lat="32.264177" lon="-110.6461188"><ele>1189.0</ele><time>2026-04-10T01:34:20.035Z</time></trkpt><trkpt lat="32.2641038" lon="-110.6460527"><ele>1189.0</ele><time>2026-04-10T01:34:21.035Z</time></trkpt><trkpt lat="32.2640201" lon="-110.6460154"><ele>1188.0</ele><time>2026-04-10T01:34:22.035Z</time></trkpt><trkpt lat="32.2639317" lon="-110.6460045"><ele>1187.0</ele><time>2026-04-10T01:34:23.035Z</time></trkpt><trkpt lat="32.263842" lon="-110.6460116"><ele>1186.0</ele><time>2026-04-10T01:34:24.035Z</time></trkpt><trkpt lat="32.2637596" lon="-110.646038"><ele>1185.0</ele><time>2026-04-10T01:34:25.035Z</time></trkpt><trkpt lat="32.2636918" lon="-110.6460818"><ele>1184.0</ele><time>2026-04-10T01:34:26.034Z</time></trkpt><trkpt lat="32.2636332" lon="-110.6461318"><ele>1183.0</ele><time>2026-04-10T01:34:27.034Z</time></trkpt><trkpt lat="32.2636059" lon="-110.6462168"><ele>1182.5</ele><time>2026-04-10T01:34:28.035Z</time></trkpt><trkpt lat="32.2635973" lon="-110.6463288"><ele>1182.0</ele><time>2026-04-10T01:34:29.034Z</time></trkpt><trkpt lat="32.2636047" lon="-110.6464546"><ele>1181.5</ele><time>2026-04-10T01:34:30.035Z</time></trkpt><trkpt lat="32.2636173" lon="-110.6465947"><ele>1181.0</ele><time>2026-04-10T01:34:31.035Z</time></trkpt><trkpt lat="32.2636276" lon="-110.6467529"><ele>1181.0</ele><time>2026-04-10T01:34:32.034Z</time></trkpt><trkpt lat="32.2636344" lon="-110.6469256"><ele>1181.0</ele><time>2026-04-10T01:34:33.035Z</time></trkpt><trkpt lat="32.2636393" lon="-110.6471034"><ele>1181.0</ele><time>2026-04-10T01:34:34.034Z</time></trkpt><trkpt lat="32.2636431" lon="-110.6472698"><ele>1181.0</ele><time>2026-04-10T01:34:35.035Z</time></trkpt><trkpt lat="32.2636467" lon="-110.647428"><ele>1179.0</ele><time>2026-04-10T01:34:36.035Z</time></trkpt><trkpt lat="32.2636428" lon="-110.6475795"><ele>1177.0</ele><time>2026-04-10T01:34:37.035Z</time></trkpt><trkpt lat="32.2636269" lon="-110.6477253"><ele>1175.0</ele><time>2026-04-10T01:34:38.035Z</time></trkpt><trkpt lat="32.2636034" lon="-110.6478689"><ele>1173.0</ele><time>2026-04-10T01:34:39.035Z</time></trkpt><trkpt lat="32.2635439" lon="-110.6479957"><ele>1172.0</ele><time>2026-04-10T01:34:40.035Z</time></trkpt><trkpt lat="32.2634703" lon="-110.6481105"><ele>1171.0</ele><time>2026-04-10T01:34:41.035Z</time></trkpt><trkpt lat="32.2633802" lon="-110.6482213"><ele>1170.0</ele><time>2026-04-10T01:34:42.035Z</time></trkpt><trkpt lat="32.2632873" lon="-110.6483344"><ele>1169.0</ele><time>2026-04-10T01:34:43.035Z</time></trkpt><trkpt lat="32.2632013" lon="-110.6484588"><ele>1169.0</ele><time>2026-04-10T01:34:44.035Z</time></trkpt><trkpt lat="32.2631251" lon="-110.6485877"><ele>1169.0</ele><time>2026-04-10T01:34:45.035Z</time></trkpt><trkpt lat="32.263052" lon="-110.6487093"><ele>1169.0</ele><time>2026-04-10T01:34:46.035Z</time></trkpt><trkpt lat="32.2629816" lon="-110.6488168"><ele>1169.0</ele><time>2026-04-10T01:34:47.035Z</time></trkpt><trkpt lat="32.2629084" lon="-110.6489111"><ele>1167.8</ele><time>2026-04-10T01:34:48.035Z</time></trkpt><trkpt lat="32.262828" lon="-110.6489891"><ele>1166.6000000000001</ele><time>2026-04-10T01:34:49.035Z</time></trkpt><trkpt lat="32.2627377" lon="-110.6490477"><ele>1165.4</ele><time>2026-04-10T01:34:50.035Z</time></trkpt><trkpt lat="32.2626369" lon="-110.6490862"><ele>1164.2</ele><time>2026-04-10T01:34:51.035Z</time></trkpt><trkpt lat="32.2625302" lon="-110.6491098"><ele>1163.0</ele><time>2026-04-10T01:34:52.035Z</time></trkpt><trkpt lat="32.2624204" lon="-110.6491273"><ele>1163.0</ele><time>2026-04-10T01:34:53.035Z</time></trkpt><trkpt lat="32.2623153" lon="-110.6491374"><ele>1163.0</ele><time>2026-04-10T01:34:54.035Z</time></trkpt><trkpt lat="32.2622234" lon="-110.6491481"><ele>1163.0</ele><time>2026-04-10T01:34:55.035Z</time></trkpt><trkpt lat="32.2621427" lon="-110.6491592"><ele>1163.0</ele><time>2026-04-10T01:34:56.035Z</time></trkpt><trkpt lat="32.262073" lon="-110.6491682"><ele>1163.0</ele><time>2026-04-10T01:34:57.035Z</time></trkpt><trkpt lat="32.2619604" lon="-110.6492148"><ele>1161.1666666666667</ele><time>2026-04-10T01:34:59.035Z</time></trkpt><trkpt lat="32.2618995" lon="-110.6493083"><ele>1159.3333333333335</ele><time>2026-04-10T01:35:01.035Z</time></trkpt><trkpt lat="32.2619187" lon="-110.6494341"><ele>1157.5</ele><time>2026-04-10T01:35:03.035Z</time></trkpt><trkpt lat="32.2619633" lon="-110.6494929"><ele>1155.6666666666667</ele><time>2026-04-10T01:35:04.035Z</time></trkpt><trkpt lat="32.2620241" lon="-110.6495471"><ele>1153.8333333333333</ele><time>2026-04-10T01:35:05.035Z</time></trkpt><trkpt lat="32.262099" lon="-110.6495923"><ele>1152.0</ele><time>2026-04-10T01:35:06.035Z</time></trkpt><trkpt lat="32.2621794" lon="-110.6496325"><ele>1151.8333333333333</ele><time>2026-04-10T01:35:07.035Z</time></trkpt><trkpt lat="32.2622612" lon="-110.6496687"><ele>1151.6666666666667</ele><time>2026-04-10T01:35:08.035Z</time></trkpt><trkpt lat="32.2623403" lon="-110.6497117"><ele>1151.5</ele><time>2026-04-10T01:35:09.035Z</time></trkpt><trkpt lat="32.2624109" lon="-110.6497657"><ele>1151.3333333333335</ele><time>2026-04-10T01:35:10.034Z</time></trkpt><trkpt lat="32.2624685" lon="-110.6498368"><ele>1151.1666666666667</ele><time>2026-04-10T01:35:11.035Z</time></trkpt><trkpt lat="32.2625161" lon="-110.6499264"><ele>1151.0</ele><time>2026-04-10T01:35:12.035Z</time></trkpt><trkpt lat="32.262556" lon="-110.6500186"><ele>1151.0</ele><time>2026-04-10T01:35:13.035Z</time></trkpt><trkpt lat="32.2626022" lon="-110.6501042"><ele>1151.0</ele><time>2026-04-10T01:35:14.035Z</time></trkpt><trkpt lat="32.2626637" lon="-110.6501833"><ele>1151.0</ele><time>2026-04-10T01:35:15.035Z</time></trkpt><trkpt lat="32.2627389" lon="-110.6502506"><ele>1151.0</ele><time>2026-04-10T01:35:16.035Z</time></trkpt><trkpt lat="32.2628256" lon="-110.6503078"><ele>1151.0</ele><time>2026-04-10T01:35:17.035Z</time></trkpt><trkpt lat="32.2629238" lon="-110.6503644"><ele>1147.3999999999999</ele><time>2026-04-10T01:35:18.035Z</time></trkpt><trkpt lat="32.2630222" lon="-110.6504186"><ele>1143.8</ele><time>2026-04-10T01:35:19.035Z</time></trkpt><trkpt lat="32.2631194" lon="-110.6504696"><ele>1140.1999999999998</ele><time>2026-04-10T01:35:20.035Z</time></trkpt><trkpt lat="32.2632168" lon="-110.6505164"><ele>1136.6</ele><time>2026-04-10T01:35:21.034Z</time></trkpt><trkpt lat="32.2633156" lon="-110.6505547"><ele>1133.0</ele><time>2026-04-10T01:35:22.035Z</time></trkpt><trkpt lat="32.2634082" lon="-110.6505795"><ele>1133.0</ele><time>2026-04-10T01:35:23.035Z</time></trkpt><trkpt lat="32.2634895" lon="-110.6505897"><ele>1133.0</ele><time>2026-04-10T01:35:24.035Z</time></trkpt><trkpt lat="32.2635625" lon="-110.6505835"><ele>1133.0</ele><time>2026-04-10T01:35:25.035Z</time></trkpt><trkpt lat="32.2636272" lon="-110.6505635"><ele>1133.0</ele><time>2026-04-10T01:35:26.035Z</time></trkpt><trkpt lat="32.2637351" lon="-110.6505466"><ele>1133.0</ele><time>2026-04-10T01:35:28.035Z</time></trkpt><trkpt lat="32.2637981" lon="-110.6506357"><ele>1133.0</ele><time>2026-04-10T01:35:30.035Z</time></trkpt><trkpt lat="32.2637639" lon="-110.6507529"><ele>1133.0</ele><time>2026-04-10T01:35:32.034Z</time></trkpt><trkpt lat="32.2636466" lon="-110.6508496"><ele>1133.0</ele><time>2026-04-10T01:35:34.035Z</time></trkpt><trkpt lat="32.2635574" lon="-110.6509081"><ele>1133.0</ele><time>2026-04-10T01:35:35.035Z</time></trkpt><trkpt lat="32.2634641" lon="-110.6509703"><ele>1133.0</ele><time>2026-04-10T01:35:36.035Z</time></trkpt><trkpt lat="32.263372" lon="-110.6510272"><ele>1133.0</ele><time>2026-04-10T01:35:37.035Z</time></trkpt><trkpt lat="32.2632714" lon="-110.6510768"><ele>1133.0</ele><time>2026-04-10T01:35:38.035Z</time></trkpt><trkpt lat="32.2631576" lon="-110.6511182"><ele>1133.0</ele><time>2026-04-10T01:35:39.035Z</time></trkpt><trkpt lat="32.2630297" lon="-110.6511473"><ele>1133.0</ele><time>2026-04-10T01:35:40.035Z</time></trkpt><trkpt lat="32.2628904" lon="-110.6511661"><ele>1127.25</ele><time>2026-04-10T01:35:41.035Z</time></trkpt><trkpt lat="32.2627433" lon="-110.6511808"><ele>1121.5</ele><time>2026-04-10T01:35:42.035Z</time></trkpt><trkpt lat="32.262597" lon="-110.6511943"><ele>1115.75</ele><time>2026-04-10T01:35:43.035Z</time></trkpt><trkpt lat="32.2624552" lon="-110.6512101"><ele>1110.0</ele><time>2026-04-10T01:35:44.035Z</time></trkpt><trkpt lat="32.2623173" lon="-110.6512319"><ele>1109.25</ele><time>2026-04-10T01:35:45.035Z</time></trkpt><trkpt lat="32.2621833" lon="-110.6512576"><ele>1108.5</ele><time>2026-04-10T01:35:46.035Z</time></trkpt><trkpt lat="32.2620528" lon="-110.6512823"><ele>1107.75</ele><time>2026-04-10T01:35:47.035Z</time></trkpt><trkpt lat="32.261928" lon="-110.6513028"><ele>1107.0</ele><time>2026-04-10T01:35:48.035Z</time></trkpt><trkpt lat="32.2618117" lon="-110.6513187"><ele>1107.0</ele><time>2026-04-10T01:35:49.035Z</time></trkpt><trkpt lat="32.2617037" lon="-110.6513324"><ele>1107.0</ele><time>2026-04-10T01:35:50.035Z</time></trkpt><trkpt lat="32.2615996" lon="-110.6513433"><ele>1107.0</ele><time>2026-04-10T01:35:51.035Z</time></trkpt><trkpt lat="32.2615054" lon="-110.651349"><ele>1107.0</ele><time>2026-04-10T01:35:52.035Z</time></trkpt><trkpt lat="32.2614243" lon="-110.6513523"><ele>1107.0</ele><time>2026-04-10T01:35:53.035Z</time></trkpt><trkpt lat="32.2613544" lon="-110.6513576"><ele>1104.6666666666667</ele><time>2026-04-10T01:35:54.035Z</time></trkpt><trkpt lat="32.2612901" lon="-110.6513664"><ele>1102.3333333333333</ele><time>2026-04-10T01:35:55.035Z</time></trkpt><trkpt lat="32.2612104" lon="-110.6514714"><ele>1100.0</ele><time>2026-04-10T01:35:57.035Z</time></trkpt><trkpt lat="32.2612017" lon="-110.6515487"><ele>1097.6666666666665</ele><time>2026-04-10T01:35:58.035Z</time></trkpt><trkpt lat="32.2612061" lon="-110.6516315"><ele>1095.3333333333333</ele><time>2026-04-10T01:35:59.035Z</time></trkpt><trkpt lat="32.2612433" lon="-110.6517201"><ele>1093.0</ele><time>2026-04-10T01:36:00.035Z</time></trkpt><trkpt lat="32.2612986" lon="-110.65181"><ele>1093.0</ele><time>2026-04-10T01:36:01.036Z</time></trkpt><trkpt lat="32.2613487" lon="-110.6519063"><ele>1093.0</ele><time>2026-04-10T01:36:02.036Z</time></trkpt><trkpt lat="32.2613849" lon="-110.6520127"><ele>1093.0</ele><time>2026-04-10T01:36:03.036Z</time></trkpt><trkpt lat="32.2614047" lon="-110.6521241"><ele>1093.0</ele><time>2026-04-10T01:36:04.036Z</time></trkpt><trkpt lat="32.2614167" lon="-110.6522332"><ele>1093.0</ele><time>2026-04-10T01:36:05.036Z</time></trkpt><trkpt lat="32.2614337" lon="-110.652332"><ele>1093.5</ele><time>2026-04-10T01:36:06.036Z</time></trkpt><trkpt lat="32.2614621" lon="-110.6524191"><ele>1094.0</ele><time>2026-04-10T01:36:07.036Z</time></trkpt><trkpt lat="32.2615048" lon="-110.6524949"><ele>1094.5</ele><time>2026-04-10T01:36:08.036Z</time></trkpt><trkpt lat="32.2615654" lon="-110.6525558"><ele>1095.0</ele><time>2026-04-10T01:36:09.036Z</time></trkpt><trkpt lat="32.2616492" lon="-110.6526047"><ele>1095.5</ele><time>2026-04-10T01:36:10.036Z</time></trkpt><trkpt lat="32.261752" lon="-110.6526419"><ele>1096.0</ele><time>2026-04-10T01:36:11.035Z</time></trkpt><trkpt lat="32.2618571" lon="-110.6526705"><ele>1096.0</ele><time>2026-04-10T01:36:12.036Z</time></trkpt><trkpt lat="32.2619559" lon="-110.6526943"><ele>1096.0</ele><time>2026-04-10T01:36:13.036Z</time></trkpt><trkpt lat="32.2620464" lon="-110.652712"><ele>1096.0</ele><time>2026-04-10T01:36:14.036Z</time></trkpt><trkpt lat="32.2621318" lon="-110.652721"><ele>1096.0</ele><time>2026-04-10T01:36:15.036Z</time></trkpt><trkpt lat="32.2622069" lon="-110.6527254"><ele>1096.0</ele><time>2026-04-10T01:36:16.036Z</time></trkpt><trkpt lat="32.2623151" lon="-110.6527468"><ele>1093.2</ele><time>2026-04-10T01:36:18.036Z</time></trkpt><trkpt lat="32.2623756" lon="-110.6528152"><ele>1090.3999999999999</ele><time>2026-04-10T01:36:20.036Z</time></trkpt><trkpt lat="32.2623506" lon="-110.6529173"><ele>1087.6</ele><time>2026-04-10T01:36:22.036Z</time></trkpt><trkpt lat="32.2622498" lon="-110.6529755"><ele>1084.8</ele><time>2026-04-10T01:36:24.036Z</time></trkpt><trkpt lat="32.2621744" lon="-110.6529877"><ele>1082.0</ele><time>2026-04-10T01:36:25.036Z</time></trkpt><trkpt lat="32.2620805" lon="-110.6529981"><ele>1082.0</ele><time>2026-04-10T01:36:26.036Z</time></trkpt><trkpt lat="32.261978" lon="-110.6530116"><ele>1082.0</ele><time>2026-04-10T01:36:27.036Z</time></trkpt><trkpt lat="32.261875" lon="-110.653036"><ele>1082.0</ele><time>2026-04-10T01:36:28.036Z</time></trkpt><trkpt lat="32.2617746" lon="-110.6530791"><ele>1082.0</ele><time>2026-04-10T01:36:29.036Z</time></trkpt><trkpt lat="32.2616829" lon="-110.6531356"><ele>1082.0</ele><time>2026-04-10T01:36:30.035Z</time></trkpt><trkpt lat="32.2615989" lon="-110.6531908"><ele>1082.0</ele><time>2026-04-10T01:36:31.036Z</time></trkpt><trkpt lat="32.2615129" lon="-110.6532346"><ele>1082.0</ele><time>2026-04-10T01:36:32.035Z</time></trkpt><trkpt lat="32.2614105" lon="-110.6532649"><ele>1082.0</ele><time>2026-04-10T01:36:33.036Z</time></trkpt><trkpt lat="32.2612924" lon="-110.6532824"><ele>1082.0</ele><time>2026-04-10T01:36:34.036Z</time></trkpt><trkpt lat="32.2611698" lon="-110.6532906"><ele>1082.0</ele><time>2026-04-10T01:36:35.036Z</time></trkpt><trkpt lat="32.2610493" lon="-110.6532948"><ele>1080.0</ele><time>2026-04-10T01:36:36.036Z</time></trkpt><trkpt lat="32.2609318" lon="-110.653299"><ele>1078.0</ele><time>2026-04-10T01:36:37.035Z</time></trkpt><trkpt lat="32.2608258" lon="-110.6532949"><ele>1076.0</ele><time>2026-04-10T01:36:38.036Z</time></trkpt><trkpt lat="32.2607259" lon="-110.6532825"><ele>1074.0</ele><time>2026-04-10T01:36:39.036Z</time></trkpt><trkpt lat="32.2606322" lon="-110.6532656"><ele>1072.0</ele><time>2026-04-10T01:36:40.036Z</time></trkpt><trkpt lat="32.2605476" lon="-110.6532515"><ele>1070.5</ele><time>2026-04-10T01:36:41.036Z</time></trkpt><trkpt lat="32.2604707" lon="-110.6532493"><ele>1069.0</ele><time>2026-04-10T01:36:42.036Z</time></trkpt><trkpt lat="32.2603994" lon="-110.6532567"><ele>1067.5</ele><time>2026-04-10T01:36:43.036Z</time></trkpt><trkpt lat="32.2603396" lon="-110.6532985"><ele>1066.0</ele><time>2026-04-10T01:36:44.036Z</time></trkpt><trkpt lat="32.2602913" lon="-110.6533518"><ele>1064.5</ele><time>2026-04-10T01:36:45.036Z</time></trkpt><trkpt lat="32.2602445" lon="-110.6534663"><ele>1063.0</ele><time>2026-04-10T01:36:47.036Z</time></trkpt><trkpt lat="32.2602694" lon="-110.6535772"><ele>1062.0</ele><time>2026-04-10T01:36:49.036Z</time></trkpt><trkpt lat="32.2603821" lon="-110.6536246"><ele>1061.0</ele><time>2026-04-10T01:36:51.036Z</time></trkpt><trkpt lat="32.2604688" lon="-110.653645"><ele>1060.0</ele><time>2026-04-10T01:36:52.036Z</time></trkpt><trkpt lat="32.2605644" lon="-110.6536781"><ele>1059.0</ele><time>2026-04-10T01:36:53.036Z</time></trkpt><trkpt lat="32.2606568" lon="-110.6537291"><ele>1058.0</ele><time>2026-04-10T01:36:54.036Z</time></trkpt><trkpt lat="32.2607403" lon="-110.6537978"><ele>1058.0</ele><time>2026-04-10T01:36:55.036Z</time></trkpt><trkpt lat="32.2608105" lon="-110.6538856"><ele>1058.0</ele><time>2026-04-10T01:36:56.036Z</time></trkpt><trkpt lat="32.2608669" lon="-110.6539863"><ele>1058.0</ele><time>2026-04-10T01:36:57.036Z</time></trkpt><trkpt lat="32.260917" lon="-110.6540897"><ele>1058.0</ele><time>2026-04-10T01:36:58.036Z</time></trkpt><trkpt lat="32.2609693" lon="-110.6541892"><ele>1058.0</ele><time>2026-04-10T01:36:59.036Z</time></trkpt><trkpt lat="32.2610256" lon="-110.6542847"><ele>1058.0</ele><time>2026-04-10T01:37:00.036Z</time></trkpt><trkpt lat="32.2610823" lon="-110.6543807"><ele>1058.0</ele><time>2026-04-10T01:37:01.036Z</time></trkpt><trkpt lat="32.2611195" lon="-110.6544779"><ele>1058.0</ele><time>2026-04-10T01:37:02.036Z</time></trkpt><trkpt lat="32.2611374" lon="-110.6545718"><ele>1058.0</ele><time>2026-04-10T01:37:03.036Z</time></trkpt><trkpt lat="32.2611384" lon="-110.6546564"><ele>1058.0</ele><time>2026-04-10T01:37:04.036Z</time></trkpt><trkpt lat="32.261086" lon="-110.6547818"><ele>1055.8</ele><time>2026-04-10T01:37:06.036Z</time></trkpt><trkpt lat="32.2609683" lon="-110.654831"><ele>1053.6</ele><time>2026-04-10T01:37:08.036Z</time></trkpt><trkpt lat="32.2608899" lon="-110.6548308"><ele>1051.4</ele><time>2026-04-10T01:37:09.035Z</time></trkpt><trkpt lat="32.2608076" lon="-110.6548409"><ele>1049.2</ele><time>2026-04-10T01:37:10.035Z</time></trkpt><trkpt lat="32.2607233" lon="-110.6548776"><ele>1047.0</ele><time>2026-04-10T01:37:11.036Z</time></trkpt><trkpt lat="32.2606379" lon="-110.6549459"><ele>1047.25</ele><time>2026-04-10T01:37:12.036Z</time></trkpt><trkpt lat="32.2605504" lon="-110.6550366"><ele>1047.5</ele><time>2026-04-10T01:37:13.035Z</time></trkpt><trkpt lat="32.2604586" lon="-110.655134"><ele>1047.75</ele><time>2026-04-10T01:37:14.036Z</time></trkpt><trkpt lat="32.2603658" lon="-110.6552311"><ele>1048.0</ele><time>2026-04-10T01:37:15.036Z</time></trkpt><trkpt lat="32.2602771" lon="-110.6553271"><ele>1044.5</ele><time>2026-04-10T01:37:16.036Z</time></trkpt><trkpt lat="32.2601928" lon="-110.6554239"><ele>1041.0</ele><time>2026-04-10T01:37:17.036Z</time></trkpt><trkpt lat="32.2601345" lon="-110.6555348"><ele>1037.5</ele><time>2026-04-10T01:37:18.036Z</time></trkpt><trkpt lat="32.2600919" lon="-110.6556605"><ele>1034.0</ele><time>2026-04-10T01:37:19.036Z</time></trkpt><trkpt lat="32.2600683" lon="-110.6557848"><ele>1034.0</ele><time>2026-04-10T01:37:20.036Z</time></trkpt><trkpt lat="32.2600532" lon="-110.6558947"><ele>1034.0</ele><time>2026-04-10T01:37:21.036Z</time></trkpt><trkpt lat="32.2600343" lon="-110.6559879"><ele>1034.0</ele><time>2026-04-10T01:37:22.036Z</time></trkpt><trkpt lat="32.260002" lon="-110.6560622"><ele>1034.0</ele><time>2026-04-10T01:37:23.036Z</time></trkpt><trkpt lat="32.2599526" lon="-110.6561147"><ele>1034.0</ele><time>2026-04-10T01:37:24.036Z</time></trkpt><trkpt lat="32.2598317" lon="-110.6561392"><ele>1034.0</ele><time>2026-04-10T01:37:26.036Z</time></trkpt><trkpt lat="32.2597674" lon="-110.6560985"><ele>1032.4</ele><time>2026-04-10T01:37:27.036Z</time></trkpt><trkpt lat="32.2597061" lon="-110.65603"><ele>1030.8000000000002</ele><time>2026-04-10T01:37:28.036Z</time></trkpt><trkpt lat="32.259639" lon="-110.6559424"><ele>1029.1999999999998</ele><time>2026-04-10T01:37:29.036Z</time></trkpt><trkpt lat="32.2595636" lon="-110.6558542"><ele>1027.6</ele><time>2026-04-10T01:37:30.036Z</time></trkpt><trkpt lat="32.2594752" lon="-110.655777"><ele>1026.0</ele><time>2026-04-10T01:37:31.036Z</time></trkpt><trkpt lat="32.2593745" lon="-110.6557158"><ele>1026.0</ele><time>2026-04-10T01:37:32.036Z</time></trkpt><trkpt lat="32.2592664" lon="-110.6556718"><ele>1026.0</ele><time>2026-04-10T01:37:33.036Z</time></trkpt><trkpt lat="32.2591527" lon="-110.6556428"><ele>1026.0</ele><time>2026-04-10T01:37:34.036Z</time></trkpt><trkpt lat="32.2590358" lon="-110.6556303"><ele>1026.0</ele><time>2026-04-10T01:37:35.036Z</time></trkpt><trkpt lat="32.2589188" lon="-110.6556358"><ele>1023.75</ele><time>2026-04-10T01:37:36.036Z</time></trkpt><trkpt lat="32.2588021" lon="-110.6556541"><ele>1021.5</ele><time>2026-04-10T01:37:37.036Z</time></trkpt><trkpt lat="32.258686" lon="-110.6556736"><ele>1019.25</ele><time>2026-04-10T01:37:38.036Z</time></trkpt><trkpt lat="32.2585691" lon="-110.6556822"><ele>1017.0</ele><time>2026-04-10T01:37:39.036Z</time></trkpt><trkpt lat="32.2584521" lon="-110.6556769"><ele>1017.0</ele><time>2026-04-10T01:37:40.036Z</time></trkpt><trkpt lat="32.258337" lon="-110.65566"><ele>1017.0</ele><time>2026-04-10T01:37:41.036Z</time></trkpt><trkpt lat="32.2582249" lon="-110.6556355"><ele>1017.0</ele><time>2026-04-10T01:37:42.035Z</time></trkpt><trkpt lat="32.2581117" lon="-110.6556103"><ele>1017.0</ele><time>2026-04-10T01:37:43.036Z</time></trkpt><trkpt lat="32.2580008" lon="-110.6555938"><ele>1015.4000000000001</ele><time>2026-04-10T01:37:44.036Z</time></trkpt><trkpt lat="32.2578943" lon="-110.6555939"><ele>1013.8000000000001</ele><time>2026-04-10T01:37:45.036Z</time></trkpt><trkpt lat="32.2577912" lon="-110.6556195"><ele>1012.2</ele><time>2026-04-10T01:37:46.036Z</time></trkpt><trkpt lat="32.2576979" lon="-110.6556743"><ele>1010.6</ele><time>2026-04-10T01:37:47.035Z</time></trkpt><trkpt lat="32.2576191" lon="-110.6557541"><ele>1009.0</ele><time>2026-04-10T01:37:48.035Z</time></trkpt><trkpt lat="32.25755" lon="-110.6558577"><ele>1009.0</ele><time>2026-04-10T01:37:49.036Z</time></trkpt><trkpt lat="32.2574895" lon="-110.6559806"><ele>1009.0</ele><time>2026-04-10T01:37:50.036Z</time></trkpt><trkpt lat="32.2574339" lon="-110.6561118"><ele>1009.0</ele><time>2026-04-10T01:37:51.036Z</time></trkpt><trkpt lat="32.2573706" lon="-110.6562485"><ele>1009.0</ele><time>2026-04-10T01:37:52.036Z</time></trkpt><trkpt lat="32.2572953" lon="-110.6563842"><ele>1009.75</ele><time>2026-04-10T01:37:53.036Z</time></trkpt><trkpt lat="32.2572063" lon="-110.6565145"><ele>1010.5</ele><time>2026-04-10T01:37:54.036Z</time></trkpt><trkpt lat="32.2571087" lon="-110.6566379"><ele>1011.25</ele><time>2026-04-10T01:37:55.036Z</time></trkpt><trkpt lat="32.2570125" lon="-110.6567546"><ele>1012.0</ele><time>2026-04-10T01:37:56.036Z</time></trkpt><trkpt lat="32.256923" lon="-110.6568735"><ele>1009.5</ele><time>2026-04-10T01:37:57.036Z</time></trkpt><trkpt lat="32.2568402" lon="-110.657005"><ele>1007.0</ele><time>2026-04-10T01:37:58.035Z</time></trkpt><trkpt lat="32.256764" lon="-110.6571542"><ele>1004.5</ele><time>2026-04-10T01:37:59.036Z</time></trkpt><trkpt lat="32.2566919" lon="-110.657315"><ele>1002.0</ele><time>2026-04-10T01:38:00.035Z</time></trkpt><trkpt lat="32.2566197" lon="-110.6574829"><ele>1002.0</ele><time>2026-04-10T01:38:01.036Z</time></trkpt><trkpt lat="32.2565398" lon="-110.6576676"><ele>1002.0</ele><time>2026-04-10T01:38:02.036Z</time></trkpt><trkpt lat="32.2564599" lon="-110.657855"><ele>1002.0</ele><time>2026-04-10T01:38:03.035Z</time></trkpt><trkpt lat="32.2563848" lon="-110.658036"><ele>1003.0</ele><time>2026-04-10T01:38:04.036Z</time></trkpt><trkpt lat="32.2563129" lon="-110.6582093"><ele>1004.0</ele><time>2026-04-10T01:38:05.036Z</time></trkpt><trkpt lat="32.2562459" lon="-110.6583752"><ele>1005.0</ele><time>2026-04-10T01:38:06.035Z</time></trkpt><trkpt lat="32.2561867" lon="-110.6585369"><ele>1003.25</ele><time>2026-04-10T01:38:07.036Z</time></trkpt><trkpt lat="32.2561358" lon="-110.6587028"><ele>1001.5</ele><time>2026-04-10T01:38:08.037Z</time></trkpt><trkpt lat="32.2560957" lon="-110.6588687"><ele>999.75</ele><time>2026-04-10T01:38:09.037Z</time></trkpt><trkpt lat="32.2560643" lon="-110.6590305"><ele>998.0</ele><time>2026-04-10T01:38:10.037Z</time></trkpt><trkpt lat="32.25604" lon="-110.6591876"><ele>998.0</ele><time>2026-04-10T01:38:11.037Z</time></trkpt><trkpt lat="32.2560241" lon="-110.6593381"><ele>998.0</ele><time>2026-04-10T01:38:12.037Z</time></trkpt><trkpt lat="32.2560216" lon="-110.6594806"><ele>998.0</ele><time>2026-04-10T01:38:13.037Z</time></trkpt><trkpt lat="32.2560366" lon="-110.6596172"><ele>998.0</ele><time>2026-04-10T01:38:14.037Z</time></trkpt><trkpt lat="32.2560708" lon="-110.65975"><ele>996.5</ele><time>2026-04-10T01:38:15.037Z</time></trkpt><trkpt lat="32.2561233" lon="-110.6598857"><ele>995.0</ele><time>2026-04-10T01:38:16.036Z</time></trkpt><trkpt lat="32.2561858" lon="-110.6600302"><ele>993.5</ele><time>2026-04-10T01:38:17.037Z</time></trkpt><trkpt lat="32.2562441" lon="-110.6601846"><ele>992.0</ele><time>2026-04-10T01:38:18.037Z</time></trkpt><trkpt lat="32.2562911" lon="-110.6603523"><ele>989.0</ele><time>2026-04-10T01:38:19.037Z</time></trkpt><trkpt lat="32.2563255" lon="-110.660528"><ele>986.0</ele><time>2026-04-10T01:38:20.037Z</time></trkpt><trkpt lat="32.2563494" lon="-110.6607029"><ele>983.0</ele><time>2026-04-10T01:38:21.037Z</time></trkpt><trkpt lat="32.2563671" lon="-110.6608704"><ele>980.0</ele><time>2026-04-10T01:38:22.037Z</time></trkpt><trkpt lat="32.2563794" lon="-110.6610294"><ele>979.5</ele><time>2026-04-10T01:38:23.037Z</time></trkpt><trkpt lat="32.2563837" lon="-110.6611783"><ele>979.0</ele><time>2026-04-10T01:38:24.037Z</time></trkpt><trkpt lat="32.2563789" lon="-110.6613167"><ele>978.5</ele><time>2026-04-10T01:38:25.037Z</time></trkpt><trkpt lat="32.2563627" lon="-110.6614434"><ele>978.0</ele><time>2026-04-10T01:38:26.037Z</time></trkpt><trkpt lat="32.2563306" lon="-110.6615594"><ele>978.0</ele><time>2026-04-10T01:38:27.037Z</time></trkpt><trkpt lat="32.2562787" lon="-110.6616647"><ele>978.0</ele><time>2026-04-10T01:38:28.037Z</time></trkpt><trkpt lat="32.2562052" lon="-110.6617588"><ele>978.0</ele><time>2026-04-10T01:38:29.036Z</time></trkpt><trkpt lat="32.2561118" lon="-110.661842"><ele>978.0</ele><time>2026-04-10T01:38:30.037Z</time></trkpt><trkpt lat="32.2559997" lon="-110.6619213"><ele>978.0</ele><time>2026-04-10T01:38:31.036Z</time></trkpt><trkpt lat="32.2558746" lon="-110.6620021"><ele>978.0</ele><time>2026-04-10T01:38:32.037Z</time></trkpt><trkpt lat="32.2557501" lon="-110.6620821"><ele>978.0</ele><time>2026-04-10T01:38:33.037Z</time></trkpt><trkpt lat="32.2556294" lon="-110.6621613"><ele>978.0</ele><time>2026-04-10T01:38:34.036Z</time></trkpt><trkpt lat="32.2555142" lon="-110.6622413"><ele>976.5</ele><time>2026-04-10T01:38:35.037Z</time></trkpt><trkpt lat="32.2554091" lon="-110.6623221"><ele>975.0</ele><time>2026-04-10T01:38:36.037Z</time></trkpt><trkpt lat="32.2553148" lon="-110.6624066"><ele>973.5</ele><time>2026-04-10T01:38:37.037Z</time></trkpt><trkpt lat="32.2552318" lon="-110.6625011"><ele>972.0</ele><time>2026-04-10T01:38:38.037Z</time></trkpt><trkpt lat="32.2551603" lon="-110.6626098"><ele>972.0</ele><time>2026-04-10T01:38:39.037Z</time></trkpt><trkpt lat="32.2550993" lon="-110.6627349"><ele>972.0</ele><time>2026-04-10T01:38:40.037Z</time></trkpt><trkpt lat="32.2550482" lon="-110.6628752"><ele>972.0</ele><time>2026-04-10T01:38:41.037Z</time></trkpt><trkpt lat="32.2550011" lon="-110.6630324"><ele>972.0</ele><time>2026-04-10T01:38:42.037Z</time></trkpt><trkpt lat="32.2549552" lon="-110.6631914"><ele>970.5</ele><time>2026-04-10T01:38:43.037Z</time></trkpt><trkpt lat="32.2549053" lon="-110.6633454"><ele>969.0</ele><time>2026-04-10T01:38:44.036Z</time></trkpt><trkpt lat="32.254847" lon="-110.6634914"><ele>967.5</ele><time>2026-04-10T01:38:45.037Z</time></trkpt><trkpt lat="32.2547785" lon="-110.6636313"><ele>966.0</ele><time>2026-04-10T01:38:46.037Z</time></trkpt><trkpt lat="32.2547" lon="-110.6637749"><ele>963.75</ele><time>2026-04-10T01:38:47.037Z</time></trkpt><trkpt lat="32.254622" lon="-110.6639186"><ele>961.5</ele><time>2026-04-10T01:38:48.037Z</time></trkpt><trkpt lat="32.2545479" lon="-110.6640587"><ele>959.25</ele><time>2026-04-10T01:38:49.037Z</time></trkpt><trkpt lat="32.2544763" lon="-110.6641863"><ele>957.0</ele><time>2026-04-10T01:38:50.037Z</time></trkpt><trkpt lat="32.254403" lon="-110.6642984"><ele>957.0</ele><time>2026-04-10T01:38:51.036Z</time></trkpt><trkpt lat="32.2543241" lon="-110.6643946"><ele>957.0</ele><time>2026-04-10T01:38:52.037Z</time></trkpt><trkpt lat="32.2542424" lon="-110.6644741"><ele>957.0</ele><time>2026-04-10T01:38:53.037Z</time></trkpt><trkpt lat="32.2541634" lon="-110.6645413"><ele>957.0</ele><time>2026-04-10T01:38:54.037Z</time></trkpt><trkpt lat="32.2540929" lon="-110.6646073"><ele>957.0</ele><time>2026-04-10T01:38:55.037Z</time></trkpt><trkpt lat="32.2540357" lon="-110.664683"><ele>955.2</ele><time>2026-04-10T01:38:56.037Z</time></trkpt><trkpt lat="32.2539978" lon="-110.6647769"><ele>953.4000000000001</ele><time>2026-04-10T01:38:57.037Z</time></trkpt><trkpt lat="32.2539831" lon="-110.6648884"><ele>951.5999999999999</ele><time>2026-04-10T01:38:58.037Z</time></trkpt><trkpt lat="32.2539915" lon="-110.6650176"><ele>949.8</ele><time>2026-04-10T01:38:59.037Z</time></trkpt><trkpt lat="32.2540166" lon="-110.6651543"><ele>948.0</ele><time>2026-04-10T01:39:00.037Z</time></trkpt><trkpt lat="32.2540492" lon="-110.6652892"><ele>947.5</ele><time>2026-04-10T01:39:01.037Z</time></trkpt><trkpt lat="32.2540892" lon="-110.665421"><ele>947.0</ele><time>2026-04-10T01:39:02.036Z</time></trkpt><trkpt lat="32.2541433" lon="-110.6655445"><ele>946.5</ele><time>2026-04-10T01:39:03.037Z</time></trkpt><trkpt lat="32.2542165" lon="-110.6656525"><ele>946.0</ele><time>2026-04-10T01:39:04.037Z</time></trkpt><trkpt lat="32.2543018" lon="-110.6657441"><ele>946.0</ele><time>2026-04-10T01:39:05.037Z</time></trkpt><trkpt lat="32.2543889" lon="-110.6658303"><ele>945.9999999999999</ele><time>2026-04-10T01:39:06.037Z</time></trkpt><trkpt lat="32.2544702" lon="-110.6659215"><ele>945.9999999999999</ele><time>2026-04-10T01:39:07.037Z</time></trkpt><trkpt lat="32.2545419" lon="-110.6660202"><ele>946.0</ele><time>2026-04-10T01:39:08.037Z</time></trkpt><trkpt lat="32.2546026" lon="-110.666126"><ele>946.0</ele><time>2026-04-10T01:39:09.037Z</time></trkpt><trkpt lat="32.2546495" lon="-110.6662396"><ele>947.1999999999999</ele><time>2026-04-10T01:39:10.037Z</time></trkpt><trkpt lat="32.2546823" lon="-110.6663589"><ele>948.3999999999999</ele><time>2026-04-10T01:39:11.037Z</time></trkpt><trkpt lat="32.2547033" lon="-110.6664839"><ele>949.6</ele><time>2026-04-10T01:39:12.037Z</time></trkpt><trkpt lat="32.2547165" lon="-110.6666163"><ele>950.8</ele><time>2026-04-10T01:39:13.037Z</time></trkpt><trkpt lat="32.2547248" lon="-110.6667549"><ele>952.0</ele><time>2026-04-10T01:39:14.037Z</time></trkpt><trkpt lat="32.2547284" lon="-110.6669008"><ele>950.5</ele><time>2026-04-10T01:39:15.036Z</time></trkpt><trkpt lat="32.2547248" lon="-110.6670516"><ele>949.0</ele><time>2026-04-10T01:39:16.037Z</time></trkpt><trkpt lat="32.2547156" lon="-110.6671986"><ele>947.5</ele><time>2026-04-10T01:39:17.037Z</time></trkpt><trkpt lat="32.2547017" lon="-110.667342"><ele>946.0</ele><time>2026-04-10T01:39:18.036Z</time></trkpt><trkpt lat="32.2546826" lon="-110.6674796"><ele>946.0</ele><time>2026-04-10T01:39:19.037Z</time></trkpt><trkpt lat="32.2546543" lon="-110.6676108"><ele>946.0</ele><time>2026-04-10T01:39:20.037Z</time></trkpt><trkpt lat="32.2546149" lon="-110.6677351"><ele>946.0</ele><time>2026-04-10T01:39:21.037Z</time></trkpt><trkpt lat="32.2545693" lon="-110.6678557"><ele>946.0</ele><time>2026-04-10T01:39:22.036Z</time></trkpt><trkpt lat="32.2545243" lon="-110.667976"><ele>941.4</ele><time>2026-04-10T01:39:23.037Z</time></trkpt><trkpt lat="32.2544822" lon="-110.6680895"><ele>936.8</ele><time>2026-04-10T01:39:24.036Z</time></trkpt><trkpt lat="32.2544374" lon="-110.6681907"><ele>932.1999999999999</ele><time>2026-04-10T01:39:25.037Z</time></trkpt><trkpt lat="32.254384" lon="-110.6682794"><ele>927.5999999999999</ele><time>2026-04-10T01:39:26.036Z</time></trkpt><trkpt lat="32.2543183" lon="-110.6683515"><ele>923.0</ele><time>2026-04-10T01:39:27.037Z</time></trkpt><trkpt lat="32.254236" lon="-110.668406"><ele>923.0</ele><time>2026-04-10T01:39:28.037Z</time></trkpt><trkpt lat="32.2541343" lon="-110.6684466"><ele>923.0</ele><time>2026-04-10T01:39:29.037Z</time></trkpt><trkpt lat="32.2540163" lon="-110.6684775"><ele>923.0</ele><time>2026-04-10T01:39:30.036Z</time></trkpt><trkpt lat="32.2538946" lon="-110.6685042"><ele>923.0</ele><time>2026-04-10T01:39:31.037Z</time></trkpt><trkpt lat="32.2537774" lon="-110.6685331"><ele>923.4</ele><time>2026-04-10T01:39:32.036Z</time></trkpt><trkpt lat="32.2536701" lon="-110.6685686"><ele>923.8</ele><time>2026-04-10T01:39:33.037Z</time></trkpt><trkpt lat="32.2535753" lon="-110.6686118"><ele>924.2</ele><time>2026-04-10T01:39:34.037Z</time></trkpt><trkpt lat="32.2534928" lon="-110.6686637"><ele>924.6</ele><time>2026-04-10T01:39:35.037Z</time></trkpt><trkpt lat="32.2534235" lon="-110.6687234"><ele>925.0</ele><time>2026-04-10T01:39:36.037Z</time></trkpt><trkpt lat="32.2533702" lon="-110.6687864"><ele>921.6</ele><time>2026-04-10T01:39:37.036Z</time></trkpt><trkpt lat="32.2533337" lon="-110.6688482"><ele>918.2</ele><time>2026-04-10T01:39:38.037Z</time></trkpt><trkpt lat="32.2532982" lon="-110.6689581"><ele>914.8</ele><time>2026-04-10T01:39:40.037Z</time></trkpt><trkpt lat="32.2532842" lon="-110.6690389"><ele>911.4</ele><time>2026-04-10T01:39:42.037Z</time></trkpt><trkpt lat="32.2532582" lon="-110.6691544"><ele>908.0</ele><time>2026-04-10T01:40:50.038Z</time></trkpt><trkpt lat="32.253207" lon="-110.6693643"><ele>906.8</ele><time>2026-04-10T01:40:52.038Z</time></trkpt><trkpt lat="32.2531697" lon="-110.669475"><ele>905.5999999999999</ele><time>2026-04-10T01:40:53.038Z</time></trkpt><trkpt lat="32.2531229" lon="-110.6695763"><ele>904.4000000000001</ele><time>2026-04-10T01:40:54.038Z</time></trkpt><trkpt lat="32.2530632" lon="-110.6696775"><ele>903.2</ele><time>2026-04-10T01:40:55.038Z</time></trkpt><trkpt lat="32.2529942" lon="-110.6697615"><ele>902.0</ele><time>2026-04-10T01:40:56.038Z</time></trkpt><trkpt lat="32.2529175" lon="-110.669832"><ele>902.0</ele><time>2026-04-10T01:40:57.038Z</time></trkpt><trkpt lat="32.2528379" lon="-110.6699044"><ele>902.0</ele><time>2026-04-10T01:40:58.038Z</time></trkpt><trkpt lat="32.2527581" lon="-110.6699901"><ele>902.0</ele><time>2026-04-10T01:40:59.038Z</time></trkpt><trkpt lat="32.2526826" lon="-110.6700942"><ele>902.0</ele><time>2026-04-10T01:41:00.038Z</time></trkpt><trkpt lat="32.2526204" lon="-110.6702131"><ele>902.0</ele><time>2026-04-10T01:41:01.038Z</time></trkpt><trkpt lat="32.2525681" lon="-110.6703423"><ele>902.75</ele><time>2026-04-10T01:41:02.038Z</time></trkpt><trkpt lat="32.2525128" lon="-110.6704718"><ele>903.5</ele><time>2026-04-10T01:41:03.038Z</time></trkpt><trkpt lat="32.252445" lon="-110.6705948"><ele>904.25</ele><time>2026-04-10T01:41:04.038Z</time></trkpt><trkpt lat="32.2523635" lon="-110.6707102"><ele>905.0</ele><time>2026-04-10T01:41:05.038Z</time></trkpt><trkpt lat="32.2522718" lon="-110.6708176"><ele>902.0</ele><time>2026-04-10T01:41:06.038Z</time></trkpt><trkpt lat="32.2521735" lon="-110.6709182"><ele>899.0</ele><time>2026-04-10T01:41:07.038Z</time></trkpt><trkpt lat="32.2520758" lon="-110.6710173"><ele>896.0</ele><time>2026-04-10T01:41:08.038Z</time></trkpt><trkpt lat="32.2519795" lon="-110.671116"><ele>893.0</ele><time>2026-04-10T01:41:09.039Z</time></trkpt><trkpt lat="32.2518843" lon="-110.6712127"><ele>893.0</ele><time>2026-04-10T01:41:10.038Z</time></trkpt><trkpt lat="32.251791" lon="-110.671301"><ele>893.0</ele><time>2026-04-10T01:41:11.038Z</time></trkpt><trkpt lat="32.2517008" lon="-110.6713781"><ele>893.0</ele><time>2026-04-10T01:41:12.038Z</time></trkpt><trkpt lat="32.2516176" lon="-110.6714497"><ele>893.0</ele><time>2026-04-10T01:41:13.04Z</time></trkpt><trkpt lat="32.251548" lon="-110.6715328"><ele>893.0</ele><time>2026-04-10T01:41:14.037Z</time></trkpt><trkpt lat="32.2514993" lon="-110.6716344"><ele>893.0</ele><time>2026-04-10T01:41:15.038Z</time></trkpt><trkpt lat="32.2514721" lon="-110.6717519"><ele>893.0</ele><time>2026-04-10T01:41:16.038Z</time></trkpt><trkpt lat="32.2514652" lon="-110.6718815"><ele>893.0</ele><time>2026-04-10T01:41:17.038Z</time></trkpt><trkpt lat="32.2514817" lon="-110.672013"><ele>893.0</ele><time>2026-04-10T01:41:18.039Z</time></trkpt><trkpt lat="32.2515164" lon="-110.6721415"><ele>893.0</ele><time>2026-04-10T01:41:19.038Z</time></trkpt><trkpt lat="32.2515642" lon="-110.6722622"><ele>890.8</ele><time>2026-04-10T01:41:20.039Z</time></trkpt><trkpt lat="32.2516293" lon="-110.6723676"><ele>888.5999999999999</ele><time>2026-04-10T01:41:21.038Z</time></trkpt><trkpt lat="32.2517138" lon="-110.6724547"><ele>886.4000000000001</ele><time>2026-04-10T01:41:22.038Z</time></trkpt><trkpt lat="32.2518114" lon="-110.6725225"><ele>884.2</ele><time>2026-04-10T01:41:23.038Z</time></trkpt><trkpt lat="32.2519157" lon="-110.6725646"><ele>882.0</ele><time>2026-04-10T01:41:24.038Z</time></trkpt><trkpt lat="32.2520203" lon="-110.6725748"><ele>882.0</ele><time>2026-04-10T01:41:25.039Z</time></trkpt><trkpt lat="32.2521216" lon="-110.6725522"><ele>882.0</ele><time>2026-04-10T01:41:26.038Z</time></trkpt><trkpt lat="32.2522187" lon="-110.6725053"><ele>882.0</ele><time>2026-04-10T01:41:27.038Z</time></trkpt><trkpt lat="32.2523159" lon="-110.6724528"><ele>882.0</ele><time>2026-04-10T01:41:28.039Z</time></trkpt><trkpt lat="32.25242" lon="-110.6724177"><ele>882.0</ele><time>2026-04-10T01:41:29.038Z</time></trkpt><trkpt lat="32.2525308" lon="-110.6724133"><ele>880.25</ele><time>2026-04-10T01:41:30.038Z</time></trkpt><trkpt lat="32.2526485" lon="-110.6724377"><ele>878.5</ele><time>2026-04-10T01:41:31.038Z</time></trkpt><trkpt lat="32.2527753" lon="-110.6724716"><ele>876.75</ele><time>2026-04-10T01:41:32.038Z</time></trkpt><trkpt lat="32.2529035" lon="-110.6725007"><ele>875.0</ele><time>2026-04-10T01:41:33.039Z</time></trkpt><trkpt lat="32.2530269" lon="-110.6725292"><ele>873.8</ele><time>2026-04-10T01:41:34.039Z</time></trkpt><trkpt lat="32.2531378" lon="-110.6725599"><ele>872.6</ele><time>2026-04-10T01:41:35.038Z</time></trkpt><trkpt lat="32.2532357" lon="-110.67257"><ele>871.4000000000001</ele><time>2026-04-10T01:41:36.04Z</time></trkpt><trkpt lat="32.2533267" lon="-110.6725462"><ele>870.2</ele><time>2026-04-10T01:41:37.039Z</time></trkpt><trkpt lat="32.2534145" lon="-110.6725014"><ele>869.0</ele><time>2026-04-10T01:41:38.038Z</time></trkpt><trkpt lat="32.2534911" lon="-110.6724552"><ele>869.0</ele><time>2026-04-10T01:41:39.04Z</time></trkpt><trkpt lat="32.2535582" lon="-110.672426"><ele>869.0000000000001</ele><time>2026-04-10T01:41:40.039Z</time></trkpt><trkpt lat="32.2536595" lon="-110.672477"><ele>869.0000000000001</ele><time>2026-04-10T01:41:42.039Z</time></trkpt><trkpt lat="32.2536583" lon="-110.6726005"><ele>869.0</ele><time>2026-04-10T01:41:44.037Z</time></trkpt><trkpt lat="32.253599" lon="-110.6726647"><ele>869.0</ele><time>2026-04-10T01:41:45.039Z</time></trkpt><trkpt lat="32.2535252" lon="-110.6727254"><ele>868.0000000000001</ele><time>2026-04-10T01:41:46.039Z</time></trkpt><trkpt lat="32.2534569" lon="-110.672794"><ele>867.0</ele><time>2026-04-10T01:41:47.039Z</time></trkpt><trkpt lat="32.253411" lon="-110.6728803"><ele>866.0</ele><time>2026-04-10T01:41:48.038Z</time></trkpt><trkpt lat="32.2534024" lon="-110.6729746"><ele>865.0</ele><time>2026-04-10T01:41:49.039Z</time></trkpt><trkpt lat="32.2534328" lon="-110.6730538"><ele>864.0000000000001</ele><time>2026-04-10T01:41:50.042Z</time></trkpt><trkpt lat="32.2534874" lon="-110.6731311"><ele>863.0</ele><time>2026-04-10T01:41:51.038Z</time></trkpt><trkpt lat="32.2535463" lon="-110.6732242"><ele>863.0</ele><time>2026-04-10T01:41:52.039Z</time></trkpt><trkpt lat="32.2535935" lon="-110.673334"><ele>863.0</ele><time>2026-04-10T01:41:53.038Z</time></trkpt><trkpt lat="32.2536172" lon="-110.6734559"><ele>863.0</ele><time>2026-04-10T01:41:54.039Z</time></trkpt><trkpt lat="32.2536126" lon="-110.6735892"><ele>863.0</ele><time>2026-04-10T01:41:55.04Z</time></trkpt><trkpt lat="32.2535862" lon="-110.6737275"><ele>863.0</ele><time>2026-04-10T01:41:56.039Z</time></trkpt><trkpt lat="32.2535645" lon="-110.6738686"><ele>861.75</ele><time>2026-04-10T01:41:57.039Z</time></trkpt><trkpt lat="32.2535697" lon="-110.6740135"><ele>860.5</ele><time>2026-04-10T01:41:58.039Z</time></trkpt><trkpt lat="32.2536084" lon="-110.6741603"><ele>859.25</ele><time>2026-04-10T01:41:59.038Z</time></trkpt><trkpt lat="32.2536751" lon="-110.6743082"><ele>858.0</ele><time>2026-04-10T01:42:00.04Z</time></trkpt><trkpt lat="32.2537558" lon="-110.6744483"><ele>857.5</ele><time>2026-04-10T01:42:01.039Z</time></trkpt><trkpt lat="32.2538392" lon="-110.6745825"><ele>857.0</ele><time>2026-04-10T01:42:02.041Z</time></trkpt><trkpt lat="32.253918" lon="-110.6747131"><ele>856.5</ele><time>2026-04-10T01:42:03.04Z</time></trkpt><trkpt lat="32.2539881" lon="-110.6748393"><ele>856.0</ele><time>2026-04-10T01:42:04.038Z</time></trkpt><trkpt lat="32.2540397" lon="-110.6749635"><ele>856.0</ele><time>2026-04-10T01:42:05.039Z</time></trkpt><trkpt lat="32.2540696" lon="-110.675093"><ele>856.0</ele><time>2026-04-10T01:42:06.039Z</time></trkpt><trkpt lat="32.2540744" lon="-110.6752277"><ele>856.0</ele><time>2026-04-10T01:42:07.038Z</time></trkpt><trkpt lat="32.254051" lon="-110.6753637"><ele>856.0</ele><time>2026-04-10T01:42:08.039Z</time></trkpt><trkpt lat="32.2539977" lon="-110.6754947"><ele>856.0</ele><time>2026-04-10T01:42:09.038Z</time></trkpt><trkpt lat="32.2539154" lon="-110.6756164"><ele>856.0</ele><time>2026-04-10T01:42:10.039Z</time></trkpt><trkpt lat="32.2538092" lon="-110.6757338"><ele>856.0</ele><time>2026-04-10T01:42:11.038Z</time></trkpt><trkpt lat="32.2536915" lon="-110.6758505"><ele>856.0</ele><time>2026-04-10T01:42:12.039Z</time></trkpt><trkpt lat="32.253568" lon="-110.6759773"><ele>858.0</ele><time>2026-04-10T01:42:13.039Z</time></trkpt><trkpt lat="32.2534433" lon="-110.6761206"><ele>860.0</ele><time>2026-04-10T01:42:14.039Z</time></trkpt><trkpt lat="32.2533225" lon="-110.676281"><ele>862.0</ele><time>2026-04-10T01:42:15.039Z</time></trkpt><trkpt lat="32.25321" lon="-110.6764555"><ele>859.0</ele><time>2026-04-10T01:42:16.038Z</time></trkpt><trkpt lat="32.2531067" lon="-110.6766392"><ele>856.0</ele><time>2026-04-10T01:42:17.038Z</time></trkpt><trkpt lat="32.253011" lon="-110.676829"><ele>853.0</ele><time>2026-04-10T01:42:18.039Z</time></trkpt><trkpt lat="32.2529187" lon="-110.6770184"><ele>853.0</ele><time>2026-04-10T01:42:19.039Z</time></trkpt><trkpt lat="32.2528258" lon="-110.6772051"><ele>853.0</ele><time>2026-04-10T01:42:20.039Z</time></trkpt><trkpt lat="32.2527327" lon="-110.677392"><ele>853.0</ele><time>2026-04-10T01:42:21.038Z</time></trkpt><trkpt lat="32.2526405" lon="-110.6775815"><ele>854.0</ele><time>2026-04-10T01:42:22.039Z</time></trkpt><trkpt lat="32.2525493" lon="-110.6777743"><ele>855.0</ele><time>2026-04-10T01:42:23.039Z</time></trkpt><trkpt lat="32.2524575" lon="-110.6779693"><ele>856.0</ele><time>2026-04-10T01:42:24.039Z</time></trkpt><trkpt lat="32.2523614" lon="-110.6781571"><ele>854.0</ele><time>2026-04-10T01:42:25.039Z</time></trkpt><trkpt lat="32.2522721" lon="-110.6783475"><ele>852.0</ele><time>2026-04-10T01:42:26.039Z</time></trkpt><trkpt lat="32.2521941" lon="-110.6785379"><ele>850.0</ele><time>2026-04-10T01:42:27.038Z</time></trkpt><trkpt lat="32.2521245" lon="-110.6787289"><ele>849.6666666666666</ele><time>2026-04-10T01:42:28.039Z</time></trkpt><trkpt lat="32.2520757" lon="-110.6789258"><ele>849.3333333333333</ele><time>2026-04-10T01:42:29.039Z</time></trkpt><trkpt lat="32.2520446" lon="-110.6791303"><ele>849.0</ele><time>2026-04-10T01:42:30.039Z</time></trkpt><trkpt lat="32.2520355" lon="-110.6793454"><ele>848.6666666666667</ele><time>2026-04-10T01:42:31.039Z</time></trkpt><trkpt lat="32.2520447" lon="-110.6795661"><ele>848.3333333333334</ele><time>2026-04-10T01:42:32.039Z</time></trkpt><trkpt lat="32.2520673" lon="-110.6797991"><ele>848.0</ele><time>2026-04-10T01:42:33.038Z</time></trkpt><trkpt lat="32.2520924" lon="-110.6800304"><ele>848.0</ele><time>2026-04-10T01:42:34.039Z</time></trkpt><trkpt lat="32.2521119" lon="-110.6802553"><ele>848.0</ele><time>2026-04-10T01:42:35.038Z</time></trkpt><trkpt lat="32.2521198" lon="-110.6804761"><ele>848.0</ele><time>2026-04-10T01:42:36.039Z</time></trkpt><trkpt lat="32.2521161" lon="-110.6806959"><ele>848.0</ele><time>2026-04-10T01:42:37.039Z</time></trkpt><trkpt lat="32.252089" lon="-110.6809299"><ele>848.0</ele><time>2026-04-10T01:42:38.039Z</time></trkpt><trkpt lat="32.2520585" lon="-110.6811746"><ele>848.0</ele><time>2026-04-10T01:42:39.039Z</time></trkpt><trkpt lat="32.2520226" lon="-110.6814123"><ele>848.0</ele><time>2026-04-10T01:42:40.039Z</time></trkpt><trkpt lat="32.2519812" lon="-110.6816471"><ele>848.0</ele><time>2026-04-10T01:42:41.039Z</time></trkpt><trkpt lat="32.2519359" lon="-110.681881"><ele>848.0</ele><time>2026-04-10T01:42:42.039Z</time></trkpt><trkpt lat="32.2518855" lon="-110.6821158"><ele>848.0</ele><time>2026-04-10T01:42:43.039Z</time></trkpt><trkpt lat="32.2518224" lon="-110.6823412"><ele>848.0</ele><time>2026-04-10T01:42:44.041Z</time></trkpt><trkpt lat="32.2517465" lon="-110.682562"><ele>848.0</ele><time>2026-04-10T01:42:45.04Z</time></trkpt><trkpt lat="32.2516659" lon="-110.6827778"><ele>849.0</ele><time>2026-04-10T01:42:46.039Z</time></trkpt><trkpt lat="32.2515826" lon="-110.6829927"><ele>850.0</ele><time>2026-04-10T01:42:47.04Z</time></trkpt><trkpt lat="32.2514984" lon="-110.6832055"><ele>851.0</ele><time>2026-04-10T01:42:48.039Z</time></trkpt><trkpt lat="32.2514149" lon="-110.6834177"><ele>849.0</ele><time>2026-04-10T01:42:49.04Z</time></trkpt><trkpt lat="32.2513358" lon="-110.6836324"><ele>847.0</ele><time>2026-04-10T01:42:50.04Z</time></trkpt><trkpt lat="32.2512549" lon="-110.6838451"><ele>845.0</ele><time>2026-04-10T01:42:51.04Z</time></trkpt><trkpt lat="32.2511769" lon="-110.6840585"><ele>845.0</ele><time>2026-04-10T01:42:52.042Z</time></trkpt><trkpt lat="32.2510948" lon="-110.6842687"><ele>845.0</ele><time>2026-04-10T01:42:53.039Z</time></trkpt><trkpt lat="32.2510163" lon="-110.6844706"><ele>845.0</ele><time>2026-04-10T01:42:54.039Z</time></trkpt><trkpt lat="32.2509373" lon="-110.684676"><ele>845.3333333333334</ele><time>2026-04-10T01:42:55.041Z</time></trkpt><trkpt lat="32.2508559" lon="-110.6848835"><ele>845.6666666666667</ele><time>2026-04-10T01:42:56.04Z</time></trkpt><trkpt lat="32.2507781" lon="-110.6850904"><ele>846.0</ele><time>2026-04-10T01:42:57.04Z</time></trkpt><trkpt lat="32.2506989" lon="-110.6852964"><ele>844.6666666666667</ele><time>2026-04-10T01:42:58.039Z</time></trkpt><trkpt lat="32.2506201" lon="-110.6855026"><ele>843.3333333333334</ele><time>2026-04-10T01:42:59.038Z</time></trkpt><trkpt lat="32.2505445" lon="-110.685713"><ele>842.0</ele><time>2026-04-10T01:43:00.04Z</time></trkpt><trkpt lat="32.2504702" lon="-110.6859271"><ele>842.3333333333334</ele><time>2026-04-10T01:43:01.039Z</time></trkpt><trkpt lat="32.2504035" lon="-110.6861428"><ele>842.6666666666667</ele><time>2026-04-10T01:43:02.039Z</time></trkpt><trkpt lat="32.2503458" lon="-110.686364"><ele>843.0</ele><time>2026-04-10T01:43:03.039Z</time></trkpt><trkpt lat="32.2502879" lon="-110.6865824"><ele>843.0</ele><time>2026-04-10T01:43:04.039Z</time></trkpt><trkpt lat="32.250228" lon="-110.6868028"><ele>843.0</ele><time>2026-04-10T01:43:05.039Z</time></trkpt><trkpt lat="32.2501661" lon="-110.687016"><ele>843.0</ele><time>2026-04-10T01:43:06.04Z</time></trkpt><trkpt lat="32.2501101" lon="-110.6872171"><ele>843.6666666666667</ele><time>2026-04-10T01:43:07.039Z</time></trkpt><trkpt lat="32.2500562" lon="-110.6874182"><ele>844.3333333333334</ele><time>2026-04-10T01:43:08.039Z</time></trkpt><trkpt lat="32.2499934" lon="-110.6876147"><ele>845.0</ele><time>2026-04-10T01:43:09.039Z</time></trkpt><trkpt lat="32.2499202" lon="-110.6878206"><ele>845.6666666666667</ele><time>2026-04-10T01:43:10.039Z</time></trkpt><trkpt lat="32.2498402" lon="-110.6880249"><ele>846.3333333333333</ele><time>2026-04-10T01:43:11.039Z</time></trkpt><trkpt lat="32.249753" lon="-110.6882441"><ele>847.0</ele><time>2026-04-10T01:43:12.039Z</time></trkpt><trkpt lat="32.2496603" lon="-110.6884694"><ele>845.3333333333333</ele><time>2026-04-10T01:43:13.039Z</time></trkpt><trkpt lat="32.2495644" lon="-110.688695"><ele>843.6666666666667</ele><time>2026-04-10T01:43:14.039Z</time></trkpt><trkpt lat="32.2494702" lon="-110.6889248"><ele>842.0</ele><time>2026-04-10T01:43:15.039Z</time></trkpt><trkpt lat="32.2493729" lon="-110.6891565"><ele>842.0</ele><time>2026-04-10T01:43:16.039Z</time></trkpt><trkpt lat="32.2492764" lon="-110.6893823"><ele>842.0</ele><time>2026-04-10T01:43:17.039Z</time></trkpt><trkpt lat="32.2491811" lon="-110.6896024"><ele>842.0</ele><time>2026-04-10T01:43:18.04Z</time></trkpt><trkpt lat="32.2490882" lon="-110.6898192"><ele>842.3333333333334</ele><time>2026-04-10T01:43:19.04Z</time></trkpt><trkpt lat="32.2489974" lon="-110.6900349"><ele>842.6666666666667</ele><time>2026-04-10T01:43:20.039Z</time></trkpt><trkpt lat="32.2489112" lon="-110.6902432"><ele>843.0</ele><time>2026-04-10T01:43:21.039Z</time></trkpt><trkpt lat="32.2488268" lon="-110.6904498"><ele>842.0</ele><time>2026-04-10T01:43:22.04Z</time></trkpt><trkpt lat="32.2487467" lon="-110.6906475"><ele>841.0</ele><time>2026-04-10T01:43:23.039Z</time></trkpt><trkpt lat="32.2486795" lon="-110.6908543"><ele>840.0</ele><time>2026-04-10T01:43:24.04Z</time></trkpt><trkpt lat="32.2486287" lon="-110.6910727"><ele>840.0</ele><time>2026-04-10T01:43:25.039Z</time></trkpt><trkpt lat="32.2485887" lon="-110.6913041"><ele>840.0</ele><time>2026-04-10T01:43:26.038Z</time></trkpt><trkpt lat="32.2485714" lon="-110.6915405"><ele>840.0</ele><time>2026-04-10T01:43:27.039Z</time></trkpt><trkpt lat="32.2485768" lon="-110.6917745"><ele>839.6666666666667</ele><time>2026-04-10T01:43:28.04Z</time></trkpt><trkpt lat="32.2486058" lon="-110.6920089"><ele>839.3333333333334</ele><time>2026-04-10T01:43:29.042Z</time></trkpt><trkpt lat="32.248644" lon="-110.692241"><ele>839.0</ele><time>2026-04-10T01:43:30.04Z</time></trkpt><trkpt lat="32.2486928" lon="-110.6924661"><ele>839.0</ele><time>2026-04-10T01:43:31.038Z</time></trkpt><trkpt lat="32.2487499" lon="-110.6926817"><ele>839.0</ele><time>2026-04-10T01:43:32.039Z</time></trkpt><trkpt lat="32.2488097" lon="-110.6928986"><ele>839.0</ele><time>2026-04-10T01:43:33.039Z</time></trkpt><trkpt lat="32.24887" lon="-110.6931216"><ele>840.0</ele><time>2026-04-10T01:43:34.04Z</time></trkpt><trkpt lat="32.2489315" lon="-110.6933451"><ele>841.0</ele><time>2026-04-10T01:43:35.04Z</time></trkpt><trkpt lat="32.2489923" lon="-110.6935619"><ele>842.0</ele><time>2026-04-10T01:43:36.04Z</time></trkpt><trkpt lat="32.249038" lon="-110.6937803"><ele>843.0</ele><time>2026-04-10T01:43:37.039Z</time></trkpt><trkpt lat="32.2490744" lon="-110.6940039"><ele>844.0</ele><time>2026-04-10T01:43:38.04Z</time></trkpt><trkpt lat="32.2490978" lon="-110.6942296"><ele>845.0</ele><time>2026-04-10T01:43:39.039Z</time></trkpt><trkpt lat="32.2491032" lon="-110.6944606"><ele>845.0</ele><time>2026-04-10T01:43:40.041Z</time></trkpt><trkpt lat="32.2490877" lon="-110.6946936"><ele>845.0</ele><time>2026-04-10T01:43:41.04Z</time></trkpt><trkpt lat="32.2490485" lon="-110.6949258"><ele>845.0</ele><time>2026-04-10T01:43:42.043Z</time></trkpt><trkpt lat="32.2489957" lon="-110.6951597"><ele>843.0</ele><time>2026-04-10T01:43:43.039Z</time></trkpt><trkpt lat="32.2489366" lon="-110.6953972"><ele>841.0</ele><time>2026-04-10T01:43:44.04Z</time></trkpt><trkpt lat="32.2488738" lon="-110.6956293"><ele>839.0</ele><time>2026-04-10T01:43:45.041Z</time></trkpt><trkpt lat="32.2488122" lon="-110.695859"><ele>839.0</ele><time>2026-04-10T01:43:46.043Z</time></trkpt><trkpt lat="32.2487511" lon="-110.6960794"><ele>839.0</ele><time>2026-04-10T01:43:47.04Z</time></trkpt><trkpt lat="32.248691" lon="-110.6963037"><ele>839.0</ele><time>2026-04-10T01:43:48.039Z</time></trkpt><trkpt lat="32.2486306" lon="-110.6965303"><ele>839.0</ele><time>2026-04-10T01:43:49.04Z</time></trkpt><trkpt lat="32.2485745" lon="-110.6967569"><ele>839.0</ele><time>2026-04-10T01:43:50.04Z</time></trkpt><trkpt lat="32.2485296" lon="-110.6969769"><ele>839.0</ele><time>2026-04-10T01:43:51.041Z</time></trkpt><trkpt lat="32.2485203" lon="-110.6971892"><ele>839.0</ele><time>2026-04-10T01:43:52.04Z</time></trkpt><trkpt lat="32.2485301" lon="-110.6973989"><ele>839.0</ele><time>2026-04-10T01:43:53.038Z</time></trkpt><trkpt lat="32.2485635" lon="-110.6976156"><ele>839.0</ele><time>2026-04-10T01:43:54.04Z</time></trkpt><trkpt lat="32.2486152" lon="-110.6978389"><ele>839.3333333333334</ele><time>2026-04-10T01:43:55.04Z</time></trkpt><trkpt lat="32.248677" lon="-110.6980782"><ele>839.6666666666667</ele><time>2026-04-10T01:43:56.041Z</time></trkpt><trkpt lat="32.2487356" lon="-110.6983228"><ele>840.0</ele><time>2026-04-10T01:43:57.04Z</time></trkpt><trkpt lat="32.2487915" lon="-110.6985594"><ele>839.6666666666667</ele><time>2026-04-10T01:43:58.04Z</time></trkpt><trkpt lat="32.2488572" lon="-110.6987989"><ele>839.3333333333334</ele><time>2026-04-10T01:43:59.04Z</time></trkpt><trkpt lat="32.248918" lon="-110.6990409"><ele>839.0</ele><time>2026-04-10T01:44:00.04Z</time></trkpt><trkpt lat="32.2489853" lon="-110.6992908"><ele>839.6666666666667</ele><time>2026-04-10T01:44:01.04Z</time></trkpt><trkpt lat="32.2490499" lon="-110.6995432"><ele>840.3333333333333</ele><time>2026-04-10T01:44:02.041Z</time></trkpt><trkpt lat="32.2491152" lon="-110.6997905"><ele>841.0</ele><time>2026-04-10T01:44:03.04Z</time></trkpt><trkpt lat="32.2491803" lon="-110.7000353"><ele>841.3333333333333</ele><time>2026-04-10T01:44:04.04Z</time></trkpt><trkpt lat="32.2492452" lon="-110.7002841"><ele>841.6666666666667</ele><time>2026-04-10T01:44:05.04Z</time></trkpt><trkpt lat="32.2493117" lon="-110.7005341"><ele>842.0</ele><time>2026-04-10T01:44:06.04Z</time></trkpt><trkpt lat="32.249379" lon="-110.7007887"><ele>842.0</ele><time>2026-04-10T01:44:07.04Z</time></trkpt><trkpt lat="32.2494477" lon="-110.7010456"><ele>842.0</ele><time>2026-04-10T01:44:08.04Z</time></trkpt><trkpt lat="32.2495121" lon="-110.7013017"><ele>841.0</ele><time>2026-04-10T01:44:09.041Z</time></trkpt><trkpt lat="32.2495791" lon="-110.7015509"><ele>840.0</ele><time>2026-04-10T01:44:10.04Z</time></trkpt><trkpt lat="32.249642" lon="-110.7018014"><ele>839.0</ele><time>2026-04-10T01:44:11.04Z</time></trkpt><trkpt lat="32.2497045" lon="-110.7020524"><ele>839.0</ele><time>2026-04-10T01:44:12.041Z</time></trkpt><trkpt lat="32.24977" lon="-110.7023037"><ele>839.0</ele><time>2026-04-10T01:44:13.041Z</time></trkpt><trkpt lat="32.2498353" lon="-110.702551"><ele>839.0</ele><time>2026-04-10T01:44:14.041Z</time></trkpt><trkpt lat="32.2499016" lon="-110.7028037"><ele>839.3333333333334</ele><time>2026-04-10T01:44:15.04Z</time></trkpt><trkpt lat="32.2499642" lon="-110.7030509"><ele>839.6666666666667</ele><time>2026-04-10T01:44:16.04Z</time></trkpt><trkpt lat="32.2500273" lon="-110.7032936"><ele>840.0</ele><time>2026-04-10T01:44:17.04Z</time></trkpt><trkpt lat="32.2500858" lon="-110.7035349"><ele>839.0</ele><time>2026-04-10T01:44:18.039Z</time></trkpt><trkpt lat="32.2501453" lon="-110.7037717"><ele>838.0</ele><time>2026-04-10T01:44:19.041Z</time></trkpt><trkpt lat="32.2502057" lon="-110.7040091"><ele>837.0</ele><time>2026-04-10T01:44:20.04Z</time></trkpt><trkpt lat="32.2502661" lon="-110.7042468"><ele>836.0</ele><time>2026-04-10T01:44:21.04Z</time></trkpt><trkpt lat="32.2503304" lon="-110.704486"><ele>835.0</ele><time>2026-04-10T01:44:22.04Z</time></trkpt><trkpt lat="32.2503954" lon="-110.7047298"><ele>834.0</ele><time>2026-04-10T01:44:23.041Z</time></trkpt><trkpt lat="32.2504612" lon="-110.704974"><ele>834.0</ele><time>2026-04-10T01:44:24.04Z</time></trkpt><trkpt lat="32.2505251" lon="-110.7052193"><ele>834.0</ele><time>2026-04-10T01:44:25.04Z</time></trkpt><trkpt lat="32.2505872" lon="-110.7054604"><ele>834.0</ele><time>2026-04-10T01:44:26.04Z</time></trkpt><trkpt lat="32.2506479" lon="-110.7057005"><ele>834.3333333333333</ele><time>2026-04-10T01:44:27.04Z</time></trkpt><trkpt lat="32.2507105" lon="-110.7059358"><ele>834.6666666666666</ele><time>2026-04-10T01:44:28.041Z</time></trkpt><trkpt lat="32.2507714" lon="-110.7061672"><ele>835.0</ele><time>2026-04-10T01:44:29.041Z</time></trkpt><trkpt lat="32.2508294" lon="-110.706394"><ele>835.3333333333333</ele><time>2026-04-10T01:44:30.039Z</time></trkpt><trkpt lat="32.25089" lon="-110.7066216"><ele>835.6666666666667</ele><time>2026-04-10T01:44:31.041Z</time></trkpt><trkpt lat="32.250949" lon="-110.7068441"><ele>836.0</ele><time>2026-04-10T01:44:32.04Z</time></trkpt><trkpt lat="32.2510041" lon="-110.7070644"><ele>836.0</ele><time>2026-04-10T01:44:33.04Z</time></trkpt><trkpt lat="32.2510452" lon="-110.7072806"><ele>836.0</ele><time>2026-04-10T01:44:34.04Z</time></trkpt><trkpt lat="32.2510781" lon="-110.7075052"><ele>836.0</ele><time>2026-04-10T01:44:35.041Z</time></trkpt><trkpt lat="32.2511016" lon="-110.7077448"><ele>835.3333333333334</ele><time>2026-04-10T01:44:36.04Z</time></trkpt><trkpt lat="32.251114" lon="-110.7079992"><ele>834.6666666666667</ele><time>2026-04-10T01:44:37.04Z</time></trkpt><trkpt lat="32.2511206" lon="-110.7082545"><ele>834.0</ele><time>2026-04-10T01:44:38.039Z</time></trkpt><trkpt lat="32.2511238" lon="-110.7085123"><ele>834.0</ele><time>2026-04-10T01:44:39.041Z</time></trkpt><trkpt lat="32.2511262" lon="-110.7087666"><ele>834.0</ele><time>2026-04-10T01:44:40.04Z</time></trkpt><trkpt lat="32.2511259" lon="-110.709018"><ele>834.0</ele><time>2026-04-10T01:44:41.041Z</time></trkpt><trkpt lat="32.2511261" lon="-110.7092713"><ele>834.6666666666667</ele><time>2026-04-10T01:44:42.041Z</time></trkpt><trkpt lat="32.2511274" lon="-110.7095231"><ele>835.3333333333334</ele><time>2026-04-10T01:44:43.04Z</time></trkpt><trkpt lat="32.2511257" lon="-110.7097725"><ele>836.0</ele><time>2026-04-10T01:44:44.04Z</time></trkpt><trkpt lat="32.2511253" lon="-110.7100219"><ele>835.3333333333334</ele><time>2026-04-10T01:44:45.04Z</time></trkpt><trkpt lat="32.251126" lon="-110.7102706"><ele>834.6666666666667</ele><time>2026-04-10T01:44:46.043Z</time></trkpt><trkpt lat="32.2511263" lon="-110.7105202"><ele>834.0</ele><time>2026-04-10T01:44:47.04Z</time></trkpt><trkpt lat="32.2511267" lon="-110.7107683"><ele>834.0</ele><time>2026-04-10T01:44:48.04Z</time></trkpt><trkpt lat="32.2511237" lon="-110.7110176"><ele>834.0</ele><time>2026-04-10T01:44:49.04Z</time></trkpt><trkpt lat="32.251122" lon="-110.7112706"><ele>834.0</ele><time>2026-04-10T01:44:50.041Z</time></trkpt><trkpt lat="32.2511216" lon="-110.7115254"><ele>833.3333333333333</ele><time>2026-04-10T01:44:51.043Z</time></trkpt><trkpt lat="32.25112" lon="-110.7117794"><ele>832.6666666666666</ele><time>2026-04-10T01:44:52.041Z</time></trkpt><trkpt lat="32.2511198" lon="-110.7120334"><ele>832.0</ele><time>2026-04-10T01:44:53.043Z</time></trkpt><trkpt lat="32.2511191" lon="-110.7122844"><ele>831.6666666666666</ele><time>2026-04-10T01:44:54.04Z</time></trkpt><trkpt lat="32.2511182" lon="-110.7125353"><ele>831.3333333333333</ele><time>2026-04-10T01:44:55.04Z</time></trkpt><trkpt lat="32.2511188" lon="-110.7127859"><ele>831.0</ele><time>2026-04-10T01:44:56.04Z</time></trkpt><trkpt lat="32.2511204" lon="-110.7130389"><ele>831.0</ele><time>2026-04-10T01:44:57.041Z</time></trkpt><trkpt lat="32.2511206" lon="-110.7132933"><ele>831.0</ele><time>2026-04-10T01:44:58.04Z</time></trkpt><trkpt lat="32.2511202" lon="-110.7135495"><ele>831.0</ele><time>2026-04-10T01:44:59.04Z</time></trkpt><trkpt lat="32.2511204" lon="-110.7138097"><ele>831.0</ele><time>2026-04-10T01:45:00.04Z</time></trkpt><trkpt lat="32.2511188" lon="-110.7140674"><ele>831.0</ele><time>2026-04-10T01:45:01.04Z</time></trkpt><trkpt lat="32.2511168" lon="-110.7143256"><ele>831.0</ele><time>2026-04-10T01:45:02.04Z</time></trkpt><trkpt lat="32.2511161" lon="-110.7145792"><ele>831.6666666666667</ele><time>2026-04-10T01:45:03.043Z</time></trkpt><trkpt lat="32.2511147" lon="-110.7148297"><ele>832.3333333333334</ele><time>2026-04-10T01:45:04.04Z</time></trkpt><trkpt lat="32.2511128" lon="-110.7150862"><ele>833.0</ele><time>2026-04-10T01:45:05.041Z</time></trkpt><trkpt lat="32.2511114" lon="-110.7153423"><ele>833.0</ele><time>2026-04-10T01:45:06.04Z</time></trkpt><trkpt lat="32.251111" lon="-110.7155974"><ele>833.0</ele><time>2026-04-10T01:45:07.041Z</time></trkpt><trkpt lat="32.2511097" lon="-110.7158512"><ele>833.0</ele><time>2026-04-10T01:45:08.04Z</time></trkpt><trkpt lat="32.2511089" lon="-110.7161054"><ele>832.6666666666667</ele><time>2026-04-10T01:45:09.043Z</time></trkpt><trkpt lat="32.2511085" lon="-110.7163634"><ele>832.3333333333333</ele><time>2026-04-10T01:45:10.04Z</time></trkpt><trkpt lat="32.2511055" lon="-110.7166207"><ele>832.0</ele><time>2026-04-10T01:45:11.04Z</time></trkpt><trkpt lat="32.2511047" lon="-110.7168804"><ele>831.6666666666666</ele><time>2026-04-10T01:45:12.04Z</time></trkpt><trkpt lat="32.2511047" lon="-110.7171427"><ele>831.3333333333333</ele><time>2026-04-10T01:45:13.04Z</time></trkpt><trkpt lat="32.2511023" lon="-110.7174036"><ele>831.0</ele><time>2026-04-10T01:45:14.04Z</time></trkpt><trkpt lat="32.2511005" lon="-110.7176627"><ele>830.0</ele><time>2026-04-10T01:45:15.04Z</time></trkpt><trkpt lat="32.2510986" lon="-110.71792"><ele>829.0</ele><time>2026-04-10T01:45:16.04Z</time></trkpt><trkpt lat="32.2510982" lon="-110.7181773"><ele>828.0</ele><time>2026-04-10T01:45:17.04Z</time></trkpt><trkpt lat="32.2510989" lon="-110.718434"><ele>828.3333333333333</ele><time>2026-04-10T01:45:18.04Z</time></trkpt><trkpt lat="32.2510975" lon="-110.7186949"><ele>828.6666666666666</ele><time>2026-04-10T01:45:19.042Z</time></trkpt><trkpt lat="32.2510978" lon="-110.7189521"><ele>829.0</ele><time>2026-04-10T01:45:20.041Z</time></trkpt><trkpt lat="32.2510965" lon="-110.719207"><ele>829.3333333333333</ele><time>2026-04-10T01:45:21.041Z</time></trkpt><trkpt lat="32.2510958" lon="-110.7194582"><ele>829.6666666666667</ele><time>2026-04-10T01:45:22.041Z</time></trkpt><trkpt lat="32.2510955" lon="-110.7197092"><ele>830.0</ele><time>2026-04-10T01:45:23.04Z</time></trkpt><trkpt lat="32.2510959" lon="-110.7199588"><ele>830.0</ele><time>2026-04-10T01:45:24.042Z</time></trkpt><trkpt lat="32.2510966" lon="-110.7201995"><ele>830.0</ele><time>2026-04-10T01:45:25.04Z</time></trkpt><trkpt lat="32.2510973" lon="-110.7204373"><ele>830.0</ele><time>2026-04-10T01:45:26.041Z</time></trkpt><trkpt lat="32.2510946" lon="-110.7206741"><ele>828.3333333333334</ele><time>2026-04-10T01:45:27.041Z</time></trkpt><trkpt lat="32.2510934" lon="-110.7209132"><ele>826.6666666666667</ele><time>2026-04-10T01:45:28.039Z</time></trkpt><trkpt lat="32.2510929" lon="-110.7211494"><ele>825.0</ele><time>2026-04-10T01:45:29.041Z</time></trkpt><trkpt lat="32.251094" lon="-110.7213928"><ele>824.3333333333333</ele><time>2026-04-10T01:45:30.042Z</time></trkpt><trkpt lat="32.2510946" lon="-110.7216385"><ele>823.6666666666666</ele><time>2026-04-10T01:45:31.041Z</time></trkpt><trkpt lat="32.2510961" lon="-110.721882"><ele>823.0</ele><time>2026-04-10T01:45:32.041Z</time></trkpt><trkpt lat="32.2510957" lon="-110.7221311"><ele>823.0</ele><time>2026-04-10T01:45:33.041Z</time></trkpt><trkpt lat="32.2510957" lon="-110.7223858"><ele>823.0</ele><time>2026-04-10T01:45:34.04Z</time></trkpt><trkpt lat="32.2510945" lon="-110.7226433"><ele>823.0</ele><time>2026-04-10T01:45:35.043Z</time></trkpt><trkpt lat="32.2510941" lon="-110.7229011"><ele>822.3333333333333</ele><time>2026-04-10T01:45:36.041Z</time></trkpt><trkpt lat="32.2510938" lon="-110.7231618"><ele>821.6666666666667</ele><time>2026-04-10T01:45:37.041Z</time></trkpt><trkpt lat="32.2510938" lon="-110.7234188"><ele>821.0</ele><time>2026-04-10T01:45:38.041Z</time></trkpt><trkpt lat="32.251091" lon="-110.7236764"><ele>820.6666666666667</ele><time>2026-04-10T01:45:39.041Z</time></trkpt><trkpt lat="32.2510878" lon="-110.7239345"><ele>820.3333333333333</ele><time>2026-04-10T01:45:40.042Z</time></trkpt><trkpt lat="32.2510872" lon="-110.7241932"><ele>820.0</ele><time>2026-04-10T01:45:41.042Z</time></trkpt><trkpt lat="32.2510876" lon="-110.7244487"><ele>819.6666666666666</ele><time>2026-04-10T01:45:42.043Z</time></trkpt><trkpt lat="32.2510883" lon="-110.724707"><ele>819.3333333333333</ele><time>2026-04-10T01:45:43.041Z</time></trkpt><trkpt lat="32.2510872" lon="-110.7249685"><ele>819.0</ele><time>2026-04-10T01:45:44.041Z</time></trkpt><trkpt lat="32.2510854" lon="-110.7252296"><ele>818.0</ele><time>2026-04-10T01:45:45.04Z</time></trkpt><trkpt lat="32.2510836" lon="-110.7254847"><ele>817.0</ele><time>2026-04-10T01:45:46.042Z</time></trkpt><trkpt lat="32.2510827" lon="-110.7257392"><ele>816.0</ele><time>2026-04-10T01:45:47.042Z</time></trkpt><trkpt lat="32.2510828" lon="-110.7259924"><ele>816.0</ele><time>2026-04-10T01:45:48.042Z</time></trkpt><trkpt lat="32.2510833" lon="-110.7262442"><ele>816.0</ele><time>2026-04-10T01:45:49.041Z</time></trkpt><trkpt lat="32.2510839" lon="-110.7264932"><ele>816.0</ele><time>2026-04-10T01:45:50.041Z</time></trkpt><trkpt lat="32.2510844" lon="-110.7267416"><ele>815.6666666666667</ele><time>2026-04-10T01:45:51.042Z</time></trkpt><trkpt lat="32.2510854" lon="-110.726993"><ele>815.3333333333334</ele><time>2026-04-10T01:45:52.042Z</time></trkpt><trkpt lat="32.2510868" lon="-110.7272543"><ele>815.0</ele><time>2026-04-10T01:45:53.041Z</time></trkpt><trkpt lat="32.2510889" lon="-110.727533"><ele>815.5</ele><time>2026-04-10T01:45:54.041Z</time></trkpt><trkpt lat="32.2510924" lon="-110.7278102"><ele>816.0</ele><time>2026-04-10T01:45:55.041Z</time></trkpt><trkpt lat="32.2510969" lon="-110.7280805"><ele>816.0</ele><time>2026-04-10T01:45:56.041Z</time></trkpt><trkpt lat="32.2511016" lon="-110.7283465"><ele>816.0</ele><time>2026-04-10T01:45:57.041Z</time></trkpt><trkpt lat="32.2511047" lon="-110.7286084"><ele>816.0</ele><time>2026-04-10T01:45:58.04Z</time></trkpt><trkpt lat="32.2511085" lon="-110.7288729"><ele>815.6666666666667</ele><time>2026-04-10T01:45:59.042Z</time></trkpt><trkpt lat="32.2511074" lon="-110.7291361"><ele>815.3333333333334</ele><time>2026-04-10T01:46:00.041Z</time></trkpt><trkpt lat="32.2511116" lon="-110.7294009"><ele>815.0</ele><time>2026-04-10T01:46:01.041Z</time></trkpt><trkpt lat="32.2511131" lon="-110.7296662"><ele>814.0</ele><time>2026-04-10T01:46:02.041Z</time></trkpt><trkpt lat="32.2511132" lon="-110.7299313"><ele>813.0</ele><time>2026-04-10T01:46:03.041Z</time></trkpt><trkpt lat="32.2511147" lon="-110.7302022"><ele>813.0</ele><time>2026-04-10T01:46:04.041Z</time></trkpt><trkpt lat="32.2511139" lon="-110.7304705"><ele>813.0</ele><time>2026-04-10T01:46:05.04Z</time></trkpt><trkpt lat="32.2511139" lon="-110.7307423"><ele>813.0</ele><time>2026-04-10T01:46:06.041Z</time></trkpt><trkpt lat="32.2511084" lon="-110.7310148"><ele>813.0</ele><time>2026-04-10T01:46:07.041Z</time></trkpt><trkpt lat="32.2511067" lon="-110.7312863"><ele>813.5</ele><time>2026-04-10T01:46:08.041Z</time></trkpt><trkpt lat="32.2511041" lon="-110.7315582"><ele>814.0</ele><time>2026-04-10T01:46:09.041Z</time></trkpt><trkpt lat="32.2510992" lon="-110.7318272"><ele>813.0</ele><time>2026-04-10T01:46:10.041Z</time></trkpt><trkpt lat="32.2510963" lon="-110.7320907"><ele>812.0</ele><time>2026-04-10T01:46:11.04Z</time></trkpt><trkpt lat="32.251095" lon="-110.7323552"><ele>811.0</ele><time>2026-04-10T01:46:12.04Z</time></trkpt><trkpt lat="32.2510899" lon="-110.7326218"><ele>811.0</ele><time>2026-04-10T01:46:13.041Z</time></trkpt><trkpt lat="32.2510875" lon="-110.7328865"><ele>811.0</ele><time>2026-04-10T01:46:14.043Z</time></trkpt><trkpt lat="32.2510866" lon="-110.7331479"><ele>811.0</ele><time>2026-04-10T01:46:15.042Z</time></trkpt><trkpt lat="32.2510866" lon="-110.7334084"><ele>811.0</ele><time>2026-04-10T01:46:16.041Z</time></trkpt><trkpt lat="32.2510848" lon="-110.7336676"><ele>811.0</ele><time>2026-04-10T01:46:17.041Z</time></trkpt><trkpt lat="32.251083" lon="-110.7339256"><ele>811.0</ele><time>2026-04-10T01:46:18.041Z</time></trkpt><trkpt lat="32.2510801" lon="-110.7341791"><ele>810.3333333333333</ele><time>2026-04-10T01:46:19.043Z</time></trkpt><trkpt lat="32.2510772" lon="-110.7344366"><ele>809.6666666666667</ele><time>2026-04-10T01:46:20.042Z</time></trkpt><trkpt lat="32.2510723" lon="-110.7346903"><ele>809.0</ele><time>2026-04-10T01:46:21.042Z</time></trkpt><trkpt lat="32.2510702" lon="-110.7349378"><ele>809.0</ele><time>2026-04-10T01:46:22.041Z</time></trkpt><trkpt lat="32.2510704" lon="-110.7351799"><ele>809.0</ele><time>2026-04-10T01:46:23.041Z</time></trkpt><trkpt lat="32.251068" lon="-110.7354207"><ele>809.0</ele><time>2026-04-10T01:46:24.041Z</time></trkpt><trkpt lat="32.2510682" lon="-110.7356498"><ele>809.0</ele><time>2026-04-10T01:46:25.042Z</time></trkpt><trkpt lat="32.2510669" lon="-110.7358708"><ele>809.0</ele><time>2026-04-10T01:46:26.041Z</time></trkpt><trkpt lat="32.2510682" lon="-110.7360925"><ele>809.0</ele><time>2026-04-10T01:46:27.041Z</time></trkpt><trkpt lat="32.2510672" lon="-110.7363227"><ele>809.0</ele><time>2026-04-10T01:46:28.04Z</time></trkpt><trkpt lat="32.2510687" lon="-110.7365574"><ele>809.0</ele><time>2026-04-10T01:46:29.041Z</time></trkpt><trkpt lat="32.2510679" lon="-110.7367973"><ele>809.0</ele><time>2026-04-10T01:46:30.042Z</time></trkpt><trkpt lat="32.2510679" lon="-110.7370449"><ele>807.6666666666667</ele><time>2026-04-10T01:46:31.041Z</time></trkpt><trkpt lat="32.2510664" lon="-110.7373019"><ele>806.3333333333333</ele><time>2026-04-10T01:46:32.042Z</time></trkpt><trkpt lat="32.2510658" lon="-110.7375621"><ele>805.0</ele><time>2026-04-10T01:46:33.042Z</time></trkpt><trkpt lat="32.2510641" lon="-110.737827"><ele>805.0</ele><time>2026-04-10T01:46:34.041Z</time></trkpt><trkpt lat="32.2510635" lon="-110.7380844"><ele>805.0</ele><time>2026-04-10T01:46:35.041Z</time></trkpt><trkpt lat="32.2510646" lon="-110.738335"><ele>805.0</ele><time>2026-04-10T01:46:36.041Z</time></trkpt><trkpt lat="32.2510676" lon="-110.7385849"><ele>805.0</ele><time>2026-04-10T01:46:37.041Z</time></trkpt><trkpt lat="32.2510703" lon="-110.7388299"><ele>805.0</ele><time>2026-04-10T01:46:38.041Z</time></trkpt><trkpt lat="32.2510743" lon="-110.7390692"><ele>805.0</ele><time>2026-04-10T01:46:39.041Z</time></trkpt><trkpt lat="32.2510776" lon="-110.7393038"><ele>804.6666666666666</ele><time>2026-04-10T01:46:40.041Z</time></trkpt><trkpt lat="32.2510778" lon="-110.7395364"><ele>804.3333333333333</ele><time>2026-04-10T01:46:41.041Z</time></trkpt><trkpt lat="32.2510784" lon="-110.7397698"><ele>804.0</ele><time>2026-04-10T01:46:42.041Z</time></trkpt><trkpt lat="32.2510765" lon="-110.7400033"><ele>803.3333333333333</ele><time>2026-04-10T01:46:43.041Z</time></trkpt><trkpt lat="32.2510726" lon="-110.7402407"><ele>802.6666666666666</ele><time>2026-04-10T01:46:44.041Z</time></trkpt><trkpt lat="32.2510709" lon="-110.7404762"><ele>802.0</ele><time>2026-04-10T01:46:45.041Z</time></trkpt><trkpt lat="32.2510701" lon="-110.7407144"><ele>802.0</ele><time>2026-04-10T01:46:46.041Z</time></trkpt><trkpt lat="32.2510691" lon="-110.7409567"><ele>802.0</ele><time>2026-04-10T01:46:47.044Z</time></trkpt><trkpt lat="32.2510658" lon="-110.7412018"><ele>802.0</ele><time>2026-04-10T01:46:48.041Z</time></trkpt><trkpt lat="32.2510625" lon="-110.7414481"><ele>802.0</ele><time>2026-04-10T01:46:49.042Z</time></trkpt><trkpt lat="32.2510609" lon="-110.7416962"><ele>802.0</ele><time>2026-04-10T01:46:50.041Z</time></trkpt><trkpt lat="32.2510574" lon="-110.7419401"><ele>802.0</ele><time>2026-04-10T01:46:51.041Z</time></trkpt><trkpt lat="32.2510578" lon="-110.7421775"><ele>802.0</ele><time>2026-04-10T01:46:52.042Z</time></trkpt><trkpt lat="32.2510548" lon="-110.742411"><ele>802.0</ele><time>2026-04-10T01:46:53.041Z</time></trkpt><trkpt lat="32.2510555" lon="-110.7426455"><ele>802.0</ele><time>2026-04-10T01:46:54.042Z</time></trkpt><trkpt lat="32.2510536" lon="-110.7428824"><ele>801.6666666666666</ele><time>2026-04-10T01:46:55.041Z</time></trkpt><trkpt lat="32.2510522" lon="-110.7431196"><ele>801.3333333333333</ele><time>2026-04-10T01:46:56.041Z</time></trkpt><trkpt lat="32.251052" lon="-110.7433562"><ele>801.0</ele><time>2026-04-10T01:46:57.041Z</time></trkpt><trkpt lat="32.2510533" lon="-110.7435867"><ele>800.6666666666667</ele><time>2026-04-10T01:46:58.042Z</time></trkpt><trkpt lat="32.2510506" lon="-110.743815"><ele>800.3333333333334</ele><time>2026-04-10T01:46:59.041Z</time></trkpt><trkpt lat="32.2510504" lon="-110.7440459"><ele>800.0</ele><time>2026-04-10T01:47:00.042Z</time></trkpt><trkpt lat="32.2510487" lon="-110.7442752"><ele>800.0</ele><time>2026-04-10T01:47:01.04Z</time></trkpt><trkpt lat="32.251048" lon="-110.7444988"><ele>800.0</ele><time>2026-04-10T01:47:02.041Z</time></trkpt><trkpt lat="32.2510474" lon="-110.7447213"><ele>800.0</ele><time>2026-04-10T01:47:03.042Z</time></trkpt><trkpt lat="32.2510463" lon="-110.7449412"><ele>800.0</ele><time>2026-04-10T01:47:04.041Z</time></trkpt><trkpt lat="32.2510449" lon="-110.7451623"><ele>800.0</ele><time>2026-04-10T01:47:05.042Z</time></trkpt><trkpt lat="32.2510423" lon="-110.745383"><ele>800.0</ele><time>2026-04-10T01:47:06.042Z</time></trkpt><trkpt lat="32.2510411" lon="-110.7456004"><ele>800.0</ele><time>2026-04-10T01:47:07.042Z</time></trkpt><trkpt lat="32.2510399" lon="-110.7458163"><ele>800.0</ele><time>2026-04-10T01:47:08.041Z</time></trkpt><trkpt lat="32.2510373" lon="-110.7460376"><ele>800.0</ele><time>2026-04-10T01:47:09.043Z</time></trkpt><trkpt lat="32.2510368" lon="-110.7462588"><ele>799.3333333333334</ele><time>2026-04-10T01:47:10.041Z</time></trkpt><trkpt lat="32.2510354" lon="-110.7464774"><ele>798.6666666666667</ele><time>2026-04-10T01:47:11.041Z</time></trkpt><trkpt lat="32.2510358" lon="-110.7466965"><ele>798.0</ele><time>2026-04-10T01:47:12.042Z</time></trkpt><trkpt lat="32.2510371" lon="-110.7469166"><ele>798.0</ele><time>2026-04-10T01:47:13.041Z</time></trkpt><trkpt lat="32.2510368" lon="-110.7471324"><ele>798.0</ele><time>2026-04-10T01:47:14.042Z</time></trkpt><trkpt lat="32.2510401" lon="-110.7473478"><ele>798.0</ele><time>2026-04-10T01:47:15.042Z</time></trkpt><trkpt lat="32.2510434" lon="-110.747557"><ele>798.6666666666667</ele><time>2026-04-10T01:47:16.043Z</time></trkpt><trkpt lat="32.2510411" lon="-110.7477581"><ele>799.3333333333334</ele><time>2026-04-10T01:47:17.041Z</time></trkpt><trkpt lat="32.2510405" lon="-110.7479543"><ele>800.0</ele><time>2026-04-10T01:47:18.041Z</time></trkpt><trkpt lat="32.2510411" lon="-110.7481521"><ele>800.0</ele><time>2026-04-10T01:47:19.041Z</time></trkpt><trkpt lat="32.2510388" lon="-110.7483512"><ele>800.0</ele><time>2026-04-10T01:47:20.041Z</time></trkpt><trkpt lat="32.2510367" lon="-110.7485544"><ele>800.0</ele><time>2026-04-10T01:47:21.043Z</time></trkpt><trkpt lat="32.2510371" lon="-110.7487627"><ele>799.6666666666667</ele><time>2026-04-10T01:47:22.042Z</time></trkpt><trkpt lat="32.2510347" lon="-110.7489741"><ele>799.3333333333333</ele><time>2026-04-10T01:47:23.041Z</time></trkpt><trkpt lat="32.2510309" lon="-110.7491844"><ele>799.0</ele><time>2026-04-10T01:47:24.042Z</time></trkpt><trkpt lat="32.2510253" lon="-110.7494015"><ele>799.0</ele><time>2026-04-10T01:47:25.041Z</time></trkpt><trkpt lat="32.2510218" lon="-110.7496147"><ele>799.0</ele><time>2026-04-10T01:47:26.043Z</time></trkpt><trkpt lat="32.2510185" lon="-110.7498311"><ele>799.0</ele><time>2026-04-10T01:47:27.042Z</time></trkpt><trkpt lat="32.2510163" lon="-110.7500484"><ele>798.3333333333333</ele><time>2026-04-10T01:47:28.045Z</time></trkpt><trkpt lat="32.2510159" lon="-110.7502657"><ele>797.6666666666667</ele><time>2026-04-10T01:47:29.042Z</time></trkpt><trkpt lat="32.2510137" lon="-110.7504779"><ele>797.0</ele><time>2026-04-10T01:47:30.041Z</time></trkpt><trkpt lat="32.2510109" lon="-110.7506801"><ele>797.0</ele><time>2026-04-10T01:47:31.042Z</time></trkpt><trkpt lat="32.2510094" lon="-110.7508718"><ele>797.0</ele><time>2026-04-10T01:47:32.042Z</time></trkpt><trkpt lat="32.2510117" lon="-110.7510575"><ele>797.0</ele><time>2026-04-10T01:47:33.043Z</time></trkpt><trkpt lat="32.2510133" lon="-110.7512336"><ele>797.25</ele><time>2026-04-10T01:47:34.043Z</time></trkpt><trkpt lat="32.2510144" lon="-110.7513934"><ele>797.5</ele><time>2026-04-10T01:47:35.042Z</time></trkpt><trkpt lat="32.2510125" lon="-110.751546"><ele>797.75</ele><time>2026-04-10T01:47:36.042Z</time></trkpt><trkpt lat="32.2510132" lon="-110.7516948"><ele>798.0</ele><time>2026-04-10T01:47:37.042Z</time></trkpt><trkpt lat="32.2510134" lon="-110.7518488"><ele>798.5</ele><time>2026-04-10T01:47:38.042Z</time></trkpt><trkpt lat="32.2510125" lon="-110.7520038"><ele>799.0</ele><time>2026-04-10T01:47:39.043Z</time></trkpt><trkpt lat="32.2510133" lon="-110.7521581"><ele>799.5</ele><time>2026-04-10T01:47:40.042Z</time></trkpt><trkpt lat="32.251011" lon="-110.75231"><ele>800.0</ele><time>2026-04-10T01:47:41.041Z</time></trkpt><trkpt lat="32.2510103" lon="-110.7524637"><ele>800.0</ele><time>2026-04-10T01:47:42.042Z</time></trkpt><trkpt lat="32.2510098" lon="-110.7526231"><ele>800.0</ele><time>2026-04-10T01:47:43.042Z</time></trkpt><trkpt lat="32.251011" lon="-110.7527869"><ele>800.0</ele><time>2026-04-10T01:47:44.042Z</time></trkpt><trkpt lat="32.2510101" lon="-110.7529564"><ele>800.0</ele><time>2026-04-10T01:47:45.043Z</time></trkpt><trkpt lat="32.251009" lon="-110.7531356"><ele>800.3333333333334</ele><time>2026-04-10T01:47:46.042Z</time></trkpt><trkpt lat="32.2510095" lon="-110.7533199"><ele>800.6666666666667</ele><time>2026-04-10T01:47:47.042Z</time></trkpt><trkpt lat="32.2510077" lon="-110.7535119"><ele>801.0</ele><time>2026-04-10T01:47:48.042Z</time></trkpt><trkpt lat="32.2510039" lon="-110.753709"><ele>801.0</ele><time>2026-04-10T01:47:49.043Z</time></trkpt><trkpt lat="32.2510032" lon="-110.7539164"><ele>801.0</ele><time>2026-04-10T01:47:50.042Z</time></trkpt><trkpt lat="32.2510024" lon="-110.754129"><ele>801.0</ele><time>2026-04-10T01:47:51.042Z</time></trkpt><trkpt lat="32.251001" lon="-110.7543377"><ele>801.0</ele><time>2026-04-10T01:47:52.042Z</time></trkpt><trkpt lat="32.2509999" lon="-110.754555"><ele>801.0</ele><time>2026-04-10T01:47:53.042Z</time></trkpt><trkpt lat="32.2510037" lon="-110.754775"><ele>801.0</ele><time>2026-04-10T01:47:54.042Z</time></trkpt><trkpt lat="32.2510021" lon="-110.7550046"><ele>800.3333333333333</ele><time>2026-04-10T01:47:55.041Z</time></trkpt><trkpt lat="32.2510027" lon="-110.7552304"><ele>799.6666666666666</ele><time>2026-04-10T01:47:56.042Z</time></trkpt><trkpt lat="32.2509996" lon="-110.7554544"><ele>799.0</ele><time>2026-04-10T01:47:57.042Z</time></trkpt><trkpt lat="32.2510002" lon="-110.7556811"><ele>799.0</ele><time>2026-04-10T01:47:58.042Z</time></trkpt><trkpt lat="32.250998" lon="-110.7559128"><ele>799.0</ele><time>2026-04-10T01:47:59.043Z</time></trkpt><trkpt lat="32.2509985" lon="-110.7561423"><ele>799.0</ele><time>2026-04-10T01:48:00.042Z</time></trkpt><trkpt lat="32.2509973" lon="-110.7563824"><ele>799.0</ele><time>2026-04-10T01:48:01.042Z</time></trkpt><trkpt lat="32.2509941" lon="-110.7566304"><ele>799.0</ele><time>2026-04-10T01:48:02.042Z</time></trkpt><trkpt lat="32.2509917" lon="-110.7568789"><ele>799.0</ele><time>2026-04-10T01:48:03.042Z</time></trkpt><trkpt lat="32.2509918" lon="-110.7571309"><ele>798.3333333333333</ele><time>2026-04-10T01:48:04.042Z</time></trkpt><trkpt lat="32.2509911" lon="-110.7573874"><ele>797.6666666666667</ele><time>2026-04-10T01:48:05.043Z</time></trkpt><trkpt lat="32.250993" lon="-110.7576395"><ele>797.0</ele><time>2026-04-10T01:48:06.043Z</time></trkpt><trkpt lat="32.2509893" lon="-110.757897"><ele>796.6666666666667</ele><time>2026-04-10T01:48:07.045Z</time></trkpt><trkpt lat="32.2509889" lon="-110.7581474"><ele>796.3333333333333</ele><time>2026-04-10T01:48:08.042Z</time></trkpt><trkpt lat="32.25099" lon="-110.7584001"><ele>796.0</ele><time>2026-04-10T01:48:09.041Z</time></trkpt><trkpt lat="32.2509898" lon="-110.7586521"><ele>796.0</ele><time>2026-04-10T01:48:10.044Z</time></trkpt><trkpt lat="32.2509866" lon="-110.7589043"><ele>796.0</ele><time>2026-04-10T01:48:11.043Z</time></trkpt><trkpt lat="32.2509844" lon="-110.7591566"><ele>796.0</ele><time>2026-04-10T01:48:12.043Z</time></trkpt><trkpt lat="32.2509828" lon="-110.7594085"><ele>796.0</ele><time>2026-04-10T01:48:13.042Z</time></trkpt><trkpt lat="32.2509843" lon="-110.7596612"><ele>796.0</ele><time>2026-04-10T01:48:14.043Z</time></trkpt><trkpt lat="32.2509891" lon="-110.7599193"><ele>796.0</ele><time>2026-04-10T01:48:15.042Z</time></trkpt><trkpt lat="32.2509895" lon="-110.7601725"><ele>795.6666666666666</ele><time>2026-04-10T01:48:16.043Z</time></trkpt><trkpt lat="32.2509893" lon="-110.7604252"><ele>795.3333333333333</ele><time>2026-04-10T01:48:17.045Z</time></trkpt><trkpt lat="32.2509849" lon="-110.760675"><ele>795.0</ele><time>2026-04-10T01:48:18.043Z</time></trkpt><trkpt lat="32.2509837" lon="-110.7609245"><ele>794.6666666666667</ele><time>2026-04-10T01:48:19.042Z</time></trkpt><trkpt lat="32.2509858" lon="-110.7611743"><ele>794.3333333333334</ele><time>2026-04-10T01:48:20.042Z</time></trkpt><trkpt lat="32.2509865" lon="-110.7614188"><ele>794.0</ele><time>2026-04-10T01:48:21.044Z</time></trkpt><trkpt lat="32.250987" lon="-110.7616674"><ele>793.6666666666667</ele><time>2026-04-10T01:48:22.042Z</time></trkpt><trkpt lat="32.2509889" lon="-110.7619205"><ele>793.3333333333333</ele><time>2026-04-10T01:48:23.043Z</time></trkpt><trkpt lat="32.2509892" lon="-110.7621774"><ele>793.0</ele><time>2026-04-10T01:48:24.042Z</time></trkpt><trkpt lat="32.2509944" lon="-110.7624343"><ele>793.0</ele><time>2026-04-10T01:48:25.042Z</time></trkpt><trkpt lat="32.250999" lon="-110.7626899"><ele>793.0</ele><time>2026-04-10T01:48:26.042Z</time></trkpt><trkpt lat="32.2510051" lon="-110.7629498"><ele>793.0</ele><time>2026-04-10T01:48:27.042Z</time></trkpt><trkpt lat="32.2510103" lon="-110.7632102"><ele>792.6666666666666</ele><time>2026-04-10T01:48:28.042Z</time></trkpt><trkpt lat="32.251012" lon="-110.7634692"><ele>792.3333333333333</ele><time>2026-04-10T01:48:29.042Z</time></trkpt><trkpt lat="32.2510103" lon="-110.763727"><ele>792.0</ele><time>2026-04-10T01:48:30.042Z</time></trkpt><trkpt lat="32.251007" lon="-110.7639842"><ele>792.0</ele><time>2026-04-10T01:48:31.042Z</time></trkpt><trkpt lat="32.2510009" lon="-110.764241"><ele>792.0</ele><time>2026-04-10T01:48:32.042Z</time></trkpt><trkpt lat="32.2509939" lon="-110.7645004"><ele>792.0</ele><time>2026-04-10T01:48:33.045Z</time></trkpt><trkpt lat="32.2509882" lon="-110.7647565"><ele>792.0</ele><time>2026-04-10T01:48:34.042Z</time></trkpt><trkpt lat="32.250982" lon="-110.7650163"><ele>792.0</ele><time>2026-04-10T01:48:35.042Z</time></trkpt><trkpt lat="32.25098" lon="-110.7652747"><ele>792.0</ele><time>2026-04-10T01:48:36.045Z</time></trkpt><trkpt lat="32.2509768" lon="-110.7655289"><ele>791.0</ele><time>2026-04-10T01:48:37.042Z</time></trkpt><trkpt lat="32.2509753" lon="-110.7657859"><ele>790.0</ele><time>2026-04-10T01:48:38.043Z</time></trkpt><trkpt lat="32.250974" lon="-110.7660402"><ele>789.0</ele><time>2026-04-10T01:48:39.043Z</time></trkpt><trkpt lat="32.2509725" lon="-110.766289"><ele>789.0</ele><time>2026-04-10T01:48:40.042Z</time></trkpt><trkpt lat="32.2509702" lon="-110.7665357"><ele>789.0</ele><time>2026-04-10T01:48:41.042Z</time></trkpt><trkpt lat="32.2509704" lon="-110.7667789"><ele>789.0</ele><time>2026-04-10T01:48:42.042Z</time></trkpt><trkpt lat="32.2509725" lon="-110.7670279"><ele>789.6666666666667</ele><time>2026-04-10T01:48:43.043Z</time></trkpt><trkpt lat="32.2509727" lon="-110.7672785"><ele>790.3333333333334</ele><time>2026-04-10T01:48:44.042Z</time></trkpt><trkpt lat="32.2509715" lon="-110.7675314"><ele>791.0</ele><time>2026-04-10T01:48:45.043Z</time></trkpt><trkpt lat="32.2509729" lon="-110.7677826"><ele>791.0</ele><time>2026-04-10T01:48:46.042Z</time></trkpt><trkpt lat="32.2509728" lon="-110.7680403"><ele>791.0</ele><time>2026-04-10T01:48:47.042Z</time></trkpt><trkpt lat="32.250975" lon="-110.7683011"><ele>791.0</ele><time>2026-04-10T01:48:48.042Z</time></trkpt><trkpt lat="32.250973" lon="-110.7685725"><ele>790.5</ele><time>2026-04-10T01:48:49.043Z</time></trkpt><trkpt lat="32.2509746" lon="-110.7688447"><ele>790.0</ele><time>2026-04-10T01:48:50.046Z</time></trkpt><trkpt lat="32.2509741" lon="-110.7691166"><ele>790.5</ele><time>2026-04-10T01:48:51.042Z</time></trkpt><trkpt lat="32.2509764" lon="-110.7693895"><ele>791.0</ele><time>2026-04-10T01:48:52.043Z</time></trkpt><trkpt lat="32.2509766" lon="-110.7696651"><ele>791.0</ele><time>2026-04-10T01:48:53.041Z</time></trkpt><trkpt lat="32.2509786" lon="-110.7699442"><ele>791.0</ele><time>2026-04-10T01:48:54.042Z</time></trkpt><trkpt lat="32.2509818" lon="-110.7702173"><ele>790.5</ele><time>2026-04-10T01:48:55.043Z</time></trkpt><trkpt lat="32.2509864" lon="-110.770485"><ele>790.0</ele><time>2026-04-10T01:48:56.045Z</time></trkpt><trkpt lat="32.2509896" lon="-110.7707506"><ele>790.0</ele><time>2026-04-10T01:48:57.044Z</time></trkpt><trkpt lat="32.2509913" lon="-110.7710188"><ele>790.0</ele><time>2026-04-10T01:48:58.042Z</time></trkpt><trkpt lat="32.2509906" lon="-110.7712862"><ele>790.3333333333333</ele><time>2026-04-10T01:48:59.042Z</time></trkpt><trkpt lat="32.2509902" lon="-110.7715493"><ele>790.6666666666667</ele><time>2026-04-10T01:49:00.044Z</time></trkpt><trkpt lat="32.2509901" lon="-110.7718032"><ele>791.0</ele><time>2026-04-10T01:49:01.043Z</time></trkpt><trkpt lat="32.2509904" lon="-110.7720566"><ele>790.0</ele><time>2026-04-10T01:49:02.045Z</time></trkpt><trkpt lat="32.2509878" lon="-110.7723112"><ele>789.0</ele><time>2026-04-10T01:49:03.043Z</time></trkpt><trkpt lat="32.2509861" lon="-110.7725746"><ele>788.0</ele><time>2026-04-10T01:49:04.042Z</time></trkpt><trkpt lat="32.2509869" lon="-110.7728426"><ele>788.0</ele><time>2026-04-10T01:49:05.042Z</time></trkpt><trkpt lat="32.2509875" lon="-110.7731057"><ele>788.0</ele><time>2026-04-10T01:49:06.046Z</time></trkpt><trkpt lat="32.25099" lon="-110.7733648"><ele>788.0</ele><time>2026-04-10T01:49:07.042Z</time></trkpt><trkpt lat="32.250995" lon="-110.7736253"><ele>788.0</ele><time>2026-04-10T01:49:08.044Z</time></trkpt><trkpt lat="32.2509941" lon="-110.7738896"><ele>788.0</ele><time>2026-04-10T01:49:09.043Z</time></trkpt><trkpt lat="32.250993" lon="-110.7741628"><ele>789.0</ele><time>2026-04-10T01:49:10.042Z</time></trkpt><trkpt lat="32.2509919" lon="-110.7744471"><ele>790.0</ele><time>2026-04-10T01:49:11.042Z</time></trkpt><trkpt lat="32.2509902" lon="-110.7747389"><ele>790.0</ele><time>2026-04-10T01:49:12.043Z</time></trkpt><trkpt lat="32.2509901" lon="-110.7750325"><ele>790.0</ele><time>2026-04-10T01:49:13.042Z</time></trkpt><trkpt lat="32.2509899" lon="-110.7753229"><ele>788.0</ele><time>2026-04-10T01:49:14.046Z</time></trkpt><trkpt lat="32.2509876" lon="-110.7756132"><ele>786.0</ele><time>2026-04-10T01:49:15.042Z</time></trkpt><trkpt lat="32.2509858" lon="-110.7759004"><ele>785.0</ele><time>2026-04-10T01:49:16.042Z</time></trkpt><trkpt lat="32.2509843" lon="-110.7761853"><ele>784.0</ele><time>2026-04-10T01:49:17.045Z</time></trkpt><trkpt lat="32.2509859" lon="-110.7764683"><ele>784.0</ele><time>2026-04-10T01:49:18.044Z</time></trkpt><trkpt lat="32.250986" lon="-110.7767541"><ele>784.0</ele><time>2026-04-10T01:49:19.043Z</time></trkpt><trkpt lat="32.250988" lon="-110.7770416"><ele>784.5</ele><time>2026-04-10T01:49:20.042Z</time></trkpt><trkpt lat="32.2509849" lon="-110.7773328"><ele>785.0</ele><time>2026-04-10T01:49:21.042Z</time></trkpt><trkpt lat="32.2509829" lon="-110.7776322"><ele>783.5</ele><time>2026-04-10T01:49:22.044Z</time></trkpt><trkpt lat="32.2509815" lon="-110.7779394"><ele>782.0</ele><time>2026-04-10T01:49:23.043Z</time></trkpt><trkpt lat="32.2509807" lon="-110.7782423"><ele>783.0</ele><time>2026-04-10T01:49:24.043Z</time></trkpt><trkpt lat="32.2509759" lon="-110.7785535"><ele>784.0</ele><time>2026-04-10T01:49:25.043Z</time></trkpt><trkpt lat="32.2509763" lon="-110.7788623"><ele>784.0</ele><time>2026-04-10T01:49:26.043Z</time></trkpt><trkpt lat="32.2509729" lon="-110.7791704"><ele>784.0</ele><time>2026-04-10T01:49:27.043Z</time></trkpt><trkpt lat="32.250974" lon="-110.779479"><ele>782.0</ele><time>2026-04-10T01:49:28.043Z</time></trkpt><trkpt lat="32.2509718" lon="-110.7797901"><ele>780.0</ele><time>2026-04-10T01:49:29.044Z</time></trkpt><trkpt lat="32.2509727" lon="-110.7800967"><ele>780.0</ele><time>2026-04-10T01:49:30.045Z</time></trkpt><trkpt lat="32.2509701" lon="-110.7804023"><ele>780.0</ele><time>2026-04-10T01:49:31.043Z</time></trkpt><trkpt lat="32.2509717" lon="-110.7807027"><ele>780.0</ele><time>2026-04-10T01:49:32.043Z</time></trkpt><trkpt lat="32.2509741" lon="-110.7810042"><ele>780.0</ele><time>2026-04-10T01:49:33.043Z</time></trkpt><trkpt lat="32.2509846" lon="-110.7813045"><ele>781.0</ele><time>2026-04-10T01:49:34.043Z</time></trkpt><trkpt lat="32.2510027" lon="-110.7816077"><ele>782.0</ele><time>2026-04-10T01:49:35.042Z</time></trkpt><trkpt lat="32.2510278" lon="-110.7819062"><ele>782.5</ele><time>2026-04-10T01:49:36.043Z</time></trkpt><trkpt lat="32.2510591" lon="-110.7822057"><ele>783.0</ele><time>2026-04-10T01:49:37.043Z</time></trkpt><trkpt lat="32.2510983" lon="-110.7825007"><ele>782.0</ele><time>2026-04-10T01:49:38.042Z</time></trkpt><trkpt lat="32.2511461" lon="-110.782794"><ele>781.0</ele><time>2026-04-10T01:49:39.044Z</time></trkpt><trkpt lat="32.2512008" lon="-110.7830912"><ele>781.0</ele><time>2026-04-10T01:49:40.044Z</time></trkpt><trkpt lat="32.251261" lon="-110.7833819"><ele>781.0</ele><time>2026-04-10T01:49:41.043Z</time></trkpt><trkpt lat="32.2513316" lon="-110.7836757"><ele>781.0</ele><time>2026-04-10T01:49:42.043Z</time></trkpt><trkpt lat="32.25141" lon="-110.7839599"><ele>781.0</ele><time>2026-04-10T01:49:43.043Z</time></trkpt><trkpt lat="32.2514982" lon="-110.7842527"><ele>780.0</ele><time>2026-04-10T01:49:44.043Z</time></trkpt><trkpt lat="32.2515933" lon="-110.7845455"><ele>779.0</ele><time>2026-04-10T01:49:45.044Z</time></trkpt><trkpt lat="32.2517034" lon="-110.7848357"><ele>779.0</ele><time>2026-04-10T01:49:46.043Z</time></trkpt><trkpt lat="32.2518217" lon="-110.7851198"><ele>779.0</ele><time>2026-04-10T01:49:47.042Z</time></trkpt><trkpt lat="32.2519461" lon="-110.7854008"><ele>780.0</ele><time>2026-04-10T01:49:48.044Z</time></trkpt><trkpt lat="32.252081" lon="-110.7856765"><ele>781.0</ele><time>2026-04-10T01:49:49.043Z</time></trkpt><trkpt lat="32.252217" lon="-110.7859541"><ele>781.5</ele><time>2026-04-10T01:49:50.045Z</time></trkpt><trkpt lat="32.2523543" lon="-110.7862346"><ele>782.0</ele><time>2026-04-10T01:49:51.043Z</time></trkpt><trkpt lat="32.2524904" lon="-110.7865118"><ele>782.0</ele><time>2026-04-10T01:49:52.043Z</time></trkpt><trkpt lat="32.2526291" lon="-110.7867883"><ele>782.0</ele><time>2026-04-10T01:49:53.043Z</time></trkpt><trkpt lat="32.2527684" lon="-110.7870703"><ele>779.5</ele><time>2026-04-10T01:49:54.043Z</time></trkpt><trkpt lat="32.2529077" lon="-110.7873446"><ele>777.0</ele><time>2026-04-10T01:49:55.043Z</time></trkpt><trkpt lat="32.2530386" lon="-110.7876206"><ele>779.0</ele><time>2026-04-10T01:49:56.044Z</time></trkpt><trkpt lat="32.2531765" lon="-110.7879103"><ele>781.0</ele><time>2026-04-10T01:49:57.043Z</time></trkpt><trkpt lat="32.2533162" lon="-110.7881989"><ele>781.0</ele><time>2026-04-10T01:49:58.044Z</time></trkpt><trkpt lat="32.2534573" lon="-110.7884848"><ele>781.0</ele><time>2026-04-10T01:49:59.044Z</time></trkpt><trkpt lat="32.2535991" lon="-110.7887661"><ele>781.5</ele><time>2026-04-10T01:50:00.043Z</time></trkpt><trkpt lat="32.2537367" lon="-110.7890443"><ele>782.0</ele><time>2026-04-10T01:50:01.043Z</time></trkpt><trkpt lat="32.2538708" lon="-110.7893192"><ele>783.5</ele><time>2026-04-10T01:50:02.043Z</time></trkpt><trkpt lat="32.2540037" lon="-110.7895944"><ele>785.0</ele><time>2026-04-10T01:50:03.043Z</time></trkpt><trkpt lat="32.2541366" lon="-110.7898654"><ele>785.0</ele><time>2026-04-10T01:50:04.043Z</time></trkpt><trkpt lat="32.2542695" lon="-110.7901355"><ele>785.0</ele><time>2026-04-10T01:50:05.043Z</time></trkpt><trkpt lat="32.2544039" lon="-110.7904006"><ele>783.5</ele><time>2026-04-10T01:50:06.043Z</time></trkpt><trkpt lat="32.254537" lon="-110.7906697"><ele>782.0</ele><time>2026-04-10T01:50:07.044Z</time></trkpt><trkpt lat="32.2546685" lon="-110.7909353"><ele>782.0</ele><time>2026-04-10T01:50:08.043Z</time></trkpt><trkpt lat="32.2548012" lon="-110.7912005"><ele>782.0</ele><time>2026-04-10T01:50:09.043Z</time></trkpt><trkpt lat="32.2549369" lon="-110.7914612"><ele>782.0</ele><time>2026-04-10T01:50:10.043Z</time></trkpt><trkpt lat="32.2550747" lon="-110.791719"><ele>782.0</ele><time>2026-04-10T01:50:11.043Z</time></trkpt><trkpt lat="32.2552115" lon="-110.7919825"><ele>782.5</ele><time>2026-04-10T01:50:12.044Z</time></trkpt><trkpt lat="32.2553447" lon="-110.7922424"><ele>783.0</ele><time>2026-04-10T01:50:13.044Z</time></trkpt><trkpt lat="32.2554741" lon="-110.7925076"><ele>781.0</ele><time>2026-04-10T01:50:14.043Z</time></trkpt><trkpt lat="32.2556034" lon="-110.7927712"><ele>779.0</ele><time>2026-04-10T01:50:15.046Z</time></trkpt><trkpt lat="32.2557326" lon="-110.7930274"><ele>779.0</ele><time>2026-04-10T01:50:16.043Z</time></trkpt><trkpt lat="32.2558623" lon="-110.7932856"><ele>779.0</ele><time>2026-04-10T01:50:17.042Z</time></trkpt><trkpt lat="32.2559927" lon="-110.7935441"><ele>778.5</ele><time>2026-04-10T01:50:18.043Z</time></trkpt><trkpt lat="32.2561231" lon="-110.7938033"><ele>778.0</ele><time>2026-04-10T01:50:19.044Z</time></trkpt><trkpt lat="32.2562498" lon="-110.7940586"><ele>778.0</ele><time>2026-04-10T01:50:20.043Z</time></trkpt><trkpt lat="32.2563738" lon="-110.7943118"><ele>778.0</ele><time>2026-04-10T01:50:21.043Z</time></trkpt><trkpt lat="32.256495" lon="-110.7945616"><ele>780.0</ele><time>2026-04-10T01:50:22.043Z</time></trkpt><trkpt lat="32.2566182" lon="-110.7948139"><ele>782.0</ele><time>2026-04-10T01:50:23.043Z</time></trkpt><trkpt lat="32.2567422" lon="-110.7950693"><ele>781.5</ele><time>2026-04-10T01:50:24.044Z</time></trkpt><trkpt lat="32.256864" lon="-110.7953279"><ele>781.0</ele><time>2026-04-10T01:50:25.044Z</time></trkpt><trkpt lat="32.2569817" lon="-110.7955903"><ele>781.0</ele><time>2026-04-10T01:50:26.043Z</time></trkpt><trkpt lat="32.2570927" lon="-110.7958467"><ele>781.0</ele><time>2026-04-10T01:50:27.043Z</time></trkpt><trkpt lat="32.2572025" lon="-110.7960939"><ele>780.0</ele><time>2026-04-10T01:50:28.043Z</time></trkpt><trkpt lat="32.2573032" lon="-110.7963227"><ele>779.0</ele><time>2026-04-10T01:50:29.045Z</time></trkpt><trkpt lat="32.2573907" lon="-110.7965349"><ele>778.0</ele><time>2026-04-10T01:50:30.043Z</time></trkpt><trkpt lat="32.2574696" lon="-110.7967326"><ele>778.0</ele><time>2026-04-10T01:50:31.043Z</time></trkpt><trkpt lat="32.2575366" lon="-110.7969172"><ele>778.0</ele><time>2026-04-10T01:50:32.043Z</time></trkpt><trkpt lat="32.257599" lon="-110.7970999"><ele>778.0</ele><time>2026-04-10T01:50:33.043Z</time></trkpt><trkpt lat="32.2576571" lon="-110.7972763"><ele>778.0</ele><time>2026-04-10T01:50:34.042Z</time></trkpt><trkpt lat="32.2577122" lon="-110.7974485"><ele>778.0</ele><time>2026-04-10T01:50:35.043Z</time></trkpt><trkpt lat="32.257761" lon="-110.7976177"><ele>778.0</ele><time>2026-04-10T01:50:36.043Z</time></trkpt><trkpt lat="32.2578048" lon="-110.7977777"><ele>778.0</ele><time>2026-04-10T01:50:37.043Z</time></trkpt><trkpt lat="32.2578481" lon="-110.7979376"><ele>777.8</ele><time>2026-04-10T01:50:38.046Z</time></trkpt><trkpt lat="32.2578876" lon="-110.7980851"><ele>777.5999999999999</ele><time>2026-04-10T01:50:39.043Z</time></trkpt><trkpt lat="32.2579217" lon="-110.7982107"><ele>777.4000000000001</ele><time>2026-04-10T01:50:40.043Z</time></trkpt><trkpt lat="32.2579483" lon="-110.7983127"><ele>777.2</ele><time>2026-04-10T01:50:41.043Z</time></trkpt><trkpt lat="32.257971" lon="-110.7983983"><ele>777.0</ele><time>2026-04-10T01:50:42.043Z</time></trkpt><trkpt lat="32.2579904" lon="-110.7984697"><ele>776.8</ele><time>2026-04-10T01:50:43.044Z</time></trkpt><trkpt lat="32.2580201" lon="-110.7985776"><ele>776.6</ele><time>2026-04-10T01:50:45.043Z</time></trkpt><trkpt lat="32.2580403" lon="-110.7986691"><ele>776.4</ele><time>2026-04-10T01:50:47.043Z</time></trkpt><trkpt lat="32.2580567" lon="-110.798762"><ele>776.1999999999999</ele><time>2026-04-10T01:50:50.043Z</time></trkpt><trkpt lat="32.2580737" lon="-110.798866"><ele>776.0</ele><time>2026-04-10T01:50:53.043Z</time></trkpt><trkpt lat="32.2580993" lon="-110.7990353"><ele>776.0</ele><time>2026-04-10T01:50:55.043Z</time></trkpt><trkpt lat="32.2581135" lon="-110.7991379"><ele>776.0</ele><time>2026-04-10T01:50:56.043Z</time></trkpt><trkpt lat="32.2581272" lon="-110.799256"><ele>776.0</ele><time>2026-04-10T01:50:57.044Z</time></trkpt><trkpt lat="32.2581412" lon="-110.7993886"><ele>776.0</ele><time>2026-04-10T01:50:58.044Z</time></trkpt><trkpt lat="32.2581551" lon="-110.7995346"><ele>776.0</ele><time>2026-04-10T01:50:59.044Z</time></trkpt><trkpt lat="32.2581654" lon="-110.7996847"><ele>776.25</ele><time>2026-04-10T01:51:00.044Z</time></trkpt><trkpt lat="32.2581723" lon="-110.7998401"><ele>776.5</ele><time>2026-04-10T01:51:01.043Z</time></trkpt><trkpt lat="32.2581715" lon="-110.7999895"><ele>776.75</ele><time>2026-04-10T01:51:02.044Z</time></trkpt><trkpt lat="32.258171" lon="-110.8001353"><ele>777.0</ele><time>2026-04-10T01:51:03.044Z</time></trkpt><trkpt lat="32.2581728" lon="-110.8002706"><ele>777.4000000000001</ele><time>2026-04-10T01:51:04.044Z</time></trkpt><trkpt lat="32.2581742" lon="-110.8003865"><ele>777.8000000000001</ele><time>2026-04-10T01:51:05.044Z</time></trkpt><trkpt lat="32.2581749" lon="-110.800491"><ele>778.2</ele><time>2026-04-10T01:51:06.043Z</time></trkpt><trkpt lat="32.2581745" lon="-110.8005818"><ele>778.6</ele><time>2026-04-10T01:51:07.044Z</time></trkpt><trkpt lat="32.2581736" lon="-110.8007122"><ele>779.0</ele><time>2026-04-10T01:51:09.044Z</time></trkpt><trkpt lat="32.2581731" lon="-110.8008212"><ele>779.0000000000001</ele><time>2026-04-10T01:51:11.043Z</time></trkpt><trkpt lat="32.2581702" lon="-110.8008984"><ele>779.0</ele><time>2026-04-10T01:51:12.043Z</time></trkpt><trkpt lat="32.2581686" lon="-110.8009816"><ele>779.0</ele><time>2026-04-10T01:51:13.043Z</time></trkpt><trkpt lat="32.2581669" lon="-110.8010738"><ele>779.0</ele><time>2026-04-10T01:51:14.043Z</time></trkpt><trkpt lat="32.2581648" lon="-110.8011704"><ele>779.0000000000001</ele><time>2026-04-10T01:51:15.045Z</time></trkpt><trkpt lat="32.2581622" lon="-110.801277"><ele>779.0</ele><time>2026-04-10T01:51:16.044Z</time></trkpt><trkpt lat="32.258161" lon="-110.8013946"><ele>779.0</ele><time>2026-04-10T01:51:17.043Z</time></trkpt><trkpt lat="32.2581604" lon="-110.8015224"><ele>779.0</ele><time>2026-04-10T01:51:18.044Z</time></trkpt><trkpt lat="32.2581601" lon="-110.8016562"><ele>779.0</ele><time>2026-04-10T01:51:19.043Z</time></trkpt><trkpt lat="32.2581611" lon="-110.8017934"><ele>779.0</ele><time>2026-04-10T01:51:20.045Z</time></trkpt><trkpt lat="32.2581624" lon="-110.801931"><ele>779.0</ele><time>2026-04-10T01:51:21.045Z</time></trkpt><trkpt lat="32.2581619" lon="-110.8020706"><ele>779.0</ele><time>2026-04-10T01:51:22.045Z</time></trkpt><trkpt lat="32.2581603" lon="-110.8022128"><ele>779.0</ele><time>2026-04-10T01:51:23.044Z</time></trkpt><trkpt lat="32.2581591" lon="-110.8023614"><ele>779.0</ele><time>2026-04-10T01:51:24.044Z</time></trkpt><trkpt lat="32.2581586" lon="-110.8025156"><ele>778.25</ele><time>2026-04-10T01:51:25.045Z</time></trkpt><trkpt lat="32.2581584" lon="-110.8026744"><ele>777.5</ele><time>2026-04-10T01:51:26.044Z</time></trkpt><trkpt lat="32.2581579" lon="-110.8028373"><ele>776.75</ele><time>2026-04-10T01:51:27.045Z</time></trkpt><trkpt lat="32.2581569" lon="-110.8030071"><ele>776.0</ele><time>2026-04-10T01:51:28.043Z</time></trkpt><trkpt lat="32.2581555" lon="-110.8031771"><ele>776.0</ele><time>2026-04-10T01:51:29.044Z</time></trkpt><trkpt lat="32.2581535" lon="-110.8033441"><ele>776.0</ele><time>2026-04-10T01:51:30.045Z</time></trkpt><trkpt lat="32.2581515" lon="-110.8035067"><ele>776.0</ele><time>2026-04-10T01:51:31.045Z</time></trkpt><trkpt lat="32.2581499" lon="-110.8036644"><ele>776.0</ele><time>2026-04-10T01:51:32.044Z</time></trkpt><trkpt lat="32.2581484" lon="-110.8038142"><ele>775.5</ele><time>2026-04-10T01:51:33.047Z</time></trkpt><trkpt lat="32.258147" lon="-110.8039578"><ele>775.0</ele><time>2026-04-10T01:51:34.044Z</time></trkpt><trkpt lat="32.2581453" lon="-110.8041048"><ele>774.5</ele><time>2026-04-10T01:51:35.044Z</time></trkpt><trkpt lat="32.2581432" lon="-110.8042549"><ele>774.0</ele><time>2026-04-10T01:51:36.047Z</time></trkpt><trkpt lat="32.2581414" lon="-110.8044046"><ele>773.75</ele><time>2026-04-10T01:51:37.047Z</time></trkpt><trkpt lat="32.25814" lon="-110.8045568"><ele>773.5</ele><time>2026-04-10T01:51:38.044Z</time></trkpt><trkpt lat="32.2581389" lon="-110.8047133"><ele>773.25</ele><time>2026-04-10T01:51:39.044Z</time></trkpt><trkpt lat="32.2581369" lon="-110.8048694"><ele>773.0</ele><time>2026-04-10T01:51:40.044Z</time></trkpt><trkpt lat="32.2581345" lon="-110.8050287"><ele>772.75</ele><time>2026-04-10T01:51:41.045Z</time></trkpt><trkpt lat="32.2581317" lon="-110.8051938"><ele>772.5</ele><time>2026-04-10T01:51:42.045Z</time></trkpt><trkpt lat="32.2581285" lon="-110.8053639"><ele>772.25</ele><time>2026-04-10T01:51:43.046Z</time></trkpt><trkpt lat="32.2581259" lon="-110.8055378"><ele>772.0</ele><time>2026-04-10T01:51:44.044Z</time></trkpt><trkpt lat="32.2581249" lon="-110.8057121"><ele>772.0</ele><time>2026-04-10T01:51:45.044Z</time></trkpt><trkpt lat="32.2581242" lon="-110.805882"><ele>772.0</ele><time>2026-04-10T01:51:46.044Z</time></trkpt><trkpt lat="32.2581234" lon="-110.8060474"><ele>772.0</ele><time>2026-04-10T01:51:47.045Z</time></trkpt><trkpt lat="32.2581228" lon="-110.8062142"><ele>772.0</ele><time>2026-04-10T01:51:48.044Z</time></trkpt><trkpt lat="32.2581227" lon="-110.8063843"><ele>772.25</ele><time>2026-04-10T01:51:49.045Z</time></trkpt><trkpt lat="32.2581229" lon="-110.8065546"><ele>772.5</ele><time>2026-04-10T01:51:50.044Z</time></trkpt><trkpt lat="32.2581227" lon="-110.8067274"><ele>772.75</ele><time>2026-04-10T01:51:51.044Z</time></trkpt><trkpt lat="32.2581232" lon="-110.8068987"><ele>773.0</ele><time>2026-04-10T01:51:52.044Z</time></trkpt><trkpt lat="32.2581235" lon="-110.8070652"><ele>773.0</ele><time>2026-04-10T01:51:53.045Z</time></trkpt><trkpt lat="32.2581232" lon="-110.8072284"><ele>773.0</ele><time>2026-04-10T01:51:54.043Z</time></trkpt><trkpt lat="32.2581229" lon="-110.8073913"><ele>773.0</ele><time>2026-04-10T01:51:55.047Z</time></trkpt><trkpt lat="32.2581228" lon="-110.8075576"><ele>773.0</ele><time>2026-04-10T01:51:56.044Z</time></trkpt><trkpt lat="32.2581228" lon="-110.8077238"><ele>772.75</ele><time>2026-04-10T01:51:57.044Z</time></trkpt><trkpt lat="32.258123" lon="-110.8078924"><ele>772.5</ele><time>2026-04-10T01:51:58.044Z</time></trkpt><trkpt lat="32.2581232" lon="-110.8080628"><ele>772.25</ele><time>2026-04-10T01:51:59.044Z</time></trkpt><trkpt lat="32.2581233" lon="-110.8082391"><ele>772.0</ele><time>2026-04-10T01:52:00.043Z</time></trkpt><trkpt lat="32.2581236" lon="-110.8084203"><ele>771.3333333333333</ele><time>2026-04-10T01:52:01.044Z</time></trkpt><trkpt lat="32.2581242" lon="-110.808599"><ele>770.6666666666667</ele><time>2026-04-10T01:52:02.044Z</time></trkpt><trkpt lat="32.2581242" lon="-110.8087747"><ele>770.0</ele><time>2026-04-10T01:52:03.045Z</time></trkpt><trkpt lat="32.2581237" lon="-110.808952"><ele>770.0</ele><time>2026-04-10T01:52:04.045Z</time></trkpt><trkpt lat="32.2581237" lon="-110.8091313"><ele>770.0</ele><time>2026-04-10T01:52:05.046Z</time></trkpt><trkpt lat="32.2581242" lon="-110.8093128"><ele>770.0</ele><time>2026-04-10T01:52:06.044Z</time></trkpt><trkpt lat="32.2581248" lon="-110.8094969"><ele>769.3333333333334</ele><time>2026-04-10T01:52:07.044Z</time></trkpt><trkpt lat="32.2581257" lon="-110.8096825"><ele>768.6666666666667</ele><time>2026-04-10T01:52:08.044Z</time></trkpt><trkpt lat="32.2581259" lon="-110.8098694"><ele>768.0</ele><time>2026-04-10T01:52:09.043Z</time></trkpt><trkpt lat="32.2581254" lon="-110.8100561"><ele>768.0</ele><time>2026-04-10T01:52:10.044Z</time></trkpt><trkpt lat="32.2581245" lon="-110.8102428"><ele>768.0</ele><time>2026-04-10T01:52:11.045Z</time></trkpt><trkpt lat="32.2581236" lon="-110.810431"><ele>768.0</ele><time>2026-04-10T01:52:12.044Z</time></trkpt><trkpt lat="32.2581226" lon="-110.8106195"><ele>768.0</ele><time>2026-04-10T01:52:13.043Z</time></trkpt><trkpt lat="32.2581218" lon="-110.8108081"><ele>768.0</ele><time>2026-04-10T01:52:14.044Z</time></trkpt><trkpt lat="32.2581213" lon="-110.8109978"><ele>768.0</ele><time>2026-04-10T01:52:15.044Z</time></trkpt><trkpt lat="32.2581207" lon="-110.811186"><ele>767.0</ele><time>2026-04-10T01:52:16.044Z</time></trkpt><trkpt lat="32.2581206" lon="-110.8113675"><ele>766.0</ele><time>2026-04-10T01:52:17.044Z</time></trkpt><trkpt lat="32.2581205" lon="-110.8115479"><ele>765.0</ele><time>2026-04-10T01:52:18.044Z</time></trkpt><trkpt lat="32.2581212" lon="-110.8117328"><ele>765.0</ele><time>2026-04-10T01:52:19.044Z</time></trkpt><trkpt lat="32.2581219" lon="-110.81192"><ele>765.0</ele><time>2026-04-10T01:52:20.044Z</time></trkpt><trkpt lat="32.2581222" lon="-110.8121118"><ele>765.0</ele><time>2026-04-10T01:52:21.044Z</time></trkpt><trkpt lat="32.258122" lon="-110.8123074"><ele>765.0</ele><time>2026-04-10T01:52:22.044Z</time></trkpt><trkpt lat="32.258122" lon="-110.8125091"><ele>765.0</ele><time>2026-04-10T01:52:23.045Z</time></trkpt><trkpt lat="32.2581223" lon="-110.8127155"><ele>765.0</ele><time>2026-04-10T01:52:24.044Z</time></trkpt><trkpt lat="32.2581224" lon="-110.8129225"><ele>765.0</ele><time>2026-04-10T01:52:25.045Z</time></trkpt><trkpt lat="32.2581224" lon="-110.813128"><ele>765.0</ele><time>2026-04-10T01:52:26.045Z</time></trkpt><trkpt lat="32.2581228" lon="-110.8133323"><ele>765.0</ele><time>2026-04-10T01:52:27.043Z</time></trkpt><trkpt lat="32.2581234" lon="-110.813535"><ele>765.0</ele><time>2026-04-10T01:52:28.044Z</time></trkpt><trkpt lat="32.2581237" lon="-110.8137386"><ele>765.0</ele><time>2026-04-10T01:52:29.044Z</time></trkpt><trkpt lat="32.2581236" lon="-110.8139464"><ele>765.0</ele><time>2026-04-10T01:52:30.044Z</time></trkpt><trkpt lat="32.2581238" lon="-110.8141563"><ele>765.3333333333334</ele><time>2026-04-10T01:52:31.045Z</time></trkpt><trkpt lat="32.258124" lon="-110.8143641"><ele>765.6666666666667</ele><time>2026-04-10T01:52:32.044Z</time></trkpt><trkpt lat="32.2581256" lon="-110.8145619"><ele>766.0</ele><time>2026-04-10T01:52:33.046Z</time></trkpt><trkpt lat="32.2581243" lon="-110.814761"><ele>766.0</ele><time>2026-04-10T01:52:34.045Z</time></trkpt><trkpt lat="32.2581256" lon="-110.8149604"><ele>766.0</ele><time>2026-04-10T01:52:35.045Z</time></trkpt><trkpt lat="32.2581243" lon="-110.8151546"><ele>766.0</ele><time>2026-04-10T01:52:36.044Z</time></trkpt><trkpt lat="32.2581228" lon="-110.8153491"><ele>765.6666666666667</ele><time>2026-04-10T01:52:37.045Z</time></trkpt><trkpt lat="32.2581227" lon="-110.8155473"><ele>765.3333333333334</ele><time>2026-04-10T01:52:38.044Z</time></trkpt><trkpt lat="32.2581234" lon="-110.8157437"><ele>765.0</ele><time>2026-04-10T01:52:39.045Z</time></trkpt><trkpt lat="32.2581267" lon="-110.8159456"><ele>765.6666666666666</ele><time>2026-04-10T01:52:40.045Z</time></trkpt><trkpt lat="32.2581265" lon="-110.8161442"><ele>766.3333333333333</ele><time>2026-04-10T01:52:41.045Z</time></trkpt><trkpt lat="32.258124" lon="-110.816342"><ele>767.0</ele><time>2026-04-10T01:52:42.044Z</time></trkpt><trkpt lat="32.258125" lon="-110.8165394"><ele>767.0</ele><time>2026-04-10T01:52:43.046Z</time></trkpt><trkpt lat="32.2581268" lon="-110.8167355"><ele>767.0</ele><time>2026-04-10T01:52:44.045Z</time></trkpt><trkpt lat="32.258127" lon="-110.816934"><ele>767.0</ele><time>2026-04-10T01:52:45.044Z</time></trkpt><trkpt lat="32.2581249" lon="-110.8171322"><ele>766.3333333333333</ele><time>2026-04-10T01:52:46.044Z</time></trkpt><trkpt lat="32.2581178" lon="-110.8173268"><ele>765.6666666666666</ele><time>2026-04-10T01:52:47.043Z</time></trkpt><trkpt lat="32.2581063" lon="-110.8175242"><ele>765.0</ele><time>2026-04-10T01:52:48.046Z</time></trkpt><trkpt lat="32.2580872" lon="-110.817723"><ele>765.0</ele><time>2026-04-10T01:52:49.046Z</time></trkpt><trkpt lat="32.2580556" lon="-110.8179291"><ele>765.0</ele><time>2026-04-10T01:52:50.045Z</time></trkpt><trkpt lat="32.2580146" lon="-110.8181466"><ele>765.0</ele><time>2026-04-10T01:52:51.046Z</time></trkpt><trkpt lat="32.2579585" lon="-110.8183711"><ele>765.0</ele><time>2026-04-10T01:52:52.044Z</time></trkpt><trkpt lat="32.2578856" lon="-110.8185889"><ele>765.0</ele><time>2026-04-10T01:52:53.044Z</time></trkpt><trkpt lat="32.2578078" lon="-110.8188021"><ele>765.0</ele><time>2026-04-10T01:52:54.048Z</time></trkpt><trkpt lat="32.2577126" lon="-110.8190096"><ele>765.0</ele><time>2026-04-10T01:52:55.046Z</time></trkpt><trkpt lat="32.2576019" lon="-110.8192175"><ele>765.0</ele><time>2026-04-10T01:52:56.044Z</time></trkpt><trkpt lat="32.2574879" lon="-110.8194172"><ele>765.0</ele><time>2026-04-10T01:52:57.046Z</time></trkpt><trkpt lat="32.257358" lon="-110.819611"><ele>764.0</ele><time>2026-04-10T01:52:58.045Z</time></trkpt><trkpt lat="32.2572099" lon="-110.8198052"><ele>763.0</ele><time>2026-04-10T01:52:59.045Z</time></trkpt><trkpt lat="32.257044" lon="-110.8199952"><ele>761.0</ele><time>2026-04-10T01:53:00.046Z</time></trkpt><trkpt lat="32.2568632" lon="-110.8201909"><ele>759.0</ele><time>2026-04-10T01:53:01.045Z</time></trkpt><trkpt lat="32.2566699" lon="-110.8203918"><ele>759.0</ele><time>2026-04-10T01:53:02.044Z</time></trkpt><trkpt lat="32.256472" lon="-110.8205905"><ele>759.0</ele><time>2026-04-10T01:53:03.045Z</time></trkpt><trkpt lat="32.2562699" lon="-110.8207799"><ele>760.0</ele><time>2026-04-10T01:53:04.045Z</time></trkpt><trkpt lat="32.2560803" lon="-110.8209672"><ele>761.0</ele><time>2026-04-10T01:53:05.045Z</time></trkpt><trkpt lat="32.2559023" lon="-110.8211452"><ele>761.5</ele><time>2026-04-10T01:53:06.043Z</time></trkpt><trkpt lat="32.2557207" lon="-110.8213209"><ele>762.0</ele><time>2026-04-10T01:53:07.046Z</time></trkpt><trkpt lat="32.255546" lon="-110.8214897"><ele>762.5</ele><time>2026-04-10T01:53:08.045Z</time></trkpt><trkpt lat="32.2553708" lon="-110.8216604"><ele>763.0</ele><time>2026-04-10T01:53:09.045Z</time></trkpt><trkpt lat="32.2552034" lon="-110.8218338"><ele>764.0</ele><time>2026-04-10T01:53:10.046Z</time></trkpt><trkpt lat="32.2550307" lon="-110.8220138"><ele>765.0</ele><time>2026-04-10T01:53:11.046Z</time></trkpt><trkpt lat="32.2548502" lon="-110.8221835"><ele>764.5</ele><time>2026-04-10T01:53:12.045Z</time></trkpt><trkpt lat="32.2546772" lon="-110.8223566"><ele>764.0</ele><time>2026-04-10T01:53:13.046Z</time></trkpt><trkpt lat="32.2544965" lon="-110.8225324"><ele>763.5</ele><time>2026-04-10T01:53:14.045Z</time></trkpt><trkpt lat="32.2543125" lon="-110.8227076"><ele>763.0</ele><time>2026-04-10T01:53:15.045Z</time></trkpt><trkpt lat="32.2541285" lon="-110.8228931"><ele>764.0</ele><time>2026-04-10T01:53:16.048Z</time></trkpt><trkpt lat="32.2539466" lon="-110.8230736"><ele>765.0</ele><time>2026-04-10T01:53:17.046Z</time></trkpt><trkpt lat="32.2537757" lon="-110.8232448"><ele>765.0</ele><time>2026-04-10T01:53:18.048Z</time></trkpt><trkpt lat="32.2535987" lon="-110.8234168"><ele>765.0</ele><time>2026-04-10T01:53:19.045Z</time></trkpt><trkpt lat="32.253425" lon="-110.8235885"><ele>766.0</ele><time>2026-04-10T01:53:20.045Z</time></trkpt><trkpt lat="32.2532559" lon="-110.8237626"><ele>767.0</ele><time>2026-04-10T01:53:21.046Z</time></trkpt><trkpt lat="32.2530881" lon="-110.8239361"><ele>768.0</ele><time>2026-04-10T01:53:22.046Z</time></trkpt><trkpt lat="32.2529094" lon="-110.8241127"><ele>768.5</ele><time>2026-04-10T01:53:23.045Z</time></trkpt><trkpt lat="32.2527285" lon="-110.8242914"><ele>769.0</ele><time>2026-04-10T01:53:24.046Z</time></trkpt><trkpt lat="32.2525524" lon="-110.8244731"><ele>768.6666666666666</ele><time>2026-04-10T01:53:25.045Z</time></trkpt><trkpt lat="32.2523843" lon="-110.8246468"><ele>768.3333333333333</ele><time>2026-04-10T01:53:26.044Z</time></trkpt><trkpt lat="32.2522159" lon="-110.8248049"><ele>768.0</ele><time>2026-04-10T01:53:27.046Z</time></trkpt><trkpt lat="32.2520611" lon="-110.8249602"><ele>768.0</ele><time>2026-04-10T01:53:28.045Z</time></trkpt><trkpt lat="32.2519281" lon="-110.825114"><ele>768.0</ele><time>2026-04-10T01:53:29.046Z</time></trkpt><trkpt lat="32.2518096" lon="-110.8252697"><ele>768.0</ele><time>2026-04-10T01:53:30.045Z</time></trkpt><trkpt lat="32.2517054" lon="-110.8254232"><ele>768.0</ele><time>2026-04-10T01:53:31.045Z</time></trkpt><trkpt lat="32.2516073" lon="-110.8255875"><ele>768.0</ele><time>2026-04-10T01:53:32.046Z</time></trkpt><trkpt lat="32.2515083" lon="-110.8257579"><ele>768.0</ele><time>2026-04-10T01:53:33.046Z</time></trkpt><trkpt lat="32.2514182" lon="-110.8259186"><ele>768.0</ele><time>2026-04-10T01:53:34.046Z</time></trkpt><trkpt lat="32.2513355" lon="-110.8260889"><ele>768.0</ele><time>2026-04-10T01:53:35.048Z</time></trkpt><trkpt lat="32.2512591" lon="-110.8262584"><ele>768.0</ele><time>2026-04-10T01:53:36.045Z</time></trkpt><trkpt lat="32.2511892" lon="-110.8264325"><ele>768.0</ele><time>2026-04-10T01:53:37.045Z</time></trkpt><trkpt lat="32.2511268" lon="-110.8266095"><ele>768.0</ele><time>2026-04-10T01:53:38.045Z</time></trkpt><trkpt lat="32.2510704" lon="-110.8267863"><ele>768.0</ele><time>2026-04-10T01:53:39.048Z</time></trkpt><trkpt lat="32.2510191" lon="-110.8269712"><ele>767.6666666666666</ele><time>2026-04-10T01:53:40.045Z</time></trkpt><trkpt lat="32.250976" lon="-110.8271535"><ele>767.3333333333333</ele><time>2026-04-10T01:53:41.045Z</time></trkpt><trkpt lat="32.2509434" lon="-110.8273374"><ele>767.0</ele><time>2026-04-10T01:53:42.045Z</time></trkpt><trkpt lat="32.2509197" lon="-110.8275277"><ele>766.6666666666666</ele><time>2026-04-10T01:53:43.046Z</time></trkpt><trkpt lat="32.2509074" lon="-110.8277261"><ele>766.3333333333334</ele><time>2026-04-10T01:53:44.046Z</time></trkpt><trkpt lat="32.2508981" lon="-110.8279259"><ele>766.0</ele><time>2026-04-10T01:53:45.046Z</time></trkpt><trkpt lat="32.2508873" lon="-110.8281254"><ele>766.0</ele><time>2026-04-10T01:53:46.045Z</time></trkpt><trkpt lat="32.2508798" lon="-110.8283137"><ele>766.0</ele><time>2026-04-10T01:53:47.045Z</time></trkpt><trkpt lat="32.2508787" lon="-110.8285101"><ele>766.0</ele><time>2026-04-10T01:53:48.044Z</time></trkpt><trkpt lat="32.2508793" lon="-110.8287113"><ele>767.6666666666667</ele><time>2026-04-10T01:53:49.046Z</time></trkpt><trkpt lat="32.2508752" lon="-110.8289119"><ele>769.3333333333334</ele><time>2026-04-10T01:53:50.045Z</time></trkpt><trkpt lat="32.2508718" lon="-110.8291091"><ele>771.0</ele><time>2026-04-10T01:53:51.046Z</time></trkpt><trkpt lat="32.2508716" lon="-110.8292973"><ele>771.0</ele><time>2026-04-10T01:53:52.045Z</time></trkpt><trkpt lat="32.2508622" lon="-110.8294724"><ele>771.0</ele><time>2026-04-10T01:53:53.044Z</time></trkpt><trkpt lat="32.2508513" lon="-110.8296258"><ele>771.0</ele><time>2026-04-10T01:53:54.045Z</time></trkpt><trkpt lat="32.2508446" lon="-110.8297609"><ele>771.0</ele><time>2026-04-10T01:53:55.045Z</time></trkpt><trkpt lat="32.250838" lon="-110.8298725"><ele>771.0</ele><time>2026-04-10T01:53:56.046Z</time></trkpt><trkpt lat="32.2508345" lon="-110.8299602"><ele>771.0</ele><time>2026-04-10T01:53:57.045Z</time></trkpt><trkpt lat="32.2508329" lon="-110.8300541"><ele>771.0</ele><time>2026-04-10T01:53:59.045Z</time></trkpt><trkpt lat="32.2508203" lon="-110.8301272"><ele>771.0</ele><time>2026-04-10T01:54:03.045Z</time></trkpt><trkpt lat="32.2508084" lon="-110.8303452"><ele>771.0</ele><time>2026-04-10T01:54:15.045Z</time></trkpt><trkpt lat="32.2508059" lon="-110.8304848"><ele>771.3333333333333</ele><time>2026-04-10T01:54:16.045Z</time></trkpt><trkpt lat="32.2508019" lon="-110.8306492"><ele>771.6666666666666</ele><time>2026-04-10T01:54:17.047Z</time></trkpt><trkpt lat="32.2507965" lon="-110.8308244"><ele>772.0</ele><time>2026-04-10T01:54:18.048Z</time></trkpt><trkpt lat="32.250795" lon="-110.8310183"><ele>771.3333333333333</ele><time>2026-04-10T01:54:19.045Z</time></trkpt><trkpt lat="32.2507938" lon="-110.8312221"><ele>770.6666666666667</ele><time>2026-04-10T01:54:20.045Z</time></trkpt><trkpt lat="32.2507901" lon="-110.8314393"><ele>770.0</ele><time>2026-04-10T01:54:21.045Z</time></trkpt><trkpt lat="32.2507896" lon="-110.8316558"><ele>769.6666666666667</ele><time>2026-04-10T01:54:22.046Z</time></trkpt><trkpt lat="32.2507838" lon="-110.8318855"><ele>769.3333333333333</ele><time>2026-04-10T01:54:23.046Z</time></trkpt><trkpt lat="32.2507826" lon="-110.8321188"><ele>769.0</ele><time>2026-04-10T01:54:24.046Z</time></trkpt><trkpt lat="32.2507781" lon="-110.8323545"><ele>769.0</ele><time>2026-04-10T01:54:25.046Z</time></trkpt><trkpt lat="32.2507796" lon="-110.8325969"><ele>769.0</ele><time>2026-04-10T01:54:26.045Z</time></trkpt><trkpt lat="32.2507809" lon="-110.8328447"><ele>769.0</ele><time>2026-04-10T01:54:27.045Z</time></trkpt><trkpt lat="32.2507825" lon="-110.8330909"><ele>768.6666666666666</ele><time>2026-04-10T01:54:28.048Z</time></trkpt><trkpt lat="32.2507843" lon="-110.8333386"><ele>768.3333333333333</ele><time>2026-04-10T01:54:29.048Z</time></trkpt><trkpt lat="32.2507809" lon="-110.8335817"><ele>768.0</ele><time>2026-04-10T01:54:30.049Z</time></trkpt><trkpt lat="32.2507802" lon="-110.8338256"><ele>768.0</ele><time>2026-04-10T01:54:31.046Z</time></trkpt><trkpt lat="32.250785" lon="-110.8340666"><ele>768.0</ele><time>2026-04-10T01:54:32.046Z</time></trkpt><trkpt lat="32.2507867" lon="-110.8343115"><ele>768.0</ele><time>2026-04-10T01:54:33.045Z</time></trkpt><trkpt lat="32.2507874" lon="-110.8345503"><ele>768.0</ele><time>2026-04-10T01:54:34.047Z</time></trkpt><trkpt lat="32.2507893" lon="-110.8347952"><ele>768.0</ele><time>2026-04-10T01:54:35.047Z</time></trkpt><trkpt lat="32.2507893" lon="-110.8350462"><ele>768.0</ele><time>2026-04-10T01:54:36.046Z</time></trkpt><trkpt lat="32.2507894" lon="-110.8352967"><ele>767.6666666666666</ele><time>2026-04-10T01:54:37.046Z</time></trkpt><trkpt lat="32.2507937" lon="-110.8355483"><ele>767.3333333333333</ele><time>2026-04-10T01:54:38.045Z</time></trkpt><trkpt lat="32.2507984" lon="-110.8357977"><ele>767.0</ele><time>2026-04-10T01:54:39.047Z</time></trkpt><trkpt lat="32.2507983" lon="-110.8360498"><ele>767.0</ele><time>2026-04-10T01:54:40.049Z</time></trkpt><trkpt lat="32.2507989" lon="-110.8362988"><ele>767.0</ele><time>2026-04-10T01:54:41.045Z</time></trkpt><trkpt lat="32.2508011" lon="-110.8365454"><ele>767.0</ele><time>2026-04-10T01:54:42.046Z</time></trkpt><trkpt lat="32.2508042" lon="-110.836794"><ele>768.0</ele><time>2026-04-10T01:54:43.045Z</time></trkpt><trkpt lat="32.2508081" lon="-110.8370427"><ele>769.0</ele><time>2026-04-10T01:54:44.046Z</time></trkpt><trkpt lat="32.250808" lon="-110.8372938"><ele>770.0</ele><time>2026-04-10T01:54:45.047Z</time></trkpt><trkpt lat="32.2508088" lon="-110.8375478"><ele>770.6666666666667</ele><time>2026-04-10T01:54:46.047Z</time></trkpt><trkpt lat="32.2508107" lon="-110.8378014"><ele>771.3333333333333</ele><time>2026-04-10T01:54:47.045Z</time></trkpt><trkpt lat="32.2508113" lon="-110.8380509"><ele>772.0</ele><time>2026-04-10T01:54:48.046Z</time></trkpt><trkpt lat="32.2508124" lon="-110.8382954"><ele>771.0</ele><time>2026-04-10T01:54:49.046Z</time></trkpt><trkpt lat="32.2508115" lon="-110.8385445"><ele>770.0</ele><time>2026-04-10T01:54:50.046Z</time></trkpt><trkpt lat="32.2508104" lon="-110.838797"><ele>769.0</ele><time>2026-04-10T01:54:51.047Z</time></trkpt><trkpt lat="32.2508108" lon="-110.8390453"><ele>769.0</ele><time>2026-04-10T01:54:52.049Z</time></trkpt><trkpt lat="32.2508092" lon="-110.8392927"><ele>769.0</ele><time>2026-04-10T01:54:53.046Z</time></trkpt><trkpt lat="32.2508113" lon="-110.8395344"><ele>769.0</ele><time>2026-04-10T01:54:54.046Z</time></trkpt><trkpt lat="32.2508121" lon="-110.839768"><ele>768.3333333333333</ele><time>2026-04-10T01:54:55.045Z</time></trkpt><trkpt lat="32.250818" lon="-110.8399901"><ele>767.6666666666666</ele><time>2026-04-10T01:54:56.046Z</time></trkpt><trkpt lat="32.2508203" lon="-110.8401899"><ele>767.0</ele><time>2026-04-10T01:54:57.049Z</time></trkpt><trkpt lat="32.2508209" lon="-110.8403804"><ele>766.6666666666666</ele><time>2026-04-10T01:54:58.049Z</time></trkpt><trkpt lat="32.2508226" lon="-110.8405729"><ele>766.3333333333334</ele><time>2026-04-10T01:54:59.049Z</time></trkpt><trkpt lat="32.2508242" lon="-110.840768"><ele>766.0</ele><time>2026-04-10T01:55:00.046Z</time></trkpt><trkpt lat="32.2508269" lon="-110.8409511"><ele>767.0</ele><time>2026-04-10T01:55:01.045Z</time></trkpt><trkpt lat="32.2508278" lon="-110.8411319"><ele>768.0</ele><time>2026-04-10T01:55:02.047Z</time></trkpt><trkpt lat="32.2508292" lon="-110.841315"><ele>769.0</ele><time>2026-04-10T01:55:03.049Z</time></trkpt><trkpt lat="32.2508263" lon="-110.841502"><ele>769.0</ele><time>2026-04-10T01:55:04.046Z</time></trkpt><trkpt lat="32.2508275" lon="-110.8416898"><ele>769.0</ele><time>2026-04-10T01:55:05.046Z</time></trkpt><trkpt lat="32.2508274" lon="-110.8418731"><ele>769.0</ele><time>2026-04-10T01:55:06.046Z</time></trkpt><trkpt lat="32.2508284" lon="-110.8420572"><ele>770.0</ele><time>2026-04-10T01:55:07.047Z</time></trkpt><trkpt lat="32.250832" lon="-110.8422509"><ele>771.0</ele><time>2026-04-10T01:55:08.047Z</time></trkpt><trkpt lat="32.2508289" lon="-110.8424591"><ele>772.0</ele><time>2026-04-10T01:55:09.047Z</time></trkpt><trkpt lat="32.2508275" lon="-110.8426733"><ele>772.6666666666666</ele><time>2026-04-10T01:55:10.046Z</time></trkpt><trkpt lat="32.2508277" lon="-110.842896"><ele>773.3333333333333</ele><time>2026-04-10T01:55:11.046Z</time></trkpt><trkpt lat="32.2508257" lon="-110.8431137"><ele>774.0</ele><time>2026-04-10T01:55:12.047Z</time></trkpt><trkpt lat="32.2508256" lon="-110.8433387"><ele>773.3333333333333</ele><time>2026-04-10T01:55:13.047Z</time></trkpt><trkpt lat="32.2508305" lon="-110.8435652"><ele>772.6666666666666</ele><time>2026-04-10T01:55:14.049Z</time></trkpt><trkpt lat="32.2508394" lon="-110.8438131"><ele>772.0</ele><time>2026-04-10T01:55:15.046Z</time></trkpt><trkpt lat="32.2508415" lon="-110.8440836"><ele>770.5</ele><time>2026-04-10T01:55:16.046Z</time></trkpt><trkpt lat="32.2508389" lon="-110.8443608"><ele>769.0</ele><time>2026-04-10T01:55:17.046Z</time></trkpt><trkpt lat="32.2508219" lon="-110.8446254"><ele>769.0</ele><time>2026-04-10T01:55:18.046Z</time></trkpt><trkpt lat="32.2507963" lon="-110.8448847"><ele>769.0</ele><time>2026-04-10T01:55:19.046Z</time></trkpt><trkpt lat="32.2507568" lon="-110.8451475"><ele>769.0</ele><time>2026-04-10T01:55:20.049Z</time></trkpt><trkpt lat="32.2507028" lon="-110.8454004"><ele>768.6666666666666</ele><time>2026-04-10T01:55:21.046Z</time></trkpt><trkpt lat="32.2506318" lon="-110.8456405"><ele>768.3333333333333</ele><time>2026-04-10T01:55:22.046Z</time></trkpt><trkpt lat="32.2505516" lon="-110.845866"><ele>768.0</ele><time>2026-04-10T01:55:23.047Z</time></trkpt><trkpt lat="32.2504655" lon="-110.8460725"><ele>767.6666666666666</ele><time>2026-04-10T01:55:24.047Z</time></trkpt><trkpt lat="32.2503752" lon="-110.8462629"><ele>767.3333333333333</ele><time>2026-04-10T01:55:25.047Z</time></trkpt><trkpt lat="32.2502871" lon="-110.8464421"><ele>767.0</ele><time>2026-04-10T01:55:26.046Z</time></trkpt><trkpt lat="32.250204" lon="-110.8465951"><ele>767.0</ele><time>2026-04-10T01:55:27.046Z</time></trkpt><trkpt lat="32.2501323" lon="-110.8467153"><ele>767.0</ele><time>2026-04-10T01:55:28.046Z</time></trkpt><trkpt lat="32.2500737" lon="-110.8468176"><ele>767.0</ele><time>2026-04-10T01:55:29.046Z</time></trkpt><trkpt lat="32.250025" lon="-110.8468951"><ele>767.0</ele><time>2026-04-10T01:55:30.046Z</time></trkpt><trkpt lat="32.2499831" lon="-110.8469577"><ele>767.0</ele><time>2026-04-10T01:55:31.046Z</time></trkpt><trkpt lat="32.2499057" lon="-110.8470638"><ele>766.4000000000001</ele><time>2026-04-10T01:55:33.046Z</time></trkpt><trkpt lat="32.2498512" lon="-110.8471526"><ele>765.8000000000001</ele><time>2026-04-10T01:55:35.05Z</time></trkpt><trkpt lat="32.2498195" lon="-110.8472173"><ele>765.2</ele><time>2026-04-10T01:55:37.046Z</time></trkpt><trkpt lat="32.2497712" lon="-110.8473352"><ele>764.6</ele><time>2026-04-10T01:55:43.046Z</time></trkpt><trkpt lat="32.2497265" lon="-110.8474132"><ele>764.0</ele><time>2026-04-10T01:55:44.046Z</time></trkpt><trkpt lat="32.2496675" lon="-110.8475148"><ele>762.3333333333333</ele><time>2026-04-10T01:55:45.046Z</time></trkpt><trkpt lat="32.2495875" lon="-110.8476467"><ele>760.6666666666666</ele><time>2026-04-10T01:55:46.047Z</time></trkpt><trkpt lat="32.2494951" lon="-110.8477963"><ele>759.0</ele><time>2026-04-10T01:55:47.047Z</time></trkpt><trkpt lat="32.249398" lon="-110.8479723"><ele>759.0</ele><time>2026-04-10T01:55:48.047Z</time></trkpt><trkpt lat="32.2492976" lon="-110.848162"><ele>759.0</ele><time>2026-04-10T01:55:49.047Z</time></trkpt><trkpt lat="32.2491964" lon="-110.8483547"><ele>759.0</ele><time>2026-04-10T01:55:50.046Z</time></trkpt><trkpt lat="32.2490946" lon="-110.8485351"><ele>760.3333333333334</ele><time>2026-04-10T01:55:51.048Z</time></trkpt><trkpt lat="32.2489992" lon="-110.8487086"><ele>761.6666666666667</ele><time>2026-04-10T01:55:52.045Z</time></trkpt><trkpt lat="32.2489111" lon="-110.848877"><ele>763.0</ele><time>2026-04-10T01:55:53.047Z</time></trkpt><trkpt lat="32.2488222" lon="-110.8490391"><ele>763.0</ele><time>2026-04-10T01:55:54.046Z</time></trkpt><trkpt lat="32.248743" lon="-110.8491899"><ele>763.0</ele><time>2026-04-10T01:55:55.045Z</time></trkpt><trkpt lat="32.2486665" lon="-110.8493365"><ele>763.0</ele><time>2026-04-10T01:55:56.046Z</time></trkpt><trkpt lat="32.2485947" lon="-110.8494766"><ele>763.0</ele><time>2026-04-10T01:55:57.046Z</time></trkpt><trkpt lat="32.2485257" lon="-110.8495916"><ele>763.0</ele><time>2026-04-10T01:55:58.046Z</time></trkpt><trkpt lat="32.2484705" lon="-110.8496833"><ele>763.0</ele><time>2026-04-10T01:55:59.046Z</time></trkpt><trkpt lat="32.2484279" lon="-110.8497602"><ele>763.0</ele><time>2026-04-10T01:56:00.046Z</time></trkpt><trkpt lat="32.2483724" lon="-110.8498671"><ele>763.0</ele><time>2026-04-10T01:56:02.046Z</time></trkpt><trkpt lat="32.2484221" lon="-110.8499931"><ele>763.0</ele><time>2026-04-10T01:56:04.046Z</time></trkpt><trkpt lat="32.2484881" lon="-110.8500633"><ele>762.5</ele><time>2026-04-10T01:56:05.049Z</time></trkpt><trkpt lat="32.2485775" lon="-110.8501406"><ele>762.0</ele><time>2026-04-10T01:56:06.046Z</time></trkpt><trkpt lat="32.2486784" lon="-110.8502292"><ele>761.5</ele><time>2026-04-10T01:56:07.046Z</time></trkpt><trkpt lat="32.248805" lon="-110.8503449"><ele>761.0</ele><time>2026-04-10T01:56:08.047Z</time></trkpt><trkpt lat="32.2489471" lon="-110.8504658"><ele>761.0</ele><time>2026-04-10T01:56:09.048Z</time></trkpt><trkpt lat="32.2490921" lon="-110.8505979"><ele>761.0</ele><time>2026-04-10T01:56:10.049Z</time></trkpt><trkpt lat="32.2492315" lon="-110.850741"><ele>761.0</ele><time>2026-04-10T01:56:11.048Z</time></trkpt><trkpt lat="32.2493638" lon="-110.8508903"><ele>761.3333333333333</ele><time>2026-04-10T01:56:12.046Z</time></trkpt><trkpt lat="32.2494922" lon="-110.8510552"><ele>761.6666666666666</ele><time>2026-04-10T01:56:13.047Z</time></trkpt><trkpt lat="32.2496185" lon="-110.8512194"><ele>762.0</ele><time>2026-04-10T01:56:14.048Z</time></trkpt><trkpt lat="32.2497399" lon="-110.8513908"><ele>761.3333333333334</ele><time>2026-04-10T01:56:15.048Z</time></trkpt><trkpt lat="32.2498573" lon="-110.8515635"><ele>760.6666666666667</ele><time>2026-04-10T01:56:16.046Z</time></trkpt><trkpt lat="32.2499601" lon="-110.8517427"><ele>760.0</ele><time>2026-04-10T01:56:17.046Z</time></trkpt><trkpt lat="32.2500628" lon="-110.8519289"><ele>759.3333333333334</ele><time>2026-04-10T01:56:18.045Z</time></trkpt><trkpt lat="32.2501591" lon="-110.8521164"><ele>758.6666666666666</ele><time>2026-04-10T01:56:19.048Z</time></trkpt><trkpt lat="32.2502496" lon="-110.8523042"><ele>758.0</ele><time>2026-04-10T01:56:20.05Z</time></trkpt><trkpt lat="32.2503337" lon="-110.8524998"><ele>758.0</ele><time>2026-04-10T01:56:21.048Z</time></trkpt><trkpt lat="32.2504049" lon="-110.8526967"><ele>758.0</ele><time>2026-04-10T01:56:22.046Z</time></trkpt><trkpt lat="32.2504713" lon="-110.8528987"><ele>758.0</ele><time>2026-04-10T01:56:23.046Z</time></trkpt><trkpt lat="32.2505285" lon="-110.8530957"><ele>758.0</ele><time>2026-04-10T01:56:24.047Z</time></trkpt><trkpt lat="32.2505787" lon="-110.8532932"><ele>758.0</ele><time>2026-04-10T01:56:25.047Z</time></trkpt><trkpt lat="32.2506199" lon="-110.8534908"><ele>758.0</ele><time>2026-04-10T01:56:26.047Z</time></trkpt><trkpt lat="32.2506551" lon="-110.8536907"><ele>758.0</ele><time>2026-04-10T01:56:27.048Z</time></trkpt><trkpt lat="32.2506865" lon="-110.8538894"><ele>758.0</ele><time>2026-04-10T01:56:28.047Z</time></trkpt><trkpt lat="32.2507057" lon="-110.8540903"><ele>758.0</ele><time>2026-04-10T01:56:29.046Z</time></trkpt><trkpt lat="32.2507259" lon="-110.8542887"><ele>757.6666666666666</ele><time>2026-04-10T01:56:30.048Z</time></trkpt><trkpt lat="32.2507388" lon="-110.8544791"><ele>757.3333333333334</ele><time>2026-04-10T01:56:31.047Z</time></trkpt><trkpt lat="32.2507448" lon="-110.8546715"><ele>757.0</ele><time>2026-04-10T01:56:32.048Z</time></trkpt><trkpt lat="32.2507468" lon="-110.8548642"><ele>757.0</ele><time>2026-04-10T01:56:33.047Z</time></trkpt><trkpt lat="32.250747" lon="-110.8550507"><ele>757.0</ele><time>2026-04-10T01:56:34.047Z</time></trkpt><trkpt lat="32.2507441" lon="-110.8552444"><ele>757.0</ele><time>2026-04-10T01:56:35.048Z</time></trkpt><trkpt lat="32.2507362" lon="-110.8554359"><ele>757.6666666666667</ele><time>2026-04-10T01:56:36.048Z</time></trkpt><trkpt lat="32.2507204" lon="-110.8556396"><ele>758.3333333333334</ele><time>2026-04-10T01:56:37.046Z</time></trkpt><trkpt lat="32.2507082" lon="-110.8558637"><ele>759.0</ele><time>2026-04-10T01:56:38.047Z</time></trkpt><trkpt lat="32.2506989" lon="-110.856098"><ele>759.0</ele><time>2026-04-10T01:56:39.047Z</time></trkpt><trkpt lat="32.2506959" lon="-110.8563362"><ele>759.0</ele><time>2026-04-10T01:56:40.046Z</time></trkpt><trkpt lat="32.250696" lon="-110.8565634"><ele>759.0</ele><time>2026-04-10T01:56:41.047Z</time></trkpt><trkpt lat="32.2506975" lon="-110.8567863"><ele>758.3333333333334</ele><time>2026-04-10T01:56:42.048Z</time></trkpt><trkpt lat="32.2506953" lon="-110.857008"><ele>757.6666666666667</ele><time>2026-04-10T01:56:43.05Z</time></trkpt><trkpt lat="32.2506901" lon="-110.857229"><ele>757.0</ele><time>2026-04-10T01:56:44.048Z</time></trkpt><trkpt lat="32.2506874" lon="-110.8574474"><ele>756.6666666666667</ele><time>2026-04-10T01:56:45.047Z</time></trkpt><trkpt lat="32.2506871" lon="-110.8576683"><ele>756.3333333333334</ele><time>2026-04-10T01:56:46.048Z</time></trkpt><trkpt lat="32.2506856" lon="-110.8578903"><ele>756.0</ele><time>2026-04-10T01:56:47.048Z</time></trkpt><trkpt lat="32.250682" lon="-110.8581124"><ele>756.0</ele><time>2026-04-10T01:56:48.047Z</time></trkpt><trkpt lat="32.2506826" lon="-110.8583277"><ele>756.0</ele><time>2026-04-10T01:56:49.046Z</time></trkpt><trkpt lat="32.250684" lon="-110.8585417"><ele>756.0</ele><time>2026-04-10T01:56:50.048Z</time></trkpt><trkpt lat="32.2506869" lon="-110.8587612"><ele>756.3333333333334</ele><time>2026-04-10T01:56:51.047Z</time></trkpt><trkpt lat="32.2506842" lon="-110.8589788"><ele>756.6666666666667</ele><time>2026-04-10T01:56:52.049Z</time></trkpt><trkpt lat="32.2506857" lon="-110.8591927"><ele>757.0</ele><time>2026-04-10T01:56:53.047Z</time></trkpt><trkpt lat="32.2506836" lon="-110.8594052"><ele>757.6666666666667</ele><time>2026-04-10T01:56:54.046Z</time></trkpt><trkpt lat="32.2506856" lon="-110.8596196"><ele>758.3333333333334</ele><time>2026-04-10T01:56:55.047Z</time></trkpt><trkpt lat="32.2506904" lon="-110.8598363"><ele>759.0</ele><time>2026-04-10T01:56:56.047Z</time></trkpt><trkpt lat="32.2506884" lon="-110.8600579"><ele>758.3333333333334</ele><time>2026-04-10T01:56:57.047Z</time></trkpt><trkpt lat="32.2506863" lon="-110.8602814"><ele>757.6666666666667</ele><time>2026-04-10T01:56:58.047Z</time></trkpt><trkpt lat="32.2506874" lon="-110.8605056"><ele>757.0</ele><time>2026-04-10T01:56:59.047Z</time></trkpt><trkpt lat="32.2506861" lon="-110.8607305"><ele>757.3333333333334</ele><time>2026-04-10T01:57:00.047Z</time></trkpt><trkpt lat="32.2506872" lon="-110.8609527"><ele>757.6666666666666</ele><time>2026-04-10T01:57:01.046Z</time></trkpt><trkpt lat="32.2506892" lon="-110.8611866"><ele>758.0</ele><time>2026-04-10T01:57:02.047Z</time></trkpt><trkpt lat="32.2506903" lon="-110.8614214"><ele>758.0</ele><time>2026-04-10T01:57:03.049Z</time></trkpt><trkpt lat="32.2506912" lon="-110.8616597"><ele>758.0</ele><time>2026-04-10T01:57:04.048Z</time></trkpt><trkpt lat="32.2506912" lon="-110.8618976"><ele>758.0</ele><time>2026-04-10T01:57:05.047Z</time></trkpt><trkpt lat="32.25069" lon="-110.8621395"><ele>758.0</ele><time>2026-04-10T01:57:06.047Z</time></trkpt><trkpt lat="32.25069" lon="-110.8623803"><ele>758.0</ele><time>2026-04-10T01:57:07.047Z</time></trkpt><trkpt lat="32.2506919" lon="-110.8626185"><ele>758.0</ele><time>2026-04-10T01:57:08.047Z</time></trkpt><trkpt lat="32.2506932" lon="-110.862857"><ele>758.0</ele><time>2026-04-10T01:57:09.047Z</time></trkpt><trkpt lat="32.2506937" lon="-110.8630873"><ele>758.0</ele><time>2026-04-10T01:57:10.047Z</time></trkpt><trkpt lat="32.2506953" lon="-110.8633146"><ele>758.0</ele><time>2026-04-10T01:57:11.046Z</time></trkpt><trkpt lat="32.2506942" lon="-110.8635385"><ele>758.0</ele><time>2026-04-10T01:57:12.047Z</time></trkpt><trkpt lat="32.2506923" lon="-110.8637702"><ele>758.0</ele><time>2026-04-10T01:57:13.047Z</time></trkpt><trkpt lat="32.2506903" lon="-110.8640058"><ele>758.0</ele><time>2026-04-10T01:57:14.047Z</time></trkpt><trkpt lat="32.2506903" lon="-110.8642427"><ele>758.0</ele><time>2026-04-10T01:57:15.048Z</time></trkpt><trkpt lat="32.2506908" lon="-110.8644744"><ele>758.0</ele><time>2026-04-10T01:57:16.047Z</time></trkpt><trkpt lat="32.2506918" lon="-110.8647142"><ele>758.0</ele><time>2026-04-10T01:57:17.047Z</time></trkpt><trkpt lat="32.2506957" lon="-110.8649481"><ele>758.0</ele><time>2026-04-10T01:57:18.047Z</time></trkpt><trkpt lat="32.250694" lon="-110.8651805"><ele>758.0</ele><time>2026-04-10T01:57:19.047Z</time></trkpt><trkpt lat="32.2506974" lon="-110.8654065"><ele>758.0</ele><time>2026-04-10T01:57:20.048Z</time></trkpt><trkpt lat="32.2506982" lon="-110.8656314"><ele>758.0</ele><time>2026-04-10T01:57:21.046Z</time></trkpt><trkpt lat="32.2506979" lon="-110.8658523"><ele>758.0</ele><time>2026-04-10T01:57:22.048Z</time></trkpt><trkpt lat="32.2506971" lon="-110.8660746"><ele>758.0</ele><time>2026-04-10T01:57:23.048Z</time></trkpt><trkpt lat="32.2506981" lon="-110.866297"><ele>759.6666666666666</ele><time>2026-04-10T01:57:24.047Z</time></trkpt><trkpt lat="32.2507006" lon="-110.8665272"><ele>761.3333333333334</ele><time>2026-04-10T01:57:25.048Z</time></trkpt><trkpt lat="32.2507022" lon="-110.8667607"><ele>763.0</ele><time>2026-04-10T01:57:26.048Z</time></trkpt><trkpt lat="32.2507045" lon="-110.8669912"><ele>763.0</ele><time>2026-04-10T01:57:27.047Z</time></trkpt><trkpt lat="32.250705" lon="-110.8672297"><ele>763.0</ele><time>2026-04-10T01:57:28.048Z</time></trkpt><trkpt lat="32.2507036" lon="-110.8674651"><ele>763.0</ele><time>2026-04-10T01:57:29.047Z</time></trkpt><trkpt lat="32.2507028" lon="-110.8676974"><ele>762.0</ele><time>2026-04-10T01:57:30.047Z</time></trkpt><trkpt lat="32.2507037" lon="-110.867923"><ele>761.0</ele><time>2026-04-10T01:57:31.047Z</time></trkpt><trkpt lat="32.2507049" lon="-110.8681533"><ele>760.0</ele><time>2026-04-10T01:57:32.047Z</time></trkpt><trkpt lat="32.2507065" lon="-110.8683805"><ele>760.0</ele><time>2026-04-10T01:57:33.05Z</time></trkpt><trkpt lat="32.250707" lon="-110.868604"><ele>760.0</ele><time>2026-04-10T01:57:34.047Z</time></trkpt><trkpt lat="32.2507095" lon="-110.8688371"><ele>760.0</ele><time>2026-04-10T01:57:35.046Z</time></trkpt><trkpt lat="32.2507113" lon="-110.8690664"><ele>761.0</ele><time>2026-04-10T01:57:36.048Z</time></trkpt><trkpt lat="32.2507132" lon="-110.8692941"><ele>762.0</ele><time>2026-04-10T01:57:37.048Z</time></trkpt><trkpt lat="32.2507084" lon="-110.8695142"><ele>763.0</ele><time>2026-04-10T01:57:38.047Z</time></trkpt><trkpt lat="32.2507048" lon="-110.8697316"><ele>763.0</ele><time>2026-04-10T01:57:39.048Z</time></trkpt><trkpt lat="32.2507051" lon="-110.8699545"><ele>763.0</ele><time>2026-04-10T01:57:40.047Z</time></trkpt><trkpt lat="32.2507084" lon="-110.8701724"><ele>763.0</ele><time>2026-04-10T01:57:41.047Z</time></trkpt><trkpt lat="32.2507094" lon="-110.870394"><ele>762.3333333333334</ele><time>2026-04-10T01:57:42.047Z</time></trkpt><trkpt lat="32.2507115" lon="-110.8706139"><ele>761.6666666666666</ele><time>2026-04-10T01:57:43.048Z</time></trkpt><trkpt lat="32.250716" lon="-110.8708396"><ele>761.0</ele><time>2026-04-10T01:57:44.047Z</time></trkpt><trkpt lat="32.2507123" lon="-110.8710543"><ele>759.6666666666666</ele><time>2026-04-10T01:57:45.049Z</time></trkpt><trkpt lat="32.2507141" lon="-110.8712655"><ele>758.3333333333334</ele><time>2026-04-10T01:57:46.047Z</time></trkpt><trkpt lat="32.2507146" lon="-110.8714766"><ele>757.0</ele><time>2026-04-10T01:57:47.048Z</time></trkpt><trkpt lat="32.2507157" lon="-110.8716803"><ele>756.6666666666667</ele><time>2026-04-10T01:57:48.047Z</time></trkpt><trkpt lat="32.250713" lon="-110.87188"><ele>756.3333333333334</ele><time>2026-04-10T01:57:49.047Z</time></trkpt><trkpt lat="32.2507134" lon="-110.8720739"><ele>756.0</ele><time>2026-04-10T01:57:50.049Z</time></trkpt><trkpt lat="32.2507161" lon="-110.8722682"><ele>756.0</ele><time>2026-04-10T01:57:51.048Z</time></trkpt><trkpt lat="32.2507156" lon="-110.8724569"><ele>756.0</ele><time>2026-04-10T01:57:52.047Z</time></trkpt><trkpt lat="32.2507122" lon="-110.8726439"><ele>756.0</ele><time>2026-04-10T01:57:53.049Z</time></trkpt><trkpt lat="32.2507171" lon="-110.8728299"><ele>756.0</ele><time>2026-04-10T01:57:54.048Z</time></trkpt><trkpt lat="32.2507176" lon="-110.873016"><ele>756.0</ele><time>2026-04-10T01:57:55.048Z</time></trkpt><trkpt lat="32.2507167" lon="-110.8731982"><ele>756.0</ele><time>2026-04-10T01:57:56.048Z</time></trkpt><trkpt lat="32.2507224" lon="-110.8733712"><ele>756.25</ele><time>2026-04-10T01:57:57.047Z</time></trkpt><trkpt lat="32.2507245" lon="-110.8735374"><ele>756.5</ele><time>2026-04-10T01:57:58.047Z</time></trkpt><trkpt lat="32.2507268" lon="-110.8736928"><ele>756.75</ele><time>2026-04-10T01:57:59.047Z</time></trkpt><trkpt lat="32.2507299" lon="-110.8738408"><ele>757.0</ele><time>2026-04-10T01:58:00.051Z</time></trkpt><trkpt lat="32.2507283" lon="-110.8739813"><ele>757.0</ele><time>2026-04-10T01:58:01.047Z</time></trkpt><trkpt lat="32.2507386" lon="-110.8741142"><ele>757.0</ele><time>2026-04-10T01:58:02.048Z</time></trkpt><trkpt lat="32.2507391" lon="-110.8742346"><ele>757.0</ele><time>2026-04-10T01:58:03.047Z</time></trkpt><trkpt lat="32.2507385" lon="-110.8743396"><ele>757.0</ele><time>2026-04-10T01:58:04.048Z</time></trkpt><trkpt lat="32.2507388" lon="-110.8744368"><ele>757.0</ele><time>2026-04-10T01:58:05.049Z</time></trkpt><trkpt lat="32.2507397" lon="-110.8745224"><ele>756.8</ele><time>2026-04-10T01:58:06.051Z</time></trkpt><trkpt lat="32.2507412" lon="-110.8746482"><ele>756.6</ele><time>2026-04-10T01:58:08.046Z</time></trkpt><trkpt lat="32.2507404" lon="-110.8747344"><ele>756.4</ele><time>2026-04-10T01:58:10.048Z</time></trkpt><trkpt lat="32.2507424" lon="-110.8748211"><ele>756.1999999999999</ele><time>2026-04-10T01:58:13.047Z</time></trkpt><trkpt lat="32.2507394" lon="-110.8749208"><ele>756.0</ele><time>2026-04-10T01:58:40.048Z</time></trkpt><trkpt lat="32.2507392" lon="-110.8750759"><ele>755.5999999999999</ele><time>2026-04-10T01:58:42.048Z</time></trkpt><trkpt lat="32.2507391" lon="-110.875171"><ele>755.2</ele><time>2026-04-10T01:58:43.048Z</time></trkpt><trkpt lat="32.2507391" lon="-110.8752828"><ele>754.8</ele><time>2026-04-10T01:58:44.049Z</time></trkpt><trkpt lat="32.2507389" lon="-110.8754079"><ele>754.4000000000001</ele><time>2026-04-10T01:58:45.048Z</time></trkpt><trkpt lat="32.2507392" lon="-110.8755431"><ele>754.0</ele><time>2026-04-10T01:58:46.048Z</time></trkpt><trkpt lat="32.2507377" lon="-110.8756897"><ele>754.0</ele><time>2026-04-10T01:58:47.048Z</time></trkpt><trkpt lat="32.2507361" lon="-110.8758503"><ele>754.0</ele><time>2026-04-10T01:58:48.049Z</time></trkpt><trkpt lat="32.2507344" lon="-110.8760207"><ele>754.0</ele><time>2026-04-10T01:58:49.048Z</time></trkpt><trkpt lat="32.250733" lon="-110.8762"><ele>754.0</ele><time>2026-04-10T01:58:50.049Z</time></trkpt><trkpt lat="32.250732" lon="-110.8763854"><ele>753.6666666666667</ele><time>2026-04-10T01:58:51.049Z</time></trkpt><trkpt lat="32.2507298" lon="-110.8765756"><ele>753.3333333333334</ele><time>2026-04-10T01:58:52.048Z</time></trkpt><trkpt lat="32.2507251" lon="-110.8767697"><ele>753.0</ele><time>2026-04-10T01:58:53.048Z</time></trkpt><trkpt lat="32.2507203" lon="-110.8769626"><ele>754.0</ele><time>2026-04-10T01:58:54.049Z</time></trkpt><trkpt lat="32.2507174" lon="-110.8771504"><ele>755.0</ele><time>2026-04-10T01:58:55.051Z</time></trkpt><trkpt lat="32.250715" lon="-110.8773337"><ele>756.0</ele><time>2026-04-10T01:58:56.048Z</time></trkpt><trkpt lat="32.2507147" lon="-110.8775184"><ele>754.6666666666666</ele><time>2026-04-10T01:58:57.048Z</time></trkpt><trkpt lat="32.2507146" lon="-110.8777023"><ele>753.3333333333333</ele><time>2026-04-10T01:58:58.048Z</time></trkpt><trkpt lat="32.2507138" lon="-110.877884"><ele>752.0</ele><time>2026-04-10T01:58:59.048Z</time></trkpt><trkpt lat="32.250714" lon="-110.8780611"><ele>752.0</ele><time>2026-04-10T01:59:00.049Z</time></trkpt><trkpt lat="32.2507142" lon="-110.8782314"><ele>752.0</ele><time>2026-04-10T01:59:01.048Z</time></trkpt><trkpt lat="32.250714" lon="-110.8783944"><ele>752.0</ele><time>2026-04-10T01:59:02.048Z</time></trkpt><trkpt lat="32.2507128" lon="-110.8785514"><ele>752.0</ele><time>2026-04-10T01:59:03.047Z</time></trkpt><trkpt lat="32.2507122" lon="-110.8787005"><ele>752.2</ele><time>2026-04-10T01:59:04.048Z</time></trkpt><trkpt lat="32.2507121" lon="-110.8788393"><ele>752.4000000000001</ele><time>2026-04-10T01:59:05.049Z</time></trkpt><trkpt lat="32.2507143" lon="-110.8789707"><ele>752.5999999999999</ele><time>2026-04-10T01:59:06.049Z</time></trkpt><trkpt lat="32.2507153" lon="-110.8790937"><ele>752.8</ele><time>2026-04-10T01:59:07.048Z</time></trkpt><trkpt lat="32.2507135" lon="-110.8792022"><ele>753.0</ele><time>2026-04-10T01:59:08.047Z</time></trkpt><trkpt lat="32.2507116" lon="-110.8792978"><ele>753.2</ele><time>2026-04-10T01:59:09.048Z</time></trkpt><trkpt lat="32.2507118" lon="-110.8794198"><ele>753.4</ele><time>2026-04-10T01:59:11.048Z</time></trkpt><trkpt lat="32.2507153" lon="-110.8795342"><ele>753.6</ele><time>2026-04-10T01:59:31.048Z</time></trkpt><trkpt lat="32.2507149" lon="-110.8796878"><ele>753.8000000000001</ele><time>2026-04-10T01:59:33.047Z</time></trkpt><trkpt lat="32.2507143" lon="-110.8797872"><ele>754.0</ele><time>2026-04-10T01:59:34.051Z</time></trkpt><trkpt lat="32.2507128" lon="-110.8799071"><ele>754.0</ele><time>2026-04-10T01:59:35.048Z</time></trkpt><trkpt lat="32.2507114" lon="-110.8800417"><ele>754.0</ele><time>2026-04-10T01:59:36.048Z</time></trkpt><trkpt lat="32.2507106" lon="-110.8801905"><ele>754.0</ele><time>2026-04-10T01:59:37.048Z</time></trkpt><trkpt lat="32.2507106" lon="-110.8803537"><ele>754.0</ele><time>2026-04-10T01:59:38.048Z</time></trkpt><trkpt lat="32.2507112" lon="-110.8805288"><ele>755.3333333333334</ele><time>2026-04-10T01:59:39.049Z</time></trkpt><trkpt lat="32.2507117" lon="-110.8807137"><ele>756.6666666666666</ele><time>2026-04-10T01:59:40.048Z</time></trkpt><trkpt lat="32.2507117" lon="-110.8809077"><ele>758.0</ele><time>2026-04-10T01:59:41.048Z</time></trkpt><trkpt lat="32.2507109" lon="-110.8811083"><ele>758.0</ele><time>2026-04-10T01:59:42.047Z</time></trkpt><trkpt lat="32.25071" lon="-110.8813131"><ele>758.0</ele><time>2026-04-10T01:59:43.05Z</time></trkpt><trkpt lat="32.2507092" lon="-110.8815216"><ele>758.0</ele><time>2026-04-10T01:59:44.048Z</time></trkpt><trkpt lat="32.250709" lon="-110.8817268"><ele>757.3333333333333</ele><time>2026-04-10T01:59:45.047Z</time></trkpt><trkpt lat="32.2507095" lon="-110.8819277"><ele>756.6666666666666</ele><time>2026-04-10T01:59:46.05Z</time></trkpt><trkpt lat="32.2507101" lon="-110.882128"><ele>756.0</ele><time>2026-04-10T01:59:47.048Z</time></trkpt><trkpt lat="32.2507107" lon="-110.8823259"><ele>756.0</ele><time>2026-04-10T01:59:48.048Z</time></trkpt><trkpt lat="32.2507112" lon="-110.8825205"><ele>756.0</ele><time>2026-04-10T01:59:49.05Z</time></trkpt><trkpt lat="32.2507102" lon="-110.8827168"><ele>756.0</ele><time>2026-04-10T01:59:50.048Z</time></trkpt><trkpt lat="32.2507085" lon="-110.8829152"><ele>754.0</ele><time>2026-04-10T01:59:51.05Z</time></trkpt><trkpt lat="32.2507074" lon="-110.8831119"><ele>752.0</ele><time>2026-04-10T01:59:52.05Z</time></trkpt><trkpt lat="32.250705" lon="-110.8833061"><ele>750.0</ele><time>2026-04-10T01:59:53.048Z</time></trkpt><trkpt lat="32.2507066" lon="-110.8835066"><ele>749.6666666666666</ele><time>2026-04-10T01:59:54.049Z</time></trkpt><trkpt lat="32.2507062" lon="-110.8837174"><ele>749.3333333333333</ele><time>2026-04-10T01:59:55.049Z</time></trkpt><trkpt lat="32.2507079" lon="-110.8839354"><ele>749.0</ele><time>2026-04-10T01:59:56.048Z</time></trkpt><trkpt lat="32.2507061" lon="-110.8841562"><ele>750.6666666666666</ele><time>2026-04-10T01:59:57.049Z</time></trkpt><trkpt lat="32.250705" lon="-110.8843831"><ele>752.3333333333334</ele><time>2026-04-10T01:59:58.049Z</time></trkpt><trkpt lat="32.2507054" lon="-110.8846091"><ele>754.0</ele><time>2026-04-10T01:59:59.049Z</time></trkpt><trkpt lat="32.2507045" lon="-110.8848356"><ele>754.0</ele><time>2026-04-10T02:00:00.048Z</time></trkpt><trkpt lat="32.2507032" lon="-110.8850563"><ele>754.0</ele><time>2026-04-10T02:00:01.048Z</time></trkpt><trkpt lat="32.250702" lon="-110.8852829"><ele>754.0</ele><time>2026-04-10T02:00:02.049Z</time></trkpt><trkpt lat="32.2507022" lon="-110.885504"><ele>753.3333333333334</ele><time>2026-04-10T02:00:03.048Z</time></trkpt><trkpt lat="32.2507002" lon="-110.8857281"><ele>752.6666666666666</ele><time>2026-04-10T02:00:04.049Z</time></trkpt><trkpt lat="32.250703" lon="-110.8859442"><ele>752.0</ele><time>2026-04-10T02:00:05.049Z</time></trkpt><trkpt lat="32.2507013" lon="-110.8861653"><ele>751.3333333333333</ele><time>2026-04-10T02:00:06.05Z</time></trkpt><trkpt lat="32.2506988" lon="-110.8863815"><ele>750.6666666666666</ele><time>2026-04-10T02:00:07.049Z</time></trkpt><trkpt lat="32.2506976" lon="-110.8866034"><ele>750.0</ele><time>2026-04-10T02:00:08.048Z</time></trkpt><trkpt lat="32.2506967" lon="-110.8868227"><ele>750.0</ele><time>2026-04-10T02:00:09.048Z</time></trkpt><trkpt lat="32.2506982" lon="-110.8870443"><ele>750.0</ele><time>2026-04-10T02:00:10.049Z</time></trkpt><trkpt lat="32.2506971" lon="-110.8872621"><ele>750.0</ele><time>2026-04-10T02:00:11.049Z</time></trkpt><trkpt lat="32.2506944" lon="-110.8874798"><ele>751.0</ele><time>2026-04-10T02:00:12.048Z</time></trkpt><trkpt lat="32.2506951" lon="-110.8876944"><ele>752.0</ele><time>2026-04-10T02:00:13.048Z</time></trkpt><trkpt lat="32.2506965" lon="-110.8879124"><ele>753.0</ele><time>2026-04-10T02:00:14.049Z</time></trkpt><trkpt lat="32.2506965" lon="-110.8881257"><ele>753.0</ele><time>2026-04-10T02:00:15.049Z</time></trkpt><trkpt lat="32.2506962" lon="-110.8883393"><ele>753.0</ele><time>2026-04-10T02:00:16.049Z</time></trkpt><trkpt lat="32.2506961" lon="-110.8885509"><ele>753.0</ele><time>2026-04-10T02:00:17.049Z</time></trkpt><trkpt lat="32.2506949" lon="-110.8887666"><ele>752.6666666666666</ele><time>2026-04-10T02:00:18.052Z</time></trkpt><trkpt lat="32.2506931" lon="-110.8889804"><ele>752.3333333333333</ele><time>2026-04-10T02:00:19.049Z</time></trkpt><trkpt lat="32.2506944" lon="-110.8891933"><ele>752.0</ele><time>2026-04-10T02:00:20.049Z</time></trkpt><trkpt lat="32.2507007" lon="-110.8893996"><ele>751.3333333333333</ele><time>2026-04-10T02:00:21.048Z</time></trkpt><trkpt lat="32.2507052" lon="-110.8896022"><ele>750.6666666666666</ele><time>2026-04-10T02:00:22.05Z</time></trkpt><trkpt lat="32.2507101" lon="-110.8897984"><ele>750.0</ele><time>2026-04-10T02:00:23.048Z</time></trkpt><trkpt lat="32.2507141" lon="-110.8899881"><ele>750.0</ele><time>2026-04-10T02:00:24.049Z</time></trkpt><trkpt lat="32.2507185" lon="-110.8901777"><ele>750.0</ele><time>2026-04-10T02:00:25.05Z</time></trkpt><trkpt lat="32.2507199" lon="-110.8903678"><ele>750.0</ele><time>2026-04-10T02:00:26.048Z</time></trkpt><trkpt lat="32.2507269" lon="-110.8905531"><ele>750.0</ele><time>2026-04-10T02:00:27.048Z</time></trkpt><trkpt lat="32.2507226" lon="-110.8907344"><ele>750.0</ele><time>2026-04-10T02:00:28.05Z</time></trkpt><trkpt lat="32.2507223" lon="-110.8909102"><ele>750.0</ele><time>2026-04-10T02:00:29.049Z</time></trkpt><trkpt lat="32.2507225" lon="-110.891094"><ele>750.25</ele><time>2026-04-10T02:00:30.049Z</time></trkpt><trkpt lat="32.2507227" lon="-110.8912697"><ele>750.5</ele><time>2026-04-10T02:00:31.049Z</time></trkpt><trkpt lat="32.2507122" lon="-110.8914424"><ele>750.75</ele><time>2026-04-10T02:00:32.049Z</time></trkpt><trkpt lat="32.2506925" lon="-110.8916233"><ele>751.0</ele><time>2026-04-10T02:00:33.048Z</time></trkpt><trkpt lat="32.2506786" lon="-110.8917941"><ele>751.0</ele><time>2026-04-10T02:00:34.049Z</time></trkpt><trkpt lat="32.2506659" lon="-110.8919409"><ele>751.0</ele><time>2026-04-10T02:00:35.048Z</time></trkpt><trkpt lat="32.2506639" lon="-110.89208"><ele>751.0</ele><time>2026-04-10T02:00:36.05Z</time></trkpt><trkpt lat="32.2506599" lon="-110.8922156"><ele>751.0</ele><time>2026-04-10T02:00:37.048Z</time></trkpt><trkpt lat="32.2506563" lon="-110.892336"><ele>751.0</ele><time>2026-04-10T02:00:38.05Z</time></trkpt><trkpt lat="32.2506545" lon="-110.8924378"><ele>751.0</ele><time>2026-04-10T02:00:39.048Z</time></trkpt><trkpt lat="32.250653" lon="-110.8925135"><ele>751.0</ele><time>2026-04-10T02:00:40.052Z</time></trkpt><trkpt lat="32.2506457" lon="-110.892601"><ele>751.0</ele><time>2026-04-10T02:00:42.049Z</time></trkpt><trkpt lat="32.2505833" lon="-110.89269"><ele>751.0</ele><time>2026-04-10T02:00:44.049Z</time></trkpt><trkpt lat="32.2505137" lon="-110.8927275"><ele>751.0</ele><time>2026-04-10T02:00:45.05Z</time></trkpt><trkpt lat="32.2504281" lon="-110.8927472"><ele>750.75</ele><time>2026-04-10T02:00:46.049Z</time></trkpt><trkpt lat="32.2503249" lon="-110.8927485"><ele>750.5</ele><time>2026-04-10T02:00:47.048Z</time></trkpt><trkpt lat="32.2502042" lon="-110.8927442"><ele>750.25</ele><time>2026-04-10T02:00:48.049Z</time></trkpt><trkpt lat="32.2500588" lon="-110.8927391"><ele>750.0</ele><time>2026-04-10T02:00:49.05Z</time></trkpt><trkpt lat="32.2498813" lon="-110.8927366"><ele>751.0</ele><time>2026-04-10T02:00:50.049Z</time></trkpt><trkpt lat="32.2496724" lon="-110.8927337"><ele>752.0</ele><time>2026-04-10T02:00:51.05Z</time></trkpt><trkpt lat="32.2494512" lon="-110.8927327"><ele>753.0</ele><time>2026-04-10T02:00:52.051Z</time></trkpt><trkpt lat="32.2492332" lon="-110.8927291"><ele>753.0</ele><time>2026-04-10T02:00:53.049Z</time></trkpt><trkpt lat="32.2490227" lon="-110.8927347"><ele>753.0</ele><time>2026-04-10T02:00:54.049Z</time></trkpt><trkpt lat="32.2488197" lon="-110.8927473"><ele>753.0</ele><time>2026-04-10T02:00:55.049Z</time></trkpt><trkpt lat="32.2486199" lon="-110.8927558"><ele>752.6666666666666</ele><time>2026-04-10T02:00:56.048Z</time></trkpt><trkpt lat="32.2484215" lon="-110.8927583"><ele>752.3333333333333</ele><time>2026-04-10T02:00:57.052Z</time></trkpt><trkpt lat="32.2482329" lon="-110.8927614"><ele>752.0</ele><time>2026-04-10T02:00:58.049Z</time></trkpt><trkpt lat="32.248044" lon="-110.892757"><ele>751.6666666666666</ele><time>2026-04-10T02:00:59.049Z</time></trkpt><trkpt lat="32.2478525" lon="-110.8927538"><ele>751.3333333333334</ele><time>2026-04-10T02:01:00.049Z</time></trkpt><trkpt lat="32.2476651" lon="-110.8927504"><ele>751.0</ele><time>2026-04-10T02:01:01.049Z</time></trkpt><trkpt lat="32.2474799" lon="-110.8927458"><ele>751.0</ele><time>2026-04-10T02:01:02.05Z</time></trkpt><trkpt lat="32.2472974" lon="-110.8927503"><ele>751.0</ele><time>2026-04-10T02:01:03.05Z</time></trkpt><trkpt lat="32.2471185" lon="-110.8927486"><ele>751.0</ele><time>2026-04-10T02:01:04.049Z</time></trkpt><trkpt lat="32.2469413" lon="-110.8927464"><ele>750.6666666666667</ele><time>2026-04-10T02:01:05.049Z</time></trkpt><trkpt lat="32.2467656" lon="-110.8927498"><ele>750.3333333333334</ele><time>2026-04-10T02:01:06.049Z</time></trkpt><trkpt lat="32.2465914" lon="-110.8927487"><ele>750.0</ele><time>2026-04-10T02:01:07.049Z</time></trkpt><trkpt lat="32.2464191" lon="-110.892749"><ele>751.3333333333334</ele><time>2026-04-10T02:01:08.049Z</time></trkpt><trkpt lat="32.2462456" lon="-110.8927504"><ele>752.6666666666667</ele><time>2026-04-10T02:01:09.049Z</time></trkpt><trkpt lat="32.246079" lon="-110.8927504"><ele>754.0</ele><time>2026-04-10T02:01:10.048Z</time></trkpt><trkpt lat="32.2459129" lon="-110.8927529"><ele>754.0</ele><time>2026-04-10T02:01:11.048Z</time></trkpt><trkpt lat="32.2457447" lon="-110.8927468"><ele>754.0</ele><time>2026-04-10T02:01:12.049Z</time></trkpt><trkpt lat="32.2455771" lon="-110.8927447"><ele>754.0</ele><time>2026-04-10T02:01:13.049Z</time></trkpt><trkpt lat="32.2454154" lon="-110.8927415"><ele>754.6666666666667</ele><time>2026-04-10T02:01:14.048Z</time></trkpt><trkpt lat="32.2452482" lon="-110.8927405"><ele>755.3333333333334</ele><time>2026-04-10T02:01:15.048Z</time></trkpt><trkpt lat="32.2450883" lon="-110.892742"><ele>756.0</ele><time>2026-04-10T02:01:16.049Z</time></trkpt><trkpt lat="32.2449306" lon="-110.8927438"><ele>756.0</ele><time>2026-04-10T02:01:17.049Z</time></trkpt><trkpt lat="32.2447772" lon="-110.8927467"><ele>756.0</ele><time>2026-04-10T02:01:18.049Z</time></trkpt><trkpt lat="32.2446221" lon="-110.8927417"><ele>756.0</ele><time>2026-04-10T02:01:19.048Z</time></trkpt><trkpt lat="32.2444739" lon="-110.8927408"><ele>756.0</ele><time>2026-04-10T02:01:20.049Z</time></trkpt><trkpt lat="32.2443272" lon="-110.892737"><ele>756.0</ele><time>2026-04-10T02:01:21.049Z</time></trkpt><trkpt lat="32.2441773" lon="-110.8927358"><ele>756.0</ele><time>2026-04-10T02:01:22.048Z</time></trkpt><trkpt lat="32.244033" lon="-110.8927357"><ele>756.0</ele><time>2026-04-10T02:01:23.049Z</time></trkpt><trkpt lat="32.2438867" lon="-110.8927369"><ele>756.5</ele><time>2026-04-10T02:01:24.048Z</time></trkpt><trkpt lat="32.2437419" lon="-110.8927384"><ele>757.0</ele><time>2026-04-10T02:01:25.049Z</time></trkpt><trkpt lat="32.2435934" lon="-110.8927365"><ele>757.5</ele><time>2026-04-10T02:01:26.05Z</time></trkpt><trkpt lat="32.2434473" lon="-110.8927334"><ele>758.0</ele><time>2026-04-10T02:01:27.049Z</time></trkpt><trkpt lat="32.2432972" lon="-110.892737"><ele>758.0</ele><time>2026-04-10T02:01:28.05Z</time></trkpt><trkpt lat="32.2431401" lon="-110.8927355"><ele>758.0</ele><time>2026-04-10T02:01:29.049Z</time></trkpt><trkpt lat="32.24298" lon="-110.8927322"><ele>758.0</ele><time>2026-04-10T02:01:30.048Z</time></trkpt><trkpt lat="32.2428192" lon="-110.8927299"><ele>757.0</ele><time>2026-04-10T02:01:31.05Z</time></trkpt><trkpt lat="32.2426619" lon="-110.8927369"><ele>756.0</ele><time>2026-04-10T02:01:32.049Z</time></trkpt><trkpt lat="32.2425114" lon="-110.8927348"><ele>755.0</ele><time>2026-04-10T02:01:33.049Z</time></trkpt><trkpt lat="32.2423604" lon="-110.8927361"><ele>756.0</ele><time>2026-04-10T02:01:34.049Z</time></trkpt><trkpt lat="32.2422012" lon="-110.8927334"><ele>757.0</ele><time>2026-04-10T02:01:35.051Z</time></trkpt><trkpt lat="32.2420421" lon="-110.8927296"><ele>758.0</ele><time>2026-04-10T02:01:36.051Z</time></trkpt><trkpt lat="32.2418816" lon="-110.8927237"><ele>758.0</ele><time>2026-04-10T02:01:37.048Z</time></trkpt><trkpt lat="32.2417146" lon="-110.8927251"><ele>758.0</ele><time>2026-04-10T02:01:38.049Z</time></trkpt><trkpt lat="32.2415476" lon="-110.8927227"><ele>758.0</ele><time>2026-04-10T02:01:39.049Z</time></trkpt><trkpt lat="32.2413781" lon="-110.8927222"><ele>758.6666666666666</ele><time>2026-04-10T02:01:40.05Z</time></trkpt><trkpt lat="32.241211" lon="-110.8927268"><ele>759.3333333333334</ele><time>2026-04-10T02:01:41.051Z</time></trkpt><trkpt lat="32.2410458" lon="-110.8927256"><ele>760.0</ele><time>2026-04-10T02:01:42.05Z</time></trkpt><trkpt lat="32.2408813" lon="-110.892728"><ele>760.0</ele><time>2026-04-10T02:01:43.05Z</time></trkpt><trkpt lat="32.2407149" lon="-110.8927309"><ele>760.0</ele><time>2026-04-10T02:01:44.05Z</time></trkpt><trkpt lat="32.2405532" lon="-110.892734"><ele>760.0</ele><time>2026-04-10T02:01:45.05Z</time></trkpt><trkpt lat="32.2404003" lon="-110.892728"><ele>759.0</ele><time>2026-04-10T02:01:46.049Z</time></trkpt><trkpt lat="32.2402472" lon="-110.8927286"><ele>758.0</ele><time>2026-04-10T02:01:47.05Z</time></trkpt><trkpt lat="32.2400943" lon="-110.892728"><ele>757.0</ele><time>2026-04-10T02:01:48.05Z</time></trkpt><trkpt lat="32.2399431" lon="-110.8927266"><ele>757.5</ele><time>2026-04-10T02:01:49.05Z</time></trkpt><trkpt lat="32.2397911" lon="-110.8927231"><ele>758.0</ele><time>2026-04-10T02:01:50.05Z</time></trkpt><trkpt lat="32.2396436" lon="-110.8927287"><ele>758.5</ele><time>2026-04-10T02:01:51.051Z</time></trkpt><trkpt lat="32.2394976" lon="-110.8927306"><ele>759.0</ele><time>2026-04-10T02:01:52.051Z</time></trkpt><trkpt lat="32.2393485" lon="-110.8927241"><ele>759.0</ele><time>2026-04-10T02:01:53.051Z</time></trkpt><trkpt lat="32.2392027" lon="-110.8927263"><ele>759.0</ele><time>2026-04-10T02:01:54.05Z</time></trkpt><trkpt lat="32.2390524" lon="-110.8927228"><ele>759.0</ele><time>2026-04-10T02:01:55.048Z</time></trkpt><trkpt lat="32.2388968" lon="-110.892721"><ele>760.0</ele><time>2026-04-10T02:01:56.05Z</time></trkpt><trkpt lat="32.2387428" lon="-110.892721"><ele>761.0</ele><time>2026-04-10T02:01:57.05Z</time></trkpt><trkpt lat="32.2385924" lon="-110.8927184"><ele>762.0</ele><time>2026-04-10T02:01:58.05Z</time></trkpt><trkpt lat="32.2384472" lon="-110.8927172"><ele>762.0</ele><time>2026-04-10T02:01:59.05Z</time></trkpt><trkpt lat="32.2383118" lon="-110.8927179"><ele>762.0</ele><time>2026-04-10T02:02:00.049Z</time></trkpt><trkpt lat="32.2381842" lon="-110.8927197"><ele>762.0</ele><time>2026-04-10T02:02:01.049Z</time></trkpt><trkpt lat="32.238041" lon="-110.8927176"><ele>762.0</ele><time>2026-04-10T02:02:02.051Z</time></trkpt><trkpt lat="32.2378956" lon="-110.8927156"><ele>762.25</ele><time>2026-04-10T02:02:03.049Z</time></trkpt><trkpt lat="32.2377441" lon="-110.8927154"><ele>762.5</ele><time>2026-04-10T02:02:04.05Z</time></trkpt><trkpt lat="32.2376064" lon="-110.8927207"><ele>762.75</ele><time>2026-04-10T02:02:05.049Z</time></trkpt><trkpt lat="32.2374741" lon="-110.892724"><ele>763.0</ele><time>2026-04-10T02:02:06.05Z</time></trkpt><trkpt lat="32.2373508" lon="-110.89273"><ele>762.75</ele><time>2026-04-10T02:02:07.051Z</time></trkpt><trkpt lat="32.2372186" lon="-110.8927398"><ele>762.5</ele><time>2026-04-10T02:02:08.05Z</time></trkpt><trkpt lat="32.237083" lon="-110.8927514"><ele>762.25</ele><time>2026-04-10T02:02:09.049Z</time></trkpt><trkpt lat="32.2369482" lon="-110.8927705"><ele>762.0</ele><time>2026-04-10T02:02:10.048Z</time></trkpt><trkpt lat="32.2368216" lon="-110.8927808"><ele>762.0</ele><time>2026-04-10T02:02:11.048Z</time></trkpt><trkpt lat="32.2367006" lon="-110.8927835"><ele>762.0</ele><time>2026-04-10T02:02:12.049Z</time></trkpt><trkpt lat="32.2365976" lon="-110.8927841"><ele>762.0</ele><time>2026-04-10T02:02:13.049Z</time></trkpt><trkpt lat="32.2365055" lon="-110.892785"><ele>762.0</ele><time>2026-04-10T02:02:14.049Z</time></trkpt><trkpt lat="32.236429" lon="-110.8927974"><ele>762.0</ele><time>2026-04-10T02:02:15.05Z</time></trkpt><trkpt lat="32.2363711" lon="-110.8928328"><ele>762.4000000000001</ele><time>2026-04-10T02:02:16.049Z</time></trkpt><trkpt lat="32.23633" lon="-110.892897"><ele>762.8000000000001</ele><time>2026-04-10T02:02:17.05Z</time></trkpt><trkpt lat="32.2363084" lon="-110.8929833"><ele>763.2</ele><time>2026-04-10T02:02:18.049Z</time></trkpt><trkpt lat="32.2362918" lon="-110.8930913"><ele>763.6</ele><time>2026-04-10T02:02:19.05Z</time></trkpt><trkpt lat="32.2362872" lon="-110.8932437"><ele>764.0</ele><time>2026-04-10T02:02:20.05Z</time></trkpt><trkpt lat="32.2362849" lon="-110.8934339"><ele>762.6666666666666</ele><time>2026-04-10T02:02:21.051Z</time></trkpt><trkpt lat="32.2362831" lon="-110.8936774"><ele>761.3333333333334</ele><time>2026-04-10T02:02:22.049Z</time></trkpt><trkpt lat="32.2362812" lon="-110.8939548"><ele>760.0</ele><time>2026-04-10T02:02:23.05Z</time></trkpt><trkpt lat="32.2362796" lon="-110.8942724"><ele>759.5</ele><time>2026-04-10T02:02:24.05Z</time></trkpt><trkpt lat="32.236279" lon="-110.8945806"><ele>759.0</ele><time>2026-04-10T02:02:25.051Z</time></trkpt><trkpt lat="32.2362791" lon="-110.8948717"><ele>759.0</ele><time>2026-04-10T02:02:26.05Z</time></trkpt><trkpt lat="32.236278" lon="-110.8951468"><ele>759.0</ele><time>2026-04-10T02:02:27.05Z</time></trkpt><trkpt lat="32.2362765" lon="-110.8954074"><ele>759.0</ele><time>2026-04-10T02:02:28.05Z</time></trkpt><trkpt lat="32.2362755" lon="-110.895657"><ele>759.0</ele><time>2026-04-10T02:02:29.05Z</time></trkpt><trkpt lat="32.2362748" lon="-110.8958973"><ele>759.0</ele><time>2026-04-10T02:02:30.051Z</time></trkpt><trkpt lat="32.2362744" lon="-110.8961361"><ele>759.0</ele><time>2026-04-10T02:02:31.051Z</time></trkpt><trkpt lat="32.2362737" lon="-110.8963743"><ele>759.0</ele><time>2026-04-10T02:02:32.05Z</time></trkpt><trkpt lat="32.2362713" lon="-110.8966106"><ele>759.0</ele><time>2026-04-10T02:02:33.05Z</time></trkpt><trkpt lat="32.2362709" lon="-110.8968434"><ele>759.0</ele><time>2026-04-10T02:02:34.051Z</time></trkpt><trkpt lat="32.2362708" lon="-110.8970777"><ele>759.0</ele><time>2026-04-10T02:02:35.05Z</time></trkpt><trkpt lat="32.2362698" lon="-110.897299"><ele>759.0</ele><time>2026-04-10T02:02:36.05Z</time></trkpt><trkpt lat="32.2362651" lon="-110.8975203"><ele>758.0</ele><time>2026-04-10T02:02:37.051Z</time></trkpt><trkpt lat="32.2362619" lon="-110.8977289"><ele>757.0</ele><time>2026-04-10T02:02:38.05Z</time></trkpt><trkpt lat="32.2362652" lon="-110.8979412"><ele>756.0</ele><time>2026-04-10T02:02:39.05Z</time></trkpt><trkpt lat="32.2362679" lon="-110.8981478"><ele>756.0</ele><time>2026-04-10T02:02:40.05Z</time></trkpt><trkpt lat="32.2362651" lon="-110.898356"><ele>756.0</ele><time>2026-04-10T02:02:41.05Z</time></trkpt><trkpt lat="32.2362679" lon="-110.8985614"><ele>756.0</ele><time>2026-04-10T02:02:42.053Z</time></trkpt><trkpt lat="32.2362761" lon="-110.8987655"><ele>756.3333333333334</ele><time>2026-04-10T02:02:43.05Z</time></trkpt><trkpt lat="32.2362826" lon="-110.8989699"><ele>756.6666666666667</ele><time>2026-04-10T02:02:44.05Z</time></trkpt><trkpt lat="32.236285" lon="-110.8991728"><ele>757.0</ele><time>2026-04-10T02:02:45.05Z</time></trkpt><trkpt lat="32.2362872" lon="-110.8993694"><ele>757.3333333333334</ele><time>2026-04-10T02:02:46.05Z</time></trkpt><trkpt lat="32.2362867" lon="-110.899557"><ele>757.6666666666666</ele><time>2026-04-10T02:02:47.05Z</time></trkpt><trkpt lat="32.2362847" lon="-110.8997437"><ele>758.0</ele><time>2026-04-10T02:02:48.05Z</time></trkpt><trkpt lat="32.2362822" lon="-110.8999237"><ele>758.0</ele><time>2026-04-10T02:02:49.05Z</time></trkpt><trkpt lat="32.2362833" lon="-110.900091"><ele>758.0</ele><time>2026-04-10T02:02:50.05Z</time></trkpt><trkpt lat="32.2362842" lon="-110.9002453"><ele>758.0</ele><time>2026-04-10T02:02:51.051Z</time></trkpt><trkpt lat="32.2362796" lon="-110.9003889"><ele>758.0</ele><time>2026-04-10T02:02:52.051Z</time></trkpt><trkpt lat="32.2362802" lon="-110.9005175"><ele>758.0</ele><time>2026-04-10T02:02:53.051Z</time></trkpt><trkpt lat="32.2362797" lon="-110.9006301"><ele>758.0</ele><time>2026-04-10T02:02:54.05Z</time></trkpt><trkpt lat="32.236281" lon="-110.90073"><ele>758.0</ele><time>2026-04-10T02:02:55.05Z</time></trkpt><trkpt lat="32.2362791" lon="-110.9008115"><ele>758.0</ele><time>2026-04-10T02:02:56.051Z</time></trkpt><trkpt lat="32.2362757" lon="-110.9009331"><ele>758.0</ele><time>2026-04-10T02:02:58.05Z</time></trkpt><trkpt lat="32.2362753" lon="-110.9010335"><ele>758.0</ele><time>2026-04-10T02:03:01.05Z</time></trkpt><trkpt lat="32.2362804" lon="-110.9011187"><ele>758.0</ele><time>2026-04-10T02:03:11.05Z</time></trkpt><trkpt lat="32.2362814" lon="-110.9011984"><ele>758.0</ele><time>2026-04-10T02:03:12.05Z</time></trkpt><trkpt lat="32.2362758" lon="-110.9012977"><ele>758.0</ele><time>2026-04-10T02:03:13.05Z</time></trkpt><trkpt lat="32.2362775" lon="-110.9014284"><ele>758.0</ele><time>2026-04-10T02:03:14.05Z</time></trkpt><trkpt lat="32.2362775" lon="-110.9015795"><ele>758.0</ele><time>2026-04-10T02:03:15.052Z</time></trkpt><trkpt lat="32.2362782" lon="-110.9017639"><ele>758.3333333333333</ele><time>2026-04-10T02:03:16.051Z</time></trkpt><trkpt lat="32.2362765" lon="-110.9019526"><ele>758.6666666666666</ele><time>2026-04-10T02:03:17.05Z</time></trkpt><trkpt lat="32.2362773" lon="-110.9021628"><ele>759.0</ele><time>2026-04-10T02:03:18.05Z</time></trkpt><trkpt lat="32.2362781" lon="-110.9023783"><ele>759.3333333333334</ele><time>2026-04-10T02:03:19.051Z</time></trkpt><trkpt lat="32.2362755" lon="-110.9025986"><ele>759.6666666666667</ele><time>2026-04-10T02:03:20.051Z</time></trkpt><trkpt lat="32.2362704" lon="-110.9028205"><ele>760.0</ele><time>2026-04-10T02:03:21.049Z</time></trkpt><trkpt lat="32.2362627" lon="-110.9030469"><ele>760.0</ele><time>2026-04-10T02:03:22.05Z</time></trkpt><trkpt lat="32.2362582" lon="-110.9032743"><ele>760.0</ele><time>2026-04-10T02:03:23.05Z</time></trkpt><trkpt lat="32.2362548" lon="-110.9034993"><ele>760.0</ele><time>2026-04-10T02:03:24.052Z</time></trkpt><trkpt lat="32.2362535" lon="-110.9037236"><ele>760.3333333333334</ele><time>2026-04-10T02:03:25.05Z</time></trkpt><trkpt lat="32.2362527" lon="-110.9039484"><ele>760.6666666666666</ele><time>2026-04-10T02:03:26.05Z</time></trkpt><trkpt lat="32.2362518" lon="-110.9041725"><ele>761.0</ele><time>2026-04-10T02:03:27.05Z</time></trkpt><trkpt lat="32.2362511" lon="-110.9043949"><ele>761.0</ele><time>2026-04-10T02:03:28.05Z</time></trkpt><trkpt lat="32.2362497" lon="-110.9046175"><ele>761.0</ele><time>2026-04-10T02:03:29.05Z</time></trkpt><trkpt lat="32.2362486" lon="-110.9048345"><ele>761.0</ele><time>2026-04-10T02:03:30.051Z</time></trkpt><trkpt lat="32.2362467" lon="-110.9050482"><ele>761.0</ele><time>2026-04-10T02:03:31.051Z</time></trkpt><trkpt lat="32.2362467" lon="-110.9052624"><ele>761.0</ele><time>2026-04-10T02:03:32.051Z</time></trkpt><trkpt lat="32.2362472" lon="-110.9054751"><ele>761.0</ele><time>2026-04-10T02:03:33.049Z</time></trkpt><trkpt lat="32.2362459" lon="-110.9056873"><ele>761.0</ele><time>2026-04-10T02:03:34.051Z</time></trkpt><trkpt lat="32.2362453" lon="-110.9059017"><ele>761.0</ele><time>2026-04-10T02:03:35.051Z</time></trkpt><trkpt lat="32.2362449" lon="-110.9061107"><ele>761.0</ele><time>2026-04-10T02:03:36.052Z</time></trkpt><trkpt lat="32.2362448" lon="-110.9063126"><ele>760.3333333333333</ele><time>2026-04-10T02:03:37.051Z</time></trkpt><trkpt lat="32.2362465" lon="-110.9065067"><ele>759.6666666666666</ele><time>2026-04-10T02:03:38.05Z</time></trkpt><trkpt lat="32.2362466" lon="-110.9066948"><ele>759.0</ele><time>2026-04-10T02:03:39.05Z</time></trkpt><trkpt lat="32.2362463" lon="-110.9068758"><ele>758.5</ele><time>2026-04-10T02:03:40.051Z</time></trkpt><trkpt lat="32.2362462" lon="-110.9070506"><ele>758.0</ele><time>2026-04-10T02:03:41.052Z</time></trkpt><trkpt lat="32.2362467" lon="-110.9072172"><ele>757.5</ele><time>2026-04-10T02:03:42.051Z</time></trkpt><trkpt lat="32.2362468" lon="-110.9073714"><ele>757.0</ele><time>2026-04-10T02:03:43.05Z</time></trkpt><trkpt lat="32.236247" lon="-110.9075124"><ele>756.8333333333334</ele><time>2026-04-10T02:03:44.05Z</time></trkpt><trkpt lat="32.2362478" lon="-110.9076364"><ele>756.6666666666667</ele><time>2026-04-10T02:03:45.05Z</time></trkpt><trkpt lat="32.2362483" lon="-110.9077394"><ele>756.5</ele><time>2026-04-10T02:03:46.05Z</time></trkpt><trkpt lat="32.2362482" lon="-110.9078225"><ele>756.3333333333334</ele><time>2026-04-10T02:03:47.05Z</time></trkpt><trkpt lat="32.2362477" lon="-110.9079373"><ele>756.1666666666666</ele><time>2026-04-10T02:03:49.05Z</time></trkpt><trkpt lat="32.236246" lon="-110.9080189"><ele>756.0</ele><time>2026-04-10T02:03:51.051Z</time></trkpt><trkpt lat="32.2362497" lon="-110.9081374"><ele>756.0</ele><time>2026-04-10T02:03:53.051Z</time></trkpt><trkpt lat="32.2362513" lon="-110.9082129"><ele>756.0</ele><time>2026-04-10T02:03:54.051Z</time></trkpt><trkpt lat="32.2362527" lon="-110.9082976"><ele>756.0</ele><time>2026-04-10T02:03:55.05Z</time></trkpt><trkpt lat="32.2362514" lon="-110.908396"><ele>756.0</ele><time>2026-04-10T02:03:56.051Z</time></trkpt><trkpt lat="32.2362451" lon="-110.9085156"><ele>756.0</ele><time>2026-04-10T02:03:57.052Z</time></trkpt><trkpt lat="32.2362395" lon="-110.9086578"><ele>756.0</ele><time>2026-04-10T02:03:58.051Z</time></trkpt><trkpt lat="32.2362366" lon="-110.9088226"><ele>757.3333333333334</ele><time>2026-04-10T02:03:59.051Z</time></trkpt><trkpt lat="32.2362382" lon="-110.9090036"><ele>758.6666666666667</ele><time>2026-04-10T02:04:00.053Z</time></trkpt><trkpt lat="32.2362436" lon="-110.90919"><ele>760.0</ele><time>2026-04-10T02:04:01.05Z</time></trkpt><trkpt lat="32.2362492" lon="-110.909374"><ele>760.0</ele><time>2026-04-10T02:04:02.051Z</time></trkpt><trkpt lat="32.2362527" lon="-110.9095523"><ele>760.0</ele><time>2026-04-10T02:04:03.051Z</time></trkpt><trkpt lat="32.2362557" lon="-110.9097248"><ele>760.0</ele><time>2026-04-10T02:04:04.052Z</time></trkpt><trkpt lat="32.236257" lon="-110.9098924"><ele>760.0</ele><time>2026-04-10T02:04:05.051Z</time></trkpt><trkpt lat="32.2362568" lon="-110.9100591"><ele>759.25</ele><time>2026-04-10T02:04:06.05Z</time></trkpt><trkpt lat="32.2362554" lon="-110.9102254"><ele>758.5</ele><time>2026-04-10T02:04:07.051Z</time></trkpt><trkpt lat="32.2362535" lon="-110.9103925"><ele>757.75</ele><time>2026-04-10T02:04:08.052Z</time></trkpt><trkpt lat="32.2362525" lon="-110.9105536"><ele>757.0</ele><time>2026-04-10T02:04:09.051Z</time></trkpt><trkpt lat="32.2362504" lon="-110.9107111"><ele>757.0</ele><time>2026-04-10T02:04:10.05Z</time></trkpt><trkpt lat="32.2362485" lon="-110.9108693"><ele>757.0</ele><time>2026-04-10T02:04:11.051Z</time></trkpt><trkpt lat="32.2362485" lon="-110.9110292"><ele>757.0</ele><time>2026-04-10T02:04:12.051Z</time></trkpt><trkpt lat="32.2362475" lon="-110.9111883"><ele>757.0</ele><time>2026-04-10T02:04:13.052Z</time></trkpt><trkpt lat="32.2362484" lon="-110.911348"><ele>757.25</ele><time>2026-04-10T02:04:14.051Z</time></trkpt><trkpt lat="32.2362486" lon="-110.9115092"><ele>757.5</ele><time>2026-04-10T02:04:15.051Z</time></trkpt><trkpt lat="32.2362488" lon="-110.9116742"><ele>757.75</ele><time>2026-04-10T02:04:16.051Z</time></trkpt><trkpt lat="32.2362492" lon="-110.9118424"><ele>758.0</ele><time>2026-04-10T02:04:17.051Z</time></trkpt><trkpt lat="32.2362495" lon="-110.9120105"><ele>758.0</ele><time>2026-04-10T02:04:18.051Z</time></trkpt><trkpt lat="32.2362497" lon="-110.9121804"><ele>758.0</ele><time>2026-04-10T02:04:19.05Z</time></trkpt><trkpt lat="32.2362488" lon="-110.9123495"><ele>758.0</ele><time>2026-04-10T02:04:20.051Z</time></trkpt><trkpt lat="32.2362472" lon="-110.9125174"><ele>758.0</ele><time>2026-04-10T02:04:21.051Z</time></trkpt><trkpt lat="32.2362458" lon="-110.9126799"><ele>757.75</ele><time>2026-04-10T02:04:22.051Z</time></trkpt><trkpt lat="32.2362427" lon="-110.9128409"><ele>757.5</ele><time>2026-04-10T02:04:23.051Z</time></trkpt><trkpt lat="32.2362419" lon="-110.9130019"><ele>757.25</ele><time>2026-04-10T02:04:24.052Z</time></trkpt><trkpt lat="32.2362404" lon="-110.913165"><ele>757.0</ele><time>2026-04-10T02:04:25.051Z</time></trkpt><trkpt lat="32.23624" lon="-110.9133299"><ele>756.5</ele><time>2026-04-10T02:04:26.051Z</time></trkpt><trkpt lat="32.2362401" lon="-110.9134964"><ele>756.0</ele><time>2026-04-10T02:04:27.052Z</time></trkpt><trkpt lat="32.2362406" lon="-110.9136591"><ele>755.5</ele><time>2026-04-10T02:04:28.051Z</time></trkpt><trkpt lat="32.2362394" lon="-110.9138231"><ele>755.0</ele><time>2026-04-10T02:04:29.051Z</time></trkpt><trkpt lat="32.2362383" lon="-110.9139859"><ele>755.0</ele><time>2026-04-10T02:04:30.051Z</time></trkpt><trkpt lat="32.2362376" lon="-110.9141492"><ele>755.0</ele><time>2026-04-10T02:04:31.051Z</time></trkpt><trkpt lat="32.2362373" lon="-110.9143102"><ele>755.0</ele><time>2026-04-10T02:04:32.051Z</time></trkpt><trkpt lat="32.2362361" lon="-110.914479"><ele>755.0</ele><time>2026-04-10T02:04:33.05Z</time></trkpt><trkpt lat="32.2362342" lon="-110.9146455"><ele>754.75</ele><time>2026-04-10T02:04:34.051Z</time></trkpt><trkpt lat="32.2362334" lon="-110.9148142"><ele>754.5</ele><time>2026-04-10T02:04:35.05Z</time></trkpt><trkpt lat="32.2362321" lon="-110.9149829"><ele>754.25</ele><time>2026-04-10T02:04:36.054Z</time></trkpt><trkpt lat="32.2362316" lon="-110.9151539"><ele>754.0</ele><time>2026-04-10T02:04:37.051Z</time></trkpt><trkpt lat="32.2362309" lon="-110.9153305"><ele>754.0</ele><time>2026-04-10T02:04:38.05Z</time></trkpt><trkpt lat="32.2362319" lon="-110.9155098"><ele>754.0</ele><time>2026-04-10T02:04:39.051Z</time></trkpt><trkpt lat="32.2362308" lon="-110.9156864"><ele>754.0</ele><time>2026-04-10T02:04:40.051Z</time></trkpt><trkpt lat="32.2362294" lon="-110.9158581"><ele>754.0</ele><time>2026-04-10T02:04:41.051Z</time></trkpt><trkpt lat="32.236228" lon="-110.9160301"><ele>754.0</ele><time>2026-04-10T02:04:42.051Z</time></trkpt><trkpt lat="32.236226" lon="-110.9162017"><ele>754.0</ele><time>2026-04-10T02:04:43.051Z</time></trkpt><trkpt lat="32.2362238" lon="-110.9163715"><ele>754.0</ele><time>2026-04-10T02:04:44.051Z</time></trkpt><trkpt lat="32.2362212" lon="-110.9165455"><ele>754.0</ele><time>2026-04-10T02:04:45.05Z</time></trkpt><trkpt lat="32.2362201" lon="-110.9167227"><ele>754.0</ele><time>2026-04-10T02:04:46.052Z</time></trkpt><trkpt lat="32.2362178" lon="-110.9169002"><ele>754.0</ele><time>2026-04-10T02:04:47.051Z</time></trkpt><trkpt lat="32.2362173" lon="-110.9170749"><ele>754.0</ele><time>2026-04-10T02:04:48.051Z</time></trkpt><trkpt lat="32.2362181" lon="-110.9172483"><ele>754.0</ele><time>2026-04-10T02:04:49.052Z</time></trkpt><trkpt lat="32.2362179" lon="-110.9174189"><ele>754.25</ele><time>2026-04-10T02:04:50.051Z</time></trkpt><trkpt lat="32.2362166" lon="-110.9175897"><ele>754.5</ele><time>2026-04-10T02:04:51.051Z</time></trkpt><trkpt lat="32.2362147" lon="-110.917763"><ele>754.75</ele><time>2026-04-10T02:04:52.051Z</time></trkpt><trkpt lat="32.236213" lon="-110.917941"><ele>755.0</ele><time>2026-04-10T02:04:53.05Z</time></trkpt><trkpt lat="32.2362111" lon="-110.9181171"><ele>755.0</ele><time>2026-04-10T02:04:54.052Z</time></trkpt><trkpt lat="32.2362107" lon="-110.9182908"><ele>755.0</ele><time>2026-04-10T02:04:55.051Z</time></trkpt><trkpt lat="32.2362102" lon="-110.9184662"><ele>755.0</ele><time>2026-04-10T02:04:56.051Z</time></trkpt><trkpt lat="32.2362093" lon="-110.9186402"><ele>755.0</ele><time>2026-04-10T02:04:57.052Z</time></trkpt><trkpt lat="32.2362083" lon="-110.9188192"><ele>754.0</ele><time>2026-04-10T02:04:58.052Z</time></trkpt><trkpt lat="32.2362064" lon="-110.9189989"><ele>753.0</ele><time>2026-04-10T02:04:59.054Z</time></trkpt><trkpt lat="32.2362056" lon="-110.9191767"><ele>752.0</ele><time>2026-04-10T02:05:00.05Z</time></trkpt><trkpt lat="32.2362042" lon="-110.9193555"><ele>751.6666666666666</ele><time>2026-04-10T02:05:01.05Z</time></trkpt><trkpt lat="32.2362021" lon="-110.9195336"><ele>751.3333333333334</ele><time>2026-04-10T02:05:02.051Z</time></trkpt><trkpt lat="32.236201" lon="-110.919712"><ele>751.0</ele><time>2026-04-10T02:05:03.05Z</time></trkpt><trkpt lat="32.2362006" lon="-110.9198884"><ele>751.0</ele><time>2026-04-10T02:05:04.054Z</time></trkpt><trkpt lat="32.2362008" lon="-110.9200602"><ele>751.0</ele><time>2026-04-10T02:05:05.052Z</time></trkpt><trkpt lat="32.2361999" lon="-110.9202298"><ele>751.0</ele><time>2026-04-10T02:05:06.051Z</time></trkpt><trkpt lat="32.2361985" lon="-110.9203956"><ele>751.0</ele><time>2026-04-10T02:05:07.051Z</time></trkpt><trkpt lat="32.2361979" lon="-110.9205596"><ele>751.0</ele><time>2026-04-10T02:05:08.052Z</time></trkpt><trkpt lat="32.2361963" lon="-110.9207111"><ele>751.0</ele><time>2026-04-10T02:05:09.052Z</time></trkpt><trkpt lat="32.2361957" lon="-110.9208395"><ele>751.0</ele><time>2026-04-10T02:05:10.054Z</time></trkpt><trkpt lat="32.236193" lon="-110.9209462"><ele>751.0</ele><time>2026-04-10T02:05:11.054Z</time></trkpt><trkpt lat="32.2361927" lon="-110.9210315"><ele>751.0</ele><time>2026-04-10T02:05:12.051Z</time></trkpt><trkpt lat="32.2361905" lon="-110.9211481"><ele>750.8333333333334</ele><time>2026-04-10T02:05:14.052Z</time></trkpt><trkpt lat="32.2361998" lon="-110.92124"><ele>750.6666666666667</ele><time>2026-04-10T02:05:17.051Z</time></trkpt><trkpt lat="32.2362122" lon="-110.9213473"><ele>750.5</ele><time>2026-04-10T02:05:19.052Z</time></trkpt><trkpt lat="32.2362098" lon="-110.9214718"><ele>750.3333333333334</ele><time>2026-04-10T02:05:21.051Z</time></trkpt><trkpt lat="32.2362067" lon="-110.9215682"><ele>750.1666666666666</ele><time>2026-04-10T02:05:23.051Z</time></trkpt><trkpt lat="32.2362092" lon="-110.9216503"><ele>750.0</ele><time>2026-04-10T02:05:26.051Z</time></trkpt><trkpt lat="32.2362187" lon="-110.9217849"><ele>749.75</ele><time>2026-04-10T02:05:31.051Z</time></trkpt><trkpt lat="32.2362174" lon="-110.9218771"><ele>749.5</ele><time>2026-04-10T02:05:32.051Z</time></trkpt><trkpt lat="32.2362172" lon="-110.9220034"><ele>749.25</ele><time>2026-04-10T02:05:33.051Z</time></trkpt><trkpt lat="32.2362168" lon="-110.9221521"><ele>749.0</ele><time>2026-04-10T02:05:34.052Z</time></trkpt><trkpt lat="32.2362162" lon="-110.9223228"><ele>749.0</ele><time>2026-04-10T02:05:35.051Z</time></trkpt><trkpt lat="32.2362133" lon="-110.9225159"><ele>749.0</ele><time>2026-04-10T02:05:36.052Z</time></trkpt><trkpt lat="32.2362089" lon="-110.9227306"><ele>749.0</ele><time>2026-04-10T02:05:37.053Z</time></trkpt><trkpt lat="32.2362031" lon="-110.9229555"><ele>749.6666666666666</ele><time>2026-04-10T02:05:38.052Z</time></trkpt><trkpt lat="32.2361931" lon="-110.9231798"><ele>750.3333333333334</ele><time>2026-04-10T02:05:39.052Z</time></trkpt><trkpt lat="32.2361822" lon="-110.9233964"><ele>751.0</ele><time>2026-04-10T02:05:40.052Z</time></trkpt><trkpt lat="32.2361718" lon="-110.9236041"><ele>751.6666666666667</ele><time>2026-04-10T02:05:41.051Z</time></trkpt><trkpt lat="32.2361606" lon="-110.9238024"><ele>752.3333333333334</ele><time>2026-04-10T02:05:42.052Z</time></trkpt><trkpt lat="32.2361526" lon="-110.9239961"><ele>753.0</ele><time>2026-04-10T02:05:43.053Z</time></trkpt><trkpt lat="32.2361472" lon="-110.9241884"><ele>752.3333333333334</ele><time>2026-04-10T02:05:44.052Z</time></trkpt><trkpt lat="32.2361437" lon="-110.9243821"><ele>751.6666666666667</ele><time>2026-04-10T02:05:45.051Z</time></trkpt><trkpt lat="32.2361408" lon="-110.9245752"><ele>751.0</ele><time>2026-04-10T02:05:46.051Z</time></trkpt><trkpt lat="32.2361376" lon="-110.9247582"><ele>751.0</ele><time>2026-04-10T02:05:47.053Z</time></trkpt><trkpt lat="32.2361335" lon="-110.9249348"><ele>751.0</ele><time>2026-04-10T02:05:48.052Z</time></trkpt><trkpt lat="32.2361263" lon="-110.9251054"><ele>751.0</ele><time>2026-04-10T02:05:49.052Z</time></trkpt><trkpt lat="32.2361174" lon="-110.9252702"><ele>751.0</ele><time>2026-04-10T02:05:50.051Z</time></trkpt><trkpt lat="32.2361098" lon="-110.9254232"><ele>751.4</ele><time>2026-04-10T02:05:51.052Z</time></trkpt><trkpt lat="32.236103" lon="-110.9255588"><ele>751.8</ele><time>2026-04-10T02:05:52.052Z</time></trkpt><trkpt lat="32.2360973" lon="-110.9256769"><ele>752.1999999999999</ele><time>2026-04-10T02:05:53.052Z</time></trkpt><trkpt lat="32.2360942" lon="-110.9257816"><ele>752.5999999999999</ele><time>2026-04-10T02:05:54.052Z</time></trkpt><trkpt lat="32.236095" lon="-110.9258756"><ele>753.0</ele><time>2026-04-10T02:05:55.052Z</time></trkpt><trkpt lat="32.2360992" lon="-110.9259581"><ele>753.8</ele><time>2026-04-10T02:05:56.055Z</time></trkpt><trkpt lat="32.236107" lon="-110.9261022"><ele>754.5999999999999</ele><time>2026-04-10T02:05:58.053Z</time></trkpt><trkpt lat="32.2361043" lon="-110.9262487"><ele>755.4000000000001</ele><time>2026-04-10T02:06:00.054Z</time></trkpt><trkpt lat="32.2361044" lon="-110.9263783"><ele>756.2</ele><time>2026-04-10T02:06:02.051Z</time></trkpt><trkpt lat="32.2361038" lon="-110.9264886"><ele>757.0</ele><time>2026-04-10T02:06:04.052Z</time></trkpt><trkpt lat="32.2361015" lon="-110.9265641"><ele>757.0</ele><time>2026-04-10T02:06:06.051Z</time></trkpt><trkpt lat="32.2360977" lon="-110.9266811"><ele>757.0</ele><time>2026-04-10T02:06:13.052Z</time></trkpt><trkpt lat="32.2360948" lon="-110.9267617"><ele>757.0</ele><time>2026-04-10T02:06:14.052Z</time></trkpt><trkpt lat="32.2360939" lon="-110.9268627"><ele>757.0</ele><time>2026-04-10T02:06:15.053Z</time></trkpt><trkpt lat="32.2360909" lon="-110.9269883"><ele>757.0</ele><time>2026-04-10T02:06:16.053Z</time></trkpt><trkpt lat="32.2360884" lon="-110.9271281"><ele>756.75</ele><time>2026-04-10T02:06:17.052Z</time></trkpt><trkpt lat="32.2360874" lon="-110.9272953"><ele>756.5</ele><time>2026-04-10T02:06:18.052Z</time></trkpt><trkpt lat="32.2360927" lon="-110.927469"><ele>756.25</ele><time>2026-04-10T02:06:19.052Z</time></trkpt><trkpt lat="32.2360995" lon="-110.9276542"><ele>756.0</ele><time>2026-04-10T02:06:20.052Z</time></trkpt><trkpt lat="32.2361077" lon="-110.9278515"><ele>755.6666666666666</ele><time>2026-04-10T02:06:21.053Z</time></trkpt><trkpt lat="32.2361149" lon="-110.9280598"><ele>755.3333333333333</ele><time>2026-04-10T02:06:22.052Z</time></trkpt><trkpt lat="32.2361177" lon="-110.9282788"><ele>755.0</ele><time>2026-04-10T02:06:23.052Z</time></trkpt><trkpt lat="32.2361176" lon="-110.9285097"><ele>756.0</ele><time>2026-04-10T02:06:24.052Z</time></trkpt><trkpt lat="32.2361154" lon="-110.9287469"><ele>757.0</ele><time>2026-04-10T02:06:25.052Z</time></trkpt><trkpt lat="32.2361139" lon="-110.928987"><ele>758.0</ele><time>2026-04-10T02:06:26.053Z</time></trkpt><trkpt lat="32.2361128" lon="-110.929224"><ele>757.6666666666666</ele><time>2026-04-10T02:06:27.052Z</time></trkpt><trkpt lat="32.2361122" lon="-110.9294614"><ele>757.3333333333334</ele><time>2026-04-10T02:06:28.053Z</time></trkpt><trkpt lat="32.236112" lon="-110.9296979"><ele>757.0</ele><time>2026-04-10T02:06:29.052Z</time></trkpt><trkpt lat="32.236112" lon="-110.9299372"><ele>756.0</ele><time>2026-04-10T02:06:30.052Z</time></trkpt><trkpt lat="32.2361122" lon="-110.9301767"><ele>755.0</ele><time>2026-04-10T02:06:31.053Z</time></trkpt><trkpt lat="32.2361126" lon="-110.9304161"><ele>754.0</ele><time>2026-04-10T02:06:32.052Z</time></trkpt><trkpt lat="32.2361141" lon="-110.9306527"><ele>754.0</ele><time>2026-04-10T02:06:33.052Z</time></trkpt><trkpt lat="32.236115" lon="-110.9308851"><ele>754.0</ele><time>2026-04-10T02:06:34.051Z</time></trkpt><trkpt lat="32.2361142" lon="-110.9311176"><ele>754.0</ele><time>2026-04-10T02:06:35.052Z</time></trkpt><trkpt lat="32.2361143" lon="-110.931347"><ele>754.0</ele><time>2026-04-10T02:06:36.052Z</time></trkpt><trkpt lat="32.2361149" lon="-110.9315782"><ele>754.0</ele><time>2026-04-10T02:06:37.052Z</time></trkpt><trkpt lat="32.2361152" lon="-110.9318072"><ele>754.0</ele><time>2026-04-10T02:06:38.053Z</time></trkpt><trkpt lat="32.2361162" lon="-110.932033"><ele>753.6666666666667</ele><time>2026-04-10T02:06:39.053Z</time></trkpt><trkpt lat="32.2361197" lon="-110.932262"><ele>753.3333333333334</ele><time>2026-04-10T02:06:40.052Z</time></trkpt><trkpt lat="32.2361233" lon="-110.9324894"><ele>753.0</ele><time>2026-04-10T02:06:41.052Z</time></trkpt><trkpt lat="32.236128" lon="-110.9327066"><ele>753.0</ele><time>2026-04-10T02:06:42.053Z</time></trkpt><trkpt lat="32.2361323" lon="-110.93292"><ele>753.0</ele><time>2026-04-10T02:06:43.053Z</time></trkpt><trkpt lat="32.2361371" lon="-110.9331319"><ele>753.0</ele><time>2026-04-10T02:06:44.053Z</time></trkpt><trkpt lat="32.2361403" lon="-110.9333411"><ele>752.6666666666666</ele><time>2026-04-10T02:06:45.052Z</time></trkpt><trkpt lat="32.2361454" lon="-110.9335462"><ele>752.3333333333333</ele><time>2026-04-10T02:06:46.052Z</time></trkpt><trkpt lat="32.2361506" lon="-110.9337425"><ele>752.0</ele><time>2026-04-10T02:06:47.052Z</time></trkpt><trkpt lat="32.2361558" lon="-110.9339217"><ele>752.0</ele><time>2026-04-10T02:06:48.052Z</time></trkpt><trkpt lat="32.2361592" lon="-110.9340848"><ele>752.0</ele><time>2026-04-10T02:06:49.054Z</time></trkpt><trkpt lat="32.236161" lon="-110.9342393"><ele>752.0</ele><time>2026-04-10T02:06:50.053Z</time></trkpt><trkpt lat="32.236162" lon="-110.93439"><ele>752.0</ele><time>2026-04-10T02:06:51.052Z</time></trkpt><trkpt lat="32.2361571" lon="-110.9345332"><ele>752.25</ele><time>2026-04-10T02:06:52.052Z</time></trkpt><trkpt lat="32.2361496" lon="-110.9346677"><ele>752.5</ele><time>2026-04-10T02:06:53.052Z</time></trkpt><trkpt lat="32.2361429" lon="-110.9348047"><ele>752.75</ele><time>2026-04-10T02:06:54.053Z</time></trkpt><trkpt lat="32.2361399" lon="-110.9349439"><ele>753.0</ele><time>2026-04-10T02:06:55.052Z</time></trkpt><trkpt lat="32.236138" lon="-110.935078"><ele>753.0</ele><time>2026-04-10T02:06:56.051Z</time></trkpt><trkpt lat="32.2361357" lon="-110.9352067"><ele>753.0</ele><time>2026-04-10T02:06:57.051Z</time></trkpt><trkpt lat="32.2361345" lon="-110.9353322"><ele>753.0</ele><time>2026-04-10T02:06:58.051Z</time></trkpt><trkpt lat="32.2361342" lon="-110.935457"><ele>753.0</ele><time>2026-04-10T02:06:59.053Z</time></trkpt><trkpt lat="32.236134" lon="-110.9355819"><ele>753.0</ele><time>2026-04-10T02:07:00.053Z</time></trkpt><trkpt lat="32.2361332" lon="-110.9357088"><ele>753.0</ele><time>2026-04-10T02:07:01.052Z</time></trkpt><trkpt lat="32.2361318" lon="-110.9358372"><ele>753.0</ele><time>2026-04-10T02:07:02.053Z</time></trkpt><trkpt lat="32.2361318" lon="-110.9359687"><ele>753.0</ele><time>2026-04-10T02:07:03.052Z</time></trkpt><trkpt lat="32.2361314" lon="-110.9361059"><ele>753.0</ele><time>2026-04-10T02:07:04.052Z</time></trkpt><trkpt lat="32.2361307" lon="-110.936251"><ele>752.5</ele><time>2026-04-10T02:07:05.052Z</time></trkpt><trkpt lat="32.2361324" lon="-110.9364066"><ele>752.0</ele><time>2026-04-10T02:07:06.053Z</time></trkpt><trkpt lat="32.2361385" lon="-110.9365695"><ele>751.5</ele><time>2026-04-10T02:07:07.053Z</time></trkpt><trkpt lat="32.2361465" lon="-110.9367441"><ele>751.0</ele><time>2026-04-10T02:07:08.052Z</time></trkpt><trkpt lat="32.2361539" lon="-110.9369331"><ele>751.0</ele><time>2026-04-10T02:07:09.052Z</time></trkpt><trkpt lat="32.2361623" lon="-110.937129"><ele>751.0</ele><time>2026-04-10T02:07:10.052Z</time></trkpt><trkpt lat="32.2361733" lon="-110.9373352"><ele>751.0</ele><time>2026-04-10T02:07:11.056Z</time></trkpt><trkpt lat="32.2361813" lon="-110.9375606"><ele>751.0</ele><time>2026-04-10T02:07:12.052Z</time></trkpt><trkpt lat="32.2361837" lon="-110.937792"><ele>751.0</ele><time>2026-04-10T02:07:13.053Z</time></trkpt><trkpt lat="32.2361825" lon="-110.9380287"><ele>751.0</ele><time>2026-04-10T02:07:14.052Z</time></trkpt><trkpt lat="32.236181" lon="-110.9382689"><ele>751.6666666666667</ele><time>2026-04-10T02:07:15.053Z</time></trkpt><trkpt lat="32.2361801" lon="-110.9385074"><ele>752.3333333333334</ele><time>2026-04-10T02:07:16.053Z</time></trkpt><trkpt lat="32.2361792" lon="-110.9387447"><ele>753.0</ele><time>2026-04-10T02:07:17.053Z</time></trkpt><trkpt lat="32.236178" lon="-110.9389824"><ele>753.3333333333334</ele><time>2026-04-10T02:07:18.054Z</time></trkpt><trkpt lat="32.2361761" lon="-110.9392199"><ele>753.6666666666667</ele><time>2026-04-10T02:07:19.056Z</time></trkpt><trkpt lat="32.2361752" lon="-110.939463"><ele>754.0</ele><time>2026-04-10T02:07:20.052Z</time></trkpt><trkpt lat="32.236171" lon="-110.9397133"><ele>754.0</ele><time>2026-04-10T02:07:21.054Z</time></trkpt><trkpt lat="32.236165" lon="-110.9399581"><ele>754.0</ele><time>2026-04-10T02:07:22.054Z</time></trkpt><trkpt lat="32.2361572" lon="-110.9401968"><ele>754.0</ele><time>2026-04-10T02:07:23.053Z</time></trkpt><trkpt lat="32.2361458" lon="-110.9404346"><ele>753.6666666666667</ele><time>2026-04-10T02:07:24.052Z</time></trkpt><trkpt lat="32.2361402" lon="-110.9406757"><ele>753.3333333333334</ele><time>2026-04-10T02:07:25.053Z</time></trkpt><trkpt lat="32.2361386" lon="-110.940921"><ele>753.0</ele><time>2026-04-10T02:07:26.053Z</time></trkpt><trkpt lat="32.2361397" lon="-110.9411607"><ele>753.0</ele><time>2026-04-10T02:07:27.051Z</time></trkpt><trkpt lat="32.2361419" lon="-110.941393"><ele>753.0</ele><time>2026-04-10T02:07:28.053Z</time></trkpt><trkpt lat="32.236144" lon="-110.9416223"><ele>753.0</ele><time>2026-04-10T02:07:29.052Z</time></trkpt><trkpt lat="32.2361463" lon="-110.9418463"><ele>752.0</ele><time>2026-04-10T02:07:30.052Z</time></trkpt><trkpt lat="32.2361489" lon="-110.9420618"><ele>751.0</ele><time>2026-04-10T02:07:31.052Z</time></trkpt><trkpt lat="32.2361501" lon="-110.9422701"><ele>750.0</ele><time>2026-04-10T02:07:32.056Z</time></trkpt><trkpt lat="32.2361511" lon="-110.9424705"><ele>750.75</ele><time>2026-04-10T02:07:33.053Z</time></trkpt><trkpt lat="32.2361526" lon="-110.9426575"><ele>751.5</ele><time>2026-04-10T02:07:34.053Z</time></trkpt><trkpt lat="32.2361533" lon="-110.9428215"><ele>752.25</ele><time>2026-04-10T02:07:35.053Z</time></trkpt><trkpt lat="32.2361565" lon="-110.9429699"><ele>753.0</ele><time>2026-04-10T02:07:36.052Z</time></trkpt><trkpt lat="32.236161" lon="-110.9431058"><ele>753.0</ele><time>2026-04-10T02:07:37.054Z</time></trkpt><trkpt lat="32.2361647" lon="-110.9432269"><ele>753.0</ele><time>2026-04-10T02:07:38.053Z</time></trkpt><trkpt lat="32.2361673" lon="-110.943338"><ele>753.0</ele><time>2026-04-10T02:07:39.052Z</time></trkpt><trkpt lat="32.2361706" lon="-110.9434364"><ele>753.0</ele><time>2026-04-10T02:07:40.054Z</time></trkpt><trkpt lat="32.2361722" lon="-110.9435203"><ele>753.0</ele><time>2026-04-10T02:07:41.052Z</time></trkpt><trkpt lat="32.2361678" lon="-110.943621"><ele>753.0</ele><time>2026-04-10T02:07:43.054Z</time></trkpt><trkpt lat="32.2361467" lon="-110.9437001"><ele>752.4</ele><time>2026-04-10T02:07:55.054Z</time></trkpt><trkpt lat="32.2361483" lon="-110.9438472"><ele>751.8</ele><time>2026-04-10T02:07:57.053Z</time></trkpt><trkpt lat="32.2361478" lon="-110.9439525"><ele>751.2</ele><time>2026-04-10T02:07:58.053Z</time></trkpt><trkpt lat="32.2361469" lon="-110.9440687"><ele>750.6</ele><time>2026-04-10T02:07:59.053Z</time></trkpt><trkpt lat="32.2361436" lon="-110.9442023"><ele>750.0</ele><time>2026-04-10T02:08:00.053Z</time></trkpt><trkpt lat="32.236141" lon="-110.944354"><ele>749.6666666666666</ele><time>2026-04-10T02:08:01.053Z</time></trkpt><trkpt lat="32.2361377" lon="-110.9445283"><ele>749.3333333333333</ele><time>2026-04-10T02:08:02.053Z</time></trkpt><trkpt lat="32.2361353" lon="-110.9447147"><ele>749.0</ele><time>2026-04-10T02:08:03.053Z</time></trkpt><trkpt lat="32.2361323" lon="-110.9449125"><ele>749.0</ele><time>2026-04-10T02:08:04.053Z</time></trkpt><trkpt lat="32.2361304" lon="-110.9451148"><ele>749.0</ele><time>2026-04-10T02:08:05.053Z</time></trkpt><trkpt lat="32.2361269" lon="-110.9453163"><ele>749.0</ele><time>2026-04-10T02:08:06.053Z</time></trkpt><trkpt lat="32.2361245" lon="-110.9455178"><ele>749.0</ele><time>2026-04-10T02:08:07.052Z</time></trkpt><trkpt lat="32.2361227" lon="-110.945717"><ele>749.0</ele><time>2026-04-10T02:08:08.053Z</time></trkpt><trkpt lat="32.2361217" lon="-110.9459148"><ele>749.0</ele><time>2026-04-10T02:08:09.053Z</time></trkpt><trkpt lat="32.2361211" lon="-110.9461157"><ele>749.3333333333333</ele><time>2026-04-10T02:08:10.053Z</time></trkpt><trkpt lat="32.2361202" lon="-110.9463241"><ele>749.6666666666666</ele><time>2026-04-10T02:08:11.053Z</time></trkpt><trkpt lat="32.2361202" lon="-110.9465412"><ele>750.0</ele><time>2026-04-10T02:08:12.053Z</time></trkpt><trkpt lat="32.2361204" lon="-110.9467618"><ele>749.3333333333334</ele><time>2026-04-10T02:08:13.053Z</time></trkpt><trkpt lat="32.2361196" lon="-110.9469817"><ele>748.6666666666667</ele><time>2026-04-10T02:08:14.053Z</time></trkpt><trkpt lat="32.2361162" lon="-110.9472064"><ele>748.0</ele><time>2026-04-10T02:08:15.053Z</time></trkpt><trkpt lat="32.2361107" lon="-110.9474348"><ele>747.6666666666667</ele><time>2026-04-10T02:08:16.053Z</time></trkpt><trkpt lat="32.2361051" lon="-110.9476684"><ele>747.3333333333334</ele><time>2026-04-10T02:08:17.053Z</time></trkpt><trkpt lat="32.2360972" lon="-110.947904"><ele>747.0</ele><time>2026-04-10T02:08:18.053Z</time></trkpt><trkpt lat="32.2360898" lon="-110.9481451"><ele>746.6666666666666</ele><time>2026-04-10T02:08:19.053Z</time></trkpt><trkpt lat="32.2360829" lon="-110.9483906"><ele>746.3333333333333</ele><time>2026-04-10T02:08:20.053Z</time></trkpt><trkpt lat="32.2360748" lon="-110.9486389"><ele>746.0</ele><time>2026-04-10T02:08:21.054Z</time></trkpt><trkpt lat="32.2360694" lon="-110.9488889"><ele>746.0</ele><time>2026-04-10T02:08:22.054Z</time></trkpt><trkpt lat="32.2360643" lon="-110.9491382"><ele>746.0</ele><time>2026-04-10T02:08:23.054Z</time></trkpt><trkpt lat="32.2360619" lon="-110.9493864"><ele>746.0</ele><time>2026-04-10T02:08:24.054Z</time></trkpt><trkpt lat="32.2360608" lon="-110.9496334"><ele>746.0</ele><time>2026-04-10T02:08:25.053Z</time></trkpt><trkpt lat="32.2360577" lon="-110.9498776"><ele>746.0</ele><time>2026-04-10T02:08:26.053Z</time></trkpt><trkpt lat="32.2360501" lon="-110.9501138"><ele>746.0</ele><time>2026-04-10T02:08:27.054Z</time></trkpt><trkpt lat="32.2360412" lon="-110.9503422"><ele>746.0</ele><time>2026-04-10T02:08:28.053Z</time></trkpt><trkpt lat="32.2360345" lon="-110.9505644"><ele>746.0</ele><time>2026-04-10T02:08:29.053Z</time></trkpt><trkpt lat="32.2360286" lon="-110.9507793"><ele>746.0</ele><time>2026-04-10T02:08:30.053Z</time></trkpt><trkpt lat="32.236024" lon="-110.9509864"><ele>746.5</ele><time>2026-04-10T02:08:31.053Z</time></trkpt><trkpt lat="32.2360219" lon="-110.9511759"><ele>747.0</ele><time>2026-04-10T02:08:32.053Z</time></trkpt><trkpt lat="32.2360201" lon="-110.9513464"><ele>747.5</ele><time>2026-04-10T02:08:33.053Z</time></trkpt><trkpt lat="32.236018" lon="-110.9515071"><ele>748.0</ele><time>2026-04-10T02:08:34.053Z</time></trkpt><trkpt lat="32.2360174" lon="-110.9516561"><ele>748.1666666666667</ele><time>2026-04-10T02:08:35.053Z</time></trkpt><trkpt lat="32.236016" lon="-110.9517871"><ele>748.3333333333334</ele><time>2026-04-10T02:08:36.053Z</time></trkpt><trkpt lat="32.2360161" lon="-110.9519005"><ele>748.5</ele><time>2026-04-10T02:08:37.053Z</time></trkpt><trkpt lat="32.2360171" lon="-110.9519951"><ele>748.6666666666666</ele><time>2026-04-10T02:08:38.054Z</time></trkpt><trkpt lat="32.2360164" lon="-110.9520702"><ele>748.8333333333333</ele><time>2026-04-10T02:08:39.054Z</time></trkpt><trkpt lat="32.2360153" lon="-110.9521703"><ele>749.0</ele><time>2026-04-10T02:08:41.054Z</time></trkpt><trkpt lat="32.2360155" lon="-110.9522838"><ele>749.0</ele><time>2026-04-10T02:09:33.053Z</time></trkpt><trkpt lat="32.2360138" lon="-110.9523608"><ele>749.0</ele><time>2026-04-10T02:09:34.053Z</time></trkpt><trkpt lat="32.2360133" lon="-110.9524582"><ele>749.0</ele><time>2026-04-10T02:09:35.053Z</time></trkpt><trkpt lat="32.2360137" lon="-110.9525801"><ele>749.0</ele><time>2026-04-10T02:09:36.053Z</time></trkpt><trkpt lat="32.2360148" lon="-110.9527197"><ele>749.0</ele><time>2026-04-10T02:09:37.053Z</time></trkpt><trkpt lat="32.236016" lon="-110.9528676"><ele>749.0</ele><time>2026-04-10T02:09:38.053Z</time></trkpt><trkpt lat="32.2360144" lon="-110.9530355"><ele>749.0</ele><time>2026-04-10T02:09:39.053Z</time></trkpt><trkpt lat="32.2360124" lon="-110.9532122"><ele>749.0</ele><time>2026-04-10T02:09:40.053Z</time></trkpt><trkpt lat="32.2360113" lon="-110.9533898"><ele>749.0</ele><time>2026-04-10T02:09:41.053Z</time></trkpt><trkpt lat="32.2360125" lon="-110.9535669"><ele>748.3333333333333</ele><time>2026-04-10T02:09:42.052Z</time></trkpt><trkpt lat="32.2360163" lon="-110.9537474"><ele>747.6666666666666</ele><time>2026-04-10T02:09:43.053Z</time></trkpt><trkpt lat="32.2360219" lon="-110.9539357"><ele>747.0</ele><time>2026-04-10T02:09:44.054Z</time></trkpt><trkpt lat="32.2360291" lon="-110.954134"><ele>746.3333333333334</ele><time>2026-04-10T02:09:45.053Z</time></trkpt><trkpt lat="32.2360375" lon="-110.9543439"><ele>745.6666666666667</ele><time>2026-04-10T02:09:46.054Z</time></trkpt><trkpt lat="32.2360475" lon="-110.9545593"><ele>745.0</ele><time>2026-04-10T02:09:47.054Z</time></trkpt><trkpt lat="32.2360593" lon="-110.9547791"><ele>745.0</ele><time>2026-04-10T02:09:48.054Z</time></trkpt><trkpt lat="32.2360689" lon="-110.9549965"><ele>745.0</ele><time>2026-04-10T02:09:49.054Z</time></trkpt><trkpt lat="32.2360756" lon="-110.9552121"><ele>745.0</ele><time>2026-04-10T02:09:50.054Z</time></trkpt><trkpt lat="32.2360783" lon="-110.9554286"><ele>745.0</ele><time>2026-04-10T02:09:51.054Z</time></trkpt><trkpt lat="32.2360798" lon="-110.9556456"><ele>745.0</ele><time>2026-04-10T02:09:52.054Z</time></trkpt><trkpt lat="32.2360803" lon="-110.9558653"><ele>745.0</ele><time>2026-04-10T02:09:53.054Z</time></trkpt><trkpt lat="32.2360804" lon="-110.9560807"><ele>745.0</ele><time>2026-04-10T02:09:54.053Z</time></trkpt><trkpt lat="32.236081" lon="-110.9562881"><ele>745.0</ele><time>2026-04-10T02:09:55.053Z</time></trkpt><trkpt lat="32.2360783" lon="-110.9564909"><ele>745.0</ele><time>2026-04-10T02:09:56.054Z</time></trkpt><trkpt lat="32.2360793" lon="-110.9566935"><ele>744.0</ele><time>2026-04-10T02:09:57.053Z</time></trkpt><trkpt lat="32.2360796" lon="-110.9569012"><ele>743.0</ele><time>2026-04-10T02:09:58.053Z</time></trkpt><trkpt lat="32.2360779" lon="-110.9571081"><ele>742.0</ele><time>2026-04-10T02:09:59.054Z</time></trkpt><trkpt lat="32.2360735" lon="-110.9573184"><ele>742.0</ele><time>2026-04-10T02:10:00.054Z</time></trkpt><trkpt lat="32.236072" lon="-110.9575182"><ele>742.0</ele><time>2026-04-10T02:10:01.054Z</time></trkpt><trkpt lat="32.2360679" lon="-110.957715"><ele>742.0</ele><time>2026-04-10T02:10:02.054Z</time></trkpt><trkpt lat="32.236067" lon="-110.9579013"><ele>741.25</ele><time>2026-04-10T02:10:03.054Z</time></trkpt><trkpt lat="32.2360651" lon="-110.9580813"><ele>740.5</ele><time>2026-04-10T02:10:04.054Z</time></trkpt><trkpt lat="32.2360648" lon="-110.9582435"><ele>739.75</ele><time>2026-04-10T02:10:05.054Z</time></trkpt><trkpt lat="32.2360621" lon="-110.9583848"><ele>739.0</ele><time>2026-04-10T02:10:06.054Z</time></trkpt><trkpt lat="32.2360607" lon="-110.9585069"><ele>738.8000000000001</ele><time>2026-04-10T02:10:07.054Z</time></trkpt><trkpt lat="32.236064" lon="-110.9586144"><ele>738.6</ele><time>2026-04-10T02:10:08.054Z</time></trkpt><trkpt lat="32.2360641" lon="-110.9586971"><ele>738.4</ele><time>2026-04-10T02:10:09.054Z</time></trkpt><trkpt lat="32.2360725" lon="-110.9588343"><ele>738.2</ele><time>2026-04-10T02:10:11.054Z</time></trkpt><trkpt lat="32.2360815" lon="-110.9589369"><ele>738.0</ele><time>2026-04-10T02:10:13.054Z</time></trkpt><trkpt lat="32.2360831" lon="-110.9590633"><ele>738.0</ele><time>2026-04-10T02:10:16.054Z</time></trkpt><trkpt lat="32.2360846" lon="-110.9591523"><ele>738.0</ele><time>2026-04-10T02:10:18.054Z</time></trkpt><trkpt lat="32.2360831" lon="-110.9592423"><ele>738.0</ele><time>2026-04-10T02:10:20.054Z</time></trkpt><trkpt lat="32.2360804" lon="-110.9593219"><ele>738.0</ele><time>2026-04-10T02:10:24.054Z</time></trkpt><trkpt lat="32.2360933" lon="-110.959445"><ele>738.0</ele><time>2026-04-10T02:10:55.054Z</time></trkpt><trkpt lat="32.2360947" lon="-110.95954"><ele>738.0</ele><time>2026-04-10T02:10:56.054Z</time></trkpt><trkpt lat="32.236095" lon="-110.9596554"><ele>737.5</ele><time>2026-04-10T02:10:57.054Z</time></trkpt><trkpt lat="32.2360947" lon="-110.9597902"><ele>737.0</ele><time>2026-04-10T02:10:58.053Z</time></trkpt><trkpt lat="32.2360927" lon="-110.9599431"><ele>736.5</ele><time>2026-04-10T02:10:59.053Z</time></trkpt><trkpt lat="32.2360884" lon="-110.9601151"><ele>736.0</ele><time>2026-04-10T02:11:00.057Z</time></trkpt><trkpt lat="32.2360826" lon="-110.9602983"><ele>735.3333333333334</ele><time>2026-04-10T02:11:01.053Z</time></trkpt><trkpt lat="32.2360763" lon="-110.9604935"><ele>734.6666666666666</ele><time>2026-04-10T02:11:02.053Z</time></trkpt><trkpt lat="32.2360693" lon="-110.9606957"><ele>734.0</ele><time>2026-04-10T02:11:03.054Z</time></trkpt><trkpt lat="32.2360613" lon="-110.9609019"><ele>734.0</ele><time>2026-04-10T02:11:04.054Z</time></trkpt><trkpt lat="32.2360537" lon="-110.9611096"><ele>734.0</ele><time>2026-04-10T02:11:05.055Z</time></trkpt><trkpt lat="32.2360472" lon="-110.961315"><ele>734.0</ele><time>2026-04-10T02:11:06.056Z</time></trkpt><trkpt lat="32.2360414" lon="-110.9615224"><ele>734.0</ele><time>2026-04-10T02:11:07.054Z</time></trkpt><trkpt lat="32.2360354" lon="-110.9617299"><ele>734.0</ele><time>2026-04-10T02:11:08.054Z</time></trkpt><trkpt lat="32.2360289" lon="-110.9619332"><ele>734.0</ele><time>2026-04-10T02:11:09.056Z</time></trkpt><trkpt lat="32.2360217" lon="-110.9621329"><ele>734.0</ele><time>2026-04-10T02:11:10.053Z</time></trkpt><trkpt lat="32.2360152" lon="-110.9623294"><ele>734.0</ele><time>2026-04-10T02:11:11.057Z</time></trkpt><trkpt lat="32.2360089" lon="-110.9625288"><ele>734.0</ele><time>2026-04-10T02:11:12.055Z</time></trkpt><trkpt lat="32.2360043" lon="-110.9627355"><ele>734.0</ele><time>2026-04-10T02:11:13.054Z</time></trkpt><trkpt lat="32.236002" lon="-110.9629436"><ele>734.0</ele><time>2026-04-10T02:11:14.055Z</time></trkpt><trkpt lat="32.236" lon="-110.9631571"><ele>734.0</ele><time>2026-04-10T02:11:15.056Z</time></trkpt><trkpt lat="32.2359994" lon="-110.9633726"><ele>733.6666666666666</ele><time>2026-04-10T02:11:16.054Z</time></trkpt><trkpt lat="32.2359943" lon="-110.9635943"><ele>733.3333333333334</ele><time>2026-04-10T02:11:17.054Z</time></trkpt><trkpt lat="32.2359916" lon="-110.9638086"><ele>733.0</ele><time>2026-04-10T02:11:18.054Z</time></trkpt><trkpt lat="32.2359862" lon="-110.9640341"><ele>733.3333333333334</ele><time>2026-04-10T02:11:19.054Z</time></trkpt><trkpt lat="32.2359811" lon="-110.964252"><ele>733.6666666666666</ele><time>2026-04-10T02:11:20.054Z</time></trkpt><trkpt lat="32.2359735" lon="-110.9644719"><ele>734.0</ele><time>2026-04-10T02:11:21.058Z</time></trkpt><trkpt lat="32.2359647" lon="-110.9646926"><ele>734.0</ele><time>2026-04-10T02:11:22.054Z</time></trkpt><trkpt lat="32.2359605" lon="-110.9649201"><ele>734.0</ele><time>2026-04-10T02:11:23.054Z</time></trkpt><trkpt lat="32.2359586" lon="-110.9651546"><ele>734.0</ele><time>2026-04-10T02:11:24.055Z</time></trkpt><trkpt lat="32.2359567" lon="-110.9653851"><ele>732.3333333333333</ele><time>2026-04-10T02:11:25.055Z</time></trkpt><trkpt lat="32.2359544" lon="-110.9656185"><ele>730.6666666666666</ele><time>2026-04-10T02:11:26.055Z</time></trkpt><trkpt lat="32.2359567" lon="-110.9658535"><ele>729.0</ele><time>2026-04-10T02:11:27.055Z</time></trkpt><trkpt lat="32.2359522" lon="-110.9660869"><ele>728.6666666666666</ele><time>2026-04-10T02:11:28.055Z</time></trkpt><trkpt lat="32.2359513" lon="-110.9663097"><ele>728.3333333333333</ele><time>2026-04-10T02:11:29.054Z</time></trkpt><trkpt lat="32.2359493" lon="-110.9665331"><ele>728.0</ele><time>2026-04-10T02:11:30.054Z</time></trkpt><trkpt lat="32.2359488" lon="-110.9667516"><ele>728.6666666666666</ele><time>2026-04-10T02:11:31.055Z</time></trkpt><trkpt lat="32.2359498" lon="-110.9669609"><ele>729.3333333333334</ele><time>2026-04-10T02:11:32.056Z</time></trkpt><trkpt lat="32.2359491" lon="-110.9671698"><ele>730.0</ele><time>2026-04-10T02:11:33.055Z</time></trkpt><trkpt lat="32.2359467" lon="-110.9673706"><ele>730.3333333333334</ele><time>2026-04-10T02:11:34.054Z</time></trkpt><trkpt lat="32.2359446" lon="-110.9675622"><ele>730.6666666666666</ele><time>2026-04-10T02:11:35.055Z</time></trkpt><trkpt lat="32.2359415" lon="-110.9677454"><ele>731.0</ele><time>2026-04-10T02:11:36.056Z</time></trkpt><trkpt lat="32.2359432" lon="-110.9679279"><ele>731.0</ele><time>2026-04-10T02:11:37.056Z</time></trkpt><trkpt lat="32.2359444" lon="-110.968101"><ele>731.0</ele><time>2026-04-10T02:11:38.055Z</time></trkpt><trkpt lat="32.2359436" lon="-110.9682686"><ele>731.0</ele><time>2026-04-10T02:11:39.055Z</time></trkpt><trkpt lat="32.2359421" lon="-110.9684326"><ele>731.0</ele><time>2026-04-10T02:11:40.055Z</time></trkpt><trkpt lat="32.2359408" lon="-110.9685946"><ele>730.5</ele><time>2026-04-10T02:11:41.055Z</time></trkpt><trkpt lat="32.2359366" lon="-110.9687643"><ele>730.0</ele><time>2026-04-10T02:11:42.055Z</time></trkpt><trkpt lat="32.2359344" lon="-110.9689399"><ele>729.5</ele><time>2026-04-10T02:11:43.058Z</time></trkpt><trkpt lat="32.235933" lon="-110.9691142"><ele>729.0</ele><time>2026-04-10T02:11:44.056Z</time></trkpt><trkpt lat="32.2359337" lon="-110.9692761"><ele>728.5</ele><time>2026-04-10T02:11:45.055Z</time></trkpt><trkpt lat="32.2359333" lon="-110.9694361"><ele>728.0</ele><time>2026-04-10T02:11:46.054Z</time></trkpt><trkpt lat="32.235932" lon="-110.9695946"><ele>727.5</ele><time>2026-04-10T02:11:47.056Z</time></trkpt><trkpt lat="32.2359289" lon="-110.9697509"><ele>727.0</ele><time>2026-04-10T02:11:48.056Z</time></trkpt><trkpt lat="32.2359327" lon="-110.9699061"><ele>727.5</ele><time>2026-04-10T02:11:49.056Z</time></trkpt><trkpt lat="32.2359323" lon="-110.9700599"><ele>728.0</ele><time>2026-04-10T02:11:50.055Z</time></trkpt><trkpt lat="32.2359339" lon="-110.9702084"><ele>728.5</ele><time>2026-04-10T02:11:51.055Z</time></trkpt><trkpt lat="32.2359354" lon="-110.9703506"><ele>729.0</ele><time>2026-04-10T02:11:52.054Z</time></trkpt><trkpt lat="32.2359376" lon="-110.970487"><ele>729.0</ele><time>2026-04-10T02:11:53.058Z</time></trkpt><trkpt lat="32.2359387" lon="-110.9706121"><ele>729.0</ele><time>2026-04-10T02:11:54.055Z</time></trkpt><trkpt lat="32.2359439" lon="-110.9707259"><ele>729.0</ele><time>2026-04-10T02:11:55.055Z</time></trkpt><trkpt lat="32.235946" lon="-110.9708281"><ele>729.0</ele><time>2026-04-10T02:11:56.054Z</time></trkpt><trkpt lat="32.2359501" lon="-110.9709226"><ele>729.0</ele><time>2026-04-10T02:11:57.054Z</time></trkpt><trkpt lat="32.2359593" lon="-110.9710085"><ele>729.0</ele><time>2026-04-10T02:11:58.055Z</time></trkpt><trkpt lat="32.2359597" lon="-110.9710856"><ele>729.0</ele><time>2026-04-10T02:11:59.058Z</time></trkpt><trkpt lat="32.2359744" lon="-110.9712193"><ele>729.0</ele><time>2026-04-10T02:12:01.054Z</time></trkpt><trkpt lat="32.2359738" lon="-110.9713388"><ele>729.0</ele><time>2026-04-10T02:12:03.055Z</time></trkpt><trkpt lat="32.2359854" lon="-110.971438"><ele>729.0</ele><time>2026-04-10T02:12:05.221Z</time></trkpt><trkpt lat="32.2359892" lon="-110.9716473"><ele>727.75</ele><time>2026-04-10T02:12:12.054Z</time></trkpt><trkpt lat="32.2359916" lon="-110.9717518"><ele>726.5</ele><time>2026-04-10T02:12:13.055Z</time></trkpt><trkpt lat="32.2359946" lon="-110.9719073"><ele>725.25</ele><time>2026-04-10T02:12:14.055Z</time></trkpt><trkpt lat="32.2360015" lon="-110.9721177"><ele>724.0</ele><time>2026-04-10T02:12:15.055Z</time></trkpt><trkpt lat="32.2360108" lon="-110.9723775"><ele>723.5</ele><time>2026-04-10T02:12:16.055Z</time></trkpt><trkpt lat="32.2360193" lon="-110.9726684"><ele>723.0</ele><time>2026-04-10T02:12:17.055Z</time></trkpt><trkpt lat="32.2360251" lon="-110.9729572"><ele>723.0</ele><time>2026-04-10T02:12:18.055Z</time></trkpt><trkpt lat="32.2360272" lon="-110.973228"><ele>723.0</ele><time>2026-04-10T02:12:19.055Z</time></trkpt><trkpt lat="32.2360266" lon="-110.9734838"><ele>723.0</ele><time>2026-04-10T02:12:20.055Z</time></trkpt><trkpt lat="32.2360248" lon="-110.9737278"><ele>722.3333333333334</ele><time>2026-04-10T02:12:21.055Z</time></trkpt><trkpt lat="32.2360227" lon="-110.9739638"><ele>721.6666666666667</ele><time>2026-04-10T02:12:22.055Z</time></trkpt><trkpt lat="32.2360207" lon="-110.9741994"><ele>721.0</ele><time>2026-04-10T02:12:23.055Z</time></trkpt><trkpt lat="32.2360195" lon="-110.9744325"><ele>721.0</ele><time>2026-04-10T02:12:24.055Z</time></trkpt><trkpt lat="32.2360179" lon="-110.9746599"><ele>721.0</ele><time>2026-04-10T02:12:25.055Z</time></trkpt><trkpt lat="32.2360153" lon="-110.9748827"><ele>721.0</ele><time>2026-04-10T02:12:26.055Z</time></trkpt><trkpt lat="32.2360097" lon="-110.9751006"><ele>720.0</ele><time>2026-04-10T02:12:27.055Z</time></trkpt><trkpt lat="32.2360067" lon="-110.975322"><ele>719.0</ele><time>2026-04-10T02:12:28.055Z</time></trkpt><trkpt lat="32.2360013" lon="-110.9755432"><ele>718.0</ele><time>2026-04-10T02:12:29.055Z</time></trkpt><trkpt lat="32.2359942" lon="-110.9757583"><ele>717.6666666666667</ele><time>2026-04-10T02:12:30.055Z</time></trkpt><trkpt lat="32.2359866" lon="-110.9759738"><ele>717.3333333333334</ele><time>2026-04-10T02:12:31.055Z</time></trkpt><trkpt lat="32.2359792" lon="-110.9761799"><ele>717.0</ele><time>2026-04-10T02:12:32.055Z</time></trkpt><trkpt lat="32.2359697" lon="-110.9763801"><ele>717.0</ele><time>2026-04-10T02:12:33.055Z</time></trkpt><trkpt lat="32.2359599" lon="-110.9765687"><ele>717.0</ele><time>2026-04-10T02:12:34.055Z</time></trkpt><trkpt lat="32.2359521" lon="-110.9767514"><ele>717.0</ele><time>2026-04-10T02:12:35.055Z</time></trkpt><trkpt lat="32.2359491" lon="-110.976914"><ele>717.8333333333334</ele><time>2026-04-10T02:12:36.055Z</time></trkpt><trkpt lat="32.2359438" lon="-110.9770605"><ele>718.6666666666666</ele><time>2026-04-10T02:12:37.055Z</time></trkpt><trkpt lat="32.2359403" lon="-110.9771822"><ele>719.5</ele><time>2026-04-10T02:12:38.055Z</time></trkpt><trkpt lat="32.2359358" lon="-110.9772777"><ele>720.3333333333333</ele><time>2026-04-10T02:12:39.054Z</time></trkpt><trkpt lat="32.2359282" lon="-110.9773571"><ele>721.1666666666666</ele><time>2026-04-10T02:12:40.054Z</time></trkpt><trkpt lat="32.2359217" lon="-110.9774351"><ele>722.0</ele><time>2026-04-10T02:12:41.055Z</time></trkpt><trkpt lat="32.2359177" lon="-110.9775171"><ele>720.6666666666666</ele><time>2026-04-10T02:12:42.055Z</time></trkpt><trkpt lat="32.2359151" lon="-110.9775918"><ele>719.3333333333333</ele><time>2026-04-10T02:12:43.055Z</time></trkpt><trkpt lat="32.23591" lon="-110.9776967"><ele>718.0</ele><time>2026-04-10T02:12:45.055Z</time></trkpt><trkpt lat="32.2359065" lon="-110.9778059"><ele>716.6666666666666</ele><time>2026-04-10T02:12:52.055Z</time></trkpt><trkpt lat="32.2359033" lon="-110.9779028"><ele>715.3333333333334</ele><time>2026-04-10T02:12:53.055Z</time></trkpt><trkpt lat="32.2358952" lon="-110.9780297"><ele>714.0</ele><time>2026-04-10T02:12:54.055Z</time></trkpt><trkpt lat="32.2358945" lon="-110.9781899"><ele>715.0</ele><time>2026-04-10T02:12:55.055Z</time></trkpt><trkpt lat="32.2358891" lon="-110.9783908"><ele>716.0</ele><time>2026-04-10T02:12:56.055Z</time></trkpt><trkpt lat="32.2358892" lon="-110.9786125"><ele>717.0</ele><time>2026-04-10T02:12:57.055Z</time></trkpt><trkpt lat="32.2358901" lon="-110.978858"><ele>717.0</ele><time>2026-04-10T02:12:58.055Z</time></trkpt><trkpt lat="32.2358884" lon="-110.9791164"><ele>717.0</ele><time>2026-04-10T02:12:59.055Z</time></trkpt><trkpt lat="32.2358832" lon="-110.9793768"><ele>717.0</ele><time>2026-04-10T02:13:00.055Z</time></trkpt><trkpt lat="32.2358777" lon="-110.9796375"><ele>716.6666666666666</ele><time>2026-04-10T02:13:01.054Z</time></trkpt><trkpt lat="32.2358719" lon="-110.9798915"><ele>716.3333333333333</ele><time>2026-04-10T02:13:02.054Z</time></trkpt><trkpt lat="32.2358716" lon="-110.9801473"><ele>716.0</ele><time>2026-04-10T02:13:03.055Z</time></trkpt><trkpt lat="32.2358707" lon="-110.9803975"><ele>715.0</ele><time>2026-04-10T02:13:04.055Z</time></trkpt><trkpt lat="32.2358688" lon="-110.980646"><ele>714.0</ele><time>2026-04-10T02:13:05.055Z</time></trkpt><trkpt lat="32.2358663" lon="-110.9808873"><ele>713.0</ele><time>2026-04-10T02:13:06.055Z</time></trkpt><trkpt lat="32.2358658" lon="-110.9811201"><ele>712.6666666666666</ele><time>2026-04-10T02:13:07.055Z</time></trkpt><trkpt lat="32.2358645" lon="-110.9813514"><ele>712.3333333333334</ele><time>2026-04-10T02:13:08.055Z</time></trkpt><trkpt lat="32.2358621" lon="-110.9815799"><ele>712.0</ele><time>2026-04-10T02:13:09.055Z</time></trkpt><trkpt lat="32.235856" lon="-110.9818077"><ele>712.0</ele><time>2026-04-10T02:13:10.055Z</time></trkpt><trkpt lat="32.2358554" lon="-110.9820289"><ele>712.0</ele><time>2026-04-10T02:13:11.055Z</time></trkpt><trkpt lat="32.2358519" lon="-110.9822366"><ele>712.0</ele><time>2026-04-10T02:13:12.055Z</time></trkpt><trkpt lat="32.2358469" lon="-110.9824317"><ele>710.25</ele><time>2026-04-10T02:13:13.055Z</time></trkpt><trkpt lat="32.2358411" lon="-110.9826114"><ele>708.5</ele><time>2026-04-10T02:13:14.055Z</time></trkpt><trkpt lat="32.2358354" lon="-110.9827624"><ele>706.75</ele><time>2026-04-10T02:13:15.055Z</time></trkpt><trkpt lat="32.2358333" lon="-110.9828902"><ele>705.0</ele><time>2026-04-10T02:13:16.055Z</time></trkpt><trkpt lat="32.2358285" lon="-110.9830026"><ele>705.0</ele><time>2026-04-10T02:13:17.055Z</time></trkpt><trkpt lat="32.2358276" lon="-110.9830815"><ele>705.0</ele><time>2026-04-10T02:13:18.055Z</time></trkpt><trkpt lat="32.2358322" lon="-110.9831629"><ele>705.0</ele><time>2026-04-10T02:13:20.055Z</time></trkpt><trkpt lat="32.2358465" lon="-110.9832543"><ele>705.0</ele><time>2026-04-10T02:13:23.055Z</time></trkpt><trkpt lat="32.2358496" lon="-110.9833323"><ele>705.0</ele><time>2026-04-10T02:13:34.055Z</time></trkpt><trkpt lat="32.2358454" lon="-110.9834765"><ele>705.0</ele><time>2026-04-10T02:13:36.055Z</time></trkpt><trkpt lat="32.2358451" lon="-110.9835532"><ele>705.0</ele><time>2026-04-10T02:13:37.055Z</time></trkpt><trkpt lat="32.2358431" lon="-110.9836353"><ele>705.0</ele><time>2026-04-10T02:13:38.057Z</time></trkpt><trkpt lat="32.235842" lon="-110.9837173"><ele>705.0</ele><time>2026-04-10T02:13:39.056Z</time></trkpt><trkpt lat="32.2358376" lon="-110.9838014"><ele>705.0</ele><time>2026-04-10T02:13:40.056Z</time></trkpt><trkpt lat="32.2358374" lon="-110.9838926"><ele>705.0</ele><time>2026-04-10T02:13:41.054Z</time></trkpt><trkpt lat="32.2358269" lon="-110.9840568"><ele>705.0</ele><time>2026-04-10T02:13:43.054Z</time></trkpt><trkpt lat="32.2358227" lon="-110.9841639"><ele>705.6</ele><time>2026-04-10T02:13:44.056Z</time></trkpt><trkpt lat="32.2358229" lon="-110.9842816"><ele>706.2</ele><time>2026-04-10T02:13:45.056Z</time></trkpt><trkpt lat="32.2358168" lon="-110.9843919"><ele>706.8</ele><time>2026-04-10T02:13:46.056Z</time></trkpt><trkpt lat="32.2358079" lon="-110.9844956"><ele>707.4</ele><time>2026-04-10T02:13:47.056Z</time></trkpt><trkpt lat="32.2357961" lon="-110.984606"><ele>708.0</ele><time>2026-04-10T02:13:48.055Z</time></trkpt><trkpt lat="32.2357837" lon="-110.9847129"><ele>708.0</ele><time>2026-04-10T02:13:49.056Z</time></trkpt><trkpt lat="32.2357737" lon="-110.984831"><ele>708.0</ele><time>2026-04-10T02:13:50.056Z</time></trkpt><trkpt lat="32.2357633" lon="-110.9849566"><ele>708.0</ele><time>2026-04-10T02:13:51.056Z</time></trkpt><trkpt lat="32.2357519" lon="-110.9850966"><ele>708.0</ele><time>2026-04-10T02:13:52.056Z</time></trkpt><trkpt lat="32.2357393" lon="-110.985257"><ele>707.3333333333334</ele><time>2026-04-10T02:13:53.056Z</time></trkpt><trkpt lat="32.2357273" lon="-110.9854394"><ele>706.6666666666667</ele><time>2026-04-10T02:13:54.056Z</time></trkpt><trkpt lat="32.2357155" lon="-110.985643"><ele>706.0</ele><time>2026-04-10T02:13:55.056Z</time></trkpt><trkpt lat="32.2357045" lon="-110.9858659"><ele>706.0</ele><time>2026-04-10T02:13:56.056Z</time></trkpt><trkpt lat="32.2356958" lon="-110.986102"><ele>706.0</ele><time>2026-04-10T02:13:57.056Z</time></trkpt><trkpt lat="32.2356873" lon="-110.9863466"><ele>706.0</ele><time>2026-04-10T02:13:58.055Z</time></trkpt><trkpt lat="32.2356797" lon="-110.9865866"><ele>706.0</ele><time>2026-04-10T02:13:59.056Z</time></trkpt><trkpt lat="32.2356751" lon="-110.9868204"><ele>706.0</ele><time>2026-04-10T02:14:00.056Z</time></trkpt><trkpt lat="32.235673" lon="-110.9870454"><ele>706.0</ele><time>2026-04-10T02:14:01.056Z</time></trkpt><trkpt lat="32.2356756" lon="-110.9872719"><ele>706.0</ele><time>2026-04-10T02:14:02.056Z</time></trkpt><trkpt lat="32.2356776" lon="-110.9875034"><ele>706.0</ele><time>2026-04-10T02:14:03.056Z</time></trkpt><trkpt lat="32.2356797" lon="-110.987738"><ele>706.0</ele><time>2026-04-10T02:14:04.056Z</time></trkpt><trkpt lat="32.2356807" lon="-110.9879735"><ele>706.3333333333334</ele><time>2026-04-10T02:14:05.056Z</time></trkpt><trkpt lat="32.2356808" lon="-110.9882113"><ele>706.6666666666666</ele><time>2026-04-10T02:14:06.056Z</time></trkpt><trkpt lat="32.2356818" lon="-110.988449"><ele>707.0</ele><time>2026-04-10T02:14:07.055Z</time></trkpt><trkpt lat="32.2356784" lon="-110.9886829"><ele>707.3333333333333</ele><time>2026-04-10T02:14:08.056Z</time></trkpt><trkpt lat="32.2356822" lon="-110.9889148"><ele>707.6666666666666</ele><time>2026-04-10T02:14:09.056Z</time></trkpt><trkpt lat="32.2356826" lon="-110.9891535"><ele>708.0</ele><time>2026-04-10T02:14:10.056Z</time></trkpt><trkpt lat="32.2356845" lon="-110.9893825"><ele>708.0</ele><time>2026-04-10T02:14:11.055Z</time></trkpt><trkpt lat="32.235689" lon="-110.9896174"><ele>708.0</ele><time>2026-04-10T02:14:12.056Z</time></trkpt><trkpt lat="32.2356905" lon="-110.9898497"><ele>708.0</ele><time>2026-04-10T02:14:13.056Z</time></trkpt><trkpt lat="32.23569" lon="-110.9900819"><ele>709.0</ele><time>2026-04-10T02:14:14.056Z</time></trkpt><trkpt lat="32.2356909" lon="-110.9903158"><ele>710.0</ele><time>2026-04-10T02:14:15.056Z</time></trkpt><trkpt lat="32.2356924" lon="-110.9905513"><ele>711.0</ele><time>2026-04-10T02:14:16.056Z</time></trkpt><trkpt lat="32.2356949" lon="-110.9907843"><ele>710.6666666666666</ele><time>2026-04-10T02:14:17.056Z</time></trkpt><trkpt lat="32.2356972" lon="-110.9910078"><ele>710.3333333333333</ele><time>2026-04-10T02:14:18.056Z</time></trkpt><trkpt lat="32.2357026" lon="-110.9912263"><ele>710.0</ele><time>2026-04-10T02:14:19.056Z</time></trkpt><trkpt lat="32.2357042" lon="-110.9914447"><ele>710.0</ele><time>2026-04-10T02:14:20.055Z</time></trkpt><trkpt lat="32.2357124" lon="-110.9916579"><ele>710.0</ele><time>2026-04-10T02:14:21.056Z</time></trkpt><trkpt lat="32.2357171" lon="-110.9918786"><ele>710.0</ele><time>2026-04-10T02:14:22.056Z</time></trkpt><trkpt lat="32.2357244" lon="-110.9921044"><ele>709.0</ele><time>2026-04-10T02:14:23.056Z</time></trkpt><trkpt lat="32.2357334" lon="-110.9923263"><ele>708.0</ele><time>2026-04-10T02:14:24.056Z</time></trkpt><trkpt lat="32.2357384" lon="-110.9925476"><ele>707.0</ele><time>2026-04-10T02:14:25.056Z</time></trkpt><trkpt lat="32.2357464" lon="-110.9927548"><ele>707.0</ele><time>2026-04-10T02:14:26.056Z</time></trkpt><trkpt lat="32.2357555" lon="-110.9929572"><ele>707.0</ele><time>2026-04-10T02:14:27.056Z</time></trkpt><trkpt lat="32.2357614" lon="-110.9931522"><ele>707.0</ele><time>2026-04-10T02:14:28.056Z</time></trkpt><trkpt lat="32.235767" lon="-110.9933418"><ele>708.0</ele><time>2026-04-10T02:14:29.056Z</time></trkpt><trkpt lat="32.2357686" lon="-110.9935149"><ele>709.0</ele><time>2026-04-10T02:14:30.056Z</time></trkpt><trkpt lat="32.2357753" lon="-110.9936656"><ele>710.0</ele><time>2026-04-10T02:14:31.056Z</time></trkpt><trkpt lat="32.2357789" lon="-110.9938026"><ele>711.0</ele><time>2026-04-10T02:14:32.056Z</time></trkpt><trkpt lat="32.2357804" lon="-110.9939377"><ele>711.0</ele><time>2026-04-10T02:14:33.056Z</time></trkpt><trkpt lat="32.2357803" lon="-110.994094"><ele>711.0</ele><time>2026-04-10T02:14:34.056Z</time></trkpt><trkpt lat="32.2357817" lon="-110.9942537"><ele>711.0</ele><time>2026-04-10T02:14:35.056Z</time></trkpt><trkpt lat="32.2357837" lon="-110.9944349"><ele>711.0</ele><time>2026-04-10T02:14:36.056Z</time></trkpt><trkpt lat="32.2357856" lon="-110.9946318"><ele>711.0</ele><time>2026-04-10T02:14:37.056Z</time></trkpt><trkpt lat="32.2357848" lon="-110.9948312"><ele>711.0</ele><time>2026-04-10T02:14:38.056Z</time></trkpt><trkpt lat="32.235783" lon="-110.9950245"><ele>711.0</ele><time>2026-04-10T02:14:39.055Z</time></trkpt><trkpt lat="32.2357798" lon="-110.9952105"><ele>711.0</ele><time>2026-04-10T02:14:40.056Z</time></trkpt><trkpt lat="32.2357795" lon="-110.9953957"><ele>711.0</ele><time>2026-04-10T02:14:41.056Z</time></trkpt><trkpt lat="32.2357794" lon="-110.9955807"><ele>711.0</ele><time>2026-04-10T02:14:42.056Z</time></trkpt><trkpt lat="32.2357796" lon="-110.995764"><ele>710.3333333333334</ele><time>2026-04-10T02:14:43.056Z</time></trkpt><trkpt lat="32.2357791" lon="-110.9959506"><ele>709.6666666666667</ele><time>2026-04-10T02:14:44.056Z</time></trkpt><trkpt lat="32.2357785" lon="-110.9961315"><ele>709.0</ele><time>2026-04-10T02:14:45.056Z</time></trkpt><trkpt lat="32.2357764" lon="-110.9963081"><ele>709.0</ele><time>2026-04-10T02:14:46.056Z</time></trkpt><trkpt lat="32.2357778" lon="-110.9964881"><ele>709.0</ele><time>2026-04-10T02:14:47.056Z</time></trkpt><trkpt lat="32.2357746" lon="-110.9966692"><ele>709.0</ele><time>2026-04-10T02:14:48.056Z</time></trkpt><trkpt lat="32.2357696" lon="-110.9968585"><ele>708.6666666666667</ele><time>2026-04-10T02:14:49.055Z</time></trkpt><trkpt lat="32.2357688" lon="-110.9970542"><ele>708.3333333333334</ele><time>2026-04-10T02:14:50.056Z</time></trkpt><trkpt lat="32.2357671" lon="-110.9972498"><ele>708.0</ele><time>2026-04-10T02:14:51.056Z</time></trkpt><trkpt lat="32.2357637" lon="-110.9974405"><ele>708.3333333333334</ele><time>2026-04-10T02:14:52.056Z</time></trkpt><trkpt lat="32.2357577" lon="-110.9976367"><ele>708.6666666666667</ele><time>2026-04-10T02:14:53.056Z</time></trkpt><trkpt lat="32.2357533" lon="-110.9978303"><ele>709.0</ele><time>2026-04-10T02:14:54.056Z</time></trkpt><trkpt lat="32.2357504" lon="-110.9980295"><ele>709.0</ele><time>2026-04-10T02:14:55.056Z</time></trkpt><trkpt lat="32.2357496" lon="-110.9982399"><ele>709.0</ele><time>2026-04-10T02:14:56.056Z</time></trkpt><trkpt lat="32.2357486" lon="-110.9984515"><ele>709.0</ele><time>2026-04-10T02:14:57.056Z</time></trkpt><trkpt lat="32.2357417" lon="-110.9986608"><ele>709.6666666666667</ele><time>2026-04-10T02:14:58.056Z</time></trkpt><trkpt lat="32.2357334" lon="-110.9988658"><ele>710.3333333333334</ele><time>2026-04-10T02:14:59.056Z</time></trkpt><trkpt lat="32.2357288" lon="-110.9990858"><ele>711.0</ele><time>2026-04-10T02:15:00.056Z</time></trkpt><trkpt lat="32.2357235" lon="-110.9993074"><ele>711.6666666666666</ele><time>2026-04-10T02:15:01.056Z</time></trkpt><trkpt lat="32.2357183" lon="-110.9995225"><ele>712.3333333333333</ele><time>2026-04-10T02:15:02.055Z</time></trkpt><trkpt lat="32.2357117" lon="-110.999743"><ele>713.0</ele><time>2026-04-10T02:15:03.057Z</time></trkpt><trkpt lat="32.2357097" lon="-110.9999679"><ele>713.0</ele><time>2026-04-10T02:15:04.056Z</time></trkpt><trkpt lat="32.2357061" lon="-111.0001965"><ele>713.0</ele><time>2026-04-10T02:15:05.056Z</time></trkpt><trkpt lat="32.2357041" lon="-111.0004119"><ele>713.0</ele><time>2026-04-10T02:15:06.057Z</time></trkpt><trkpt lat="32.2357019" lon="-111.00062"><ele>713.0</ele><time>2026-04-10T02:15:07.056Z</time></trkpt><trkpt lat="32.2357013" lon="-111.0008276"><ele>713.0</ele><time>2026-04-10T02:15:08.056Z</time></trkpt><trkpt lat="32.2357028" lon="-111.0010274"><ele>713.0</ele><time>2026-04-10T02:15:09.057Z</time></trkpt><trkpt lat="32.2356981" lon="-111.0012196"><ele>713.0</ele><time>2026-04-10T02:15:10.056Z</time></trkpt><trkpt lat="32.2356929" lon="-111.0014095"><ele>713.0</ele><time>2026-04-10T02:15:11.056Z</time></trkpt><trkpt lat="32.2356909" lon="-111.0015969"><ele>713.0</ele><time>2026-04-10T02:15:12.057Z</time></trkpt><trkpt lat="32.2356903" lon="-111.0017918"><ele>712.0</ele><time>2026-04-10T02:15:13.056Z</time></trkpt><trkpt lat="32.2356874" lon="-111.001983"><ele>711.0</ele><time>2026-04-10T02:15:14.057Z</time></trkpt><trkpt lat="32.2356868" lon="-111.0021607"><ele>710.0</ele><time>2026-04-10T02:15:15.056Z</time></trkpt><trkpt lat="32.2356847" lon="-111.0023462"><ele>709.3333333333333</ele><time>2026-04-10T02:15:16.057Z</time></trkpt><trkpt lat="32.2356836" lon="-111.0025508"><ele>708.6666666666666</ele><time>2026-04-10T02:15:17.056Z</time></trkpt><trkpt lat="32.2356878" lon="-111.0027504"><ele>708.0</ele><time>2026-04-10T02:15:18.055Z</time></trkpt><trkpt lat="32.2356869" lon="-111.0029406"><ele>708.0</ele><time>2026-04-10T02:15:19.057Z</time></trkpt><trkpt lat="32.2356855" lon="-111.0031179"><ele>708.0</ele><time>2026-04-10T02:15:20.056Z</time></trkpt><trkpt lat="32.2356873" lon="-111.0032771"><ele>708.0</ele><time>2026-04-10T02:15:21.056Z</time></trkpt><trkpt lat="32.235686" lon="-111.0034239"><ele>708.0</ele><time>2026-04-10T02:15:22.057Z</time></trkpt><trkpt lat="32.2356812" lon="-111.0035523"><ele>708.3333333333334</ele><time>2026-04-10T02:15:23.056Z</time></trkpt><trkpt lat="32.2356818" lon="-111.0036675"><ele>708.6666666666666</ele><time>2026-04-10T02:15:24.056Z</time></trkpt><trkpt lat="32.2356772" lon="-111.0037669"><ele>709.0</ele><time>2026-04-10T02:15:25.057Z</time></trkpt><trkpt lat="32.2356736" lon="-111.0038442"><ele>709.3333333333333</ele><time>2026-04-10T02:15:26.057Z</time></trkpt><trkpt lat="32.2356658" lon="-111.0039269"><ele>709.6666666666666</ele><time>2026-04-10T02:15:27.057Z</time></trkpt><trkpt lat="32.2356668" lon="-111.0040164"><ele>710.0</ele><time>2026-04-10T02:15:28.056Z</time></trkpt><trkpt lat="32.2356698" lon="-111.004129"><ele>710.0</ele><time>2026-04-10T02:15:29.057Z</time></trkpt><trkpt lat="32.2356787" lon="-111.00428"><ele>710.0</ele><time>2026-04-10T02:15:30.057Z</time></trkpt><trkpt lat="32.2356826" lon="-111.0044664"><ele>710.0</ele><time>2026-04-10T02:15:31.056Z</time></trkpt><trkpt lat="32.2356808" lon="-111.0046912"><ele>710.0</ele><time>2026-04-10T02:15:32.057Z</time></trkpt><trkpt lat="32.2356755" lon="-111.0049394"><ele>710.0</ele><time>2026-04-10T02:15:33.056Z</time></trkpt><trkpt lat="32.2356681" lon="-111.0052067"><ele>710.0</ele><time>2026-04-10T02:15:34.057Z</time></trkpt><trkpt lat="32.2356516" lon="-111.0054822"><ele>710.0</ele><time>2026-04-10T02:15:35.056Z</time></trkpt><trkpt lat="32.2356278" lon="-111.0057586"><ele>710.0</ele><time>2026-04-10T02:15:36.056Z</time></trkpt><trkpt lat="32.2355903" lon="-111.0060335"><ele>711.0</ele><time>2026-04-10T02:15:37.056Z</time></trkpt><trkpt lat="32.2355399" lon="-111.0063254"><ele>712.0</ele><time>2026-04-10T02:15:38.057Z</time></trkpt><trkpt lat="32.2354861" lon="-111.0066022"><ele>714.0</ele><time>2026-04-10T02:15:39.057Z</time></trkpt><trkpt lat="32.2354282" lon="-111.0068643"><ele>716.0</ele><time>2026-04-10T02:15:40.057Z</time></trkpt><trkpt lat="32.2353742" lon="-111.0071213"><ele>716.0</ele><time>2026-04-10T02:15:41.057Z</time></trkpt><trkpt lat="32.2353278" lon="-111.0073691"><ele>716.0</ele><time>2026-04-10T02:15:42.057Z</time></trkpt><trkpt lat="32.2352868" lon="-111.0076144"><ele>716.0</ele><time>2026-04-10T02:15:43.057Z</time></trkpt><trkpt lat="32.2352582" lon="-111.0078561"><ele>716.6666666666666</ele><time>2026-04-10T02:15:44.056Z</time></trkpt><trkpt lat="32.2352405" lon="-111.0081051"><ele>717.3333333333334</ele><time>2026-04-10T02:15:45.057Z</time></trkpt><trkpt lat="32.2352308" lon="-111.0083498"><ele>718.0</ele><time>2026-04-10T02:15:46.057Z</time></trkpt><trkpt lat="32.2352272" lon="-111.0085909"><ele>720.6666666666667</ele><time>2026-04-10T02:15:47.057Z</time></trkpt><trkpt lat="32.2352326" lon="-111.0088282"><ele>723.3333333333334</ele><time>2026-04-10T02:15:48.056Z</time></trkpt><trkpt lat="32.2352465" lon="-111.0090641"><ele>726.0</ele><time>2026-04-10T02:15:49.057Z</time></trkpt><trkpt lat="32.235267" lon="-111.0092998"><ele>726.6666666666666</ele><time>2026-04-10T02:15:50.057Z</time></trkpt><trkpt lat="32.2352974" lon="-111.0095301"><ele>727.3333333333333</ele><time>2026-04-10T02:15:51.057Z</time></trkpt><trkpt lat="32.2353322" lon="-111.0097625"><ele>728.0</ele><time>2026-04-10T02:15:52.057Z</time></trkpt><trkpt lat="32.2353792" lon="-111.0099965"><ele>729.0</ele><time>2026-04-10T02:15:53.057Z</time></trkpt><trkpt lat="32.2354294" lon="-111.0102339"><ele>730.0</ele><time>2026-04-10T02:15:54.057Z</time></trkpt><trkpt lat="32.2354836" lon="-111.0104667"><ele>731.0</ele><time>2026-04-10T02:15:55.057Z</time></trkpt><trkpt lat="32.2355424" lon="-111.010695"><ele>730.6666666666666</ele><time>2026-04-10T02:15:56.057Z</time></trkpt><trkpt lat="32.2356014" lon="-111.0109166"><ele>730.3333333333334</ele><time>2026-04-10T02:15:57.057Z</time></trkpt><trkpt lat="32.2356589" lon="-111.0111391"><ele>730.0</ele><time>2026-04-10T02:15:58.057Z</time></trkpt><trkpt lat="32.2357112" lon="-111.0113587"><ele>729.6666666666667</ele><time>2026-04-10T02:15:59.057Z</time></trkpt><trkpt lat="32.2357614" lon="-111.0115777"><ele>729.3333333333334</ele><time>2026-04-10T02:16:00.057Z</time></trkpt><trkpt lat="32.2358082" lon="-111.0117983"><ele>729.0</ele><time>2026-04-10T02:16:01.057Z</time></trkpt><trkpt lat="32.2358523" lon="-111.0120241"><ele>729.6666666666666</ele><time>2026-04-10T02:16:02.057Z</time></trkpt><trkpt lat="32.2358916" lon="-111.0122546"><ele>730.3333333333333</ele><time>2026-04-10T02:16:03.057Z</time></trkpt><trkpt lat="32.235919" lon="-111.0124879"><ele>731.0</ele><time>2026-04-10T02:16:04.057Z</time></trkpt><trkpt lat="32.235938" lon="-111.0127256"><ele>731.0</ele><time>2026-04-10T02:16:05.057Z</time></trkpt><trkpt lat="32.2359494" lon="-111.0129675"><ele>731.0</ele><time>2026-04-10T02:16:06.057Z</time></trkpt><trkpt lat="32.2359577" lon="-111.0134554"><ele>731.0</ele><time>2026-04-10T02:16:08.057Z</time></trkpt><trkpt lat="32.2359568" lon="-111.0136974"><ele>731.0</ele><time>2026-04-10T02:16:09.057Z</time></trkpt><trkpt lat="32.2359564" lon="-111.0139403"><ele>731.0</ele><time>2026-04-10T02:16:10.057Z</time></trkpt><trkpt lat="32.2359573" lon="-111.0141818"><ele>730.3333333333333</ele><time>2026-04-10T02:16:11.057Z</time></trkpt><trkpt lat="32.2359556" lon="-111.0144218"><ele>729.6666666666666</ele><time>2026-04-10T02:16:12.057Z</time></trkpt><trkpt lat="32.2359575" lon="-111.0146639"><ele>729.0</ele><time>2026-04-10T02:16:13.057Z</time></trkpt><trkpt lat="32.2359607" lon="-111.0149061"><ele>728.6666666666666</ele><time>2026-04-10T02:16:14.056Z</time></trkpt><trkpt lat="32.2359639" lon="-111.0151499"><ele>728.3333333333333</ele><time>2026-04-10T02:16:15.057Z</time></trkpt><trkpt lat="32.235964" lon="-111.0153943"><ele>728.0</ele><time>2026-04-10T02:16:16.057Z</time></trkpt><trkpt lat="32.2359633" lon="-111.0156456"><ele>728.0</ele><time>2026-04-10T02:16:17.057Z</time></trkpt><trkpt lat="32.2359624" lon="-111.0159015"><ele>728.0</ele><time>2026-04-10T02:16:18.057Z</time></trkpt><trkpt lat="32.2359603" lon="-111.0161607"><ele>728.0</ele><time>2026-04-10T02:16:19.057Z</time></trkpt><trkpt lat="32.2359593" lon="-111.0164168"><ele>729.0</ele><time>2026-04-10T02:16:20.057Z</time></trkpt><trkpt lat="32.2359604" lon="-111.0166744"><ele>730.0</ele><time>2026-04-10T02:16:21.057Z</time></trkpt><trkpt lat="32.2359629" lon="-111.0169378"><ele>731.0</ele><time>2026-04-10T02:16:22.057Z</time></trkpt><trkpt lat="32.2359633" lon="-111.0172"><ele>731.0</ele><time>2026-04-10T02:16:23.057Z</time></trkpt><trkpt lat="32.2359627" lon="-111.0174533"><ele>731.0</ele><time>2026-04-10T02:16:24.057Z</time></trkpt><trkpt lat="32.2359625" lon="-111.0177027"><ele>731.0</ele><time>2026-04-10T02:16:25.057Z</time></trkpt><trkpt lat="32.2359648" lon="-111.0179481"><ele>733.0</ele><time>2026-04-10T02:16:26.057Z</time></trkpt><trkpt lat="32.2359674" lon="-111.0181914"><ele>735.0</ele><time>2026-04-10T02:16:27.057Z</time></trkpt><trkpt lat="32.23597" lon="-111.0184294"><ele>737.0</ele><time>2026-04-10T02:16:28.057Z</time></trkpt><trkpt lat="32.2359711" lon="-111.0186657"><ele>739.3333333333333</ele><time>2026-04-10T02:16:29.057Z</time></trkpt><trkpt lat="32.2359722" lon="-111.0189017"><ele>741.6666666666666</ele><time>2026-04-10T02:16:30.057Z</time></trkpt><trkpt lat="32.2359709" lon="-111.019135"><ele>744.0</ele><time>2026-04-10T02:16:31.057Z</time></trkpt><trkpt lat="32.2359721" lon="-111.0193725"><ele>744.0</ele><time>2026-04-10T02:16:32.057Z</time></trkpt><trkpt lat="32.2359707" lon="-111.0195989"><ele>744.0</ele><time>2026-04-10T02:16:33.057Z</time></trkpt><trkpt lat="32.2359688" lon="-111.0198228"><ele>744.0</ele><time>2026-04-10T02:16:34.057Z</time></trkpt><trkpt lat="32.2359668" lon="-111.0200396"><ele>743.0</ele><time>2026-04-10T02:16:35.057Z</time></trkpt><trkpt lat="32.2359647" lon="-111.0202468"><ele>742.0</ele><time>2026-04-10T02:16:36.057Z</time></trkpt><trkpt lat="32.2359628" lon="-111.0204414"><ele>741.0</ele><time>2026-04-10T02:16:37.057Z</time></trkpt><trkpt lat="32.2359598" lon="-111.0206179"><ele>741.0</ele><time>2026-04-10T02:16:38.057Z</time></trkpt><trkpt lat="32.2359505" lon="-111.020782"><ele>741.0</ele><time>2026-04-10T02:16:39.057Z</time></trkpt><trkpt lat="32.2359448" lon="-111.0209277"><ele>741.0</ele><time>2026-04-10T02:16:40.057Z</time></trkpt><trkpt lat="32.2359411" lon="-111.0210521"><ele>741.0</ele><time>2026-04-10T02:16:41.057Z</time></trkpt><trkpt lat="32.235939" lon="-111.0211595"><ele>740.3333333333334</ele><time>2026-04-10T02:16:42.057Z</time></trkpt><trkpt lat="32.235938" lon="-111.0212436"><ele>739.6666666666666</ele><time>2026-04-10T02:16:43.057Z</time></trkpt><trkpt lat="32.2359321" lon="-111.0213487"><ele>739.0</ele><time>2026-04-10T02:16:45.057Z</time></trkpt><trkpt lat="32.2359405" lon="-111.0214598"><ele>738.3333333333333</ele><time>2026-04-10T02:17:14.057Z</time></trkpt><trkpt lat="32.2358767" lon="-111.0215595"><ele>737.6666666666666</ele><time>2026-04-10T02:17:17.058Z</time></trkpt><trkpt lat="32.2358112" lon="-111.0215883"><ele>737.0</ele><time>2026-04-10T02:17:18.058Z</time></trkpt><trkpt lat="32.2357174" lon="-111.0216057"><ele>738.6666666666666</ele><time>2026-04-10T02:17:19.057Z</time></trkpt><trkpt lat="32.2355926" lon="-111.0216096"><ele>740.3333333333334</ele><time>2026-04-10T02:17:20.056Z</time></trkpt><trkpt lat="32.2354407" lon="-111.0215944"><ele>742.0</ele><time>2026-04-10T02:17:21.058Z</time></trkpt><trkpt lat="32.2352704" lon="-111.0215568"><ele>742.0</ele><time>2026-04-10T02:17:22.058Z</time></trkpt><trkpt lat="32.2350866" lon="-111.0215"><ele>742.0</ele><time>2026-04-10T02:17:23.058Z</time></trkpt><trkpt lat="32.2348947" lon="-111.0214301"><ele>742.0</ele><time>2026-04-10T02:17:24.059Z</time></trkpt><trkpt lat="32.2347003" lon="-111.0213532"><ele>742.6666666666667</ele><time>2026-04-10T02:17:25.058Z</time></trkpt><trkpt lat="32.2345056" lon="-111.0212747"><ele>743.3333333333334</ele><time>2026-04-10T02:17:26.061Z</time></trkpt><trkpt lat="32.2343093" lon="-111.0211957"><ele>744.0</ele><time>2026-04-10T02:17:27.061Z</time></trkpt><trkpt lat="32.234112" lon="-111.0211173"><ele>745.0</ele><time>2026-04-10T02:17:28.057Z</time></trkpt><trkpt lat="32.2339149" lon="-111.0210394"><ele>746.0</ele><time>2026-04-10T02:17:29.058Z</time></trkpt><trkpt lat="32.2337193" lon="-111.0209625"><ele>747.0</ele><time>2026-04-10T02:17:30.058Z</time></trkpt><trkpt lat="32.2335255" lon="-111.0208874"><ele>746.3333333333334</ele><time>2026-04-10T02:17:31.058Z</time></trkpt><trkpt lat="32.2333326" lon="-111.0208125"><ele>745.6666666666667</ele><time>2026-04-10T02:17:32.058Z</time></trkpt><trkpt lat="32.2331448" lon="-111.0207399"><ele>745.0</ele><time>2026-04-10T02:17:33.058Z</time></trkpt><trkpt lat="32.2329575" lon="-111.0206714"><ele>744.0</ele><time>2026-04-10T02:17:34.058Z</time></trkpt><trkpt lat="32.2327741" lon="-111.0206103"><ele>743.0</ele><time>2026-04-10T02:17:35.059Z</time></trkpt><trkpt lat="32.2325918" lon="-111.020553"><ele>742.0</ele><time>2026-04-10T02:17:36.058Z</time></trkpt><trkpt lat="32.2324132" lon="-111.0205036"><ele>741.3333333333334</ele><time>2026-04-10T02:17:37.058Z</time></trkpt><trkpt lat="32.2322329" lon="-111.0204661"><ele>740.6666666666666</ele><time>2026-04-10T02:17:38.058Z</time></trkpt><trkpt lat="32.2320403" lon="-111.0204424"><ele>740.0</ele><time>2026-04-10T02:17:39.058Z</time></trkpt><trkpt lat="32.2318425" lon="-111.0204305"><ele>740.0</ele><time>2026-04-10T02:17:40.058Z</time></trkpt><trkpt lat="32.2316418" lon="-111.0204238"><ele>740.0</ele><time>2026-04-10T02:17:41.058Z</time></trkpt><trkpt lat="32.2314452" lon="-111.020418"><ele>740.0</ele><time>2026-04-10T02:17:42.059Z</time></trkpt><trkpt lat="32.2312529" lon="-111.0204149"><ele>739.6666666666666</ele><time>2026-04-10T02:17:43.061Z</time></trkpt><trkpt lat="32.2310626" lon="-111.0204126"><ele>739.3333333333334</ele><time>2026-04-10T02:17:44.058Z</time></trkpt><trkpt lat="32.2308775" lon="-111.0204132"><ele>739.0</ele><time>2026-04-10T02:17:45.059Z</time></trkpt><trkpt lat="32.230693" lon="-111.0204182"><ele>739.3333333333334</ele><time>2026-04-10T02:17:46.058Z</time></trkpt><trkpt lat="32.2305111" lon="-111.0204158"><ele>739.6666666666666</ele><time>2026-04-10T02:17:47.058Z</time></trkpt><trkpt lat="32.2303186" lon="-111.0204148"><ele>740.0</ele><time>2026-04-10T02:17:48.058Z</time></trkpt><trkpt lat="32.2301255" lon="-111.0204132"><ele>740.0</ele><time>2026-04-10T02:17:49.058Z</time></trkpt><trkpt lat="32.2299316" lon="-111.0204099"><ele>740.0</ele><time>2026-04-10T02:17:50.058Z</time></trkpt><trkpt lat="32.2297392" lon="-111.0204059"><ele>740.0</ele><time>2026-04-10T02:17:51.059Z</time></trkpt><trkpt lat="32.2295403" lon="-111.0204032"><ele>740.0</ele><time>2026-04-10T02:17:52.059Z</time></trkpt><trkpt lat="32.2293402" lon="-111.0203955"><ele>740.0</ele><time>2026-04-10T02:17:53.058Z</time></trkpt><trkpt lat="32.2291373" lon="-111.0203894"><ele>740.0</ele><time>2026-04-10T02:17:54.058Z</time></trkpt><trkpt lat="32.2289386" lon="-111.020388"><ele>742.0</ele><time>2026-04-10T02:17:55.058Z</time></trkpt><trkpt lat="32.2287436" lon="-111.0203889"><ele>744.0</ele><time>2026-04-10T02:17:56.059Z</time></trkpt><trkpt lat="32.2285502" lon="-111.0203811"><ele>746.0</ele><time>2026-04-10T02:17:57.059Z</time></trkpt><trkpt lat="32.2283552" lon="-111.0203806"><ele>746.0</ele><time>2026-04-10T02:17:58.061Z</time></trkpt><trkpt lat="32.2281553" lon="-111.0203824"><ele>746.0</ele><time>2026-04-10T02:17:59.059Z</time></trkpt><trkpt lat="32.2279563" lon="-111.0203849"><ele>746.0</ele><time>2026-04-10T02:18:00.058Z</time></trkpt><trkpt lat="32.2277594" lon="-111.0203803"><ele>746.6666666666666</ele><time>2026-04-10T02:18:01.058Z</time></trkpt><trkpt lat="32.2275629" lon="-111.0203758"><ele>747.3333333333334</ele><time>2026-04-10T02:18:02.058Z</time></trkpt><trkpt lat="32.2273698" lon="-111.0203716"><ele>748.0</ele><time>2026-04-10T02:18:03.059Z</time></trkpt><trkpt lat="32.2271813" lon="-111.0203667"><ele>748.0</ele><time>2026-04-10T02:18:04.057Z</time></trkpt><trkpt lat="32.2269908" lon="-111.020362"><ele>748.0</ele><time>2026-04-10T02:18:05.058Z</time></trkpt><trkpt lat="32.2267985" lon="-111.0203572"><ele>748.0</ele><time>2026-04-10T02:18:06.058Z</time></trkpt><trkpt lat="32.2266113" lon="-111.020356"><ele>748.3333333333334</ele><time>2026-04-10T02:18:07.058Z</time></trkpt><trkpt lat="32.2264276" lon="-111.0203549"><ele>748.6666666666666</ele><time>2026-04-10T02:18:08.059Z</time></trkpt><trkpt lat="32.2262466" lon="-111.0203507"><ele>749.0</ele><time>2026-04-10T02:18:09.058Z</time></trkpt><trkpt lat="32.2260784" lon="-111.0203539"><ele>749.0</ele><time>2026-04-10T02:18:10.059Z</time></trkpt><trkpt lat="32.2259181" lon="-111.0203604"><ele>749.0</ele><time>2026-04-10T02:18:11.058Z</time></trkpt><trkpt lat="32.2257649" lon="-111.0203692"><ele>749.0</ele><time>2026-04-10T02:18:12.057Z</time></trkpt><trkpt lat="32.2256243" lon="-111.0203789"><ele>748.75</ele><time>2026-04-10T02:18:13.058Z</time></trkpt><trkpt lat="32.2254944" lon="-111.0203869"><ele>748.5</ele><time>2026-04-10T02:18:14.059Z</time></trkpt><trkpt lat="32.2253718" lon="-111.0203951"><ele>748.25</ele><time>2026-04-10T02:18:15.059Z</time></trkpt><trkpt lat="32.2252589" lon="-111.0204062"><ele>748.0</ele><time>2026-04-10T02:18:16.057Z</time></trkpt><trkpt lat="32.2251646" lon="-111.0204267"><ele>748.0</ele><time>2026-04-10T02:18:17.057Z</time></trkpt><trkpt lat="32.2250852" lon="-111.0204616"><ele>748.0</ele><time>2026-04-10T02:18:18.058Z</time></trkpt><trkpt lat="32.2250279" lon="-111.0205122"><ele>748.0</ele><time>2026-04-10T02:18:19.058Z</time></trkpt><trkpt lat="32.2249918" lon="-111.0205828"><ele>748.0</ele><time>2026-04-10T02:18:20.058Z</time></trkpt><trkpt lat="32.2249686" lon="-111.0206812"><ele>748.0</ele><time>2026-04-10T02:18:21.059Z</time></trkpt><trkpt lat="32.2249629" lon="-111.0208035"><ele>748.0</ele><time>2026-04-10T02:18:22.058Z</time></trkpt><trkpt lat="32.2249666" lon="-111.0209407"><ele>749.0</ele><time>2026-04-10T02:18:23.058Z</time></trkpt><trkpt lat="32.2249697" lon="-111.0210826"><ele>750.0</ele><time>2026-04-10T02:18:24.06Z</time></trkpt><trkpt lat="32.2249723" lon="-111.0211988"><ele>751.0</ele><time>2026-04-10T02:18:25.061Z</time></trkpt><trkpt lat="32.2249676" lon="-111.0213011"><ele>752.0</ele><time>2026-04-10T02:18:26.06Z</time></trkpt><trkpt lat="32.2249591" lon="-111.0213894"><ele>753.0</ele><time>2026-04-10T02:18:27.057Z</time></trkpt><trkpt lat="32.2249526" lon="-111.0215233"><ele>753.0</ele><time>2026-04-10T02:18:29.058Z</time></trkpt><trkpt lat="32.2248694" lon="-111.0216529"><ele>757.0</ele><time>2026-04-10T02:18:32.057Z</time></trkpt><trkpt lat="32.224798" lon="-111.0216702"><ele>758.0</ele><time>2026-04-10T02:18:33.058Z</time></trkpt><trkpt lat="32.2247271" lon="-111.0216666"><ele>758.0</ele><time>2026-04-10T02:18:34.058Z</time></trkpt><trkpt lat="32.2246431" lon="-111.021672"><ele>758.0</ele><time>2026-04-10T02:32:43.066Z</time></trkpt></trkseg></trk></gpx>